<?xml version="1.0" encoding="UTF-8"?>
<gpx xmlns="http://www.topografix.com/GPX/1/1"
     creator="GpsDump 4.92"
     version="1.1"
     xmlns:xsi="http://www.w3.org/2001/XMLSchema-instance"
     xsi:schemaLocation="http://www.topografix.com/GPX/1/1 http://www.topografix.com/GPX/1/1/gpx.xsd">
  <metadata>
    <link href="http://www.gethome.no/stein.sorensen/">
      <text>GPS dump for www.flightlog.org</text>
    </link>
    <time>2017-10-01T17:58:56Z</time>
    <bounds minlat="41.077017" minlon="-3.717233" maxlat="41.154333" maxlon="-3.608617"/>
  </metadata>
  <trk>
    <name>Track 001</name>
    <trkseg>
      <trkpt lat="41.077017" lon="-3.708150">
        <ele>1848.0</ele>
        <time>2017-10-01T12:21:11Z</time>
      </trkpt>
      <trkpt lat="41.077033" lon="-3.708217">
        <ele>1849.0</ele>
        <time>2017-10-01T12:21:12Z</time>
      </trkpt>
      <trkpt lat="41.077067" lon="-3.708250">
        <ele>1852.0</ele>
        <time>2017-10-01T12:21:13Z</time>
      </trkpt>
      <trkpt lat="41.077100" lon="-3.708283">
        <ele>1855.0</ele>
        <time>2017-10-01T12:21:14Z</time>
      </trkpt>
      <trkpt lat="41.077117" lon="-3.708300">
        <ele>1858.0</ele>
        <time>2017-10-01T12:21:15Z</time>
      </trkpt>
      <trkpt lat="41.077133" lon="-3.708317">
        <ele>1860.0</ele>
        <time>2017-10-01T12:21:16Z</time>
      </trkpt>
      <trkpt lat="41.077150" lon="-3.708367">
        <ele>1861.0</ele>
        <time>2017-10-01T12:21:17Z</time>
      </trkpt>
      <trkpt lat="41.077150" lon="-3.708417">
        <ele>1861.0</ele>
        <time>2017-10-01T12:21:18Z</time>
      </trkpt>
      <trkpt lat="41.077167" lon="-3.708483">
        <ele>1861.0</ele>
        <time>2017-10-01T12:21:19Z</time>
      </trkpt>
      <trkpt lat="41.077183" lon="-3.708533">
        <ele>1862.0</ele>
        <time>2017-10-01T12:21:20Z</time>
      </trkpt>
      <trkpt lat="41.077217" lon="-3.708567">
        <ele>1864.0</ele>
        <time>2017-10-01T12:21:21Z</time>
      </trkpt>
      <trkpt lat="41.077233" lon="-3.708600">
        <ele>1866.0</ele>
        <time>2017-10-01T12:21:22Z</time>
      </trkpt>
      <trkpt lat="41.077233" lon="-3.708617">
        <ele>1867.0</ele>
        <time>2017-10-01T12:21:23Z</time>
      </trkpt>
      <trkpt lat="41.077250" lon="-3.708650">
        <ele>1867.0</ele>
        <time>2017-10-01T12:21:24Z</time>
      </trkpt>
      <trkpt lat="41.077250" lon="-3.708700">
        <ele>1867.0</ele>
        <time>2017-10-01T12:21:25Z</time>
      </trkpt>
      <trkpt lat="41.077283" lon="-3.708733">
        <ele>1866.0</ele>
        <time>2017-10-01T12:21:26Z</time>
      </trkpt>
      <trkpt lat="41.077317" lon="-3.708767">
        <ele>1865.0</ele>
        <time>2017-10-01T12:21:27Z</time>
      </trkpt>
      <trkpt lat="41.077350" lon="-3.708800">
        <ele>1865.0</ele>
        <time>2017-10-01T12:21:28Z</time>
      </trkpt>
      <trkpt lat="41.077383" lon="-3.708833">
        <ele>1866.0</ele>
        <time>2017-10-01T12:21:29Z</time>
      </trkpt>
      <trkpt lat="41.077417" lon="-3.708850">
        <ele>1868.0</ele>
        <time>2017-10-01T12:21:30Z</time>
      </trkpt>
      <trkpt lat="41.077433" lon="-3.708867">
        <ele>1868.0</ele>
        <time>2017-10-01T12:21:31Z</time>
      </trkpt>
      <trkpt lat="41.077467" lon="-3.708867">
        <ele>1869.0</ele>
        <time>2017-10-01T12:21:32Z</time>
      </trkpt>
      <trkpt lat="41.077500" lon="-3.708883">
        <ele>1868.0</ele>
        <time>2017-10-01T12:21:33Z</time>
      </trkpt>
      <trkpt lat="41.077533" lon="-3.708900">
        <ele>1867.0</ele>
        <time>2017-10-01T12:21:34Z</time>
      </trkpt>
      <trkpt lat="41.077583" lon="-3.708917">
        <ele>1866.0</ele>
        <time>2017-10-01T12:21:35Z</time>
      </trkpt>
      <trkpt lat="41.077633" lon="-3.708933">
        <ele>1867.0</ele>
        <time>2017-10-01T12:21:36Z</time>
      </trkpt>
      <trkpt lat="41.077683" lon="-3.708933">
        <ele>1868.0</ele>
        <time>2017-10-01T12:21:37Z</time>
      </trkpt>
      <trkpt lat="41.077717" lon="-3.708933">
        <ele>1869.0</ele>
        <time>2017-10-01T12:21:38Z</time>
      </trkpt>
      <trkpt lat="41.077767" lon="-3.708917">
        <ele>1869.0</ele>
        <time>2017-10-01T12:21:39Z</time>
      </trkpt>
      <trkpt lat="41.077800" lon="-3.708917">
        <ele>1869.0</ele>
        <time>2017-10-01T12:21:40Z</time>
      </trkpt>
      <trkpt lat="41.077833" lon="-3.708900">
        <ele>1868.0</ele>
        <time>2017-10-01T12:21:41Z</time>
      </trkpt>
      <trkpt lat="41.077900" lon="-3.708900">
        <ele>1867.0</ele>
        <time>2017-10-01T12:21:42Z</time>
      </trkpt>
      <trkpt lat="41.077950" lon="-3.708900">
        <ele>1867.0</ele>
        <time>2017-10-01T12:21:43Z</time>
      </trkpt>
      <trkpt lat="41.078000" lon="-3.708883">
        <ele>1868.0</ele>
        <time>2017-10-01T12:21:44Z</time>
      </trkpt>
      <trkpt lat="41.078033" lon="-3.708883">
        <ele>1868.0</ele>
        <time>2017-10-01T12:21:45Z</time>
      </trkpt>
      <trkpt lat="41.078083" lon="-3.708867">
        <ele>1868.0</ele>
        <time>2017-10-01T12:21:46Z</time>
      </trkpt>
      <trkpt lat="41.078133" lon="-3.708850">
        <ele>1867.0</ele>
        <time>2017-10-01T12:21:47Z</time>
      </trkpt>
      <trkpt lat="41.078183" lon="-3.708817">
        <ele>1866.0</ele>
        <time>2017-10-01T12:21:48Z</time>
      </trkpt>
      <trkpt lat="41.078233" lon="-3.708783">
        <ele>1865.0</ele>
        <time>2017-10-01T12:21:49Z</time>
      </trkpt>
      <trkpt lat="41.078283" lon="-3.708733">
        <ele>1864.0</ele>
        <time>2017-10-01T12:21:50Z</time>
      </trkpt>
      <trkpt lat="41.078333" lon="-3.708683">
        <ele>1863.0</ele>
        <time>2017-10-01T12:21:51Z</time>
      </trkpt>
      <trkpt lat="41.078400" lon="-3.708617">
        <ele>1861.0</ele>
        <time>2017-10-01T12:21:52Z</time>
      </trkpt>
      <trkpt lat="41.078450" lon="-3.708567">
        <ele>1861.0</ele>
        <time>2017-10-01T12:21:53Z</time>
      </trkpt>
      <trkpt lat="41.078517" lon="-3.708500">
        <ele>1861.0</ele>
        <time>2017-10-01T12:21:54Z</time>
      </trkpt>
      <trkpt lat="41.078567" lon="-3.708450">
        <ele>1862.0</ele>
        <time>2017-10-01T12:21:55Z</time>
      </trkpt>
      <trkpt lat="41.078617" lon="-3.708400">
        <ele>1864.0</ele>
        <time>2017-10-01T12:21:56Z</time>
      </trkpt>
      <trkpt lat="41.078650" lon="-3.708350">
        <ele>1865.0</ele>
        <time>2017-10-01T12:21:57Z</time>
      </trkpt>
      <trkpt lat="41.078683" lon="-3.708283">
        <ele>1865.0</ele>
        <time>2017-10-01T12:21:58Z</time>
      </trkpt>
      <trkpt lat="41.078717" lon="-3.708217">
        <ele>1864.0</ele>
        <time>2017-10-01T12:21:59Z</time>
      </trkpt>
      <trkpt lat="41.078767" lon="-3.708150">
        <ele>1864.0</ele>
        <time>2017-10-01T12:22:00Z</time>
      </trkpt>
      <trkpt lat="41.078817" lon="-3.708083">
        <ele>1864.0</ele>
        <time>2017-10-01T12:22:01Z</time>
      </trkpt>
      <trkpt lat="41.078867" lon="-3.708033">
        <ele>1865.0</ele>
        <time>2017-10-01T12:22:02Z</time>
      </trkpt>
      <trkpt lat="41.078900" lon="-3.707967">
        <ele>1865.0</ele>
        <time>2017-10-01T12:22:03Z</time>
      </trkpt>
      <trkpt lat="41.078933" lon="-3.707917">
        <ele>1866.0</ele>
        <time>2017-10-01T12:22:04Z</time>
      </trkpt>
      <trkpt lat="41.078983" lon="-3.707867">
        <ele>1865.0</ele>
        <time>2017-10-01T12:22:05Z</time>
      </trkpt>
      <trkpt lat="41.079033" lon="-3.707817">
        <ele>1863.0</ele>
        <time>2017-10-01T12:22:06Z</time>
      </trkpt>
      <trkpt lat="41.079100" lon="-3.707767">
        <ele>1862.0</ele>
        <time>2017-10-01T12:22:07Z</time>
      </trkpt>
      <trkpt lat="41.079167" lon="-3.707700">
        <ele>1862.0</ele>
        <time>2017-10-01T12:22:08Z</time>
      </trkpt>
      <trkpt lat="41.079217" lon="-3.707650">
        <ele>1863.0</ele>
        <time>2017-10-01T12:22:09Z</time>
      </trkpt>
      <trkpt lat="41.079267" lon="-3.707600">
        <ele>1863.0</ele>
        <time>2017-10-01T12:22:10Z</time>
      </trkpt>
      <trkpt lat="41.079317" lon="-3.707550">
        <ele>1863.0</ele>
        <time>2017-10-01T12:22:11Z</time>
      </trkpt>
      <trkpt lat="41.079367" lon="-3.707483">
        <ele>1862.0</ele>
        <time>2017-10-01T12:22:12Z</time>
      </trkpt>
      <trkpt lat="41.079400" lon="-3.707417">
        <ele>1861.0</ele>
        <time>2017-10-01T12:22:13Z</time>
      </trkpt>
      <trkpt lat="41.079450" lon="-3.707333">
        <ele>1860.0</ele>
        <time>2017-10-01T12:22:14Z</time>
      </trkpt>
      <trkpt lat="41.079500" lon="-3.707267">
        <ele>1859.0</ele>
        <time>2017-10-01T12:22:15Z</time>
      </trkpt>
      <trkpt lat="41.079550" lon="-3.707183">
        <ele>1858.0</ele>
        <time>2017-10-01T12:22:16Z</time>
      </trkpt>
      <trkpt lat="41.079600" lon="-3.707117">
        <ele>1857.0</ele>
        <time>2017-10-01T12:22:17Z</time>
      </trkpt>
      <trkpt lat="41.079650" lon="-3.707050">
        <ele>1856.0</ele>
        <time>2017-10-01T12:22:18Z</time>
      </trkpt>
      <trkpt lat="41.079700" lon="-3.707000">
        <ele>1854.0</ele>
        <time>2017-10-01T12:22:19Z</time>
      </trkpt>
      <trkpt lat="41.079750" lon="-3.706933">
        <ele>1854.0</ele>
        <time>2017-10-01T12:22:20Z</time>
      </trkpt>
      <trkpt lat="41.079783" lon="-3.706883">
        <ele>1853.0</ele>
        <time>2017-10-01T12:22:21Z</time>
      </trkpt>
      <trkpt lat="41.079833" lon="-3.706817">
        <ele>1851.0</ele>
        <time>2017-10-01T12:22:22Z</time>
      </trkpt>
      <trkpt lat="41.079867" lon="-3.706767">
        <ele>1850.0</ele>
        <time>2017-10-01T12:22:23Z</time>
      </trkpt>
      <trkpt lat="41.079917" lon="-3.706700">
        <ele>1848.0</ele>
        <time>2017-10-01T12:22:24Z</time>
      </trkpt>
      <trkpt lat="41.079950" lon="-3.706617">
        <ele>1847.0</ele>
        <time>2017-10-01T12:22:25Z</time>
      </trkpt>
      <trkpt lat="41.079983" lon="-3.706533">
        <ele>1845.0</ele>
        <time>2017-10-01T12:22:26Z</time>
      </trkpt>
      <trkpt lat="41.080033" lon="-3.706433">
        <ele>1844.0</ele>
        <time>2017-10-01T12:22:27Z</time>
      </trkpt>
      <trkpt lat="41.080067" lon="-3.706333">
        <ele>1843.0</ele>
        <time>2017-10-01T12:22:28Z</time>
      </trkpt>
      <trkpt lat="41.080100" lon="-3.706250">
        <ele>1842.0</ele>
        <time>2017-10-01T12:22:29Z</time>
      </trkpt>
      <trkpt lat="41.080133" lon="-3.706167">
        <ele>1842.0</ele>
        <time>2017-10-01T12:22:30Z</time>
      </trkpt>
      <trkpt lat="41.080167" lon="-3.706067">
        <ele>1841.0</ele>
        <time>2017-10-01T12:22:31Z</time>
      </trkpt>
      <trkpt lat="41.080200" lon="-3.705967">
        <ele>1840.0</ele>
        <time>2017-10-01T12:22:32Z</time>
      </trkpt>
      <trkpt lat="41.080233" lon="-3.705867">
        <ele>1839.0</ele>
        <time>2017-10-01T12:22:33Z</time>
      </trkpt>
      <trkpt lat="41.080283" lon="-3.705767">
        <ele>1839.0</ele>
        <time>2017-10-01T12:22:34Z</time>
      </trkpt>
      <trkpt lat="41.080317" lon="-3.705683">
        <ele>1840.0</ele>
        <time>2017-10-01T12:22:35Z</time>
      </trkpt>
      <trkpt lat="41.080350" lon="-3.705583">
        <ele>1839.0</ele>
        <time>2017-10-01T12:22:36Z</time>
      </trkpt>
      <trkpt lat="41.080400" lon="-3.705500">
        <ele>1839.0</ele>
        <time>2017-10-01T12:22:37Z</time>
      </trkpt>
      <trkpt lat="41.080433" lon="-3.705383">
        <ele>1838.0</ele>
        <time>2017-10-01T12:22:38Z</time>
      </trkpt>
      <trkpt lat="41.080467" lon="-3.705283">
        <ele>1836.0</ele>
        <time>2017-10-01T12:22:39Z</time>
      </trkpt>
      <trkpt lat="41.080517" lon="-3.705167">
        <ele>1835.0</ele>
        <time>2017-10-01T12:22:40Z</time>
      </trkpt>
      <trkpt lat="41.080550" lon="-3.705033">
        <ele>1834.0</ele>
        <time>2017-10-01T12:22:41Z</time>
      </trkpt>
      <trkpt lat="41.080600" lon="-3.704933">
        <ele>1834.0</ele>
        <time>2017-10-01T12:22:42Z</time>
      </trkpt>
      <trkpt lat="41.080633" lon="-3.704833">
        <ele>1834.0</ele>
        <time>2017-10-01T12:22:43Z</time>
      </trkpt>
      <trkpt lat="41.080667" lon="-3.704733">
        <ele>1834.0</ele>
        <time>2017-10-01T12:22:44Z</time>
      </trkpt>
      <trkpt lat="41.080717" lon="-3.704633">
        <ele>1834.0</ele>
        <time>2017-10-01T12:22:45Z</time>
      </trkpt>
      <trkpt lat="41.080750" lon="-3.704550">
        <ele>1833.0</ele>
        <time>2017-10-01T12:22:46Z</time>
      </trkpt>
      <trkpt lat="41.080800" lon="-3.704467">
        <ele>1833.0</ele>
        <time>2017-10-01T12:22:47Z</time>
      </trkpt>
      <trkpt lat="41.080867" lon="-3.704383">
        <ele>1833.0</ele>
        <time>2017-10-01T12:22:48Z</time>
      </trkpt>
      <trkpt lat="41.080917" lon="-3.704317">
        <ele>1833.0</ele>
        <time>2017-10-01T12:22:49Z</time>
      </trkpt>
      <trkpt lat="41.080950" lon="-3.704250">
        <ele>1833.0</ele>
        <time>2017-10-01T12:22:50Z</time>
      </trkpt>
      <trkpt lat="41.081000" lon="-3.704183">
        <ele>1833.0</ele>
        <time>2017-10-01T12:22:51Z</time>
      </trkpt>
      <trkpt lat="41.081050" lon="-3.704117">
        <ele>1832.0</ele>
        <time>2017-10-01T12:22:52Z</time>
      </trkpt>
      <trkpt lat="41.081117" lon="-3.704033">
        <ele>1831.0</ele>
        <time>2017-10-01T12:22:53Z</time>
      </trkpt>
      <trkpt lat="41.081167" lon="-3.703967">
        <ele>1830.0</ele>
        <time>2017-10-01T12:22:54Z</time>
      </trkpt>
      <trkpt lat="41.081217" lon="-3.703900">
        <ele>1830.0</ele>
        <time>2017-10-01T12:22:55Z</time>
      </trkpt>
      <trkpt lat="41.081267" lon="-3.703833">
        <ele>1829.0</ele>
        <time>2017-10-01T12:22:56Z</time>
      </trkpt>
      <trkpt lat="41.081317" lon="-3.703767">
        <ele>1827.0</ele>
        <time>2017-10-01T12:22:57Z</time>
      </trkpt>
      <trkpt lat="41.081383" lon="-3.703683">
        <ele>1826.0</ele>
        <time>2017-10-01T12:22:58Z</time>
      </trkpt>
      <trkpt lat="41.081433" lon="-3.703600">
        <ele>1824.0</ele>
        <time>2017-10-01T12:22:59Z</time>
      </trkpt>
      <trkpt lat="41.081500" lon="-3.703517">
        <ele>1823.0</ele>
        <time>2017-10-01T12:23:00Z</time>
      </trkpt>
      <trkpt lat="41.081550" lon="-3.703433">
        <ele>1822.0</ele>
        <time>2017-10-01T12:23:01Z</time>
      </trkpt>
      <trkpt lat="41.081600" lon="-3.703333">
        <ele>1821.0</ele>
        <time>2017-10-01T12:23:02Z</time>
      </trkpt>
      <trkpt lat="41.081667" lon="-3.703250">
        <ele>1820.0</ele>
        <time>2017-10-01T12:23:03Z</time>
      </trkpt>
      <trkpt lat="41.081717" lon="-3.703150">
        <ele>1819.0</ele>
        <time>2017-10-01T12:23:04Z</time>
      </trkpt>
      <trkpt lat="41.081767" lon="-3.703067">
        <ele>1818.0</ele>
        <time>2017-10-01T12:23:05Z</time>
      </trkpt>
      <trkpt lat="41.081817" lon="-3.702983">
        <ele>1817.0</ele>
        <time>2017-10-01T12:23:06Z</time>
      </trkpt>
      <trkpt lat="41.081867" lon="-3.702900">
        <ele>1816.0</ele>
        <time>2017-10-01T12:23:07Z</time>
      </trkpt>
      <trkpt lat="41.081900" lon="-3.702817">
        <ele>1815.0</ele>
        <time>2017-10-01T12:23:08Z</time>
      </trkpt>
      <trkpt lat="41.081950" lon="-3.702717">
        <ele>1813.0</ele>
        <time>2017-10-01T12:23:09Z</time>
      </trkpt>
      <trkpt lat="41.081983" lon="-3.702617">
        <ele>1811.0</ele>
        <time>2017-10-01T12:23:10Z</time>
      </trkpt>
      <trkpt lat="41.082033" lon="-3.702483">
        <ele>1809.0</ele>
        <time>2017-10-01T12:23:11Z</time>
      </trkpt>
      <trkpt lat="41.082083" lon="-3.702383">
        <ele>1808.0</ele>
        <time>2017-10-01T12:23:12Z</time>
      </trkpt>
      <trkpt lat="41.082133" lon="-3.702283">
        <ele>1807.0</ele>
        <time>2017-10-01T12:23:13Z</time>
      </trkpt>
      <trkpt lat="41.082183" lon="-3.702200">
        <ele>1806.0</ele>
        <time>2017-10-01T12:23:14Z</time>
      </trkpt>
      <trkpt lat="41.082233" lon="-3.702083">
        <ele>1803.0</ele>
        <time>2017-10-01T12:23:15Z</time>
      </trkpt>
      <trkpt lat="41.082283" lon="-3.701967">
        <ele>1800.0</ele>
        <time>2017-10-01T12:23:16Z</time>
      </trkpt>
      <trkpt lat="41.082350" lon="-3.701850">
        <ele>1799.0</ele>
        <time>2017-10-01T12:23:17Z</time>
      </trkpt>
      <trkpt lat="41.082417" lon="-3.701733">
        <ele>1799.0</ele>
        <time>2017-10-01T12:23:18Z</time>
      </trkpt>
      <trkpt lat="41.082483" lon="-3.701633">
        <ele>1801.0</ele>
        <time>2017-10-01T12:23:19Z</time>
      </trkpt>
      <trkpt lat="41.082533" lon="-3.701550">
        <ele>1805.0</ele>
        <time>2017-10-01T12:23:20Z</time>
      </trkpt>
      <trkpt lat="41.082567" lon="-3.701467">
        <ele>1808.0</ele>
        <time>2017-10-01T12:23:21Z</time>
      </trkpt>
      <trkpt lat="41.082600" lon="-3.701417">
        <ele>1811.0</ele>
        <time>2017-10-01T12:23:22Z</time>
      </trkpt>
      <trkpt lat="41.082633" lon="-3.701367">
        <ele>1813.0</ele>
        <time>2017-10-01T12:23:23Z</time>
      </trkpt>
      <trkpt lat="41.082667" lon="-3.701317">
        <ele>1813.0</ele>
        <time>2017-10-01T12:23:24Z</time>
      </trkpt>
      <trkpt lat="41.082717" lon="-3.701300">
        <ele>1814.0</ele>
        <time>2017-10-01T12:23:25Z</time>
      </trkpt>
      <trkpt lat="41.082767" lon="-3.701283">
        <ele>1815.0</ele>
        <time>2017-10-01T12:23:26Z</time>
      </trkpt>
      <trkpt lat="41.082817" lon="-3.701300">
        <ele>1816.0</ele>
        <time>2017-10-01T12:23:27Z</time>
      </trkpt>
      <trkpt lat="41.082833" lon="-3.701350">
        <ele>1818.0</ele>
        <time>2017-10-01T12:23:28Z</time>
      </trkpt>
      <trkpt lat="41.082850" lon="-3.701400">
        <ele>1819.0</ele>
        <time>2017-10-01T12:23:29Z</time>
      </trkpt>
      <trkpt lat="41.082867" lon="-3.701450">
        <ele>1821.0</ele>
        <time>2017-10-01T12:23:30Z</time>
      </trkpt>
      <trkpt lat="41.082900" lon="-3.701500">
        <ele>1822.0</ele>
        <time>2017-10-01T12:23:31Z</time>
      </trkpt>
      <trkpt lat="41.082967" lon="-3.701500">
        <ele>1823.0</ele>
        <time>2017-10-01T12:23:32Z</time>
      </trkpt>
      <trkpt lat="41.083017" lon="-3.701433">
        <ele>1823.0</ele>
        <time>2017-10-01T12:23:33Z</time>
      </trkpt>
      <trkpt lat="41.083067" lon="-3.701300">
        <ele>1824.0</ele>
        <time>2017-10-01T12:23:34Z</time>
      </trkpt>
      <trkpt lat="41.083050" lon="-3.701133">
        <ele>1825.0</ele>
        <time>2017-10-01T12:23:35Z</time>
      </trkpt>
      <trkpt lat="41.082967" lon="-3.700967">
        <ele>1826.0</ele>
        <time>2017-10-01T12:23:36Z</time>
      </trkpt>
      <trkpt lat="41.082850" lon="-3.700850">
        <ele>1826.0</ele>
        <time>2017-10-01T12:23:37Z</time>
      </trkpt>
      <trkpt lat="41.082700" lon="-3.700800">
        <ele>1827.0</ele>
        <time>2017-10-01T12:23:38Z</time>
      </trkpt>
      <trkpt lat="41.082567" lon="-3.700833">
        <ele>1827.0</ele>
        <time>2017-10-01T12:23:39Z</time>
      </trkpt>
      <trkpt lat="41.082467" lon="-3.700917">
        <ele>1829.0</ele>
        <time>2017-10-01T12:23:40Z</time>
      </trkpt>
      <trkpt lat="41.082400" lon="-3.701000">
        <ele>1831.0</ele>
        <time>2017-10-01T12:23:41Z</time>
      </trkpt>
      <trkpt lat="41.082367" lon="-3.701083">
        <ele>1834.0</ele>
        <time>2017-10-01T12:23:42Z</time>
      </trkpt>
      <trkpt lat="41.082367" lon="-3.701150">
        <ele>1837.0</ele>
        <time>2017-10-01T12:23:43Z</time>
      </trkpt>
      <trkpt lat="41.082367" lon="-3.701200">
        <ele>1840.0</ele>
        <time>2017-10-01T12:23:44Z</time>
      </trkpt>
      <trkpt lat="41.082400" lon="-3.701233">
        <ele>1841.0</ele>
        <time>2017-10-01T12:23:45Z</time>
      </trkpt>
      <trkpt lat="41.082417" lon="-3.701267">
        <ele>1841.0</ele>
        <time>2017-10-01T12:23:46Z</time>
      </trkpt>
      <trkpt lat="41.082467" lon="-3.701300">
        <ele>1841.0</ele>
        <time>2017-10-01T12:23:47Z</time>
      </trkpt>
      <trkpt lat="41.082533" lon="-3.701317">
        <ele>1841.0</ele>
        <time>2017-10-01T12:23:48Z</time>
      </trkpt>
      <trkpt lat="41.082600" lon="-3.701283">
        <ele>1842.0</ele>
        <time>2017-10-01T12:23:49Z</time>
      </trkpt>
      <trkpt lat="41.082667" lon="-3.701217">
        <ele>1844.0</ele>
        <time>2017-10-01T12:23:50Z</time>
      </trkpt>
      <trkpt lat="41.082717" lon="-3.701083">
        <ele>1846.0</ele>
        <time>2017-10-01T12:23:51Z</time>
      </trkpt>
      <trkpt lat="41.082700" lon="-3.700933">
        <ele>1848.0</ele>
        <time>2017-10-01T12:23:52Z</time>
      </trkpt>
      <trkpt lat="41.082650" lon="-3.700767">
        <ele>1850.0</ele>
        <time>2017-10-01T12:23:53Z</time>
      </trkpt>
      <trkpt lat="41.082550" lon="-3.700633">
        <ele>1851.0</ele>
        <time>2017-10-01T12:23:54Z</time>
      </trkpt>
      <trkpt lat="41.082433" lon="-3.700533">
        <ele>1852.0</ele>
        <time>2017-10-01T12:23:55Z</time>
      </trkpt>
      <trkpt lat="41.082300" lon="-3.700483">
        <ele>1853.0</ele>
        <time>2017-10-01T12:23:56Z</time>
      </trkpt>
      <trkpt lat="41.082183" lon="-3.700483">
        <ele>1854.0</ele>
        <time>2017-10-01T12:23:57Z</time>
      </trkpt>
      <trkpt lat="41.082083" lon="-3.700550">
        <ele>1856.0</ele>
        <time>2017-10-01T12:23:58Z</time>
      </trkpt>
      <trkpt lat="41.082000" lon="-3.700633">
        <ele>1857.0</ele>
        <time>2017-10-01T12:23:59Z</time>
      </trkpt>
      <trkpt lat="41.081967" lon="-3.700717">
        <ele>1858.0</ele>
        <time>2017-10-01T12:24:00Z</time>
      </trkpt>
      <trkpt lat="41.081967" lon="-3.700800">
        <ele>1859.0</ele>
        <time>2017-10-01T12:24:01Z</time>
      </trkpt>
      <trkpt lat="41.081967" lon="-3.700850">
        <ele>1860.0</ele>
        <time>2017-10-01T12:24:02Z</time>
      </trkpt>
      <trkpt lat="41.081983" lon="-3.700900">
        <ele>1861.0</ele>
        <time>2017-10-01T12:24:03Z</time>
      </trkpt>
      <trkpt lat="41.082017" lon="-3.700950">
        <ele>1862.0</ele>
        <time>2017-10-01T12:24:04Z</time>
      </trkpt>
      <trkpt lat="41.082050" lon="-3.701000">
        <ele>1862.0</ele>
        <time>2017-10-01T12:24:05Z</time>
      </trkpt>
      <trkpt lat="41.082100" lon="-3.701033">
        <ele>1862.0</ele>
        <time>2017-10-01T12:24:06Z</time>
      </trkpt>
      <trkpt lat="41.082150" lon="-3.701050">
        <ele>1863.0</ele>
        <time>2017-10-01T12:24:07Z</time>
      </trkpt>
      <trkpt lat="41.082200" lon="-3.701067">
        <ele>1865.0</ele>
        <time>2017-10-01T12:24:08Z</time>
      </trkpt>
      <trkpt lat="41.082250" lon="-3.701083">
        <ele>1867.0</ele>
        <time>2017-10-01T12:24:09Z</time>
      </trkpt>
      <trkpt lat="41.082300" lon="-3.701083">
        <ele>1869.0</ele>
        <time>2017-10-01T12:24:10Z</time>
      </trkpt>
      <trkpt lat="41.082350" lon="-3.701067">
        <ele>1870.0</ele>
        <time>2017-10-01T12:24:11Z</time>
      </trkpt>
      <trkpt lat="41.082400" lon="-3.701050">
        <ele>1871.0</ele>
        <time>2017-10-01T12:24:12Z</time>
      </trkpt>
      <trkpt lat="41.082450" lon="-3.701033">
        <ele>1873.0</ele>
        <time>2017-10-01T12:24:13Z</time>
      </trkpt>
      <trkpt lat="41.082500" lon="-3.701017">
        <ele>1875.0</ele>
        <time>2017-10-01T12:24:14Z</time>
      </trkpt>
      <trkpt lat="41.082550" lon="-3.701000">
        <ele>1876.0</ele>
        <time>2017-10-01T12:24:15Z</time>
      </trkpt>
      <trkpt lat="41.082600" lon="-3.700967">
        <ele>1877.0</ele>
        <time>2017-10-01T12:24:16Z</time>
      </trkpt>
      <trkpt lat="41.082633" lon="-3.700933">
        <ele>1878.0</ele>
        <time>2017-10-01T12:24:17Z</time>
      </trkpt>
      <trkpt lat="41.082683" lon="-3.700900">
        <ele>1879.0</ele>
        <time>2017-10-01T12:24:18Z</time>
      </trkpt>
      <trkpt lat="41.082733" lon="-3.700867">
        <ele>1880.0</ele>
        <time>2017-10-01T12:24:19Z</time>
      </trkpt>
      <trkpt lat="41.082800" lon="-3.700817">
        <ele>1881.0</ele>
        <time>2017-10-01T12:24:20Z</time>
      </trkpt>
      <trkpt lat="41.082850" lon="-3.700783">
        <ele>1882.0</ele>
        <time>2017-10-01T12:24:21Z</time>
      </trkpt>
      <trkpt lat="41.082883" lon="-3.700733">
        <ele>1883.0</ele>
        <time>2017-10-01T12:24:22Z</time>
      </trkpt>
      <trkpt lat="41.082917" lon="-3.700700">
        <ele>1884.0</ele>
        <time>2017-10-01T12:24:23Z</time>
      </trkpt>
      <trkpt lat="41.082967" lon="-3.700650">
        <ele>1885.0</ele>
        <time>2017-10-01T12:24:24Z</time>
      </trkpt>
      <trkpt lat="41.083000" lon="-3.700583">
        <ele>1885.0</ele>
        <time>2017-10-01T12:24:25Z</time>
      </trkpt>
      <trkpt lat="41.083033" lon="-3.700517">
        <ele>1885.0</ele>
        <time>2017-10-01T12:24:26Z</time>
      </trkpt>
      <trkpt lat="41.083083" lon="-3.700467">
        <ele>1886.0</ele>
        <time>2017-10-01T12:24:27Z</time>
      </trkpt>
      <trkpt lat="41.083117" lon="-3.700417">
        <ele>1886.0</ele>
        <time>2017-10-01T12:24:28Z</time>
      </trkpt>
      <trkpt lat="41.083167" lon="-3.700350">
        <ele>1887.0</ele>
        <time>2017-10-01T12:24:29Z</time>
      </trkpt>
      <trkpt lat="41.083200" lon="-3.700300">
        <ele>1886.0</ele>
        <time>2017-10-01T12:24:30Z</time>
      </trkpt>
      <trkpt lat="41.083217" lon="-3.700217">
        <ele>1886.0</ele>
        <time>2017-10-01T12:24:31Z</time>
      </trkpt>
      <trkpt lat="41.083250" lon="-3.700150">
        <ele>1885.0</ele>
        <time>2017-10-01T12:24:32Z</time>
      </trkpt>
      <trkpt lat="41.083283" lon="-3.700067">
        <ele>1883.0</ele>
        <time>2017-10-01T12:24:33Z</time>
      </trkpt>
      <trkpt lat="41.083317" lon="-3.699983">
        <ele>1882.0</ele>
        <time>2017-10-01T12:24:34Z</time>
      </trkpt>
      <trkpt lat="41.083333" lon="-3.699917">
        <ele>1880.0</ele>
        <time>2017-10-01T12:24:35Z</time>
      </trkpt>
      <trkpt lat="41.083367" lon="-3.699833">
        <ele>1878.0</ele>
        <time>2017-10-01T12:24:36Z</time>
      </trkpt>
      <trkpt lat="41.083400" lon="-3.699750">
        <ele>1876.0</ele>
        <time>2017-10-01T12:24:37Z</time>
      </trkpt>
      <trkpt lat="41.083450" lon="-3.699667">
        <ele>1873.0</ele>
        <time>2017-10-01T12:24:38Z</time>
      </trkpt>
      <trkpt lat="41.083500" lon="-3.699600">
        <ele>1871.0</ele>
        <time>2017-10-01T12:24:39Z</time>
      </trkpt>
      <trkpt lat="41.083550" lon="-3.699500">
        <ele>1869.0</ele>
        <time>2017-10-01T12:24:40Z</time>
      </trkpt>
      <trkpt lat="41.083583" lon="-3.699417">
        <ele>1867.0</ele>
        <time>2017-10-01T12:24:41Z</time>
      </trkpt>
      <trkpt lat="41.083633" lon="-3.699317">
        <ele>1865.0</ele>
        <time>2017-10-01T12:24:42Z</time>
      </trkpt>
      <trkpt lat="41.083667" lon="-3.699217">
        <ele>1864.0</ele>
        <time>2017-10-01T12:24:43Z</time>
      </trkpt>
      <trkpt lat="41.083700" lon="-3.699133">
        <ele>1862.0</ele>
        <time>2017-10-01T12:24:44Z</time>
      </trkpt>
      <trkpt lat="41.083750" lon="-3.699033">
        <ele>1859.0</ele>
        <time>2017-10-01T12:24:45Z</time>
      </trkpt>
      <trkpt lat="41.083783" lon="-3.698933">
        <ele>1857.0</ele>
        <time>2017-10-01T12:24:46Z</time>
      </trkpt>
      <trkpt lat="41.083850" lon="-3.698833">
        <ele>1856.0</ele>
        <time>2017-10-01T12:24:47Z</time>
      </trkpt>
      <trkpt lat="41.083900" lon="-3.698750">
        <ele>1856.0</ele>
        <time>2017-10-01T12:24:48Z</time>
      </trkpt>
      <trkpt lat="41.083950" lon="-3.698667">
        <ele>1856.0</ele>
        <time>2017-10-01T12:24:49Z</time>
      </trkpt>
      <trkpt lat="41.083983" lon="-3.698600">
        <ele>1855.0</ele>
        <time>2017-10-01T12:24:50Z</time>
      </trkpt>
      <trkpt lat="41.084017" lon="-3.698517">
        <ele>1854.0</ele>
        <time>2017-10-01T12:24:51Z</time>
      </trkpt>
      <trkpt lat="41.084083" lon="-3.698450">
        <ele>1852.0</ele>
        <time>2017-10-01T12:24:52Z</time>
      </trkpt>
      <trkpt lat="41.084133" lon="-3.698367">
        <ele>1850.0</ele>
        <time>2017-10-01T12:24:53Z</time>
      </trkpt>
      <trkpt lat="41.084183" lon="-3.698300">
        <ele>1850.0</ele>
        <time>2017-10-01T12:24:54Z</time>
      </trkpt>
      <trkpt lat="41.084217" lon="-3.698217">
        <ele>1850.0</ele>
        <time>2017-10-01T12:24:55Z</time>
      </trkpt>
      <trkpt lat="41.084233" lon="-3.698150">
        <ele>1849.0</ele>
        <time>2017-10-01T12:24:56Z</time>
      </trkpt>
      <trkpt lat="41.084267" lon="-3.698050">
        <ele>1847.0</ele>
        <time>2017-10-01T12:24:57Z</time>
      </trkpt>
      <trkpt lat="41.084300" lon="-3.697967">
        <ele>1845.0</ele>
        <time>2017-10-01T12:24:58Z</time>
      </trkpt>
      <trkpt lat="41.084333" lon="-3.697867">
        <ele>1842.0</ele>
        <time>2017-10-01T12:24:59Z</time>
      </trkpt>
      <trkpt lat="41.084367" lon="-3.697767">
        <ele>1841.0</ele>
        <time>2017-10-01T12:25:00Z</time>
      </trkpt>
      <trkpt lat="41.084400" lon="-3.697667">
        <ele>1840.0</ele>
        <time>2017-10-01T12:25:01Z</time>
      </trkpt>
      <trkpt lat="41.084433" lon="-3.697583">
        <ele>1839.0</ele>
        <time>2017-10-01T12:25:02Z</time>
      </trkpt>
      <trkpt lat="41.084467" lon="-3.697500">
        <ele>1838.0</ele>
        <time>2017-10-01T12:25:03Z</time>
      </trkpt>
      <trkpt lat="41.084500" lon="-3.697417">
        <ele>1836.0</ele>
        <time>2017-10-01T12:25:04Z</time>
      </trkpt>
      <trkpt lat="41.084533" lon="-3.697317">
        <ele>1835.0</ele>
        <time>2017-10-01T12:25:05Z</time>
      </trkpt>
      <trkpt lat="41.084583" lon="-3.697233">
        <ele>1833.0</ele>
        <time>2017-10-01T12:25:06Z</time>
      </trkpt>
      <trkpt lat="41.084617" lon="-3.697133">
        <ele>1833.0</ele>
        <time>2017-10-01T12:25:07Z</time>
      </trkpt>
      <trkpt lat="41.084650" lon="-3.697033">
        <ele>1832.0</ele>
        <time>2017-10-01T12:25:08Z</time>
      </trkpt>
      <trkpt lat="41.084683" lon="-3.696950">
        <ele>1831.0</ele>
        <time>2017-10-01T12:25:09Z</time>
      </trkpt>
      <trkpt lat="41.084717" lon="-3.696850">
        <ele>1830.0</ele>
        <time>2017-10-01T12:25:10Z</time>
      </trkpt>
      <trkpt lat="41.084750" lon="-3.696767">
        <ele>1829.0</ele>
        <time>2017-10-01T12:25:11Z</time>
      </trkpt>
      <trkpt lat="41.084783" lon="-3.696650">
        <ele>1828.0</ele>
        <time>2017-10-01T12:25:12Z</time>
      </trkpt>
      <trkpt lat="41.084817" lon="-3.696550">
        <ele>1827.0</ele>
        <time>2017-10-01T12:25:13Z</time>
      </trkpt>
      <trkpt lat="41.084850" lon="-3.696450">
        <ele>1826.0</ele>
        <time>2017-10-01T12:25:14Z</time>
      </trkpt>
      <trkpt lat="41.084883" lon="-3.696350">
        <ele>1826.0</ele>
        <time>2017-10-01T12:25:15Z</time>
      </trkpt>
      <trkpt lat="41.084917" lon="-3.696250">
        <ele>1825.0</ele>
        <time>2017-10-01T12:25:16Z</time>
      </trkpt>
      <trkpt lat="41.084950" lon="-3.696150">
        <ele>1824.0</ele>
        <time>2017-10-01T12:25:17Z</time>
      </trkpt>
      <trkpt lat="41.084983" lon="-3.696050">
        <ele>1822.0</ele>
        <time>2017-10-01T12:25:18Z</time>
      </trkpt>
      <trkpt lat="41.085033" lon="-3.695933">
        <ele>1821.0</ele>
        <time>2017-10-01T12:25:19Z</time>
      </trkpt>
      <trkpt lat="41.085067" lon="-3.695833">
        <ele>1820.0</ele>
        <time>2017-10-01T12:25:20Z</time>
      </trkpt>
      <trkpt lat="41.085100" lon="-3.695717">
        <ele>1820.0</ele>
        <time>2017-10-01T12:25:21Z</time>
      </trkpt>
      <trkpt lat="41.085133" lon="-3.695617">
        <ele>1819.0</ele>
        <time>2017-10-01T12:25:22Z</time>
      </trkpt>
      <trkpt lat="41.085167" lon="-3.695517">
        <ele>1819.0</ele>
        <time>2017-10-01T12:25:23Z</time>
      </trkpt>
      <trkpt lat="41.085183" lon="-3.695417">
        <ele>1818.0</ele>
        <time>2017-10-01T12:25:24Z</time>
      </trkpt>
      <trkpt lat="41.085217" lon="-3.695317">
        <ele>1817.0</ele>
        <time>2017-10-01T12:25:25Z</time>
      </trkpt>
      <trkpt lat="41.085250" lon="-3.695217">
        <ele>1816.0</ele>
        <time>2017-10-01T12:25:26Z</time>
      </trkpt>
      <trkpt lat="41.085283" lon="-3.695100">
        <ele>1814.0</ele>
        <time>2017-10-01T12:25:27Z</time>
      </trkpt>
      <trkpt lat="41.085317" lon="-3.695000">
        <ele>1813.0</ele>
        <time>2017-10-01T12:25:28Z</time>
      </trkpt>
      <trkpt lat="41.085350" lon="-3.694900">
        <ele>1813.0</ele>
        <time>2017-10-01T12:25:29Z</time>
      </trkpt>
      <trkpt lat="41.085383" lon="-3.694800">
        <ele>1813.0</ele>
        <time>2017-10-01T12:25:30Z</time>
      </trkpt>
      <trkpt lat="41.085417" lon="-3.694700">
        <ele>1812.0</ele>
        <time>2017-10-01T12:25:31Z</time>
      </trkpt>
      <trkpt lat="41.085450" lon="-3.694583">
        <ele>1811.0</ele>
        <time>2017-10-01T12:25:32Z</time>
      </trkpt>
      <trkpt lat="41.085483" lon="-3.694483">
        <ele>1809.0</ele>
        <time>2017-10-01T12:25:33Z</time>
      </trkpt>
      <trkpt lat="41.085517" lon="-3.694383">
        <ele>1808.0</ele>
        <time>2017-10-01T12:25:34Z</time>
      </trkpt>
      <trkpt lat="41.085550" lon="-3.694267">
        <ele>1806.0</ele>
        <time>2017-10-01T12:25:35Z</time>
      </trkpt>
      <trkpt lat="41.085583" lon="-3.694150">
        <ele>1805.0</ele>
        <time>2017-10-01T12:25:36Z</time>
      </trkpt>
      <trkpt lat="41.085617" lon="-3.694050">
        <ele>1805.0</ele>
        <time>2017-10-01T12:25:37Z</time>
      </trkpt>
      <trkpt lat="41.085650" lon="-3.693950">
        <ele>1804.0</ele>
        <time>2017-10-01T12:25:38Z</time>
      </trkpt>
      <trkpt lat="41.085667" lon="-3.693850">
        <ele>1803.0</ele>
        <time>2017-10-01T12:25:39Z</time>
      </trkpt>
      <trkpt lat="41.085700" lon="-3.693750">
        <ele>1801.0</ele>
        <time>2017-10-01T12:25:40Z</time>
      </trkpt>
      <trkpt lat="41.085733" lon="-3.693650">
        <ele>1799.0</ele>
        <time>2017-10-01T12:25:41Z</time>
      </trkpt>
      <trkpt lat="41.085767" lon="-3.693533">
        <ele>1798.0</ele>
        <time>2017-10-01T12:25:42Z</time>
      </trkpt>
      <trkpt lat="41.085817" lon="-3.693433">
        <ele>1797.0</ele>
        <time>2017-10-01T12:25:43Z</time>
      </trkpt>
      <trkpt lat="41.085850" lon="-3.693317">
        <ele>1796.0</ele>
        <time>2017-10-01T12:25:44Z</time>
      </trkpt>
      <trkpt lat="41.085883" lon="-3.693217">
        <ele>1795.0</ele>
        <time>2017-10-01T12:25:45Z</time>
      </trkpt>
      <trkpt lat="41.085917" lon="-3.693100">
        <ele>1794.0</ele>
        <time>2017-10-01T12:25:46Z</time>
      </trkpt>
      <trkpt lat="41.085967" lon="-3.693000">
        <ele>1793.0</ele>
        <time>2017-10-01T12:25:47Z</time>
      </trkpt>
      <trkpt lat="41.086000" lon="-3.692900">
        <ele>1792.0</ele>
        <time>2017-10-01T12:25:48Z</time>
      </trkpt>
      <trkpt lat="41.086050" lon="-3.692783">
        <ele>1791.0</ele>
        <time>2017-10-01T12:25:49Z</time>
      </trkpt>
      <trkpt lat="41.086100" lon="-3.692667">
        <ele>1791.0</ele>
        <time>2017-10-01T12:25:50Z</time>
      </trkpt>
      <trkpt lat="41.086150" lon="-3.692583">
        <ele>1792.0</ele>
        <time>2017-10-01T12:25:51Z</time>
      </trkpt>
      <trkpt lat="41.086217" lon="-3.692500">
        <ele>1793.0</ele>
        <time>2017-10-01T12:25:52Z</time>
      </trkpt>
      <trkpt lat="41.086283" lon="-3.692400">
        <ele>1793.0</ele>
        <time>2017-10-01T12:25:53Z</time>
      </trkpt>
      <trkpt lat="41.086333" lon="-3.692283">
        <ele>1792.0</ele>
        <time>2017-10-01T12:25:54Z</time>
      </trkpt>
      <trkpt lat="41.086383" lon="-3.692167">
        <ele>1792.0</ele>
        <time>2017-10-01T12:25:55Z</time>
      </trkpt>
      <trkpt lat="41.086450" lon="-3.692067">
        <ele>1791.0</ele>
        <time>2017-10-01T12:25:56Z</time>
      </trkpt>
      <trkpt lat="41.086517" lon="-3.691983">
        <ele>1791.0</ele>
        <time>2017-10-01T12:25:57Z</time>
      </trkpt>
      <trkpt lat="41.086567" lon="-3.691917">
        <ele>1792.0</ele>
        <time>2017-10-01T12:25:58Z</time>
      </trkpt>
      <trkpt lat="41.086617" lon="-3.691850">
        <ele>1794.0</ele>
        <time>2017-10-01T12:25:59Z</time>
      </trkpt>
      <trkpt lat="41.086667" lon="-3.691817">
        <ele>1795.0</ele>
        <time>2017-10-01T12:26:00Z</time>
      </trkpt>
      <trkpt lat="41.086717" lon="-3.691767">
        <ele>1795.0</ele>
        <time>2017-10-01T12:26:01Z</time>
      </trkpt>
      <trkpt lat="41.086783" lon="-3.691733">
        <ele>1795.0</ele>
        <time>2017-10-01T12:26:02Z</time>
      </trkpt>
      <trkpt lat="41.086833" lon="-3.691683">
        <ele>1797.0</ele>
        <time>2017-10-01T12:26:03Z</time>
      </trkpt>
      <trkpt lat="41.086867" lon="-3.691600">
        <ele>1798.0</ele>
        <time>2017-10-01T12:26:04Z</time>
      </trkpt>
      <trkpt lat="41.086917" lon="-3.691517">
        <ele>1798.0</ele>
        <time>2017-10-01T12:26:05Z</time>
      </trkpt>
      <trkpt lat="41.086950" lon="-3.691433">
        <ele>1798.0</ele>
        <time>2017-10-01T12:26:06Z</time>
      </trkpt>
      <trkpt lat="41.086983" lon="-3.691317">
        <ele>1799.0</ele>
        <time>2017-10-01T12:26:07Z</time>
      </trkpt>
      <trkpt lat="41.087000" lon="-3.691217">
        <ele>1800.0</ele>
        <time>2017-10-01T12:26:08Z</time>
      </trkpt>
      <trkpt lat="41.087017" lon="-3.691100">
        <ele>1801.0</ele>
        <time>2017-10-01T12:26:09Z</time>
      </trkpt>
      <trkpt lat="41.087017" lon="-3.691000">
        <ele>1801.0</ele>
        <time>2017-10-01T12:26:10Z</time>
      </trkpt>
      <trkpt lat="41.087033" lon="-3.690900">
        <ele>1801.0</ele>
        <time>2017-10-01T12:26:11Z</time>
      </trkpt>
      <trkpt lat="41.087050" lon="-3.690800">
        <ele>1800.0</ele>
        <time>2017-10-01T12:26:12Z</time>
      </trkpt>
      <trkpt lat="41.087067" lon="-3.690683">
        <ele>1799.0</ele>
        <time>2017-10-01T12:26:13Z</time>
      </trkpt>
      <trkpt lat="41.087067" lon="-3.690567">
        <ele>1797.0</ele>
        <time>2017-10-01T12:26:14Z</time>
      </trkpt>
      <trkpt lat="41.087083" lon="-3.690467">
        <ele>1797.0</ele>
        <time>2017-10-01T12:26:15Z</time>
      </trkpt>
      <trkpt lat="41.087083" lon="-3.690367">
        <ele>1795.0</ele>
        <time>2017-10-01T12:26:16Z</time>
      </trkpt>
      <trkpt lat="41.087083" lon="-3.690250">
        <ele>1794.0</ele>
        <time>2017-10-01T12:26:17Z</time>
      </trkpt>
      <trkpt lat="41.087100" lon="-3.690133">
        <ele>1792.0</ele>
        <time>2017-10-01T12:26:18Z</time>
      </trkpt>
      <trkpt lat="41.087100" lon="-3.690017">
        <ele>1791.0</ele>
        <time>2017-10-01T12:26:19Z</time>
      </trkpt>
      <trkpt lat="41.087117" lon="-3.689900">
        <ele>1790.0</ele>
        <time>2017-10-01T12:26:20Z</time>
      </trkpt>
      <trkpt lat="41.087117" lon="-3.689783">
        <ele>1789.0</ele>
        <time>2017-10-01T12:26:21Z</time>
      </trkpt>
      <trkpt lat="41.087133" lon="-3.689650">
        <ele>1789.0</ele>
        <time>2017-10-01T12:26:22Z</time>
      </trkpt>
      <trkpt lat="41.087150" lon="-3.689533">
        <ele>1789.0</ele>
        <time>2017-10-01T12:26:23Z</time>
      </trkpt>
      <trkpt lat="41.087183" lon="-3.689433">
        <ele>1791.0</ele>
        <time>2017-10-01T12:26:24Z</time>
      </trkpt>
      <trkpt lat="41.087217" lon="-3.689333">
        <ele>1794.0</ele>
        <time>2017-10-01T12:26:25Z</time>
      </trkpt>
      <trkpt lat="41.087250" lon="-3.689267">
        <ele>1796.0</ele>
        <time>2017-10-01T12:26:26Z</time>
      </trkpt>
      <trkpt lat="41.087283" lon="-3.689183">
        <ele>1799.0</ele>
        <time>2017-10-01T12:26:27Z</time>
      </trkpt>
      <trkpt lat="41.087317" lon="-3.689100">
        <ele>1800.0</ele>
        <time>2017-10-01T12:26:28Z</time>
      </trkpt>
      <trkpt lat="41.087367" lon="-3.689017">
        <ele>1800.0</ele>
        <time>2017-10-01T12:26:29Z</time>
      </trkpt>
      <trkpt lat="41.087400" lon="-3.688900">
        <ele>1799.0</ele>
        <time>2017-10-01T12:26:30Z</time>
      </trkpt>
      <trkpt lat="41.087450" lon="-3.688800">
        <ele>1798.0</ele>
        <time>2017-10-01T12:26:31Z</time>
      </trkpt>
      <trkpt lat="41.087483" lon="-3.688667">
        <ele>1799.0</ele>
        <time>2017-10-01T12:26:32Z</time>
      </trkpt>
      <trkpt lat="41.087500" lon="-3.688533">
        <ele>1799.0</ele>
        <time>2017-10-01T12:26:33Z</time>
      </trkpt>
      <trkpt lat="41.087500" lon="-3.688400">
        <ele>1800.0</ele>
        <time>2017-10-01T12:26:34Z</time>
      </trkpt>
      <trkpt lat="41.087517" lon="-3.688267">
        <ele>1801.0</ele>
        <time>2017-10-01T12:26:35Z</time>
      </trkpt>
      <trkpt lat="41.087517" lon="-3.688133">
        <ele>1801.0</ele>
        <time>2017-10-01T12:26:36Z</time>
      </trkpt>
      <trkpt lat="41.087533" lon="-3.687983">
        <ele>1801.0</ele>
        <time>2017-10-01T12:26:37Z</time>
      </trkpt>
      <trkpt lat="41.087533" lon="-3.687817">
        <ele>1802.0</ele>
        <time>2017-10-01T12:26:38Z</time>
      </trkpt>
      <trkpt lat="41.087533" lon="-3.687667">
        <ele>1802.0</ele>
        <time>2017-10-01T12:26:39Z</time>
      </trkpt>
      <trkpt lat="41.087517" lon="-3.687517">
        <ele>1804.0</ele>
        <time>2017-10-01T12:26:40Z</time>
      </trkpt>
      <trkpt lat="41.087500" lon="-3.687367">
        <ele>1805.0</ele>
        <time>2017-10-01T12:26:41Z</time>
      </trkpt>
      <trkpt lat="41.087467" lon="-3.687233">
        <ele>1804.0</ele>
        <time>2017-10-01T12:26:42Z</time>
      </trkpt>
      <trkpt lat="41.087433" lon="-3.687100">
        <ele>1803.0</ele>
        <time>2017-10-01T12:26:43Z</time>
      </trkpt>
      <trkpt lat="41.087400" lon="-3.686967">
        <ele>1801.0</ele>
        <time>2017-10-01T12:26:44Z</time>
      </trkpt>
      <trkpt lat="41.087383" lon="-3.686833">
        <ele>1799.0</ele>
        <time>2017-10-01T12:26:45Z</time>
      </trkpt>
      <trkpt lat="41.087367" lon="-3.686700">
        <ele>1796.0</ele>
        <time>2017-10-01T12:26:46Z</time>
      </trkpt>
      <trkpt lat="41.087350" lon="-3.686567">
        <ele>1795.0</ele>
        <time>2017-10-01T12:26:47Z</time>
      </trkpt>
      <trkpt lat="41.087350" lon="-3.686433">
        <ele>1794.0</ele>
        <time>2017-10-01T12:26:48Z</time>
      </trkpt>
      <trkpt lat="41.087333" lon="-3.686300">
        <ele>1793.0</ele>
        <time>2017-10-01T12:26:49Z</time>
      </trkpt>
      <trkpt lat="41.087333" lon="-3.686183">
        <ele>1793.0</ele>
        <time>2017-10-01T12:26:50Z</time>
      </trkpt>
      <trkpt lat="41.087317" lon="-3.686067">
        <ele>1791.0</ele>
        <time>2017-10-01T12:26:51Z</time>
      </trkpt>
      <trkpt lat="41.087300" lon="-3.685950">
        <ele>1790.0</ele>
        <time>2017-10-01T12:26:52Z</time>
      </trkpt>
      <trkpt lat="41.087300" lon="-3.685817">
        <ele>1788.0</ele>
        <time>2017-10-01T12:26:53Z</time>
      </trkpt>
      <trkpt lat="41.087283" lon="-3.685683">
        <ele>1786.0</ele>
        <time>2017-10-01T12:26:54Z</time>
      </trkpt>
      <trkpt lat="41.087267" lon="-3.685550">
        <ele>1785.0</ele>
        <time>2017-10-01T12:26:55Z</time>
      </trkpt>
      <trkpt lat="41.087250" lon="-3.685417">
        <ele>1784.0</ele>
        <time>2017-10-01T12:26:56Z</time>
      </trkpt>
      <trkpt lat="41.087250" lon="-3.685283">
        <ele>1783.0</ele>
        <time>2017-10-01T12:26:57Z</time>
      </trkpt>
      <trkpt lat="41.087233" lon="-3.685150">
        <ele>1782.0</ele>
        <time>2017-10-01T12:26:58Z</time>
      </trkpt>
      <trkpt lat="41.087233" lon="-3.685000">
        <ele>1782.0</ele>
        <time>2017-10-01T12:26:59Z</time>
      </trkpt>
      <trkpt lat="41.087233" lon="-3.684850">
        <ele>1783.0</ele>
        <time>2017-10-01T12:27:00Z</time>
      </trkpt>
      <trkpt lat="41.087233" lon="-3.684717">
        <ele>1783.0</ele>
        <time>2017-10-01T12:27:01Z</time>
      </trkpt>
      <trkpt lat="41.087267" lon="-3.684617">
        <ele>1783.0</ele>
        <time>2017-10-01T12:27:02Z</time>
      </trkpt>
      <trkpt lat="41.087300" lon="-3.684517">
        <ele>1782.0</ele>
        <time>2017-10-01T12:27:03Z</time>
      </trkpt>
      <trkpt lat="41.087350" lon="-3.684417">
        <ele>1781.0</ele>
        <time>2017-10-01T12:27:04Z</time>
      </trkpt>
      <trkpt lat="41.087400" lon="-3.684317">
        <ele>1780.0</ele>
        <time>2017-10-01T12:27:05Z</time>
      </trkpt>
      <trkpt lat="41.087450" lon="-3.684250">
        <ele>1780.0</ele>
        <time>2017-10-01T12:27:06Z</time>
      </trkpt>
      <trkpt lat="41.087517" lon="-3.684217">
        <ele>1779.0</ele>
        <time>2017-10-01T12:27:07Z</time>
      </trkpt>
      <trkpt lat="41.087550" lon="-3.684250">
        <ele>1779.0</ele>
        <time>2017-10-01T12:27:08Z</time>
      </trkpt>
      <trkpt lat="41.087583" lon="-3.684300">
        <ele>1779.0</ele>
        <time>2017-10-01T12:27:09Z</time>
      </trkpt>
      <trkpt lat="41.087583" lon="-3.684350">
        <ele>1781.0</ele>
        <time>2017-10-01T12:27:10Z</time>
      </trkpt>
      <trkpt lat="41.087583" lon="-3.684400">
        <ele>1782.0</ele>
        <time>2017-10-01T12:27:11Z</time>
      </trkpt>
      <trkpt lat="41.087583" lon="-3.684450">
        <ele>1782.0</ele>
        <time>2017-10-01T12:27:12Z</time>
      </trkpt>
      <trkpt lat="41.087550" lon="-3.684517">
        <ele>1782.0</ele>
        <time>2017-10-01T12:27:13Z</time>
      </trkpt>
      <trkpt lat="41.087533" lon="-3.684600">
        <ele>1782.0</ele>
        <time>2017-10-01T12:27:14Z</time>
      </trkpt>
      <trkpt lat="41.087500" lon="-3.684667">
        <ele>1782.0</ele>
        <time>2017-10-01T12:27:15Z</time>
      </trkpt>
      <trkpt lat="41.087483" lon="-3.684750">
        <ele>1783.0</ele>
        <time>2017-10-01T12:27:16Z</time>
      </trkpt>
      <trkpt lat="41.087450" lon="-3.684817">
        <ele>1783.0</ele>
        <time>2017-10-01T12:27:17Z</time>
      </trkpt>
      <trkpt lat="41.087433" lon="-3.684883">
        <ele>1784.0</ele>
        <time>2017-10-01T12:27:18Z</time>
      </trkpt>
      <trkpt lat="41.087433" lon="-3.684933">
        <ele>1784.0</ele>
        <time>2017-10-01T12:27:19Z</time>
      </trkpt>
      <trkpt lat="41.087450" lon="-3.685000">
        <ele>1784.0</ele>
        <time>2017-10-01T12:27:20Z</time>
      </trkpt>
      <trkpt lat="41.087483" lon="-3.685033">
        <ele>1784.0</ele>
        <time>2017-10-01T12:27:21Z</time>
      </trkpt>
      <trkpt lat="41.087533" lon="-3.685050">
        <ele>1784.0</ele>
        <time>2017-10-01T12:27:22Z</time>
      </trkpt>
      <trkpt lat="41.087600" lon="-3.685017">
        <ele>1784.0</ele>
        <time>2017-10-01T12:27:23Z</time>
      </trkpt>
      <trkpt lat="41.087650" lon="-3.684950">
        <ele>1786.0</ele>
        <time>2017-10-01T12:27:24Z</time>
      </trkpt>
      <trkpt lat="41.087683" lon="-3.684850">
        <ele>1787.0</ele>
        <time>2017-10-01T12:27:25Z</time>
      </trkpt>
      <trkpt lat="41.087683" lon="-3.684733">
        <ele>1788.0</ele>
        <time>2017-10-01T12:27:26Z</time>
      </trkpt>
      <trkpt lat="41.087667" lon="-3.684583">
        <ele>1788.0</ele>
        <time>2017-10-01T12:27:27Z</time>
      </trkpt>
      <trkpt lat="41.087617" lon="-3.684433">
        <ele>1788.0</ele>
        <time>2017-10-01T12:27:28Z</time>
      </trkpt>
      <trkpt lat="41.087550" lon="-3.684300">
        <ele>1789.0</ele>
        <time>2017-10-01T12:27:29Z</time>
      </trkpt>
      <trkpt lat="41.087500" lon="-3.684167">
        <ele>1790.0</ele>
        <time>2017-10-01T12:27:30Z</time>
      </trkpt>
      <trkpt lat="41.087450" lon="-3.684033">
        <ele>1790.0</ele>
        <time>2017-10-01T12:27:31Z</time>
      </trkpt>
      <trkpt lat="41.087450" lon="-3.683900">
        <ele>1790.0</ele>
        <time>2017-10-01T12:27:32Z</time>
      </trkpt>
      <trkpt lat="41.087450" lon="-3.683767">
        <ele>1789.0</ele>
        <time>2017-10-01T12:27:33Z</time>
      </trkpt>
      <trkpt lat="41.087500" lon="-3.683683">
        <ele>1788.0</ele>
        <time>2017-10-01T12:27:34Z</time>
      </trkpt>
      <trkpt lat="41.087533" lon="-3.683633">
        <ele>1787.0</ele>
        <time>2017-10-01T12:27:35Z</time>
      </trkpt>
      <trkpt lat="41.087583" lon="-3.683617">
        <ele>1786.0</ele>
        <time>2017-10-01T12:27:36Z</time>
      </trkpt>
      <trkpt lat="41.087617" lon="-3.683600">
        <ele>1784.0</ele>
        <time>2017-10-01T12:27:37Z</time>
      </trkpt>
      <trkpt lat="41.087667" lon="-3.683600">
        <ele>1783.0</ele>
        <time>2017-10-01T12:27:38Z</time>
      </trkpt>
      <trkpt lat="41.087700" lon="-3.683633">
        <ele>1781.0</ele>
        <time>2017-10-01T12:27:39Z</time>
      </trkpt>
      <trkpt lat="41.087717" lon="-3.683683">
        <ele>1780.0</ele>
        <time>2017-10-01T12:27:40Z</time>
      </trkpt>
      <trkpt lat="41.087717" lon="-3.683767">
        <ele>1778.0</ele>
        <time>2017-10-01T12:27:41Z</time>
      </trkpt>
      <trkpt lat="41.087700" lon="-3.683867">
        <ele>1776.0</ele>
        <time>2017-10-01T12:27:42Z</time>
      </trkpt>
      <trkpt lat="41.087667" lon="-3.683983">
        <ele>1776.0</ele>
        <time>2017-10-01T12:27:43Z</time>
      </trkpt>
      <trkpt lat="41.087617" lon="-3.684067">
        <ele>1777.0</ele>
        <time>2017-10-01T12:27:44Z</time>
      </trkpt>
      <trkpt lat="41.087583" lon="-3.684150">
        <ele>1777.0</ele>
        <time>2017-10-01T12:27:45Z</time>
      </trkpt>
      <trkpt lat="41.087550" lon="-3.684233">
        <ele>1776.0</ele>
        <time>2017-10-01T12:27:46Z</time>
      </trkpt>
      <trkpt lat="41.087517" lon="-3.684317">
        <ele>1775.0</ele>
        <time>2017-10-01T12:27:47Z</time>
      </trkpt>
      <trkpt lat="41.087500" lon="-3.684400">
        <ele>1774.0</ele>
        <time>2017-10-01T12:27:48Z</time>
      </trkpt>
      <trkpt lat="41.087483" lon="-3.684483">
        <ele>1774.0</ele>
        <time>2017-10-01T12:27:49Z</time>
      </trkpt>
      <trkpt lat="41.087483" lon="-3.684567">
        <ele>1774.0</ele>
        <time>2017-10-01T12:27:50Z</time>
      </trkpt>
      <trkpt lat="41.087467" lon="-3.684633">
        <ele>1774.0</ele>
        <time>2017-10-01T12:27:51Z</time>
      </trkpt>
      <trkpt lat="41.087467" lon="-3.684700">
        <ele>1774.0</ele>
        <time>2017-10-01T12:27:52Z</time>
      </trkpt>
      <trkpt lat="41.087467" lon="-3.684767">
        <ele>1774.0</ele>
        <time>2017-10-01T12:27:53Z</time>
      </trkpt>
      <trkpt lat="41.087483" lon="-3.684833">
        <ele>1773.0</ele>
        <time>2017-10-01T12:27:54Z</time>
      </trkpt>
      <trkpt lat="41.087500" lon="-3.684900">
        <ele>1773.0</ele>
        <time>2017-10-01T12:27:55Z</time>
      </trkpt>
      <trkpt lat="41.087517" lon="-3.684933">
        <ele>1772.0</ele>
        <time>2017-10-01T12:27:56Z</time>
      </trkpt>
      <trkpt lat="41.087567" lon="-3.684967">
        <ele>1772.0</ele>
        <time>2017-10-01T12:27:57Z</time>
      </trkpt>
      <trkpt lat="41.087600" lon="-3.685000">
        <ele>1772.0</ele>
        <time>2017-10-01T12:27:58Z</time>
      </trkpt>
      <trkpt lat="41.087650" lon="-3.685033">
        <ele>1772.0</ele>
        <time>2017-10-01T12:27:59Z</time>
      </trkpt>
      <trkpt lat="41.087683" lon="-3.685050">
        <ele>1772.0</ele>
        <time>2017-10-01T12:28:00Z</time>
      </trkpt>
      <trkpt lat="41.087717" lon="-3.685083">
        <ele>1773.0</ele>
        <time>2017-10-01T12:28:01Z</time>
      </trkpt>
      <trkpt lat="41.087750" lon="-3.685117">
        <ele>1773.0</ele>
        <time>2017-10-01T12:28:02Z</time>
      </trkpt>
      <trkpt lat="41.087783" lon="-3.685150">
        <ele>1773.0</ele>
        <time>2017-10-01T12:28:03Z</time>
      </trkpt>
      <trkpt lat="41.087817" lon="-3.685200">
        <ele>1772.0</ele>
        <time>2017-10-01T12:28:04Z</time>
      </trkpt>
      <trkpt lat="41.087850" lon="-3.685217">
        <ele>1771.0</ele>
        <time>2017-10-01T12:28:05Z</time>
      </trkpt>
      <trkpt lat="41.087917" lon="-3.685217">
        <ele>1771.0</ele>
        <time>2017-10-01T12:28:06Z</time>
      </trkpt>
      <trkpt lat="41.087967" lon="-3.685200">
        <ele>1770.0</ele>
        <time>2017-10-01T12:28:07Z</time>
      </trkpt>
      <trkpt lat="41.088017" lon="-3.685183">
        <ele>1770.0</ele>
        <time>2017-10-01T12:28:08Z</time>
      </trkpt>
      <trkpt lat="41.088050" lon="-3.685183">
        <ele>1770.0</ele>
        <time>2017-10-01T12:28:09Z</time>
      </trkpt>
      <trkpt lat="41.088100" lon="-3.685150">
        <ele>1769.0</ele>
        <time>2017-10-01T12:28:10Z</time>
      </trkpt>
      <trkpt lat="41.088150" lon="-3.685117">
        <ele>1767.0</ele>
        <time>2017-10-01T12:28:11Z</time>
      </trkpt>
      <trkpt lat="41.088200" lon="-3.685067">
        <ele>1766.0</ele>
        <time>2017-10-01T12:28:12Z</time>
      </trkpt>
      <trkpt lat="41.088250" lon="-3.685000">
        <ele>1765.0</ele>
        <time>2017-10-01T12:28:13Z</time>
      </trkpt>
      <trkpt lat="41.088300" lon="-3.684917">
        <ele>1764.0</ele>
        <time>2017-10-01T12:28:14Z</time>
      </trkpt>
      <trkpt lat="41.088333" lon="-3.684850">
        <ele>1764.0</ele>
        <time>2017-10-01T12:28:15Z</time>
      </trkpt>
      <trkpt lat="41.088383" lon="-3.684767">
        <ele>1763.0</ele>
        <time>2017-10-01T12:28:16Z</time>
      </trkpt>
      <trkpt lat="41.088417" lon="-3.684683">
        <ele>1763.0</ele>
        <time>2017-10-01T12:28:17Z</time>
      </trkpt>
      <trkpt lat="41.088450" lon="-3.684600">
        <ele>1762.0</ele>
        <time>2017-10-01T12:28:18Z</time>
      </trkpt>
      <trkpt lat="41.088483" lon="-3.684517">
        <ele>1761.0</ele>
        <time>2017-10-01T12:28:19Z</time>
      </trkpt>
      <trkpt lat="41.088533" lon="-3.684433">
        <ele>1760.0</ele>
        <time>2017-10-01T12:28:20Z</time>
      </trkpt>
      <trkpt lat="41.088583" lon="-3.684367">
        <ele>1759.0</ele>
        <time>2017-10-01T12:28:21Z</time>
      </trkpt>
      <trkpt lat="41.088633" lon="-3.684283">
        <ele>1758.0</ele>
        <time>2017-10-01T12:28:22Z</time>
      </trkpt>
      <trkpt lat="41.088667" lon="-3.684183">
        <ele>1757.0</ele>
        <time>2017-10-01T12:28:23Z</time>
      </trkpt>
      <trkpt lat="41.088717" lon="-3.684083">
        <ele>1755.0</ele>
        <time>2017-10-01T12:28:24Z</time>
      </trkpt>
      <trkpt lat="41.088750" lon="-3.683983">
        <ele>1753.0</ele>
        <time>2017-10-01T12:28:25Z</time>
      </trkpt>
      <trkpt lat="41.088783" lon="-3.683867">
        <ele>1752.0</ele>
        <time>2017-10-01T12:28:26Z</time>
      </trkpt>
      <trkpt lat="41.088833" lon="-3.683767">
        <ele>1750.0</ele>
        <time>2017-10-01T12:28:27Z</time>
      </trkpt>
      <trkpt lat="41.088867" lon="-3.683667">
        <ele>1749.0</ele>
        <time>2017-10-01T12:28:28Z</time>
      </trkpt>
      <trkpt lat="41.088917" lon="-3.683567">
        <ele>1747.0</ele>
        <time>2017-10-01T12:28:29Z</time>
      </trkpt>
      <trkpt lat="41.088950" lon="-3.683467">
        <ele>1745.0</ele>
        <time>2017-10-01T12:28:30Z</time>
      </trkpt>
      <trkpt lat="41.089000" lon="-3.683350">
        <ele>1744.0</ele>
        <time>2017-10-01T12:28:31Z</time>
      </trkpt>
      <trkpt lat="41.089033" lon="-3.683250">
        <ele>1742.0</ele>
        <time>2017-10-01T12:28:32Z</time>
      </trkpt>
      <trkpt lat="41.089083" lon="-3.683150">
        <ele>1741.0</ele>
        <time>2017-10-01T12:28:33Z</time>
      </trkpt>
      <trkpt lat="41.089133" lon="-3.683050">
        <ele>1740.0</ele>
        <time>2017-10-01T12:28:34Z</time>
      </trkpt>
      <trkpt lat="41.089183" lon="-3.682967">
        <ele>1739.0</ele>
        <time>2017-10-01T12:28:35Z</time>
      </trkpt>
      <trkpt lat="41.089233" lon="-3.682867">
        <ele>1738.0</ele>
        <time>2017-10-01T12:28:36Z</time>
      </trkpt>
      <trkpt lat="41.089283" lon="-3.682767">
        <ele>1736.0</ele>
        <time>2017-10-01T12:28:37Z</time>
      </trkpt>
      <trkpt lat="41.089333" lon="-3.682683">
        <ele>1735.0</ele>
        <time>2017-10-01T12:28:38Z</time>
      </trkpt>
      <trkpt lat="41.089383" lon="-3.682550">
        <ele>1734.0</ele>
        <time>2017-10-01T12:28:39Z</time>
      </trkpt>
      <trkpt lat="41.089433" lon="-3.682467">
        <ele>1733.0</ele>
        <time>2017-10-01T12:28:40Z</time>
      </trkpt>
      <trkpt lat="41.089483" lon="-3.682367">
        <ele>1732.0</ele>
        <time>2017-10-01T12:28:41Z</time>
      </trkpt>
      <trkpt lat="41.089550" lon="-3.682283">
        <ele>1731.0</ele>
        <time>2017-10-01T12:28:42Z</time>
      </trkpt>
      <trkpt lat="41.089600" lon="-3.682200">
        <ele>1730.0</ele>
        <time>2017-10-01T12:28:43Z</time>
      </trkpt>
      <trkpt lat="41.089667" lon="-3.682100">
        <ele>1730.0</ele>
        <time>2017-10-01T12:28:44Z</time>
      </trkpt>
      <trkpt lat="41.089717" lon="-3.682000">
        <ele>1729.0</ele>
        <time>2017-10-01T12:28:45Z</time>
      </trkpt>
      <trkpt lat="41.089783" lon="-3.681883">
        <ele>1728.0</ele>
        <time>2017-10-01T12:28:46Z</time>
      </trkpt>
      <trkpt lat="41.089850" lon="-3.681783">
        <ele>1728.0</ele>
        <time>2017-10-01T12:28:47Z</time>
      </trkpt>
      <trkpt lat="41.089917" lon="-3.681683">
        <ele>1729.0</ele>
        <time>2017-10-01T12:28:48Z</time>
      </trkpt>
      <trkpt lat="41.089983" lon="-3.681600">
        <ele>1729.0</ele>
        <time>2017-10-01T12:28:49Z</time>
      </trkpt>
      <trkpt lat="41.090033" lon="-3.681517">
        <ele>1730.0</ele>
        <time>2017-10-01T12:28:50Z</time>
      </trkpt>
      <trkpt lat="41.090083" lon="-3.681433">
        <ele>1729.0</ele>
        <time>2017-10-01T12:28:51Z</time>
      </trkpt>
      <trkpt lat="41.090150" lon="-3.681350">
        <ele>1729.0</ele>
        <time>2017-10-01T12:28:52Z</time>
      </trkpt>
      <trkpt lat="41.090217" lon="-3.681283">
        <ele>1728.0</ele>
        <time>2017-10-01T12:28:53Z</time>
      </trkpt>
      <trkpt lat="41.090300" lon="-3.681217">
        <ele>1728.0</ele>
        <time>2017-10-01T12:28:54Z</time>
      </trkpt>
      <trkpt lat="41.090383" lon="-3.681133">
        <ele>1729.0</ele>
        <time>2017-10-01T12:28:55Z</time>
      </trkpt>
      <trkpt lat="41.090433" lon="-3.681050">
        <ele>1731.0</ele>
        <time>2017-10-01T12:28:56Z</time>
      </trkpt>
      <trkpt lat="41.090467" lon="-3.680950">
        <ele>1734.0</ele>
        <time>2017-10-01T12:28:57Z</time>
      </trkpt>
      <trkpt lat="41.090467" lon="-3.680867">
        <ele>1736.0</ele>
        <time>2017-10-01T12:28:58Z</time>
      </trkpt>
      <trkpt lat="41.090483" lon="-3.680783">
        <ele>1736.0</ele>
        <time>2017-10-01T12:28:59Z</time>
      </trkpt>
      <trkpt lat="41.090500" lon="-3.680700">
        <ele>1735.0</ele>
        <time>2017-10-01T12:29:00Z</time>
      </trkpt>
      <trkpt lat="41.090533" lon="-3.680617">
        <ele>1733.0</ele>
        <time>2017-10-01T12:29:01Z</time>
      </trkpt>
      <trkpt lat="41.090583" lon="-3.680550">
        <ele>1731.0</ele>
        <time>2017-10-01T12:29:02Z</time>
      </trkpt>
      <trkpt lat="41.090633" lon="-3.680467">
        <ele>1730.0</ele>
        <time>2017-10-01T12:29:03Z</time>
      </trkpt>
      <trkpt lat="41.090683" lon="-3.680433">
        <ele>1731.0</ele>
        <time>2017-10-01T12:29:04Z</time>
      </trkpt>
      <trkpt lat="41.090717" lon="-3.680417">
        <ele>1732.0</ele>
        <time>2017-10-01T12:29:05Z</time>
      </trkpt>
      <trkpt lat="41.090750" lon="-3.680400">
        <ele>1734.0</ele>
        <time>2017-10-01T12:29:06Z</time>
      </trkpt>
      <trkpt lat="41.090783" lon="-3.680383">
        <ele>1735.0</ele>
        <time>2017-10-01T12:29:07Z</time>
      </trkpt>
      <trkpt lat="41.090800" lon="-3.680367">
        <ele>1736.0</ele>
        <time>2017-10-01T12:29:08Z</time>
      </trkpt>
      <trkpt lat="41.090833" lon="-3.680383">
        <ele>1736.0</ele>
        <time>2017-10-01T12:29:09Z</time>
      </trkpt>
      <trkpt lat="41.090883" lon="-3.680383">
        <ele>1736.0</ele>
        <time>2017-10-01T12:29:10Z</time>
      </trkpt>
      <trkpt lat="41.090917" lon="-3.680367">
        <ele>1736.0</ele>
        <time>2017-10-01T12:29:11Z</time>
      </trkpt>
      <trkpt lat="41.090950" lon="-3.680333">
        <ele>1736.0</ele>
        <time>2017-10-01T12:29:12Z</time>
      </trkpt>
      <trkpt lat="41.090967" lon="-3.680300">
        <ele>1736.0</ele>
        <time>2017-10-01T12:29:13Z</time>
      </trkpt>
      <trkpt lat="41.091000" lon="-3.680267">
        <ele>1736.0</ele>
        <time>2017-10-01T12:29:14Z</time>
      </trkpt>
      <trkpt lat="41.091033" lon="-3.680233">
        <ele>1735.0</ele>
        <time>2017-10-01T12:29:15Z</time>
      </trkpt>
      <trkpt lat="41.091083" lon="-3.680233">
        <ele>1734.0</ele>
        <time>2017-10-01T12:29:16Z</time>
      </trkpt>
      <trkpt lat="41.091117" lon="-3.680167">
        <ele>1733.0</ele>
        <time>2017-10-01T12:29:17Z</time>
      </trkpt>
      <trkpt lat="41.091150" lon="-3.680117">
        <ele>1734.0</ele>
        <time>2017-10-01T12:29:18Z</time>
      </trkpt>
      <trkpt lat="41.091167" lon="-3.680050">
        <ele>1734.0</ele>
        <time>2017-10-01T12:29:19Z</time>
      </trkpt>
      <trkpt lat="41.091200" lon="-3.680000">
        <ele>1735.0</ele>
        <time>2017-10-01T12:29:20Z</time>
      </trkpt>
      <trkpt lat="41.091233" lon="-3.679950">
        <ele>1735.0</ele>
        <time>2017-10-01T12:29:21Z</time>
      </trkpt>
      <trkpt lat="41.091250" lon="-3.679900">
        <ele>1735.0</ele>
        <time>2017-10-01T12:29:22Z</time>
      </trkpt>
      <trkpt lat="41.091283" lon="-3.679850">
        <ele>1735.0</ele>
        <time>2017-10-01T12:29:23Z</time>
      </trkpt>
      <trkpt lat="41.091300" lon="-3.679783">
        <ele>1735.0</ele>
        <time>2017-10-01T12:29:24Z</time>
      </trkpt>
      <trkpt lat="41.091333" lon="-3.679700">
        <ele>1735.0</ele>
        <time>2017-10-01T12:29:25Z</time>
      </trkpt>
      <trkpt lat="41.091350" lon="-3.679633">
        <ele>1735.0</ele>
        <time>2017-10-01T12:29:26Z</time>
      </trkpt>
      <trkpt lat="41.091383" lon="-3.679567">
        <ele>1735.0</ele>
        <time>2017-10-01T12:29:27Z</time>
      </trkpt>
      <trkpt lat="41.091433" lon="-3.679500">
        <ele>1735.0</ele>
        <time>2017-10-01T12:29:28Z</time>
      </trkpt>
      <trkpt lat="41.091483" lon="-3.679450">
        <ele>1736.0</ele>
        <time>2017-10-01T12:29:29Z</time>
      </trkpt>
      <trkpt lat="41.091533" lon="-3.679400">
        <ele>1738.0</ele>
        <time>2017-10-01T12:29:30Z</time>
      </trkpt>
      <trkpt lat="41.091567" lon="-3.679367">
        <ele>1740.0</ele>
        <time>2017-10-01T12:29:31Z</time>
      </trkpt>
      <trkpt lat="41.091600" lon="-3.679333">
        <ele>1741.0</ele>
        <time>2017-10-01T12:29:32Z</time>
      </trkpt>
      <trkpt lat="41.091633" lon="-3.679283">
        <ele>1741.0</ele>
        <time>2017-10-01T12:29:33Z</time>
      </trkpt>
      <trkpt lat="41.091683" lon="-3.679217">
        <ele>1741.0</ele>
        <time>2017-10-01T12:29:34Z</time>
      </trkpt>
      <trkpt lat="41.091717" lon="-3.679150">
        <ele>1741.0</ele>
        <time>2017-10-01T12:29:35Z</time>
      </trkpt>
      <trkpt lat="41.091750" lon="-3.679100">
        <ele>1742.0</ele>
        <time>2017-10-01T12:29:36Z</time>
      </trkpt>
      <trkpt lat="41.091783" lon="-3.679050">
        <ele>1742.0</ele>
        <time>2017-10-01T12:29:37Z</time>
      </trkpt>
      <trkpt lat="41.091833" lon="-3.679017">
        <ele>1742.0</ele>
        <time>2017-10-01T12:29:38Z</time>
      </trkpt>
      <trkpt lat="41.091867" lon="-3.679017">
        <ele>1741.0</ele>
        <time>2017-10-01T12:29:39Z</time>
      </trkpt>
      <trkpt lat="41.091917" lon="-3.679033">
        <ele>1741.0</ele>
        <time>2017-10-01T12:29:40Z</time>
      </trkpt>
      <trkpt lat="41.091950" lon="-3.679083">
        <ele>1741.0</ele>
        <time>2017-10-01T12:29:41Z</time>
      </trkpt>
      <trkpt lat="41.091983" lon="-3.679150">
        <ele>1741.0</ele>
        <time>2017-10-01T12:29:42Z</time>
      </trkpt>
      <trkpt lat="41.091983" lon="-3.679217">
        <ele>1740.0</ele>
        <time>2017-10-01T12:29:43Z</time>
      </trkpt>
      <trkpt lat="41.092000" lon="-3.679283">
        <ele>1740.0</ele>
        <time>2017-10-01T12:29:44Z</time>
      </trkpt>
      <trkpt lat="41.092017" lon="-3.679350">
        <ele>1740.0</ele>
        <time>2017-10-01T12:29:45Z</time>
      </trkpt>
      <trkpt lat="41.092050" lon="-3.679400">
        <ele>1741.0</ele>
        <time>2017-10-01T12:29:46Z</time>
      </trkpt>
      <trkpt lat="41.092083" lon="-3.679467">
        <ele>1741.0</ele>
        <time>2017-10-01T12:29:47Z</time>
      </trkpt>
      <trkpt lat="41.092117" lon="-3.679500">
        <ele>1742.0</ele>
        <time>2017-10-01T12:29:48Z</time>
      </trkpt>
      <trkpt lat="41.092150" lon="-3.679517">
        <ele>1743.0</ele>
        <time>2017-10-01T12:29:49Z</time>
      </trkpt>
      <trkpt lat="41.092183" lon="-3.679517">
        <ele>1742.0</ele>
        <time>2017-10-01T12:29:50Z</time>
      </trkpt>
      <trkpt lat="41.092233" lon="-3.679517">
        <ele>1740.0</ele>
        <time>2017-10-01T12:29:51Z</time>
      </trkpt>
      <trkpt lat="41.092300" lon="-3.679500">
        <ele>1739.0</ele>
        <time>2017-10-01T12:29:52Z</time>
      </trkpt>
      <trkpt lat="41.092350" lon="-3.679467">
        <ele>1738.0</ele>
        <time>2017-10-01T12:29:53Z</time>
      </trkpt>
      <trkpt lat="41.092383" lon="-3.679383">
        <ele>1738.0</ele>
        <time>2017-10-01T12:29:54Z</time>
      </trkpt>
      <trkpt lat="41.092400" lon="-3.679300">
        <ele>1737.0</ele>
        <time>2017-10-01T12:29:55Z</time>
      </trkpt>
      <trkpt lat="41.092417" lon="-3.679200">
        <ele>1737.0</ele>
        <time>2017-10-01T12:29:56Z</time>
      </trkpt>
      <trkpt lat="41.092433" lon="-3.679100">
        <ele>1737.0</ele>
        <time>2017-10-01T12:29:57Z</time>
      </trkpt>
      <trkpt lat="41.092450" lon="-3.679017">
        <ele>1736.0</ele>
        <time>2017-10-01T12:29:58Z</time>
      </trkpt>
      <trkpt lat="41.092450" lon="-3.678900">
        <ele>1735.0</ele>
        <time>2017-10-01T12:29:59Z</time>
      </trkpt>
      <trkpt lat="41.092467" lon="-3.678783">
        <ele>1733.0</ele>
        <time>2017-10-01T12:30:00Z</time>
      </trkpt>
      <trkpt lat="41.092500" lon="-3.678683">
        <ele>1733.0</ele>
        <time>2017-10-01T12:30:01Z</time>
      </trkpt>
      <trkpt lat="41.092517" lon="-3.678567">
        <ele>1732.0</ele>
        <time>2017-10-01T12:30:02Z</time>
      </trkpt>
      <trkpt lat="41.092550" lon="-3.678467">
        <ele>1732.0</ele>
        <time>2017-10-01T12:30:03Z</time>
      </trkpt>
      <trkpt lat="41.092567" lon="-3.678367">
        <ele>1732.0</ele>
        <time>2017-10-01T12:30:04Z</time>
      </trkpt>
      <trkpt lat="41.092583" lon="-3.678267">
        <ele>1731.0</ele>
        <time>2017-10-01T12:30:05Z</time>
      </trkpt>
      <trkpt lat="41.092617" lon="-3.678183">
        <ele>1731.0</ele>
        <time>2017-10-01T12:30:06Z</time>
      </trkpt>
      <trkpt lat="41.092667" lon="-3.678117">
        <ele>1730.0</ele>
        <time>2017-10-01T12:30:07Z</time>
      </trkpt>
      <trkpt lat="41.092700" lon="-3.678033">
        <ele>1729.0</ele>
        <time>2017-10-01T12:30:08Z</time>
      </trkpt>
      <trkpt lat="41.092750" lon="-3.677950">
        <ele>1729.0</ele>
        <time>2017-10-01T12:30:09Z</time>
      </trkpt>
      <trkpt lat="41.092783" lon="-3.677883">
        <ele>1729.0</ele>
        <time>2017-10-01T12:30:10Z</time>
      </trkpt>
      <trkpt lat="41.092817" lon="-3.677800">
        <ele>1728.0</ele>
        <time>2017-10-01T12:30:11Z</time>
      </trkpt>
      <trkpt lat="41.092867" lon="-3.677733">
        <ele>1727.0</ele>
        <time>2017-10-01T12:30:12Z</time>
      </trkpt>
      <trkpt lat="41.092900" lon="-3.677650">
        <ele>1725.0</ele>
        <time>2017-10-01T12:30:13Z</time>
      </trkpt>
      <trkpt lat="41.092933" lon="-3.677567">
        <ele>1724.0</ele>
        <time>2017-10-01T12:30:14Z</time>
      </trkpt>
      <trkpt lat="41.092950" lon="-3.677467">
        <ele>1724.0</ele>
        <time>2017-10-01T12:30:15Z</time>
      </trkpt>
      <trkpt lat="41.092983" lon="-3.677400">
        <ele>1723.0</ele>
        <time>2017-10-01T12:30:16Z</time>
      </trkpt>
      <trkpt lat="41.093017" lon="-3.677333">
        <ele>1722.0</ele>
        <time>2017-10-01T12:30:17Z</time>
      </trkpt>
      <trkpt lat="41.093067" lon="-3.677267">
        <ele>1721.0</ele>
        <time>2017-10-01T12:30:18Z</time>
      </trkpt>
      <trkpt lat="41.093100" lon="-3.677200">
        <ele>1719.0</ele>
        <time>2017-10-01T12:30:19Z</time>
      </trkpt>
      <trkpt lat="41.093150" lon="-3.677133">
        <ele>1718.0</ele>
        <time>2017-10-01T12:30:20Z</time>
      </trkpt>
      <trkpt lat="41.093200" lon="-3.677033">
        <ele>1716.0</ele>
        <time>2017-10-01T12:30:21Z</time>
      </trkpt>
      <trkpt lat="41.093250" lon="-3.676950">
        <ele>1714.0</ele>
        <time>2017-10-01T12:30:22Z</time>
      </trkpt>
      <trkpt lat="41.093283" lon="-3.676850">
        <ele>1712.0</ele>
        <time>2017-10-01T12:30:23Z</time>
      </trkpt>
      <trkpt lat="41.093333" lon="-3.676783">
        <ele>1710.0</ele>
        <time>2017-10-01T12:30:24Z</time>
      </trkpt>
      <trkpt lat="41.093367" lon="-3.676717">
        <ele>1707.0</ele>
        <time>2017-10-01T12:30:25Z</time>
      </trkpt>
      <trkpt lat="41.093433" lon="-3.676650">
        <ele>1705.0</ele>
        <time>2017-10-01T12:30:26Z</time>
      </trkpt>
      <trkpt lat="41.093500" lon="-3.676600">
        <ele>1703.0</ele>
        <time>2017-10-01T12:30:27Z</time>
      </trkpt>
      <trkpt lat="41.093550" lon="-3.676550">
        <ele>1703.0</ele>
        <time>2017-10-01T12:30:28Z</time>
      </trkpt>
      <trkpt lat="41.093600" lon="-3.676517">
        <ele>1703.0</ele>
        <time>2017-10-01T12:30:29Z</time>
      </trkpt>
      <trkpt lat="41.093633" lon="-3.676467">
        <ele>1702.0</ele>
        <time>2017-10-01T12:30:30Z</time>
      </trkpt>
      <trkpt lat="41.093667" lon="-3.676433">
        <ele>1702.0</ele>
        <time>2017-10-01T12:30:31Z</time>
      </trkpt>
      <trkpt lat="41.093700" lon="-3.676400">
        <ele>1700.0</ele>
        <time>2017-10-01T12:30:32Z</time>
      </trkpt>
      <trkpt lat="41.093750" lon="-3.676367">
        <ele>1699.0</ele>
        <time>2017-10-01T12:30:33Z</time>
      </trkpt>
      <trkpt lat="41.093817" lon="-3.676333">
        <ele>1698.0</ele>
        <time>2017-10-01T12:30:34Z</time>
      </trkpt>
      <trkpt lat="41.093850" lon="-3.676300">
        <ele>1698.0</ele>
        <time>2017-10-01T12:30:35Z</time>
      </trkpt>
      <trkpt lat="41.093900" lon="-3.676250">
        <ele>1699.0</ele>
        <time>2017-10-01T12:30:36Z</time>
      </trkpt>
      <trkpt lat="41.093933" lon="-3.676200">
        <ele>1701.0</ele>
        <time>2017-10-01T12:30:37Z</time>
      </trkpt>
      <trkpt lat="41.093983" lon="-3.676167">
        <ele>1702.0</ele>
        <time>2017-10-01T12:30:38Z</time>
      </trkpt>
      <trkpt lat="41.094017" lon="-3.676133">
        <ele>1703.0</ele>
        <time>2017-10-01T12:30:39Z</time>
      </trkpt>
      <trkpt lat="41.094050" lon="-3.676100">
        <ele>1703.0</ele>
        <time>2017-10-01T12:30:40Z</time>
      </trkpt>
      <trkpt lat="41.094083" lon="-3.676050">
        <ele>1702.0</ele>
        <time>2017-10-01T12:30:41Z</time>
      </trkpt>
      <trkpt lat="41.094133" lon="-3.675967">
        <ele>1700.0</ele>
        <time>2017-10-01T12:30:42Z</time>
      </trkpt>
      <trkpt lat="41.094167" lon="-3.675867">
        <ele>1699.0</ele>
        <time>2017-10-01T12:30:43Z</time>
      </trkpt>
      <trkpt lat="41.094183" lon="-3.675767">
        <ele>1699.0</ele>
        <time>2017-10-01T12:30:44Z</time>
      </trkpt>
      <trkpt lat="41.094217" lon="-3.675667">
        <ele>1700.0</ele>
        <time>2017-10-01T12:30:45Z</time>
      </trkpt>
      <trkpt lat="41.094233" lon="-3.675567">
        <ele>1700.0</ele>
        <time>2017-10-01T12:30:46Z</time>
      </trkpt>
      <trkpt lat="41.094267" lon="-3.675483">
        <ele>1699.0</ele>
        <time>2017-10-01T12:30:47Z</time>
      </trkpt>
      <trkpt lat="41.094283" lon="-3.675400">
        <ele>1698.0</ele>
        <time>2017-10-01T12:30:48Z</time>
      </trkpt>
      <trkpt lat="41.094333" lon="-3.675300">
        <ele>1695.0</ele>
        <time>2017-10-01T12:30:49Z</time>
      </trkpt>
      <trkpt lat="41.094400" lon="-3.675217">
        <ele>1694.0</ele>
        <time>2017-10-01T12:30:50Z</time>
      </trkpt>
      <trkpt lat="41.094450" lon="-3.675133">
        <ele>1694.0</ele>
        <time>2017-10-01T12:30:51Z</time>
      </trkpt>
      <trkpt lat="41.094500" lon="-3.675050">
        <ele>1694.0</ele>
        <time>2017-10-01T12:30:52Z</time>
      </trkpt>
      <trkpt lat="41.094533" lon="-3.674967">
        <ele>1694.0</ele>
        <time>2017-10-01T12:30:53Z</time>
      </trkpt>
      <trkpt lat="41.094550" lon="-3.674867">
        <ele>1694.0</ele>
        <time>2017-10-01T12:30:54Z</time>
      </trkpt>
      <trkpt lat="41.094583" lon="-3.674783">
        <ele>1694.0</ele>
        <time>2017-10-01T12:30:55Z</time>
      </trkpt>
      <trkpt lat="41.094633" lon="-3.674700">
        <ele>1694.0</ele>
        <time>2017-10-01T12:30:56Z</time>
      </trkpt>
      <trkpt lat="41.094667" lon="-3.674617">
        <ele>1694.0</ele>
        <time>2017-10-01T12:30:57Z</time>
      </trkpt>
      <trkpt lat="41.094717" lon="-3.674533">
        <ele>1694.0</ele>
        <time>2017-10-01T12:30:58Z</time>
      </trkpt>
      <trkpt lat="41.094750" lon="-3.674467">
        <ele>1694.0</ele>
        <time>2017-10-01T12:30:59Z</time>
      </trkpt>
      <trkpt lat="41.094800" lon="-3.674400">
        <ele>1694.0</ele>
        <time>2017-10-01T12:31:00Z</time>
      </trkpt>
      <trkpt lat="41.094850" lon="-3.674350">
        <ele>1693.0</ele>
        <time>2017-10-01T12:31:01Z</time>
      </trkpt>
      <trkpt lat="41.094883" lon="-3.674283">
        <ele>1693.0</ele>
        <time>2017-10-01T12:31:02Z</time>
      </trkpt>
      <trkpt lat="41.094917" lon="-3.674200">
        <ele>1693.0</ele>
        <time>2017-10-01T12:31:03Z</time>
      </trkpt>
      <trkpt lat="41.094950" lon="-3.674133">
        <ele>1693.0</ele>
        <time>2017-10-01T12:31:04Z</time>
      </trkpt>
      <trkpt lat="41.094983" lon="-3.674050">
        <ele>1692.0</ele>
        <time>2017-10-01T12:31:05Z</time>
      </trkpt>
      <trkpt lat="41.095017" lon="-3.673983">
        <ele>1691.0</ele>
        <time>2017-10-01T12:31:06Z</time>
      </trkpt>
      <trkpt lat="41.095067" lon="-3.673900">
        <ele>1690.0</ele>
        <time>2017-10-01T12:31:07Z</time>
      </trkpt>
      <trkpt lat="41.095100" lon="-3.673817">
        <ele>1690.0</ele>
        <time>2017-10-01T12:31:08Z</time>
      </trkpt>
      <trkpt lat="41.095150" lon="-3.673750">
        <ele>1689.0</ele>
        <time>2017-10-01T12:31:09Z</time>
      </trkpt>
      <trkpt lat="41.095183" lon="-3.673683">
        <ele>1688.0</ele>
        <time>2017-10-01T12:31:10Z</time>
      </trkpt>
      <trkpt lat="41.095233" lon="-3.673600">
        <ele>1688.0</ele>
        <time>2017-10-01T12:31:11Z</time>
      </trkpt>
      <trkpt lat="41.095283" lon="-3.673517">
        <ele>1687.0</ele>
        <time>2017-10-01T12:31:12Z</time>
      </trkpt>
      <trkpt lat="41.095317" lon="-3.673450">
        <ele>1686.0</ele>
        <time>2017-10-01T12:31:13Z</time>
      </trkpt>
      <trkpt lat="41.095367" lon="-3.673367">
        <ele>1685.0</ele>
        <time>2017-10-01T12:31:14Z</time>
      </trkpt>
      <trkpt lat="41.095433" lon="-3.673283">
        <ele>1685.0</ele>
        <time>2017-10-01T12:31:15Z</time>
      </trkpt>
      <trkpt lat="41.095483" lon="-3.673217">
        <ele>1684.0</ele>
        <time>2017-10-01T12:31:16Z</time>
      </trkpt>
      <trkpt lat="41.095533" lon="-3.673150">
        <ele>1684.0</ele>
        <time>2017-10-01T12:31:17Z</time>
      </trkpt>
      <trkpt lat="41.095583" lon="-3.673083">
        <ele>1684.0</ele>
        <time>2017-10-01T12:31:18Z</time>
      </trkpt>
      <trkpt lat="41.095633" lon="-3.673017">
        <ele>1683.0</ele>
        <time>2017-10-01T12:31:19Z</time>
      </trkpt>
      <trkpt lat="41.095683" lon="-3.672933">
        <ele>1683.0</ele>
        <time>2017-10-01T12:31:20Z</time>
      </trkpt>
      <trkpt lat="41.095733" lon="-3.672850">
        <ele>1681.0</ele>
        <time>2017-10-01T12:31:21Z</time>
      </trkpt>
      <trkpt lat="41.095800" lon="-3.672800">
        <ele>1681.0</ele>
        <time>2017-10-01T12:31:22Z</time>
      </trkpt>
      <trkpt lat="41.095867" lon="-3.672750">
        <ele>1681.0</ele>
        <time>2017-10-01T12:31:23Z</time>
      </trkpt>
      <trkpt lat="41.095917" lon="-3.672700">
        <ele>1681.0</ele>
        <time>2017-10-01T12:31:24Z</time>
      </trkpt>
      <trkpt lat="41.095983" lon="-3.672617">
        <ele>1681.0</ele>
        <time>2017-10-01T12:31:25Z</time>
      </trkpt>
      <trkpt lat="41.096017" lon="-3.672517">
        <ele>1680.0</ele>
        <time>2017-10-01T12:31:26Z</time>
      </trkpt>
      <trkpt lat="41.096050" lon="-3.672417">
        <ele>1680.0</ele>
        <time>2017-10-01T12:31:27Z</time>
      </trkpt>
      <trkpt lat="41.096083" lon="-3.672317">
        <ele>1679.0</ele>
        <time>2017-10-01T12:31:28Z</time>
      </trkpt>
      <trkpt lat="41.096150" lon="-3.672233">
        <ele>1677.0</ele>
        <time>2017-10-01T12:31:29Z</time>
      </trkpt>
      <trkpt lat="41.096200" lon="-3.672150">
        <ele>1676.0</ele>
        <time>2017-10-01T12:31:30Z</time>
      </trkpt>
      <trkpt lat="41.096267" lon="-3.672100">
        <ele>1675.0</ele>
        <time>2017-10-01T12:31:31Z</time>
      </trkpt>
      <trkpt lat="41.096333" lon="-3.672050">
        <ele>1676.0</ele>
        <time>2017-10-01T12:31:32Z</time>
      </trkpt>
      <trkpt lat="41.096383" lon="-3.672017">
        <ele>1676.0</ele>
        <time>2017-10-01T12:31:33Z</time>
      </trkpt>
      <trkpt lat="41.096433" lon="-3.671950">
        <ele>1675.0</ele>
        <time>2017-10-01T12:31:34Z</time>
      </trkpt>
      <trkpt lat="41.096467" lon="-3.671883">
        <ele>1673.0</ele>
        <time>2017-10-01T12:31:35Z</time>
      </trkpt>
      <trkpt lat="41.096533" lon="-3.671800">
        <ele>1671.0</ele>
        <time>2017-10-01T12:31:36Z</time>
      </trkpt>
      <trkpt lat="41.096600" lon="-3.671717">
        <ele>1670.0</ele>
        <time>2017-10-01T12:31:37Z</time>
      </trkpt>
      <trkpt lat="41.096650" lon="-3.671633">
        <ele>1671.0</ele>
        <time>2017-10-01T12:31:38Z</time>
      </trkpt>
      <trkpt lat="41.096717" lon="-3.671550">
        <ele>1672.0</ele>
        <time>2017-10-01T12:31:39Z</time>
      </trkpt>
      <trkpt lat="41.096767" lon="-3.671467">
        <ele>1674.0</ele>
        <time>2017-10-01T12:31:40Z</time>
      </trkpt>
      <trkpt lat="41.096817" lon="-3.671367">
        <ele>1676.0</ele>
        <time>2017-10-01T12:31:41Z</time>
      </trkpt>
      <trkpt lat="41.096850" lon="-3.671283">
        <ele>1678.0</ele>
        <time>2017-10-01T12:31:42Z</time>
      </trkpt>
      <trkpt lat="41.096917" lon="-3.671167">
        <ele>1679.0</ele>
        <time>2017-10-01T12:31:43Z</time>
      </trkpt>
      <trkpt lat="41.096983" lon="-3.671083">
        <ele>1681.0</ele>
        <time>2017-10-01T12:31:44Z</time>
      </trkpt>
      <trkpt lat="41.097050" lon="-3.671033">
        <ele>1685.0</ele>
        <time>2017-10-01T12:31:45Z</time>
      </trkpt>
      <trkpt lat="41.097083" lon="-3.671067">
        <ele>1687.0</ele>
        <time>2017-10-01T12:31:46Z</time>
      </trkpt>
      <trkpt lat="41.097100" lon="-3.671133">
        <ele>1690.0</ele>
        <time>2017-10-01T12:31:47Z</time>
      </trkpt>
      <trkpt lat="41.097067" lon="-3.671217">
        <ele>1692.0</ele>
        <time>2017-10-01T12:31:48Z</time>
      </trkpt>
      <trkpt lat="41.097017" lon="-3.671300">
        <ele>1694.0</ele>
        <time>2017-10-01T12:31:49Z</time>
      </trkpt>
      <trkpt lat="41.096950" lon="-3.671350">
        <ele>1697.0</ele>
        <time>2017-10-01T12:31:50Z</time>
      </trkpt>
      <trkpt lat="41.096883" lon="-3.671383">
        <ele>1699.0</ele>
        <time>2017-10-01T12:31:51Z</time>
      </trkpt>
      <trkpt lat="41.096767" lon="-3.671417">
        <ele>1699.0</ele>
        <time>2017-10-01T12:31:52Z</time>
      </trkpt>
      <trkpt lat="41.096650" lon="-3.671417">
        <ele>1700.0</ele>
        <time>2017-10-01T12:31:53Z</time>
      </trkpt>
      <trkpt lat="41.096517" lon="-3.671367">
        <ele>1702.0</ele>
        <time>2017-10-01T12:31:54Z</time>
      </trkpt>
      <trkpt lat="41.096383" lon="-3.671283">
        <ele>1705.0</ele>
        <time>2017-10-01T12:31:55Z</time>
      </trkpt>
      <trkpt lat="41.096300" lon="-3.671167">
        <ele>1708.0</ele>
        <time>2017-10-01T12:31:56Z</time>
      </trkpt>
      <trkpt lat="41.096250" lon="-3.671017">
        <ele>1711.0</ele>
        <time>2017-10-01T12:31:57Z</time>
      </trkpt>
      <trkpt lat="41.096233" lon="-3.670867">
        <ele>1714.0</ele>
        <time>2017-10-01T12:31:58Z</time>
      </trkpt>
      <trkpt lat="41.096250" lon="-3.670733">
        <ele>1715.0</ele>
        <time>2017-10-01T12:31:59Z</time>
      </trkpt>
      <trkpt lat="41.096300" lon="-3.670633">
        <ele>1717.0</ele>
        <time>2017-10-01T12:32:00Z</time>
      </trkpt>
      <trkpt lat="41.096367" lon="-3.670583">
        <ele>1720.0</ele>
        <time>2017-10-01T12:32:01Z</time>
      </trkpt>
      <trkpt lat="41.096400" lon="-3.670583">
        <ele>1723.0</ele>
        <time>2017-10-01T12:32:02Z</time>
      </trkpt>
      <trkpt lat="41.096433" lon="-3.670600">
        <ele>1726.0</ele>
        <time>2017-10-01T12:32:03Z</time>
      </trkpt>
      <trkpt lat="41.096433" lon="-3.670650">
        <ele>1728.0</ele>
        <time>2017-10-01T12:32:04Z</time>
      </trkpt>
      <trkpt lat="41.096417" lon="-3.670700">
        <ele>1730.0</ele>
        <time>2017-10-01T12:32:05Z</time>
      </trkpt>
      <trkpt lat="41.096383" lon="-3.670767">
        <ele>1732.0</ele>
        <time>2017-10-01T12:32:06Z</time>
      </trkpt>
      <trkpt lat="41.096333" lon="-3.670817">
        <ele>1733.0</ele>
        <time>2017-10-01T12:32:07Z</time>
      </trkpt>
      <trkpt lat="41.096267" lon="-3.670883">
        <ele>1735.0</ele>
        <time>2017-10-01T12:32:08Z</time>
      </trkpt>
      <trkpt lat="41.096183" lon="-3.670950">
        <ele>1736.0</ele>
        <time>2017-10-01T12:32:09Z</time>
      </trkpt>
      <trkpt lat="41.096083" lon="-3.671000">
        <ele>1738.0</ele>
        <time>2017-10-01T12:32:10Z</time>
      </trkpt>
      <trkpt lat="41.095983" lon="-3.671033">
        <ele>1741.0</ele>
        <time>2017-10-01T12:32:11Z</time>
      </trkpt>
      <trkpt lat="41.095917" lon="-3.671100">
        <ele>1743.0</ele>
        <time>2017-10-01T12:32:12Z</time>
      </trkpt>
      <trkpt lat="41.095883" lon="-3.671167">
        <ele>1744.0</ele>
        <time>2017-10-01T12:32:13Z</time>
      </trkpt>
      <trkpt lat="41.095867" lon="-3.671233">
        <ele>1744.0</ele>
        <time>2017-10-01T12:32:14Z</time>
      </trkpt>
      <trkpt lat="41.095883" lon="-3.671300">
        <ele>1746.0</ele>
        <time>2017-10-01T12:32:15Z</time>
      </trkpt>
      <trkpt lat="41.095900" lon="-3.671333">
        <ele>1750.0</ele>
        <time>2017-10-01T12:32:16Z</time>
      </trkpt>
      <trkpt lat="41.095933" lon="-3.671333">
        <ele>1754.0</ele>
        <time>2017-10-01T12:32:17Z</time>
      </trkpt>
      <trkpt lat="41.095950" lon="-3.671300">
        <ele>1757.0</ele>
        <time>2017-10-01T12:32:18Z</time>
      </trkpt>
      <trkpt lat="41.095983" lon="-3.671267">
        <ele>1759.0</ele>
        <time>2017-10-01T12:32:19Z</time>
      </trkpt>
      <trkpt lat="41.096017" lon="-3.671200">
        <ele>1762.0</ele>
        <time>2017-10-01T12:32:20Z</time>
      </trkpt>
      <trkpt lat="41.096033" lon="-3.671100">
        <ele>1764.0</ele>
        <time>2017-10-01T12:32:21Z</time>
      </trkpt>
      <trkpt lat="41.096033" lon="-3.670983">
        <ele>1765.0</ele>
        <time>2017-10-01T12:32:22Z</time>
      </trkpt>
      <trkpt lat="41.096000" lon="-3.670833">
        <ele>1766.0</ele>
        <time>2017-10-01T12:32:23Z</time>
      </trkpt>
      <trkpt lat="41.095967" lon="-3.670700">
        <ele>1766.0</ele>
        <time>2017-10-01T12:32:24Z</time>
      </trkpt>
      <trkpt lat="41.095950" lon="-3.670567">
        <ele>1766.0</ele>
        <time>2017-10-01T12:32:25Z</time>
      </trkpt>
      <trkpt lat="41.095967" lon="-3.670433">
        <ele>1765.0</ele>
        <time>2017-10-01T12:32:26Z</time>
      </trkpt>
      <trkpt lat="41.096000" lon="-3.670317">
        <ele>1765.0</ele>
        <time>2017-10-01T12:32:27Z</time>
      </trkpt>
      <trkpt lat="41.096050" lon="-3.670217">
        <ele>1766.0</ele>
        <time>2017-10-01T12:32:28Z</time>
      </trkpt>
      <trkpt lat="41.096083" lon="-3.670133">
        <ele>1769.0</ele>
        <time>2017-10-01T12:32:29Z</time>
      </trkpt>
      <trkpt lat="41.096100" lon="-3.670067">
        <ele>1773.0</ele>
        <time>2017-10-01T12:32:30Z</time>
      </trkpt>
      <trkpt lat="41.096133" lon="-3.669983">
        <ele>1775.0</ele>
        <time>2017-10-01T12:32:31Z</time>
      </trkpt>
      <trkpt lat="41.096150" lon="-3.669917">
        <ele>1776.0</ele>
        <time>2017-10-01T12:32:32Z</time>
      </trkpt>
      <trkpt lat="41.096183" lon="-3.669867">
        <ele>1777.0</ele>
        <time>2017-10-01T12:32:33Z</time>
      </trkpt>
      <trkpt lat="41.096217" lon="-3.669800">
        <ele>1778.0</ele>
        <time>2017-10-01T12:32:34Z</time>
      </trkpt>
      <trkpt lat="41.096267" lon="-3.669767">
        <ele>1779.0</ele>
        <time>2017-10-01T12:32:35Z</time>
      </trkpt>
      <trkpt lat="41.096317" lon="-3.669733">
        <ele>1780.0</ele>
        <time>2017-10-01T12:32:36Z</time>
      </trkpt>
      <trkpt lat="41.096367" lon="-3.669700">
        <ele>1782.0</ele>
        <time>2017-10-01T12:32:37Z</time>
      </trkpt>
      <trkpt lat="41.096400" lon="-3.669683">
        <ele>1783.0</ele>
        <time>2017-10-01T12:32:38Z</time>
      </trkpt>
      <trkpt lat="41.096433" lon="-3.669667">
        <ele>1784.0</ele>
        <time>2017-10-01T12:32:39Z</time>
      </trkpt>
      <trkpt lat="41.096467" lon="-3.669650">
        <ele>1784.0</ele>
        <time>2017-10-01T12:32:40Z</time>
      </trkpt>
      <trkpt lat="41.096500" lon="-3.669617">
        <ele>1783.0</ele>
        <time>2017-10-01T12:32:41Z</time>
      </trkpt>
      <trkpt lat="41.096533" lon="-3.669583">
        <ele>1781.0</ele>
        <time>2017-10-01T12:32:42Z</time>
      </trkpt>
      <trkpt lat="41.096567" lon="-3.669550">
        <ele>1778.0</ele>
        <time>2017-10-01T12:32:43Z</time>
      </trkpt>
      <trkpt lat="41.096617" lon="-3.669517">
        <ele>1776.0</ele>
        <time>2017-10-01T12:32:44Z</time>
      </trkpt>
      <trkpt lat="41.096667" lon="-3.669467">
        <ele>1774.0</ele>
        <time>2017-10-01T12:32:45Z</time>
      </trkpt>
      <trkpt lat="41.096700" lon="-3.669417">
        <ele>1772.0</ele>
        <time>2017-10-01T12:32:46Z</time>
      </trkpt>
      <trkpt lat="41.096750" lon="-3.669350">
        <ele>1770.0</ele>
        <time>2017-10-01T12:32:47Z</time>
      </trkpt>
      <trkpt lat="41.096800" lon="-3.669300">
        <ele>1768.0</ele>
        <time>2017-10-01T12:32:48Z</time>
      </trkpt>
      <trkpt lat="41.096850" lon="-3.669233">
        <ele>1767.0</ele>
        <time>2017-10-01T12:32:49Z</time>
      </trkpt>
      <trkpt lat="41.096900" lon="-3.669183">
        <ele>1766.0</ele>
        <time>2017-10-01T12:32:50Z</time>
      </trkpt>
      <trkpt lat="41.096950" lon="-3.669133">
        <ele>1766.0</ele>
        <time>2017-10-01T12:32:51Z</time>
      </trkpt>
      <trkpt lat="41.097000" lon="-3.669100">
        <ele>1766.0</ele>
        <time>2017-10-01T12:32:52Z</time>
      </trkpt>
      <trkpt lat="41.097050" lon="-3.669067">
        <ele>1766.0</ele>
        <time>2017-10-01T12:32:53Z</time>
      </trkpt>
      <trkpt lat="41.097083" lon="-3.669033">
        <ele>1765.0</ele>
        <time>2017-10-01T12:32:54Z</time>
      </trkpt>
      <trkpt lat="41.097133" lon="-3.669017">
        <ele>1765.0</ele>
        <time>2017-10-01T12:32:55Z</time>
      </trkpt>
      <trkpt lat="41.097183" lon="-3.669000">
        <ele>1765.0</ele>
        <time>2017-10-01T12:32:56Z</time>
      </trkpt>
      <trkpt lat="41.097233" lon="-3.668983">
        <ele>1766.0</ele>
        <time>2017-10-01T12:32:57Z</time>
      </trkpt>
      <trkpt lat="41.097267" lon="-3.668983">
        <ele>1767.0</ele>
        <time>2017-10-01T12:32:58Z</time>
      </trkpt>
      <trkpt lat="41.097300" lon="-3.668967">
        <ele>1767.0</ele>
        <time>2017-10-01T12:32:59Z</time>
      </trkpt>
      <trkpt lat="41.097350" lon="-3.668967">
        <ele>1767.0</ele>
        <time>2017-10-01T12:33:00Z</time>
      </trkpt>
      <trkpt lat="41.097383" lon="-3.668950">
        <ele>1766.0</ele>
        <time>2017-10-01T12:33:01Z</time>
      </trkpt>
      <trkpt lat="41.097417" lon="-3.668933">
        <ele>1765.0</ele>
        <time>2017-10-01T12:33:02Z</time>
      </trkpt>
      <trkpt lat="41.097450" lon="-3.668917">
        <ele>1764.0</ele>
        <time>2017-10-01T12:33:03Z</time>
      </trkpt>
      <trkpt lat="41.097500" lon="-3.668917">
        <ele>1764.0</ele>
        <time>2017-10-01T12:33:04Z</time>
      </trkpt>
      <trkpt lat="41.097533" lon="-3.668900">
        <ele>1763.0</ele>
        <time>2017-10-01T12:33:05Z</time>
      </trkpt>
      <trkpt lat="41.097567" lon="-3.668883">
        <ele>1763.0</ele>
        <time>2017-10-01T12:33:06Z</time>
      </trkpt>
      <trkpt lat="41.097600" lon="-3.668867">
        <ele>1763.0</ele>
        <time>2017-10-01T12:33:07Z</time>
      </trkpt>
      <trkpt lat="41.097633" lon="-3.668850">
        <ele>1763.0</ele>
        <time>2017-10-01T12:33:08Z</time>
      </trkpt>
      <trkpt lat="41.097667" lon="-3.668833">
        <ele>1763.0</ele>
        <time>2017-10-01T12:33:09Z</time>
      </trkpt>
      <trkpt lat="41.097700" lon="-3.668817">
        <ele>1762.0</ele>
        <time>2017-10-01T12:33:10Z</time>
      </trkpt>
      <trkpt lat="41.097733" lon="-3.668783">
        <ele>1762.0</ele>
        <time>2017-10-01T12:33:11Z</time>
      </trkpt>
      <trkpt lat="41.097767" lon="-3.668767">
        <ele>1761.0</ele>
        <time>2017-10-01T12:33:12Z</time>
      </trkpt>
      <trkpt lat="41.097817" lon="-3.668733">
        <ele>1760.0</ele>
        <time>2017-10-01T12:33:13Z</time>
      </trkpt>
      <trkpt lat="41.097850" lon="-3.668700">
        <ele>1760.0</ele>
        <time>2017-10-01T12:33:14Z</time>
      </trkpt>
      <trkpt lat="41.097900" lon="-3.668667">
        <ele>1759.0</ele>
        <time>2017-10-01T12:33:15Z</time>
      </trkpt>
      <trkpt lat="41.097933" lon="-3.668633">
        <ele>1759.0</ele>
        <time>2017-10-01T12:33:16Z</time>
      </trkpt>
      <trkpt lat="41.097967" lon="-3.668583">
        <ele>1758.0</ele>
        <time>2017-10-01T12:33:17Z</time>
      </trkpt>
      <trkpt lat="41.098017" lon="-3.668550">
        <ele>1758.0</ele>
        <time>2017-10-01T12:33:18Z</time>
      </trkpt>
      <trkpt lat="41.098050" lon="-3.668517">
        <ele>1757.0</ele>
        <time>2017-10-01T12:33:19Z</time>
      </trkpt>
      <trkpt lat="41.098100" lon="-3.668467">
        <ele>1758.0</ele>
        <time>2017-10-01T12:33:20Z</time>
      </trkpt>
      <trkpt lat="41.098133" lon="-3.668433">
        <ele>1759.0</ele>
        <time>2017-10-01T12:33:21Z</time>
      </trkpt>
      <trkpt lat="41.098150" lon="-3.668400">
        <ele>1760.0</ele>
        <time>2017-10-01T12:33:22Z</time>
      </trkpt>
      <trkpt lat="41.098183" lon="-3.668350">
        <ele>1760.0</ele>
        <time>2017-10-01T12:33:23Z</time>
      </trkpt>
      <trkpt lat="41.098200" lon="-3.668300">
        <ele>1759.0</ele>
        <time>2017-10-01T12:33:24Z</time>
      </trkpt>
      <trkpt lat="41.098233" lon="-3.668250">
        <ele>1757.0</ele>
        <time>2017-10-01T12:33:25Z</time>
      </trkpt>
      <trkpt lat="41.098283" lon="-3.668217">
        <ele>1756.0</ele>
        <time>2017-10-01T12:33:26Z</time>
      </trkpt>
      <trkpt lat="41.098333" lon="-3.668200">
        <ele>1756.0</ele>
        <time>2017-10-01T12:33:27Z</time>
      </trkpt>
      <trkpt lat="41.098367" lon="-3.668167">
        <ele>1756.0</ele>
        <time>2017-10-01T12:33:28Z</time>
      </trkpt>
      <trkpt lat="41.098417" lon="-3.668117">
        <ele>1755.0</ele>
        <time>2017-10-01T12:33:29Z</time>
      </trkpt>
      <trkpt lat="41.098467" lon="-3.668067">
        <ele>1755.0</ele>
        <time>2017-10-01T12:33:30Z</time>
      </trkpt>
      <trkpt lat="41.098517" lon="-3.668033">
        <ele>1756.0</ele>
        <time>2017-10-01T12:33:31Z</time>
      </trkpt>
      <trkpt lat="41.098567" lon="-3.668000">
        <ele>1758.0</ele>
        <time>2017-10-01T12:33:32Z</time>
      </trkpt>
      <trkpt lat="41.098600" lon="-3.667967">
        <ele>1760.0</ele>
        <time>2017-10-01T12:33:33Z</time>
      </trkpt>
      <trkpt lat="41.098617" lon="-3.667950">
        <ele>1762.0</ele>
        <time>2017-10-01T12:33:34Z</time>
      </trkpt>
      <trkpt lat="41.098633" lon="-3.667917">
        <ele>1763.0</ele>
        <time>2017-10-01T12:33:35Z</time>
      </trkpt>
      <trkpt lat="41.098667" lon="-3.667883">
        <ele>1763.0</ele>
        <time>2017-10-01T12:33:36Z</time>
      </trkpt>
      <trkpt lat="41.098717" lon="-3.667850">
        <ele>1764.0</ele>
        <time>2017-10-01T12:33:37Z</time>
      </trkpt>
      <trkpt lat="41.098767" lon="-3.667817">
        <ele>1766.0</ele>
        <time>2017-10-01T12:33:38Z</time>
      </trkpt>
      <trkpt lat="41.098800" lon="-3.667783">
        <ele>1768.0</ele>
        <time>2017-10-01T12:33:39Z</time>
      </trkpt>
      <trkpt lat="41.098833" lon="-3.667767">
        <ele>1771.0</ele>
        <time>2017-10-01T12:33:40Z</time>
      </trkpt>
      <trkpt lat="41.098850" lon="-3.667767">
        <ele>1773.0</ele>
        <time>2017-10-01T12:33:41Z</time>
      </trkpt>
      <trkpt lat="41.098883" lon="-3.667767">
        <ele>1774.0</ele>
        <time>2017-10-01T12:33:42Z</time>
      </trkpt>
      <trkpt lat="41.098917" lon="-3.667750">
        <ele>1773.0</ele>
        <time>2017-10-01T12:33:43Z</time>
      </trkpt>
      <trkpt lat="41.098967" lon="-3.667750">
        <ele>1773.0</ele>
        <time>2017-10-01T12:33:44Z</time>
      </trkpt>
      <trkpt lat="41.099017" lon="-3.667733">
        <ele>1774.0</ele>
        <time>2017-10-01T12:33:45Z</time>
      </trkpt>
      <trkpt lat="41.099067" lon="-3.667733">
        <ele>1776.0</ele>
        <time>2017-10-01T12:33:46Z</time>
      </trkpt>
      <trkpt lat="41.099117" lon="-3.667717">
        <ele>1778.0</ele>
        <time>2017-10-01T12:33:47Z</time>
      </trkpt>
      <trkpt lat="41.099150" lon="-3.667683">
        <ele>1780.0</ele>
        <time>2017-10-01T12:33:48Z</time>
      </trkpt>
      <trkpt lat="41.099167" lon="-3.667667">
        <ele>1781.0</ele>
        <time>2017-10-01T12:33:49Z</time>
      </trkpt>
      <trkpt lat="41.099200" lon="-3.667633">
        <ele>1781.0</ele>
        <time>2017-10-01T12:33:50Z</time>
      </trkpt>
      <trkpt lat="41.099233" lon="-3.667633">
        <ele>1779.0</ele>
        <time>2017-10-01T12:33:51Z</time>
      </trkpt>
      <trkpt lat="41.099283" lon="-3.667633">
        <ele>1778.0</ele>
        <time>2017-10-01T12:33:52Z</time>
      </trkpt>
      <trkpt lat="41.099333" lon="-3.667633">
        <ele>1778.0</ele>
        <time>2017-10-01T12:33:53Z</time>
      </trkpt>
      <trkpt lat="41.099383" lon="-3.667633">
        <ele>1779.0</ele>
        <time>2017-10-01T12:33:54Z</time>
      </trkpt>
      <trkpt lat="41.099417" lon="-3.667617">
        <ele>1779.0</ele>
        <time>2017-10-01T12:33:55Z</time>
      </trkpt>
      <trkpt lat="41.099467" lon="-3.667567">
        <ele>1778.0</ele>
        <time>2017-10-01T12:33:56Z</time>
      </trkpt>
      <trkpt lat="41.099500" lon="-3.667517">
        <ele>1777.0</ele>
        <time>2017-10-01T12:33:57Z</time>
      </trkpt>
      <trkpt lat="41.099567" lon="-3.667467">
        <ele>1776.0</ele>
        <time>2017-10-01T12:33:58Z</time>
      </trkpt>
      <trkpt lat="41.099617" lon="-3.667400">
        <ele>1775.0</ele>
        <time>2017-10-01T12:33:59Z</time>
      </trkpt>
      <trkpt lat="41.099667" lon="-3.667333">
        <ele>1775.0</ele>
        <time>2017-10-01T12:34:00Z</time>
      </trkpt>
      <trkpt lat="41.099717" lon="-3.667267">
        <ele>1776.0</ele>
        <time>2017-10-01T12:34:01Z</time>
      </trkpt>
      <trkpt lat="41.099767" lon="-3.667200">
        <ele>1775.0</ele>
        <time>2017-10-01T12:34:02Z</time>
      </trkpt>
      <trkpt lat="41.099817" lon="-3.667150">
        <ele>1774.0</ele>
        <time>2017-10-01T12:34:03Z</time>
      </trkpt>
      <trkpt lat="41.099867" lon="-3.667083">
        <ele>1773.0</ele>
        <time>2017-10-01T12:34:04Z</time>
      </trkpt>
      <trkpt lat="41.099933" lon="-3.667017">
        <ele>1772.0</ele>
        <time>2017-10-01T12:34:05Z</time>
      </trkpt>
      <trkpt lat="41.099983" lon="-3.666950">
        <ele>1771.0</ele>
        <time>2017-10-01T12:34:06Z</time>
      </trkpt>
      <trkpt lat="41.100033" lon="-3.666883">
        <ele>1771.0</ele>
        <time>2017-10-01T12:34:07Z</time>
      </trkpt>
      <trkpt lat="41.100083" lon="-3.666817">
        <ele>1771.0</ele>
        <time>2017-10-01T12:34:08Z</time>
      </trkpt>
      <trkpt lat="41.100133" lon="-3.666767">
        <ele>1771.0</ele>
        <time>2017-10-01T12:34:09Z</time>
      </trkpt>
      <trkpt lat="41.100183" lon="-3.666700">
        <ele>1770.0</ele>
        <time>2017-10-01T12:34:10Z</time>
      </trkpt>
      <trkpt lat="41.100217" lon="-3.666633">
        <ele>1768.0</ele>
        <time>2017-10-01T12:34:11Z</time>
      </trkpt>
      <trkpt lat="41.100267" lon="-3.666567">
        <ele>1767.0</ele>
        <time>2017-10-01T12:34:12Z</time>
      </trkpt>
      <trkpt lat="41.100333" lon="-3.666483">
        <ele>1766.0</ele>
        <time>2017-10-01T12:34:13Z</time>
      </trkpt>
      <trkpt lat="41.100383" lon="-3.666400">
        <ele>1765.0</ele>
        <time>2017-10-01T12:34:14Z</time>
      </trkpt>
      <trkpt lat="41.100433" lon="-3.666317">
        <ele>1765.0</ele>
        <time>2017-10-01T12:34:15Z</time>
      </trkpt>
      <trkpt lat="41.100467" lon="-3.666233">
        <ele>1765.0</ele>
        <time>2017-10-01T12:34:16Z</time>
      </trkpt>
      <trkpt lat="41.100517" lon="-3.666167">
        <ele>1765.0</ele>
        <time>2017-10-01T12:34:17Z</time>
      </trkpt>
      <trkpt lat="41.100550" lon="-3.666100">
        <ele>1764.0</ele>
        <time>2017-10-01T12:34:18Z</time>
      </trkpt>
      <trkpt lat="41.100600" lon="-3.666033">
        <ele>1763.0</ele>
        <time>2017-10-01T12:34:19Z</time>
      </trkpt>
      <trkpt lat="41.100633" lon="-3.665967">
        <ele>1762.0</ele>
        <time>2017-10-01T12:34:20Z</time>
      </trkpt>
      <trkpt lat="41.100683" lon="-3.665883">
        <ele>1762.0</ele>
        <time>2017-10-01T12:34:21Z</time>
      </trkpt>
      <trkpt lat="41.100717" lon="-3.665817">
        <ele>1761.0</ele>
        <time>2017-10-01T12:34:22Z</time>
      </trkpt>
      <trkpt lat="41.100767" lon="-3.665733">
        <ele>1761.0</ele>
        <time>2017-10-01T12:34:23Z</time>
      </trkpt>
      <trkpt lat="41.100800" lon="-3.665667">
        <ele>1761.0</ele>
        <time>2017-10-01T12:34:24Z</time>
      </trkpt>
      <trkpt lat="41.100833" lon="-3.665600">
        <ele>1760.0</ele>
        <time>2017-10-01T12:34:25Z</time>
      </trkpt>
      <trkpt lat="41.100867" lon="-3.665517">
        <ele>1759.0</ele>
        <time>2017-10-01T12:34:26Z</time>
      </trkpt>
      <trkpt lat="41.100917" lon="-3.665450">
        <ele>1758.0</ele>
        <time>2017-10-01T12:34:27Z</time>
      </trkpt>
      <trkpt lat="41.100950" lon="-3.665367">
        <ele>1757.0</ele>
        <time>2017-10-01T12:34:28Z</time>
      </trkpt>
      <trkpt lat="41.101000" lon="-3.665283">
        <ele>1757.0</ele>
        <time>2017-10-01T12:34:29Z</time>
      </trkpt>
      <trkpt lat="41.101033" lon="-3.665200">
        <ele>1757.0</ele>
        <time>2017-10-01T12:34:30Z</time>
      </trkpt>
      <trkpt lat="41.101067" lon="-3.665150">
        <ele>1757.0</ele>
        <time>2017-10-01T12:34:31Z</time>
      </trkpt>
      <trkpt lat="41.101117" lon="-3.665083">
        <ele>1756.0</ele>
        <time>2017-10-01T12:34:32Z</time>
      </trkpt>
      <trkpt lat="41.101150" lon="-3.665033">
        <ele>1756.0</ele>
        <time>2017-10-01T12:34:33Z</time>
      </trkpt>
      <trkpt lat="41.101200" lon="-3.664967">
        <ele>1756.0</ele>
        <time>2017-10-01T12:34:34Z</time>
      </trkpt>
      <trkpt lat="41.101233" lon="-3.664900">
        <ele>1756.0</ele>
        <time>2017-10-01T12:34:35Z</time>
      </trkpt>
      <trkpt lat="41.101267" lon="-3.664833">
        <ele>1756.0</ele>
        <time>2017-10-01T12:34:36Z</time>
      </trkpt>
      <trkpt lat="41.101300" lon="-3.664767">
        <ele>1757.0</ele>
        <time>2017-10-01T12:34:37Z</time>
      </trkpt>
      <trkpt lat="41.101333" lon="-3.664683">
        <ele>1757.0</ele>
        <time>2017-10-01T12:34:38Z</time>
      </trkpt>
      <trkpt lat="41.101367" lon="-3.664617">
        <ele>1756.0</ele>
        <time>2017-10-01T12:34:39Z</time>
      </trkpt>
      <trkpt lat="41.101400" lon="-3.664550">
        <ele>1755.0</ele>
        <time>2017-10-01T12:34:40Z</time>
      </trkpt>
      <trkpt lat="41.101433" lon="-3.664467">
        <ele>1754.0</ele>
        <time>2017-10-01T12:34:41Z</time>
      </trkpt>
      <trkpt lat="41.101483" lon="-3.664400">
        <ele>1753.0</ele>
        <time>2017-10-01T12:34:42Z</time>
      </trkpt>
      <trkpt lat="41.101533" lon="-3.664333">
        <ele>1753.0</ele>
        <time>2017-10-01T12:34:43Z</time>
      </trkpt>
      <trkpt lat="41.101583" lon="-3.664283">
        <ele>1752.0</ele>
        <time>2017-10-01T12:34:44Z</time>
      </trkpt>
      <trkpt lat="41.101617" lon="-3.664233">
        <ele>1752.0</ele>
        <time>2017-10-01T12:34:45Z</time>
      </trkpt>
      <trkpt lat="41.101667" lon="-3.664200">
        <ele>1751.0</ele>
        <time>2017-10-01T12:34:46Z</time>
      </trkpt>
      <trkpt lat="41.101717" lon="-3.664150">
        <ele>1751.0</ele>
        <time>2017-10-01T12:34:47Z</time>
      </trkpt>
      <trkpt lat="41.101767" lon="-3.664100">
        <ele>1751.0</ele>
        <time>2017-10-01T12:34:48Z</time>
      </trkpt>
      <trkpt lat="41.101817" lon="-3.664033">
        <ele>1752.0</ele>
        <time>2017-10-01T12:34:49Z</time>
      </trkpt>
      <trkpt lat="41.101867" lon="-3.663983">
        <ele>1752.0</ele>
        <time>2017-10-01T12:34:50Z</time>
      </trkpt>
      <trkpt lat="41.101900" lon="-3.663933">
        <ele>1753.0</ele>
        <time>2017-10-01T12:34:51Z</time>
      </trkpt>
      <trkpt lat="41.101933" lon="-3.663867">
        <ele>1752.0</ele>
        <time>2017-10-01T12:34:52Z</time>
      </trkpt>
      <trkpt lat="41.101983" lon="-3.663800">
        <ele>1751.0</ele>
        <time>2017-10-01T12:34:53Z</time>
      </trkpt>
      <trkpt lat="41.102033" lon="-3.663733">
        <ele>1751.0</ele>
        <time>2017-10-01T12:34:54Z</time>
      </trkpt>
      <trkpt lat="41.102083" lon="-3.663667">
        <ele>1751.0</ele>
        <time>2017-10-01T12:34:55Z</time>
      </trkpt>
      <trkpt lat="41.102133" lon="-3.663600">
        <ele>1751.0</ele>
        <time>2017-10-01T12:34:56Z</time>
      </trkpt>
      <trkpt lat="41.102183" lon="-3.663533">
        <ele>1752.0</ele>
        <time>2017-10-01T12:34:57Z</time>
      </trkpt>
      <trkpt lat="41.102217" lon="-3.663483">
        <ele>1752.0</ele>
        <time>2017-10-01T12:34:58Z</time>
      </trkpt>
      <trkpt lat="41.102267" lon="-3.663417">
        <ele>1752.0</ele>
        <time>2017-10-01T12:34:59Z</time>
      </trkpt>
      <trkpt lat="41.102300" lon="-3.663350">
        <ele>1752.0</ele>
        <time>2017-10-01T12:35:00Z</time>
      </trkpt>
      <trkpt lat="41.102350" lon="-3.663300">
        <ele>1750.0</ele>
        <time>2017-10-01T12:35:01Z</time>
      </trkpt>
      <trkpt lat="41.102400" lon="-3.663217">
        <ele>1749.0</ele>
        <time>2017-10-01T12:35:02Z</time>
      </trkpt>
      <trkpt lat="41.102450" lon="-3.663117">
        <ele>1748.0</ele>
        <time>2017-10-01T12:35:03Z</time>
      </trkpt>
      <trkpt lat="41.102483" lon="-3.663033">
        <ele>1748.0</ele>
        <time>2017-10-01T12:35:04Z</time>
      </trkpt>
      <trkpt lat="41.102533" lon="-3.662950">
        <ele>1747.0</ele>
        <time>2017-10-01T12:35:05Z</time>
      </trkpt>
      <trkpt lat="41.102583" lon="-3.662867">
        <ele>1747.0</ele>
        <time>2017-10-01T12:35:06Z</time>
      </trkpt>
      <trkpt lat="41.102617" lon="-3.662800">
        <ele>1746.0</ele>
        <time>2017-10-01T12:35:07Z</time>
      </trkpt>
      <trkpt lat="41.102667" lon="-3.662733">
        <ele>1745.0</ele>
        <time>2017-10-01T12:35:08Z</time>
      </trkpt>
      <trkpt lat="41.102717" lon="-3.662667">
        <ele>1743.0</ele>
        <time>2017-10-01T12:35:09Z</time>
      </trkpt>
      <trkpt lat="41.102767" lon="-3.662583">
        <ele>1742.0</ele>
        <time>2017-10-01T12:35:10Z</time>
      </trkpt>
      <trkpt lat="41.102817" lon="-3.662483">
        <ele>1742.0</ele>
        <time>2017-10-01T12:35:11Z</time>
      </trkpt>
      <trkpt lat="41.102850" lon="-3.662400">
        <ele>1742.0</ele>
        <time>2017-10-01T12:35:12Z</time>
      </trkpt>
      <trkpt lat="41.102900" lon="-3.662300">
        <ele>1742.0</ele>
        <time>2017-10-01T12:35:13Z</time>
      </trkpt>
      <trkpt lat="41.102950" lon="-3.662217">
        <ele>1742.0</ele>
        <time>2017-10-01T12:35:14Z</time>
      </trkpt>
      <trkpt lat="41.103000" lon="-3.662150">
        <ele>1741.0</ele>
        <time>2017-10-01T12:35:15Z</time>
      </trkpt>
      <trkpt lat="41.103050" lon="-3.662050">
        <ele>1741.0</ele>
        <time>2017-10-01T12:35:16Z</time>
      </trkpt>
      <trkpt lat="41.103083" lon="-3.661950">
        <ele>1740.0</ele>
        <time>2017-10-01T12:35:17Z</time>
      </trkpt>
      <trkpt lat="41.103133" lon="-3.661833">
        <ele>1740.0</ele>
        <time>2017-10-01T12:35:18Z</time>
      </trkpt>
      <trkpt lat="41.103183" lon="-3.661733">
        <ele>1741.0</ele>
        <time>2017-10-01T12:35:19Z</time>
      </trkpt>
      <trkpt lat="41.103233" lon="-3.661633">
        <ele>1741.0</ele>
        <time>2017-10-01T12:35:20Z</time>
      </trkpt>
      <trkpt lat="41.103283" lon="-3.661550">
        <ele>1741.0</ele>
        <time>2017-10-01T12:35:21Z</time>
      </trkpt>
      <trkpt lat="41.103317" lon="-3.661467">
        <ele>1741.0</ele>
        <time>2017-10-01T12:35:22Z</time>
      </trkpt>
      <trkpt lat="41.103367" lon="-3.661367">
        <ele>1741.0</ele>
        <time>2017-10-01T12:35:23Z</time>
      </trkpt>
      <trkpt lat="41.103417" lon="-3.661283">
        <ele>1741.0</ele>
        <time>2017-10-01T12:35:24Z</time>
      </trkpt>
      <trkpt lat="41.103450" lon="-3.661183">
        <ele>1740.0</ele>
        <time>2017-10-01T12:35:25Z</time>
      </trkpt>
      <trkpt lat="41.103500" lon="-3.661100">
        <ele>1740.0</ele>
        <time>2017-10-01T12:35:26Z</time>
      </trkpt>
      <trkpt lat="41.103550" lon="-3.661017">
        <ele>1740.0</ele>
        <time>2017-10-01T12:35:27Z</time>
      </trkpt>
      <trkpt lat="41.103600" lon="-3.660917">
        <ele>1740.0</ele>
        <time>2017-10-01T12:35:28Z</time>
      </trkpt>
      <trkpt lat="41.103650" lon="-3.660850">
        <ele>1740.0</ele>
        <time>2017-10-01T12:35:29Z</time>
      </trkpt>
      <trkpt lat="41.103683" lon="-3.660767">
        <ele>1741.0</ele>
        <time>2017-10-01T12:35:30Z</time>
      </trkpt>
      <trkpt lat="41.103733" lon="-3.660683">
        <ele>1741.0</ele>
        <time>2017-10-01T12:35:31Z</time>
      </trkpt>
      <trkpt lat="41.103783" lon="-3.660600">
        <ele>1741.0</ele>
        <time>2017-10-01T12:35:32Z</time>
      </trkpt>
      <trkpt lat="41.103833" lon="-3.660517">
        <ele>1742.0</ele>
        <time>2017-10-01T12:35:33Z</time>
      </trkpt>
      <trkpt lat="41.103867" lon="-3.660433">
        <ele>1742.0</ele>
        <time>2017-10-01T12:35:34Z</time>
      </trkpt>
      <trkpt lat="41.103917" lon="-3.660350">
        <ele>1742.0</ele>
        <time>2017-10-01T12:35:35Z</time>
      </trkpt>
      <trkpt lat="41.103950" lon="-3.660250">
        <ele>1742.0</ele>
        <time>2017-10-01T12:35:36Z</time>
      </trkpt>
      <trkpt lat="41.104000" lon="-3.660150">
        <ele>1741.0</ele>
        <time>2017-10-01T12:35:37Z</time>
      </trkpt>
      <trkpt lat="41.104050" lon="-3.660033">
        <ele>1741.0</ele>
        <time>2017-10-01T12:35:38Z</time>
      </trkpt>
      <trkpt lat="41.104100" lon="-3.659950">
        <ele>1741.0</ele>
        <time>2017-10-01T12:35:39Z</time>
      </trkpt>
      <trkpt lat="41.104133" lon="-3.659850">
        <ele>1741.0</ele>
        <time>2017-10-01T12:35:40Z</time>
      </trkpt>
      <trkpt lat="41.104183" lon="-3.659767">
        <ele>1741.0</ele>
        <time>2017-10-01T12:35:41Z</time>
      </trkpt>
      <trkpt lat="41.104233" lon="-3.659667">
        <ele>1741.0</ele>
        <time>2017-10-01T12:35:42Z</time>
      </trkpt>
      <trkpt lat="41.104283" lon="-3.659567">
        <ele>1741.0</ele>
        <time>2017-10-01T12:35:43Z</time>
      </trkpt>
      <trkpt lat="41.104333" lon="-3.659467">
        <ele>1740.0</ele>
        <time>2017-10-01T12:35:44Z</time>
      </trkpt>
      <trkpt lat="41.104383" lon="-3.659383">
        <ele>1740.0</ele>
        <time>2017-10-01T12:35:45Z</time>
      </trkpt>
      <trkpt lat="41.104450" lon="-3.659283">
        <ele>1741.0</ele>
        <time>2017-10-01T12:35:46Z</time>
      </trkpt>
      <trkpt lat="41.104500" lon="-3.659183">
        <ele>1741.0</ele>
        <time>2017-10-01T12:35:47Z</time>
      </trkpt>
      <trkpt lat="41.104550" lon="-3.659100">
        <ele>1742.0</ele>
        <time>2017-10-01T12:35:48Z</time>
      </trkpt>
      <trkpt lat="41.104600" lon="-3.659000">
        <ele>1742.0</ele>
        <time>2017-10-01T12:35:49Z</time>
      </trkpt>
      <trkpt lat="41.104650" lon="-3.658900">
        <ele>1742.0</ele>
        <time>2017-10-01T12:35:50Z</time>
      </trkpt>
      <trkpt lat="41.104700" lon="-3.658783">
        <ele>1743.0</ele>
        <time>2017-10-01T12:35:51Z</time>
      </trkpt>
      <trkpt lat="41.104750" lon="-3.658700">
        <ele>1744.0</ele>
        <time>2017-10-01T12:35:52Z</time>
      </trkpt>
      <trkpt lat="41.104800" lon="-3.658617">
        <ele>1745.0</ele>
        <time>2017-10-01T12:35:53Z</time>
      </trkpt>
      <trkpt lat="41.104833" lon="-3.658533">
        <ele>1745.0</ele>
        <time>2017-10-01T12:35:54Z</time>
      </trkpt>
      <trkpt lat="41.104883" lon="-3.658450">
        <ele>1746.0</ele>
        <time>2017-10-01T12:35:55Z</time>
      </trkpt>
      <trkpt lat="41.104933" lon="-3.658367">
        <ele>1746.0</ele>
        <time>2017-10-01T12:35:56Z</time>
      </trkpt>
      <trkpt lat="41.104967" lon="-3.658283">
        <ele>1746.0</ele>
        <time>2017-10-01T12:35:57Z</time>
      </trkpt>
      <trkpt lat="41.105017" lon="-3.658200">
        <ele>1746.0</ele>
        <time>2017-10-01T12:35:58Z</time>
      </trkpt>
      <trkpt lat="41.105067" lon="-3.658117">
        <ele>1747.0</ele>
        <time>2017-10-01T12:35:59Z</time>
      </trkpt>
      <trkpt lat="41.105100" lon="-3.658033">
        <ele>1748.0</ele>
        <time>2017-10-01T12:36:00Z</time>
      </trkpt>
      <trkpt lat="41.105150" lon="-3.657967">
        <ele>1749.0</ele>
        <time>2017-10-01T12:36:01Z</time>
      </trkpt>
      <trkpt lat="41.105183" lon="-3.657917">
        <ele>1750.0</ele>
        <time>2017-10-01T12:36:02Z</time>
      </trkpt>
      <trkpt lat="41.105233" lon="-3.657867">
        <ele>1750.0</ele>
        <time>2017-10-01T12:36:03Z</time>
      </trkpt>
      <trkpt lat="41.105283" lon="-3.657817">
        <ele>1751.0</ele>
        <time>2017-10-01T12:36:04Z</time>
      </trkpt>
      <trkpt lat="41.105317" lon="-3.657783">
        <ele>1753.0</ele>
        <time>2017-10-01T12:36:05Z</time>
      </trkpt>
      <trkpt lat="41.105350" lon="-3.657733">
        <ele>1753.0</ele>
        <time>2017-10-01T12:36:06Z</time>
      </trkpt>
      <trkpt lat="41.105400" lon="-3.657683">
        <ele>1753.0</ele>
        <time>2017-10-01T12:36:07Z</time>
      </trkpt>
      <trkpt lat="41.105433" lon="-3.657617">
        <ele>1753.0</ele>
        <time>2017-10-01T12:36:08Z</time>
      </trkpt>
      <trkpt lat="41.105483" lon="-3.657567">
        <ele>1753.0</ele>
        <time>2017-10-01T12:36:09Z</time>
      </trkpt>
      <trkpt lat="41.105533" lon="-3.657500">
        <ele>1754.0</ele>
        <time>2017-10-01T12:36:10Z</time>
      </trkpt>
      <trkpt lat="41.105583" lon="-3.657450">
        <ele>1755.0</ele>
        <time>2017-10-01T12:36:11Z</time>
      </trkpt>
      <trkpt lat="41.105633" lon="-3.657383">
        <ele>1757.0</ele>
        <time>2017-10-01T12:36:12Z</time>
      </trkpt>
      <trkpt lat="41.105683" lon="-3.657333">
        <ele>1758.0</ele>
        <time>2017-10-01T12:36:13Z</time>
      </trkpt>
      <trkpt lat="41.105717" lon="-3.657283">
        <ele>1760.0</ele>
        <time>2017-10-01T12:36:14Z</time>
      </trkpt>
      <trkpt lat="41.105767" lon="-3.657233">
        <ele>1761.0</ele>
        <time>2017-10-01T12:36:15Z</time>
      </trkpt>
      <trkpt lat="41.105800" lon="-3.657183">
        <ele>1762.0</ele>
        <time>2017-10-01T12:36:16Z</time>
      </trkpt>
      <trkpt lat="41.105850" lon="-3.657117">
        <ele>1762.0</ele>
        <time>2017-10-01T12:36:17Z</time>
      </trkpt>
      <trkpt lat="41.105900" lon="-3.657050">
        <ele>1762.0</ele>
        <time>2017-10-01T12:36:18Z</time>
      </trkpt>
      <trkpt lat="41.105950" lon="-3.656983">
        <ele>1764.0</ele>
        <time>2017-10-01T12:36:19Z</time>
      </trkpt>
      <trkpt lat="41.106000" lon="-3.656917">
        <ele>1767.0</ele>
        <time>2017-10-01T12:36:20Z</time>
      </trkpt>
      <trkpt lat="41.106050" lon="-3.656883">
        <ele>1771.0</ele>
        <time>2017-10-01T12:36:21Z</time>
      </trkpt>
      <trkpt lat="41.106083" lon="-3.656850">
        <ele>1774.0</ele>
        <time>2017-10-01T12:36:22Z</time>
      </trkpt>
      <trkpt lat="41.106117" lon="-3.656817">
        <ele>1777.0</ele>
        <time>2017-10-01T12:36:23Z</time>
      </trkpt>
      <trkpt lat="41.106150" lon="-3.656767">
        <ele>1779.0</ele>
        <time>2017-10-01T12:36:24Z</time>
      </trkpt>
      <trkpt lat="41.106183" lon="-3.656717">
        <ele>1779.0</ele>
        <time>2017-10-01T12:36:25Z</time>
      </trkpt>
      <trkpt lat="41.106233" lon="-3.656667">
        <ele>1781.0</ele>
        <time>2017-10-01T12:36:26Z</time>
      </trkpt>
      <trkpt lat="41.106300" lon="-3.656600">
        <ele>1783.0</ele>
        <time>2017-10-01T12:36:27Z</time>
      </trkpt>
      <trkpt lat="41.106333" lon="-3.656550">
        <ele>1789.0</ele>
        <time>2017-10-01T12:36:28Z</time>
      </trkpt>
      <trkpt lat="41.106367" lon="-3.656500">
        <ele>1795.0</ele>
        <time>2017-10-01T12:36:29Z</time>
      </trkpt>
      <trkpt lat="41.106367" lon="-3.656433">
        <ele>1800.0</ele>
        <time>2017-10-01T12:36:30Z</time>
      </trkpt>
      <trkpt lat="41.106350" lon="-3.656367">
        <ele>1802.0</ele>
        <time>2017-10-01T12:36:31Z</time>
      </trkpt>
      <trkpt lat="41.106350" lon="-3.656317">
        <ele>1803.0</ele>
        <time>2017-10-01T12:36:32Z</time>
      </trkpt>
      <trkpt lat="41.106383" lon="-3.656267">
        <ele>1803.0</ele>
        <time>2017-10-01T12:36:33Z</time>
      </trkpt>
      <trkpt lat="41.106433" lon="-3.656250">
        <ele>1804.0</ele>
        <time>2017-10-01T12:36:34Z</time>
      </trkpt>
      <trkpt lat="41.106500" lon="-3.656267">
        <ele>1806.0</ele>
        <time>2017-10-01T12:36:35Z</time>
      </trkpt>
      <trkpt lat="41.106533" lon="-3.656267">
        <ele>1811.0</ele>
        <time>2017-10-01T12:36:36Z</time>
      </trkpt>
      <trkpt lat="41.106550" lon="-3.656267">
        <ele>1816.0</ele>
        <time>2017-10-01T12:36:37Z</time>
      </trkpt>
      <trkpt lat="41.106567" lon="-3.656267">
        <ele>1819.0</ele>
        <time>2017-10-01T12:36:38Z</time>
      </trkpt>
      <trkpt lat="41.106583" lon="-3.656283">
        <ele>1821.0</ele>
        <time>2017-10-01T12:36:39Z</time>
      </trkpt>
      <trkpt lat="41.106600" lon="-3.656283">
        <ele>1822.0</ele>
        <time>2017-10-01T12:36:40Z</time>
      </trkpt>
      <trkpt lat="41.106633" lon="-3.656300">
        <ele>1822.0</ele>
        <time>2017-10-01T12:36:41Z</time>
      </trkpt>
      <trkpt lat="41.106667" lon="-3.656300">
        <ele>1824.0</ele>
        <time>2017-10-01T12:36:42Z</time>
      </trkpt>
      <trkpt lat="41.106683" lon="-3.656300">
        <ele>1825.0</ele>
        <time>2017-10-01T12:36:43Z</time>
      </trkpt>
      <trkpt lat="41.106683" lon="-3.656300">
        <ele>1826.0</ele>
        <time>2017-10-01T12:36:44Z</time>
      </trkpt>
      <trkpt lat="41.106700" lon="-3.656300">
        <ele>1825.0</ele>
        <time>2017-10-01T12:36:45Z</time>
      </trkpt>
      <trkpt lat="41.106733" lon="-3.656317">
        <ele>1824.0</ele>
        <time>2017-10-01T12:36:46Z</time>
      </trkpt>
      <trkpt lat="41.106767" lon="-3.656333">
        <ele>1823.0</ele>
        <time>2017-10-01T12:36:47Z</time>
      </trkpt>
      <trkpt lat="41.106800" lon="-3.656350">
        <ele>1824.0</ele>
        <time>2017-10-01T12:36:48Z</time>
      </trkpt>
      <trkpt lat="41.106833" lon="-3.656367">
        <ele>1826.0</ele>
        <time>2017-10-01T12:36:49Z</time>
      </trkpt>
      <trkpt lat="41.106850" lon="-3.656367">
        <ele>1828.0</ele>
        <time>2017-10-01T12:36:50Z</time>
      </trkpt>
      <trkpt lat="41.106867" lon="-3.656367">
        <ele>1830.0</ele>
        <time>2017-10-01T12:36:51Z</time>
      </trkpt>
      <trkpt lat="41.106883" lon="-3.656367">
        <ele>1831.0</ele>
        <time>2017-10-01T12:36:52Z</time>
      </trkpt>
      <trkpt lat="41.106900" lon="-3.656367">
        <ele>1830.0</ele>
        <time>2017-10-01T12:36:53Z</time>
      </trkpt>
      <trkpt lat="41.106917" lon="-3.656367">
        <ele>1830.0</ele>
        <time>2017-10-01T12:36:54Z</time>
      </trkpt>
      <trkpt lat="41.106950" lon="-3.656367">
        <ele>1830.0</ele>
        <time>2017-10-01T12:36:55Z</time>
      </trkpt>
      <trkpt lat="41.106967" lon="-3.656350">
        <ele>1830.0</ele>
        <time>2017-10-01T12:36:56Z</time>
      </trkpt>
      <trkpt lat="41.107000" lon="-3.656333">
        <ele>1830.0</ele>
        <time>2017-10-01T12:36:57Z</time>
      </trkpt>
      <trkpt lat="41.107033" lon="-3.656300">
        <ele>1830.0</ele>
        <time>2017-10-01T12:36:58Z</time>
      </trkpt>
      <trkpt lat="41.107067" lon="-3.656283">
        <ele>1831.0</ele>
        <time>2017-10-01T12:36:59Z</time>
      </trkpt>
      <trkpt lat="41.107100" lon="-3.656250">
        <ele>1832.0</ele>
        <time>2017-10-01T12:37:00Z</time>
      </trkpt>
      <trkpt lat="41.107133" lon="-3.656217">
        <ele>1833.0</ele>
        <time>2017-10-01T12:37:01Z</time>
      </trkpt>
      <trkpt lat="41.107167" lon="-3.656200">
        <ele>1834.0</ele>
        <time>2017-10-01T12:37:02Z</time>
      </trkpt>
      <trkpt lat="41.107183" lon="-3.656183">
        <ele>1835.0</ele>
        <time>2017-10-01T12:37:03Z</time>
      </trkpt>
      <trkpt lat="41.107217" lon="-3.656167">
        <ele>1835.0</ele>
        <time>2017-10-01T12:37:04Z</time>
      </trkpt>
      <trkpt lat="41.107233" lon="-3.656133">
        <ele>1835.0</ele>
        <time>2017-10-01T12:37:05Z</time>
      </trkpt>
      <trkpt lat="41.107250" lon="-3.656117">
        <ele>1833.0</ele>
        <time>2017-10-01T12:37:06Z</time>
      </trkpt>
      <trkpt lat="41.107283" lon="-3.656100">
        <ele>1831.0</ele>
        <time>2017-10-01T12:37:07Z</time>
      </trkpt>
      <trkpt lat="41.107333" lon="-3.656083">
        <ele>1830.0</ele>
        <time>2017-10-01T12:37:08Z</time>
      </trkpt>
      <trkpt lat="41.107367" lon="-3.656067">
        <ele>1830.0</ele>
        <time>2017-10-01T12:37:09Z</time>
      </trkpt>
      <trkpt lat="41.107400" lon="-3.656050">
        <ele>1830.0</ele>
        <time>2017-10-01T12:37:10Z</time>
      </trkpt>
      <trkpt lat="41.107433" lon="-3.656033">
        <ele>1830.0</ele>
        <time>2017-10-01T12:37:11Z</time>
      </trkpt>
      <trkpt lat="41.107467" lon="-3.656033">
        <ele>1831.0</ele>
        <time>2017-10-01T12:37:12Z</time>
      </trkpt>
      <trkpt lat="41.107500" lon="-3.656017">
        <ele>1830.0</ele>
        <time>2017-10-01T12:37:13Z</time>
      </trkpt>
      <trkpt lat="41.107533" lon="-3.656017">
        <ele>1830.0</ele>
        <time>2017-10-01T12:37:14Z</time>
      </trkpt>
      <trkpt lat="41.107567" lon="-3.656000">
        <ele>1829.0</ele>
        <time>2017-10-01T12:37:15Z</time>
      </trkpt>
      <trkpt lat="41.107600" lon="-3.656000">
        <ele>1829.0</ele>
        <time>2017-10-01T12:37:16Z</time>
      </trkpt>
      <trkpt lat="41.107633" lon="-3.656000">
        <ele>1829.0</ele>
        <time>2017-10-01T12:37:17Z</time>
      </trkpt>
      <trkpt lat="41.107667" lon="-3.656000">
        <ele>1829.0</ele>
        <time>2017-10-01T12:37:18Z</time>
      </trkpt>
      <trkpt lat="41.107717" lon="-3.656000">
        <ele>1829.0</ele>
        <time>2017-10-01T12:37:19Z</time>
      </trkpt>
      <trkpt lat="41.107750" lon="-3.656000">
        <ele>1830.0</ele>
        <time>2017-10-01T12:37:20Z</time>
      </trkpt>
      <trkpt lat="41.107783" lon="-3.656000">
        <ele>1830.0</ele>
        <time>2017-10-01T12:37:21Z</time>
      </trkpt>
      <trkpt lat="41.107817" lon="-3.655983">
        <ele>1830.0</ele>
        <time>2017-10-01T12:37:22Z</time>
      </trkpt>
      <trkpt lat="41.107867" lon="-3.655983">
        <ele>1831.0</ele>
        <time>2017-10-01T12:37:23Z</time>
      </trkpt>
      <trkpt lat="41.107900" lon="-3.655967">
        <ele>1832.0</ele>
        <time>2017-10-01T12:37:24Z</time>
      </trkpt>
      <trkpt lat="41.107933" lon="-3.655967">
        <ele>1833.0</ele>
        <time>2017-10-01T12:37:25Z</time>
      </trkpt>
      <trkpt lat="41.107950" lon="-3.655950">
        <ele>1834.0</ele>
        <time>2017-10-01T12:37:26Z</time>
      </trkpt>
      <trkpt lat="41.107983" lon="-3.655917">
        <ele>1835.0</ele>
        <time>2017-10-01T12:37:27Z</time>
      </trkpt>
      <trkpt lat="41.108033" lon="-3.655900">
        <ele>1835.0</ele>
        <time>2017-10-01T12:37:28Z</time>
      </trkpt>
      <trkpt lat="41.108083" lon="-3.655883">
        <ele>1836.0</ele>
        <time>2017-10-01T12:37:29Z</time>
      </trkpt>
      <trkpt lat="41.108117" lon="-3.655900">
        <ele>1837.0</ele>
        <time>2017-10-01T12:37:30Z</time>
      </trkpt>
      <trkpt lat="41.108150" lon="-3.655900">
        <ele>1839.0</ele>
        <time>2017-10-01T12:37:31Z</time>
      </trkpt>
      <trkpt lat="41.108200" lon="-3.655900">
        <ele>1841.0</ele>
        <time>2017-10-01T12:37:32Z</time>
      </trkpt>
      <trkpt lat="41.108233" lon="-3.655883">
        <ele>1843.0</ele>
        <time>2017-10-01T12:37:33Z</time>
      </trkpt>
      <trkpt lat="41.108250" lon="-3.655883">
        <ele>1844.0</ele>
        <time>2017-10-01T12:37:34Z</time>
      </trkpt>
      <trkpt lat="41.108283" lon="-3.655867">
        <ele>1845.0</ele>
        <time>2017-10-01T12:37:35Z</time>
      </trkpt>
      <trkpt lat="41.108317" lon="-3.655850">
        <ele>1846.0</ele>
        <time>2017-10-01T12:37:36Z</time>
      </trkpt>
      <trkpt lat="41.108350" lon="-3.655833">
        <ele>1846.0</ele>
        <time>2017-10-01T12:37:37Z</time>
      </trkpt>
      <trkpt lat="41.108383" lon="-3.655800">
        <ele>1846.0</ele>
        <time>2017-10-01T12:37:38Z</time>
      </trkpt>
      <trkpt lat="41.108417" lon="-3.655783">
        <ele>1845.0</ele>
        <time>2017-10-01T12:37:39Z</time>
      </trkpt>
      <trkpt lat="41.108467" lon="-3.655767">
        <ele>1845.0</ele>
        <time>2017-10-01T12:37:40Z</time>
      </trkpt>
      <trkpt lat="41.108500" lon="-3.655750">
        <ele>1845.0</ele>
        <time>2017-10-01T12:37:41Z</time>
      </trkpt>
      <trkpt lat="41.108550" lon="-3.655733">
        <ele>1845.0</ele>
        <time>2017-10-01T12:37:42Z</time>
      </trkpt>
      <trkpt lat="41.108617" lon="-3.655717">
        <ele>1845.0</ele>
        <time>2017-10-01T12:37:43Z</time>
      </trkpt>
      <trkpt lat="41.108667" lon="-3.655683">
        <ele>1846.0</ele>
        <time>2017-10-01T12:37:44Z</time>
      </trkpt>
      <trkpt lat="41.108700" lon="-3.655667">
        <ele>1847.0</ele>
        <time>2017-10-01T12:37:45Z</time>
      </trkpt>
      <trkpt lat="41.108750" lon="-3.655650">
        <ele>1848.0</ele>
        <time>2017-10-01T12:37:46Z</time>
      </trkpt>
      <trkpt lat="41.108767" lon="-3.655633">
        <ele>1849.0</ele>
        <time>2017-10-01T12:37:47Z</time>
      </trkpt>
      <trkpt lat="41.108800" lon="-3.655617">
        <ele>1849.0</ele>
        <time>2017-10-01T12:37:48Z</time>
      </trkpt>
      <trkpt lat="41.108833" lon="-3.655583">
        <ele>1848.0</ele>
        <time>2017-10-01T12:37:49Z</time>
      </trkpt>
      <trkpt lat="41.108883" lon="-3.655567">
        <ele>1847.0</ele>
        <time>2017-10-01T12:37:50Z</time>
      </trkpt>
      <trkpt lat="41.108917" lon="-3.655533">
        <ele>1847.0</ele>
        <time>2017-10-01T12:37:51Z</time>
      </trkpt>
      <trkpt lat="41.108950" lon="-3.655500">
        <ele>1848.0</ele>
        <time>2017-10-01T12:37:52Z</time>
      </trkpt>
      <trkpt lat="41.108983" lon="-3.655450">
        <ele>1848.0</ele>
        <time>2017-10-01T12:37:53Z</time>
      </trkpt>
      <trkpt lat="41.109033" lon="-3.655433">
        <ele>1847.0</ele>
        <time>2017-10-01T12:37:54Z</time>
      </trkpt>
      <trkpt lat="41.109083" lon="-3.655433">
        <ele>1848.0</ele>
        <time>2017-10-01T12:37:55Z</time>
      </trkpt>
      <trkpt lat="41.109133" lon="-3.655433">
        <ele>1849.0</ele>
        <time>2017-10-01T12:37:56Z</time>
      </trkpt>
      <trkpt lat="41.109183" lon="-3.655450">
        <ele>1850.0</ele>
        <time>2017-10-01T12:37:57Z</time>
      </trkpt>
      <trkpt lat="41.109217" lon="-3.655450">
        <ele>1852.0</ele>
        <time>2017-10-01T12:37:58Z</time>
      </trkpt>
      <trkpt lat="41.109250" lon="-3.655433">
        <ele>1854.0</ele>
        <time>2017-10-01T12:37:59Z</time>
      </trkpt>
      <trkpt lat="41.109283" lon="-3.655417">
        <ele>1854.0</ele>
        <time>2017-10-01T12:38:00Z</time>
      </trkpt>
      <trkpt lat="41.109333" lon="-3.655383">
        <ele>1854.0</ele>
        <time>2017-10-01T12:38:01Z</time>
      </trkpt>
      <trkpt lat="41.109400" lon="-3.655350">
        <ele>1855.0</ele>
        <time>2017-10-01T12:38:02Z</time>
      </trkpt>
      <trkpt lat="41.109450" lon="-3.655333">
        <ele>1856.0</ele>
        <time>2017-10-01T12:38:03Z</time>
      </trkpt>
      <trkpt lat="41.109483" lon="-3.655333">
        <ele>1858.0</ele>
        <time>2017-10-01T12:38:04Z</time>
      </trkpt>
      <trkpt lat="41.109517" lon="-3.655317">
        <ele>1860.0</ele>
        <time>2017-10-01T12:38:05Z</time>
      </trkpt>
      <trkpt lat="41.109550" lon="-3.655300">
        <ele>1861.0</ele>
        <time>2017-10-01T12:38:06Z</time>
      </trkpt>
      <trkpt lat="41.109567" lon="-3.655283">
        <ele>1862.0</ele>
        <time>2017-10-01T12:38:07Z</time>
      </trkpt>
      <trkpt lat="41.109600" lon="-3.655283">
        <ele>1863.0</ele>
        <time>2017-10-01T12:38:08Z</time>
      </trkpt>
      <trkpt lat="41.109617" lon="-3.655283">
        <ele>1863.0</ele>
        <time>2017-10-01T12:38:09Z</time>
      </trkpt>
      <trkpt lat="41.109633" lon="-3.655283">
        <ele>1862.0</ele>
        <time>2017-10-01T12:38:10Z</time>
      </trkpt>
      <trkpt lat="41.109650" lon="-3.655283">
        <ele>1861.0</ele>
        <time>2017-10-01T12:38:11Z</time>
      </trkpt>
      <trkpt lat="41.109667" lon="-3.655267">
        <ele>1860.0</ele>
        <time>2017-10-01T12:38:12Z</time>
      </trkpt>
      <trkpt lat="41.109683" lon="-3.655267">
        <ele>1858.0</ele>
        <time>2017-10-01T12:38:13Z</time>
      </trkpt>
      <trkpt lat="41.109717" lon="-3.655267">
        <ele>1856.0</ele>
        <time>2017-10-01T12:38:14Z</time>
      </trkpt>
      <trkpt lat="41.109750" lon="-3.655250">
        <ele>1854.0</ele>
        <time>2017-10-01T12:38:15Z</time>
      </trkpt>
      <trkpt lat="41.109800" lon="-3.655217">
        <ele>1852.0</ele>
        <time>2017-10-01T12:38:16Z</time>
      </trkpt>
      <trkpt lat="41.109833" lon="-3.655200">
        <ele>1852.0</ele>
        <time>2017-10-01T12:38:17Z</time>
      </trkpt>
      <trkpt lat="41.109867" lon="-3.655167">
        <ele>1851.0</ele>
        <time>2017-10-01T12:38:18Z</time>
      </trkpt>
      <trkpt lat="41.109883" lon="-3.655150">
        <ele>1851.0</ele>
        <time>2017-10-01T12:38:19Z</time>
      </trkpt>
      <trkpt lat="41.109917" lon="-3.655133">
        <ele>1850.0</ele>
        <time>2017-10-01T12:38:20Z</time>
      </trkpt>
      <trkpt lat="41.109950" lon="-3.655117">
        <ele>1849.0</ele>
        <time>2017-10-01T12:38:21Z</time>
      </trkpt>
      <trkpt lat="41.109983" lon="-3.655100">
        <ele>1849.0</ele>
        <time>2017-10-01T12:38:22Z</time>
      </trkpt>
      <trkpt lat="41.110017" lon="-3.655083">
        <ele>1848.0</ele>
        <time>2017-10-01T12:38:23Z</time>
      </trkpt>
      <trkpt lat="41.110050" lon="-3.655050">
        <ele>1848.0</ele>
        <time>2017-10-01T12:38:24Z</time>
      </trkpt>
      <trkpt lat="41.110083" lon="-3.655033">
        <ele>1848.0</ele>
        <time>2017-10-01T12:38:25Z</time>
      </trkpt>
      <trkpt lat="41.110117" lon="-3.655017">
        <ele>1848.0</ele>
        <time>2017-10-01T12:38:26Z</time>
      </trkpt>
      <trkpt lat="41.110150" lon="-3.655000">
        <ele>1848.0</ele>
        <time>2017-10-01T12:38:27Z</time>
      </trkpt>
      <trkpt lat="41.110200" lon="-3.655000">
        <ele>1849.0</ele>
        <time>2017-10-01T12:38:28Z</time>
      </trkpt>
      <trkpt lat="41.110233" lon="-3.654983">
        <ele>1850.0</ele>
        <time>2017-10-01T12:38:29Z</time>
      </trkpt>
      <trkpt lat="41.110267" lon="-3.655000">
        <ele>1851.0</ele>
        <time>2017-10-01T12:38:30Z</time>
      </trkpt>
      <trkpt lat="41.110300" lon="-3.655000">
        <ele>1853.0</ele>
        <time>2017-10-01T12:38:31Z</time>
      </trkpt>
      <trkpt lat="41.110333" lon="-3.654983">
        <ele>1855.0</ele>
        <time>2017-10-01T12:38:32Z</time>
      </trkpt>
      <trkpt lat="41.110367" lon="-3.654967">
        <ele>1857.0</ele>
        <time>2017-10-01T12:38:33Z</time>
      </trkpt>
      <trkpt lat="41.110400" lon="-3.654950">
        <ele>1859.0</ele>
        <time>2017-10-01T12:38:34Z</time>
      </trkpt>
      <trkpt lat="41.110433" lon="-3.654933">
        <ele>1860.0</ele>
        <time>2017-10-01T12:38:35Z</time>
      </trkpt>
      <trkpt lat="41.110450" lon="-3.654933">
        <ele>1861.0</ele>
        <time>2017-10-01T12:38:36Z</time>
      </trkpt>
      <trkpt lat="41.110483" lon="-3.654933">
        <ele>1863.0</ele>
        <time>2017-10-01T12:38:37Z</time>
      </trkpt>
      <trkpt lat="41.110517" lon="-3.654917">
        <ele>1864.0</ele>
        <time>2017-10-01T12:38:38Z</time>
      </trkpt>
      <trkpt lat="41.110550" lon="-3.654900">
        <ele>1865.0</ele>
        <time>2017-10-01T12:38:39Z</time>
      </trkpt>
      <trkpt lat="41.110583" lon="-3.654883">
        <ele>1866.0</ele>
        <time>2017-10-01T12:38:40Z</time>
      </trkpt>
      <trkpt lat="41.110617" lon="-3.654883">
        <ele>1866.0</ele>
        <time>2017-10-01T12:38:41Z</time>
      </trkpt>
      <trkpt lat="41.110650" lon="-3.654867">
        <ele>1866.0</ele>
        <time>2017-10-01T12:38:42Z</time>
      </trkpt>
      <trkpt lat="41.110683" lon="-3.654867">
        <ele>1867.0</ele>
        <time>2017-10-01T12:38:43Z</time>
      </trkpt>
      <trkpt lat="41.110717" lon="-3.654850">
        <ele>1867.0</ele>
        <time>2017-10-01T12:38:44Z</time>
      </trkpt>
      <trkpt lat="41.110767" lon="-3.654850">
        <ele>1868.0</ele>
        <time>2017-10-01T12:38:45Z</time>
      </trkpt>
      <trkpt lat="41.110800" lon="-3.654833">
        <ele>1869.0</ele>
        <time>2017-10-01T12:38:46Z</time>
      </trkpt>
      <trkpt lat="41.110817" lon="-3.654817">
        <ele>1869.0</ele>
        <time>2017-10-01T12:38:47Z</time>
      </trkpt>
      <trkpt lat="41.110850" lon="-3.654800">
        <ele>1869.0</ele>
        <time>2017-10-01T12:38:48Z</time>
      </trkpt>
      <trkpt lat="41.110883" lon="-3.654783">
        <ele>1868.0</ele>
        <time>2017-10-01T12:38:49Z</time>
      </trkpt>
      <trkpt lat="41.110917" lon="-3.654767">
        <ele>1866.0</ele>
        <time>2017-10-01T12:38:50Z</time>
      </trkpt>
      <trkpt lat="41.110983" lon="-3.654767">
        <ele>1866.0</ele>
        <time>2017-10-01T12:38:51Z</time>
      </trkpt>
      <trkpt lat="41.111033" lon="-3.654750">
        <ele>1866.0</ele>
        <time>2017-10-01T12:38:52Z</time>
      </trkpt>
      <trkpt lat="41.111083" lon="-3.654717">
        <ele>1867.0</ele>
        <time>2017-10-01T12:38:53Z</time>
      </trkpt>
      <trkpt lat="41.111117" lon="-3.654700">
        <ele>1868.0</ele>
        <time>2017-10-01T12:38:54Z</time>
      </trkpt>
      <trkpt lat="41.111167" lon="-3.654683">
        <ele>1867.0</ele>
        <time>2017-10-01T12:38:55Z</time>
      </trkpt>
      <trkpt lat="41.111217" lon="-3.654667">
        <ele>1866.0</ele>
        <time>2017-10-01T12:38:56Z</time>
      </trkpt>
      <trkpt lat="41.111267" lon="-3.654633">
        <ele>1866.0</ele>
        <time>2017-10-01T12:38:57Z</time>
      </trkpt>
      <trkpt lat="41.111317" lon="-3.654617">
        <ele>1866.0</ele>
        <time>2017-10-01T12:38:58Z</time>
      </trkpt>
      <trkpt lat="41.111350" lon="-3.654600">
        <ele>1866.0</ele>
        <time>2017-10-01T12:38:59Z</time>
      </trkpt>
      <trkpt lat="41.111400" lon="-3.654600">
        <ele>1866.0</ele>
        <time>2017-10-01T12:39:00Z</time>
      </trkpt>
      <trkpt lat="41.111433" lon="-3.654583">
        <ele>1866.0</ele>
        <time>2017-10-01T12:39:01Z</time>
      </trkpt>
      <trkpt lat="41.111467" lon="-3.654567">
        <ele>1866.0</ele>
        <time>2017-10-01T12:39:02Z</time>
      </trkpt>
      <trkpt lat="41.111500" lon="-3.654533">
        <ele>1865.0</ele>
        <time>2017-10-01T12:39:03Z</time>
      </trkpt>
      <trkpt lat="41.111533" lon="-3.654517">
        <ele>1863.0</ele>
        <time>2017-10-01T12:39:04Z</time>
      </trkpt>
      <trkpt lat="41.111567" lon="-3.654483">
        <ele>1862.0</ele>
        <time>2017-10-01T12:39:05Z</time>
      </trkpt>
      <trkpt lat="41.111617" lon="-3.654467">
        <ele>1861.0</ele>
        <time>2017-10-01T12:39:06Z</time>
      </trkpt>
      <trkpt lat="41.111667" lon="-3.654450">
        <ele>1860.0</ele>
        <time>2017-10-01T12:39:07Z</time>
      </trkpt>
      <trkpt lat="41.111700" lon="-3.654433">
        <ele>1860.0</ele>
        <time>2017-10-01T12:39:08Z</time>
      </trkpt>
      <trkpt lat="41.111733" lon="-3.654433">
        <ele>1859.0</ele>
        <time>2017-10-01T12:39:09Z</time>
      </trkpt>
      <trkpt lat="41.111783" lon="-3.654417">
        <ele>1859.0</ele>
        <time>2017-10-01T12:39:10Z</time>
      </trkpt>
      <trkpt lat="41.111833" lon="-3.654400">
        <ele>1859.0</ele>
        <time>2017-10-01T12:39:11Z</time>
      </trkpt>
      <trkpt lat="41.111883" lon="-3.654383">
        <ele>1859.0</ele>
        <time>2017-10-01T12:39:12Z</time>
      </trkpt>
      <trkpt lat="41.111933" lon="-3.654367">
        <ele>1859.0</ele>
        <time>2017-10-01T12:39:13Z</time>
      </trkpt>
      <trkpt lat="41.111967" lon="-3.654350">
        <ele>1860.0</ele>
        <time>2017-10-01T12:39:14Z</time>
      </trkpt>
      <trkpt lat="41.112017" lon="-3.654333">
        <ele>1860.0</ele>
        <time>2017-10-01T12:39:15Z</time>
      </trkpt>
      <trkpt lat="41.112050" lon="-3.654317">
        <ele>1860.0</ele>
        <time>2017-10-01T12:39:16Z</time>
      </trkpt>
      <trkpt lat="41.112100" lon="-3.654283">
        <ele>1859.0</ele>
        <time>2017-10-01T12:39:17Z</time>
      </trkpt>
      <trkpt lat="41.112150" lon="-3.654250">
        <ele>1859.0</ele>
        <time>2017-10-01T12:39:18Z</time>
      </trkpt>
      <trkpt lat="41.112200" lon="-3.654217">
        <ele>1860.0</ele>
        <time>2017-10-01T12:39:19Z</time>
      </trkpt>
      <trkpt lat="41.112250" lon="-3.654217">
        <ele>1861.0</ele>
        <time>2017-10-01T12:39:20Z</time>
      </trkpt>
      <trkpt lat="41.112267" lon="-3.654217">
        <ele>1861.0</ele>
        <time>2017-10-01T12:39:21Z</time>
      </trkpt>
      <trkpt lat="41.112283" lon="-3.654217">
        <ele>1862.0</ele>
        <time>2017-10-01T12:39:22Z</time>
      </trkpt>
      <trkpt lat="41.112317" lon="-3.654217">
        <ele>1861.0</ele>
        <time>2017-10-01T12:39:23Z</time>
      </trkpt>
      <trkpt lat="41.112367" lon="-3.654217">
        <ele>1860.0</ele>
        <time>2017-10-01T12:39:24Z</time>
      </trkpt>
      <trkpt lat="41.112400" lon="-3.654200">
        <ele>1859.0</ele>
        <time>2017-10-01T12:39:25Z</time>
      </trkpt>
      <trkpt lat="41.112433" lon="-3.654183">
        <ele>1859.0</ele>
        <time>2017-10-01T12:39:26Z</time>
      </trkpt>
      <trkpt lat="41.112467" lon="-3.654167">
        <ele>1858.0</ele>
        <time>2017-10-01T12:39:27Z</time>
      </trkpt>
      <trkpt lat="41.112517" lon="-3.654150">
        <ele>1857.0</ele>
        <time>2017-10-01T12:39:28Z</time>
      </trkpt>
      <trkpt lat="41.112550" lon="-3.654117">
        <ele>1856.0</ele>
        <time>2017-10-01T12:39:29Z</time>
      </trkpt>
      <trkpt lat="41.112600" lon="-3.654083">
        <ele>1854.0</ele>
        <time>2017-10-01T12:39:30Z</time>
      </trkpt>
      <trkpt lat="41.112633" lon="-3.654050">
        <ele>1853.0</ele>
        <time>2017-10-01T12:39:31Z</time>
      </trkpt>
      <trkpt lat="41.112683" lon="-3.654017">
        <ele>1853.0</ele>
        <time>2017-10-01T12:39:32Z</time>
      </trkpt>
      <trkpt lat="41.112733" lon="-3.653983">
        <ele>1853.0</ele>
        <time>2017-10-01T12:39:33Z</time>
      </trkpt>
      <trkpt lat="41.112767" lon="-3.653967">
        <ele>1852.0</ele>
        <time>2017-10-01T12:39:34Z</time>
      </trkpt>
      <trkpt lat="41.112817" lon="-3.653950">
        <ele>1852.0</ele>
        <time>2017-10-01T12:39:35Z</time>
      </trkpt>
      <trkpt lat="41.112850" lon="-3.653950">
        <ele>1851.0</ele>
        <time>2017-10-01T12:39:36Z</time>
      </trkpt>
      <trkpt lat="41.112883" lon="-3.653933">
        <ele>1851.0</ele>
        <time>2017-10-01T12:39:37Z</time>
      </trkpt>
      <trkpt lat="41.112933" lon="-3.653900">
        <ele>1851.0</ele>
        <time>2017-10-01T12:39:38Z</time>
      </trkpt>
      <trkpt lat="41.112983" lon="-3.653883">
        <ele>1851.0</ele>
        <time>2017-10-01T12:39:39Z</time>
      </trkpt>
      <trkpt lat="41.113017" lon="-3.653867">
        <ele>1851.0</ele>
        <time>2017-10-01T12:39:40Z</time>
      </trkpt>
      <trkpt lat="41.113067" lon="-3.653850">
        <ele>1851.0</ele>
        <time>2017-10-01T12:39:41Z</time>
      </trkpt>
      <trkpt lat="41.113117" lon="-3.653817">
        <ele>1850.0</ele>
        <time>2017-10-01T12:39:42Z</time>
      </trkpt>
      <trkpt lat="41.113150" lon="-3.653783">
        <ele>1849.0</ele>
        <time>2017-10-01T12:39:43Z</time>
      </trkpt>
      <trkpt lat="41.113200" lon="-3.653750">
        <ele>1849.0</ele>
        <time>2017-10-01T12:39:44Z</time>
      </trkpt>
      <trkpt lat="41.113233" lon="-3.653733">
        <ele>1850.0</ele>
        <time>2017-10-01T12:39:45Z</time>
      </trkpt>
      <trkpt lat="41.113267" lon="-3.653717">
        <ele>1850.0</ele>
        <time>2017-10-01T12:39:46Z</time>
      </trkpt>
      <trkpt lat="41.113300" lon="-3.653683">
        <ele>1849.0</ele>
        <time>2017-10-01T12:39:47Z</time>
      </trkpt>
      <trkpt lat="41.113317" lon="-3.653650">
        <ele>1847.0</ele>
        <time>2017-10-01T12:39:48Z</time>
      </trkpt>
      <trkpt lat="41.113367" lon="-3.653600">
        <ele>1845.0</ele>
        <time>2017-10-01T12:39:49Z</time>
      </trkpt>
      <trkpt lat="41.113417" lon="-3.653567">
        <ele>1843.0</ele>
        <time>2017-10-01T12:39:50Z</time>
      </trkpt>
      <trkpt lat="41.113450" lon="-3.653550">
        <ele>1842.0</ele>
        <time>2017-10-01T12:39:51Z</time>
      </trkpt>
      <trkpt lat="41.113483" lon="-3.653550">
        <ele>1842.0</ele>
        <time>2017-10-01T12:39:52Z</time>
      </trkpt>
      <trkpt lat="41.113517" lon="-3.653550">
        <ele>1842.0</ele>
        <time>2017-10-01T12:39:53Z</time>
      </trkpt>
      <trkpt lat="41.113533" lon="-3.653550">
        <ele>1841.0</ele>
        <time>2017-10-01T12:39:54Z</time>
      </trkpt>
      <trkpt lat="41.113567" lon="-3.653550">
        <ele>1839.0</ele>
        <time>2017-10-01T12:39:55Z</time>
      </trkpt>
      <trkpt lat="41.113617" lon="-3.653550">
        <ele>1838.0</ele>
        <time>2017-10-01T12:39:56Z</time>
      </trkpt>
      <trkpt lat="41.113650" lon="-3.653550">
        <ele>1836.0</ele>
        <time>2017-10-01T12:39:57Z</time>
      </trkpt>
      <trkpt lat="41.113700" lon="-3.653550">
        <ele>1835.0</ele>
        <time>2017-10-01T12:39:58Z</time>
      </trkpt>
      <trkpt lat="41.113767" lon="-3.653533">
        <ele>1834.0</ele>
        <time>2017-10-01T12:39:59Z</time>
      </trkpt>
      <trkpt lat="41.113817" lon="-3.653517">
        <ele>1834.0</ele>
        <time>2017-10-01T12:40:00Z</time>
      </trkpt>
      <trkpt lat="41.113883" lon="-3.653483">
        <ele>1835.0</ele>
        <time>2017-10-01T12:40:01Z</time>
      </trkpt>
      <trkpt lat="41.113933" lon="-3.653467">
        <ele>1837.0</ele>
        <time>2017-10-01T12:40:02Z</time>
      </trkpt>
      <trkpt lat="41.113983" lon="-3.653450">
        <ele>1838.0</ele>
        <time>2017-10-01T12:40:03Z</time>
      </trkpt>
      <trkpt lat="41.114017" lon="-3.653450">
        <ele>1839.0</ele>
        <time>2017-10-01T12:40:04Z</time>
      </trkpt>
      <trkpt lat="41.114067" lon="-3.653433">
        <ele>1839.0</ele>
        <time>2017-10-01T12:40:05Z</time>
      </trkpt>
      <trkpt lat="41.114117" lon="-3.653400">
        <ele>1838.0</ele>
        <time>2017-10-01T12:40:06Z</time>
      </trkpt>
      <trkpt lat="41.114183" lon="-3.653367">
        <ele>1838.0</ele>
        <time>2017-10-01T12:40:07Z</time>
      </trkpt>
      <trkpt lat="41.114233" lon="-3.653350">
        <ele>1839.0</ele>
        <time>2017-10-01T12:40:08Z</time>
      </trkpt>
      <trkpt lat="41.114267" lon="-3.653333">
        <ele>1841.0</ele>
        <time>2017-10-01T12:40:09Z</time>
      </trkpt>
      <trkpt lat="41.114300" lon="-3.653333">
        <ele>1842.0</ele>
        <time>2017-10-01T12:40:10Z</time>
      </trkpt>
      <trkpt lat="41.114350" lon="-3.653300">
        <ele>1841.0</ele>
        <time>2017-10-01T12:40:11Z</time>
      </trkpt>
      <trkpt lat="41.114400" lon="-3.653283">
        <ele>1840.0</ele>
        <time>2017-10-01T12:40:12Z</time>
      </trkpt>
      <trkpt lat="41.114450" lon="-3.653233">
        <ele>1838.0</ele>
        <time>2017-10-01T12:40:13Z</time>
      </trkpt>
      <trkpt lat="41.114517" lon="-3.653183">
        <ele>1838.0</ele>
        <time>2017-10-01T12:40:14Z</time>
      </trkpt>
      <trkpt lat="41.114567" lon="-3.653133">
        <ele>1839.0</ele>
        <time>2017-10-01T12:40:15Z</time>
      </trkpt>
      <trkpt lat="41.114600" lon="-3.653067">
        <ele>1841.0</ele>
        <time>2017-10-01T12:40:16Z</time>
      </trkpt>
      <trkpt lat="41.114617" lon="-3.653017">
        <ele>1841.0</ele>
        <time>2017-10-01T12:40:17Z</time>
      </trkpt>
      <trkpt lat="41.114650" lon="-3.652967">
        <ele>1840.0</ele>
        <time>2017-10-01T12:40:18Z</time>
      </trkpt>
      <trkpt lat="41.114683" lon="-3.652917">
        <ele>1838.0</ele>
        <time>2017-10-01T12:40:19Z</time>
      </trkpt>
      <trkpt lat="41.114750" lon="-3.652883">
        <ele>1837.0</ele>
        <time>2017-10-01T12:40:20Z</time>
      </trkpt>
      <trkpt lat="41.114817" lon="-3.652850">
        <ele>1837.0</ele>
        <time>2017-10-01T12:40:21Z</time>
      </trkpt>
      <trkpt lat="41.114867" lon="-3.652833">
        <ele>1838.0</ele>
        <time>2017-10-01T12:40:22Z</time>
      </trkpt>
      <trkpt lat="41.114900" lon="-3.652817">
        <ele>1841.0</ele>
        <time>2017-10-01T12:40:23Z</time>
      </trkpt>
      <trkpt lat="41.114933" lon="-3.652783">
        <ele>1842.0</ele>
        <time>2017-10-01T12:40:24Z</time>
      </trkpt>
      <trkpt lat="41.114950" lon="-3.652767">
        <ele>1842.0</ele>
        <time>2017-10-01T12:40:25Z</time>
      </trkpt>
      <trkpt lat="41.115000" lon="-3.652733">
        <ele>1841.0</ele>
        <time>2017-10-01T12:40:26Z</time>
      </trkpt>
      <trkpt lat="41.115050" lon="-3.652717">
        <ele>1840.0</ele>
        <time>2017-10-01T12:40:27Z</time>
      </trkpt>
      <trkpt lat="41.115100" lon="-3.652700">
        <ele>1839.0</ele>
        <time>2017-10-01T12:40:28Z</time>
      </trkpt>
      <trkpt lat="41.115150" lon="-3.652683">
        <ele>1839.0</ele>
        <time>2017-10-01T12:40:29Z</time>
      </trkpt>
      <trkpt lat="41.115200" lon="-3.652650">
        <ele>1840.0</ele>
        <time>2017-10-01T12:40:30Z</time>
      </trkpt>
      <trkpt lat="41.115233" lon="-3.652617">
        <ele>1840.0</ele>
        <time>2017-10-01T12:40:31Z</time>
      </trkpt>
      <trkpt lat="41.115267" lon="-3.652600">
        <ele>1840.0</ele>
        <time>2017-10-01T12:40:32Z</time>
      </trkpt>
      <trkpt lat="41.115317" lon="-3.652567">
        <ele>1839.0</ele>
        <time>2017-10-01T12:40:33Z</time>
      </trkpt>
      <trkpt lat="41.115367" lon="-3.652533">
        <ele>1838.0</ele>
        <time>2017-10-01T12:40:34Z</time>
      </trkpt>
      <trkpt lat="41.115417" lon="-3.652517">
        <ele>1837.0</ele>
        <time>2017-10-01T12:40:35Z</time>
      </trkpt>
      <trkpt lat="41.115467" lon="-3.652483">
        <ele>1836.0</ele>
        <time>2017-10-01T12:40:36Z</time>
      </trkpt>
      <trkpt lat="41.115517" lon="-3.652450">
        <ele>1836.0</ele>
        <time>2017-10-01T12:40:37Z</time>
      </trkpt>
      <trkpt lat="41.115550" lon="-3.652433">
        <ele>1836.0</ele>
        <time>2017-10-01T12:40:38Z</time>
      </trkpt>
      <trkpt lat="41.115600" lon="-3.652400">
        <ele>1836.0</ele>
        <time>2017-10-01T12:40:39Z</time>
      </trkpt>
      <trkpt lat="41.115633" lon="-3.652350">
        <ele>1836.0</ele>
        <time>2017-10-01T12:40:40Z</time>
      </trkpt>
      <trkpt lat="41.115667" lon="-3.652317">
        <ele>1835.0</ele>
        <time>2017-10-01T12:40:41Z</time>
      </trkpt>
      <trkpt lat="41.115717" lon="-3.652300">
        <ele>1834.0</ele>
        <time>2017-10-01T12:40:42Z</time>
      </trkpt>
      <trkpt lat="41.115750" lon="-3.652283">
        <ele>1833.0</ele>
        <time>2017-10-01T12:40:43Z</time>
      </trkpt>
      <trkpt lat="41.115800" lon="-3.652283">
        <ele>1832.0</ele>
        <time>2017-10-01T12:40:44Z</time>
      </trkpt>
      <trkpt lat="41.115867" lon="-3.652267">
        <ele>1832.0</ele>
        <time>2017-10-01T12:40:45Z</time>
      </trkpt>
      <trkpt lat="41.115917" lon="-3.652250">
        <ele>1832.0</ele>
        <time>2017-10-01T12:40:46Z</time>
      </trkpt>
      <trkpt lat="41.115967" lon="-3.652233">
        <ele>1832.0</ele>
        <time>2017-10-01T12:40:47Z</time>
      </trkpt>
      <trkpt lat="41.116017" lon="-3.652217">
        <ele>1832.0</ele>
        <time>2017-10-01T12:40:48Z</time>
      </trkpt>
      <trkpt lat="41.116067" lon="-3.652183">
        <ele>1832.0</ele>
        <time>2017-10-01T12:40:49Z</time>
      </trkpt>
      <trkpt lat="41.116100" lon="-3.652150">
        <ele>1832.0</ele>
        <time>2017-10-01T12:40:50Z</time>
      </trkpt>
      <trkpt lat="41.116150" lon="-3.652133">
        <ele>1831.0</ele>
        <time>2017-10-01T12:40:51Z</time>
      </trkpt>
      <trkpt lat="41.116200" lon="-3.652100">
        <ele>1829.0</ele>
        <time>2017-10-01T12:40:52Z</time>
      </trkpt>
      <trkpt lat="41.116250" lon="-3.652067">
        <ele>1827.0</ele>
        <time>2017-10-01T12:40:53Z</time>
      </trkpt>
      <trkpt lat="41.116300" lon="-3.652033">
        <ele>1825.0</ele>
        <time>2017-10-01T12:40:54Z</time>
      </trkpt>
      <trkpt lat="41.116333" lon="-3.652000">
        <ele>1824.0</ele>
        <time>2017-10-01T12:40:55Z</time>
      </trkpt>
      <trkpt lat="41.116383" lon="-3.651983">
        <ele>1823.0</ele>
        <time>2017-10-01T12:40:56Z</time>
      </trkpt>
      <trkpt lat="41.116433" lon="-3.651967">
        <ele>1823.0</ele>
        <time>2017-10-01T12:40:57Z</time>
      </trkpt>
      <trkpt lat="41.116467" lon="-3.651933">
        <ele>1822.0</ele>
        <time>2017-10-01T12:40:58Z</time>
      </trkpt>
      <trkpt lat="41.116517" lon="-3.651917">
        <ele>1822.0</ele>
        <time>2017-10-01T12:40:59Z</time>
      </trkpt>
      <trkpt lat="41.116550" lon="-3.651900">
        <ele>1821.0</ele>
        <time>2017-10-01T12:41:00Z</time>
      </trkpt>
      <trkpt lat="41.116600" lon="-3.651883">
        <ele>1820.0</ele>
        <time>2017-10-01T12:41:01Z</time>
      </trkpt>
      <trkpt lat="41.116650" lon="-3.651850">
        <ele>1820.0</ele>
        <time>2017-10-01T12:41:02Z</time>
      </trkpt>
      <trkpt lat="41.116683" lon="-3.651800">
        <ele>1819.0</ele>
        <time>2017-10-01T12:41:03Z</time>
      </trkpt>
      <trkpt lat="41.116733" lon="-3.651750">
        <ele>1818.0</ele>
        <time>2017-10-01T12:41:04Z</time>
      </trkpt>
      <trkpt lat="41.116783" lon="-3.651717">
        <ele>1816.0</ele>
        <time>2017-10-01T12:41:05Z</time>
      </trkpt>
      <trkpt lat="41.116833" lon="-3.651683">
        <ele>1814.0</ele>
        <time>2017-10-01T12:41:06Z</time>
      </trkpt>
      <trkpt lat="41.116900" lon="-3.651683">
        <ele>1813.0</ele>
        <time>2017-10-01T12:41:07Z</time>
      </trkpt>
      <trkpt lat="41.116950" lon="-3.651667">
        <ele>1812.0</ele>
        <time>2017-10-01T12:41:08Z</time>
      </trkpt>
      <trkpt lat="41.117000" lon="-3.651667">
        <ele>1811.0</ele>
        <time>2017-10-01T12:41:09Z</time>
      </trkpt>
      <trkpt lat="41.117033" lon="-3.651667">
        <ele>1810.0</ele>
        <time>2017-10-01T12:41:10Z</time>
      </trkpt>
      <trkpt lat="41.117083" lon="-3.651650">
        <ele>1810.0</ele>
        <time>2017-10-01T12:41:11Z</time>
      </trkpt>
      <trkpt lat="41.117133" lon="-3.651633">
        <ele>1810.0</ele>
        <time>2017-10-01T12:41:12Z</time>
      </trkpt>
      <trkpt lat="41.117183" lon="-3.651617">
        <ele>1810.0</ele>
        <time>2017-10-01T12:41:13Z</time>
      </trkpt>
      <trkpt lat="41.117233" lon="-3.651617">
        <ele>1810.0</ele>
        <time>2017-10-01T12:41:14Z</time>
      </trkpt>
      <trkpt lat="41.117283" lon="-3.651617">
        <ele>1810.0</ele>
        <time>2017-10-01T12:41:15Z</time>
      </trkpt>
      <trkpt lat="41.117350" lon="-3.651617">
        <ele>1811.0</ele>
        <time>2017-10-01T12:41:16Z</time>
      </trkpt>
      <trkpt lat="41.117400" lon="-3.651617">
        <ele>1812.0</ele>
        <time>2017-10-01T12:41:17Z</time>
      </trkpt>
      <trkpt lat="41.117450" lon="-3.651617">
        <ele>1814.0</ele>
        <time>2017-10-01T12:41:18Z</time>
      </trkpt>
      <trkpt lat="41.117500" lon="-3.651600">
        <ele>1815.0</ele>
        <time>2017-10-01T12:41:19Z</time>
      </trkpt>
      <trkpt lat="41.117550" lon="-3.651583">
        <ele>1816.0</ele>
        <time>2017-10-01T12:41:20Z</time>
      </trkpt>
      <trkpt lat="41.117600" lon="-3.651567">
        <ele>1815.0</ele>
        <time>2017-10-01T12:41:21Z</time>
      </trkpt>
      <trkpt lat="41.117650" lon="-3.651517">
        <ele>1813.0</ele>
        <time>2017-10-01T12:41:22Z</time>
      </trkpt>
      <trkpt lat="41.117717" lon="-3.651450">
        <ele>1811.0</ele>
        <time>2017-10-01T12:41:23Z</time>
      </trkpt>
      <trkpt lat="41.117783" lon="-3.651400">
        <ele>1810.0</ele>
        <time>2017-10-01T12:41:24Z</time>
      </trkpt>
      <trkpt lat="41.117850" lon="-3.651350">
        <ele>1810.0</ele>
        <time>2017-10-01T12:41:25Z</time>
      </trkpt>
      <trkpt lat="41.117900" lon="-3.651317">
        <ele>1811.0</ele>
        <time>2017-10-01T12:41:26Z</time>
      </trkpt>
      <trkpt lat="41.117950" lon="-3.651300">
        <ele>1811.0</ele>
        <time>2017-10-01T12:41:27Z</time>
      </trkpt>
      <trkpt lat="41.118000" lon="-3.651267">
        <ele>1812.0</ele>
        <time>2017-10-01T12:41:28Z</time>
      </trkpt>
      <trkpt lat="41.118033" lon="-3.651233">
        <ele>1813.0</ele>
        <time>2017-10-01T12:41:29Z</time>
      </trkpt>
      <trkpt lat="41.118067" lon="-3.651200">
        <ele>1813.0</ele>
        <time>2017-10-01T12:41:30Z</time>
      </trkpt>
      <trkpt lat="41.118117" lon="-3.651183">
        <ele>1813.0</ele>
        <time>2017-10-01T12:41:31Z</time>
      </trkpt>
      <trkpt lat="41.118167" lon="-3.651167">
        <ele>1813.0</ele>
        <time>2017-10-01T12:41:32Z</time>
      </trkpt>
      <trkpt lat="41.118200" lon="-3.651150">
        <ele>1814.0</ele>
        <time>2017-10-01T12:41:33Z</time>
      </trkpt>
      <trkpt lat="41.118250" lon="-3.651133">
        <ele>1815.0</ele>
        <time>2017-10-01T12:41:34Z</time>
      </trkpt>
      <trkpt lat="41.118283" lon="-3.651100">
        <ele>1816.0</ele>
        <time>2017-10-01T12:41:35Z</time>
      </trkpt>
      <trkpt lat="41.118317" lon="-3.651067">
        <ele>1817.0</ele>
        <time>2017-10-01T12:41:36Z</time>
      </trkpt>
      <trkpt lat="41.118350" lon="-3.651050">
        <ele>1817.0</ele>
        <time>2017-10-01T12:41:37Z</time>
      </trkpt>
      <trkpt lat="41.118400" lon="-3.651017">
        <ele>1816.0</ele>
        <time>2017-10-01T12:41:38Z</time>
      </trkpt>
      <trkpt lat="41.118450" lon="-3.651000">
        <ele>1816.0</ele>
        <time>2017-10-01T12:41:39Z</time>
      </trkpt>
      <trkpt lat="41.118500" lon="-3.650967">
        <ele>1817.0</ele>
        <time>2017-10-01T12:41:40Z</time>
      </trkpt>
      <trkpt lat="41.118533" lon="-3.650933">
        <ele>1818.0</ele>
        <time>2017-10-01T12:41:41Z</time>
      </trkpt>
      <trkpt lat="41.118583" lon="-3.650883">
        <ele>1818.0</ele>
        <time>2017-10-01T12:41:42Z</time>
      </trkpt>
      <trkpt lat="41.118617" lon="-3.650850">
        <ele>1817.0</ele>
        <time>2017-10-01T12:41:43Z</time>
      </trkpt>
      <trkpt lat="41.118650" lon="-3.650817">
        <ele>1816.0</ele>
        <time>2017-10-01T12:41:44Z</time>
      </trkpt>
      <trkpt lat="41.118700" lon="-3.650767">
        <ele>1815.0</ele>
        <time>2017-10-01T12:41:45Z</time>
      </trkpt>
      <trkpt lat="41.118733" lon="-3.650750">
        <ele>1814.0</ele>
        <time>2017-10-01T12:41:46Z</time>
      </trkpt>
      <trkpt lat="41.118767" lon="-3.650717">
        <ele>1813.0</ele>
        <time>2017-10-01T12:41:47Z</time>
      </trkpt>
      <trkpt lat="41.118800" lon="-3.650683">
        <ele>1811.0</ele>
        <time>2017-10-01T12:41:48Z</time>
      </trkpt>
      <trkpt lat="41.118850" lon="-3.650650">
        <ele>1810.0</ele>
        <time>2017-10-01T12:41:49Z</time>
      </trkpt>
      <trkpt lat="41.118883" lon="-3.650617">
        <ele>1809.0</ele>
        <time>2017-10-01T12:41:50Z</time>
      </trkpt>
      <trkpt lat="41.118933" lon="-3.650583">
        <ele>1808.0</ele>
        <time>2017-10-01T12:41:51Z</time>
      </trkpt>
      <trkpt lat="41.118983" lon="-3.650567">
        <ele>1808.0</ele>
        <time>2017-10-01T12:41:52Z</time>
      </trkpt>
      <trkpt lat="41.119017" lon="-3.650533">
        <ele>1809.0</ele>
        <time>2017-10-01T12:41:53Z</time>
      </trkpt>
      <trkpt lat="41.119033" lon="-3.650517">
        <ele>1810.0</ele>
        <time>2017-10-01T12:41:54Z</time>
      </trkpt>
      <trkpt lat="41.119050" lon="-3.650467">
        <ele>1811.0</ele>
        <time>2017-10-01T12:41:55Z</time>
      </trkpt>
      <trkpt lat="41.119083" lon="-3.650450">
        <ele>1810.0</ele>
        <time>2017-10-01T12:41:56Z</time>
      </trkpt>
      <trkpt lat="41.119117" lon="-3.650417">
        <ele>1809.0</ele>
        <time>2017-10-01T12:41:57Z</time>
      </trkpt>
      <trkpt lat="41.119150" lon="-3.650400">
        <ele>1809.0</ele>
        <time>2017-10-01T12:41:58Z</time>
      </trkpt>
      <trkpt lat="41.119200" lon="-3.650400">
        <ele>1810.0</ele>
        <time>2017-10-01T12:41:59Z</time>
      </trkpt>
      <trkpt lat="41.119233" lon="-3.650400">
        <ele>1811.0</ele>
        <time>2017-10-01T12:42:00Z</time>
      </trkpt>
      <trkpt lat="41.119250" lon="-3.650400">
        <ele>1812.0</ele>
        <time>2017-10-01T12:42:01Z</time>
      </trkpt>
      <trkpt lat="41.119300" lon="-3.650383">
        <ele>1812.0</ele>
        <time>2017-10-01T12:42:02Z</time>
      </trkpt>
      <trkpt lat="41.119333" lon="-3.650350">
        <ele>1810.0</ele>
        <time>2017-10-01T12:42:03Z</time>
      </trkpt>
      <trkpt lat="41.119400" lon="-3.650317">
        <ele>1810.0</ele>
        <time>2017-10-01T12:42:04Z</time>
      </trkpt>
      <trkpt lat="41.119433" lon="-3.650317">
        <ele>1812.0</ele>
        <time>2017-10-01T12:42:05Z</time>
      </trkpt>
      <trkpt lat="41.119483" lon="-3.650317">
        <ele>1814.0</ele>
        <time>2017-10-01T12:42:06Z</time>
      </trkpt>
      <trkpt lat="41.119500" lon="-3.650317">
        <ele>1815.0</ele>
        <time>2017-10-01T12:42:07Z</time>
      </trkpt>
      <trkpt lat="41.119533" lon="-3.650317">
        <ele>1816.0</ele>
        <time>2017-10-01T12:42:08Z</time>
      </trkpt>
      <trkpt lat="41.119550" lon="-3.650300">
        <ele>1815.0</ele>
        <time>2017-10-01T12:42:09Z</time>
      </trkpt>
      <trkpt lat="41.119600" lon="-3.650300">
        <ele>1815.0</ele>
        <time>2017-10-01T12:42:10Z</time>
      </trkpt>
      <trkpt lat="41.119650" lon="-3.650317">
        <ele>1815.0</ele>
        <time>2017-10-01T12:42:11Z</time>
      </trkpt>
      <trkpt lat="41.119700" lon="-3.650317">
        <ele>1816.0</ele>
        <time>2017-10-01T12:42:12Z</time>
      </trkpt>
      <trkpt lat="41.119750" lon="-3.650300">
        <ele>1817.0</ele>
        <time>2017-10-01T12:42:13Z</time>
      </trkpt>
      <trkpt lat="41.119783" lon="-3.650250">
        <ele>1818.0</ele>
        <time>2017-10-01T12:42:14Z</time>
      </trkpt>
      <trkpt lat="41.119833" lon="-3.650183">
        <ele>1819.0</ele>
        <time>2017-10-01T12:42:15Z</time>
      </trkpt>
      <trkpt lat="41.119867" lon="-3.650133">
        <ele>1819.0</ele>
        <time>2017-10-01T12:42:16Z</time>
      </trkpt>
      <trkpt lat="41.119900" lon="-3.650067">
        <ele>1819.0</ele>
        <time>2017-10-01T12:42:17Z</time>
      </trkpt>
      <trkpt lat="41.119950" lon="-3.650017">
        <ele>1818.0</ele>
        <time>2017-10-01T12:42:18Z</time>
      </trkpt>
      <trkpt lat="41.120017" lon="-3.649950">
        <ele>1817.0</ele>
        <time>2017-10-01T12:42:19Z</time>
      </trkpt>
      <trkpt lat="41.120067" lon="-3.649900">
        <ele>1817.0</ele>
        <time>2017-10-01T12:42:20Z</time>
      </trkpt>
      <trkpt lat="41.120117" lon="-3.649850">
        <ele>1816.0</ele>
        <time>2017-10-01T12:42:21Z</time>
      </trkpt>
      <trkpt lat="41.120167" lon="-3.649800">
        <ele>1816.0</ele>
        <time>2017-10-01T12:42:22Z</time>
      </trkpt>
      <trkpt lat="41.120217" lon="-3.649767">
        <ele>1815.0</ele>
        <time>2017-10-01T12:42:23Z</time>
      </trkpt>
      <trkpt lat="41.120250" lon="-3.649700">
        <ele>1814.0</ele>
        <time>2017-10-01T12:42:24Z</time>
      </trkpt>
      <trkpt lat="41.120300" lon="-3.649633">
        <ele>1812.0</ele>
        <time>2017-10-01T12:42:25Z</time>
      </trkpt>
      <trkpt lat="41.120367" lon="-3.649583">
        <ele>1811.0</ele>
        <time>2017-10-01T12:42:26Z</time>
      </trkpt>
      <trkpt lat="41.120417" lon="-3.649517">
        <ele>1811.0</ele>
        <time>2017-10-01T12:42:27Z</time>
      </trkpt>
      <trkpt lat="41.120467" lon="-3.649450">
        <ele>1811.0</ele>
        <time>2017-10-01T12:42:28Z</time>
      </trkpt>
      <trkpt lat="41.120500" lon="-3.649383">
        <ele>1811.0</ele>
        <time>2017-10-01T12:42:29Z</time>
      </trkpt>
      <trkpt lat="41.120550" lon="-3.649333">
        <ele>1811.0</ele>
        <time>2017-10-01T12:42:30Z</time>
      </trkpt>
      <trkpt lat="41.120600" lon="-3.649267">
        <ele>1810.0</ele>
        <time>2017-10-01T12:42:31Z</time>
      </trkpt>
      <trkpt lat="41.120650" lon="-3.649217">
        <ele>1809.0</ele>
        <time>2017-10-01T12:42:32Z</time>
      </trkpt>
      <trkpt lat="41.120700" lon="-3.649150">
        <ele>1808.0</ele>
        <time>2017-10-01T12:42:33Z</time>
      </trkpt>
      <trkpt lat="41.120750" lon="-3.649083">
        <ele>1807.0</ele>
        <time>2017-10-01T12:42:34Z</time>
      </trkpt>
      <trkpt lat="41.120800" lon="-3.649017">
        <ele>1807.0</ele>
        <time>2017-10-01T12:42:35Z</time>
      </trkpt>
      <trkpt lat="41.120867" lon="-3.648950">
        <ele>1806.0</ele>
        <time>2017-10-01T12:42:36Z</time>
      </trkpt>
      <trkpt lat="41.120917" lon="-3.648883">
        <ele>1806.0</ele>
        <time>2017-10-01T12:42:37Z</time>
      </trkpt>
      <trkpt lat="41.120983" lon="-3.648833">
        <ele>1805.0</ele>
        <time>2017-10-01T12:42:38Z</time>
      </trkpt>
      <trkpt lat="41.121033" lon="-3.648783">
        <ele>1805.0</ele>
        <time>2017-10-01T12:42:39Z</time>
      </trkpt>
      <trkpt lat="41.121083" lon="-3.648733">
        <ele>1805.0</ele>
        <time>2017-10-01T12:42:40Z</time>
      </trkpt>
      <trkpt lat="41.121133" lon="-3.648700">
        <ele>1806.0</ele>
        <time>2017-10-01T12:42:41Z</time>
      </trkpt>
      <trkpt lat="41.121183" lon="-3.648667">
        <ele>1805.0</ele>
        <time>2017-10-01T12:42:42Z</time>
      </trkpt>
      <trkpt lat="41.121233" lon="-3.648633">
        <ele>1804.0</ele>
        <time>2017-10-01T12:42:43Z</time>
      </trkpt>
      <trkpt lat="41.121283" lon="-3.648600">
        <ele>1803.0</ele>
        <time>2017-10-01T12:42:44Z</time>
      </trkpt>
      <trkpt lat="41.121333" lon="-3.648583">
        <ele>1802.0</ele>
        <time>2017-10-01T12:42:45Z</time>
      </trkpt>
      <trkpt lat="41.121400" lon="-3.648567">
        <ele>1803.0</ele>
        <time>2017-10-01T12:42:46Z</time>
      </trkpt>
      <trkpt lat="41.121450" lon="-3.648533">
        <ele>1804.0</ele>
        <time>2017-10-01T12:42:47Z</time>
      </trkpt>
      <trkpt lat="41.121500" lon="-3.648500">
        <ele>1804.0</ele>
        <time>2017-10-01T12:42:48Z</time>
      </trkpt>
      <trkpt lat="41.121533" lon="-3.648467">
        <ele>1804.0</ele>
        <time>2017-10-01T12:42:49Z</time>
      </trkpt>
      <trkpt lat="41.121583" lon="-3.648417">
        <ele>1803.0</ele>
        <time>2017-10-01T12:42:50Z</time>
      </trkpt>
      <trkpt lat="41.121650" lon="-3.648367">
        <ele>1801.0</ele>
        <time>2017-10-01T12:42:51Z</time>
      </trkpt>
      <trkpt lat="41.121700" lon="-3.648333">
        <ele>1800.0</ele>
        <time>2017-10-01T12:42:52Z</time>
      </trkpt>
      <trkpt lat="41.121783" lon="-3.648283">
        <ele>1799.0</ele>
        <time>2017-10-01T12:42:53Z</time>
      </trkpt>
      <trkpt lat="41.121833" lon="-3.648233">
        <ele>1799.0</ele>
        <time>2017-10-01T12:42:54Z</time>
      </trkpt>
      <trkpt lat="41.121900" lon="-3.648183">
        <ele>1800.0</ele>
        <time>2017-10-01T12:42:55Z</time>
      </trkpt>
      <trkpt lat="41.121950" lon="-3.648133">
        <ele>1800.0</ele>
        <time>2017-10-01T12:42:56Z</time>
      </trkpt>
      <trkpt lat="41.122000" lon="-3.648083">
        <ele>1799.0</ele>
        <time>2017-10-01T12:42:57Z</time>
      </trkpt>
      <trkpt lat="41.122050" lon="-3.648033">
        <ele>1798.0</ele>
        <time>2017-10-01T12:42:58Z</time>
      </trkpt>
      <trkpt lat="41.122117" lon="-3.647967">
        <ele>1798.0</ele>
        <time>2017-10-01T12:42:59Z</time>
      </trkpt>
      <trkpt lat="41.122167" lon="-3.647917">
        <ele>1797.0</ele>
        <time>2017-10-01T12:43:00Z</time>
      </trkpt>
      <trkpt lat="41.122233" lon="-3.647850">
        <ele>1796.0</ele>
        <time>2017-10-01T12:43:01Z</time>
      </trkpt>
      <trkpt lat="41.122300" lon="-3.647800">
        <ele>1795.0</ele>
        <time>2017-10-01T12:43:02Z</time>
      </trkpt>
      <trkpt lat="41.122350" lon="-3.647717">
        <ele>1795.0</ele>
        <time>2017-10-01T12:43:03Z</time>
      </trkpt>
      <trkpt lat="41.122400" lon="-3.647633">
        <ele>1794.0</ele>
        <time>2017-10-01T12:43:04Z</time>
      </trkpt>
      <trkpt lat="41.122450" lon="-3.647533">
        <ele>1793.0</ele>
        <time>2017-10-01T12:43:05Z</time>
      </trkpt>
      <trkpt lat="41.122500" lon="-3.647433">
        <ele>1793.0</ele>
        <time>2017-10-01T12:43:06Z</time>
      </trkpt>
      <trkpt lat="41.122550" lon="-3.647350">
        <ele>1793.0</ele>
        <time>2017-10-01T12:43:07Z</time>
      </trkpt>
      <trkpt lat="41.122600" lon="-3.647267">
        <ele>1793.0</ele>
        <time>2017-10-01T12:43:08Z</time>
      </trkpt>
      <trkpt lat="41.122650" lon="-3.647183">
        <ele>1792.0</ele>
        <time>2017-10-01T12:43:09Z</time>
      </trkpt>
      <trkpt lat="41.122700" lon="-3.647100">
        <ele>1792.0</ele>
        <time>2017-10-01T12:43:10Z</time>
      </trkpt>
      <trkpt lat="41.122750" lon="-3.647017">
        <ele>1792.0</ele>
        <time>2017-10-01T12:43:11Z</time>
      </trkpt>
      <trkpt lat="41.122800" lon="-3.646917">
        <ele>1792.0</ele>
        <time>2017-10-01T12:43:12Z</time>
      </trkpt>
      <trkpt lat="41.122850" lon="-3.646850">
        <ele>1792.0</ele>
        <time>2017-10-01T12:43:13Z</time>
      </trkpt>
      <trkpt lat="41.122900" lon="-3.646767">
        <ele>1792.0</ele>
        <time>2017-10-01T12:43:14Z</time>
      </trkpt>
      <trkpt lat="41.122967" lon="-3.646683">
        <ele>1791.0</ele>
        <time>2017-10-01T12:43:15Z</time>
      </trkpt>
      <trkpt lat="41.123033" lon="-3.646583">
        <ele>1791.0</ele>
        <time>2017-10-01T12:43:16Z</time>
      </trkpt>
      <trkpt lat="41.123083" lon="-3.646483">
        <ele>1791.0</ele>
        <time>2017-10-01T12:43:17Z</time>
      </trkpt>
      <trkpt lat="41.123133" lon="-3.646400">
        <ele>1791.0</ele>
        <time>2017-10-01T12:43:18Z</time>
      </trkpt>
      <trkpt lat="41.123183" lon="-3.646317">
        <ele>1791.0</ele>
        <time>2017-10-01T12:43:19Z</time>
      </trkpt>
      <trkpt lat="41.123233" lon="-3.646233">
        <ele>1790.0</ele>
        <time>2017-10-01T12:43:20Z</time>
      </trkpt>
      <trkpt lat="41.123283" lon="-3.646150">
        <ele>1789.0</ele>
        <time>2017-10-01T12:43:21Z</time>
      </trkpt>
      <trkpt lat="41.123333" lon="-3.646050">
        <ele>1788.0</ele>
        <time>2017-10-01T12:43:22Z</time>
      </trkpt>
      <trkpt lat="41.123383" lon="-3.645950">
        <ele>1788.0</ele>
        <time>2017-10-01T12:43:23Z</time>
      </trkpt>
      <trkpt lat="41.123433" lon="-3.645850">
        <ele>1787.0</ele>
        <time>2017-10-01T12:43:24Z</time>
      </trkpt>
      <trkpt lat="41.123483" lon="-3.645750">
        <ele>1787.0</ele>
        <time>2017-10-01T12:43:25Z</time>
      </trkpt>
      <trkpt lat="41.123550" lon="-3.645667">
        <ele>1787.0</ele>
        <time>2017-10-01T12:43:26Z</time>
      </trkpt>
      <trkpt lat="41.123583" lon="-3.645550">
        <ele>1787.0</ele>
        <time>2017-10-01T12:43:27Z</time>
      </trkpt>
      <trkpt lat="41.123633" lon="-3.645450">
        <ele>1788.0</ele>
        <time>2017-10-01T12:43:28Z</time>
      </trkpt>
      <trkpt lat="41.123683" lon="-3.645350">
        <ele>1788.0</ele>
        <time>2017-10-01T12:43:29Z</time>
      </trkpt>
      <trkpt lat="41.123733" lon="-3.645267">
        <ele>1788.0</ele>
        <time>2017-10-01T12:43:30Z</time>
      </trkpt>
      <trkpt lat="41.123783" lon="-3.645167">
        <ele>1788.0</ele>
        <time>2017-10-01T12:43:31Z</time>
      </trkpt>
      <trkpt lat="41.123850" lon="-3.645067">
        <ele>1788.0</ele>
        <time>2017-10-01T12:43:32Z</time>
      </trkpt>
      <trkpt lat="41.123900" lon="-3.644950">
        <ele>1788.0</ele>
        <time>2017-10-01T12:43:33Z</time>
      </trkpt>
      <trkpt lat="41.123933" lon="-3.644867">
        <ele>1789.0</ele>
        <time>2017-10-01T12:43:34Z</time>
      </trkpt>
      <trkpt lat="41.124000" lon="-3.644800">
        <ele>1789.0</ele>
        <time>2017-10-01T12:43:35Z</time>
      </trkpt>
      <trkpt lat="41.124050" lon="-3.644767">
        <ele>1789.0</ele>
        <time>2017-10-01T12:43:36Z</time>
      </trkpt>
      <trkpt lat="41.124117" lon="-3.644750">
        <ele>1789.0</ele>
        <time>2017-10-01T12:43:37Z</time>
      </trkpt>
      <trkpt lat="41.124183" lon="-3.644750">
        <ele>1789.0</ele>
        <time>2017-10-01T12:43:38Z</time>
      </trkpt>
      <trkpt lat="41.124217" lon="-3.644783">
        <ele>1790.0</ele>
        <time>2017-10-01T12:43:39Z</time>
      </trkpt>
      <trkpt lat="41.124233" lon="-3.644833">
        <ele>1791.0</ele>
        <time>2017-10-01T12:43:40Z</time>
      </trkpt>
      <trkpt lat="41.124233" lon="-3.644900">
        <ele>1790.0</ele>
        <time>2017-10-01T12:43:41Z</time>
      </trkpt>
      <trkpt lat="41.124200" lon="-3.644967">
        <ele>1790.0</ele>
        <time>2017-10-01T12:43:42Z</time>
      </trkpt>
      <trkpt lat="41.124150" lon="-3.645033">
        <ele>1790.0</ele>
        <time>2017-10-01T12:43:43Z</time>
      </trkpt>
      <trkpt lat="41.124083" lon="-3.645083">
        <ele>1791.0</ele>
        <time>2017-10-01T12:43:44Z</time>
      </trkpt>
      <trkpt lat="41.124000" lon="-3.645100">
        <ele>1792.0</ele>
        <time>2017-10-01T12:43:45Z</time>
      </trkpt>
      <trkpt lat="41.123933" lon="-3.645117">
        <ele>1793.0</ele>
        <time>2017-10-01T12:43:46Z</time>
      </trkpt>
      <trkpt lat="41.123850" lon="-3.645150">
        <ele>1792.0</ele>
        <time>2017-10-01T12:43:47Z</time>
      </trkpt>
      <trkpt lat="41.123767" lon="-3.645200">
        <ele>1792.0</ele>
        <time>2017-10-01T12:43:48Z</time>
      </trkpt>
      <trkpt lat="41.123700" lon="-3.645267">
        <ele>1792.0</ele>
        <time>2017-10-01T12:43:49Z</time>
      </trkpt>
      <trkpt lat="41.123650" lon="-3.645333">
        <ele>1793.0</ele>
        <time>2017-10-01T12:43:50Z</time>
      </trkpt>
      <trkpt lat="41.123617" lon="-3.645417">
        <ele>1794.0</ele>
        <time>2017-10-01T12:43:51Z</time>
      </trkpt>
      <trkpt lat="41.123600" lon="-3.645467">
        <ele>1795.0</ele>
        <time>2017-10-01T12:43:52Z</time>
      </trkpt>
      <trkpt lat="41.123617" lon="-3.645517">
        <ele>1795.0</ele>
        <time>2017-10-01T12:43:53Z</time>
      </trkpt>
      <trkpt lat="41.123617" lon="-3.645567">
        <ele>1794.0</ele>
        <time>2017-10-01T12:43:54Z</time>
      </trkpt>
      <trkpt lat="41.123650" lon="-3.645617">
        <ele>1794.0</ele>
        <time>2017-10-01T12:43:55Z</time>
      </trkpt>
      <trkpt lat="41.123683" lon="-3.645633">
        <ele>1795.0</ele>
        <time>2017-10-01T12:43:56Z</time>
      </trkpt>
      <trkpt lat="41.123733" lon="-3.645617">
        <ele>1795.0</ele>
        <time>2017-10-01T12:43:57Z</time>
      </trkpt>
      <trkpt lat="41.123783" lon="-3.645583">
        <ele>1794.0</ele>
        <time>2017-10-01T12:43:58Z</time>
      </trkpt>
      <trkpt lat="41.123833" lon="-3.645517">
        <ele>1794.0</ele>
        <time>2017-10-01T12:43:59Z</time>
      </trkpt>
      <trkpt lat="41.123900" lon="-3.645450">
        <ele>1794.0</ele>
        <time>2017-10-01T12:44:00Z</time>
      </trkpt>
      <trkpt lat="41.123950" lon="-3.645367">
        <ele>1794.0</ele>
        <time>2017-10-01T12:44:01Z</time>
      </trkpt>
      <trkpt lat="41.123983" lon="-3.645250">
        <ele>1794.0</ele>
        <time>2017-10-01T12:44:02Z</time>
      </trkpt>
      <trkpt lat="41.124017" lon="-3.645117">
        <ele>1794.0</ele>
        <time>2017-10-01T12:44:03Z</time>
      </trkpt>
      <trkpt lat="41.124033" lon="-3.644983">
        <ele>1794.0</ele>
        <time>2017-10-01T12:44:04Z</time>
      </trkpt>
      <trkpt lat="41.124050" lon="-3.644833">
        <ele>1795.0</ele>
        <time>2017-10-01T12:44:05Z</time>
      </trkpt>
      <trkpt lat="41.124050" lon="-3.644683">
        <ele>1795.0</ele>
        <time>2017-10-01T12:44:06Z</time>
      </trkpt>
      <trkpt lat="41.124050" lon="-3.644550">
        <ele>1796.0</ele>
        <time>2017-10-01T12:44:07Z</time>
      </trkpt>
      <trkpt lat="41.124067" lon="-3.644417">
        <ele>1797.0</ele>
        <time>2017-10-01T12:44:08Z</time>
      </trkpt>
      <trkpt lat="41.124117" lon="-3.644300">
        <ele>1797.0</ele>
        <time>2017-10-01T12:44:09Z</time>
      </trkpt>
      <trkpt lat="41.124183" lon="-3.644233">
        <ele>1796.0</ele>
        <time>2017-10-01T12:44:10Z</time>
      </trkpt>
      <trkpt lat="41.124250" lon="-3.644217">
        <ele>1795.0</ele>
        <time>2017-10-01T12:44:11Z</time>
      </trkpt>
      <trkpt lat="41.124300" lon="-3.644233">
        <ele>1796.0</ele>
        <time>2017-10-01T12:44:12Z</time>
      </trkpt>
      <trkpt lat="41.124333" lon="-3.644267">
        <ele>1797.0</ele>
        <time>2017-10-01T12:44:13Z</time>
      </trkpt>
      <trkpt lat="41.124333" lon="-3.644333">
        <ele>1797.0</ele>
        <time>2017-10-01T12:44:14Z</time>
      </trkpt>
      <trkpt lat="41.124317" lon="-3.644400">
        <ele>1798.0</ele>
        <time>2017-10-01T12:44:15Z</time>
      </trkpt>
      <trkpt lat="41.124283" lon="-3.644467">
        <ele>1798.0</ele>
        <time>2017-10-01T12:44:16Z</time>
      </trkpt>
      <trkpt lat="41.124250" lon="-3.644533">
        <ele>1798.0</ele>
        <time>2017-10-01T12:44:17Z</time>
      </trkpt>
      <trkpt lat="41.124217" lon="-3.644583">
        <ele>1799.0</ele>
        <time>2017-10-01T12:44:18Z</time>
      </trkpt>
      <trkpt lat="41.124167" lon="-3.644650">
        <ele>1799.0</ele>
        <time>2017-10-01T12:44:19Z</time>
      </trkpt>
      <trkpt lat="41.124133" lon="-3.644717">
        <ele>1800.0</ele>
        <time>2017-10-01T12:44:20Z</time>
      </trkpt>
      <trkpt lat="41.124100" lon="-3.644783">
        <ele>1800.0</ele>
        <time>2017-10-01T12:44:21Z</time>
      </trkpt>
      <trkpt lat="41.124083" lon="-3.644850">
        <ele>1801.0</ele>
        <time>2017-10-01T12:44:22Z</time>
      </trkpt>
      <trkpt lat="41.124050" lon="-3.644917">
        <ele>1802.0</ele>
        <time>2017-10-01T12:44:23Z</time>
      </trkpt>
      <trkpt lat="41.124033" lon="-3.645000">
        <ele>1803.0</ele>
        <time>2017-10-01T12:44:24Z</time>
      </trkpt>
      <trkpt lat="41.124017" lon="-3.645067">
        <ele>1806.0</ele>
        <time>2017-10-01T12:44:25Z</time>
      </trkpt>
      <trkpt lat="41.124000" lon="-3.645117">
        <ele>1808.0</ele>
        <time>2017-10-01T12:44:26Z</time>
      </trkpt>
      <trkpt lat="41.124017" lon="-3.645167">
        <ele>1811.0</ele>
        <time>2017-10-01T12:44:27Z</time>
      </trkpt>
      <trkpt lat="41.124033" lon="-3.645200">
        <ele>1814.0</ele>
        <time>2017-10-01T12:44:28Z</time>
      </trkpt>
      <trkpt lat="41.124050" lon="-3.645233">
        <ele>1817.0</ele>
        <time>2017-10-01T12:44:29Z</time>
      </trkpt>
      <trkpt lat="41.124067" lon="-3.645233">
        <ele>1820.0</ele>
        <time>2017-10-01T12:44:30Z</time>
      </trkpt>
      <trkpt lat="41.124083" lon="-3.645250">
        <ele>1823.0</ele>
        <time>2017-10-01T12:44:31Z</time>
      </trkpt>
      <trkpt lat="41.124117" lon="-3.645283">
        <ele>1825.0</ele>
        <time>2017-10-01T12:44:32Z</time>
      </trkpt>
      <trkpt lat="41.124150" lon="-3.645317">
        <ele>1828.0</ele>
        <time>2017-10-01T12:44:33Z</time>
      </trkpt>
      <trkpt lat="41.124150" lon="-3.645350">
        <ele>1830.0</ele>
        <time>2017-10-01T12:44:34Z</time>
      </trkpt>
      <trkpt lat="41.124150" lon="-3.645383">
        <ele>1831.0</ele>
        <time>2017-10-01T12:44:35Z</time>
      </trkpt>
      <trkpt lat="41.124150" lon="-3.645400">
        <ele>1832.0</ele>
        <time>2017-10-01T12:44:36Z</time>
      </trkpt>
      <trkpt lat="41.124167" lon="-3.645417">
        <ele>1831.0</ele>
        <time>2017-10-01T12:44:37Z</time>
      </trkpt>
      <trkpt lat="41.124217" lon="-3.645417">
        <ele>1830.0</ele>
        <time>2017-10-01T12:44:38Z</time>
      </trkpt>
      <trkpt lat="41.124250" lon="-3.645400">
        <ele>1830.0</ele>
        <time>2017-10-01T12:44:39Z</time>
      </trkpt>
      <trkpt lat="41.124283" lon="-3.645383">
        <ele>1831.0</ele>
        <time>2017-10-01T12:44:40Z</time>
      </trkpt>
      <trkpt lat="41.124317" lon="-3.645350">
        <ele>1833.0</ele>
        <time>2017-10-01T12:44:41Z</time>
      </trkpt>
      <trkpt lat="41.124350" lon="-3.645333">
        <ele>1834.0</ele>
        <time>2017-10-01T12:44:42Z</time>
      </trkpt>
      <trkpt lat="41.124383" lon="-3.645317">
        <ele>1835.0</ele>
        <time>2017-10-01T12:44:43Z</time>
      </trkpt>
      <trkpt lat="41.124417" lon="-3.645300">
        <ele>1836.0</ele>
        <time>2017-10-01T12:44:44Z</time>
      </trkpt>
      <trkpt lat="41.124450" lon="-3.645283">
        <ele>1837.0</ele>
        <time>2017-10-01T12:44:45Z</time>
      </trkpt>
      <trkpt lat="41.124500" lon="-3.645267">
        <ele>1838.0</ele>
        <time>2017-10-01T12:44:46Z</time>
      </trkpt>
      <trkpt lat="41.124550" lon="-3.645250">
        <ele>1839.0</ele>
        <time>2017-10-01T12:44:47Z</time>
      </trkpt>
      <trkpt lat="41.124600" lon="-3.645233">
        <ele>1840.0</ele>
        <time>2017-10-01T12:44:48Z</time>
      </trkpt>
      <trkpt lat="41.124633" lon="-3.645200">
        <ele>1841.0</ele>
        <time>2017-10-01T12:44:49Z</time>
      </trkpt>
      <trkpt lat="41.124683" lon="-3.645183">
        <ele>1842.0</ele>
        <time>2017-10-01T12:44:50Z</time>
      </trkpt>
      <trkpt lat="41.124733" lon="-3.645150">
        <ele>1841.0</ele>
        <time>2017-10-01T12:44:51Z</time>
      </trkpt>
      <trkpt lat="41.124783" lon="-3.645117">
        <ele>1841.0</ele>
        <time>2017-10-01T12:44:52Z</time>
      </trkpt>
      <trkpt lat="41.124833" lon="-3.645083">
        <ele>1840.0</ele>
        <time>2017-10-01T12:44:53Z</time>
      </trkpt>
      <trkpt lat="41.124883" lon="-3.645050">
        <ele>1840.0</ele>
        <time>2017-10-01T12:44:54Z</time>
      </trkpt>
      <trkpt lat="41.124933" lon="-3.645000">
        <ele>1840.0</ele>
        <time>2017-10-01T12:44:55Z</time>
      </trkpt>
      <trkpt lat="41.124983" lon="-3.644933">
        <ele>1840.0</ele>
        <time>2017-10-01T12:44:56Z</time>
      </trkpt>
      <trkpt lat="41.125033" lon="-3.644883">
        <ele>1841.0</ele>
        <time>2017-10-01T12:44:57Z</time>
      </trkpt>
      <trkpt lat="41.125083" lon="-3.644817">
        <ele>1842.0</ele>
        <time>2017-10-01T12:44:58Z</time>
      </trkpt>
      <trkpt lat="41.125117" lon="-3.644767">
        <ele>1842.0</ele>
        <time>2017-10-01T12:44:59Z</time>
      </trkpt>
      <trkpt lat="41.125150" lon="-3.644717">
        <ele>1842.0</ele>
        <time>2017-10-01T12:45:00Z</time>
      </trkpt>
      <trkpt lat="41.125200" lon="-3.644667">
        <ele>1841.0</ele>
        <time>2017-10-01T12:45:01Z</time>
      </trkpt>
      <trkpt lat="41.125250" lon="-3.644633">
        <ele>1841.0</ele>
        <time>2017-10-01T12:45:02Z</time>
      </trkpt>
      <trkpt lat="41.125300" lon="-3.644600">
        <ele>1840.0</ele>
        <time>2017-10-01T12:45:03Z</time>
      </trkpt>
      <trkpt lat="41.125350" lon="-3.644567">
        <ele>1840.0</ele>
        <time>2017-10-01T12:45:04Z</time>
      </trkpt>
      <trkpt lat="41.125400" lon="-3.644533">
        <ele>1840.0</ele>
        <time>2017-10-01T12:45:05Z</time>
      </trkpt>
      <trkpt lat="41.125450" lon="-3.644483">
        <ele>1840.0</ele>
        <time>2017-10-01T12:45:06Z</time>
      </trkpt>
      <trkpt lat="41.125500" lon="-3.644450">
        <ele>1840.0</ele>
        <time>2017-10-01T12:45:07Z</time>
      </trkpt>
      <trkpt lat="41.125550" lon="-3.644400">
        <ele>1840.0</ele>
        <time>2017-10-01T12:45:08Z</time>
      </trkpt>
      <trkpt lat="41.125600" lon="-3.644350">
        <ele>1840.0</ele>
        <time>2017-10-01T12:45:09Z</time>
      </trkpt>
      <trkpt lat="41.125650" lon="-3.644300">
        <ele>1841.0</ele>
        <time>2017-10-01T12:45:10Z</time>
      </trkpt>
      <trkpt lat="41.125683" lon="-3.644267">
        <ele>1842.0</ele>
        <time>2017-10-01T12:45:11Z</time>
      </trkpt>
      <trkpt lat="41.125733" lon="-3.644217">
        <ele>1842.0</ele>
        <time>2017-10-01T12:45:12Z</time>
      </trkpt>
      <trkpt lat="41.125783" lon="-3.644183">
        <ele>1842.0</ele>
        <time>2017-10-01T12:45:13Z</time>
      </trkpt>
      <trkpt lat="41.125817" lon="-3.644150">
        <ele>1842.0</ele>
        <time>2017-10-01T12:45:14Z</time>
      </trkpt>
      <trkpt lat="41.125867" lon="-3.644133">
        <ele>1842.0</ele>
        <time>2017-10-01T12:45:15Z</time>
      </trkpt>
      <trkpt lat="41.125900" lon="-3.644117">
        <ele>1842.0</ele>
        <time>2017-10-01T12:45:16Z</time>
      </trkpt>
      <trkpt lat="41.125950" lon="-3.644083">
        <ele>1843.0</ele>
        <time>2017-10-01T12:45:17Z</time>
      </trkpt>
      <trkpt lat="41.126000" lon="-3.644050">
        <ele>1843.0</ele>
        <time>2017-10-01T12:45:18Z</time>
      </trkpt>
      <trkpt lat="41.126033" lon="-3.644017">
        <ele>1844.0</ele>
        <time>2017-10-01T12:45:19Z</time>
      </trkpt>
      <trkpt lat="41.126083" lon="-3.644000">
        <ele>1845.0</ele>
        <time>2017-10-01T12:45:20Z</time>
      </trkpt>
      <trkpt lat="41.126133" lon="-3.643983">
        <ele>1845.0</ele>
        <time>2017-10-01T12:45:21Z</time>
      </trkpt>
      <trkpt lat="41.126183" lon="-3.643950">
        <ele>1847.0</ele>
        <time>2017-10-01T12:45:22Z</time>
      </trkpt>
      <trkpt lat="41.126217" lon="-3.643933">
        <ele>1850.0</ele>
        <time>2017-10-01T12:45:23Z</time>
      </trkpt>
      <trkpt lat="41.126250" lon="-3.643900">
        <ele>1852.0</ele>
        <time>2017-10-01T12:45:24Z</time>
      </trkpt>
      <trkpt lat="41.126283" lon="-3.643867">
        <ele>1853.0</ele>
        <time>2017-10-01T12:45:25Z</time>
      </trkpt>
      <trkpt lat="41.126300" lon="-3.643833">
        <ele>1853.0</ele>
        <time>2017-10-01T12:45:26Z</time>
      </trkpt>
      <trkpt lat="41.126350" lon="-3.643817">
        <ele>1853.0</ele>
        <time>2017-10-01T12:45:27Z</time>
      </trkpt>
      <trkpt lat="41.126383" lon="-3.643800">
        <ele>1852.0</ele>
        <time>2017-10-01T12:45:28Z</time>
      </trkpt>
      <trkpt lat="41.126450" lon="-3.643783">
        <ele>1853.0</ele>
        <time>2017-10-01T12:45:29Z</time>
      </trkpt>
      <trkpt lat="41.126483" lon="-3.643750">
        <ele>1854.0</ele>
        <time>2017-10-01T12:45:30Z</time>
      </trkpt>
      <trkpt lat="41.126517" lon="-3.643733">
        <ele>1855.0</ele>
        <time>2017-10-01T12:45:31Z</time>
      </trkpt>
      <trkpt lat="41.126567" lon="-3.643717">
        <ele>1856.0</ele>
        <time>2017-10-01T12:45:32Z</time>
      </trkpt>
      <trkpt lat="41.126600" lon="-3.643700">
        <ele>1855.0</ele>
        <time>2017-10-01T12:45:33Z</time>
      </trkpt>
      <trkpt lat="41.126650" lon="-3.643700">
        <ele>1855.0</ele>
        <time>2017-10-01T12:45:34Z</time>
      </trkpt>
      <trkpt lat="41.126717" lon="-3.643683">
        <ele>1855.0</ele>
        <time>2017-10-01T12:45:35Z</time>
      </trkpt>
      <trkpt lat="41.126767" lon="-3.643683">
        <ele>1857.0</ele>
        <time>2017-10-01T12:45:36Z</time>
      </trkpt>
      <trkpt lat="41.126833" lon="-3.643667">
        <ele>1859.0</ele>
        <time>2017-10-01T12:45:37Z</time>
      </trkpt>
      <trkpt lat="41.126883" lon="-3.643633">
        <ele>1861.0</ele>
        <time>2017-10-01T12:45:38Z</time>
      </trkpt>
      <trkpt lat="41.126933" lon="-3.643600">
        <ele>1862.0</ele>
        <time>2017-10-01T12:45:39Z</time>
      </trkpt>
      <trkpt lat="41.126983" lon="-3.643533">
        <ele>1862.0</ele>
        <time>2017-10-01T12:45:40Z</time>
      </trkpt>
      <trkpt lat="41.127033" lon="-3.643467">
        <ele>1863.0</ele>
        <time>2017-10-01T12:45:41Z</time>
      </trkpt>
      <trkpt lat="41.127083" lon="-3.643367">
        <ele>1864.0</ele>
        <time>2017-10-01T12:45:42Z</time>
      </trkpt>
      <trkpt lat="41.127133" lon="-3.643283">
        <ele>1866.0</ele>
        <time>2017-10-01T12:45:43Z</time>
      </trkpt>
      <trkpt lat="41.127167" lon="-3.643217">
        <ele>1868.0</ele>
        <time>2017-10-01T12:45:44Z</time>
      </trkpt>
      <trkpt lat="41.127217" lon="-3.643150">
        <ele>1869.0</ele>
        <time>2017-10-01T12:45:45Z</time>
      </trkpt>
      <trkpt lat="41.127250" lon="-3.643117">
        <ele>1870.0</ele>
        <time>2017-10-01T12:45:46Z</time>
      </trkpt>
      <trkpt lat="41.127300" lon="-3.643067">
        <ele>1870.0</ele>
        <time>2017-10-01T12:45:47Z</time>
      </trkpt>
      <trkpt lat="41.127367" lon="-3.643000">
        <ele>1871.0</ele>
        <time>2017-10-01T12:45:48Z</time>
      </trkpt>
      <trkpt lat="41.127417" lon="-3.642933">
        <ele>1872.0</ele>
        <time>2017-10-01T12:45:49Z</time>
      </trkpt>
      <trkpt lat="41.127467" lon="-3.642883">
        <ele>1875.0</ele>
        <time>2017-10-01T12:45:50Z</time>
      </trkpt>
      <trkpt lat="41.127500" lon="-3.642833">
        <ele>1877.0</ele>
        <time>2017-10-01T12:45:51Z</time>
      </trkpt>
      <trkpt lat="41.127533" lon="-3.642800">
        <ele>1879.0</ele>
        <time>2017-10-01T12:45:52Z</time>
      </trkpt>
      <trkpt lat="41.127583" lon="-3.642733">
        <ele>1881.0</ele>
        <time>2017-10-01T12:45:53Z</time>
      </trkpt>
      <trkpt lat="41.127633" lon="-3.642700">
        <ele>1883.0</ele>
        <time>2017-10-01T12:45:54Z</time>
      </trkpt>
      <trkpt lat="41.127683" lon="-3.642667">
        <ele>1885.0</ele>
        <time>2017-10-01T12:45:55Z</time>
      </trkpt>
      <trkpt lat="41.127750" lon="-3.642650">
        <ele>1887.0</ele>
        <time>2017-10-01T12:45:56Z</time>
      </trkpt>
      <trkpt lat="41.127800" lon="-3.642600">
        <ele>1890.0</ele>
        <time>2017-10-01T12:45:57Z</time>
      </trkpt>
      <trkpt lat="41.127850" lon="-3.642567">
        <ele>1893.0</ele>
        <time>2017-10-01T12:45:58Z</time>
      </trkpt>
      <trkpt lat="41.127917" lon="-3.642533">
        <ele>1896.0</ele>
        <time>2017-10-01T12:45:59Z</time>
      </trkpt>
      <trkpt lat="41.127967" lon="-3.642517">
        <ele>1899.0</ele>
        <time>2017-10-01T12:46:00Z</time>
      </trkpt>
      <trkpt lat="41.128017" lon="-3.642483">
        <ele>1902.0</ele>
        <time>2017-10-01T12:46:01Z</time>
      </trkpt>
      <trkpt lat="41.128067" lon="-3.642467">
        <ele>1904.0</ele>
        <time>2017-10-01T12:46:02Z</time>
      </trkpt>
      <trkpt lat="41.128133" lon="-3.642450">
        <ele>1907.0</ele>
        <time>2017-10-01T12:46:03Z</time>
      </trkpt>
      <trkpt lat="41.128183" lon="-3.642433">
        <ele>1910.0</ele>
        <time>2017-10-01T12:46:04Z</time>
      </trkpt>
      <trkpt lat="41.128217" lon="-3.642417">
        <ele>1912.0</ele>
        <time>2017-10-01T12:46:05Z</time>
      </trkpt>
      <trkpt lat="41.128267" lon="-3.642400">
        <ele>1915.0</ele>
        <time>2017-10-01T12:46:06Z</time>
      </trkpt>
      <trkpt lat="41.128300" lon="-3.642367">
        <ele>1916.0</ele>
        <time>2017-10-01T12:46:07Z</time>
      </trkpt>
      <trkpt lat="41.128350" lon="-3.642333">
        <ele>1917.0</ele>
        <time>2017-10-01T12:46:08Z</time>
      </trkpt>
      <trkpt lat="41.128417" lon="-3.642283">
        <ele>1918.0</ele>
        <time>2017-10-01T12:46:09Z</time>
      </trkpt>
      <trkpt lat="41.128467" lon="-3.642233">
        <ele>1919.0</ele>
        <time>2017-10-01T12:46:10Z</time>
      </trkpt>
      <trkpt lat="41.128500" lon="-3.642183">
        <ele>1919.0</ele>
        <time>2017-10-01T12:46:11Z</time>
      </trkpt>
      <trkpt lat="41.128550" lon="-3.642150">
        <ele>1920.0</ele>
        <time>2017-10-01T12:46:12Z</time>
      </trkpt>
      <trkpt lat="41.128583" lon="-3.642100">
        <ele>1920.0</ele>
        <time>2017-10-01T12:46:13Z</time>
      </trkpt>
      <trkpt lat="41.128633" lon="-3.642067">
        <ele>1920.0</ele>
        <time>2017-10-01T12:46:14Z</time>
      </trkpt>
      <trkpt lat="41.128683" lon="-3.642000">
        <ele>1920.0</ele>
        <time>2017-10-01T12:46:15Z</time>
      </trkpt>
      <trkpt lat="41.128717" lon="-3.641950">
        <ele>1921.0</ele>
        <time>2017-10-01T12:46:16Z</time>
      </trkpt>
      <trkpt lat="41.128750" lon="-3.641917">
        <ele>1921.0</ele>
        <time>2017-10-01T12:46:17Z</time>
      </trkpt>
      <trkpt lat="41.128767" lon="-3.641900">
        <ele>1921.0</ele>
        <time>2017-10-01T12:46:18Z</time>
      </trkpt>
      <trkpt lat="41.128800" lon="-3.641867">
        <ele>1919.0</ele>
        <time>2017-10-01T12:46:19Z</time>
      </trkpt>
      <trkpt lat="41.128833" lon="-3.641833">
        <ele>1917.0</ele>
        <time>2017-10-01T12:46:20Z</time>
      </trkpt>
      <trkpt lat="41.128867" lon="-3.641783">
        <ele>1916.0</ele>
        <time>2017-10-01T12:46:21Z</time>
      </trkpt>
      <trkpt lat="41.128917" lon="-3.641733">
        <ele>1915.0</ele>
        <time>2017-10-01T12:46:22Z</time>
      </trkpt>
      <trkpt lat="41.128950" lon="-3.641683">
        <ele>1914.0</ele>
        <time>2017-10-01T12:46:23Z</time>
      </trkpt>
      <trkpt lat="41.128983" lon="-3.641633">
        <ele>1914.0</ele>
        <time>2017-10-01T12:46:24Z</time>
      </trkpt>
      <trkpt lat="41.129017" lon="-3.641583">
        <ele>1913.0</ele>
        <time>2017-10-01T12:46:25Z</time>
      </trkpt>
      <trkpt lat="41.129050" lon="-3.641533">
        <ele>1911.0</ele>
        <time>2017-10-01T12:46:26Z</time>
      </trkpt>
      <trkpt lat="41.129083" lon="-3.641483">
        <ele>1909.0</ele>
        <time>2017-10-01T12:46:27Z</time>
      </trkpt>
      <trkpt lat="41.129117" lon="-3.641433">
        <ele>1907.0</ele>
        <time>2017-10-01T12:46:28Z</time>
      </trkpt>
      <trkpt lat="41.129150" lon="-3.641383">
        <ele>1904.0</ele>
        <time>2017-10-01T12:46:29Z</time>
      </trkpt>
      <trkpt lat="41.129200" lon="-3.641350">
        <ele>1902.0</ele>
        <time>2017-10-01T12:46:30Z</time>
      </trkpt>
      <trkpt lat="41.129233" lon="-3.641317">
        <ele>1900.0</ele>
        <time>2017-10-01T12:46:31Z</time>
      </trkpt>
      <trkpt lat="41.129283" lon="-3.641283">
        <ele>1900.0</ele>
        <time>2017-10-01T12:46:32Z</time>
      </trkpt>
      <trkpt lat="41.129317" lon="-3.641250">
        <ele>1900.0</ele>
        <time>2017-10-01T12:46:33Z</time>
      </trkpt>
      <trkpt lat="41.129333" lon="-3.641217">
        <ele>1899.0</ele>
        <time>2017-10-01T12:46:34Z</time>
      </trkpt>
      <trkpt lat="41.129367" lon="-3.641167">
        <ele>1898.0</ele>
        <time>2017-10-01T12:46:35Z</time>
      </trkpt>
      <trkpt lat="41.129383" lon="-3.641133">
        <ele>1897.0</ele>
        <time>2017-10-01T12:46:36Z</time>
      </trkpt>
      <trkpt lat="41.129417" lon="-3.641083">
        <ele>1895.0</ele>
        <time>2017-10-01T12:46:37Z</time>
      </trkpt>
      <trkpt lat="41.129450" lon="-3.641050">
        <ele>1892.0</ele>
        <time>2017-10-01T12:46:38Z</time>
      </trkpt>
      <trkpt lat="41.129500" lon="-3.641017">
        <ele>1890.0</ele>
        <time>2017-10-01T12:46:39Z</time>
      </trkpt>
      <trkpt lat="41.129533" lon="-3.640983">
        <ele>1889.0</ele>
        <time>2017-10-01T12:46:40Z</time>
      </trkpt>
      <trkpt lat="41.129567" lon="-3.640950">
        <ele>1887.0</ele>
        <time>2017-10-01T12:46:41Z</time>
      </trkpt>
      <trkpt lat="41.129617" lon="-3.640917">
        <ele>1885.0</ele>
        <time>2017-10-01T12:46:42Z</time>
      </trkpt>
      <trkpt lat="41.129650" lon="-3.640900">
        <ele>1882.0</ele>
        <time>2017-10-01T12:46:43Z</time>
      </trkpt>
      <trkpt lat="41.129700" lon="-3.640867">
        <ele>1880.0</ele>
        <time>2017-10-01T12:46:44Z</time>
      </trkpt>
      <trkpt lat="41.129750" lon="-3.640833">
        <ele>1879.0</ele>
        <time>2017-10-01T12:46:45Z</time>
      </trkpt>
      <trkpt lat="41.129800" lon="-3.640800">
        <ele>1878.0</ele>
        <time>2017-10-01T12:46:46Z</time>
      </trkpt>
      <trkpt lat="41.129833" lon="-3.640750">
        <ele>1877.0</ele>
        <time>2017-10-01T12:46:47Z</time>
      </trkpt>
      <trkpt lat="41.129883" lon="-3.640700">
        <ele>1876.0</ele>
        <time>2017-10-01T12:46:48Z</time>
      </trkpt>
      <trkpt lat="41.129917" lon="-3.640633">
        <ele>1875.0</ele>
        <time>2017-10-01T12:46:49Z</time>
      </trkpt>
      <trkpt lat="41.129967" lon="-3.640583">
        <ele>1874.0</ele>
        <time>2017-10-01T12:46:50Z</time>
      </trkpt>
      <trkpt lat="41.130000" lon="-3.640533">
        <ele>1873.0</ele>
        <time>2017-10-01T12:46:51Z</time>
      </trkpt>
      <trkpt lat="41.130033" lon="-3.640483">
        <ele>1873.0</ele>
        <time>2017-10-01T12:46:52Z</time>
      </trkpt>
      <trkpt lat="41.130067" lon="-3.640433">
        <ele>1871.0</ele>
        <time>2017-10-01T12:46:53Z</time>
      </trkpt>
      <trkpt lat="41.130083" lon="-3.640367">
        <ele>1868.0</ele>
        <time>2017-10-01T12:46:54Z</time>
      </trkpt>
      <trkpt lat="41.130133" lon="-3.640300">
        <ele>1865.0</ele>
        <time>2017-10-01T12:46:55Z</time>
      </trkpt>
      <trkpt lat="41.130183" lon="-3.640233">
        <ele>1862.0</ele>
        <time>2017-10-01T12:46:56Z</time>
      </trkpt>
      <trkpt lat="41.130233" lon="-3.640183">
        <ele>1861.0</ele>
        <time>2017-10-01T12:46:57Z</time>
      </trkpt>
      <trkpt lat="41.130267" lon="-3.640150">
        <ele>1861.0</ele>
        <time>2017-10-01T12:46:58Z</time>
      </trkpt>
      <trkpt lat="41.130300" lon="-3.640117">
        <ele>1860.0</ele>
        <time>2017-10-01T12:46:59Z</time>
      </trkpt>
      <trkpt lat="41.130333" lon="-3.640083">
        <ele>1859.0</ele>
        <time>2017-10-01T12:47:00Z</time>
      </trkpt>
      <trkpt lat="41.130367" lon="-3.640050">
        <ele>1856.0</ele>
        <time>2017-10-01T12:47:01Z</time>
      </trkpt>
      <trkpt lat="41.130400" lon="-3.640000">
        <ele>1854.0</ele>
        <time>2017-10-01T12:47:02Z</time>
      </trkpt>
      <trkpt lat="41.130450" lon="-3.639950">
        <ele>1851.0</ele>
        <time>2017-10-01T12:47:03Z</time>
      </trkpt>
      <trkpt lat="41.130500" lon="-3.639900">
        <ele>1850.0</ele>
        <time>2017-10-01T12:47:04Z</time>
      </trkpt>
      <trkpt lat="41.130550" lon="-3.639867">
        <ele>1849.0</ele>
        <time>2017-10-01T12:47:05Z</time>
      </trkpt>
      <trkpt lat="41.130600" lon="-3.639817">
        <ele>1849.0</ele>
        <time>2017-10-01T12:47:06Z</time>
      </trkpt>
      <trkpt lat="41.130633" lon="-3.639783">
        <ele>1849.0</ele>
        <time>2017-10-01T12:47:07Z</time>
      </trkpt>
      <trkpt lat="41.130667" lon="-3.639750">
        <ele>1848.0</ele>
        <time>2017-10-01T12:47:08Z</time>
      </trkpt>
      <trkpt lat="41.130700" lon="-3.639717">
        <ele>1847.0</ele>
        <time>2017-10-01T12:47:09Z</time>
      </trkpt>
      <trkpt lat="41.130750" lon="-3.639667">
        <ele>1846.0</ele>
        <time>2017-10-01T12:47:10Z</time>
      </trkpt>
      <trkpt lat="41.130800" lon="-3.639633">
        <ele>1845.0</ele>
        <time>2017-10-01T12:47:11Z</time>
      </trkpt>
      <trkpt lat="41.130833" lon="-3.639617">
        <ele>1844.0</ele>
        <time>2017-10-01T12:47:12Z</time>
      </trkpt>
      <trkpt lat="41.130883" lon="-3.639600">
        <ele>1844.0</ele>
        <time>2017-10-01T12:47:13Z</time>
      </trkpt>
      <trkpt lat="41.130917" lon="-3.639567">
        <ele>1843.0</ele>
        <time>2017-10-01T12:47:14Z</time>
      </trkpt>
      <trkpt lat="41.130950" lon="-3.639517">
        <ele>1841.0</ele>
        <time>2017-10-01T12:47:15Z</time>
      </trkpt>
      <trkpt lat="41.131000" lon="-3.639450">
        <ele>1839.0</ele>
        <time>2017-10-01T12:47:16Z</time>
      </trkpt>
      <trkpt lat="41.131050" lon="-3.639400">
        <ele>1838.0</ele>
        <time>2017-10-01T12:47:17Z</time>
      </trkpt>
      <trkpt lat="41.131100" lon="-3.639367">
        <ele>1838.0</ele>
        <time>2017-10-01T12:47:18Z</time>
      </trkpt>
      <trkpt lat="41.131150" lon="-3.639317">
        <ele>1839.0</ele>
        <time>2017-10-01T12:47:19Z</time>
      </trkpt>
      <trkpt lat="41.131183" lon="-3.639267">
        <ele>1839.0</ele>
        <time>2017-10-01T12:47:20Z</time>
      </trkpt>
      <trkpt lat="41.131217" lon="-3.639233">
        <ele>1839.0</ele>
        <time>2017-10-01T12:47:21Z</time>
      </trkpt>
      <trkpt lat="41.131250" lon="-3.639200">
        <ele>1838.0</ele>
        <time>2017-10-01T12:47:22Z</time>
      </trkpt>
      <trkpt lat="41.131300" lon="-3.639150">
        <ele>1836.0</ele>
        <time>2017-10-01T12:47:23Z</time>
      </trkpt>
      <trkpt lat="41.131350" lon="-3.639100">
        <ele>1835.0</ele>
        <time>2017-10-01T12:47:24Z</time>
      </trkpt>
      <trkpt lat="41.131400" lon="-3.639050">
        <ele>1834.0</ele>
        <time>2017-10-01T12:47:25Z</time>
      </trkpt>
      <trkpt lat="41.131433" lon="-3.638983">
        <ele>1834.0</ele>
        <time>2017-10-01T12:47:26Z</time>
      </trkpt>
      <trkpt lat="41.131483" lon="-3.638933">
        <ele>1834.0</ele>
        <time>2017-10-01T12:47:27Z</time>
      </trkpt>
      <trkpt lat="41.131517" lon="-3.638900">
        <ele>1832.0</ele>
        <time>2017-10-01T12:47:28Z</time>
      </trkpt>
      <trkpt lat="41.131550" lon="-3.638850">
        <ele>1831.0</ele>
        <time>2017-10-01T12:47:29Z</time>
      </trkpt>
      <trkpt lat="41.131600" lon="-3.638783">
        <ele>1829.0</ele>
        <time>2017-10-01T12:47:30Z</time>
      </trkpt>
      <trkpt lat="41.131650" lon="-3.638717">
        <ele>1828.0</ele>
        <time>2017-10-01T12:47:31Z</time>
      </trkpt>
      <trkpt lat="41.131700" lon="-3.638667">
        <ele>1827.0</ele>
        <time>2017-10-01T12:47:32Z</time>
      </trkpt>
      <trkpt lat="41.131750" lon="-3.638617">
        <ele>1827.0</ele>
        <time>2017-10-01T12:47:33Z</time>
      </trkpt>
      <trkpt lat="41.131800" lon="-3.638567">
        <ele>1827.0</ele>
        <time>2017-10-01T12:47:34Z</time>
      </trkpt>
      <trkpt lat="41.131850" lon="-3.638517">
        <ele>1827.0</ele>
        <time>2017-10-01T12:47:35Z</time>
      </trkpt>
      <trkpt lat="41.131900" lon="-3.638483">
        <ele>1828.0</ele>
        <time>2017-10-01T12:47:36Z</time>
      </trkpt>
      <trkpt lat="41.131950" lon="-3.638467">
        <ele>1828.0</ele>
        <time>2017-10-01T12:47:37Z</time>
      </trkpt>
      <trkpt lat="41.132000" lon="-3.638450">
        <ele>1829.0</ele>
        <time>2017-10-01T12:47:38Z</time>
      </trkpt>
      <trkpt lat="41.132033" lon="-3.638433">
        <ele>1831.0</ele>
        <time>2017-10-01T12:47:39Z</time>
      </trkpt>
      <trkpt lat="41.132067" lon="-3.638400">
        <ele>1832.0</ele>
        <time>2017-10-01T12:47:40Z</time>
      </trkpt>
      <trkpt lat="41.132100" lon="-3.638383">
        <ele>1833.0</ele>
        <time>2017-10-01T12:47:41Z</time>
      </trkpt>
      <trkpt lat="41.132133" lon="-3.638367">
        <ele>1833.0</ele>
        <time>2017-10-01T12:47:42Z</time>
      </trkpt>
      <trkpt lat="41.132167" lon="-3.638333">
        <ele>1833.0</ele>
        <time>2017-10-01T12:47:43Z</time>
      </trkpt>
      <trkpt lat="41.132217" lon="-3.638317">
        <ele>1833.0</ele>
        <time>2017-10-01T12:47:44Z</time>
      </trkpt>
      <trkpt lat="41.132267" lon="-3.638283">
        <ele>1835.0</ele>
        <time>2017-10-01T12:47:45Z</time>
      </trkpt>
      <trkpt lat="41.132317" lon="-3.638250">
        <ele>1836.0</ele>
        <time>2017-10-01T12:47:46Z</time>
      </trkpt>
      <trkpt lat="41.132350" lon="-3.638233">
        <ele>1837.0</ele>
        <time>2017-10-01T12:47:47Z</time>
      </trkpt>
      <trkpt lat="41.132400" lon="-3.638200">
        <ele>1838.0</ele>
        <time>2017-10-01T12:47:48Z</time>
      </trkpt>
      <trkpt lat="41.132433" lon="-3.638167">
        <ele>1838.0</ele>
        <time>2017-10-01T12:47:49Z</time>
      </trkpt>
      <trkpt lat="41.132467" lon="-3.638150">
        <ele>1838.0</ele>
        <time>2017-10-01T12:47:50Z</time>
      </trkpt>
      <trkpt lat="41.132517" lon="-3.638117">
        <ele>1838.0</ele>
        <time>2017-10-01T12:47:51Z</time>
      </trkpt>
      <trkpt lat="41.132567" lon="-3.638100">
        <ele>1838.0</ele>
        <time>2017-10-01T12:47:52Z</time>
      </trkpt>
      <trkpt lat="41.132617" lon="-3.638083">
        <ele>1840.0</ele>
        <time>2017-10-01T12:47:53Z</time>
      </trkpt>
      <trkpt lat="41.132650" lon="-3.638050">
        <ele>1841.0</ele>
        <time>2017-10-01T12:47:54Z</time>
      </trkpt>
      <trkpt lat="41.132683" lon="-3.638033">
        <ele>1842.0</ele>
        <time>2017-10-01T12:47:55Z</time>
      </trkpt>
      <trkpt lat="41.132717" lon="-3.638000">
        <ele>1843.0</ele>
        <time>2017-10-01T12:47:56Z</time>
      </trkpt>
      <trkpt lat="41.132767" lon="-3.637967">
        <ele>1843.0</ele>
        <time>2017-10-01T12:47:57Z</time>
      </trkpt>
      <trkpt lat="41.132817" lon="-3.637950">
        <ele>1844.0</ele>
        <time>2017-10-01T12:47:58Z</time>
      </trkpt>
      <trkpt lat="41.132867" lon="-3.637917">
        <ele>1846.0</ele>
        <time>2017-10-01T12:47:59Z</time>
      </trkpt>
      <trkpt lat="41.132917" lon="-3.637883">
        <ele>1848.0</ele>
        <time>2017-10-01T12:48:00Z</time>
      </trkpt>
      <trkpt lat="41.132967" lon="-3.637850">
        <ele>1850.0</ele>
        <time>2017-10-01T12:48:01Z</time>
      </trkpt>
      <trkpt lat="41.133000" lon="-3.637833">
        <ele>1851.0</ele>
        <time>2017-10-01T12:48:02Z</time>
      </trkpt>
      <trkpt lat="41.133050" lon="-3.637800">
        <ele>1851.0</ele>
        <time>2017-10-01T12:48:03Z</time>
      </trkpt>
      <trkpt lat="41.133083" lon="-3.637767">
        <ele>1851.0</ele>
        <time>2017-10-01T12:48:04Z</time>
      </trkpt>
      <trkpt lat="41.133133" lon="-3.637717">
        <ele>1850.0</ele>
        <time>2017-10-01T12:48:05Z</time>
      </trkpt>
      <trkpt lat="41.133200" lon="-3.637667">
        <ele>1850.0</ele>
        <time>2017-10-01T12:48:06Z</time>
      </trkpt>
      <trkpt lat="41.133233" lon="-3.637617">
        <ele>1850.0</ele>
        <time>2017-10-01T12:48:07Z</time>
      </trkpt>
      <trkpt lat="41.133283" lon="-3.637583">
        <ele>1851.0</ele>
        <time>2017-10-01T12:48:08Z</time>
      </trkpt>
      <trkpt lat="41.133317" lon="-3.637533">
        <ele>1850.0</ele>
        <time>2017-10-01T12:48:09Z</time>
      </trkpt>
      <trkpt lat="41.133350" lon="-3.637483">
        <ele>1848.0</ele>
        <time>2017-10-01T12:48:10Z</time>
      </trkpt>
      <trkpt lat="41.133383" lon="-3.637433">
        <ele>1846.0</ele>
        <time>2017-10-01T12:48:11Z</time>
      </trkpt>
      <trkpt lat="41.133450" lon="-3.637367">
        <ele>1843.0</ele>
        <time>2017-10-01T12:48:12Z</time>
      </trkpt>
      <trkpt lat="41.133500" lon="-3.637317">
        <ele>1843.0</ele>
        <time>2017-10-01T12:48:13Z</time>
      </trkpt>
      <trkpt lat="41.133550" lon="-3.637283">
        <ele>1844.0</ele>
        <time>2017-10-01T12:48:14Z</time>
      </trkpt>
      <trkpt lat="41.133600" lon="-3.637233">
        <ele>1844.0</ele>
        <time>2017-10-01T12:48:15Z</time>
      </trkpt>
      <trkpt lat="41.133633" lon="-3.637217">
        <ele>1843.0</ele>
        <time>2017-10-01T12:48:16Z</time>
      </trkpt>
      <trkpt lat="41.133683" lon="-3.637217">
        <ele>1842.0</ele>
        <time>2017-10-01T12:48:17Z</time>
      </trkpt>
      <trkpt lat="41.133733" lon="-3.637217">
        <ele>1841.0</ele>
        <time>2017-10-01T12:48:18Z</time>
      </trkpt>
      <trkpt lat="41.133800" lon="-3.637200">
        <ele>1840.0</ele>
        <time>2017-10-01T12:48:19Z</time>
      </trkpt>
      <trkpt lat="41.133833" lon="-3.637167">
        <ele>1839.0</ele>
        <time>2017-10-01T12:48:20Z</time>
      </trkpt>
      <trkpt lat="41.133883" lon="-3.637133">
        <ele>1838.0</ele>
        <time>2017-10-01T12:48:21Z</time>
      </trkpt>
      <trkpt lat="41.133917" lon="-3.637100">
        <ele>1836.0</ele>
        <time>2017-10-01T12:48:22Z</time>
      </trkpt>
      <trkpt lat="41.133967" lon="-3.637067">
        <ele>1834.0</ele>
        <time>2017-10-01T12:48:23Z</time>
      </trkpt>
      <trkpt lat="41.134017" lon="-3.637017">
        <ele>1833.0</ele>
        <time>2017-10-01T12:48:24Z</time>
      </trkpt>
      <trkpt lat="41.134067" lon="-3.636967">
        <ele>1831.0</ele>
        <time>2017-10-01T12:48:25Z</time>
      </trkpt>
      <trkpt lat="41.134133" lon="-3.636917">
        <ele>1828.0</ele>
        <time>2017-10-01T12:48:26Z</time>
      </trkpt>
      <trkpt lat="41.134183" lon="-3.636883">
        <ele>1826.0</ele>
        <time>2017-10-01T12:48:27Z</time>
      </trkpt>
      <trkpt lat="41.134233" lon="-3.636850">
        <ele>1824.0</ele>
        <time>2017-10-01T12:48:28Z</time>
      </trkpt>
      <trkpt lat="41.134300" lon="-3.636817">
        <ele>1822.0</ele>
        <time>2017-10-01T12:48:29Z</time>
      </trkpt>
      <trkpt lat="41.134350" lon="-3.636767">
        <ele>1821.0</ele>
        <time>2017-10-01T12:48:30Z</time>
      </trkpt>
      <trkpt lat="41.134417" lon="-3.636733">
        <ele>1821.0</ele>
        <time>2017-10-01T12:48:31Z</time>
      </trkpt>
      <trkpt lat="41.134467" lon="-3.636700">
        <ele>1820.0</ele>
        <time>2017-10-01T12:48:32Z</time>
      </trkpt>
      <trkpt lat="41.134517" lon="-3.636650">
        <ele>1820.0</ele>
        <time>2017-10-01T12:48:33Z</time>
      </trkpt>
      <trkpt lat="41.134567" lon="-3.636617">
        <ele>1820.0</ele>
        <time>2017-10-01T12:48:34Z</time>
      </trkpt>
      <trkpt lat="41.134600" lon="-3.636600">
        <ele>1819.0</ele>
        <time>2017-10-01T12:48:35Z</time>
      </trkpt>
      <trkpt lat="41.134650" lon="-3.636567">
        <ele>1818.0</ele>
        <time>2017-10-01T12:48:36Z</time>
      </trkpt>
      <trkpt lat="41.134700" lon="-3.636533">
        <ele>1817.0</ele>
        <time>2017-10-01T12:48:37Z</time>
      </trkpt>
      <trkpt lat="41.134750" lon="-3.636500">
        <ele>1816.0</ele>
        <time>2017-10-01T12:48:38Z</time>
      </trkpt>
      <trkpt lat="41.134783" lon="-3.636467">
        <ele>1815.0</ele>
        <time>2017-10-01T12:48:39Z</time>
      </trkpt>
      <trkpt lat="41.134833" lon="-3.636433">
        <ele>1814.0</ele>
        <time>2017-10-01T12:48:40Z</time>
      </trkpt>
      <trkpt lat="41.134867" lon="-3.636400">
        <ele>1813.0</ele>
        <time>2017-10-01T12:48:41Z</time>
      </trkpt>
      <trkpt lat="41.134917" lon="-3.636367">
        <ele>1812.0</ele>
        <time>2017-10-01T12:48:42Z</time>
      </trkpt>
      <trkpt lat="41.134950" lon="-3.636333">
        <ele>1811.0</ele>
        <time>2017-10-01T12:48:43Z</time>
      </trkpt>
      <trkpt lat="41.135000" lon="-3.636300">
        <ele>1811.0</ele>
        <time>2017-10-01T12:48:44Z</time>
      </trkpt>
      <trkpt lat="41.135033" lon="-3.636267">
        <ele>1811.0</ele>
        <time>2017-10-01T12:48:45Z</time>
      </trkpt>
      <trkpt lat="41.135083" lon="-3.636233">
        <ele>1811.0</ele>
        <time>2017-10-01T12:48:46Z</time>
      </trkpt>
      <trkpt lat="41.135117" lon="-3.636200">
        <ele>1810.0</ele>
        <time>2017-10-01T12:48:47Z</time>
      </trkpt>
      <trkpt lat="41.135150" lon="-3.636167">
        <ele>1809.0</ele>
        <time>2017-10-01T12:48:48Z</time>
      </trkpt>
      <trkpt lat="41.135200" lon="-3.636133">
        <ele>1808.0</ele>
        <time>2017-10-01T12:48:49Z</time>
      </trkpt>
      <trkpt lat="41.135233" lon="-3.636100">
        <ele>1807.0</ele>
        <time>2017-10-01T12:48:50Z</time>
      </trkpt>
      <trkpt lat="41.135283" lon="-3.636067">
        <ele>1805.0</ele>
        <time>2017-10-01T12:48:51Z</time>
      </trkpt>
      <trkpt lat="41.135317" lon="-3.636033">
        <ele>1803.0</ele>
        <time>2017-10-01T12:48:52Z</time>
      </trkpt>
      <trkpt lat="41.135367" lon="-3.635983">
        <ele>1802.0</ele>
        <time>2017-10-01T12:48:53Z</time>
      </trkpt>
      <trkpt lat="41.135417" lon="-3.635950">
        <ele>1800.0</ele>
        <time>2017-10-01T12:48:54Z</time>
      </trkpt>
      <trkpt lat="41.135450" lon="-3.635917">
        <ele>1800.0</ele>
        <time>2017-10-01T12:48:55Z</time>
      </trkpt>
      <trkpt lat="41.135500" lon="-3.635867">
        <ele>1799.0</ele>
        <time>2017-10-01T12:48:56Z</time>
      </trkpt>
      <trkpt lat="41.135533" lon="-3.635833">
        <ele>1798.0</ele>
        <time>2017-10-01T12:48:57Z</time>
      </trkpt>
      <trkpt lat="41.135567" lon="-3.635783">
        <ele>1796.0</ele>
        <time>2017-10-01T12:48:58Z</time>
      </trkpt>
      <trkpt lat="41.135617" lon="-3.635750">
        <ele>1794.0</ele>
        <time>2017-10-01T12:48:59Z</time>
      </trkpt>
      <trkpt lat="41.135650" lon="-3.635700">
        <ele>1792.0</ele>
        <time>2017-10-01T12:49:00Z</time>
      </trkpt>
      <trkpt lat="41.135683" lon="-3.635667">
        <ele>1791.0</ele>
        <time>2017-10-01T12:49:01Z</time>
      </trkpt>
      <trkpt lat="41.135733" lon="-3.635600">
        <ele>1789.0</ele>
        <time>2017-10-01T12:49:02Z</time>
      </trkpt>
      <trkpt lat="41.135767" lon="-3.635550">
        <ele>1787.0</ele>
        <time>2017-10-01T12:49:03Z</time>
      </trkpt>
      <trkpt lat="41.135800" lon="-3.635500">
        <ele>1786.0</ele>
        <time>2017-10-01T12:49:04Z</time>
      </trkpt>
      <trkpt lat="41.135850" lon="-3.635467">
        <ele>1784.0</ele>
        <time>2017-10-01T12:49:05Z</time>
      </trkpt>
      <trkpt lat="41.135883" lon="-3.635417">
        <ele>1782.0</ele>
        <time>2017-10-01T12:49:06Z</time>
      </trkpt>
      <trkpt lat="41.135933" lon="-3.635383">
        <ele>1780.0</ele>
        <time>2017-10-01T12:49:07Z</time>
      </trkpt>
      <trkpt lat="41.135967" lon="-3.635333">
        <ele>1779.0</ele>
        <time>2017-10-01T12:49:08Z</time>
      </trkpt>
      <trkpt lat="41.136000" lon="-3.635283">
        <ele>1777.0</ele>
        <time>2017-10-01T12:49:09Z</time>
      </trkpt>
      <trkpt lat="41.136033" lon="-3.635250">
        <ele>1774.0</ele>
        <time>2017-10-01T12:49:10Z</time>
      </trkpt>
      <trkpt lat="41.136067" lon="-3.635200">
        <ele>1772.0</ele>
        <time>2017-10-01T12:49:11Z</time>
      </trkpt>
      <trkpt lat="41.136117" lon="-3.635167">
        <ele>1769.0</ele>
        <time>2017-10-01T12:49:12Z</time>
      </trkpt>
      <trkpt lat="41.136167" lon="-3.635133">
        <ele>1766.0</ele>
        <time>2017-10-01T12:49:13Z</time>
      </trkpt>
      <trkpt lat="41.136233" lon="-3.635100">
        <ele>1766.0</ele>
        <time>2017-10-01T12:49:14Z</time>
      </trkpt>
      <trkpt lat="41.136283" lon="-3.635083">
        <ele>1766.0</ele>
        <time>2017-10-01T12:49:15Z</time>
      </trkpt>
      <trkpt lat="41.136317" lon="-3.635067">
        <ele>1766.0</ele>
        <time>2017-10-01T12:49:16Z</time>
      </trkpt>
      <trkpt lat="41.136350" lon="-3.635050">
        <ele>1765.0</ele>
        <time>2017-10-01T12:49:17Z</time>
      </trkpt>
      <trkpt lat="41.136400" lon="-3.635017">
        <ele>1763.0</ele>
        <time>2017-10-01T12:49:18Z</time>
      </trkpt>
      <trkpt lat="41.136450" lon="-3.635000">
        <ele>1761.0</ele>
        <time>2017-10-01T12:49:19Z</time>
      </trkpt>
      <trkpt lat="41.136500" lon="-3.634967">
        <ele>1759.0</ele>
        <time>2017-10-01T12:49:20Z</time>
      </trkpt>
      <trkpt lat="41.136550" lon="-3.634933">
        <ele>1758.0</ele>
        <time>2017-10-01T12:49:21Z</time>
      </trkpt>
      <trkpt lat="41.136583" lon="-3.634900">
        <ele>1758.0</ele>
        <time>2017-10-01T12:49:22Z</time>
      </trkpt>
      <trkpt lat="41.136633" lon="-3.634850">
        <ele>1757.0</ele>
        <time>2017-10-01T12:49:23Z</time>
      </trkpt>
      <trkpt lat="41.136667" lon="-3.634817">
        <ele>1757.0</ele>
        <time>2017-10-01T12:49:24Z</time>
      </trkpt>
      <trkpt lat="41.136700" lon="-3.634783">
        <ele>1755.0</ele>
        <time>2017-10-01T12:49:25Z</time>
      </trkpt>
      <trkpt lat="41.136750" lon="-3.634750">
        <ele>1754.0</ele>
        <time>2017-10-01T12:49:26Z</time>
      </trkpt>
      <trkpt lat="41.136783" lon="-3.634717">
        <ele>1753.0</ele>
        <time>2017-10-01T12:49:27Z</time>
      </trkpt>
      <trkpt lat="41.136833" lon="-3.634683">
        <ele>1752.0</ele>
        <time>2017-10-01T12:49:28Z</time>
      </trkpt>
      <trkpt lat="41.136867" lon="-3.634650">
        <ele>1751.0</ele>
        <time>2017-10-01T12:49:29Z</time>
      </trkpt>
      <trkpt lat="41.136900" lon="-3.634617">
        <ele>1750.0</ele>
        <time>2017-10-01T12:49:30Z</time>
      </trkpt>
      <trkpt lat="41.136950" lon="-3.634583">
        <ele>1750.0</ele>
        <time>2017-10-01T12:49:31Z</time>
      </trkpt>
      <trkpt lat="41.136983" lon="-3.634550">
        <ele>1749.0</ele>
        <time>2017-10-01T12:49:32Z</time>
      </trkpt>
      <trkpt lat="41.137017" lon="-3.634500">
        <ele>1749.0</ele>
        <time>2017-10-01T12:49:33Z</time>
      </trkpt>
      <trkpt lat="41.137050" lon="-3.634467">
        <ele>1748.0</ele>
        <time>2017-10-01T12:49:34Z</time>
      </trkpt>
      <trkpt lat="41.137083" lon="-3.634417">
        <ele>1747.0</ele>
        <time>2017-10-01T12:49:35Z</time>
      </trkpt>
      <trkpt lat="41.137117" lon="-3.634383">
        <ele>1747.0</ele>
        <time>2017-10-01T12:49:36Z</time>
      </trkpt>
      <trkpt lat="41.137150" lon="-3.634350">
        <ele>1746.0</ele>
        <time>2017-10-01T12:49:37Z</time>
      </trkpt>
      <trkpt lat="41.137183" lon="-3.634300">
        <ele>1745.0</ele>
        <time>2017-10-01T12:49:38Z</time>
      </trkpt>
      <trkpt lat="41.137217" lon="-3.634283">
        <ele>1743.0</ele>
        <time>2017-10-01T12:49:39Z</time>
      </trkpt>
      <trkpt lat="41.137267" lon="-3.634267">
        <ele>1743.0</ele>
        <time>2017-10-01T12:49:40Z</time>
      </trkpt>
      <trkpt lat="41.137300" lon="-3.634233">
        <ele>1742.0</ele>
        <time>2017-10-01T12:49:41Z</time>
      </trkpt>
      <trkpt lat="41.137333" lon="-3.634217">
        <ele>1741.0</ele>
        <time>2017-10-01T12:49:42Z</time>
      </trkpt>
      <trkpt lat="41.137350" lon="-3.634183">
        <ele>1740.0</ele>
        <time>2017-10-01T12:49:43Z</time>
      </trkpt>
      <trkpt lat="41.137383" lon="-3.634150">
        <ele>1738.0</ele>
        <time>2017-10-01T12:49:44Z</time>
      </trkpt>
      <trkpt lat="41.137417" lon="-3.634133">
        <ele>1737.0</ele>
        <time>2017-10-01T12:49:45Z</time>
      </trkpt>
      <trkpt lat="41.137450" lon="-3.634100">
        <ele>1735.0</ele>
        <time>2017-10-01T12:49:46Z</time>
      </trkpt>
      <trkpt lat="41.137500" lon="-3.634067">
        <ele>1733.0</ele>
        <time>2017-10-01T12:49:47Z</time>
      </trkpt>
      <trkpt lat="41.137533" lon="-3.634033">
        <ele>1731.0</ele>
        <time>2017-10-01T12:49:48Z</time>
      </trkpt>
      <trkpt lat="41.137567" lon="-3.633983">
        <ele>1729.0</ele>
        <time>2017-10-01T12:49:49Z</time>
      </trkpt>
      <trkpt lat="41.137617" lon="-3.633933">
        <ele>1727.0</ele>
        <time>2017-10-01T12:49:50Z</time>
      </trkpt>
      <trkpt lat="41.137650" lon="-3.633883">
        <ele>1725.0</ele>
        <time>2017-10-01T12:49:51Z</time>
      </trkpt>
      <trkpt lat="41.137683" lon="-3.633850">
        <ele>1723.0</ele>
        <time>2017-10-01T12:49:52Z</time>
      </trkpt>
      <trkpt lat="41.137717" lon="-3.633817">
        <ele>1721.0</ele>
        <time>2017-10-01T12:49:53Z</time>
      </trkpt>
      <trkpt lat="41.137767" lon="-3.633767">
        <ele>1719.0</ele>
        <time>2017-10-01T12:49:54Z</time>
      </trkpt>
      <trkpt lat="41.137817" lon="-3.633717">
        <ele>1716.0</ele>
        <time>2017-10-01T12:49:55Z</time>
      </trkpt>
      <trkpt lat="41.137850" lon="-3.633667">
        <ele>1714.0</ele>
        <time>2017-10-01T12:49:56Z</time>
      </trkpt>
      <trkpt lat="41.137883" lon="-3.633617">
        <ele>1712.0</ele>
        <time>2017-10-01T12:49:57Z</time>
      </trkpt>
      <trkpt lat="41.137933" lon="-3.633583">
        <ele>1709.0</ele>
        <time>2017-10-01T12:49:58Z</time>
      </trkpt>
      <trkpt lat="41.137967" lon="-3.633550">
        <ele>1706.0</ele>
        <time>2017-10-01T12:49:59Z</time>
      </trkpt>
      <trkpt lat="41.138033" lon="-3.633517">
        <ele>1703.0</ele>
        <time>2017-10-01T12:50:00Z</time>
      </trkpt>
      <trkpt lat="41.138083" lon="-3.633467">
        <ele>1701.0</ele>
        <time>2017-10-01T12:50:01Z</time>
      </trkpt>
      <trkpt lat="41.138150" lon="-3.633417">
        <ele>1700.0</ele>
        <time>2017-10-01T12:50:02Z</time>
      </trkpt>
      <trkpt lat="41.138200" lon="-3.633383">
        <ele>1700.0</ele>
        <time>2017-10-01T12:50:03Z</time>
      </trkpt>
      <trkpt lat="41.138233" lon="-3.633333">
        <ele>1699.0</ele>
        <time>2017-10-01T12:50:04Z</time>
      </trkpt>
      <trkpt lat="41.138267" lon="-3.633300">
        <ele>1697.0</ele>
        <time>2017-10-01T12:50:05Z</time>
      </trkpt>
      <trkpt lat="41.138317" lon="-3.633267">
        <ele>1694.0</ele>
        <time>2017-10-01T12:50:06Z</time>
      </trkpt>
      <trkpt lat="41.138383" lon="-3.633217">
        <ele>1691.0</ele>
        <time>2017-10-01T12:50:07Z</time>
      </trkpt>
      <trkpt lat="41.138433" lon="-3.633167">
        <ele>1690.0</ele>
        <time>2017-10-01T12:50:08Z</time>
      </trkpt>
      <trkpt lat="41.138500" lon="-3.633133">
        <ele>1689.0</ele>
        <time>2017-10-01T12:50:09Z</time>
      </trkpt>
      <trkpt lat="41.138550" lon="-3.633083">
        <ele>1689.0</ele>
        <time>2017-10-01T12:50:10Z</time>
      </trkpt>
      <trkpt lat="41.138583" lon="-3.633050">
        <ele>1689.0</ele>
        <time>2017-10-01T12:50:11Z</time>
      </trkpt>
      <trkpt lat="41.138617" lon="-3.633017">
        <ele>1688.0</ele>
        <time>2017-10-01T12:50:12Z</time>
      </trkpt>
      <trkpt lat="41.138650" lon="-3.632983">
        <ele>1687.0</ele>
        <time>2017-10-01T12:50:13Z</time>
      </trkpt>
      <trkpt lat="41.138700" lon="-3.632950">
        <ele>1685.0</ele>
        <time>2017-10-01T12:50:14Z</time>
      </trkpt>
      <trkpt lat="41.138750" lon="-3.632917">
        <ele>1683.0</ele>
        <time>2017-10-01T12:50:15Z</time>
      </trkpt>
      <trkpt lat="41.138817" lon="-3.632867">
        <ele>1682.0</ele>
        <time>2017-10-01T12:50:16Z</time>
      </trkpt>
      <trkpt lat="41.138867" lon="-3.632833">
        <ele>1682.0</ele>
        <time>2017-10-01T12:50:17Z</time>
      </trkpt>
      <trkpt lat="41.138900" lon="-3.632783">
        <ele>1682.0</ele>
        <time>2017-10-01T12:50:18Z</time>
      </trkpt>
      <trkpt lat="41.138950" lon="-3.632750">
        <ele>1682.0</ele>
        <time>2017-10-01T12:50:19Z</time>
      </trkpt>
      <trkpt lat="41.139000" lon="-3.632700">
        <ele>1681.0</ele>
        <time>2017-10-01T12:50:20Z</time>
      </trkpt>
      <trkpt lat="41.139050" lon="-3.632650">
        <ele>1681.0</ele>
        <time>2017-10-01T12:50:21Z</time>
      </trkpt>
      <trkpt lat="41.139100" lon="-3.632600">
        <ele>1680.0</ele>
        <time>2017-10-01T12:50:22Z</time>
      </trkpt>
      <trkpt lat="41.139133" lon="-3.632550">
        <ele>1680.0</ele>
        <time>2017-10-01T12:50:23Z</time>
      </trkpt>
      <trkpt lat="41.139183" lon="-3.632500">
        <ele>1679.0</ele>
        <time>2017-10-01T12:50:24Z</time>
      </trkpt>
      <trkpt lat="41.139250" lon="-3.632467">
        <ele>1677.0</ele>
        <time>2017-10-01T12:50:25Z</time>
      </trkpt>
      <trkpt lat="41.139300" lon="-3.632417">
        <ele>1676.0</ele>
        <time>2017-10-01T12:50:26Z</time>
      </trkpt>
      <trkpt lat="41.139367" lon="-3.632383">
        <ele>1676.0</ele>
        <time>2017-10-01T12:50:27Z</time>
      </trkpt>
      <trkpt lat="41.139417" lon="-3.632350">
        <ele>1677.0</ele>
        <time>2017-10-01T12:50:28Z</time>
      </trkpt>
      <trkpt lat="41.139467" lon="-3.632317">
        <ele>1677.0</ele>
        <time>2017-10-01T12:50:29Z</time>
      </trkpt>
      <trkpt lat="41.139500" lon="-3.632267">
        <ele>1676.0</ele>
        <time>2017-10-01T12:50:30Z</time>
      </trkpt>
      <trkpt lat="41.139567" lon="-3.632233">
        <ele>1675.0</ele>
        <time>2017-10-01T12:50:31Z</time>
      </trkpt>
      <trkpt lat="41.139617" lon="-3.632217">
        <ele>1673.0</ele>
        <time>2017-10-01T12:50:32Z</time>
      </trkpt>
      <trkpt lat="41.139683" lon="-3.632200">
        <ele>1673.0</ele>
        <time>2017-10-01T12:50:33Z</time>
      </trkpt>
      <trkpt lat="41.139733" lon="-3.632183">
        <ele>1673.0</ele>
        <time>2017-10-01T12:50:34Z</time>
      </trkpt>
      <trkpt lat="41.139783" lon="-3.632167">
        <ele>1673.0</ele>
        <time>2017-10-01T12:50:35Z</time>
      </trkpt>
      <trkpt lat="41.139833" lon="-3.632133">
        <ele>1673.0</ele>
        <time>2017-10-01T12:50:36Z</time>
      </trkpt>
      <trkpt lat="41.139883" lon="-3.632100">
        <ele>1672.0</ele>
        <time>2017-10-01T12:50:37Z</time>
      </trkpt>
      <trkpt lat="41.139950" lon="-3.632083">
        <ele>1672.0</ele>
        <time>2017-10-01T12:50:38Z</time>
      </trkpt>
      <trkpt lat="41.140017" lon="-3.632050">
        <ele>1672.0</ele>
        <time>2017-10-01T12:50:39Z</time>
      </trkpt>
      <trkpt lat="41.140067" lon="-3.632017">
        <ele>1672.0</ele>
        <time>2017-10-01T12:50:40Z</time>
      </trkpt>
      <trkpt lat="41.140117" lon="-3.631967">
        <ele>1672.0</ele>
        <time>2017-10-01T12:50:41Z</time>
      </trkpt>
      <trkpt lat="41.140183" lon="-3.631917">
        <ele>1672.0</ele>
        <time>2017-10-01T12:50:42Z</time>
      </trkpt>
      <trkpt lat="41.140233" lon="-3.631867">
        <ele>1672.0</ele>
        <time>2017-10-01T12:50:43Z</time>
      </trkpt>
      <trkpt lat="41.140283" lon="-3.631850">
        <ele>1671.0</ele>
        <time>2017-10-01T12:50:44Z</time>
      </trkpt>
      <trkpt lat="41.140333" lon="-3.631850">
        <ele>1671.0</ele>
        <time>2017-10-01T12:50:45Z</time>
      </trkpt>
      <trkpt lat="41.140367" lon="-3.631867">
        <ele>1670.0</ele>
        <time>2017-10-01T12:50:46Z</time>
      </trkpt>
      <trkpt lat="41.140400" lon="-3.631900">
        <ele>1669.0</ele>
        <time>2017-10-01T12:50:47Z</time>
      </trkpt>
      <trkpt lat="41.140433" lon="-3.631950">
        <ele>1669.0</ele>
        <time>2017-10-01T12:50:48Z</time>
      </trkpt>
      <trkpt lat="41.140483" lon="-3.631967">
        <ele>1669.0</ele>
        <time>2017-10-01T12:50:49Z</time>
      </trkpt>
      <trkpt lat="41.140533" lon="-3.631967">
        <ele>1669.0</ele>
        <time>2017-10-01T12:50:50Z</time>
      </trkpt>
      <trkpt lat="41.140583" lon="-3.631950">
        <ele>1669.0</ele>
        <time>2017-10-01T12:50:51Z</time>
      </trkpt>
      <trkpt lat="41.140633" lon="-3.631933">
        <ele>1669.0</ele>
        <time>2017-10-01T12:50:52Z</time>
      </trkpt>
      <trkpt lat="41.140667" lon="-3.631900">
        <ele>1670.0</ele>
        <time>2017-10-01T12:50:53Z</time>
      </trkpt>
      <trkpt lat="41.140717" lon="-3.631867">
        <ele>1670.0</ele>
        <time>2017-10-01T12:50:54Z</time>
      </trkpt>
      <trkpt lat="41.140750" lon="-3.631833">
        <ele>1670.0</ele>
        <time>2017-10-01T12:50:55Z</time>
      </trkpt>
      <trkpt lat="41.140800" lon="-3.631783">
        <ele>1669.0</ele>
        <time>2017-10-01T12:50:56Z</time>
      </trkpt>
      <trkpt lat="41.140850" lon="-3.631733">
        <ele>1668.0</ele>
        <time>2017-10-01T12:50:57Z</time>
      </trkpt>
      <trkpt lat="41.140900" lon="-3.631700">
        <ele>1668.0</ele>
        <time>2017-10-01T12:50:58Z</time>
      </trkpt>
      <trkpt lat="41.140950" lon="-3.631650">
        <ele>1668.0</ele>
        <time>2017-10-01T12:50:59Z</time>
      </trkpt>
      <trkpt lat="41.140983" lon="-3.631617">
        <ele>1668.0</ele>
        <time>2017-10-01T12:51:00Z</time>
      </trkpt>
      <trkpt lat="41.141033" lon="-3.631600">
        <ele>1669.0</ele>
        <time>2017-10-01T12:51:01Z</time>
      </trkpt>
      <trkpt lat="41.141067" lon="-3.631583">
        <ele>1669.0</ele>
        <time>2017-10-01T12:51:02Z</time>
      </trkpt>
      <trkpt lat="41.141100" lon="-3.631600">
        <ele>1669.0</ele>
        <time>2017-10-01T12:51:03Z</time>
      </trkpt>
      <trkpt lat="41.141133" lon="-3.631600">
        <ele>1668.0</ele>
        <time>2017-10-01T12:51:04Z</time>
      </trkpt>
      <trkpt lat="41.141183" lon="-3.631617">
        <ele>1667.0</ele>
        <time>2017-10-01T12:51:05Z</time>
      </trkpt>
      <trkpt lat="41.141233" lon="-3.631617">
        <ele>1667.0</ele>
        <time>2017-10-01T12:51:06Z</time>
      </trkpt>
      <trkpt lat="41.141267" lon="-3.631633">
        <ele>1667.0</ele>
        <time>2017-10-01T12:51:07Z</time>
      </trkpt>
      <trkpt lat="41.141317" lon="-3.631633">
        <ele>1667.0</ele>
        <time>2017-10-01T12:51:08Z</time>
      </trkpt>
      <trkpt lat="41.141350" lon="-3.631633">
        <ele>1667.0</ele>
        <time>2017-10-01T12:51:09Z</time>
      </trkpt>
      <trkpt lat="41.141400" lon="-3.631633">
        <ele>1667.0</ele>
        <time>2017-10-01T12:51:10Z</time>
      </trkpt>
      <trkpt lat="41.141467" lon="-3.631650">
        <ele>1667.0</ele>
        <time>2017-10-01T12:51:11Z</time>
      </trkpt>
      <trkpt lat="41.141517" lon="-3.631650">
        <ele>1668.0</ele>
        <time>2017-10-01T12:51:12Z</time>
      </trkpt>
      <trkpt lat="41.141550" lon="-3.631650">
        <ele>1670.0</ele>
        <time>2017-10-01T12:51:13Z</time>
      </trkpt>
      <trkpt lat="41.141583" lon="-3.631633">
        <ele>1670.0</ele>
        <time>2017-10-01T12:51:14Z</time>
      </trkpt>
      <trkpt lat="41.141617" lon="-3.631617">
        <ele>1669.0</ele>
        <time>2017-10-01T12:51:15Z</time>
      </trkpt>
      <trkpt lat="41.141667" lon="-3.631600">
        <ele>1666.0</ele>
        <time>2017-10-01T12:51:16Z</time>
      </trkpt>
      <trkpt lat="41.141717" lon="-3.631567">
        <ele>1664.0</ele>
        <time>2017-10-01T12:51:17Z</time>
      </trkpt>
      <trkpt lat="41.141767" lon="-3.631533">
        <ele>1663.0</ele>
        <time>2017-10-01T12:51:18Z</time>
      </trkpt>
      <trkpt lat="41.141833" lon="-3.631467">
        <ele>1662.0</ele>
        <time>2017-10-01T12:51:19Z</time>
      </trkpt>
      <trkpt lat="41.141867" lon="-3.631400">
        <ele>1662.0</ele>
        <time>2017-10-01T12:51:20Z</time>
      </trkpt>
      <trkpt lat="41.141917" lon="-3.631350">
        <ele>1661.0</ele>
        <time>2017-10-01T12:51:21Z</time>
      </trkpt>
      <trkpt lat="41.141950" lon="-3.631300">
        <ele>1659.0</ele>
        <time>2017-10-01T12:51:22Z</time>
      </trkpt>
      <trkpt lat="41.142000" lon="-3.631250">
        <ele>1656.0</ele>
        <time>2017-10-01T12:51:23Z</time>
      </trkpt>
      <trkpt lat="41.142067" lon="-3.631167">
        <ele>1654.0</ele>
        <time>2017-10-01T12:51:24Z</time>
      </trkpt>
      <trkpt lat="41.142117" lon="-3.631100">
        <ele>1652.0</ele>
        <time>2017-10-01T12:51:25Z</time>
      </trkpt>
      <trkpt lat="41.142183" lon="-3.631033">
        <ele>1651.0</ele>
        <time>2017-10-01T12:51:26Z</time>
      </trkpt>
      <trkpt lat="41.142217" lon="-3.630967">
        <ele>1650.0</ele>
        <time>2017-10-01T12:51:27Z</time>
      </trkpt>
      <trkpt lat="41.142250" lon="-3.630900">
        <ele>1648.0</ele>
        <time>2017-10-01T12:51:28Z</time>
      </trkpt>
      <trkpt lat="41.142300" lon="-3.630833">
        <ele>1647.0</ele>
        <time>2017-10-01T12:51:29Z</time>
      </trkpt>
      <trkpt lat="41.142350" lon="-3.630783">
        <ele>1646.0</ele>
        <time>2017-10-01T12:51:30Z</time>
      </trkpt>
      <trkpt lat="41.142400" lon="-3.630717">
        <ele>1646.0</ele>
        <time>2017-10-01T12:51:31Z</time>
      </trkpt>
      <trkpt lat="41.142450" lon="-3.630667">
        <ele>1646.0</ele>
        <time>2017-10-01T12:51:32Z</time>
      </trkpt>
      <trkpt lat="41.142500" lon="-3.630600">
        <ele>1648.0</ele>
        <time>2017-10-01T12:51:33Z</time>
      </trkpt>
      <trkpt lat="41.142533" lon="-3.630550">
        <ele>1649.0</ele>
        <time>2017-10-01T12:51:34Z</time>
      </trkpt>
      <trkpt lat="41.142567" lon="-3.630500">
        <ele>1650.0</ele>
        <time>2017-10-01T12:51:35Z</time>
      </trkpt>
      <trkpt lat="41.142600" lon="-3.630450">
        <ele>1650.0</ele>
        <time>2017-10-01T12:51:36Z</time>
      </trkpt>
      <trkpt lat="41.142633" lon="-3.630400">
        <ele>1650.0</ele>
        <time>2017-10-01T12:51:37Z</time>
      </trkpt>
      <trkpt lat="41.142683" lon="-3.630333">
        <ele>1650.0</ele>
        <time>2017-10-01T12:51:38Z</time>
      </trkpt>
      <trkpt lat="41.142733" lon="-3.630267">
        <ele>1651.0</ele>
        <time>2017-10-01T12:51:39Z</time>
      </trkpt>
      <trkpt lat="41.142783" lon="-3.630217">
        <ele>1653.0</ele>
        <time>2017-10-01T12:51:40Z</time>
      </trkpt>
      <trkpt lat="41.142800" lon="-3.630167">
        <ele>1655.0</ele>
        <time>2017-10-01T12:51:41Z</time>
      </trkpt>
      <trkpt lat="41.142833" lon="-3.630133">
        <ele>1657.0</ele>
        <time>2017-10-01T12:51:42Z</time>
      </trkpt>
      <trkpt lat="41.142850" lon="-3.630083">
        <ele>1657.0</ele>
        <time>2017-10-01T12:51:43Z</time>
      </trkpt>
      <trkpt lat="41.142883" lon="-3.630033">
        <ele>1656.0</ele>
        <time>2017-10-01T12:51:44Z</time>
      </trkpt>
      <trkpt lat="41.142917" lon="-3.629967">
        <ele>1654.0</ele>
        <time>2017-10-01T12:51:45Z</time>
      </trkpt>
      <trkpt lat="41.142967" lon="-3.629917">
        <ele>1654.0</ele>
        <time>2017-10-01T12:51:46Z</time>
      </trkpt>
      <trkpt lat="41.143033" lon="-3.629867">
        <ele>1656.0</ele>
        <time>2017-10-01T12:51:47Z</time>
      </trkpt>
      <trkpt lat="41.143067" lon="-3.629833">
        <ele>1658.0</ele>
        <time>2017-10-01T12:51:48Z</time>
      </trkpt>
      <trkpt lat="41.143083" lon="-3.629800">
        <ele>1659.0</ele>
        <time>2017-10-01T12:51:49Z</time>
      </trkpt>
      <trkpt lat="41.143117" lon="-3.629767">
        <ele>1658.0</ele>
        <time>2017-10-01T12:51:50Z</time>
      </trkpt>
      <trkpt lat="41.143150" lon="-3.629733">
        <ele>1656.0</ele>
        <time>2017-10-01T12:51:51Z</time>
      </trkpt>
      <trkpt lat="41.143200" lon="-3.629683">
        <ele>1654.0</ele>
        <time>2017-10-01T12:51:52Z</time>
      </trkpt>
      <trkpt lat="41.143250" lon="-3.629650">
        <ele>1652.0</ele>
        <time>2017-10-01T12:51:53Z</time>
      </trkpt>
      <trkpt lat="41.143300" lon="-3.629583">
        <ele>1652.0</ele>
        <time>2017-10-01T12:51:54Z</time>
      </trkpt>
      <trkpt lat="41.143350" lon="-3.629533">
        <ele>1651.0</ele>
        <time>2017-10-01T12:51:55Z</time>
      </trkpt>
      <trkpt lat="41.143383" lon="-3.629467">
        <ele>1651.0</ele>
        <time>2017-10-01T12:51:56Z</time>
      </trkpt>
      <trkpt lat="41.143433" lon="-3.629400">
        <ele>1650.0</ele>
        <time>2017-10-01T12:51:57Z</time>
      </trkpt>
      <trkpt lat="41.143467" lon="-3.629333">
        <ele>1649.0</ele>
        <time>2017-10-01T12:51:58Z</time>
      </trkpt>
      <trkpt lat="41.143517" lon="-3.629250">
        <ele>1648.0</ele>
        <time>2017-10-01T12:51:59Z</time>
      </trkpt>
      <trkpt lat="41.143550" lon="-3.629183">
        <ele>1647.0</ele>
        <time>2017-10-01T12:52:00Z</time>
      </trkpt>
      <trkpt lat="41.143600" lon="-3.629117">
        <ele>1647.0</ele>
        <time>2017-10-01T12:52:01Z</time>
      </trkpt>
      <trkpt lat="41.143633" lon="-3.629033">
        <ele>1646.0</ele>
        <time>2017-10-01T12:52:02Z</time>
      </trkpt>
      <trkpt lat="41.143667" lon="-3.628967">
        <ele>1646.0</ele>
        <time>2017-10-01T12:52:03Z</time>
      </trkpt>
      <trkpt lat="41.143700" lon="-3.628917">
        <ele>1644.0</ele>
        <time>2017-10-01T12:52:04Z</time>
      </trkpt>
      <trkpt lat="41.143750" lon="-3.628833">
        <ele>1643.0</ele>
        <time>2017-10-01T12:52:05Z</time>
      </trkpt>
      <trkpt lat="41.143800" lon="-3.628750">
        <ele>1642.0</ele>
        <time>2017-10-01T12:52:06Z</time>
      </trkpt>
      <trkpt lat="41.143833" lon="-3.628667">
        <ele>1642.0</ele>
        <time>2017-10-01T12:52:07Z</time>
      </trkpt>
      <trkpt lat="41.143883" lon="-3.628617">
        <ele>1644.0</ele>
        <time>2017-10-01T12:52:08Z</time>
      </trkpt>
      <trkpt lat="41.143933" lon="-3.628600">
        <ele>1646.0</ele>
        <time>2017-10-01T12:52:09Z</time>
      </trkpt>
      <trkpt lat="41.143967" lon="-3.628600">
        <ele>1646.0</ele>
        <time>2017-10-01T12:52:10Z</time>
      </trkpt>
      <trkpt lat="41.144000" lon="-3.628650">
        <ele>1645.0</ele>
        <time>2017-10-01T12:52:11Z</time>
      </trkpt>
      <trkpt lat="41.144033" lon="-3.628683">
        <ele>1645.0</ele>
        <time>2017-10-01T12:52:12Z</time>
      </trkpt>
      <trkpt lat="41.144083" lon="-3.628717">
        <ele>1646.0</ele>
        <time>2017-10-01T12:52:13Z</time>
      </trkpt>
      <trkpt lat="41.144133" lon="-3.628733">
        <ele>1645.0</ele>
        <time>2017-10-01T12:52:14Z</time>
      </trkpt>
      <trkpt lat="41.144183" lon="-3.628717">
        <ele>1645.0</ele>
        <time>2017-10-01T12:52:15Z</time>
      </trkpt>
      <trkpt lat="41.144233" lon="-3.628667">
        <ele>1644.0</ele>
        <time>2017-10-01T12:52:16Z</time>
      </trkpt>
      <trkpt lat="41.144300" lon="-3.628600">
        <ele>1644.0</ele>
        <time>2017-10-01T12:52:17Z</time>
      </trkpt>
      <trkpt lat="41.144333" lon="-3.628517">
        <ele>1643.0</ele>
        <time>2017-10-01T12:52:18Z</time>
      </trkpt>
      <trkpt lat="41.144367" lon="-3.628433">
        <ele>1643.0</ele>
        <time>2017-10-01T12:52:19Z</time>
      </trkpt>
      <trkpt lat="41.144400" lon="-3.628350">
        <ele>1643.0</ele>
        <time>2017-10-01T12:52:20Z</time>
      </trkpt>
      <trkpt lat="41.144433" lon="-3.628267">
        <ele>1642.0</ele>
        <time>2017-10-01T12:52:21Z</time>
      </trkpt>
      <trkpt lat="41.144467" lon="-3.628200">
        <ele>1640.0</ele>
        <time>2017-10-01T12:52:22Z</time>
      </trkpt>
      <trkpt lat="41.144517" lon="-3.628100">
        <ele>1639.0</ele>
        <time>2017-10-01T12:52:23Z</time>
      </trkpt>
      <trkpt lat="41.144550" lon="-3.628017">
        <ele>1639.0</ele>
        <time>2017-10-01T12:52:24Z</time>
      </trkpt>
      <trkpt lat="41.144583" lon="-3.627917">
        <ele>1639.0</ele>
        <time>2017-10-01T12:52:25Z</time>
      </trkpt>
      <trkpt lat="41.144617" lon="-3.627833">
        <ele>1639.0</ele>
        <time>2017-10-01T12:52:26Z</time>
      </trkpt>
      <trkpt lat="41.144650" lon="-3.627750">
        <ele>1639.0</ele>
        <time>2017-10-01T12:52:27Z</time>
      </trkpt>
      <trkpt lat="41.144667" lon="-3.627667">
        <ele>1638.0</ele>
        <time>2017-10-01T12:52:28Z</time>
      </trkpt>
      <trkpt lat="41.144700" lon="-3.627600">
        <ele>1637.0</ele>
        <time>2017-10-01T12:52:29Z</time>
      </trkpt>
      <trkpt lat="41.144750" lon="-3.627517">
        <ele>1636.0</ele>
        <time>2017-10-01T12:52:30Z</time>
      </trkpt>
      <trkpt lat="41.144783" lon="-3.627433">
        <ele>1636.0</ele>
        <time>2017-10-01T12:52:31Z</time>
      </trkpt>
      <trkpt lat="41.144817" lon="-3.627350">
        <ele>1636.0</ele>
        <time>2017-10-01T12:52:32Z</time>
      </trkpt>
      <trkpt lat="41.144833" lon="-3.627267">
        <ele>1636.0</ele>
        <time>2017-10-01T12:52:33Z</time>
      </trkpt>
      <trkpt lat="41.144850" lon="-3.627167">
        <ele>1635.0</ele>
        <time>2017-10-01T12:52:34Z</time>
      </trkpt>
      <trkpt lat="41.144867" lon="-3.627083">
        <ele>1633.0</ele>
        <time>2017-10-01T12:52:35Z</time>
      </trkpt>
      <trkpt lat="41.144900" lon="-3.626983">
        <ele>1632.0</ele>
        <time>2017-10-01T12:52:36Z</time>
      </trkpt>
      <trkpt lat="41.144933" lon="-3.626883">
        <ele>1630.0</ele>
        <time>2017-10-01T12:52:37Z</time>
      </trkpt>
      <trkpt lat="41.144967" lon="-3.626800">
        <ele>1630.0</ele>
        <time>2017-10-01T12:52:38Z</time>
      </trkpt>
      <trkpt lat="41.145000" lon="-3.626700">
        <ele>1630.0</ele>
        <time>2017-10-01T12:52:39Z</time>
      </trkpt>
      <trkpt lat="41.145033" lon="-3.626617">
        <ele>1631.0</ele>
        <time>2017-10-01T12:52:40Z</time>
      </trkpt>
      <trkpt lat="41.145050" lon="-3.626533">
        <ele>1630.0</ele>
        <time>2017-10-01T12:52:41Z</time>
      </trkpt>
      <trkpt lat="41.145083" lon="-3.626450">
        <ele>1629.0</ele>
        <time>2017-10-01T12:52:42Z</time>
      </trkpt>
      <trkpt lat="41.145117" lon="-3.626367">
        <ele>1628.0</ele>
        <time>2017-10-01T12:52:43Z</time>
      </trkpt>
      <trkpt lat="41.145150" lon="-3.626267">
        <ele>1627.0</ele>
        <time>2017-10-01T12:52:44Z</time>
      </trkpt>
      <trkpt lat="41.145183" lon="-3.626167">
        <ele>1627.0</ele>
        <time>2017-10-01T12:52:45Z</time>
      </trkpt>
      <trkpt lat="41.145233" lon="-3.626083">
        <ele>1628.0</ele>
        <time>2017-10-01T12:52:46Z</time>
      </trkpt>
      <trkpt lat="41.145250" lon="-3.625983">
        <ele>1628.0</ele>
        <time>2017-10-01T12:52:47Z</time>
      </trkpt>
      <trkpt lat="41.145283" lon="-3.625883">
        <ele>1627.0</ele>
        <time>2017-10-01T12:52:48Z</time>
      </trkpt>
      <trkpt lat="41.145317" lon="-3.625783">
        <ele>1627.0</ele>
        <time>2017-10-01T12:52:49Z</time>
      </trkpt>
      <trkpt lat="41.145350" lon="-3.625667">
        <ele>1626.0</ele>
        <time>2017-10-01T12:52:50Z</time>
      </trkpt>
      <trkpt lat="41.145383" lon="-3.625550">
        <ele>1625.0</ele>
        <time>2017-10-01T12:52:51Z</time>
      </trkpt>
      <trkpt lat="41.145417" lon="-3.625433">
        <ele>1625.0</ele>
        <time>2017-10-01T12:52:52Z</time>
      </trkpt>
      <trkpt lat="41.145450" lon="-3.625317">
        <ele>1624.0</ele>
        <time>2017-10-01T12:52:53Z</time>
      </trkpt>
      <trkpt lat="41.145483" lon="-3.625217">
        <ele>1625.0</ele>
        <time>2017-10-01T12:52:54Z</time>
      </trkpt>
      <trkpt lat="41.145517" lon="-3.625100">
        <ele>1625.0</ele>
        <time>2017-10-01T12:52:55Z</time>
      </trkpt>
      <trkpt lat="41.145550" lon="-3.625000">
        <ele>1626.0</ele>
        <time>2017-10-01T12:52:56Z</time>
      </trkpt>
      <trkpt lat="41.145600" lon="-3.624900">
        <ele>1626.0</ele>
        <time>2017-10-01T12:52:57Z</time>
      </trkpt>
      <trkpt lat="41.145650" lon="-3.624800">
        <ele>1625.0</ele>
        <time>2017-10-01T12:52:58Z</time>
      </trkpt>
      <trkpt lat="41.145700" lon="-3.624717">
        <ele>1625.0</ele>
        <time>2017-10-01T12:52:59Z</time>
      </trkpt>
      <trkpt lat="41.145750" lon="-3.624617">
        <ele>1626.0</ele>
        <time>2017-10-01T12:53:00Z</time>
      </trkpt>
      <trkpt lat="41.145800" lon="-3.624533">
        <ele>1626.0</ele>
        <time>2017-10-01T12:53:01Z</time>
      </trkpt>
      <trkpt lat="41.145850" lon="-3.624450">
        <ele>1627.0</ele>
        <time>2017-10-01T12:53:02Z</time>
      </trkpt>
      <trkpt lat="41.145917" lon="-3.624400">
        <ele>1628.0</ele>
        <time>2017-10-01T12:53:03Z</time>
      </trkpt>
      <trkpt lat="41.145967" lon="-3.624367">
        <ele>1628.0</ele>
        <time>2017-10-01T12:53:04Z</time>
      </trkpt>
      <trkpt lat="41.146033" lon="-3.624367">
        <ele>1629.0</ele>
        <time>2017-10-01T12:53:05Z</time>
      </trkpt>
      <trkpt lat="41.146067" lon="-3.624367">
        <ele>1629.0</ele>
        <time>2017-10-01T12:53:06Z</time>
      </trkpt>
      <trkpt lat="41.146100" lon="-3.624400">
        <ele>1629.0</ele>
        <time>2017-10-01T12:53:07Z</time>
      </trkpt>
      <trkpt lat="41.146100" lon="-3.624450">
        <ele>1628.0</ele>
        <time>2017-10-01T12:53:08Z</time>
      </trkpt>
      <trkpt lat="41.146100" lon="-3.624517">
        <ele>1628.0</ele>
        <time>2017-10-01T12:53:09Z</time>
      </trkpt>
      <trkpt lat="41.146083" lon="-3.624583">
        <ele>1630.0</ele>
        <time>2017-10-01T12:53:10Z</time>
      </trkpt>
      <trkpt lat="41.146067" lon="-3.624633">
        <ele>1632.0</ele>
        <time>2017-10-01T12:53:11Z</time>
      </trkpt>
      <trkpt lat="41.146017" lon="-3.624683">
        <ele>1633.0</ele>
        <time>2017-10-01T12:53:12Z</time>
      </trkpt>
      <trkpt lat="41.145983" lon="-3.624733">
        <ele>1634.0</ele>
        <time>2017-10-01T12:53:13Z</time>
      </trkpt>
      <trkpt lat="41.145950" lon="-3.624800">
        <ele>1634.0</ele>
        <time>2017-10-01T12:53:14Z</time>
      </trkpt>
      <trkpt lat="41.145950" lon="-3.624867">
        <ele>1634.0</ele>
        <time>2017-10-01T12:53:15Z</time>
      </trkpt>
      <trkpt lat="41.145983" lon="-3.624933">
        <ele>1634.0</ele>
        <time>2017-10-01T12:53:16Z</time>
      </trkpt>
      <trkpt lat="41.146017" lon="-3.624967">
        <ele>1635.0</ele>
        <time>2017-10-01T12:53:17Z</time>
      </trkpt>
      <trkpt lat="41.146067" lon="-3.624967">
        <ele>1637.0</ele>
        <time>2017-10-01T12:53:18Z</time>
      </trkpt>
      <trkpt lat="41.146100" lon="-3.624933">
        <ele>1638.0</ele>
        <time>2017-10-01T12:53:19Z</time>
      </trkpt>
      <trkpt lat="41.146150" lon="-3.624883">
        <ele>1638.0</ele>
        <time>2017-10-01T12:53:20Z</time>
      </trkpt>
      <trkpt lat="41.146200" lon="-3.624800">
        <ele>1638.0</ele>
        <time>2017-10-01T12:53:21Z</time>
      </trkpt>
      <trkpt lat="41.146233" lon="-3.624700">
        <ele>1638.0</ele>
        <time>2017-10-01T12:53:22Z</time>
      </trkpt>
      <trkpt lat="41.146250" lon="-3.624583">
        <ele>1637.0</ele>
        <time>2017-10-01T12:53:23Z</time>
      </trkpt>
      <trkpt lat="41.146250" lon="-3.624433">
        <ele>1637.0</ele>
        <time>2017-10-01T12:53:24Z</time>
      </trkpt>
      <trkpt lat="41.146250" lon="-3.624300">
        <ele>1637.0</ele>
        <time>2017-10-01T12:53:25Z</time>
      </trkpt>
      <trkpt lat="41.146250" lon="-3.624167">
        <ele>1637.0</ele>
        <time>2017-10-01T12:53:26Z</time>
      </trkpt>
      <trkpt lat="41.146267" lon="-3.624033">
        <ele>1637.0</ele>
        <time>2017-10-01T12:53:27Z</time>
      </trkpt>
      <trkpt lat="41.146283" lon="-3.623917">
        <ele>1636.0</ele>
        <time>2017-10-01T12:53:28Z</time>
      </trkpt>
      <trkpt lat="41.146283" lon="-3.623783">
        <ele>1636.0</ele>
        <time>2017-10-01T12:53:29Z</time>
      </trkpt>
      <trkpt lat="41.146300" lon="-3.623667">
        <ele>1637.0</ele>
        <time>2017-10-01T12:53:30Z</time>
      </trkpt>
      <trkpt lat="41.146317" lon="-3.623533">
        <ele>1637.0</ele>
        <time>2017-10-01T12:53:31Z</time>
      </trkpt>
      <trkpt lat="41.146333" lon="-3.623417">
        <ele>1637.0</ele>
        <time>2017-10-01T12:53:32Z</time>
      </trkpt>
      <trkpt lat="41.146350" lon="-3.623317">
        <ele>1637.0</ele>
        <time>2017-10-01T12:53:33Z</time>
      </trkpt>
      <trkpt lat="41.146367" lon="-3.623200">
        <ele>1637.0</ele>
        <time>2017-10-01T12:53:34Z</time>
      </trkpt>
      <trkpt lat="41.146383" lon="-3.623100">
        <ele>1637.0</ele>
        <time>2017-10-01T12:53:35Z</time>
      </trkpt>
      <trkpt lat="41.146417" lon="-3.623000">
        <ele>1637.0</ele>
        <time>2017-10-01T12:53:36Z</time>
      </trkpt>
      <trkpt lat="41.146467" lon="-3.622933">
        <ele>1638.0</ele>
        <time>2017-10-01T12:53:37Z</time>
      </trkpt>
      <trkpt lat="41.146500" lon="-3.622900">
        <ele>1638.0</ele>
        <time>2017-10-01T12:53:38Z</time>
      </trkpt>
      <trkpt lat="41.146533" lon="-3.622867">
        <ele>1638.0</ele>
        <time>2017-10-01T12:53:39Z</time>
      </trkpt>
      <trkpt lat="41.146567" lon="-3.622833">
        <ele>1638.0</ele>
        <time>2017-10-01T12:53:40Z</time>
      </trkpt>
      <trkpt lat="41.146600" lon="-3.622767">
        <ele>1638.0</ele>
        <time>2017-10-01T12:53:41Z</time>
      </trkpt>
      <trkpt lat="41.146633" lon="-3.622717">
        <ele>1637.0</ele>
        <time>2017-10-01T12:53:42Z</time>
      </trkpt>
      <trkpt lat="41.146667" lon="-3.622650">
        <ele>1636.0</ele>
        <time>2017-10-01T12:53:43Z</time>
      </trkpt>
      <trkpt lat="41.146717" lon="-3.622600">
        <ele>1636.0</ele>
        <time>2017-10-01T12:53:44Z</time>
      </trkpt>
      <trkpt lat="41.146750" lon="-3.622533">
        <ele>1636.0</ele>
        <time>2017-10-01T12:53:45Z</time>
      </trkpt>
      <trkpt lat="41.146783" lon="-3.622467">
        <ele>1636.0</ele>
        <time>2017-10-01T12:53:46Z</time>
      </trkpt>
      <trkpt lat="41.146817" lon="-3.622383">
        <ele>1635.0</ele>
        <time>2017-10-01T12:53:47Z</time>
      </trkpt>
      <trkpt lat="41.146850" lon="-3.622317">
        <ele>1635.0</ele>
        <time>2017-10-01T12:53:48Z</time>
      </trkpt>
      <trkpt lat="41.146900" lon="-3.622250">
        <ele>1634.0</ele>
        <time>2017-10-01T12:53:49Z</time>
      </trkpt>
      <trkpt lat="41.146933" lon="-3.622167">
        <ele>1634.0</ele>
        <time>2017-10-01T12:53:50Z</time>
      </trkpt>
      <trkpt lat="41.146983" lon="-3.622100">
        <ele>1633.0</ele>
        <time>2017-10-01T12:53:51Z</time>
      </trkpt>
      <trkpt lat="41.147017" lon="-3.622033">
        <ele>1633.0</ele>
        <time>2017-10-01T12:53:52Z</time>
      </trkpt>
      <trkpt lat="41.147067" lon="-3.621967">
        <ele>1634.0</ele>
        <time>2017-10-01T12:53:53Z</time>
      </trkpt>
      <trkpt lat="41.147100" lon="-3.621917">
        <ele>1634.0</ele>
        <time>2017-10-01T12:53:54Z</time>
      </trkpt>
      <trkpt lat="41.147133" lon="-3.621867">
        <ele>1635.0</ele>
        <time>2017-10-01T12:53:55Z</time>
      </trkpt>
      <trkpt lat="41.147167" lon="-3.621800">
        <ele>1634.0</ele>
        <time>2017-10-01T12:53:56Z</time>
      </trkpt>
      <trkpt lat="41.147217" lon="-3.621767">
        <ele>1634.0</ele>
        <time>2017-10-01T12:53:57Z</time>
      </trkpt>
      <trkpt lat="41.147250" lon="-3.621717">
        <ele>1633.0</ele>
        <time>2017-10-01T12:53:58Z</time>
      </trkpt>
      <trkpt lat="41.147317" lon="-3.621650">
        <ele>1633.0</ele>
        <time>2017-10-01T12:53:59Z</time>
      </trkpt>
      <trkpt lat="41.147350" lon="-3.621583">
        <ele>1634.0</ele>
        <time>2017-10-01T12:54:00Z</time>
      </trkpt>
      <trkpt lat="41.147400" lon="-3.621533">
        <ele>1635.0</ele>
        <time>2017-10-01T12:54:01Z</time>
      </trkpt>
      <trkpt lat="41.147433" lon="-3.621483">
        <ele>1636.0</ele>
        <time>2017-10-01T12:54:02Z</time>
      </trkpt>
      <trkpt lat="41.147483" lon="-3.621450">
        <ele>1635.0</ele>
        <time>2017-10-01T12:54:03Z</time>
      </trkpt>
      <trkpt lat="41.147533" lon="-3.621400">
        <ele>1636.0</ele>
        <time>2017-10-01T12:54:04Z</time>
      </trkpt>
      <trkpt lat="41.147583" lon="-3.621350">
        <ele>1637.0</ele>
        <time>2017-10-01T12:54:05Z</time>
      </trkpt>
      <trkpt lat="41.147617" lon="-3.621300">
        <ele>1640.0</ele>
        <time>2017-10-01T12:54:06Z</time>
      </trkpt>
      <trkpt lat="41.147650" lon="-3.621283">
        <ele>1642.0</ele>
        <time>2017-10-01T12:54:07Z</time>
      </trkpt>
      <trkpt lat="41.147683" lon="-3.621267">
        <ele>1644.0</ele>
        <time>2017-10-01T12:54:08Z</time>
      </trkpt>
      <trkpt lat="41.147700" lon="-3.621267">
        <ele>1644.0</ele>
        <time>2017-10-01T12:54:09Z</time>
      </trkpt>
      <trkpt lat="41.147717" lon="-3.621283">
        <ele>1644.0</ele>
        <time>2017-10-01T12:54:10Z</time>
      </trkpt>
      <trkpt lat="41.147733" lon="-3.621300">
        <ele>1643.0</ele>
        <time>2017-10-01T12:54:11Z</time>
      </trkpt>
      <trkpt lat="41.147767" lon="-3.621317">
        <ele>1643.0</ele>
        <time>2017-10-01T12:54:12Z</time>
      </trkpt>
      <trkpt lat="41.147800" lon="-3.621317">
        <ele>1642.0</ele>
        <time>2017-10-01T12:54:13Z</time>
      </trkpt>
      <trkpt lat="41.147833" lon="-3.621283">
        <ele>1642.0</ele>
        <time>2017-10-01T12:54:14Z</time>
      </trkpt>
      <trkpt lat="41.147850" lon="-3.621233">
        <ele>1642.0</ele>
        <time>2017-10-01T12:54:15Z</time>
      </trkpt>
      <trkpt lat="41.147883" lon="-3.621183">
        <ele>1641.0</ele>
        <time>2017-10-01T12:54:16Z</time>
      </trkpt>
      <trkpt lat="41.147900" lon="-3.621117">
        <ele>1641.0</ele>
        <time>2017-10-01T12:54:17Z</time>
      </trkpt>
      <trkpt lat="41.147917" lon="-3.621050">
        <ele>1640.0</ele>
        <time>2017-10-01T12:54:18Z</time>
      </trkpt>
      <trkpt lat="41.147950" lon="-3.620967">
        <ele>1639.0</ele>
        <time>2017-10-01T12:54:19Z</time>
      </trkpt>
      <trkpt lat="41.147967" lon="-3.620883">
        <ele>1638.0</ele>
        <time>2017-10-01T12:54:20Z</time>
      </trkpt>
      <trkpt lat="41.147983" lon="-3.620800">
        <ele>1637.0</ele>
        <time>2017-10-01T12:54:21Z</time>
      </trkpt>
      <trkpt lat="41.148000" lon="-3.620733">
        <ele>1636.0</ele>
        <time>2017-10-01T12:54:22Z</time>
      </trkpt>
      <trkpt lat="41.148017" lon="-3.620650">
        <ele>1636.0</ele>
        <time>2017-10-01T12:54:23Z</time>
      </trkpt>
      <trkpt lat="41.148050" lon="-3.620583">
        <ele>1636.0</ele>
        <time>2017-10-01T12:54:24Z</time>
      </trkpt>
      <trkpt lat="41.148067" lon="-3.620533">
        <ele>1635.0</ele>
        <time>2017-10-01T12:54:25Z</time>
      </trkpt>
      <trkpt lat="41.148100" lon="-3.620450">
        <ele>1636.0</ele>
        <time>2017-10-01T12:54:26Z</time>
      </trkpt>
      <trkpt lat="41.148117" lon="-3.620383">
        <ele>1637.0</ele>
        <time>2017-10-01T12:54:27Z</time>
      </trkpt>
      <trkpt lat="41.148133" lon="-3.620317">
        <ele>1637.0</ele>
        <time>2017-10-01T12:54:28Z</time>
      </trkpt>
      <trkpt lat="41.148150" lon="-3.620250">
        <ele>1637.0</ele>
        <time>2017-10-01T12:54:29Z</time>
      </trkpt>
      <trkpt lat="41.148167" lon="-3.620183">
        <ele>1637.0</ele>
        <time>2017-10-01T12:54:30Z</time>
      </trkpt>
      <trkpt lat="41.148200" lon="-3.620117">
        <ele>1636.0</ele>
        <time>2017-10-01T12:54:31Z</time>
      </trkpt>
      <trkpt lat="41.148233" lon="-3.620050">
        <ele>1636.0</ele>
        <time>2017-10-01T12:54:32Z</time>
      </trkpt>
      <trkpt lat="41.148267" lon="-3.619983">
        <ele>1635.0</ele>
        <time>2017-10-01T12:54:33Z</time>
      </trkpt>
      <trkpt lat="41.148300" lon="-3.619900">
        <ele>1636.0</ele>
        <time>2017-10-01T12:54:34Z</time>
      </trkpt>
      <trkpt lat="41.148333" lon="-3.619833">
        <ele>1635.0</ele>
        <time>2017-10-01T12:54:35Z</time>
      </trkpt>
      <trkpt lat="41.148350" lon="-3.619750">
        <ele>1635.0</ele>
        <time>2017-10-01T12:54:36Z</time>
      </trkpt>
      <trkpt lat="41.148383" lon="-3.619667">
        <ele>1635.0</ele>
        <time>2017-10-01T12:54:37Z</time>
      </trkpt>
      <trkpt lat="41.148417" lon="-3.619583">
        <ele>1634.0</ele>
        <time>2017-10-01T12:54:38Z</time>
      </trkpt>
      <trkpt lat="41.148433" lon="-3.619500">
        <ele>1633.0</ele>
        <time>2017-10-01T12:54:39Z</time>
      </trkpt>
      <trkpt lat="41.148467" lon="-3.619433">
        <ele>1633.0</ele>
        <time>2017-10-01T12:54:40Z</time>
      </trkpt>
      <trkpt lat="41.148500" lon="-3.619350">
        <ele>1633.0</ele>
        <time>2017-10-01T12:54:41Z</time>
      </trkpt>
      <trkpt lat="41.148517" lon="-3.619267">
        <ele>1632.0</ele>
        <time>2017-10-01T12:54:42Z</time>
      </trkpt>
      <trkpt lat="41.148550" lon="-3.619200">
        <ele>1630.0</ele>
        <time>2017-10-01T12:54:43Z</time>
      </trkpt>
      <trkpt lat="41.148583" lon="-3.619150">
        <ele>1628.0</ele>
        <time>2017-10-01T12:54:44Z</time>
      </trkpt>
      <trkpt lat="41.148617" lon="-3.619100">
        <ele>1626.0</ele>
        <time>2017-10-01T12:54:45Z</time>
      </trkpt>
      <trkpt lat="41.148650" lon="-3.619033">
        <ele>1625.0</ele>
        <time>2017-10-01T12:54:46Z</time>
      </trkpt>
      <trkpt lat="41.148683" lon="-3.618967">
        <ele>1624.0</ele>
        <time>2017-10-01T12:54:47Z</time>
      </trkpt>
      <trkpt lat="41.148717" lon="-3.618900">
        <ele>1623.0</ele>
        <time>2017-10-01T12:54:48Z</time>
      </trkpt>
      <trkpt lat="41.148733" lon="-3.618850">
        <ele>1622.0</ele>
        <time>2017-10-01T12:54:49Z</time>
      </trkpt>
      <trkpt lat="41.148767" lon="-3.618800">
        <ele>1619.0</ele>
        <time>2017-10-01T12:54:50Z</time>
      </trkpt>
      <trkpt lat="41.148817" lon="-3.618750">
        <ele>1617.0</ele>
        <time>2017-10-01T12:54:51Z</time>
      </trkpt>
      <trkpt lat="41.148867" lon="-3.618700">
        <ele>1616.0</ele>
        <time>2017-10-01T12:54:52Z</time>
      </trkpt>
      <trkpt lat="41.148917" lon="-3.618667">
        <ele>1615.0</ele>
        <time>2017-10-01T12:54:53Z</time>
      </trkpt>
      <trkpt lat="41.148967" lon="-3.618650">
        <ele>1616.0</ele>
        <time>2017-10-01T12:54:54Z</time>
      </trkpt>
      <trkpt lat="41.149000" lon="-3.618650">
        <ele>1615.0</ele>
        <time>2017-10-01T12:54:55Z</time>
      </trkpt>
      <trkpt lat="41.149033" lon="-3.618633">
        <ele>1614.0</ele>
        <time>2017-10-01T12:54:56Z</time>
      </trkpt>
      <trkpt lat="41.149067" lon="-3.618600">
        <ele>1613.0</ele>
        <time>2017-10-01T12:54:57Z</time>
      </trkpt>
      <trkpt lat="41.149117" lon="-3.618567">
        <ele>1611.0</ele>
        <time>2017-10-01T12:54:58Z</time>
      </trkpt>
      <trkpt lat="41.149167" lon="-3.618550">
        <ele>1610.0</ele>
        <time>2017-10-01T12:54:59Z</time>
      </trkpt>
      <trkpt lat="41.149233" lon="-3.618500">
        <ele>1609.0</ele>
        <time>2017-10-01T12:55:00Z</time>
      </trkpt>
      <trkpt lat="41.149267" lon="-3.618450">
        <ele>1609.0</ele>
        <time>2017-10-01T12:55:01Z</time>
      </trkpt>
      <trkpt lat="41.149317" lon="-3.618383">
        <ele>1609.0</ele>
        <time>2017-10-01T12:55:02Z</time>
      </trkpt>
      <trkpt lat="41.149367" lon="-3.618317">
        <ele>1609.0</ele>
        <time>2017-10-01T12:55:03Z</time>
      </trkpt>
      <trkpt lat="41.149417" lon="-3.618250">
        <ele>1609.0</ele>
        <time>2017-10-01T12:55:04Z</time>
      </trkpt>
      <trkpt lat="41.149450" lon="-3.618183">
        <ele>1609.0</ele>
        <time>2017-10-01T12:55:05Z</time>
      </trkpt>
      <trkpt lat="41.149483" lon="-3.618117">
        <ele>1611.0</ele>
        <time>2017-10-01T12:55:06Z</time>
      </trkpt>
      <trkpt lat="41.149517" lon="-3.618050">
        <ele>1611.0</ele>
        <time>2017-10-01T12:55:07Z</time>
      </trkpt>
      <trkpt lat="41.149550" lon="-3.617983">
        <ele>1611.0</ele>
        <time>2017-10-01T12:55:08Z</time>
      </trkpt>
      <trkpt lat="41.149600" lon="-3.617917">
        <ele>1611.0</ele>
        <time>2017-10-01T12:55:09Z</time>
      </trkpt>
      <trkpt lat="41.149633" lon="-3.617833">
        <ele>1611.0</ele>
        <time>2017-10-01T12:55:10Z</time>
      </trkpt>
      <trkpt lat="41.149667" lon="-3.617750">
        <ele>1611.0</ele>
        <time>2017-10-01T12:55:11Z</time>
      </trkpt>
      <trkpt lat="41.149700" lon="-3.617650">
        <ele>1611.0</ele>
        <time>2017-10-01T12:55:12Z</time>
      </trkpt>
      <trkpt lat="41.149750" lon="-3.617550">
        <ele>1612.0</ele>
        <time>2017-10-01T12:55:13Z</time>
      </trkpt>
      <trkpt lat="41.149783" lon="-3.617450">
        <ele>1612.0</ele>
        <time>2017-10-01T12:55:14Z</time>
      </trkpt>
      <trkpt lat="41.149833" lon="-3.617350">
        <ele>1612.0</ele>
        <time>2017-10-01T12:55:15Z</time>
      </trkpt>
      <trkpt lat="41.149850" lon="-3.617250">
        <ele>1613.0</ele>
        <time>2017-10-01T12:55:16Z</time>
      </trkpt>
      <trkpt lat="41.149883" lon="-3.617133">
        <ele>1614.0</ele>
        <time>2017-10-01T12:55:17Z</time>
      </trkpt>
      <trkpt lat="41.149917" lon="-3.617033">
        <ele>1614.0</ele>
        <time>2017-10-01T12:55:18Z</time>
      </trkpt>
      <trkpt lat="41.149950" lon="-3.616933">
        <ele>1615.0</ele>
        <time>2017-10-01T12:55:19Z</time>
      </trkpt>
      <trkpt lat="41.149983" lon="-3.616850">
        <ele>1615.0</ele>
        <time>2017-10-01T12:55:20Z</time>
      </trkpt>
      <trkpt lat="41.150000" lon="-3.616750">
        <ele>1615.0</ele>
        <time>2017-10-01T12:55:21Z</time>
      </trkpt>
      <trkpt lat="41.150033" lon="-3.616633">
        <ele>1616.0</ele>
        <time>2017-10-01T12:55:22Z</time>
      </trkpt>
      <trkpt lat="41.150050" lon="-3.616533">
        <ele>1616.0</ele>
        <time>2017-10-01T12:55:23Z</time>
      </trkpt>
      <trkpt lat="41.150083" lon="-3.616417">
        <ele>1617.0</ele>
        <time>2017-10-01T12:55:24Z</time>
      </trkpt>
      <trkpt lat="41.150117" lon="-3.616317">
        <ele>1617.0</ele>
        <time>2017-10-01T12:55:25Z</time>
      </trkpt>
      <trkpt lat="41.150150" lon="-3.616217">
        <ele>1618.0</ele>
        <time>2017-10-01T12:55:26Z</time>
      </trkpt>
      <trkpt lat="41.150183" lon="-3.616117">
        <ele>1619.0</ele>
        <time>2017-10-01T12:55:27Z</time>
      </trkpt>
      <trkpt lat="41.150217" lon="-3.616000">
        <ele>1619.0</ele>
        <time>2017-10-01T12:55:28Z</time>
      </trkpt>
      <trkpt lat="41.150250" lon="-3.615900">
        <ele>1618.0</ele>
        <time>2017-10-01T12:55:29Z</time>
      </trkpt>
      <trkpt lat="41.150283" lon="-3.615783">
        <ele>1618.0</ele>
        <time>2017-10-01T12:55:30Z</time>
      </trkpt>
      <trkpt lat="41.150300" lon="-3.615667">
        <ele>1618.0</ele>
        <time>2017-10-01T12:55:31Z</time>
      </trkpt>
      <trkpt lat="41.150333" lon="-3.615550">
        <ele>1617.0</ele>
        <time>2017-10-01T12:55:32Z</time>
      </trkpt>
      <trkpt lat="41.150367" lon="-3.615433">
        <ele>1617.0</ele>
        <time>2017-10-01T12:55:33Z</time>
      </trkpt>
      <trkpt lat="41.150400" lon="-3.615333">
        <ele>1617.0</ele>
        <time>2017-10-01T12:55:34Z</time>
      </trkpt>
      <trkpt lat="41.150450" lon="-3.615217">
        <ele>1617.0</ele>
        <time>2017-10-01T12:55:35Z</time>
      </trkpt>
      <trkpt lat="41.150467" lon="-3.615100">
        <ele>1618.0</ele>
        <time>2017-10-01T12:55:36Z</time>
      </trkpt>
      <trkpt lat="41.150500" lon="-3.614983">
        <ele>1619.0</ele>
        <time>2017-10-01T12:55:37Z</time>
      </trkpt>
      <trkpt lat="41.150533" lon="-3.614883">
        <ele>1619.0</ele>
        <time>2017-10-01T12:55:38Z</time>
      </trkpt>
      <trkpt lat="41.150567" lon="-3.614783">
        <ele>1620.0</ele>
        <time>2017-10-01T12:55:39Z</time>
      </trkpt>
      <trkpt lat="41.150600" lon="-3.614683">
        <ele>1620.0</ele>
        <time>2017-10-01T12:55:40Z</time>
      </trkpt>
      <trkpt lat="41.150650" lon="-3.614600">
        <ele>1620.0</ele>
        <time>2017-10-01T12:55:41Z</time>
      </trkpt>
      <trkpt lat="41.150700" lon="-3.614517">
        <ele>1620.0</ele>
        <time>2017-10-01T12:55:42Z</time>
      </trkpt>
      <trkpt lat="41.150750" lon="-3.614450">
        <ele>1622.0</ele>
        <time>2017-10-01T12:55:43Z</time>
      </trkpt>
      <trkpt lat="41.150783" lon="-3.614383">
        <ele>1624.0</ele>
        <time>2017-10-01T12:55:44Z</time>
      </trkpt>
      <trkpt lat="41.150817" lon="-3.614317">
        <ele>1626.0</ele>
        <time>2017-10-01T12:55:45Z</time>
      </trkpt>
      <trkpt lat="41.150850" lon="-3.614283">
        <ele>1627.0</ele>
        <time>2017-10-01T12:55:46Z</time>
      </trkpt>
      <trkpt lat="41.150883" lon="-3.614267">
        <ele>1627.0</ele>
        <time>2017-10-01T12:55:47Z</time>
      </trkpt>
      <trkpt lat="41.150917" lon="-3.614283">
        <ele>1626.0</ele>
        <time>2017-10-01T12:55:48Z</time>
      </trkpt>
      <trkpt lat="41.150967" lon="-3.614317">
        <ele>1626.0</ele>
        <time>2017-10-01T12:55:49Z</time>
      </trkpt>
      <trkpt lat="41.150967" lon="-3.614383">
        <ele>1628.0</ele>
        <time>2017-10-01T12:55:50Z</time>
      </trkpt>
      <trkpt lat="41.150933" lon="-3.614450">
        <ele>1629.0</ele>
        <time>2017-10-01T12:55:51Z</time>
      </trkpt>
      <trkpt lat="41.150867" lon="-3.614517">
        <ele>1631.0</ele>
        <time>2017-10-01T12:55:52Z</time>
      </trkpt>
      <trkpt lat="41.150783" lon="-3.614567">
        <ele>1632.0</ele>
        <time>2017-10-01T12:55:53Z</time>
      </trkpt>
      <trkpt lat="41.150717" lon="-3.614600">
        <ele>1634.0</ele>
        <time>2017-10-01T12:55:54Z</time>
      </trkpt>
      <trkpt lat="41.150667" lon="-3.614650">
        <ele>1635.0</ele>
        <time>2017-10-01T12:55:55Z</time>
      </trkpt>
      <trkpt lat="41.150650" lon="-3.614700">
        <ele>1635.0</ele>
        <time>2017-10-01T12:55:56Z</time>
      </trkpt>
      <trkpt lat="41.150667" lon="-3.614733">
        <ele>1635.0</ele>
        <time>2017-10-01T12:55:57Z</time>
      </trkpt>
      <trkpt lat="41.150683" lon="-3.614750">
        <ele>1636.0</ele>
        <time>2017-10-01T12:55:58Z</time>
      </trkpt>
      <trkpt lat="41.150733" lon="-3.614717">
        <ele>1637.0</ele>
        <time>2017-10-01T12:55:59Z</time>
      </trkpt>
      <trkpt lat="41.150767" lon="-3.614650">
        <ele>1638.0</ele>
        <time>2017-10-01T12:56:00Z</time>
      </trkpt>
      <trkpt lat="41.150800" lon="-3.614533">
        <ele>1640.0</ele>
        <time>2017-10-01T12:56:01Z</time>
      </trkpt>
      <trkpt lat="41.150817" lon="-3.614417">
        <ele>1642.0</ele>
        <time>2017-10-01T12:56:02Z</time>
      </trkpt>
      <trkpt lat="41.150817" lon="-3.614317">
        <ele>1644.0</ele>
        <time>2017-10-01T12:56:03Z</time>
      </trkpt>
      <trkpt lat="41.150850" lon="-3.614217">
        <ele>1646.0</ele>
        <time>2017-10-01T12:56:04Z</time>
      </trkpt>
      <trkpt lat="41.150883" lon="-3.614183">
        <ele>1647.0</ele>
        <time>2017-10-01T12:56:05Z</time>
      </trkpt>
      <trkpt lat="41.150933" lon="-3.614183">
        <ele>1646.0</ele>
        <time>2017-10-01T12:56:06Z</time>
      </trkpt>
      <trkpt lat="41.150967" lon="-3.614233">
        <ele>1647.0</ele>
        <time>2017-10-01T12:56:07Z</time>
      </trkpt>
      <trkpt lat="41.150967" lon="-3.614300">
        <ele>1650.0</ele>
        <time>2017-10-01T12:56:08Z</time>
      </trkpt>
      <trkpt lat="41.150950" lon="-3.614367">
        <ele>1653.0</ele>
        <time>2017-10-01T12:56:09Z</time>
      </trkpt>
      <trkpt lat="41.150883" lon="-3.614433">
        <ele>1653.0</ele>
        <time>2017-10-01T12:56:10Z</time>
      </trkpt>
      <trkpt lat="41.150800" lon="-3.614500">
        <ele>1653.0</ele>
        <time>2017-10-01T12:56:11Z</time>
      </trkpt>
      <trkpt lat="41.150717" lon="-3.614583">
        <ele>1654.0</ele>
        <time>2017-10-01T12:56:12Z</time>
      </trkpt>
      <trkpt lat="41.150633" lon="-3.614667">
        <ele>1654.0</ele>
        <time>2017-10-01T12:56:13Z</time>
      </trkpt>
      <trkpt lat="41.150550" lon="-3.614750">
        <ele>1655.0</ele>
        <time>2017-10-01T12:56:14Z</time>
      </trkpt>
      <trkpt lat="41.150483" lon="-3.614833">
        <ele>1656.0</ele>
        <time>2017-10-01T12:56:15Z</time>
      </trkpt>
      <trkpt lat="41.150433" lon="-3.614917">
        <ele>1658.0</ele>
        <time>2017-10-01T12:56:16Z</time>
      </trkpt>
      <trkpt lat="41.150417" lon="-3.614983">
        <ele>1659.0</ele>
        <time>2017-10-01T12:56:17Z</time>
      </trkpt>
      <trkpt lat="41.150400" lon="-3.615033">
        <ele>1659.0</ele>
        <time>2017-10-01T12:56:18Z</time>
      </trkpt>
      <trkpt lat="41.150417" lon="-3.615050">
        <ele>1659.0</ele>
        <time>2017-10-01T12:56:19Z</time>
      </trkpt>
      <trkpt lat="41.150433" lon="-3.615050">
        <ele>1659.0</ele>
        <time>2017-10-01T12:56:20Z</time>
      </trkpt>
      <trkpt lat="41.150467" lon="-3.615017">
        <ele>1659.0</ele>
        <time>2017-10-01T12:56:21Z</time>
      </trkpt>
      <trkpt lat="41.150500" lon="-3.614950">
        <ele>1660.0</ele>
        <time>2017-10-01T12:56:22Z</time>
      </trkpt>
      <trkpt lat="41.150517" lon="-3.614900">
        <ele>1660.0</ele>
        <time>2017-10-01T12:56:23Z</time>
      </trkpt>
      <trkpt lat="41.150550" lon="-3.614833">
        <ele>1660.0</ele>
        <time>2017-10-01T12:56:24Z</time>
      </trkpt>
      <trkpt lat="41.150567" lon="-3.614783">
        <ele>1660.0</ele>
        <time>2017-10-01T12:56:25Z</time>
      </trkpt>
      <trkpt lat="41.150583" lon="-3.614717">
        <ele>1660.0</ele>
        <time>2017-10-01T12:56:26Z</time>
      </trkpt>
      <trkpt lat="41.150600" lon="-3.614650">
        <ele>1659.0</ele>
        <time>2017-10-01T12:56:27Z</time>
      </trkpt>
      <trkpt lat="41.150633" lon="-3.614567">
        <ele>1659.0</ele>
        <time>2017-10-01T12:56:28Z</time>
      </trkpt>
      <trkpt lat="41.150650" lon="-3.614500">
        <ele>1659.0</ele>
        <time>2017-10-01T12:56:29Z</time>
      </trkpt>
      <trkpt lat="41.150683" lon="-3.614433">
        <ele>1659.0</ele>
        <time>2017-10-01T12:56:30Z</time>
      </trkpt>
      <trkpt lat="41.150700" lon="-3.614383">
        <ele>1659.0</ele>
        <time>2017-10-01T12:56:31Z</time>
      </trkpt>
      <trkpt lat="41.150733" lon="-3.614350">
        <ele>1660.0</ele>
        <time>2017-10-01T12:56:32Z</time>
      </trkpt>
      <trkpt lat="41.150767" lon="-3.614317">
        <ele>1661.0</ele>
        <time>2017-10-01T12:56:33Z</time>
      </trkpt>
      <trkpt lat="41.150783" lon="-3.614317">
        <ele>1662.0</ele>
        <time>2017-10-01T12:56:34Z</time>
      </trkpt>
      <trkpt lat="41.150800" lon="-3.614350">
        <ele>1663.0</ele>
        <time>2017-10-01T12:56:35Z</time>
      </trkpt>
      <trkpt lat="41.150800" lon="-3.614400">
        <ele>1663.0</ele>
        <time>2017-10-01T12:56:36Z</time>
      </trkpt>
      <trkpt lat="41.150767" lon="-3.614467">
        <ele>1662.0</ele>
        <time>2017-10-01T12:56:37Z</time>
      </trkpt>
      <trkpt lat="41.150717" lon="-3.614533">
        <ele>1661.0</ele>
        <time>2017-10-01T12:56:38Z</time>
      </trkpt>
      <trkpt lat="41.150683" lon="-3.614617">
        <ele>1661.0</ele>
        <time>2017-10-01T12:56:39Z</time>
      </trkpt>
      <trkpt lat="41.150633" lon="-3.614683">
        <ele>1661.0</ele>
        <time>2017-10-01T12:56:40Z</time>
      </trkpt>
      <trkpt lat="41.150583" lon="-3.614767">
        <ele>1662.0</ele>
        <time>2017-10-01T12:56:41Z</time>
      </trkpt>
      <trkpt lat="41.150550" lon="-3.614850">
        <ele>1663.0</ele>
        <time>2017-10-01T12:56:42Z</time>
      </trkpt>
      <trkpt lat="41.150533" lon="-3.614917">
        <ele>1665.0</ele>
        <time>2017-10-01T12:56:43Z</time>
      </trkpt>
      <trkpt lat="41.150517" lon="-3.614967">
        <ele>1666.0</ele>
        <time>2017-10-01T12:56:44Z</time>
      </trkpt>
      <trkpt lat="41.150500" lon="-3.615000">
        <ele>1667.0</ele>
        <time>2017-10-01T12:56:45Z</time>
      </trkpt>
      <trkpt lat="41.150500" lon="-3.615033">
        <ele>1668.0</ele>
        <time>2017-10-01T12:56:46Z</time>
      </trkpt>
      <trkpt lat="41.150517" lon="-3.615067">
        <ele>1668.0</ele>
        <time>2017-10-01T12:56:47Z</time>
      </trkpt>
      <trkpt lat="41.150533" lon="-3.615083">
        <ele>1667.0</ele>
        <time>2017-10-01T12:56:48Z</time>
      </trkpt>
      <trkpt lat="41.150550" lon="-3.615083">
        <ele>1667.0</ele>
        <time>2017-10-01T12:56:49Z</time>
      </trkpt>
      <trkpt lat="41.150567" lon="-3.615083">
        <ele>1667.0</ele>
        <time>2017-10-01T12:56:50Z</time>
      </trkpt>
      <trkpt lat="41.150600" lon="-3.615067">
        <ele>1667.0</ele>
        <time>2017-10-01T12:56:51Z</time>
      </trkpt>
      <trkpt lat="41.150617" lon="-3.615033">
        <ele>1668.0</ele>
        <time>2017-10-01T12:56:52Z</time>
      </trkpt>
      <trkpt lat="41.150650" lon="-3.615000">
        <ele>1668.0</ele>
        <time>2017-10-01T12:56:53Z</time>
      </trkpt>
      <trkpt lat="41.150667" lon="-3.614967">
        <ele>1669.0</ele>
        <time>2017-10-01T12:56:54Z</time>
      </trkpt>
      <trkpt lat="41.150683" lon="-3.614933">
        <ele>1669.0</ele>
        <time>2017-10-01T12:56:55Z</time>
      </trkpt>
      <trkpt lat="41.150717" lon="-3.614900">
        <ele>1669.0</ele>
        <time>2017-10-01T12:56:56Z</time>
      </trkpt>
      <trkpt lat="41.150750" lon="-3.614833">
        <ele>1669.0</ele>
        <time>2017-10-01T12:56:57Z</time>
      </trkpt>
      <trkpt lat="41.150767" lon="-3.614750">
        <ele>1670.0</ele>
        <time>2017-10-01T12:56:58Z</time>
      </trkpt>
      <trkpt lat="41.150783" lon="-3.614667">
        <ele>1670.0</ele>
        <time>2017-10-01T12:56:59Z</time>
      </trkpt>
      <trkpt lat="41.150800" lon="-3.614583">
        <ele>1671.0</ele>
        <time>2017-10-01T12:57:00Z</time>
      </trkpt>
      <trkpt lat="41.150817" lon="-3.614500">
        <ele>1671.0</ele>
        <time>2017-10-01T12:57:01Z</time>
      </trkpt>
      <trkpt lat="41.150850" lon="-3.614450">
        <ele>1671.0</ele>
        <time>2017-10-01T12:57:02Z</time>
      </trkpt>
      <trkpt lat="41.150867" lon="-3.614400">
        <ele>1671.0</ele>
        <time>2017-10-01T12:57:03Z</time>
      </trkpt>
      <trkpt lat="41.150900" lon="-3.614383">
        <ele>1670.0</ele>
        <time>2017-10-01T12:57:04Z</time>
      </trkpt>
      <trkpt lat="41.150917" lon="-3.614400">
        <ele>1670.0</ele>
        <time>2017-10-01T12:57:05Z</time>
      </trkpt>
      <trkpt lat="41.150933" lon="-3.614467">
        <ele>1669.0</ele>
        <time>2017-10-01T12:57:06Z</time>
      </trkpt>
      <trkpt lat="41.150917" lon="-3.614533">
        <ele>1670.0</ele>
        <time>2017-10-01T12:57:07Z</time>
      </trkpt>
      <trkpt lat="41.150900" lon="-3.614600">
        <ele>1671.0</ele>
        <time>2017-10-01T12:57:08Z</time>
      </trkpt>
      <trkpt lat="41.150867" lon="-3.614650">
        <ele>1672.0</ele>
        <time>2017-10-01T12:57:09Z</time>
      </trkpt>
      <trkpt lat="41.150833" lon="-3.614700">
        <ele>1672.0</ele>
        <time>2017-10-01T12:57:10Z</time>
      </trkpt>
      <trkpt lat="41.150800" lon="-3.614750">
        <ele>1672.0</ele>
        <time>2017-10-01T12:57:11Z</time>
      </trkpt>
      <trkpt lat="41.150767" lon="-3.614817">
        <ele>1671.0</ele>
        <time>2017-10-01T12:57:12Z</time>
      </trkpt>
      <trkpt lat="41.150717" lon="-3.614883">
        <ele>1670.0</ele>
        <time>2017-10-01T12:57:13Z</time>
      </trkpt>
      <trkpt lat="41.150683" lon="-3.614967">
        <ele>1670.0</ele>
        <time>2017-10-01T12:57:14Z</time>
      </trkpt>
      <trkpt lat="41.150617" lon="-3.615033">
        <ele>1671.0</ele>
        <time>2017-10-01T12:57:15Z</time>
      </trkpt>
      <trkpt lat="41.150567" lon="-3.615100">
        <ele>1671.0</ele>
        <time>2017-10-01T12:57:16Z</time>
      </trkpt>
      <trkpt lat="41.150500" lon="-3.615167">
        <ele>1671.0</ele>
        <time>2017-10-01T12:57:17Z</time>
      </trkpt>
      <trkpt lat="41.150433" lon="-3.615233">
        <ele>1671.0</ele>
        <time>2017-10-01T12:57:18Z</time>
      </trkpt>
      <trkpt lat="41.150367" lon="-3.615300">
        <ele>1670.0</ele>
        <time>2017-10-01T12:57:19Z</time>
      </trkpt>
      <trkpt lat="41.150300" lon="-3.615383">
        <ele>1669.0</ele>
        <time>2017-10-01T12:57:20Z</time>
      </trkpt>
      <trkpt lat="41.150233" lon="-3.615467">
        <ele>1669.0</ele>
        <time>2017-10-01T12:57:21Z</time>
      </trkpt>
      <trkpt lat="41.150183" lon="-3.615533">
        <ele>1669.0</ele>
        <time>2017-10-01T12:57:22Z</time>
      </trkpt>
      <trkpt lat="41.150150" lon="-3.615600">
        <ele>1669.0</ele>
        <time>2017-10-01T12:57:23Z</time>
      </trkpt>
      <trkpt lat="41.150100" lon="-3.615667">
        <ele>1668.0</ele>
        <time>2017-10-01T12:57:24Z</time>
      </trkpt>
      <trkpt lat="41.150083" lon="-3.615733">
        <ele>1667.0</ele>
        <time>2017-10-01T12:57:25Z</time>
      </trkpt>
      <trkpt lat="41.150050" lon="-3.615800">
        <ele>1666.0</ele>
        <time>2017-10-01T12:57:26Z</time>
      </trkpt>
      <trkpt lat="41.150033" lon="-3.615867">
        <ele>1665.0</ele>
        <time>2017-10-01T12:57:27Z</time>
      </trkpt>
      <trkpt lat="41.150017" lon="-3.615933">
        <ele>1664.0</ele>
        <time>2017-10-01T12:57:28Z</time>
      </trkpt>
      <trkpt lat="41.150000" lon="-3.615983">
        <ele>1664.0</ele>
        <time>2017-10-01T12:57:29Z</time>
      </trkpt>
      <trkpt lat="41.150000" lon="-3.616033">
        <ele>1663.0</ele>
        <time>2017-10-01T12:57:30Z</time>
      </trkpt>
      <trkpt lat="41.150000" lon="-3.616083">
        <ele>1663.0</ele>
        <time>2017-10-01T12:57:31Z</time>
      </trkpt>
      <trkpt lat="41.150000" lon="-3.616117">
        <ele>1662.0</ele>
        <time>2017-10-01T12:57:32Z</time>
      </trkpt>
      <trkpt lat="41.150033" lon="-3.616133">
        <ele>1661.0</ele>
        <time>2017-10-01T12:57:33Z</time>
      </trkpt>
      <trkpt lat="41.150050" lon="-3.616117">
        <ele>1660.0</ele>
        <time>2017-10-01T12:57:34Z</time>
      </trkpt>
      <trkpt lat="41.150067" lon="-3.616083">
        <ele>1659.0</ele>
        <time>2017-10-01T12:57:35Z</time>
      </trkpt>
      <trkpt lat="41.150100" lon="-3.616050">
        <ele>1658.0</ele>
        <time>2017-10-01T12:57:36Z</time>
      </trkpt>
      <trkpt lat="41.150117" lon="-3.616000">
        <ele>1657.0</ele>
        <time>2017-10-01T12:57:37Z</time>
      </trkpt>
      <trkpt lat="41.150133" lon="-3.615933">
        <ele>1656.0</ele>
        <time>2017-10-01T12:57:38Z</time>
      </trkpt>
      <trkpt lat="41.150167" lon="-3.615867">
        <ele>1654.0</ele>
        <time>2017-10-01T12:57:39Z</time>
      </trkpt>
      <trkpt lat="41.150200" lon="-3.615783">
        <ele>1654.0</ele>
        <time>2017-10-01T12:57:40Z</time>
      </trkpt>
      <trkpt lat="41.150217" lon="-3.615717">
        <ele>1654.0</ele>
        <time>2017-10-01T12:57:41Z</time>
      </trkpt>
      <trkpt lat="41.150250" lon="-3.615650">
        <ele>1654.0</ele>
        <time>2017-10-01T12:57:42Z</time>
      </trkpt>
      <trkpt lat="41.150267" lon="-3.615583">
        <ele>1654.0</ele>
        <time>2017-10-01T12:57:43Z</time>
      </trkpt>
      <trkpt lat="41.150283" lon="-3.615500">
        <ele>1654.0</ele>
        <time>2017-10-01T12:57:44Z</time>
      </trkpt>
      <trkpt lat="41.150300" lon="-3.615433">
        <ele>1653.0</ele>
        <time>2017-10-01T12:57:45Z</time>
      </trkpt>
      <trkpt lat="41.150333" lon="-3.615367">
        <ele>1652.0</ele>
        <time>2017-10-01T12:57:46Z</time>
      </trkpt>
      <trkpt lat="41.150367" lon="-3.615300">
        <ele>1651.0</ele>
        <time>2017-10-01T12:57:47Z</time>
      </trkpt>
      <trkpt lat="41.150400" lon="-3.615250">
        <ele>1651.0</ele>
        <time>2017-10-01T12:57:48Z</time>
      </trkpt>
      <trkpt lat="41.150417" lon="-3.615183">
        <ele>1651.0</ele>
        <time>2017-10-01T12:57:49Z</time>
      </trkpt>
      <trkpt lat="41.150450" lon="-3.615117">
        <ele>1651.0</ele>
        <time>2017-10-01T12:57:50Z</time>
      </trkpt>
      <trkpt lat="41.150467" lon="-3.615067">
        <ele>1650.0</ele>
        <time>2017-10-01T12:57:51Z</time>
      </trkpt>
      <trkpt lat="41.150500" lon="-3.615000">
        <ele>1649.0</ele>
        <time>2017-10-01T12:57:52Z</time>
      </trkpt>
      <trkpt lat="41.150533" lon="-3.614933">
        <ele>1648.0</ele>
        <time>2017-10-01T12:57:53Z</time>
      </trkpt>
      <trkpt lat="41.150567" lon="-3.614867">
        <ele>1648.0</ele>
        <time>2017-10-01T12:57:54Z</time>
      </trkpt>
      <trkpt lat="41.150600" lon="-3.614817">
        <ele>1648.0</ele>
        <time>2017-10-01T12:57:55Z</time>
      </trkpt>
      <trkpt lat="41.150650" lon="-3.614767">
        <ele>1648.0</ele>
        <time>2017-10-01T12:57:56Z</time>
      </trkpt>
      <trkpt lat="41.150683" lon="-3.614717">
        <ele>1648.0</ele>
        <time>2017-10-01T12:57:57Z</time>
      </trkpt>
      <trkpt lat="41.150717" lon="-3.614683">
        <ele>1649.0</ele>
        <time>2017-10-01T12:57:58Z</time>
      </trkpt>
      <trkpt lat="41.150750" lon="-3.614633">
        <ele>1649.0</ele>
        <time>2017-10-01T12:57:59Z</time>
      </trkpt>
      <trkpt lat="41.150783" lon="-3.614583">
        <ele>1650.0</ele>
        <time>2017-10-01T12:58:00Z</time>
      </trkpt>
      <trkpt lat="41.150817" lon="-3.614533">
        <ele>1650.0</ele>
        <time>2017-10-01T12:58:01Z</time>
      </trkpt>
      <trkpt lat="41.150833" lon="-3.614467">
        <ele>1650.0</ele>
        <time>2017-10-01T12:58:02Z</time>
      </trkpt>
      <trkpt lat="41.150867" lon="-3.614400">
        <ele>1650.0</ele>
        <time>2017-10-01T12:58:03Z</time>
      </trkpt>
      <trkpt lat="41.150900" lon="-3.614317">
        <ele>1650.0</ele>
        <time>2017-10-01T12:58:04Z</time>
      </trkpt>
      <trkpt lat="41.150933" lon="-3.614250">
        <ele>1651.0</ele>
        <time>2017-10-01T12:58:05Z</time>
      </trkpt>
      <trkpt lat="41.150983" lon="-3.614183">
        <ele>1652.0</ele>
        <time>2017-10-01T12:58:06Z</time>
      </trkpt>
      <trkpt lat="41.151017" lon="-3.614117">
        <ele>1653.0</ele>
        <time>2017-10-01T12:58:07Z</time>
      </trkpt>
      <trkpt lat="41.151033" lon="-3.614050">
        <ele>1653.0</ele>
        <time>2017-10-01T12:58:08Z</time>
      </trkpt>
      <trkpt lat="41.151067" lon="-3.613967">
        <ele>1653.0</ele>
        <time>2017-10-01T12:58:09Z</time>
      </trkpt>
      <trkpt lat="41.151100" lon="-3.613883">
        <ele>1652.0</ele>
        <time>2017-10-01T12:58:10Z</time>
      </trkpt>
      <trkpt lat="41.151133" lon="-3.613783">
        <ele>1651.0</ele>
        <time>2017-10-01T12:58:11Z</time>
      </trkpt>
      <trkpt lat="41.151167" lon="-3.613700">
        <ele>1651.0</ele>
        <time>2017-10-01T12:58:12Z</time>
      </trkpt>
      <trkpt lat="41.151200" lon="-3.613633">
        <ele>1651.0</ele>
        <time>2017-10-01T12:58:13Z</time>
      </trkpt>
      <trkpt lat="41.151233" lon="-3.613583">
        <ele>1651.0</ele>
        <time>2017-10-01T12:58:14Z</time>
      </trkpt>
      <trkpt lat="41.151267" lon="-3.613517">
        <ele>1651.0</ele>
        <time>2017-10-01T12:58:15Z</time>
      </trkpt>
      <trkpt lat="41.151283" lon="-3.613450">
        <ele>1651.0</ele>
        <time>2017-10-01T12:58:16Z</time>
      </trkpt>
      <trkpt lat="41.151333" lon="-3.613383">
        <ele>1650.0</ele>
        <time>2017-10-01T12:58:17Z</time>
      </trkpt>
      <trkpt lat="41.151367" lon="-3.613317">
        <ele>1651.0</ele>
        <time>2017-10-01T12:58:18Z</time>
      </trkpt>
      <trkpt lat="41.151383" lon="-3.613250">
        <ele>1652.0</ele>
        <time>2017-10-01T12:58:19Z</time>
      </trkpt>
      <trkpt lat="41.151417" lon="-3.613183">
        <ele>1653.0</ele>
        <time>2017-10-01T12:58:20Z</time>
      </trkpt>
      <trkpt lat="41.151433" lon="-3.613133">
        <ele>1654.0</ele>
        <time>2017-10-01T12:58:21Z</time>
      </trkpt>
      <trkpt lat="41.151450" lon="-3.613100">
        <ele>1654.0</ele>
        <time>2017-10-01T12:58:22Z</time>
      </trkpt>
      <trkpt lat="41.151483" lon="-3.613067">
        <ele>1653.0</ele>
        <time>2017-10-01T12:58:23Z</time>
      </trkpt>
      <trkpt lat="41.151517" lon="-3.613033">
        <ele>1652.0</ele>
        <time>2017-10-01T12:58:24Z</time>
      </trkpt>
      <trkpt lat="41.151550" lon="-3.612983">
        <ele>1652.0</ele>
        <time>2017-10-01T12:58:25Z</time>
      </trkpt>
      <trkpt lat="41.151583" lon="-3.612933">
        <ele>1652.0</ele>
        <time>2017-10-01T12:58:26Z</time>
      </trkpt>
      <trkpt lat="41.151617" lon="-3.612867">
        <ele>1653.0</ele>
        <time>2017-10-01T12:58:27Z</time>
      </trkpt>
      <trkpt lat="41.151650" lon="-3.612817">
        <ele>1654.0</ele>
        <time>2017-10-01T12:58:28Z</time>
      </trkpt>
      <trkpt lat="41.151667" lon="-3.612767">
        <ele>1655.0</ele>
        <time>2017-10-01T12:58:29Z</time>
      </trkpt>
      <trkpt lat="41.151700" lon="-3.612717">
        <ele>1656.0</ele>
        <time>2017-10-01T12:58:30Z</time>
      </trkpt>
      <trkpt lat="41.151733" lon="-3.612683">
        <ele>1655.0</ele>
        <time>2017-10-01T12:58:31Z</time>
      </trkpt>
      <trkpt lat="41.151767" lon="-3.612667">
        <ele>1655.0</ele>
        <time>2017-10-01T12:58:32Z</time>
      </trkpt>
      <trkpt lat="41.151800" lon="-3.612633">
        <ele>1655.0</ele>
        <time>2017-10-01T12:58:33Z</time>
      </trkpt>
      <trkpt lat="41.151833" lon="-3.612600">
        <ele>1655.0</ele>
        <time>2017-10-01T12:58:34Z</time>
      </trkpt>
      <trkpt lat="41.151883" lon="-3.612567">
        <ele>1654.0</ele>
        <time>2017-10-01T12:58:35Z</time>
      </trkpt>
      <trkpt lat="41.151917" lon="-3.612517">
        <ele>1654.0</ele>
        <time>2017-10-01T12:58:36Z</time>
      </trkpt>
      <trkpt lat="41.151950" lon="-3.612450">
        <ele>1654.0</ele>
        <time>2017-10-01T12:58:37Z</time>
      </trkpt>
      <trkpt lat="41.152000" lon="-3.612400">
        <ele>1654.0</ele>
        <time>2017-10-01T12:58:38Z</time>
      </trkpt>
      <trkpt lat="41.152033" lon="-3.612350">
        <ele>1653.0</ele>
        <time>2017-10-01T12:58:39Z</time>
      </trkpt>
      <trkpt lat="41.152083" lon="-3.612300">
        <ele>1653.0</ele>
        <time>2017-10-01T12:58:40Z</time>
      </trkpt>
      <trkpt lat="41.152117" lon="-3.612233">
        <ele>1652.0</ele>
        <time>2017-10-01T12:58:41Z</time>
      </trkpt>
      <trkpt lat="41.152150" lon="-3.612167">
        <ele>1651.0</ele>
        <time>2017-10-01T12:58:42Z</time>
      </trkpt>
      <trkpt lat="41.152200" lon="-3.612100">
        <ele>1650.0</ele>
        <time>2017-10-01T12:58:43Z</time>
      </trkpt>
      <trkpt lat="41.152233" lon="-3.612033">
        <ele>1649.0</ele>
        <time>2017-10-01T12:58:44Z</time>
      </trkpt>
      <trkpt lat="41.152283" lon="-3.611967">
        <ele>1648.0</ele>
        <time>2017-10-01T12:58:45Z</time>
      </trkpt>
      <trkpt lat="41.152317" lon="-3.611900">
        <ele>1648.0</ele>
        <time>2017-10-01T12:58:46Z</time>
      </trkpt>
      <trkpt lat="41.152350" lon="-3.611850">
        <ele>1648.0</ele>
        <time>2017-10-01T12:58:47Z</time>
      </trkpt>
      <trkpt lat="41.152383" lon="-3.611800">
        <ele>1648.0</ele>
        <time>2017-10-01T12:58:48Z</time>
      </trkpt>
      <trkpt lat="41.152433" lon="-3.611750">
        <ele>1648.0</ele>
        <time>2017-10-01T12:58:49Z</time>
      </trkpt>
      <trkpt lat="41.152467" lon="-3.611683">
        <ele>1648.0</ele>
        <time>2017-10-01T12:58:50Z</time>
      </trkpt>
      <trkpt lat="41.152517" lon="-3.611633">
        <ele>1649.0</ele>
        <time>2017-10-01T12:58:51Z</time>
      </trkpt>
      <trkpt lat="41.152550" lon="-3.611600">
        <ele>1651.0</ele>
        <time>2017-10-01T12:58:52Z</time>
      </trkpt>
      <trkpt lat="41.152583" lon="-3.611567">
        <ele>1651.0</ele>
        <time>2017-10-01T12:58:53Z</time>
      </trkpt>
      <trkpt lat="41.152617" lon="-3.611517">
        <ele>1652.0</ele>
        <time>2017-10-01T12:58:54Z</time>
      </trkpt>
      <trkpt lat="41.152650" lon="-3.611483">
        <ele>1652.0</ele>
        <time>2017-10-01T12:58:55Z</time>
      </trkpt>
      <trkpt lat="41.152700" lon="-3.611433">
        <ele>1653.0</ele>
        <time>2017-10-01T12:58:56Z</time>
      </trkpt>
      <trkpt lat="41.152750" lon="-3.611383">
        <ele>1654.0</ele>
        <time>2017-10-01T12:58:57Z</time>
      </trkpt>
      <trkpt lat="41.152783" lon="-3.611350">
        <ele>1655.0</ele>
        <time>2017-10-01T12:58:58Z</time>
      </trkpt>
      <trkpt lat="41.152817" lon="-3.611300">
        <ele>1657.0</ele>
        <time>2017-10-01T12:58:59Z</time>
      </trkpt>
      <trkpt lat="41.152850" lon="-3.611267">
        <ele>1658.0</ele>
        <time>2017-10-01T12:59:00Z</time>
      </trkpt>
      <trkpt lat="41.152883" lon="-3.611233">
        <ele>1659.0</ele>
        <time>2017-10-01T12:59:01Z</time>
      </trkpt>
      <trkpt lat="41.152917" lon="-3.611200">
        <ele>1659.0</ele>
        <time>2017-10-01T12:59:02Z</time>
      </trkpt>
      <trkpt lat="41.152950" lon="-3.611167">
        <ele>1660.0</ele>
        <time>2017-10-01T12:59:03Z</time>
      </trkpt>
      <trkpt lat="41.153000" lon="-3.611133">
        <ele>1662.0</ele>
        <time>2017-10-01T12:59:04Z</time>
      </trkpt>
      <trkpt lat="41.153033" lon="-3.611100">
        <ele>1663.0</ele>
        <time>2017-10-01T12:59:05Z</time>
      </trkpt>
      <trkpt lat="41.153067" lon="-3.611067">
        <ele>1664.0</ele>
        <time>2017-10-01T12:59:06Z</time>
      </trkpt>
      <trkpt lat="41.153083" lon="-3.611017">
        <ele>1664.0</ele>
        <time>2017-10-01T12:59:07Z</time>
      </trkpt>
      <trkpt lat="41.153117" lon="-3.610983">
        <ele>1663.0</ele>
        <time>2017-10-01T12:59:08Z</time>
      </trkpt>
      <trkpt lat="41.153150" lon="-3.610917">
        <ele>1662.0</ele>
        <time>2017-10-01T12:59:09Z</time>
      </trkpt>
      <trkpt lat="41.153183" lon="-3.610850">
        <ele>1661.0</ele>
        <time>2017-10-01T12:59:10Z</time>
      </trkpt>
      <trkpt lat="41.153217" lon="-3.610783">
        <ele>1663.0</ele>
        <time>2017-10-01T12:59:11Z</time>
      </trkpt>
      <trkpt lat="41.153233" lon="-3.610700">
        <ele>1666.0</ele>
        <time>2017-10-01T12:59:12Z</time>
      </trkpt>
      <trkpt lat="41.153250" lon="-3.610650">
        <ele>1667.0</ele>
        <time>2017-10-01T12:59:13Z</time>
      </trkpt>
      <trkpt lat="41.153250" lon="-3.610600">
        <ele>1668.0</ele>
        <time>2017-10-01T12:59:14Z</time>
      </trkpt>
      <trkpt lat="41.153250" lon="-3.610550">
        <ele>1667.0</ele>
        <time>2017-10-01T12:59:15Z</time>
      </trkpt>
      <trkpt lat="41.153283" lon="-3.610500">
        <ele>1666.0</ele>
        <time>2017-10-01T12:59:16Z</time>
      </trkpt>
      <trkpt lat="41.153300" lon="-3.610467">
        <ele>1666.0</ele>
        <time>2017-10-01T12:59:17Z</time>
      </trkpt>
      <trkpt lat="41.153333" lon="-3.610433">
        <ele>1668.0</ele>
        <time>2017-10-01T12:59:18Z</time>
      </trkpt>
      <trkpt lat="41.153350" lon="-3.610400">
        <ele>1669.0</ele>
        <time>2017-10-01T12:59:19Z</time>
      </trkpt>
      <trkpt lat="41.153367" lon="-3.610383">
        <ele>1670.0</ele>
        <time>2017-10-01T12:59:20Z</time>
      </trkpt>
      <trkpt lat="41.153367" lon="-3.610350">
        <ele>1670.0</ele>
        <time>2017-10-01T12:59:21Z</time>
      </trkpt>
      <trkpt lat="41.153383" lon="-3.610317">
        <ele>1668.0</ele>
        <time>2017-10-01T12:59:22Z</time>
      </trkpt>
      <trkpt lat="41.153417" lon="-3.610283">
        <ele>1667.0</ele>
        <time>2017-10-01T12:59:23Z</time>
      </trkpt>
      <trkpt lat="41.153450" lon="-3.610233">
        <ele>1665.0</ele>
        <time>2017-10-01T12:59:24Z</time>
      </trkpt>
      <trkpt lat="41.153467" lon="-3.610167">
        <ele>1665.0</ele>
        <time>2017-10-01T12:59:25Z</time>
      </trkpt>
      <trkpt lat="41.153500" lon="-3.610117">
        <ele>1666.0</ele>
        <time>2017-10-01T12:59:26Z</time>
      </trkpt>
      <trkpt lat="41.153517" lon="-3.610050">
        <ele>1665.0</ele>
        <time>2017-10-01T12:59:27Z</time>
      </trkpt>
      <trkpt lat="41.153533" lon="-3.609983">
        <ele>1664.0</ele>
        <time>2017-10-01T12:59:28Z</time>
      </trkpt>
      <trkpt lat="41.153550" lon="-3.609933">
        <ele>1662.0</ele>
        <time>2017-10-01T12:59:29Z</time>
      </trkpt>
      <trkpt lat="41.153567" lon="-3.609883">
        <ele>1660.0</ele>
        <time>2017-10-01T12:59:30Z</time>
      </trkpt>
      <trkpt lat="41.153600" lon="-3.609817">
        <ele>1658.0</ele>
        <time>2017-10-01T12:59:31Z</time>
      </trkpt>
      <trkpt lat="41.153633" lon="-3.609733">
        <ele>1657.0</ele>
        <time>2017-10-01T12:59:32Z</time>
      </trkpt>
      <trkpt lat="41.153667" lon="-3.609650">
        <ele>1658.0</ele>
        <time>2017-10-01T12:59:33Z</time>
      </trkpt>
      <trkpt lat="41.153700" lon="-3.609583">
        <ele>1658.0</ele>
        <time>2017-10-01T12:59:34Z</time>
      </trkpt>
      <trkpt lat="41.153750" lon="-3.609550">
        <ele>1657.0</ele>
        <time>2017-10-01T12:59:35Z</time>
      </trkpt>
      <trkpt lat="41.153800" lon="-3.609533">
        <ele>1656.0</ele>
        <time>2017-10-01T12:59:36Z</time>
      </trkpt>
      <trkpt lat="41.153850" lon="-3.609517">
        <ele>1657.0</ele>
        <time>2017-10-01T12:59:37Z</time>
      </trkpt>
      <trkpt lat="41.153900" lon="-3.609500">
        <ele>1659.0</ele>
        <time>2017-10-01T12:59:38Z</time>
      </trkpt>
      <trkpt lat="41.153933" lon="-3.609483">
        <ele>1661.0</ele>
        <time>2017-10-01T12:59:39Z</time>
      </trkpt>
      <trkpt lat="41.153967" lon="-3.609483">
        <ele>1662.0</ele>
        <time>2017-10-01T12:59:40Z</time>
      </trkpt>
      <trkpt lat="41.154000" lon="-3.609500">
        <ele>1663.0</ele>
        <time>2017-10-01T12:59:41Z</time>
      </trkpt>
      <trkpt lat="41.154050" lon="-3.609500">
        <ele>1666.0</ele>
        <time>2017-10-01T12:59:42Z</time>
      </trkpt>
      <trkpt lat="41.154067" lon="-3.609500">
        <ele>1668.0</ele>
        <time>2017-10-01T12:59:43Z</time>
      </trkpt>
      <trkpt lat="41.154100" lon="-3.609517">
        <ele>1671.0</ele>
        <time>2017-10-01T12:59:44Z</time>
      </trkpt>
      <trkpt lat="41.154117" lon="-3.609500">
        <ele>1672.0</ele>
        <time>2017-10-01T12:59:45Z</time>
      </trkpt>
      <trkpt lat="41.154150" lon="-3.609483">
        <ele>1672.0</ele>
        <time>2017-10-01T12:59:46Z</time>
      </trkpt>
      <trkpt lat="41.154200" lon="-3.609467">
        <ele>1672.0</ele>
        <time>2017-10-01T12:59:47Z</time>
      </trkpt>
      <trkpt lat="41.154250" lon="-3.609433">
        <ele>1673.0</ele>
        <time>2017-10-01T12:59:48Z</time>
      </trkpt>
      <trkpt lat="41.154300" lon="-3.609383">
        <ele>1675.0</ele>
        <time>2017-10-01T12:59:49Z</time>
      </trkpt>
      <trkpt lat="41.154333" lon="-3.609317">
        <ele>1676.0</ele>
        <time>2017-10-01T12:59:50Z</time>
      </trkpt>
      <trkpt lat="41.154333" lon="-3.609183">
        <ele>1676.0</ele>
        <time>2017-10-01T12:59:51Z</time>
      </trkpt>
      <trkpt lat="41.154317" lon="-3.609033">
        <ele>1675.0</ele>
        <time>2017-10-01T12:59:52Z</time>
      </trkpt>
      <trkpt lat="41.154250" lon="-3.608867">
        <ele>1675.0</ele>
        <time>2017-10-01T12:59:53Z</time>
      </trkpt>
      <trkpt lat="41.154150" lon="-3.608717">
        <ele>1677.0</ele>
        <time>2017-10-01T12:59:54Z</time>
      </trkpt>
      <trkpt lat="41.154017" lon="-3.608633">
        <ele>1679.0</ele>
        <time>2017-10-01T12:59:55Z</time>
      </trkpt>
      <trkpt lat="41.153883" lon="-3.608617">
        <ele>1681.0</ele>
        <time>2017-10-01T12:59:56Z</time>
      </trkpt>
      <trkpt lat="41.153750" lon="-3.608650">
        <ele>1683.0</ele>
        <time>2017-10-01T12:59:57Z</time>
      </trkpt>
      <trkpt lat="41.153650" lon="-3.608700">
        <ele>1685.0</ele>
        <time>2017-10-01T12:59:58Z</time>
      </trkpt>
      <trkpt lat="41.153567" lon="-3.608783">
        <ele>1687.0</ele>
        <time>2017-10-01T12:59:59Z</time>
      </trkpt>
      <trkpt lat="41.153500" lon="-3.608850">
        <ele>1688.0</ele>
        <time>2017-10-01T13:00:00Z</time>
      </trkpt>
      <trkpt lat="41.153467" lon="-3.608933">
        <ele>1689.0</ele>
        <time>2017-10-01T13:00:01Z</time>
      </trkpt>
      <trkpt lat="41.153433" lon="-3.609033">
        <ele>1690.0</ele>
        <time>2017-10-01T13:00:02Z</time>
      </trkpt>
      <trkpt lat="41.153417" lon="-3.609117">
        <ele>1691.0</ele>
        <time>2017-10-01T13:00:03Z</time>
      </trkpt>
      <trkpt lat="41.153417" lon="-3.609183">
        <ele>1693.0</ele>
        <time>2017-10-01T13:00:04Z</time>
      </trkpt>
      <trkpt lat="41.153417" lon="-3.609233">
        <ele>1695.0</ele>
        <time>2017-10-01T13:00:05Z</time>
      </trkpt>
      <trkpt lat="41.153433" lon="-3.609283">
        <ele>1695.0</ele>
        <time>2017-10-01T13:00:06Z</time>
      </trkpt>
      <trkpt lat="41.153433" lon="-3.609300">
        <ele>1695.0</ele>
        <time>2017-10-01T13:00:07Z</time>
      </trkpt>
      <trkpt lat="41.153467" lon="-3.609317">
        <ele>1696.0</ele>
        <time>2017-10-01T13:00:08Z</time>
      </trkpt>
      <trkpt lat="41.153483" lon="-3.609333">
        <ele>1696.0</ele>
        <time>2017-10-01T13:00:09Z</time>
      </trkpt>
      <trkpt lat="41.153533" lon="-3.609350">
        <ele>1696.0</ele>
        <time>2017-10-01T13:00:10Z</time>
      </trkpt>
      <trkpt lat="41.153550" lon="-3.609383">
        <ele>1698.0</ele>
        <time>2017-10-01T13:00:11Z</time>
      </trkpt>
      <trkpt lat="41.153583" lon="-3.609400">
        <ele>1700.0</ele>
        <time>2017-10-01T13:00:12Z</time>
      </trkpt>
      <trkpt lat="41.153600" lon="-3.609400">
        <ele>1703.0</ele>
        <time>2017-10-01T13:00:13Z</time>
      </trkpt>
      <trkpt lat="41.153617" lon="-3.609417">
        <ele>1704.0</ele>
        <time>2017-10-01T13:00:14Z</time>
      </trkpt>
      <trkpt lat="41.153650" lon="-3.609433">
        <ele>1705.0</ele>
        <time>2017-10-01T13:00:15Z</time>
      </trkpt>
      <trkpt lat="41.153683" lon="-3.609450">
        <ele>1707.0</ele>
        <time>2017-10-01T13:00:16Z</time>
      </trkpt>
      <trkpt lat="41.153700" lon="-3.609467">
        <ele>1708.0</ele>
        <time>2017-10-01T13:00:17Z</time>
      </trkpt>
      <trkpt lat="41.153733" lon="-3.609483">
        <ele>1710.0</ele>
        <time>2017-10-01T13:00:18Z</time>
      </trkpt>
      <trkpt lat="41.153750" lon="-3.609483">
        <ele>1712.0</ele>
        <time>2017-10-01T13:00:19Z</time>
      </trkpt>
      <trkpt lat="41.153767" lon="-3.609500">
        <ele>1713.0</ele>
        <time>2017-10-01T13:00:20Z</time>
      </trkpt>
      <trkpt lat="41.153767" lon="-3.609533">
        <ele>1715.0</ele>
        <time>2017-10-01T13:00:21Z</time>
      </trkpt>
      <trkpt lat="41.153783" lon="-3.609550">
        <ele>1717.0</ele>
        <time>2017-10-01T13:00:22Z</time>
      </trkpt>
      <trkpt lat="41.153800" lon="-3.609600">
        <ele>1719.0</ele>
        <time>2017-10-01T13:00:23Z</time>
      </trkpt>
      <trkpt lat="41.153817" lon="-3.609633">
        <ele>1721.0</ele>
        <time>2017-10-01T13:00:24Z</time>
      </trkpt>
      <trkpt lat="41.153833" lon="-3.609667">
        <ele>1723.0</ele>
        <time>2017-10-01T13:00:25Z</time>
      </trkpt>
      <trkpt lat="41.153833" lon="-3.609700">
        <ele>1725.0</ele>
        <time>2017-10-01T13:00:26Z</time>
      </trkpt>
      <trkpt lat="41.153850" lon="-3.609733">
        <ele>1727.0</ele>
        <time>2017-10-01T13:00:27Z</time>
      </trkpt>
      <trkpt lat="41.153850" lon="-3.609750">
        <ele>1729.0</ele>
        <time>2017-10-01T13:00:28Z</time>
      </trkpt>
      <trkpt lat="41.153850" lon="-3.609767">
        <ele>1730.0</ele>
        <time>2017-10-01T13:00:29Z</time>
      </trkpt>
      <trkpt lat="41.153867" lon="-3.609800">
        <ele>1731.0</ele>
        <time>2017-10-01T13:00:30Z</time>
      </trkpt>
      <trkpt lat="41.153867" lon="-3.609833">
        <ele>1731.0</ele>
        <time>2017-10-01T13:00:31Z</time>
      </trkpt>
      <trkpt lat="41.153867" lon="-3.609867">
        <ele>1732.0</ele>
        <time>2017-10-01T13:00:32Z</time>
      </trkpt>
      <trkpt lat="41.153867" lon="-3.609900">
        <ele>1732.0</ele>
        <time>2017-10-01T13:00:33Z</time>
      </trkpt>
      <trkpt lat="41.153867" lon="-3.609950">
        <ele>1732.0</ele>
        <time>2017-10-01T13:00:34Z</time>
      </trkpt>
      <trkpt lat="41.153867" lon="-3.609983">
        <ele>1731.0</ele>
        <time>2017-10-01T13:00:35Z</time>
      </trkpt>
      <trkpt lat="41.153867" lon="-3.610033">
        <ele>1730.0</ele>
        <time>2017-10-01T13:00:36Z</time>
      </trkpt>
      <trkpt lat="41.153867" lon="-3.610100">
        <ele>1729.0</ele>
        <time>2017-10-01T13:00:37Z</time>
      </trkpt>
      <trkpt lat="41.153883" lon="-3.610150">
        <ele>1729.0</ele>
        <time>2017-10-01T13:00:38Z</time>
      </trkpt>
      <trkpt lat="41.153883" lon="-3.610217">
        <ele>1729.0</ele>
        <time>2017-10-01T13:00:39Z</time>
      </trkpt>
      <trkpt lat="41.153883" lon="-3.610267">
        <ele>1729.0</ele>
        <time>2017-10-01T13:00:40Z</time>
      </trkpt>
      <trkpt lat="41.153867" lon="-3.610317">
        <ele>1729.0</ele>
        <time>2017-10-01T13:00:41Z</time>
      </trkpt>
      <trkpt lat="41.153867" lon="-3.610383">
        <ele>1728.0</ele>
        <time>2017-10-01T13:00:42Z</time>
      </trkpt>
      <trkpt lat="41.153850" lon="-3.610450">
        <ele>1727.0</ele>
        <time>2017-10-01T13:00:43Z</time>
      </trkpt>
      <trkpt lat="41.153850" lon="-3.610517">
        <ele>1726.0</ele>
        <time>2017-10-01T13:00:44Z</time>
      </trkpt>
      <trkpt lat="41.153850" lon="-3.610583">
        <ele>1725.0</ele>
        <time>2017-10-01T13:00:45Z</time>
      </trkpt>
      <trkpt lat="41.153833" lon="-3.610650">
        <ele>1725.0</ele>
        <time>2017-10-01T13:00:46Z</time>
      </trkpt>
      <trkpt lat="41.153817" lon="-3.610717">
        <ele>1725.0</ele>
        <time>2017-10-01T13:00:47Z</time>
      </trkpt>
      <trkpt lat="41.153800" lon="-3.610783">
        <ele>1724.0</ele>
        <time>2017-10-01T13:00:48Z</time>
      </trkpt>
      <trkpt lat="41.153783" lon="-3.610850">
        <ele>1722.0</ele>
        <time>2017-10-01T13:00:49Z</time>
      </trkpt>
      <trkpt lat="41.153783" lon="-3.610933">
        <ele>1720.0</ele>
        <time>2017-10-01T13:00:50Z</time>
      </trkpt>
      <trkpt lat="41.153767" lon="-3.611033">
        <ele>1719.0</ele>
        <time>2017-10-01T13:00:51Z</time>
      </trkpt>
      <trkpt lat="41.153750" lon="-3.611117">
        <ele>1719.0</ele>
        <time>2017-10-01T13:00:52Z</time>
      </trkpt>
      <trkpt lat="41.153733" lon="-3.611183">
        <ele>1720.0</ele>
        <time>2017-10-01T13:00:53Z</time>
      </trkpt>
      <trkpt lat="41.153717" lon="-3.611250">
        <ele>1720.0</ele>
        <time>2017-10-01T13:00:54Z</time>
      </trkpt>
      <trkpt lat="41.153700" lon="-3.611333">
        <ele>1719.0</ele>
        <time>2017-10-01T13:00:55Z</time>
      </trkpt>
      <trkpt lat="41.153667" lon="-3.611400">
        <ele>1717.0</ele>
        <time>2017-10-01T13:00:56Z</time>
      </trkpt>
      <trkpt lat="41.153667" lon="-3.611500">
        <ele>1715.0</ele>
        <time>2017-10-01T13:00:57Z</time>
      </trkpt>
      <trkpt lat="41.153650" lon="-3.611600">
        <ele>1715.0</ele>
        <time>2017-10-01T13:00:58Z</time>
      </trkpt>
      <trkpt lat="41.153633" lon="-3.611683">
        <ele>1715.0</ele>
        <time>2017-10-01T13:00:59Z</time>
      </trkpt>
      <trkpt lat="41.153617" lon="-3.611750">
        <ele>1715.0</ele>
        <time>2017-10-01T13:01:00Z</time>
      </trkpt>
      <trkpt lat="41.153600" lon="-3.611833">
        <ele>1715.0</ele>
        <time>2017-10-01T13:01:01Z</time>
      </trkpt>
      <trkpt lat="41.153583" lon="-3.611917">
        <ele>1714.0</ele>
        <time>2017-10-01T13:01:02Z</time>
      </trkpt>
      <trkpt lat="41.153567" lon="-3.611983">
        <ele>1714.0</ele>
        <time>2017-10-01T13:01:03Z</time>
      </trkpt>
      <trkpt lat="41.153550" lon="-3.612067">
        <ele>1714.0</ele>
        <time>2017-10-01T13:01:04Z</time>
      </trkpt>
      <trkpt lat="41.153533" lon="-3.612150">
        <ele>1714.0</ele>
        <time>2017-10-01T13:01:05Z</time>
      </trkpt>
      <trkpt lat="41.153517" lon="-3.612233">
        <ele>1714.0</ele>
        <time>2017-10-01T13:01:06Z</time>
      </trkpt>
      <trkpt lat="41.153483" lon="-3.612300">
        <ele>1713.0</ele>
        <time>2017-10-01T13:01:07Z</time>
      </trkpt>
      <trkpt lat="41.153483" lon="-3.612383">
        <ele>1712.0</ele>
        <time>2017-10-01T13:01:08Z</time>
      </trkpt>
      <trkpt lat="41.153483" lon="-3.612450">
        <ele>1710.0</ele>
        <time>2017-10-01T13:01:09Z</time>
      </trkpt>
      <trkpt lat="41.153483" lon="-3.612533">
        <ele>1709.0</ele>
        <time>2017-10-01T13:01:10Z</time>
      </trkpt>
      <trkpt lat="41.153500" lon="-3.612583">
        <ele>1709.0</ele>
        <time>2017-10-01T13:01:11Z</time>
      </trkpt>
      <trkpt lat="41.153500" lon="-3.612633">
        <ele>1709.0</ele>
        <time>2017-10-01T13:01:12Z</time>
      </trkpt>
      <trkpt lat="41.153500" lon="-3.612667">
        <ele>1708.0</ele>
        <time>2017-10-01T13:01:13Z</time>
      </trkpt>
      <trkpt lat="41.153517" lon="-3.612717">
        <ele>1707.0</ele>
        <time>2017-10-01T13:01:14Z</time>
      </trkpt>
      <trkpt lat="41.153517" lon="-3.612783">
        <ele>1705.0</ele>
        <time>2017-10-01T13:01:15Z</time>
      </trkpt>
      <trkpt lat="41.153550" lon="-3.612833">
        <ele>1704.0</ele>
        <time>2017-10-01T13:01:16Z</time>
      </trkpt>
      <trkpt lat="41.153567" lon="-3.612900">
        <ele>1703.0</ele>
        <time>2017-10-01T13:01:17Z</time>
      </trkpt>
      <trkpt lat="41.153583" lon="-3.612950">
        <ele>1702.0</ele>
        <time>2017-10-01T13:01:18Z</time>
      </trkpt>
      <trkpt lat="41.153600" lon="-3.613017">
        <ele>1702.0</ele>
        <time>2017-10-01T13:01:19Z</time>
      </trkpt>
      <trkpt lat="41.153617" lon="-3.613067">
        <ele>1701.0</ele>
        <time>2017-10-01T13:01:20Z</time>
      </trkpt>
      <trkpt lat="41.153633" lon="-3.613133">
        <ele>1701.0</ele>
        <time>2017-10-01T13:01:21Z</time>
      </trkpt>
      <trkpt lat="41.153650" lon="-3.613183">
        <ele>1701.0</ele>
        <time>2017-10-01T13:01:22Z</time>
      </trkpt>
      <trkpt lat="41.153650" lon="-3.613267">
        <ele>1699.0</ele>
        <time>2017-10-01T13:01:23Z</time>
      </trkpt>
      <trkpt lat="41.153650" lon="-3.613333">
        <ele>1698.0</ele>
        <time>2017-10-01T13:01:24Z</time>
      </trkpt>
      <trkpt lat="41.153633" lon="-3.613433">
        <ele>1696.0</ele>
        <time>2017-10-01T13:01:25Z</time>
      </trkpt>
      <trkpt lat="41.153633" lon="-3.613533">
        <ele>1695.0</ele>
        <time>2017-10-01T13:01:26Z</time>
      </trkpt>
      <trkpt lat="41.153617" lon="-3.613633">
        <ele>1695.0</ele>
        <time>2017-10-01T13:01:27Z</time>
      </trkpt>
      <trkpt lat="41.153600" lon="-3.613733">
        <ele>1696.0</ele>
        <time>2017-10-01T13:01:28Z</time>
      </trkpt>
      <trkpt lat="41.153600" lon="-3.613800">
        <ele>1696.0</ele>
        <time>2017-10-01T13:01:29Z</time>
      </trkpt>
      <trkpt lat="41.153617" lon="-3.613867">
        <ele>1695.0</ele>
        <time>2017-10-01T13:01:30Z</time>
      </trkpt>
      <trkpt lat="41.153633" lon="-3.613917">
        <ele>1694.0</ele>
        <time>2017-10-01T13:01:31Z</time>
      </trkpt>
      <trkpt lat="41.153667" lon="-3.613933">
        <ele>1694.0</ele>
        <time>2017-10-01T13:01:32Z</time>
      </trkpt>
      <trkpt lat="41.153717" lon="-3.613933">
        <ele>1693.0</ele>
        <time>2017-10-01T13:01:33Z</time>
      </trkpt>
      <trkpt lat="41.153750" lon="-3.613917">
        <ele>1693.0</ele>
        <time>2017-10-01T13:01:34Z</time>
      </trkpt>
      <trkpt lat="41.153767" lon="-3.613867">
        <ele>1692.0</ele>
        <time>2017-10-01T13:01:35Z</time>
      </trkpt>
      <trkpt lat="41.153800" lon="-3.613800">
        <ele>1691.0</ele>
        <time>2017-10-01T13:01:36Z</time>
      </trkpt>
      <trkpt lat="41.153817" lon="-3.613733">
        <ele>1690.0</ele>
        <time>2017-10-01T13:01:37Z</time>
      </trkpt>
      <trkpt lat="41.153833" lon="-3.613633">
        <ele>1689.0</ele>
        <time>2017-10-01T13:01:38Z</time>
      </trkpt>
      <trkpt lat="41.153800" lon="-3.613500">
        <ele>1688.0</ele>
        <time>2017-10-01T13:01:39Z</time>
      </trkpt>
      <trkpt lat="41.153750" lon="-3.613383">
        <ele>1687.0</ele>
        <time>2017-10-01T13:01:40Z</time>
      </trkpt>
      <trkpt lat="41.153667" lon="-3.613267">
        <ele>1686.0</ele>
        <time>2017-10-01T13:01:41Z</time>
      </trkpt>
      <trkpt lat="41.153550" lon="-3.613183">
        <ele>1686.0</ele>
        <time>2017-10-01T13:01:42Z</time>
      </trkpt>
      <trkpt lat="41.153417" lon="-3.613133">
        <ele>1687.0</ele>
        <time>2017-10-01T13:01:43Z</time>
      </trkpt>
      <trkpt lat="41.153300" lon="-3.613100">
        <ele>1686.0</ele>
        <time>2017-10-01T13:01:44Z</time>
      </trkpt>
      <trkpt lat="41.153167" lon="-3.613117">
        <ele>1685.0</ele>
        <time>2017-10-01T13:01:45Z</time>
      </trkpt>
      <trkpt lat="41.153033" lon="-3.613150">
        <ele>1684.0</ele>
        <time>2017-10-01T13:01:46Z</time>
      </trkpt>
      <trkpt lat="41.152900" lon="-3.613217">
        <ele>1684.0</ele>
        <time>2017-10-01T13:01:47Z</time>
      </trkpt>
      <trkpt lat="41.152783" lon="-3.613283">
        <ele>1684.0</ele>
        <time>2017-10-01T13:01:48Z</time>
      </trkpt>
      <trkpt lat="41.152683" lon="-3.613367">
        <ele>1684.0</ele>
        <time>2017-10-01T13:01:49Z</time>
      </trkpt>
      <trkpt lat="41.152583" lon="-3.613467">
        <ele>1684.0</ele>
        <time>2017-10-01T13:01:50Z</time>
      </trkpt>
      <trkpt lat="41.152500" lon="-3.613567">
        <ele>1684.0</ele>
        <time>2017-10-01T13:01:51Z</time>
      </trkpt>
      <trkpt lat="41.152417" lon="-3.613667">
        <ele>1684.0</ele>
        <time>2017-10-01T13:01:52Z</time>
      </trkpt>
      <trkpt lat="41.152350" lon="-3.613767">
        <ele>1684.0</ele>
        <time>2017-10-01T13:01:53Z</time>
      </trkpt>
      <trkpt lat="41.152283" lon="-3.613867">
        <ele>1685.0</ele>
        <time>2017-10-01T13:01:54Z</time>
      </trkpt>
      <trkpt lat="41.152217" lon="-3.613967">
        <ele>1685.0</ele>
        <time>2017-10-01T13:01:55Z</time>
      </trkpt>
      <trkpt lat="41.152167" lon="-3.614067">
        <ele>1686.0</ele>
        <time>2017-10-01T13:01:56Z</time>
      </trkpt>
      <trkpt lat="41.152117" lon="-3.614167">
        <ele>1687.0</ele>
        <time>2017-10-01T13:01:57Z</time>
      </trkpt>
      <trkpt lat="41.152100" lon="-3.614267">
        <ele>1687.0</ele>
        <time>2017-10-01T13:01:58Z</time>
      </trkpt>
      <trkpt lat="41.152083" lon="-3.614367">
        <ele>1687.0</ele>
        <time>2017-10-01T13:01:59Z</time>
      </trkpt>
      <trkpt lat="41.152083" lon="-3.614450">
        <ele>1688.0</ele>
        <time>2017-10-01T13:02:00Z</time>
      </trkpt>
      <trkpt lat="41.152083" lon="-3.614517">
        <ele>1689.0</ele>
        <time>2017-10-01T13:02:01Z</time>
      </trkpt>
      <trkpt lat="41.152100" lon="-3.614583">
        <ele>1689.0</ele>
        <time>2017-10-01T13:02:02Z</time>
      </trkpt>
      <trkpt lat="41.152133" lon="-3.614633">
        <ele>1690.0</ele>
        <time>2017-10-01T13:02:03Z</time>
      </trkpt>
      <trkpt lat="41.152167" lon="-3.614667">
        <ele>1690.0</ele>
        <time>2017-10-01T13:02:04Z</time>
      </trkpt>
      <trkpt lat="41.152200" lon="-3.614667">
        <ele>1690.0</ele>
        <time>2017-10-01T13:02:05Z</time>
      </trkpt>
      <trkpt lat="41.152250" lon="-3.614633">
        <ele>1690.0</ele>
        <time>2017-10-01T13:02:06Z</time>
      </trkpt>
      <trkpt lat="41.152267" lon="-3.614550">
        <ele>1690.0</ele>
        <time>2017-10-01T13:02:07Z</time>
      </trkpt>
      <trkpt lat="41.152250" lon="-3.614433">
        <ele>1690.0</ele>
        <time>2017-10-01T13:02:08Z</time>
      </trkpt>
      <trkpt lat="41.152200" lon="-3.614300">
        <ele>1690.0</ele>
        <time>2017-10-01T13:02:09Z</time>
      </trkpt>
      <trkpt lat="41.152117" lon="-3.614183">
        <ele>1690.0</ele>
        <time>2017-10-01T13:02:10Z</time>
      </trkpt>
      <trkpt lat="41.152017" lon="-3.614100">
        <ele>1691.0</ele>
        <time>2017-10-01T13:02:11Z</time>
      </trkpt>
      <trkpt lat="41.151900" lon="-3.614033">
        <ele>1691.0</ele>
        <time>2017-10-01T13:02:12Z</time>
      </trkpt>
      <trkpt lat="41.151767" lon="-3.614000">
        <ele>1690.0</ele>
        <time>2017-10-01T13:02:13Z</time>
      </trkpt>
      <trkpt lat="41.151633" lon="-3.614000">
        <ele>1690.0</ele>
        <time>2017-10-01T13:02:14Z</time>
      </trkpt>
      <trkpt lat="41.151500" lon="-3.614033">
        <ele>1689.0</ele>
        <time>2017-10-01T13:02:15Z</time>
      </trkpt>
      <trkpt lat="41.151383" lon="-3.614100">
        <ele>1690.0</ele>
        <time>2017-10-01T13:02:16Z</time>
      </trkpt>
      <trkpt lat="41.151283" lon="-3.614183">
        <ele>1691.0</ele>
        <time>2017-10-01T13:02:17Z</time>
      </trkpt>
      <trkpt lat="41.151217" lon="-3.614267">
        <ele>1693.0</ele>
        <time>2017-10-01T13:02:18Z</time>
      </trkpt>
      <trkpt lat="41.151150" lon="-3.614333">
        <ele>1695.0</ele>
        <time>2017-10-01T13:02:19Z</time>
      </trkpt>
      <trkpt lat="41.151117" lon="-3.614400">
        <ele>1696.0</ele>
        <time>2017-10-01T13:02:20Z</time>
      </trkpt>
      <trkpt lat="41.151067" lon="-3.614483">
        <ele>1696.0</ele>
        <time>2017-10-01T13:02:21Z</time>
      </trkpt>
      <trkpt lat="41.151033" lon="-3.614567">
        <ele>1696.0</ele>
        <time>2017-10-01T13:02:22Z</time>
      </trkpt>
      <trkpt lat="41.151000" lon="-3.614667">
        <ele>1696.0</ele>
        <time>2017-10-01T13:02:23Z</time>
      </trkpt>
      <trkpt lat="41.150967" lon="-3.614750">
        <ele>1698.0</ele>
        <time>2017-10-01T13:02:24Z</time>
      </trkpt>
      <trkpt lat="41.150950" lon="-3.614817">
        <ele>1700.0</ele>
        <time>2017-10-01T13:02:25Z</time>
      </trkpt>
      <trkpt lat="41.150933" lon="-3.614883">
        <ele>1702.0</ele>
        <time>2017-10-01T13:02:26Z</time>
      </trkpt>
      <trkpt lat="41.150917" lon="-3.614967">
        <ele>1703.0</ele>
        <time>2017-10-01T13:02:27Z</time>
      </trkpt>
      <trkpt lat="41.150900" lon="-3.615033">
        <ele>1704.0</ele>
        <time>2017-10-01T13:02:28Z</time>
      </trkpt>
      <trkpt lat="41.150883" lon="-3.615100">
        <ele>1706.0</ele>
        <time>2017-10-01T13:02:29Z</time>
      </trkpt>
      <trkpt lat="41.150883" lon="-3.615167">
        <ele>1708.0</ele>
        <time>2017-10-01T13:02:30Z</time>
      </trkpt>
      <trkpt lat="41.150867" lon="-3.615233">
        <ele>1710.0</ele>
        <time>2017-10-01T13:02:31Z</time>
      </trkpt>
      <trkpt lat="41.150850" lon="-3.615283">
        <ele>1711.0</ele>
        <time>2017-10-01T13:02:32Z</time>
      </trkpt>
      <trkpt lat="41.150850" lon="-3.615333">
        <ele>1711.0</ele>
        <time>2017-10-01T13:02:33Z</time>
      </trkpt>
      <trkpt lat="41.150850" lon="-3.615383">
        <ele>1711.0</ele>
        <time>2017-10-01T13:02:34Z</time>
      </trkpt>
      <trkpt lat="41.150867" lon="-3.615433">
        <ele>1711.0</ele>
        <time>2017-10-01T13:02:35Z</time>
      </trkpt>
      <trkpt lat="41.150883" lon="-3.615450">
        <ele>1711.0</ele>
        <time>2017-10-01T13:02:36Z</time>
      </trkpt>
      <trkpt lat="41.150917" lon="-3.615467">
        <ele>1712.0</ele>
        <time>2017-10-01T13:02:37Z</time>
      </trkpt>
      <trkpt lat="41.150933" lon="-3.615467">
        <ele>1712.0</ele>
        <time>2017-10-01T13:02:38Z</time>
      </trkpt>
      <trkpt lat="41.150967" lon="-3.615467">
        <ele>1712.0</ele>
        <time>2017-10-01T13:02:39Z</time>
      </trkpt>
      <trkpt lat="41.151000" lon="-3.615467">
        <ele>1712.0</ele>
        <time>2017-10-01T13:02:40Z</time>
      </trkpt>
      <trkpt lat="41.151050" lon="-3.615417">
        <ele>1712.0</ele>
        <time>2017-10-01T13:02:41Z</time>
      </trkpt>
      <trkpt lat="41.151083" lon="-3.615333">
        <ele>1711.0</ele>
        <time>2017-10-01T13:02:42Z</time>
      </trkpt>
      <trkpt lat="41.151100" lon="-3.615200">
        <ele>1710.0</ele>
        <time>2017-10-01T13:02:43Z</time>
      </trkpt>
      <trkpt lat="41.151067" lon="-3.615033">
        <ele>1710.0</ele>
        <time>2017-10-01T13:02:44Z</time>
      </trkpt>
      <trkpt lat="41.150983" lon="-3.614883">
        <ele>1710.0</ele>
        <time>2017-10-01T13:02:45Z</time>
      </trkpt>
      <trkpt lat="41.150867" lon="-3.614767">
        <ele>1711.0</ele>
        <time>2017-10-01T13:02:46Z</time>
      </trkpt>
      <trkpt lat="41.150750" lon="-3.614700">
        <ele>1711.0</ele>
        <time>2017-10-01T13:02:47Z</time>
      </trkpt>
      <trkpt lat="41.150617" lon="-3.614667">
        <ele>1712.0</ele>
        <time>2017-10-01T13:02:48Z</time>
      </trkpt>
      <trkpt lat="41.150483" lon="-3.614683">
        <ele>1713.0</ele>
        <time>2017-10-01T13:02:49Z</time>
      </trkpt>
      <trkpt lat="41.150383" lon="-3.614717">
        <ele>1715.0</ele>
        <time>2017-10-01T13:02:50Z</time>
      </trkpt>
      <trkpt lat="41.150283" lon="-3.614767">
        <ele>1716.0</ele>
        <time>2017-10-01T13:02:51Z</time>
      </trkpt>
      <trkpt lat="41.150183" lon="-3.614817">
        <ele>1716.0</ele>
        <time>2017-10-01T13:02:52Z</time>
      </trkpt>
      <trkpt lat="41.150117" lon="-3.614900">
        <ele>1717.0</ele>
        <time>2017-10-01T13:02:53Z</time>
      </trkpt>
      <trkpt lat="41.150067" lon="-3.614983">
        <ele>1716.0</ele>
        <time>2017-10-01T13:02:54Z</time>
      </trkpt>
      <trkpt lat="41.150033" lon="-3.615067">
        <ele>1716.0</ele>
        <time>2017-10-01T13:02:55Z</time>
      </trkpt>
      <trkpt lat="41.150000" lon="-3.615133">
        <ele>1716.0</ele>
        <time>2017-10-01T13:02:56Z</time>
      </trkpt>
      <trkpt lat="41.149967" lon="-3.615200">
        <ele>1717.0</ele>
        <time>2017-10-01T13:02:57Z</time>
      </trkpt>
      <trkpt lat="41.149950" lon="-3.615267">
        <ele>1717.0</ele>
        <time>2017-10-01T13:02:58Z</time>
      </trkpt>
      <trkpt lat="41.149933" lon="-3.615333">
        <ele>1717.0</ele>
        <time>2017-10-01T13:02:59Z</time>
      </trkpt>
      <trkpt lat="41.149917" lon="-3.615383">
        <ele>1717.0</ele>
        <time>2017-10-01T13:03:00Z</time>
      </trkpt>
      <trkpt lat="41.149900" lon="-3.615433">
        <ele>1716.0</ele>
        <time>2017-10-01T13:03:01Z</time>
      </trkpt>
      <trkpt lat="41.149900" lon="-3.615483">
        <ele>1716.0</ele>
        <time>2017-10-01T13:03:02Z</time>
      </trkpt>
      <trkpt lat="41.149900" lon="-3.615550">
        <ele>1715.0</ele>
        <time>2017-10-01T13:03:03Z</time>
      </trkpt>
      <trkpt lat="41.149883" lon="-3.615600">
        <ele>1715.0</ele>
        <time>2017-10-01T13:03:04Z</time>
      </trkpt>
      <trkpt lat="41.149867" lon="-3.615650">
        <ele>1715.0</ele>
        <time>2017-10-01T13:03:05Z</time>
      </trkpt>
      <trkpt lat="41.149867" lon="-3.615700">
        <ele>1715.0</ele>
        <time>2017-10-01T13:03:06Z</time>
      </trkpt>
      <trkpt lat="41.149850" lon="-3.615733">
        <ele>1714.0</ele>
        <time>2017-10-01T13:03:07Z</time>
      </trkpt>
      <trkpt lat="41.149850" lon="-3.615800">
        <ele>1713.0</ele>
        <time>2017-10-01T13:03:08Z</time>
      </trkpt>
      <trkpt lat="41.149833" lon="-3.615867">
        <ele>1711.0</ele>
        <time>2017-10-01T13:03:09Z</time>
      </trkpt>
      <trkpt lat="41.149817" lon="-3.615933">
        <ele>1711.0</ele>
        <time>2017-10-01T13:03:10Z</time>
      </trkpt>
      <trkpt lat="41.149783" lon="-3.615983">
        <ele>1712.0</ele>
        <time>2017-10-01T13:03:11Z</time>
      </trkpt>
      <trkpt lat="41.149733" lon="-3.616033">
        <ele>1713.0</ele>
        <time>2017-10-01T13:03:12Z</time>
      </trkpt>
      <trkpt lat="41.149717" lon="-3.616083">
        <ele>1713.0</ele>
        <time>2017-10-01T13:03:13Z</time>
      </trkpt>
      <trkpt lat="41.149700" lon="-3.616133">
        <ele>1712.0</ele>
        <time>2017-10-01T13:03:14Z</time>
      </trkpt>
      <trkpt lat="41.149683" lon="-3.616200">
        <ele>1712.0</ele>
        <time>2017-10-01T13:03:15Z</time>
      </trkpt>
      <trkpt lat="41.149683" lon="-3.616250">
        <ele>1712.0</ele>
        <time>2017-10-01T13:03:16Z</time>
      </trkpt>
      <trkpt lat="41.149667" lon="-3.616300">
        <ele>1713.0</ele>
        <time>2017-10-01T13:03:17Z</time>
      </trkpt>
      <trkpt lat="41.149650" lon="-3.616367">
        <ele>1713.0</ele>
        <time>2017-10-01T13:03:18Z</time>
      </trkpt>
      <trkpt lat="41.149650" lon="-3.616417">
        <ele>1712.0</ele>
        <time>2017-10-01T13:03:19Z</time>
      </trkpt>
      <trkpt lat="41.149650" lon="-3.616483">
        <ele>1712.0</ele>
        <time>2017-10-01T13:03:20Z</time>
      </trkpt>
      <trkpt lat="41.149633" lon="-3.616533">
        <ele>1712.0</ele>
        <time>2017-10-01T13:03:21Z</time>
      </trkpt>
      <trkpt lat="41.149633" lon="-3.616600">
        <ele>1712.0</ele>
        <time>2017-10-01T13:03:22Z</time>
      </trkpt>
      <trkpt lat="41.149633" lon="-3.616650">
        <ele>1712.0</ele>
        <time>2017-10-01T13:03:23Z</time>
      </trkpt>
      <trkpt lat="41.149617" lon="-3.616717">
        <ele>1712.0</ele>
        <time>2017-10-01T13:03:24Z</time>
      </trkpt>
      <trkpt lat="41.149617" lon="-3.616767">
        <ele>1712.0</ele>
        <time>2017-10-01T13:03:25Z</time>
      </trkpt>
      <trkpt lat="41.149600" lon="-3.616817">
        <ele>1711.0</ele>
        <time>2017-10-01T13:03:26Z</time>
      </trkpt>
      <trkpt lat="41.149583" lon="-3.616883">
        <ele>1710.0</ele>
        <time>2017-10-01T13:03:27Z</time>
      </trkpt>
      <trkpt lat="41.149583" lon="-3.616950">
        <ele>1710.0</ele>
        <time>2017-10-01T13:03:28Z</time>
      </trkpt>
      <trkpt lat="41.149567" lon="-3.617000">
        <ele>1710.0</ele>
        <time>2017-10-01T13:03:29Z</time>
      </trkpt>
      <trkpt lat="41.149567" lon="-3.617067">
        <ele>1710.0</ele>
        <time>2017-10-01T13:03:30Z</time>
      </trkpt>
      <trkpt lat="41.149550" lon="-3.617117">
        <ele>1710.0</ele>
        <time>2017-10-01T13:03:31Z</time>
      </trkpt>
      <trkpt lat="41.149533" lon="-3.617150">
        <ele>1710.0</ele>
        <time>2017-10-01T13:03:32Z</time>
      </trkpt>
      <trkpt lat="41.149517" lon="-3.617217">
        <ele>1708.0</ele>
        <time>2017-10-01T13:03:33Z</time>
      </trkpt>
      <trkpt lat="41.149500" lon="-3.617283">
        <ele>1707.0</ele>
        <time>2017-10-01T13:03:34Z</time>
      </trkpt>
      <trkpt lat="41.149483" lon="-3.617350">
        <ele>1705.0</ele>
        <time>2017-10-01T13:03:35Z</time>
      </trkpt>
      <trkpt lat="41.149450" lon="-3.617417">
        <ele>1704.0</ele>
        <time>2017-10-01T13:03:36Z</time>
      </trkpt>
      <trkpt lat="41.149433" lon="-3.617467">
        <ele>1703.0</ele>
        <time>2017-10-01T13:03:37Z</time>
      </trkpt>
      <trkpt lat="41.149433" lon="-3.617517">
        <ele>1702.0</ele>
        <time>2017-10-01T13:03:38Z</time>
      </trkpt>
      <trkpt lat="41.149417" lon="-3.617567">
        <ele>1701.0</ele>
        <time>2017-10-01T13:03:39Z</time>
      </trkpt>
      <trkpt lat="41.149417" lon="-3.617617">
        <ele>1701.0</ele>
        <time>2017-10-01T13:03:40Z</time>
      </trkpt>
      <trkpt lat="41.149417" lon="-3.617683">
        <ele>1700.0</ele>
        <time>2017-10-01T13:03:41Z</time>
      </trkpt>
      <trkpt lat="41.149400" lon="-3.617733">
        <ele>1700.0</ele>
        <time>2017-10-01T13:03:42Z</time>
      </trkpt>
      <trkpt lat="41.149400" lon="-3.617767">
        <ele>1699.0</ele>
        <time>2017-10-01T13:03:43Z</time>
      </trkpt>
      <trkpt lat="41.149400" lon="-3.617817">
        <ele>1699.0</ele>
        <time>2017-10-01T13:03:44Z</time>
      </trkpt>
      <trkpt lat="41.149400" lon="-3.617867">
        <ele>1698.0</ele>
        <time>2017-10-01T13:03:45Z</time>
      </trkpt>
      <trkpt lat="41.149383" lon="-3.617917">
        <ele>1696.0</ele>
        <time>2017-10-01T13:03:46Z</time>
      </trkpt>
      <trkpt lat="41.149367" lon="-3.617967">
        <ele>1695.0</ele>
        <time>2017-10-01T13:03:47Z</time>
      </trkpt>
      <trkpt lat="41.149333" lon="-3.618033">
        <ele>1693.0</ele>
        <time>2017-10-01T13:03:48Z</time>
      </trkpt>
      <trkpt lat="41.149300" lon="-3.618100">
        <ele>1692.0</ele>
        <time>2017-10-01T13:03:49Z</time>
      </trkpt>
      <trkpt lat="41.149267" lon="-3.618167">
        <ele>1692.0</ele>
        <time>2017-10-01T13:03:50Z</time>
      </trkpt>
      <trkpt lat="41.149233" lon="-3.618217">
        <ele>1691.0</ele>
        <time>2017-10-01T13:03:51Z</time>
      </trkpt>
      <trkpt lat="41.149200" lon="-3.618267">
        <ele>1690.0</ele>
        <time>2017-10-01T13:03:52Z</time>
      </trkpt>
      <trkpt lat="41.149183" lon="-3.618317">
        <ele>1688.0</ele>
        <time>2017-10-01T13:03:53Z</time>
      </trkpt>
      <trkpt lat="41.149167" lon="-3.618383">
        <ele>1686.0</ele>
        <time>2017-10-01T13:03:54Z</time>
      </trkpt>
      <trkpt lat="41.149150" lon="-3.618450">
        <ele>1684.0</ele>
        <time>2017-10-01T13:03:55Z</time>
      </trkpt>
      <trkpt lat="41.149133" lon="-3.618517">
        <ele>1682.0</ele>
        <time>2017-10-01T13:03:56Z</time>
      </trkpt>
      <trkpt lat="41.149117" lon="-3.618567">
        <ele>1681.0</ele>
        <time>2017-10-01T13:03:57Z</time>
      </trkpt>
      <trkpt lat="41.149083" lon="-3.618633">
        <ele>1680.0</ele>
        <time>2017-10-01T13:03:58Z</time>
      </trkpt>
      <trkpt lat="41.149067" lon="-3.618683">
        <ele>1678.0</ele>
        <time>2017-10-01T13:03:59Z</time>
      </trkpt>
      <trkpt lat="41.149050" lon="-3.618733">
        <ele>1677.0</ele>
        <time>2017-10-01T13:04:00Z</time>
      </trkpt>
      <trkpt lat="41.149017" lon="-3.618800">
        <ele>1675.0</ele>
        <time>2017-10-01T13:04:01Z</time>
      </trkpt>
      <trkpt lat="41.149000" lon="-3.618867">
        <ele>1674.0</ele>
        <time>2017-10-01T13:04:02Z</time>
      </trkpt>
      <trkpt lat="41.148983" lon="-3.618933">
        <ele>1673.0</ele>
        <time>2017-10-01T13:04:03Z</time>
      </trkpt>
      <trkpt lat="41.148950" lon="-3.619000">
        <ele>1672.0</ele>
        <time>2017-10-01T13:04:04Z</time>
      </trkpt>
      <trkpt lat="41.148933" lon="-3.619050">
        <ele>1672.0</ele>
        <time>2017-10-01T13:04:05Z</time>
      </trkpt>
      <trkpt lat="41.148900" lon="-3.619117">
        <ele>1671.0</ele>
        <time>2017-10-01T13:04:06Z</time>
      </trkpt>
      <trkpt lat="41.148883" lon="-3.619167">
        <ele>1670.0</ele>
        <time>2017-10-01T13:04:07Z</time>
      </trkpt>
      <trkpt lat="41.148867" lon="-3.619233">
        <ele>1669.0</ele>
        <time>2017-10-01T13:04:08Z</time>
      </trkpt>
      <trkpt lat="41.148833" lon="-3.619300">
        <ele>1667.0</ele>
        <time>2017-10-01T13:04:09Z</time>
      </trkpt>
      <trkpt lat="41.148817" lon="-3.619367">
        <ele>1666.0</ele>
        <time>2017-10-01T13:04:10Z</time>
      </trkpt>
      <trkpt lat="41.148800" lon="-3.619433">
        <ele>1665.0</ele>
        <time>2017-10-01T13:04:11Z</time>
      </trkpt>
      <trkpt lat="41.148767" lon="-3.619517">
        <ele>1664.0</ele>
        <time>2017-10-01T13:04:12Z</time>
      </trkpt>
      <trkpt lat="41.148750" lon="-3.619600">
        <ele>1664.0</ele>
        <time>2017-10-01T13:04:13Z</time>
      </trkpt>
      <trkpt lat="41.148733" lon="-3.619650">
        <ele>1664.0</ele>
        <time>2017-10-01T13:04:14Z</time>
      </trkpt>
      <trkpt lat="41.148733" lon="-3.619717">
        <ele>1664.0</ele>
        <time>2017-10-01T13:04:15Z</time>
      </trkpt>
      <trkpt lat="41.148750" lon="-3.619767">
        <ele>1663.0</ele>
        <time>2017-10-01T13:04:16Z</time>
      </trkpt>
      <trkpt lat="41.148750" lon="-3.619817">
        <ele>1662.0</ele>
        <time>2017-10-01T13:04:17Z</time>
      </trkpt>
      <trkpt lat="41.148767" lon="-3.619867">
        <ele>1661.0</ele>
        <time>2017-10-01T13:04:18Z</time>
      </trkpt>
      <trkpt lat="41.148800" lon="-3.619900">
        <ele>1660.0</ele>
        <time>2017-10-01T13:04:19Z</time>
      </trkpt>
      <trkpt lat="41.148833" lon="-3.619950">
        <ele>1660.0</ele>
        <time>2017-10-01T13:04:20Z</time>
      </trkpt>
      <trkpt lat="41.148850" lon="-3.620000">
        <ele>1660.0</ele>
        <time>2017-10-01T13:04:21Z</time>
      </trkpt>
      <trkpt lat="41.148850" lon="-3.620033">
        <ele>1660.0</ele>
        <time>2017-10-01T13:04:22Z</time>
      </trkpt>
      <trkpt lat="41.148867" lon="-3.620067">
        <ele>1660.0</ele>
        <time>2017-10-01T13:04:23Z</time>
      </trkpt>
      <trkpt lat="41.148883" lon="-3.620100">
        <ele>1658.0</ele>
        <time>2017-10-01T13:04:24Z</time>
      </trkpt>
      <trkpt lat="41.148917" lon="-3.620150">
        <ele>1656.0</ele>
        <time>2017-10-01T13:04:25Z</time>
      </trkpt>
      <trkpt lat="41.148967" lon="-3.620183">
        <ele>1655.0</ele>
        <time>2017-10-01T13:04:26Z</time>
      </trkpt>
      <trkpt lat="41.149000" lon="-3.620233">
        <ele>1655.0</ele>
        <time>2017-10-01T13:04:27Z</time>
      </trkpt>
      <trkpt lat="41.149033" lon="-3.620267">
        <ele>1656.0</ele>
        <time>2017-10-01T13:04:28Z</time>
      </trkpt>
      <trkpt lat="41.149050" lon="-3.620283">
        <ele>1656.0</ele>
        <time>2017-10-01T13:04:29Z</time>
      </trkpt>
      <trkpt lat="41.149083" lon="-3.620300">
        <ele>1656.0</ele>
        <time>2017-10-01T13:04:30Z</time>
      </trkpt>
      <trkpt lat="41.149117" lon="-3.620317">
        <ele>1654.0</ele>
        <time>2017-10-01T13:04:31Z</time>
      </trkpt>
      <trkpt lat="41.149150" lon="-3.620333">
        <ele>1653.0</ele>
        <time>2017-10-01T13:04:32Z</time>
      </trkpt>
      <trkpt lat="41.149217" lon="-3.620350">
        <ele>1652.0</ele>
        <time>2017-10-01T13:04:33Z</time>
      </trkpt>
      <trkpt lat="41.149250" lon="-3.620350">
        <ele>1652.0</ele>
        <time>2017-10-01T13:04:34Z</time>
      </trkpt>
      <trkpt lat="41.149283" lon="-3.620383">
        <ele>1652.0</ele>
        <time>2017-10-01T13:04:35Z</time>
      </trkpt>
      <trkpt lat="41.149283" lon="-3.620433">
        <ele>1651.0</ele>
        <time>2017-10-01T13:04:36Z</time>
      </trkpt>
      <trkpt lat="41.149283" lon="-3.620483">
        <ele>1650.0</ele>
        <time>2017-10-01T13:04:37Z</time>
      </trkpt>
      <trkpt lat="41.149283" lon="-3.620550">
        <ele>1649.0</ele>
        <time>2017-10-01T13:04:38Z</time>
      </trkpt>
      <trkpt lat="41.149283" lon="-3.620617">
        <ele>1649.0</ele>
        <time>2017-10-01T13:04:39Z</time>
      </trkpt>
      <trkpt lat="41.149267" lon="-3.620683">
        <ele>1648.0</ele>
        <time>2017-10-01T13:04:40Z</time>
      </trkpt>
      <trkpt lat="41.149267" lon="-3.620750">
        <ele>1648.0</ele>
        <time>2017-10-01T13:04:41Z</time>
      </trkpt>
      <trkpt lat="41.149250" lon="-3.620817">
        <ele>1648.0</ele>
        <time>2017-10-01T13:04:42Z</time>
      </trkpt>
      <trkpt lat="41.149233" lon="-3.620883">
        <ele>1648.0</ele>
        <time>2017-10-01T13:04:43Z</time>
      </trkpt>
      <trkpt lat="41.149217" lon="-3.620950">
        <ele>1647.0</ele>
        <time>2017-10-01T13:04:44Z</time>
      </trkpt>
      <trkpt lat="41.149217" lon="-3.621017">
        <ele>1645.0</ele>
        <time>2017-10-01T13:04:45Z</time>
      </trkpt>
      <trkpt lat="41.149200" lon="-3.621083">
        <ele>1644.0</ele>
        <time>2017-10-01T13:04:46Z</time>
      </trkpt>
      <trkpt lat="41.149183" lon="-3.621167">
        <ele>1643.0</ele>
        <time>2017-10-01T13:04:47Z</time>
      </trkpt>
      <trkpt lat="41.149167" lon="-3.621233">
        <ele>1641.0</ele>
        <time>2017-10-01T13:04:48Z</time>
      </trkpt>
      <trkpt lat="41.149150" lon="-3.621317">
        <ele>1641.0</ele>
        <time>2017-10-01T13:04:49Z</time>
      </trkpt>
      <trkpt lat="41.149150" lon="-3.621383">
        <ele>1640.0</ele>
        <time>2017-10-01T13:04:50Z</time>
      </trkpt>
      <trkpt lat="41.149133" lon="-3.621450">
        <ele>1641.0</ele>
        <time>2017-10-01T13:04:51Z</time>
      </trkpt>
      <trkpt lat="41.149133" lon="-3.621500">
        <ele>1640.0</ele>
        <time>2017-10-01T13:04:52Z</time>
      </trkpt>
      <trkpt lat="41.149133" lon="-3.621567">
        <ele>1640.0</ele>
        <time>2017-10-01T13:04:53Z</time>
      </trkpt>
      <trkpt lat="41.149133" lon="-3.621617">
        <ele>1639.0</ele>
        <time>2017-10-01T13:04:54Z</time>
      </trkpt>
      <trkpt lat="41.149133" lon="-3.621683">
        <ele>1637.0</ele>
        <time>2017-10-01T13:04:55Z</time>
      </trkpt>
      <trkpt lat="41.149133" lon="-3.621767">
        <ele>1636.0</ele>
        <time>2017-10-01T13:04:56Z</time>
      </trkpt>
      <trkpt lat="41.149117" lon="-3.621833">
        <ele>1635.0</ele>
        <time>2017-10-01T13:04:57Z</time>
      </trkpt>
      <trkpt lat="41.149117" lon="-3.621900">
        <ele>1634.0</ele>
        <time>2017-10-01T13:04:58Z</time>
      </trkpt>
      <trkpt lat="41.149100" lon="-3.621983">
        <ele>1633.0</ele>
        <time>2017-10-01T13:04:59Z</time>
      </trkpt>
      <trkpt lat="41.149067" lon="-3.622050">
        <ele>1632.0</ele>
        <time>2017-10-01T13:05:00Z</time>
      </trkpt>
      <trkpt lat="41.149050" lon="-3.622117">
        <ele>1630.0</ele>
        <time>2017-10-01T13:05:01Z</time>
      </trkpt>
      <trkpt lat="41.149033" lon="-3.622200">
        <ele>1629.0</ele>
        <time>2017-10-01T13:05:02Z</time>
      </trkpt>
      <trkpt lat="41.149000" lon="-3.622283">
        <ele>1627.0</ele>
        <time>2017-10-01T13:05:03Z</time>
      </trkpt>
      <trkpt lat="41.148983" lon="-3.622367">
        <ele>1627.0</ele>
        <time>2017-10-01T13:05:04Z</time>
      </trkpt>
      <trkpt lat="41.148967" lon="-3.622433">
        <ele>1627.0</ele>
        <time>2017-10-01T13:05:05Z</time>
      </trkpt>
      <trkpt lat="41.148950" lon="-3.622500">
        <ele>1626.0</ele>
        <time>2017-10-01T13:05:06Z</time>
      </trkpt>
      <trkpt lat="41.148933" lon="-3.622583">
        <ele>1624.0</ele>
        <time>2017-10-01T13:05:07Z</time>
      </trkpt>
      <trkpt lat="41.148917" lon="-3.622667">
        <ele>1622.0</ele>
        <time>2017-10-01T13:05:08Z</time>
      </trkpt>
      <trkpt lat="41.148900" lon="-3.622750">
        <ele>1621.0</ele>
        <time>2017-10-01T13:05:09Z</time>
      </trkpt>
      <trkpt lat="41.148883" lon="-3.622817">
        <ele>1620.0</ele>
        <time>2017-10-01T13:05:10Z</time>
      </trkpt>
      <trkpt lat="41.148867" lon="-3.622900">
        <ele>1619.0</ele>
        <time>2017-10-01T13:05:11Z</time>
      </trkpt>
      <trkpt lat="41.148833" lon="-3.622983">
        <ele>1619.0</ele>
        <time>2017-10-01T13:05:12Z</time>
      </trkpt>
      <trkpt lat="41.148817" lon="-3.623067">
        <ele>1617.0</ele>
        <time>2017-10-01T13:05:13Z</time>
      </trkpt>
      <trkpt lat="41.148800" lon="-3.623150">
        <ele>1616.0</ele>
        <time>2017-10-01T13:05:14Z</time>
      </trkpt>
      <trkpt lat="41.148767" lon="-3.623233">
        <ele>1615.0</ele>
        <time>2017-10-01T13:05:15Z</time>
      </trkpt>
      <trkpt lat="41.148750" lon="-3.623317">
        <ele>1615.0</ele>
        <time>2017-10-01T13:05:16Z</time>
      </trkpt>
      <trkpt lat="41.148750" lon="-3.623383">
        <ele>1614.0</ele>
        <time>2017-10-01T13:05:17Z</time>
      </trkpt>
      <trkpt lat="41.148717" lon="-3.623467">
        <ele>1613.0</ele>
        <time>2017-10-01T13:05:18Z</time>
      </trkpt>
      <trkpt lat="41.148700" lon="-3.623550">
        <ele>1612.0</ele>
        <time>2017-10-01T13:05:19Z</time>
      </trkpt>
      <trkpt lat="41.148683" lon="-3.623650">
        <ele>1611.0</ele>
        <time>2017-10-01T13:05:20Z</time>
      </trkpt>
      <trkpt lat="41.148650" lon="-3.623733">
        <ele>1611.0</ele>
        <time>2017-10-01T13:05:21Z</time>
      </trkpt>
      <trkpt lat="41.148633" lon="-3.623817">
        <ele>1610.0</ele>
        <time>2017-10-01T13:05:22Z</time>
      </trkpt>
      <trkpt lat="41.148617" lon="-3.623883">
        <ele>1609.0</ele>
        <time>2017-10-01T13:05:23Z</time>
      </trkpt>
      <trkpt lat="41.148600" lon="-3.623967">
        <ele>1609.0</ele>
        <time>2017-10-01T13:05:24Z</time>
      </trkpt>
      <trkpt lat="41.148567" lon="-3.624050">
        <ele>1608.0</ele>
        <time>2017-10-01T13:05:25Z</time>
      </trkpt>
      <trkpt lat="41.148533" lon="-3.624150">
        <ele>1606.0</ele>
        <time>2017-10-01T13:05:26Z</time>
      </trkpt>
      <trkpt lat="41.148500" lon="-3.624233">
        <ele>1605.0</ele>
        <time>2017-10-01T13:05:27Z</time>
      </trkpt>
      <trkpt lat="41.148450" lon="-3.624333">
        <ele>1604.0</ele>
        <time>2017-10-01T13:05:28Z</time>
      </trkpt>
      <trkpt lat="41.148417" lon="-3.624417">
        <ele>1603.0</ele>
        <time>2017-10-01T13:05:29Z</time>
      </trkpt>
      <trkpt lat="41.148383" lon="-3.624500">
        <ele>1602.0</ele>
        <time>2017-10-01T13:05:30Z</time>
      </trkpt>
      <trkpt lat="41.148350" lon="-3.624583">
        <ele>1601.0</ele>
        <time>2017-10-01T13:05:31Z</time>
      </trkpt>
      <trkpt lat="41.148333" lon="-3.624667">
        <ele>1599.0</ele>
        <time>2017-10-01T13:05:32Z</time>
      </trkpt>
      <trkpt lat="41.148300" lon="-3.624750">
        <ele>1598.0</ele>
        <time>2017-10-01T13:05:33Z</time>
      </trkpt>
      <trkpt lat="41.148267" lon="-3.624850">
        <ele>1596.0</ele>
        <time>2017-10-01T13:05:34Z</time>
      </trkpt>
      <trkpt lat="41.148250" lon="-3.624933">
        <ele>1595.0</ele>
        <time>2017-10-01T13:05:35Z</time>
      </trkpt>
      <trkpt lat="41.148217" lon="-3.625033">
        <ele>1594.0</ele>
        <time>2017-10-01T13:05:36Z</time>
      </trkpt>
      <trkpt lat="41.148167" lon="-3.625117">
        <ele>1592.0</ele>
        <time>2017-10-01T13:05:37Z</time>
      </trkpt>
      <trkpt lat="41.148133" lon="-3.625217">
        <ele>1591.0</ele>
        <time>2017-10-01T13:05:38Z</time>
      </trkpt>
      <trkpt lat="41.148083" lon="-3.625300">
        <ele>1589.0</ele>
        <time>2017-10-01T13:05:39Z</time>
      </trkpt>
      <trkpt lat="41.148050" lon="-3.625400">
        <ele>1588.0</ele>
        <time>2017-10-01T13:05:40Z</time>
      </trkpt>
      <trkpt lat="41.148017" lon="-3.625500">
        <ele>1587.0</ele>
        <time>2017-10-01T13:05:41Z</time>
      </trkpt>
      <trkpt lat="41.147983" lon="-3.625583">
        <ele>1586.0</ele>
        <time>2017-10-01T13:05:42Z</time>
      </trkpt>
      <trkpt lat="41.147950" lon="-3.625683">
        <ele>1585.0</ele>
        <time>2017-10-01T13:05:43Z</time>
      </trkpt>
      <trkpt lat="41.147933" lon="-3.625767">
        <ele>1584.0</ele>
        <time>2017-10-01T13:05:44Z</time>
      </trkpt>
      <trkpt lat="41.147900" lon="-3.625867">
        <ele>1583.0</ele>
        <time>2017-10-01T13:05:45Z</time>
      </trkpt>
      <trkpt lat="41.147867" lon="-3.625967">
        <ele>1583.0</ele>
        <time>2017-10-01T13:05:46Z</time>
      </trkpt>
      <trkpt lat="41.147833" lon="-3.626067">
        <ele>1583.0</ele>
        <time>2017-10-01T13:05:47Z</time>
      </trkpt>
      <trkpt lat="41.147817" lon="-3.626150">
        <ele>1583.0</ele>
        <time>2017-10-01T13:05:48Z</time>
      </trkpt>
      <trkpt lat="41.147783" lon="-3.626233">
        <ele>1582.0</ele>
        <time>2017-10-01T13:05:49Z</time>
      </trkpt>
      <trkpt lat="41.147767" lon="-3.626317">
        <ele>1582.0</ele>
        <time>2017-10-01T13:05:50Z</time>
      </trkpt>
      <trkpt lat="41.147733" lon="-3.626417">
        <ele>1581.0</ele>
        <time>2017-10-01T13:05:51Z</time>
      </trkpt>
      <trkpt lat="41.147717" lon="-3.626517">
        <ele>1581.0</ele>
        <time>2017-10-01T13:05:52Z</time>
      </trkpt>
      <trkpt lat="41.147683" lon="-3.626617">
        <ele>1581.0</ele>
        <time>2017-10-01T13:05:53Z</time>
      </trkpt>
      <trkpt lat="41.147667" lon="-3.626700">
        <ele>1581.0</ele>
        <time>2017-10-01T13:05:54Z</time>
      </trkpt>
      <trkpt lat="41.147650" lon="-3.626800">
        <ele>1581.0</ele>
        <time>2017-10-01T13:05:55Z</time>
      </trkpt>
      <trkpt lat="41.147633" lon="-3.626883">
        <ele>1580.0</ele>
        <time>2017-10-01T13:05:56Z</time>
      </trkpt>
      <trkpt lat="41.147617" lon="-3.627000">
        <ele>1579.0</ele>
        <time>2017-10-01T13:05:57Z</time>
      </trkpt>
      <trkpt lat="41.147583" lon="-3.627100">
        <ele>1578.0</ele>
        <time>2017-10-01T13:05:58Z</time>
      </trkpt>
      <trkpt lat="41.147550" lon="-3.627217">
        <ele>1577.0</ele>
        <time>2017-10-01T13:05:59Z</time>
      </trkpt>
      <trkpt lat="41.147500" lon="-3.627317">
        <ele>1576.0</ele>
        <time>2017-10-01T13:06:00Z</time>
      </trkpt>
      <trkpt lat="41.147450" lon="-3.627417">
        <ele>1576.0</ele>
        <time>2017-10-01T13:06:01Z</time>
      </trkpt>
      <trkpt lat="41.147400" lon="-3.627500">
        <ele>1574.0</ele>
        <time>2017-10-01T13:06:02Z</time>
      </trkpt>
      <trkpt lat="41.147367" lon="-3.627583">
        <ele>1572.0</ele>
        <time>2017-10-01T13:06:03Z</time>
      </trkpt>
      <trkpt lat="41.147333" lon="-3.627700">
        <ele>1569.0</ele>
        <time>2017-10-01T13:06:04Z</time>
      </trkpt>
      <trkpt lat="41.147283" lon="-3.627800">
        <ele>1566.0</ele>
        <time>2017-10-01T13:06:05Z</time>
      </trkpt>
      <trkpt lat="41.147217" lon="-3.627917">
        <ele>1565.0</ele>
        <time>2017-10-01T13:06:06Z</time>
      </trkpt>
      <trkpt lat="41.147183" lon="-3.628017">
        <ele>1564.0</ele>
        <time>2017-10-01T13:06:07Z</time>
      </trkpt>
      <trkpt lat="41.147133" lon="-3.628133">
        <ele>1563.0</ele>
        <time>2017-10-01T13:06:08Z</time>
      </trkpt>
      <trkpt lat="41.147100" lon="-3.628233">
        <ele>1561.0</ele>
        <time>2017-10-01T13:06:09Z</time>
      </trkpt>
      <trkpt lat="41.147050" lon="-3.628333">
        <ele>1560.0</ele>
        <time>2017-10-01T13:06:10Z</time>
      </trkpt>
      <trkpt lat="41.147017" lon="-3.628433">
        <ele>1558.0</ele>
        <time>2017-10-01T13:06:11Z</time>
      </trkpt>
      <trkpt lat="41.146983" lon="-3.628550">
        <ele>1556.0</ele>
        <time>2017-10-01T13:06:12Z</time>
      </trkpt>
      <trkpt lat="41.146950" lon="-3.628683">
        <ele>1554.0</ele>
        <time>2017-10-01T13:06:13Z</time>
      </trkpt>
      <trkpt lat="41.146917" lon="-3.628800">
        <ele>1554.0</ele>
        <time>2017-10-01T13:06:14Z</time>
      </trkpt>
      <trkpt lat="41.146900" lon="-3.628917">
        <ele>1554.0</ele>
        <time>2017-10-01T13:06:15Z</time>
      </trkpt>
      <trkpt lat="41.146867" lon="-3.629017">
        <ele>1554.0</ele>
        <time>2017-10-01T13:06:16Z</time>
      </trkpt>
      <trkpt lat="41.146850" lon="-3.629100">
        <ele>1553.0</ele>
        <time>2017-10-01T13:06:17Z</time>
      </trkpt>
      <trkpt lat="41.146817" lon="-3.629200">
        <ele>1552.0</ele>
        <time>2017-10-01T13:06:18Z</time>
      </trkpt>
      <trkpt lat="41.146800" lon="-3.629317">
        <ele>1550.0</ele>
        <time>2017-10-01T13:06:19Z</time>
      </trkpt>
      <trkpt lat="41.146783" lon="-3.629417">
        <ele>1549.0</ele>
        <time>2017-10-01T13:06:20Z</time>
      </trkpt>
      <trkpt lat="41.146750" lon="-3.629533">
        <ele>1548.0</ele>
        <time>2017-10-01T13:06:21Z</time>
      </trkpt>
      <trkpt lat="41.146733" lon="-3.629617">
        <ele>1547.0</ele>
        <time>2017-10-01T13:06:22Z</time>
      </trkpt>
      <trkpt lat="41.146717" lon="-3.629717">
        <ele>1546.0</ele>
        <time>2017-10-01T13:06:23Z</time>
      </trkpt>
      <trkpt lat="41.146700" lon="-3.629817">
        <ele>1546.0</ele>
        <time>2017-10-01T13:06:24Z</time>
      </trkpt>
      <trkpt lat="41.146683" lon="-3.629900">
        <ele>1545.0</ele>
        <time>2017-10-01T13:06:25Z</time>
      </trkpt>
      <trkpt lat="41.146667" lon="-3.630000">
        <ele>1544.0</ele>
        <time>2017-10-01T13:06:26Z</time>
      </trkpt>
      <trkpt lat="41.146650" lon="-3.630100">
        <ele>1543.0</ele>
        <time>2017-10-01T13:06:27Z</time>
      </trkpt>
      <trkpt lat="41.146617" lon="-3.630183">
        <ele>1543.0</ele>
        <time>2017-10-01T13:06:28Z</time>
      </trkpt>
      <trkpt lat="41.146617" lon="-3.630283">
        <ele>1542.0</ele>
        <time>2017-10-01T13:06:29Z</time>
      </trkpt>
      <trkpt lat="41.146617" lon="-3.630383">
        <ele>1541.0</ele>
        <time>2017-10-01T13:06:30Z</time>
      </trkpt>
      <trkpt lat="41.146600" lon="-3.630467">
        <ele>1540.0</ele>
        <time>2017-10-01T13:06:31Z</time>
      </trkpt>
      <trkpt lat="41.146600" lon="-3.630550">
        <ele>1539.0</ele>
        <time>2017-10-01T13:06:32Z</time>
      </trkpt>
      <trkpt lat="41.146567" lon="-3.630650">
        <ele>1538.0</ele>
        <time>2017-10-01T13:06:33Z</time>
      </trkpt>
      <trkpt lat="41.146550" lon="-3.630750">
        <ele>1537.0</ele>
        <time>2017-10-01T13:06:34Z</time>
      </trkpt>
      <trkpt lat="41.146533" lon="-3.630850">
        <ele>1536.0</ele>
        <time>2017-10-01T13:06:35Z</time>
      </trkpt>
      <trkpt lat="41.146500" lon="-3.630933">
        <ele>1534.0</ele>
        <time>2017-10-01T13:06:36Z</time>
      </trkpt>
      <trkpt lat="41.146483" lon="-3.631050">
        <ele>1533.0</ele>
        <time>2017-10-01T13:06:37Z</time>
      </trkpt>
      <trkpt lat="41.146467" lon="-3.631150">
        <ele>1532.0</ele>
        <time>2017-10-01T13:06:38Z</time>
      </trkpt>
      <trkpt lat="41.146450" lon="-3.631250">
        <ele>1532.0</ele>
        <time>2017-10-01T13:06:39Z</time>
      </trkpt>
      <trkpt lat="41.146433" lon="-3.631333">
        <ele>1532.0</ele>
        <time>2017-10-01T13:06:40Z</time>
      </trkpt>
      <trkpt lat="41.146417" lon="-3.631433">
        <ele>1533.0</ele>
        <time>2017-10-01T13:06:41Z</time>
      </trkpt>
      <trkpt lat="41.146400" lon="-3.631517">
        <ele>1534.0</ele>
        <time>2017-10-01T13:06:42Z</time>
      </trkpt>
      <trkpt lat="41.146400" lon="-3.631583">
        <ele>1534.0</ele>
        <time>2017-10-01T13:06:43Z</time>
      </trkpt>
      <trkpt lat="41.146400" lon="-3.631667">
        <ele>1534.0</ele>
        <time>2017-10-01T13:06:44Z</time>
      </trkpt>
      <trkpt lat="41.146400" lon="-3.631733">
        <ele>1534.0</ele>
        <time>2017-10-01T13:06:45Z</time>
      </trkpt>
      <trkpt lat="41.146417" lon="-3.631817">
        <ele>1534.0</ele>
        <time>2017-10-01T13:06:46Z</time>
      </trkpt>
      <trkpt lat="41.146417" lon="-3.631900">
        <ele>1533.0</ele>
        <time>2017-10-01T13:06:47Z</time>
      </trkpt>
      <trkpt lat="41.146433" lon="-3.631983">
        <ele>1533.0</ele>
        <time>2017-10-01T13:06:48Z</time>
      </trkpt>
      <trkpt lat="41.146467" lon="-3.632050">
        <ele>1533.0</ele>
        <time>2017-10-01T13:06:49Z</time>
      </trkpt>
      <trkpt lat="41.146483" lon="-3.632117">
        <ele>1534.0</ele>
        <time>2017-10-01T13:06:50Z</time>
      </trkpt>
      <trkpt lat="41.146500" lon="-3.632167">
        <ele>1533.0</ele>
        <time>2017-10-01T13:06:51Z</time>
      </trkpt>
      <trkpt lat="41.146533" lon="-3.632217">
        <ele>1532.0</ele>
        <time>2017-10-01T13:06:52Z</time>
      </trkpt>
      <trkpt lat="41.146583" lon="-3.632250">
        <ele>1531.0</ele>
        <time>2017-10-01T13:06:53Z</time>
      </trkpt>
      <trkpt lat="41.146650" lon="-3.632283">
        <ele>1530.0</ele>
        <time>2017-10-01T13:06:54Z</time>
      </trkpt>
      <trkpt lat="41.146717" lon="-3.632283">
        <ele>1531.0</ele>
        <time>2017-10-01T13:06:55Z</time>
      </trkpt>
      <trkpt lat="41.146783" lon="-3.632267">
        <ele>1531.0</ele>
        <time>2017-10-01T13:06:56Z</time>
      </trkpt>
      <trkpt lat="41.146833" lon="-3.632250">
        <ele>1531.0</ele>
        <time>2017-10-01T13:06:57Z</time>
      </trkpt>
      <trkpt lat="41.146883" lon="-3.632217">
        <ele>1531.0</ele>
        <time>2017-10-01T13:06:58Z</time>
      </trkpt>
      <trkpt lat="41.146933" lon="-3.632167">
        <ele>1530.0</ele>
        <time>2017-10-01T13:06:59Z</time>
      </trkpt>
      <trkpt lat="41.147000" lon="-3.632083">
        <ele>1529.0</ele>
        <time>2017-10-01T13:07:00Z</time>
      </trkpt>
      <trkpt lat="41.147050" lon="-3.631983">
        <ele>1529.0</ele>
        <time>2017-10-01T13:07:01Z</time>
      </trkpt>
      <trkpt lat="41.147083" lon="-3.631883">
        <ele>1530.0</ele>
        <time>2017-10-01T13:07:02Z</time>
      </trkpt>
      <trkpt lat="41.147100" lon="-3.631767">
        <ele>1530.0</ele>
        <time>2017-10-01T13:07:03Z</time>
      </trkpt>
      <trkpt lat="41.147100" lon="-3.631667">
        <ele>1529.0</ele>
        <time>2017-10-01T13:07:04Z</time>
      </trkpt>
      <trkpt lat="41.147117" lon="-3.631550">
        <ele>1528.0</ele>
        <time>2017-10-01T13:07:05Z</time>
      </trkpt>
      <trkpt lat="41.147150" lon="-3.631450">
        <ele>1526.0</ele>
        <time>2017-10-01T13:07:06Z</time>
      </trkpt>
      <trkpt lat="41.147200" lon="-3.631350">
        <ele>1524.0</ele>
        <time>2017-10-01T13:07:07Z</time>
      </trkpt>
      <trkpt lat="41.147267" lon="-3.631283">
        <ele>1522.0</ele>
        <time>2017-10-01T13:07:08Z</time>
      </trkpt>
      <trkpt lat="41.147333" lon="-3.631233">
        <ele>1522.0</ele>
        <time>2017-10-01T13:07:09Z</time>
      </trkpt>
      <trkpt lat="41.147400" lon="-3.631217">
        <ele>1521.0</ele>
        <time>2017-10-01T13:07:10Z</time>
      </trkpt>
      <trkpt lat="41.147450" lon="-3.631200">
        <ele>1521.0</ele>
        <time>2017-10-01T13:07:11Z</time>
      </trkpt>
      <trkpt lat="41.147517" lon="-3.631167">
        <ele>1520.0</ele>
        <time>2017-10-01T13:07:12Z</time>
      </trkpt>
      <trkpt lat="41.147583" lon="-3.631167">
        <ele>1519.0</ele>
        <time>2017-10-01T13:07:13Z</time>
      </trkpt>
      <trkpt lat="41.147650" lon="-3.631150">
        <ele>1518.0</ele>
        <time>2017-10-01T13:07:14Z</time>
      </trkpt>
      <trkpt lat="41.147717" lon="-3.631150">
        <ele>1518.0</ele>
        <time>2017-10-01T13:07:15Z</time>
      </trkpt>
      <trkpt lat="41.147767" lon="-3.631150">
        <ele>1518.0</ele>
        <time>2017-10-01T13:07:16Z</time>
      </trkpt>
      <trkpt lat="41.147833" lon="-3.631150">
        <ele>1519.0</ele>
        <time>2017-10-01T13:07:17Z</time>
      </trkpt>
      <trkpt lat="41.147883" lon="-3.631150">
        <ele>1519.0</ele>
        <time>2017-10-01T13:07:18Z</time>
      </trkpt>
      <trkpt lat="41.147917" lon="-3.631150">
        <ele>1519.0</ele>
        <time>2017-10-01T13:07:19Z</time>
      </trkpt>
      <trkpt lat="41.147967" lon="-3.631167">
        <ele>1518.0</ele>
        <time>2017-10-01T13:07:20Z</time>
      </trkpt>
      <trkpt lat="41.148033" lon="-3.631183">
        <ele>1516.0</ele>
        <time>2017-10-01T13:07:21Z</time>
      </trkpt>
      <trkpt lat="41.148083" lon="-3.631183">
        <ele>1516.0</ele>
        <time>2017-10-01T13:07:22Z</time>
      </trkpt>
      <trkpt lat="41.148150" lon="-3.631183">
        <ele>1515.0</ele>
        <time>2017-10-01T13:07:23Z</time>
      </trkpt>
      <trkpt lat="41.148217" lon="-3.631183">
        <ele>1515.0</ele>
        <time>2017-10-01T13:07:24Z</time>
      </trkpt>
      <trkpt lat="41.148267" lon="-3.631183">
        <ele>1516.0</ele>
        <time>2017-10-01T13:07:25Z</time>
      </trkpt>
      <trkpt lat="41.148333" lon="-3.631183">
        <ele>1515.0</ele>
        <time>2017-10-01T13:07:26Z</time>
      </trkpt>
      <trkpt lat="41.148383" lon="-3.631183">
        <ele>1515.0</ele>
        <time>2017-10-01T13:07:27Z</time>
      </trkpt>
      <trkpt lat="41.148450" lon="-3.631217">
        <ele>1513.0</ele>
        <time>2017-10-01T13:07:28Z</time>
      </trkpt>
      <trkpt lat="41.148517" lon="-3.631250">
        <ele>1512.0</ele>
        <time>2017-10-01T13:07:29Z</time>
      </trkpt>
      <trkpt lat="41.148600" lon="-3.631283">
        <ele>1511.0</ele>
        <time>2017-10-01T13:07:30Z</time>
      </trkpt>
      <trkpt lat="41.148650" lon="-3.631333">
        <ele>1511.0</ele>
        <time>2017-10-01T13:07:31Z</time>
      </trkpt>
      <trkpt lat="41.148700" lon="-3.631367">
        <ele>1511.0</ele>
        <time>2017-10-01T13:07:32Z</time>
      </trkpt>
      <trkpt lat="41.148750" lon="-3.631400">
        <ele>1510.0</ele>
        <time>2017-10-01T13:07:33Z</time>
      </trkpt>
      <trkpt lat="41.148817" lon="-3.631433">
        <ele>1508.0</ele>
        <time>2017-10-01T13:07:34Z</time>
      </trkpt>
      <trkpt lat="41.148883" lon="-3.631467">
        <ele>1507.0</ele>
        <time>2017-10-01T13:07:35Z</time>
      </trkpt>
      <trkpt lat="41.148967" lon="-3.631483">
        <ele>1505.0</ele>
        <time>2017-10-01T13:07:36Z</time>
      </trkpt>
      <trkpt lat="41.149050" lon="-3.631483">
        <ele>1505.0</ele>
        <time>2017-10-01T13:07:37Z</time>
      </trkpt>
      <trkpt lat="41.149117" lon="-3.631500">
        <ele>1505.0</ele>
        <time>2017-10-01T13:07:38Z</time>
      </trkpt>
      <trkpt lat="41.149200" lon="-3.631500">
        <ele>1504.0</ele>
        <time>2017-10-01T13:07:39Z</time>
      </trkpt>
      <trkpt lat="41.149267" lon="-3.631517">
        <ele>1503.0</ele>
        <time>2017-10-01T13:07:40Z</time>
      </trkpt>
      <trkpt lat="41.149350" lon="-3.631533">
        <ele>1502.0</ele>
        <time>2017-10-01T13:07:41Z</time>
      </trkpt>
      <trkpt lat="41.149417" lon="-3.631550">
        <ele>1501.0</ele>
        <time>2017-10-01T13:07:42Z</time>
      </trkpt>
      <trkpt lat="41.149500" lon="-3.631583">
        <ele>1500.0</ele>
        <time>2017-10-01T13:07:43Z</time>
      </trkpt>
      <trkpt lat="41.149583" lon="-3.631600">
        <ele>1500.0</ele>
        <time>2017-10-01T13:07:44Z</time>
      </trkpt>
      <trkpt lat="41.149650" lon="-3.631617">
        <ele>1501.0</ele>
        <time>2017-10-01T13:07:45Z</time>
      </trkpt>
      <trkpt lat="41.149717" lon="-3.631633">
        <ele>1501.0</ele>
        <time>2017-10-01T13:07:46Z</time>
      </trkpt>
      <trkpt lat="41.149783" lon="-3.631667">
        <ele>1502.0</ele>
        <time>2017-10-01T13:07:47Z</time>
      </trkpt>
      <trkpt lat="41.149833" lon="-3.631683">
        <ele>1503.0</ele>
        <time>2017-10-01T13:07:48Z</time>
      </trkpt>
      <trkpt lat="41.149883" lon="-3.631717">
        <ele>1503.0</ele>
        <time>2017-10-01T13:07:49Z</time>
      </trkpt>
      <trkpt lat="41.149917" lon="-3.631733">
        <ele>1503.0</ele>
        <time>2017-10-01T13:07:50Z</time>
      </trkpt>
      <trkpt lat="41.149967" lon="-3.631733">
        <ele>1502.0</ele>
        <time>2017-10-01T13:07:51Z</time>
      </trkpt>
      <trkpt lat="41.150017" lon="-3.631750">
        <ele>1501.0</ele>
        <time>2017-10-01T13:07:52Z</time>
      </trkpt>
      <trkpt lat="41.150083" lon="-3.631767">
        <ele>1500.0</ele>
        <time>2017-10-01T13:07:53Z</time>
      </trkpt>
      <trkpt lat="41.150150" lon="-3.631783">
        <ele>1499.0</ele>
        <time>2017-10-01T13:07:54Z</time>
      </trkpt>
      <trkpt lat="41.150200" lon="-3.631817">
        <ele>1499.0</ele>
        <time>2017-10-01T13:07:55Z</time>
      </trkpt>
      <trkpt lat="41.150267" lon="-3.631833">
        <ele>1499.0</ele>
        <time>2017-10-01T13:07:56Z</time>
      </trkpt>
      <trkpt lat="41.150317" lon="-3.631850">
        <ele>1501.0</ele>
        <time>2017-10-01T13:07:57Z</time>
      </trkpt>
      <trkpt lat="41.150383" lon="-3.631867">
        <ele>1501.0</ele>
        <time>2017-10-01T13:07:58Z</time>
      </trkpt>
      <trkpt lat="41.150433" lon="-3.631883">
        <ele>1501.0</ele>
        <time>2017-10-01T13:07:59Z</time>
      </trkpt>
      <trkpt lat="41.150500" lon="-3.631900">
        <ele>1501.0</ele>
        <time>2017-10-01T13:08:00Z</time>
      </trkpt>
      <trkpt lat="41.150567" lon="-3.631917">
        <ele>1502.0</ele>
        <time>2017-10-01T13:08:01Z</time>
      </trkpt>
      <trkpt lat="41.150633" lon="-3.631950">
        <ele>1502.0</ele>
        <time>2017-10-01T13:08:02Z</time>
      </trkpt>
      <trkpt lat="41.150683" lon="-3.631983">
        <ele>1503.0</ele>
        <time>2017-10-01T13:08:03Z</time>
      </trkpt>
      <trkpt lat="41.150750" lon="-3.632033">
        <ele>1504.0</ele>
        <time>2017-10-01T13:08:04Z</time>
      </trkpt>
      <trkpt lat="41.150800" lon="-3.632067">
        <ele>1505.0</ele>
        <time>2017-10-01T13:08:05Z</time>
      </trkpt>
      <trkpt lat="41.150850" lon="-3.632083">
        <ele>1506.0</ele>
        <time>2017-10-01T13:08:06Z</time>
      </trkpt>
      <trkpt lat="41.150900" lon="-3.632117">
        <ele>1506.0</ele>
        <time>2017-10-01T13:08:07Z</time>
      </trkpt>
      <trkpt lat="41.150967" lon="-3.632133">
        <ele>1507.0</ele>
        <time>2017-10-01T13:08:08Z</time>
      </trkpt>
      <trkpt lat="41.151033" lon="-3.632150">
        <ele>1507.0</ele>
        <time>2017-10-01T13:08:09Z</time>
      </trkpt>
      <trkpt lat="41.151100" lon="-3.632167">
        <ele>1507.0</ele>
        <time>2017-10-01T13:08:10Z</time>
      </trkpt>
      <trkpt lat="41.151150" lon="-3.632183">
        <ele>1509.0</ele>
        <time>2017-10-01T13:08:11Z</time>
      </trkpt>
      <trkpt lat="41.151217" lon="-3.632183">
        <ele>1510.0</ele>
        <time>2017-10-01T13:08:12Z</time>
      </trkpt>
      <trkpt lat="41.151283" lon="-3.632183">
        <ele>1511.0</ele>
        <time>2017-10-01T13:08:13Z</time>
      </trkpt>
      <trkpt lat="41.151350" lon="-3.632150">
        <ele>1511.0</ele>
        <time>2017-10-01T13:08:14Z</time>
      </trkpt>
      <trkpt lat="41.151433" lon="-3.632100">
        <ele>1511.0</ele>
        <time>2017-10-01T13:08:15Z</time>
      </trkpt>
      <trkpt lat="41.151483" lon="-3.632000">
        <ele>1511.0</ele>
        <time>2017-10-01T13:08:16Z</time>
      </trkpt>
      <trkpt lat="41.151533" lon="-3.631883">
        <ele>1512.0</ele>
        <time>2017-10-01T13:08:17Z</time>
      </trkpt>
      <trkpt lat="41.151550" lon="-3.631767">
        <ele>1514.0</ele>
        <time>2017-10-01T13:08:18Z</time>
      </trkpt>
      <trkpt lat="41.151533" lon="-3.631633">
        <ele>1514.0</ele>
        <time>2017-10-01T13:08:19Z</time>
      </trkpt>
      <trkpt lat="41.151483" lon="-3.631517">
        <ele>1515.0</ele>
        <time>2017-10-01T13:08:20Z</time>
      </trkpt>
      <trkpt lat="41.151400" lon="-3.631433">
        <ele>1515.0</ele>
        <time>2017-10-01T13:08:21Z</time>
      </trkpt>
      <trkpt lat="41.151317" lon="-3.631367">
        <ele>1516.0</ele>
        <time>2017-10-01T13:08:22Z</time>
      </trkpt>
      <trkpt lat="41.151217" lon="-3.631333">
        <ele>1517.0</ele>
        <time>2017-10-01T13:08:23Z</time>
      </trkpt>
      <trkpt lat="41.151117" lon="-3.631333">
        <ele>1517.0</ele>
        <time>2017-10-01T13:08:24Z</time>
      </trkpt>
      <trkpt lat="41.151033" lon="-3.631367">
        <ele>1517.0</ele>
        <time>2017-10-01T13:08:25Z</time>
      </trkpt>
      <trkpt lat="41.150950" lon="-3.631417">
        <ele>1517.0</ele>
        <time>2017-10-01T13:08:26Z</time>
      </trkpt>
      <trkpt lat="41.150867" lon="-3.631483">
        <ele>1516.0</ele>
        <time>2017-10-01T13:08:27Z</time>
      </trkpt>
      <trkpt lat="41.150817" lon="-3.631583">
        <ele>1515.0</ele>
        <time>2017-10-01T13:08:28Z</time>
      </trkpt>
      <trkpt lat="41.150783" lon="-3.631700">
        <ele>1515.0</ele>
        <time>2017-10-01T13:08:29Z</time>
      </trkpt>
      <trkpt lat="41.150783" lon="-3.631833">
        <ele>1515.0</ele>
        <time>2017-10-01T13:08:30Z</time>
      </trkpt>
      <trkpt lat="41.150800" lon="-3.631933">
        <ele>1517.0</ele>
        <time>2017-10-01T13:08:31Z</time>
      </trkpt>
      <trkpt lat="41.150833" lon="-3.632000">
        <ele>1519.0</ele>
        <time>2017-10-01T13:08:32Z</time>
      </trkpt>
      <trkpt lat="41.150867" lon="-3.632067">
        <ele>1521.0</ele>
        <time>2017-10-01T13:08:33Z</time>
      </trkpt>
      <trkpt lat="41.150917" lon="-3.632117">
        <ele>1522.0</ele>
        <time>2017-10-01T13:08:34Z</time>
      </trkpt>
      <trkpt lat="41.150967" lon="-3.632167">
        <ele>1523.0</ele>
        <time>2017-10-01T13:08:35Z</time>
      </trkpt>
      <trkpt lat="41.151017" lon="-3.632217">
        <ele>1524.0</ele>
        <time>2017-10-01T13:08:36Z</time>
      </trkpt>
      <trkpt lat="41.151083" lon="-3.632250">
        <ele>1524.0</ele>
        <time>2017-10-01T13:08:37Z</time>
      </trkpt>
      <trkpt lat="41.151150" lon="-3.632283">
        <ele>1526.0</ele>
        <time>2017-10-01T13:08:38Z</time>
      </trkpt>
      <trkpt lat="41.151217" lon="-3.632317">
        <ele>1527.0</ele>
        <time>2017-10-01T13:08:39Z</time>
      </trkpt>
      <trkpt lat="41.151283" lon="-3.632333">
        <ele>1528.0</ele>
        <time>2017-10-01T13:08:40Z</time>
      </trkpt>
      <trkpt lat="41.151350" lon="-3.632333">
        <ele>1528.0</ele>
        <time>2017-10-01T13:08:41Z</time>
      </trkpt>
      <trkpt lat="41.151433" lon="-3.632333">
        <ele>1528.0</ele>
        <time>2017-10-01T13:08:42Z</time>
      </trkpt>
      <trkpt lat="41.151500" lon="-3.632317">
        <ele>1529.0</ele>
        <time>2017-10-01T13:08:43Z</time>
      </trkpt>
      <trkpt lat="41.151583" lon="-3.632283">
        <ele>1529.0</ele>
        <time>2017-10-01T13:08:44Z</time>
      </trkpt>
      <trkpt lat="41.151650" lon="-3.632250">
        <ele>1530.0</ele>
        <time>2017-10-01T13:08:45Z</time>
      </trkpt>
      <trkpt lat="41.151717" lon="-3.632200">
        <ele>1531.0</ele>
        <time>2017-10-01T13:08:46Z</time>
      </trkpt>
      <trkpt lat="41.151783" lon="-3.632167">
        <ele>1532.0</ele>
        <time>2017-10-01T13:08:47Z</time>
      </trkpt>
      <trkpt lat="41.151867" lon="-3.632117">
        <ele>1533.0</ele>
        <time>2017-10-01T13:08:48Z</time>
      </trkpt>
      <trkpt lat="41.151933" lon="-3.632050">
        <ele>1534.0</ele>
        <time>2017-10-01T13:08:49Z</time>
      </trkpt>
      <trkpt lat="41.152000" lon="-3.632017">
        <ele>1536.0</ele>
        <time>2017-10-01T13:08:50Z</time>
      </trkpt>
      <trkpt lat="41.152067" lon="-3.631967">
        <ele>1536.0</ele>
        <time>2017-10-01T13:08:51Z</time>
      </trkpt>
      <trkpt lat="41.152150" lon="-3.631933">
        <ele>1537.0</ele>
        <time>2017-10-01T13:08:52Z</time>
      </trkpt>
      <trkpt lat="41.152233" lon="-3.631883">
        <ele>1537.0</ele>
        <time>2017-10-01T13:08:53Z</time>
      </trkpt>
      <trkpt lat="41.152300" lon="-3.631817">
        <ele>1538.0</ele>
        <time>2017-10-01T13:08:54Z</time>
      </trkpt>
      <trkpt lat="41.152367" lon="-3.631717">
        <ele>1538.0</ele>
        <time>2017-10-01T13:08:55Z</time>
      </trkpt>
      <trkpt lat="41.152400" lon="-3.631583">
        <ele>1538.0</ele>
        <time>2017-10-01T13:08:56Z</time>
      </trkpt>
      <trkpt lat="41.152417" lon="-3.631433">
        <ele>1539.0</ele>
        <time>2017-10-01T13:08:57Z</time>
      </trkpt>
      <trkpt lat="41.152400" lon="-3.631300">
        <ele>1540.0</ele>
        <time>2017-10-01T13:08:58Z</time>
      </trkpt>
      <trkpt lat="41.152383" lon="-3.631150">
        <ele>1541.0</ele>
        <time>2017-10-01T13:08:59Z</time>
      </trkpt>
      <trkpt lat="41.152317" lon="-3.631033">
        <ele>1542.0</ele>
        <time>2017-10-01T13:09:00Z</time>
      </trkpt>
      <trkpt lat="41.152233" lon="-3.630917">
        <ele>1543.0</ele>
        <time>2017-10-01T13:09:01Z</time>
      </trkpt>
      <trkpt lat="41.152150" lon="-3.630867">
        <ele>1544.0</ele>
        <time>2017-10-01T13:09:02Z</time>
      </trkpt>
      <trkpt lat="41.152050" lon="-3.630833">
        <ele>1545.0</ele>
        <time>2017-10-01T13:09:03Z</time>
      </trkpt>
      <trkpt lat="41.151967" lon="-3.630833">
        <ele>1546.0</ele>
        <time>2017-10-01T13:09:04Z</time>
      </trkpt>
      <trkpt lat="41.151883" lon="-3.630867">
        <ele>1547.0</ele>
        <time>2017-10-01T13:09:05Z</time>
      </trkpt>
      <trkpt lat="41.151817" lon="-3.630917">
        <ele>1548.0</ele>
        <time>2017-10-01T13:09:06Z</time>
      </trkpt>
      <trkpt lat="41.151767" lon="-3.631000">
        <ele>1548.0</ele>
        <time>2017-10-01T13:09:07Z</time>
      </trkpt>
      <trkpt lat="41.151733" lon="-3.631083">
        <ele>1548.0</ele>
        <time>2017-10-01T13:09:08Z</time>
      </trkpt>
      <trkpt lat="41.151700" lon="-3.631183">
        <ele>1550.0</ele>
        <time>2017-10-01T13:09:09Z</time>
      </trkpt>
      <trkpt lat="41.151683" lon="-3.631267">
        <ele>1552.0</ele>
        <time>2017-10-01T13:09:10Z</time>
      </trkpt>
      <trkpt lat="41.151683" lon="-3.631333">
        <ele>1554.0</ele>
        <time>2017-10-01T13:09:11Z</time>
      </trkpt>
      <trkpt lat="41.151683" lon="-3.631400">
        <ele>1554.0</ele>
        <time>2017-10-01T13:09:12Z</time>
      </trkpt>
      <trkpt lat="41.151717" lon="-3.631483">
        <ele>1554.0</ele>
        <time>2017-10-01T13:09:13Z</time>
      </trkpt>
      <trkpt lat="41.151750" lon="-3.631567">
        <ele>1554.0</ele>
        <time>2017-10-01T13:09:14Z</time>
      </trkpt>
      <trkpt lat="41.151783" lon="-3.631650">
        <ele>1556.0</ele>
        <time>2017-10-01T13:09:15Z</time>
      </trkpt>
      <trkpt lat="41.151800" lon="-3.631717">
        <ele>1558.0</ele>
        <time>2017-10-01T13:09:16Z</time>
      </trkpt>
      <trkpt lat="41.151833" lon="-3.631767">
        <ele>1560.0</ele>
        <time>2017-10-01T13:09:17Z</time>
      </trkpt>
      <trkpt lat="41.151867" lon="-3.631817">
        <ele>1560.0</ele>
        <time>2017-10-01T13:09:18Z</time>
      </trkpt>
      <trkpt lat="41.151900" lon="-3.631867">
        <ele>1560.0</ele>
        <time>2017-10-01T13:09:19Z</time>
      </trkpt>
      <trkpt lat="41.151950" lon="-3.631917">
        <ele>1558.0</ele>
        <time>2017-10-01T13:09:20Z</time>
      </trkpt>
      <trkpt lat="41.152017" lon="-3.631967">
        <ele>1557.0</ele>
        <time>2017-10-01T13:09:21Z</time>
      </trkpt>
      <trkpt lat="41.152083" lon="-3.632033">
        <ele>1557.0</ele>
        <time>2017-10-01T13:09:22Z</time>
      </trkpt>
      <trkpt lat="41.152150" lon="-3.632083">
        <ele>1558.0</ele>
        <time>2017-10-01T13:09:23Z</time>
      </trkpt>
      <trkpt lat="41.152200" lon="-3.632133">
        <ele>1559.0</ele>
        <time>2017-10-01T13:09:24Z</time>
      </trkpt>
      <trkpt lat="41.152250" lon="-3.632183">
        <ele>1561.0</ele>
        <time>2017-10-01T13:09:25Z</time>
      </trkpt>
      <trkpt lat="41.152300" lon="-3.632217">
        <ele>1561.0</ele>
        <time>2017-10-01T13:09:26Z</time>
      </trkpt>
      <trkpt lat="41.152367" lon="-3.632233">
        <ele>1561.0</ele>
        <time>2017-10-01T13:09:27Z</time>
      </trkpt>
      <trkpt lat="41.152450" lon="-3.632250">
        <ele>1560.0</ele>
        <time>2017-10-01T13:09:28Z</time>
      </trkpt>
      <trkpt lat="41.152533" lon="-3.632233">
        <ele>1561.0</ele>
        <time>2017-10-01T13:09:29Z</time>
      </trkpt>
      <trkpt lat="41.152600" lon="-3.632183">
        <ele>1562.0</ele>
        <time>2017-10-01T13:09:30Z</time>
      </trkpt>
      <trkpt lat="41.152667" lon="-3.632133">
        <ele>1563.0</ele>
        <time>2017-10-01T13:09:31Z</time>
      </trkpt>
      <trkpt lat="41.152733" lon="-3.632067">
        <ele>1564.0</ele>
        <time>2017-10-01T13:09:32Z</time>
      </trkpt>
      <trkpt lat="41.152800" lon="-3.631983">
        <ele>1566.0</ele>
        <time>2017-10-01T13:09:33Z</time>
      </trkpt>
      <trkpt lat="41.152850" lon="-3.631867">
        <ele>1567.0</ele>
        <time>2017-10-01T13:09:34Z</time>
      </trkpt>
      <trkpt lat="41.152867" lon="-3.631733">
        <ele>1567.0</ele>
        <time>2017-10-01T13:09:35Z</time>
      </trkpt>
      <trkpt lat="41.152850" lon="-3.631583">
        <ele>1568.0</ele>
        <time>2017-10-01T13:09:36Z</time>
      </trkpt>
      <trkpt lat="41.152817" lon="-3.631450">
        <ele>1569.0</ele>
        <time>2017-10-01T13:09:37Z</time>
      </trkpt>
      <trkpt lat="41.152767" lon="-3.631317">
        <ele>1571.0</ele>
        <time>2017-10-01T13:09:38Z</time>
      </trkpt>
      <trkpt lat="41.152700" lon="-3.631233">
        <ele>1572.0</ele>
        <time>2017-10-01T13:09:39Z</time>
      </trkpt>
      <trkpt lat="41.152617" lon="-3.631167">
        <ele>1573.0</ele>
        <time>2017-10-01T13:09:40Z</time>
      </trkpt>
      <trkpt lat="41.152517" lon="-3.631133">
        <ele>1573.0</ele>
        <time>2017-10-01T13:09:41Z</time>
      </trkpt>
      <trkpt lat="41.152417" lon="-3.631133">
        <ele>1573.0</ele>
        <time>2017-10-01T13:09:42Z</time>
      </trkpt>
      <trkpt lat="41.152317" lon="-3.631150">
        <ele>1574.0</ele>
        <time>2017-10-01T13:09:43Z</time>
      </trkpt>
      <trkpt lat="41.152217" lon="-3.631183">
        <ele>1576.0</ele>
        <time>2017-10-01T13:09:44Z</time>
      </trkpt>
      <trkpt lat="41.152150" lon="-3.631217">
        <ele>1577.0</ele>
        <time>2017-10-01T13:09:45Z</time>
      </trkpt>
      <trkpt lat="41.152067" lon="-3.631283">
        <ele>1579.0</ele>
        <time>2017-10-01T13:09:46Z</time>
      </trkpt>
      <trkpt lat="41.152017" lon="-3.631350">
        <ele>1580.0</ele>
        <time>2017-10-01T13:09:47Z</time>
      </trkpt>
      <trkpt lat="41.151967" lon="-3.631433">
        <ele>1581.0</ele>
        <time>2017-10-01T13:09:48Z</time>
      </trkpt>
      <trkpt lat="41.151950" lon="-3.631517">
        <ele>1582.0</ele>
        <time>2017-10-01T13:09:49Z</time>
      </trkpt>
      <trkpt lat="41.151933" lon="-3.631617">
        <ele>1583.0</ele>
        <time>2017-10-01T13:09:50Z</time>
      </trkpt>
      <trkpt lat="41.151917" lon="-3.631700">
        <ele>1584.0</ele>
        <time>2017-10-01T13:09:51Z</time>
      </trkpt>
      <trkpt lat="41.151933" lon="-3.631783">
        <ele>1585.0</ele>
        <time>2017-10-01T13:09:52Z</time>
      </trkpt>
      <trkpt lat="41.151950" lon="-3.631867">
        <ele>1586.0</ele>
        <time>2017-10-01T13:09:53Z</time>
      </trkpt>
      <trkpt lat="41.151967" lon="-3.631950">
        <ele>1587.0</ele>
        <time>2017-10-01T13:09:54Z</time>
      </trkpt>
      <trkpt lat="41.151983" lon="-3.632017">
        <ele>1589.0</ele>
        <time>2017-10-01T13:09:55Z</time>
      </trkpt>
      <trkpt lat="41.152017" lon="-3.632083">
        <ele>1589.0</ele>
        <time>2017-10-01T13:09:56Z</time>
      </trkpt>
      <trkpt lat="41.152067" lon="-3.632133">
        <ele>1589.0</ele>
        <time>2017-10-01T13:09:57Z</time>
      </trkpt>
      <trkpt lat="41.152133" lon="-3.632167">
        <ele>1590.0</ele>
        <time>2017-10-01T13:09:58Z</time>
      </trkpt>
      <trkpt lat="41.152200" lon="-3.632167">
        <ele>1591.0</ele>
        <time>2017-10-01T13:09:59Z</time>
      </trkpt>
      <trkpt lat="41.152267" lon="-3.632133">
        <ele>1592.0</ele>
        <time>2017-10-01T13:10:00Z</time>
      </trkpt>
      <trkpt lat="41.152333" lon="-3.632050">
        <ele>1593.0</ele>
        <time>2017-10-01T13:10:01Z</time>
      </trkpt>
      <trkpt lat="41.152367" lon="-3.631950">
        <ele>1593.0</ele>
        <time>2017-10-01T13:10:02Z</time>
      </trkpt>
      <trkpt lat="41.152400" lon="-3.631817">
        <ele>1595.0</ele>
        <time>2017-10-01T13:10:03Z</time>
      </trkpt>
      <trkpt lat="41.152383" lon="-3.631700">
        <ele>1596.0</ele>
        <time>2017-10-01T13:10:04Z</time>
      </trkpt>
      <trkpt lat="41.152350" lon="-3.631567">
        <ele>1597.0</ele>
        <time>2017-10-01T13:10:05Z</time>
      </trkpt>
      <trkpt lat="41.152283" lon="-3.631450">
        <ele>1597.0</ele>
        <time>2017-10-01T13:10:06Z</time>
      </trkpt>
      <trkpt lat="41.152200" lon="-3.631367">
        <ele>1598.0</ele>
        <time>2017-10-01T13:10:07Z</time>
      </trkpt>
      <trkpt lat="41.152117" lon="-3.631300">
        <ele>1599.0</ele>
        <time>2017-10-01T13:10:08Z</time>
      </trkpt>
      <trkpt lat="41.152033" lon="-3.631267">
        <ele>1601.0</ele>
        <time>2017-10-01T13:10:09Z</time>
      </trkpt>
      <trkpt lat="41.151950" lon="-3.631283">
        <ele>1601.0</ele>
        <time>2017-10-01T13:10:10Z</time>
      </trkpt>
      <trkpt lat="41.151867" lon="-3.631317">
        <ele>1601.0</ele>
        <time>2017-10-01T13:10:11Z</time>
      </trkpt>
      <trkpt lat="41.151783" lon="-3.631367">
        <ele>1600.0</ele>
        <time>2017-10-01T13:10:12Z</time>
      </trkpt>
      <trkpt lat="41.151717" lon="-3.631433">
        <ele>1600.0</ele>
        <time>2017-10-01T13:10:13Z</time>
      </trkpt>
      <trkpt lat="41.151667" lon="-3.631517">
        <ele>1601.0</ele>
        <time>2017-10-01T13:10:14Z</time>
      </trkpt>
      <trkpt lat="41.151617" lon="-3.631600">
        <ele>1602.0</ele>
        <time>2017-10-01T13:10:15Z</time>
      </trkpt>
      <trkpt lat="41.151567" lon="-3.631683">
        <ele>1603.0</ele>
        <time>2017-10-01T13:10:16Z</time>
      </trkpt>
      <trkpt lat="41.151550" lon="-3.631783">
        <ele>1605.0</ele>
        <time>2017-10-01T13:10:17Z</time>
      </trkpt>
      <trkpt lat="41.151533" lon="-3.631867">
        <ele>1606.0</ele>
        <time>2017-10-01T13:10:18Z</time>
      </trkpt>
      <trkpt lat="41.151533" lon="-3.631950">
        <ele>1607.0</ele>
        <time>2017-10-01T13:10:19Z</time>
      </trkpt>
      <trkpt lat="41.151550" lon="-3.632033">
        <ele>1608.0</ele>
        <time>2017-10-01T13:10:20Z</time>
      </trkpt>
      <trkpt lat="41.151567" lon="-3.632100">
        <ele>1608.0</ele>
        <time>2017-10-01T13:10:21Z</time>
      </trkpt>
      <trkpt lat="41.151600" lon="-3.632167">
        <ele>1609.0</ele>
        <time>2017-10-01T13:10:22Z</time>
      </trkpt>
      <trkpt lat="41.151633" lon="-3.632233">
        <ele>1610.0</ele>
        <time>2017-10-01T13:10:23Z</time>
      </trkpt>
      <trkpt lat="41.151650" lon="-3.632317">
        <ele>1612.0</ele>
        <time>2017-10-01T13:10:24Z</time>
      </trkpt>
      <trkpt lat="41.151683" lon="-3.632383">
        <ele>1613.0</ele>
        <time>2017-10-01T13:10:25Z</time>
      </trkpt>
      <trkpt lat="41.151717" lon="-3.632450">
        <ele>1614.0</ele>
        <time>2017-10-01T13:10:26Z</time>
      </trkpt>
      <trkpt lat="41.151767" lon="-3.632500">
        <ele>1616.0</ele>
        <time>2017-10-01T13:10:27Z</time>
      </trkpt>
      <trkpt lat="41.151817" lon="-3.632550">
        <ele>1617.0</ele>
        <time>2017-10-01T13:10:28Z</time>
      </trkpt>
      <trkpt lat="41.151883" lon="-3.632567">
        <ele>1618.0</ele>
        <time>2017-10-01T13:10:29Z</time>
      </trkpt>
      <trkpt lat="41.151950" lon="-3.632567">
        <ele>1619.0</ele>
        <time>2017-10-01T13:10:30Z</time>
      </trkpt>
      <trkpt lat="41.152033" lon="-3.632533">
        <ele>1620.0</ele>
        <time>2017-10-01T13:10:31Z</time>
      </trkpt>
      <trkpt lat="41.152100" lon="-3.632467">
        <ele>1621.0</ele>
        <time>2017-10-01T13:10:32Z</time>
      </trkpt>
      <trkpt lat="41.152133" lon="-3.632367">
        <ele>1622.0</ele>
        <time>2017-10-01T13:10:33Z</time>
      </trkpt>
      <trkpt lat="41.152167" lon="-3.632233">
        <ele>1622.0</ele>
        <time>2017-10-01T13:10:34Z</time>
      </trkpt>
      <trkpt lat="41.152150" lon="-3.632100">
        <ele>1624.0</ele>
        <time>2017-10-01T13:10:35Z</time>
      </trkpt>
      <trkpt lat="41.152117" lon="-3.631983">
        <ele>1626.0</ele>
        <time>2017-10-01T13:10:36Z</time>
      </trkpt>
      <trkpt lat="41.152067" lon="-3.631867">
        <ele>1629.0</ele>
        <time>2017-10-01T13:10:37Z</time>
      </trkpt>
      <trkpt lat="41.152000" lon="-3.631783">
        <ele>1631.0</ele>
        <time>2017-10-01T13:10:38Z</time>
      </trkpt>
      <trkpt lat="41.151917" lon="-3.631733">
        <ele>1632.0</ele>
        <time>2017-10-01T13:10:39Z</time>
      </trkpt>
      <trkpt lat="41.151817" lon="-3.631700">
        <ele>1634.0</ele>
        <time>2017-10-01T13:10:40Z</time>
      </trkpt>
      <trkpt lat="41.151717" lon="-3.631700">
        <ele>1636.0</ele>
        <time>2017-10-01T13:10:41Z</time>
      </trkpt>
      <trkpt lat="41.151617" lon="-3.631717">
        <ele>1638.0</ele>
        <time>2017-10-01T13:10:42Z</time>
      </trkpt>
      <trkpt lat="41.151550" lon="-3.631767">
        <ele>1640.0</ele>
        <time>2017-10-01T13:10:43Z</time>
      </trkpt>
      <trkpt lat="41.151483" lon="-3.631833">
        <ele>1641.0</ele>
        <time>2017-10-01T13:10:44Z</time>
      </trkpt>
      <trkpt lat="41.151433" lon="-3.631917">
        <ele>1641.0</ele>
        <time>2017-10-01T13:10:45Z</time>
      </trkpt>
      <trkpt lat="41.151400" lon="-3.632017">
        <ele>1642.0</ele>
        <time>2017-10-01T13:10:46Z</time>
      </trkpt>
      <trkpt lat="41.151367" lon="-3.632117">
        <ele>1644.0</ele>
        <time>2017-10-01T13:10:47Z</time>
      </trkpt>
      <trkpt lat="41.151367" lon="-3.632217">
        <ele>1646.0</ele>
        <time>2017-10-01T13:10:48Z</time>
      </trkpt>
      <trkpt lat="41.151350" lon="-3.632300">
        <ele>1648.0</ele>
        <time>2017-10-01T13:10:49Z</time>
      </trkpt>
      <trkpt lat="41.151367" lon="-3.632367">
        <ele>1649.0</ele>
        <time>2017-10-01T13:10:50Z</time>
      </trkpt>
      <trkpt lat="41.151383" lon="-3.632433">
        <ele>1649.0</ele>
        <time>2017-10-01T13:10:51Z</time>
      </trkpt>
      <trkpt lat="41.151400" lon="-3.632483">
        <ele>1649.0</ele>
        <time>2017-10-01T13:10:52Z</time>
      </trkpt>
      <trkpt lat="41.151433" lon="-3.632533">
        <ele>1649.0</ele>
        <time>2017-10-01T13:10:53Z</time>
      </trkpt>
      <trkpt lat="41.151483" lon="-3.632567">
        <ele>1648.0</ele>
        <time>2017-10-01T13:10:54Z</time>
      </trkpt>
      <trkpt lat="41.151533" lon="-3.632567">
        <ele>1647.0</ele>
        <time>2017-10-01T13:10:55Z</time>
      </trkpt>
      <trkpt lat="41.151600" lon="-3.632567">
        <ele>1647.0</ele>
        <time>2017-10-01T13:10:56Z</time>
      </trkpt>
      <trkpt lat="41.151650" lon="-3.632550">
        <ele>1647.0</ele>
        <time>2017-10-01T13:10:57Z</time>
      </trkpt>
      <trkpt lat="41.151717" lon="-3.632517">
        <ele>1647.0</ele>
        <time>2017-10-01T13:10:58Z</time>
      </trkpt>
      <trkpt lat="41.151767" lon="-3.632483">
        <ele>1647.0</ele>
        <time>2017-10-01T13:10:59Z</time>
      </trkpt>
      <trkpt lat="41.151817" lon="-3.632450">
        <ele>1646.0</ele>
        <time>2017-10-01T13:11:00Z</time>
      </trkpt>
      <trkpt lat="41.151867" lon="-3.632400">
        <ele>1645.0</ele>
        <time>2017-10-01T13:11:01Z</time>
      </trkpt>
      <trkpt lat="41.151933" lon="-3.632350">
        <ele>1645.0</ele>
        <time>2017-10-01T13:11:02Z</time>
      </trkpt>
      <trkpt lat="41.151983" lon="-3.632300">
        <ele>1644.0</ele>
        <time>2017-10-01T13:11:03Z</time>
      </trkpt>
      <trkpt lat="41.152033" lon="-3.632233">
        <ele>1645.0</ele>
        <time>2017-10-01T13:11:04Z</time>
      </trkpt>
      <trkpt lat="41.152083" lon="-3.632183">
        <ele>1646.0</ele>
        <time>2017-10-01T13:11:05Z</time>
      </trkpt>
      <trkpt lat="41.152133" lon="-3.632150">
        <ele>1647.0</ele>
        <time>2017-10-01T13:11:06Z</time>
      </trkpt>
      <trkpt lat="41.152183" lon="-3.632117">
        <ele>1647.0</ele>
        <time>2017-10-01T13:11:07Z</time>
      </trkpt>
      <trkpt lat="41.152233" lon="-3.632067">
        <ele>1647.0</ele>
        <time>2017-10-01T13:11:08Z</time>
      </trkpt>
      <trkpt lat="41.152283" lon="-3.632017">
        <ele>1647.0</ele>
        <time>2017-10-01T13:11:09Z</time>
      </trkpt>
      <trkpt lat="41.152333" lon="-3.631950">
        <ele>1648.0</ele>
        <time>2017-10-01T13:11:10Z</time>
      </trkpt>
      <trkpt lat="41.152367" lon="-3.631867">
        <ele>1648.0</ele>
        <time>2017-10-01T13:11:11Z</time>
      </trkpt>
      <trkpt lat="41.152383" lon="-3.631767">
        <ele>1647.0</ele>
        <time>2017-10-01T13:11:12Z</time>
      </trkpt>
      <trkpt lat="41.152417" lon="-3.631650">
        <ele>1647.0</ele>
        <time>2017-10-01T13:11:13Z</time>
      </trkpt>
      <trkpt lat="41.152433" lon="-3.631533">
        <ele>1648.0</ele>
        <time>2017-10-01T13:11:14Z</time>
      </trkpt>
      <trkpt lat="41.152450" lon="-3.631400">
        <ele>1649.0</ele>
        <time>2017-10-01T13:11:15Z</time>
      </trkpt>
      <trkpt lat="41.152450" lon="-3.631283">
        <ele>1650.0</ele>
        <time>2017-10-01T13:11:16Z</time>
      </trkpt>
      <trkpt lat="41.152417" lon="-3.631150">
        <ele>1651.0</ele>
        <time>2017-10-01T13:11:17Z</time>
      </trkpt>
      <trkpt lat="41.152367" lon="-3.631033">
        <ele>1652.0</ele>
        <time>2017-10-01T13:11:18Z</time>
      </trkpt>
      <trkpt lat="41.152300" lon="-3.630917">
        <ele>1652.0</ele>
        <time>2017-10-01T13:11:19Z</time>
      </trkpt>
      <trkpt lat="41.152233" lon="-3.630817">
        <ele>1653.0</ele>
        <time>2017-10-01T13:11:20Z</time>
      </trkpt>
      <trkpt lat="41.152150" lon="-3.630733">
        <ele>1654.0</ele>
        <time>2017-10-01T13:11:21Z</time>
      </trkpt>
      <trkpt lat="41.152050" lon="-3.630683">
        <ele>1655.0</ele>
        <time>2017-10-01T13:11:22Z</time>
      </trkpt>
      <trkpt lat="41.151967" lon="-3.630633">
        <ele>1656.0</ele>
        <time>2017-10-01T13:11:23Z</time>
      </trkpt>
      <trkpt lat="41.151867" lon="-3.630633">
        <ele>1658.0</ele>
        <time>2017-10-01T13:11:24Z</time>
      </trkpt>
      <trkpt lat="41.151783" lon="-3.630633">
        <ele>1659.0</ele>
        <time>2017-10-01T13:11:25Z</time>
      </trkpt>
      <trkpt lat="41.151700" lon="-3.630667">
        <ele>1660.0</ele>
        <time>2017-10-01T13:11:26Z</time>
      </trkpt>
      <trkpt lat="41.151617" lon="-3.630700">
        <ele>1661.0</ele>
        <time>2017-10-01T13:11:27Z</time>
      </trkpt>
      <trkpt lat="41.151533" lon="-3.630767">
        <ele>1663.0</ele>
        <time>2017-10-01T13:11:28Z</time>
      </trkpt>
      <trkpt lat="41.151483" lon="-3.630850">
        <ele>1665.0</ele>
        <time>2017-10-01T13:11:29Z</time>
      </trkpt>
      <trkpt lat="41.151450" lon="-3.630917">
        <ele>1666.0</ele>
        <time>2017-10-01T13:11:30Z</time>
      </trkpt>
      <trkpt lat="41.151433" lon="-3.631000">
        <ele>1668.0</ele>
        <time>2017-10-01T13:11:31Z</time>
      </trkpt>
      <trkpt lat="41.151433" lon="-3.631083">
        <ele>1670.0</ele>
        <time>2017-10-01T13:11:32Z</time>
      </trkpt>
      <trkpt lat="41.151450" lon="-3.631167">
        <ele>1672.0</ele>
        <time>2017-10-01T13:11:33Z</time>
      </trkpt>
      <trkpt lat="41.151483" lon="-3.631233">
        <ele>1674.0</ele>
        <time>2017-10-01T13:11:34Z</time>
      </trkpt>
      <trkpt lat="41.151550" lon="-3.631283">
        <ele>1677.0</ele>
        <time>2017-10-01T13:11:35Z</time>
      </trkpt>
      <trkpt lat="41.151600" lon="-3.631283">
        <ele>1679.0</ele>
        <time>2017-10-01T13:11:36Z</time>
      </trkpt>
      <trkpt lat="41.151667" lon="-3.631267">
        <ele>1680.0</ele>
        <time>2017-10-01T13:11:37Z</time>
      </trkpt>
      <trkpt lat="41.151733" lon="-3.631233">
        <ele>1680.0</ele>
        <time>2017-10-01T13:11:38Z</time>
      </trkpt>
      <trkpt lat="41.151800" lon="-3.631167">
        <ele>1679.0</ele>
        <time>2017-10-01T13:11:39Z</time>
      </trkpt>
      <trkpt lat="41.151867" lon="-3.631083">
        <ele>1679.0</ele>
        <time>2017-10-01T13:11:40Z</time>
      </trkpt>
      <trkpt lat="41.151917" lon="-3.631000">
        <ele>1681.0</ele>
        <time>2017-10-01T13:11:41Z</time>
      </trkpt>
      <trkpt lat="41.151950" lon="-3.630900">
        <ele>1683.0</ele>
        <time>2017-10-01T13:11:42Z</time>
      </trkpt>
      <trkpt lat="41.151967" lon="-3.630800">
        <ele>1685.0</ele>
        <time>2017-10-01T13:11:43Z</time>
      </trkpt>
      <trkpt lat="41.151967" lon="-3.630683">
        <ele>1686.0</ele>
        <time>2017-10-01T13:11:44Z</time>
      </trkpt>
      <trkpt lat="41.151967" lon="-3.630567">
        <ele>1687.0</ele>
        <time>2017-10-01T13:11:45Z</time>
      </trkpt>
      <trkpt lat="41.151967" lon="-3.630450">
        <ele>1687.0</ele>
        <time>2017-10-01T13:11:46Z</time>
      </trkpt>
      <trkpt lat="41.151967" lon="-3.630317">
        <ele>1688.0</ele>
        <time>2017-10-01T13:11:47Z</time>
      </trkpt>
      <trkpt lat="41.151950" lon="-3.630200">
        <ele>1688.0</ele>
        <time>2017-10-01T13:11:48Z</time>
      </trkpt>
      <trkpt lat="41.151917" lon="-3.630067">
        <ele>1689.0</ele>
        <time>2017-10-01T13:11:49Z</time>
      </trkpt>
      <trkpt lat="41.151867" lon="-3.629933">
        <ele>1690.0</ele>
        <time>2017-10-01T13:11:50Z</time>
      </trkpt>
      <trkpt lat="41.151800" lon="-3.629817">
        <ele>1692.0</ele>
        <time>2017-10-01T13:11:51Z</time>
      </trkpt>
      <trkpt lat="41.151717" lon="-3.629717">
        <ele>1694.0</ele>
        <time>2017-10-01T13:11:52Z</time>
      </trkpt>
      <trkpt lat="41.151617" lon="-3.629650">
        <ele>1696.0</ele>
        <time>2017-10-01T13:11:53Z</time>
      </trkpt>
      <trkpt lat="41.151517" lon="-3.629617">
        <ele>1697.0</ele>
        <time>2017-10-01T13:11:54Z</time>
      </trkpt>
      <trkpt lat="41.151417" lon="-3.629600">
        <ele>1698.0</ele>
        <time>2017-10-01T13:11:55Z</time>
      </trkpt>
      <trkpt lat="41.151317" lon="-3.629617">
        <ele>1699.0</ele>
        <time>2017-10-01T13:11:56Z</time>
      </trkpt>
      <trkpt lat="41.151233" lon="-3.629650">
        <ele>1700.0</ele>
        <time>2017-10-01T13:11:57Z</time>
      </trkpt>
      <trkpt lat="41.151150" lon="-3.629717">
        <ele>1701.0</ele>
        <time>2017-10-01T13:11:58Z</time>
      </trkpt>
      <trkpt lat="41.151083" lon="-3.629767">
        <ele>1702.0</ele>
        <time>2017-10-01T13:11:59Z</time>
      </trkpt>
      <trkpt lat="41.151033" lon="-3.629850">
        <ele>1703.0</ele>
        <time>2017-10-01T13:12:00Z</time>
      </trkpt>
      <trkpt lat="41.151000" lon="-3.629933">
        <ele>1704.0</ele>
        <time>2017-10-01T13:12:01Z</time>
      </trkpt>
      <trkpt lat="41.150983" lon="-3.630033">
        <ele>1706.0</ele>
        <time>2017-10-01T13:12:02Z</time>
      </trkpt>
      <trkpt lat="41.150983" lon="-3.630117">
        <ele>1708.0</ele>
        <time>2017-10-01T13:12:03Z</time>
      </trkpt>
      <trkpt lat="41.151000" lon="-3.630183">
        <ele>1710.0</ele>
        <time>2017-10-01T13:12:04Z</time>
      </trkpt>
      <trkpt lat="41.151033" lon="-3.630250">
        <ele>1711.0</ele>
        <time>2017-10-01T13:12:05Z</time>
      </trkpt>
      <trkpt lat="41.151083" lon="-3.630283">
        <ele>1713.0</ele>
        <time>2017-10-01T13:12:06Z</time>
      </trkpt>
      <trkpt lat="41.151150" lon="-3.630300">
        <ele>1714.0</ele>
        <time>2017-10-01T13:12:07Z</time>
      </trkpt>
      <trkpt lat="41.151217" lon="-3.630300">
        <ele>1715.0</ele>
        <time>2017-10-01T13:12:08Z</time>
      </trkpt>
      <trkpt lat="41.151267" lon="-3.630250">
        <ele>1715.0</ele>
        <time>2017-10-01T13:12:09Z</time>
      </trkpt>
      <trkpt lat="41.151333" lon="-3.630183">
        <ele>1716.0</ele>
        <time>2017-10-01T13:12:10Z</time>
      </trkpt>
      <trkpt lat="41.151367" lon="-3.630100">
        <ele>1717.0</ele>
        <time>2017-10-01T13:12:11Z</time>
      </trkpt>
      <trkpt lat="41.151400" lon="-3.629983">
        <ele>1718.0</ele>
        <time>2017-10-01T13:12:12Z</time>
      </trkpt>
      <trkpt lat="41.151400" lon="-3.629850">
        <ele>1719.0</ele>
        <time>2017-10-01T13:12:13Z</time>
      </trkpt>
      <trkpt lat="41.151383" lon="-3.629717">
        <ele>1719.0</ele>
        <time>2017-10-01T13:12:14Z</time>
      </trkpt>
      <trkpt lat="41.151350" lon="-3.629600">
        <ele>1720.0</ele>
        <time>2017-10-01T13:12:15Z</time>
      </trkpt>
      <trkpt lat="41.151300" lon="-3.629467">
        <ele>1721.0</ele>
        <time>2017-10-01T13:12:16Z</time>
      </trkpt>
      <trkpt lat="41.151250" lon="-3.629350">
        <ele>1723.0</ele>
        <time>2017-10-01T13:12:17Z</time>
      </trkpt>
      <trkpt lat="41.151167" lon="-3.629250">
        <ele>1724.0</ele>
        <time>2017-10-01T13:12:18Z</time>
      </trkpt>
      <trkpt lat="41.151067" lon="-3.629167">
        <ele>1726.0</ele>
        <time>2017-10-01T13:12:19Z</time>
      </trkpt>
      <trkpt lat="41.150967" lon="-3.629133">
        <ele>1727.0</ele>
        <time>2017-10-01T13:12:20Z</time>
      </trkpt>
      <trkpt lat="41.150867" lon="-3.629117">
        <ele>1728.0</ele>
        <time>2017-10-01T13:12:21Z</time>
      </trkpt>
      <trkpt lat="41.150767" lon="-3.629133">
        <ele>1730.0</ele>
        <time>2017-10-01T13:12:22Z</time>
      </trkpt>
      <trkpt lat="41.150683" lon="-3.629167">
        <ele>1732.0</ele>
        <time>2017-10-01T13:12:23Z</time>
      </trkpt>
      <trkpt lat="41.150617" lon="-3.629233">
        <ele>1734.0</ele>
        <time>2017-10-01T13:12:24Z</time>
      </trkpt>
      <trkpt lat="41.150550" lon="-3.629300">
        <ele>1737.0</ele>
        <time>2017-10-01T13:12:25Z</time>
      </trkpt>
      <trkpt lat="41.150517" lon="-3.629367">
        <ele>1738.0</ele>
        <time>2017-10-01T13:12:26Z</time>
      </trkpt>
      <trkpt lat="41.150500" lon="-3.629467">
        <ele>1739.0</ele>
        <time>2017-10-01T13:12:27Z</time>
      </trkpt>
      <trkpt lat="41.150483" lon="-3.629550">
        <ele>1741.0</ele>
        <time>2017-10-01T13:12:28Z</time>
      </trkpt>
      <trkpt lat="41.150500" lon="-3.629633">
        <ele>1743.0</ele>
        <time>2017-10-01T13:12:29Z</time>
      </trkpt>
      <trkpt lat="41.150533" lon="-3.629683">
        <ele>1745.0</ele>
        <time>2017-10-01T13:12:30Z</time>
      </trkpt>
      <trkpt lat="41.150567" lon="-3.629733">
        <ele>1746.0</ele>
        <time>2017-10-01T13:12:31Z</time>
      </trkpt>
      <trkpt lat="41.150633" lon="-3.629767">
        <ele>1746.0</ele>
        <time>2017-10-01T13:12:32Z</time>
      </trkpt>
      <trkpt lat="41.150700" lon="-3.629800">
        <ele>1747.0</ele>
        <time>2017-10-01T13:12:33Z</time>
      </trkpt>
      <trkpt lat="41.150767" lon="-3.629800">
        <ele>1748.0</ele>
        <time>2017-10-01T13:12:34Z</time>
      </trkpt>
      <trkpt lat="41.150817" lon="-3.629800">
        <ele>1749.0</ele>
        <time>2017-10-01T13:12:35Z</time>
      </trkpt>
      <trkpt lat="41.150883" lon="-3.629783">
        <ele>1751.0</ele>
        <time>2017-10-01T13:12:36Z</time>
      </trkpt>
      <trkpt lat="41.150917" lon="-3.629717">
        <ele>1752.0</ele>
        <time>2017-10-01T13:12:37Z</time>
      </trkpt>
      <trkpt lat="41.150967" lon="-3.629650">
        <ele>1752.0</ele>
        <time>2017-10-01T13:12:38Z</time>
      </trkpt>
      <trkpt lat="41.151017" lon="-3.629550">
        <ele>1753.0</ele>
        <time>2017-10-01T13:12:39Z</time>
      </trkpt>
      <trkpt lat="41.151050" lon="-3.629450">
        <ele>1754.0</ele>
        <time>2017-10-01T13:12:40Z</time>
      </trkpt>
      <trkpt lat="41.151083" lon="-3.629350">
        <ele>1755.0</ele>
        <time>2017-10-01T13:12:41Z</time>
      </trkpt>
      <trkpt lat="41.151083" lon="-3.629233">
        <ele>1757.0</ele>
        <time>2017-10-01T13:12:42Z</time>
      </trkpt>
      <trkpt lat="41.151067" lon="-3.629117">
        <ele>1758.0</ele>
        <time>2017-10-01T13:12:43Z</time>
      </trkpt>
      <trkpt lat="41.151050" lon="-3.628983">
        <ele>1758.0</ele>
        <time>2017-10-01T13:12:44Z</time>
      </trkpt>
      <trkpt lat="41.151000" lon="-3.628850">
        <ele>1759.0</ele>
        <time>2017-10-01T13:12:45Z</time>
      </trkpt>
      <trkpt lat="41.150950" lon="-3.628717">
        <ele>1759.0</ele>
        <time>2017-10-01T13:12:46Z</time>
      </trkpt>
      <trkpt lat="41.150883" lon="-3.628600">
        <ele>1760.0</ele>
        <time>2017-10-01T13:12:47Z</time>
      </trkpt>
      <trkpt lat="41.150800" lon="-3.628483">
        <ele>1762.0</ele>
        <time>2017-10-01T13:12:48Z</time>
      </trkpt>
      <trkpt lat="41.150717" lon="-3.628400">
        <ele>1763.0</ele>
        <time>2017-10-01T13:12:49Z</time>
      </trkpt>
      <trkpt lat="41.150617" lon="-3.628350">
        <ele>1764.0</ele>
        <time>2017-10-01T13:12:50Z</time>
      </trkpt>
      <trkpt lat="41.150517" lon="-3.628300">
        <ele>1765.0</ele>
        <time>2017-10-01T13:12:51Z</time>
      </trkpt>
      <trkpt lat="41.150417" lon="-3.628300">
        <ele>1766.0</ele>
        <time>2017-10-01T13:12:52Z</time>
      </trkpt>
      <trkpt lat="41.150317" lon="-3.628317">
        <ele>1768.0</ele>
        <time>2017-10-01T13:12:53Z</time>
      </trkpt>
      <trkpt lat="41.150233" lon="-3.628350">
        <ele>1769.0</ele>
        <time>2017-10-01T13:12:54Z</time>
      </trkpt>
      <trkpt lat="41.150167" lon="-3.628417">
        <ele>1770.0</ele>
        <time>2017-10-01T13:12:55Z</time>
      </trkpt>
      <trkpt lat="41.150100" lon="-3.628467">
        <ele>1771.0</ele>
        <time>2017-10-01T13:12:56Z</time>
      </trkpt>
      <trkpt lat="41.150033" lon="-3.628550">
        <ele>1773.0</ele>
        <time>2017-10-01T13:12:57Z</time>
      </trkpt>
      <trkpt lat="41.150000" lon="-3.628617">
        <ele>1775.0</ele>
        <time>2017-10-01T13:12:58Z</time>
      </trkpt>
      <trkpt lat="41.149967" lon="-3.628683">
        <ele>1776.0</ele>
        <time>2017-10-01T13:12:59Z</time>
      </trkpt>
      <trkpt lat="41.149933" lon="-3.628750">
        <ele>1778.0</ele>
        <time>2017-10-01T13:13:00Z</time>
      </trkpt>
      <trkpt lat="41.149917" lon="-3.628817">
        <ele>1779.0</ele>
        <time>2017-10-01T13:13:01Z</time>
      </trkpt>
      <trkpt lat="41.149917" lon="-3.628867">
        <ele>1779.0</ele>
        <time>2017-10-01T13:13:02Z</time>
      </trkpt>
      <trkpt lat="41.149917" lon="-3.628933">
        <ele>1780.0</ele>
        <time>2017-10-01T13:13:03Z</time>
      </trkpt>
      <trkpt lat="41.149933" lon="-3.629000">
        <ele>1780.0</ele>
        <time>2017-10-01T13:13:04Z</time>
      </trkpt>
      <trkpt lat="41.149967" lon="-3.629050">
        <ele>1780.0</ele>
        <time>2017-10-01T13:13:05Z</time>
      </trkpt>
      <trkpt lat="41.150017" lon="-3.629083">
        <ele>1780.0</ele>
        <time>2017-10-01T13:13:06Z</time>
      </trkpt>
      <trkpt lat="41.150083" lon="-3.629100">
        <ele>1781.0</ele>
        <time>2017-10-01T13:13:07Z</time>
      </trkpt>
      <trkpt lat="41.150133" lon="-3.629083">
        <ele>1782.0</ele>
        <time>2017-10-01T13:13:08Z</time>
      </trkpt>
      <trkpt lat="41.150183" lon="-3.629017">
        <ele>1782.0</ele>
        <time>2017-10-01T13:13:09Z</time>
      </trkpt>
      <trkpt lat="41.150233" lon="-3.628950">
        <ele>1782.0</ele>
        <time>2017-10-01T13:13:10Z</time>
      </trkpt>
      <trkpt lat="41.150283" lon="-3.628850">
        <ele>1782.0</ele>
        <time>2017-10-01T13:13:11Z</time>
      </trkpt>
      <trkpt lat="41.150317" lon="-3.628733">
        <ele>1783.0</ele>
        <time>2017-10-01T13:13:12Z</time>
      </trkpt>
      <trkpt lat="41.150350" lon="-3.628600">
        <ele>1784.0</ele>
        <time>2017-10-01T13:13:13Z</time>
      </trkpt>
      <trkpt lat="41.150367" lon="-3.628467">
        <ele>1785.0</ele>
        <time>2017-10-01T13:13:14Z</time>
      </trkpt>
      <trkpt lat="41.150367" lon="-3.628317">
        <ele>1786.0</ele>
        <time>2017-10-01T13:13:15Z</time>
      </trkpt>
      <trkpt lat="41.150333" lon="-3.628167">
        <ele>1787.0</ele>
        <time>2017-10-01T13:13:16Z</time>
      </trkpt>
      <trkpt lat="41.150283" lon="-3.628033">
        <ele>1788.0</ele>
        <time>2017-10-01T13:13:17Z</time>
      </trkpt>
      <trkpt lat="41.150217" lon="-3.627900">
        <ele>1789.0</ele>
        <time>2017-10-01T13:13:18Z</time>
      </trkpt>
      <trkpt lat="41.150133" lon="-3.627817">
        <ele>1791.0</ele>
        <time>2017-10-01T13:13:19Z</time>
      </trkpt>
      <trkpt lat="41.150050" lon="-3.627733">
        <ele>1791.0</ele>
        <time>2017-10-01T13:13:20Z</time>
      </trkpt>
      <trkpt lat="41.149933" lon="-3.627700">
        <ele>1791.0</ele>
        <time>2017-10-01T13:13:21Z</time>
      </trkpt>
      <trkpt lat="41.149817" lon="-3.627667">
        <ele>1791.0</ele>
        <time>2017-10-01T13:13:22Z</time>
      </trkpt>
      <trkpt lat="41.149717" lon="-3.627683">
        <ele>1792.0</ele>
        <time>2017-10-01T13:13:23Z</time>
      </trkpt>
      <trkpt lat="41.149617" lon="-3.627717">
        <ele>1794.0</ele>
        <time>2017-10-01T13:13:24Z</time>
      </trkpt>
      <trkpt lat="41.149533" lon="-3.627750">
        <ele>1796.0</ele>
        <time>2017-10-01T13:13:25Z</time>
      </trkpt>
      <trkpt lat="41.149467" lon="-3.627783">
        <ele>1797.0</ele>
        <time>2017-10-01T13:13:26Z</time>
      </trkpt>
      <trkpt lat="41.149400" lon="-3.627817">
        <ele>1799.0</ele>
        <time>2017-10-01T13:13:27Z</time>
      </trkpt>
      <trkpt lat="41.149333" lon="-3.627850">
        <ele>1799.0</ele>
        <time>2017-10-01T13:13:28Z</time>
      </trkpt>
      <trkpt lat="41.149283" lon="-3.627900">
        <ele>1800.0</ele>
        <time>2017-10-01T13:13:29Z</time>
      </trkpt>
      <trkpt lat="41.149217" lon="-3.627967">
        <ele>1801.0</ele>
        <time>2017-10-01T13:13:30Z</time>
      </trkpt>
      <trkpt lat="41.149167" lon="-3.628050">
        <ele>1802.0</ele>
        <time>2017-10-01T13:13:31Z</time>
      </trkpt>
      <trkpt lat="41.149117" lon="-3.628117">
        <ele>1804.0</ele>
        <time>2017-10-01T13:13:32Z</time>
      </trkpt>
      <trkpt lat="41.149083" lon="-3.628183">
        <ele>1805.0</ele>
        <time>2017-10-01T13:13:33Z</time>
      </trkpt>
      <trkpt lat="41.149050" lon="-3.628250">
        <ele>1806.0</ele>
        <time>2017-10-01T13:13:34Z</time>
      </trkpt>
      <trkpt lat="41.149017" lon="-3.628317">
        <ele>1806.0</ele>
        <time>2017-10-01T13:13:35Z</time>
      </trkpt>
      <trkpt lat="41.148983" lon="-3.628400">
        <ele>1806.0</ele>
        <time>2017-10-01T13:13:36Z</time>
      </trkpt>
      <trkpt lat="41.148950" lon="-3.628467">
        <ele>1806.0</ele>
        <time>2017-10-01T13:13:37Z</time>
      </trkpt>
      <trkpt lat="41.148917" lon="-3.628550">
        <ele>1807.0</ele>
        <time>2017-10-01T13:13:38Z</time>
      </trkpt>
      <trkpt lat="41.148883" lon="-3.628617">
        <ele>1808.0</ele>
        <time>2017-10-01T13:13:39Z</time>
      </trkpt>
      <trkpt lat="41.148850" lon="-3.628700">
        <ele>1809.0</ele>
        <time>2017-10-01T13:13:40Z</time>
      </trkpt>
      <trkpt lat="41.148817" lon="-3.628767">
        <ele>1809.0</ele>
        <time>2017-10-01T13:13:41Z</time>
      </trkpt>
      <trkpt lat="41.148783" lon="-3.628850">
        <ele>1809.0</ele>
        <time>2017-10-01T13:13:42Z</time>
      </trkpt>
      <trkpt lat="41.148750" lon="-3.628933">
        <ele>1809.0</ele>
        <time>2017-10-01T13:13:43Z</time>
      </trkpt>
      <trkpt lat="41.148700" lon="-3.629017">
        <ele>1810.0</ele>
        <time>2017-10-01T13:13:44Z</time>
      </trkpt>
      <trkpt lat="41.148667" lon="-3.629117">
        <ele>1811.0</ele>
        <time>2017-10-01T13:13:45Z</time>
      </trkpt>
      <trkpt lat="41.148650" lon="-3.629183">
        <ele>1813.0</ele>
        <time>2017-10-01T13:13:46Z</time>
      </trkpt>
      <trkpt lat="41.148650" lon="-3.629267">
        <ele>1814.0</ele>
        <time>2017-10-01T13:13:47Z</time>
      </trkpt>
      <trkpt lat="41.148650" lon="-3.629333">
        <ele>1815.0</ele>
        <time>2017-10-01T13:13:48Z</time>
      </trkpt>
      <trkpt lat="41.148667" lon="-3.629400">
        <ele>1816.0</ele>
        <time>2017-10-01T13:13:49Z</time>
      </trkpt>
      <trkpt lat="41.148683" lon="-3.629467">
        <ele>1816.0</ele>
        <time>2017-10-01T13:13:50Z</time>
      </trkpt>
      <trkpt lat="41.148717" lon="-3.629533">
        <ele>1818.0</ele>
        <time>2017-10-01T13:13:51Z</time>
      </trkpt>
      <trkpt lat="41.148733" lon="-3.629583">
        <ele>1819.0</ele>
        <time>2017-10-01T13:13:52Z</time>
      </trkpt>
      <trkpt lat="41.148767" lon="-3.629617">
        <ele>1820.0</ele>
        <time>2017-10-01T13:13:53Z</time>
      </trkpt>
      <trkpt lat="41.148783" lon="-3.629667">
        <ele>1821.0</ele>
        <time>2017-10-01T13:13:54Z</time>
      </trkpt>
      <trkpt lat="41.148800" lon="-3.629700">
        <ele>1822.0</ele>
        <time>2017-10-01T13:13:55Z</time>
      </trkpt>
      <trkpt lat="41.148833" lon="-3.629750">
        <ele>1822.0</ele>
        <time>2017-10-01T13:13:56Z</time>
      </trkpt>
      <trkpt lat="41.148850" lon="-3.629800">
        <ele>1822.0</ele>
        <time>2017-10-01T13:13:57Z</time>
      </trkpt>
      <trkpt lat="41.148883" lon="-3.629867">
        <ele>1822.0</ele>
        <time>2017-10-01T13:13:58Z</time>
      </trkpt>
      <trkpt lat="41.148917" lon="-3.629933">
        <ele>1824.0</ele>
        <time>2017-10-01T13:13:59Z</time>
      </trkpt>
      <trkpt lat="41.148933" lon="-3.629983">
        <ele>1825.0</ele>
        <time>2017-10-01T13:14:00Z</time>
      </trkpt>
      <trkpt lat="41.148950" lon="-3.630017">
        <ele>1826.0</ele>
        <time>2017-10-01T13:14:01Z</time>
      </trkpt>
      <trkpt lat="41.148983" lon="-3.630067">
        <ele>1826.0</ele>
        <time>2017-10-01T13:14:02Z</time>
      </trkpt>
      <trkpt lat="41.149017" lon="-3.630100">
        <ele>1827.0</ele>
        <time>2017-10-01T13:14:03Z</time>
      </trkpt>
      <trkpt lat="41.149067" lon="-3.630133">
        <ele>1827.0</ele>
        <time>2017-10-01T13:14:04Z</time>
      </trkpt>
      <trkpt lat="41.149117" lon="-3.630133">
        <ele>1827.0</ele>
        <time>2017-10-01T13:14:05Z</time>
      </trkpt>
      <trkpt lat="41.149167" lon="-3.630133">
        <ele>1828.0</ele>
        <time>2017-10-01T13:14:06Z</time>
      </trkpt>
      <trkpt lat="41.149217" lon="-3.630100">
        <ele>1829.0</ele>
        <time>2017-10-01T13:14:07Z</time>
      </trkpt>
      <trkpt lat="41.149267" lon="-3.630017">
        <ele>1830.0</ele>
        <time>2017-10-01T13:14:08Z</time>
      </trkpt>
      <trkpt lat="41.149300" lon="-3.629917">
        <ele>1831.0</ele>
        <time>2017-10-01T13:14:09Z</time>
      </trkpt>
      <trkpt lat="41.149317" lon="-3.629783">
        <ele>1832.0</ele>
        <time>2017-10-01T13:14:10Z</time>
      </trkpt>
      <trkpt lat="41.149300" lon="-3.629650">
        <ele>1834.0</ele>
        <time>2017-10-01T13:14:11Z</time>
      </trkpt>
      <trkpt lat="41.149283" lon="-3.629500">
        <ele>1835.0</ele>
        <time>2017-10-01T13:14:12Z</time>
      </trkpt>
      <trkpt lat="41.149233" lon="-3.629350">
        <ele>1836.0</ele>
        <time>2017-10-01T13:14:13Z</time>
      </trkpt>
      <trkpt lat="41.149167" lon="-3.629217">
        <ele>1838.0</ele>
        <time>2017-10-01T13:14:14Z</time>
      </trkpt>
      <trkpt lat="41.149083" lon="-3.629100">
        <ele>1839.0</ele>
        <time>2017-10-01T13:14:15Z</time>
      </trkpt>
      <trkpt lat="41.149000" lon="-3.629000">
        <ele>1841.0</ele>
        <time>2017-10-01T13:14:16Z</time>
      </trkpt>
      <trkpt lat="41.148900" lon="-3.628917">
        <ele>1842.0</ele>
        <time>2017-10-01T13:14:17Z</time>
      </trkpt>
      <trkpt lat="41.148783" lon="-3.628867">
        <ele>1842.0</ele>
        <time>2017-10-01T13:14:18Z</time>
      </trkpt>
      <trkpt lat="41.148683" lon="-3.628833">
        <ele>1844.0</ele>
        <time>2017-10-01T13:14:19Z</time>
      </trkpt>
      <trkpt lat="41.148567" lon="-3.628850">
        <ele>1845.0</ele>
        <time>2017-10-01T13:14:20Z</time>
      </trkpt>
      <trkpt lat="41.148467" lon="-3.628867">
        <ele>1846.0</ele>
        <time>2017-10-01T13:14:21Z</time>
      </trkpt>
      <trkpt lat="41.148367" lon="-3.628917">
        <ele>1848.0</ele>
        <time>2017-10-01T13:14:22Z</time>
      </trkpt>
      <trkpt lat="41.148300" lon="-3.628967">
        <ele>1849.0</ele>
        <time>2017-10-01T13:14:23Z</time>
      </trkpt>
      <trkpt lat="41.148233" lon="-3.629033">
        <ele>1849.0</ele>
        <time>2017-10-01T13:14:24Z</time>
      </trkpt>
      <trkpt lat="41.148167" lon="-3.629100">
        <ele>1850.0</ele>
        <time>2017-10-01T13:14:25Z</time>
      </trkpt>
      <trkpt lat="41.148117" lon="-3.629200">
        <ele>1850.0</ele>
        <time>2017-10-01T13:14:26Z</time>
      </trkpt>
      <trkpt lat="41.148083" lon="-3.629283">
        <ele>1850.0</ele>
        <time>2017-10-01T13:14:27Z</time>
      </trkpt>
      <trkpt lat="41.148033" lon="-3.629367">
        <ele>1852.0</ele>
        <time>2017-10-01T13:14:28Z</time>
      </trkpt>
      <trkpt lat="41.148000" lon="-3.629450">
        <ele>1855.0</ele>
        <time>2017-10-01T13:14:29Z</time>
      </trkpt>
      <trkpt lat="41.147967" lon="-3.629517">
        <ele>1857.0</ele>
        <time>2017-10-01T13:14:30Z</time>
      </trkpt>
      <trkpt lat="41.147950" lon="-3.629583">
        <ele>1859.0</ele>
        <time>2017-10-01T13:14:31Z</time>
      </trkpt>
      <trkpt lat="41.147933" lon="-3.629633">
        <ele>1860.0</ele>
        <time>2017-10-01T13:14:32Z</time>
      </trkpt>
      <trkpt lat="41.147917" lon="-3.629700">
        <ele>1860.0</ele>
        <time>2017-10-01T13:14:33Z</time>
      </trkpt>
      <trkpt lat="41.147917" lon="-3.629783">
        <ele>1860.0</ele>
        <time>2017-10-01T13:14:34Z</time>
      </trkpt>
      <trkpt lat="41.147900" lon="-3.629867">
        <ele>1862.0</ele>
        <time>2017-10-01T13:14:35Z</time>
      </trkpt>
      <trkpt lat="41.147900" lon="-3.629933">
        <ele>1863.0</ele>
        <time>2017-10-01T13:14:36Z</time>
      </trkpt>
      <trkpt lat="41.147883" lon="-3.630000">
        <ele>1865.0</ele>
        <time>2017-10-01T13:14:37Z</time>
      </trkpt>
      <trkpt lat="41.147883" lon="-3.630050">
        <ele>1865.0</ele>
        <time>2017-10-01T13:14:38Z</time>
      </trkpt>
      <trkpt lat="41.147867" lon="-3.630117">
        <ele>1864.0</ele>
        <time>2017-10-01T13:14:39Z</time>
      </trkpt>
      <trkpt lat="41.147850" lon="-3.630200">
        <ele>1863.0</ele>
        <time>2017-10-01T13:14:40Z</time>
      </trkpt>
      <trkpt lat="41.147833" lon="-3.630300">
        <ele>1863.0</ele>
        <time>2017-10-01T13:14:41Z</time>
      </trkpt>
      <trkpt lat="41.147800" lon="-3.630400">
        <ele>1865.0</ele>
        <time>2017-10-01T13:14:42Z</time>
      </trkpt>
      <trkpt lat="41.147783" lon="-3.630483">
        <ele>1866.0</ele>
        <time>2017-10-01T13:14:43Z</time>
      </trkpt>
      <trkpt lat="41.147783" lon="-3.630550">
        <ele>1868.0</ele>
        <time>2017-10-01T13:14:44Z</time>
      </trkpt>
      <trkpt lat="41.147783" lon="-3.630617">
        <ele>1869.0</ele>
        <time>2017-10-01T13:14:45Z</time>
      </trkpt>
      <trkpt lat="41.147800" lon="-3.630683">
        <ele>1870.0</ele>
        <time>2017-10-01T13:14:46Z</time>
      </trkpt>
      <trkpt lat="41.147817" lon="-3.630767">
        <ele>1871.0</ele>
        <time>2017-10-01T13:14:47Z</time>
      </trkpt>
      <trkpt lat="41.147833" lon="-3.630833">
        <ele>1872.0</ele>
        <time>2017-10-01T13:14:48Z</time>
      </trkpt>
      <trkpt lat="41.147850" lon="-3.630900">
        <ele>1874.0</ele>
        <time>2017-10-01T13:14:49Z</time>
      </trkpt>
      <trkpt lat="41.147867" lon="-3.630950">
        <ele>1875.0</ele>
        <time>2017-10-01T13:14:50Z</time>
      </trkpt>
      <trkpt lat="41.147883" lon="-3.631000">
        <ele>1877.0</ele>
        <time>2017-10-01T13:14:51Z</time>
      </trkpt>
      <trkpt lat="41.147917" lon="-3.631050">
        <ele>1877.0</ele>
        <time>2017-10-01T13:14:52Z</time>
      </trkpt>
      <trkpt lat="41.147933" lon="-3.631100">
        <ele>1877.0</ele>
        <time>2017-10-01T13:14:53Z</time>
      </trkpt>
      <trkpt lat="41.147967" lon="-3.631150">
        <ele>1877.0</ele>
        <time>2017-10-01T13:14:54Z</time>
      </trkpt>
      <trkpt lat="41.148000" lon="-3.631217">
        <ele>1878.0</ele>
        <time>2017-10-01T13:14:55Z</time>
      </trkpt>
      <trkpt lat="41.148050" lon="-3.631267">
        <ele>1878.0</ele>
        <time>2017-10-01T13:14:56Z</time>
      </trkpt>
      <trkpt lat="41.148067" lon="-3.631317">
        <ele>1879.0</ele>
        <time>2017-10-01T13:14:57Z</time>
      </trkpt>
      <trkpt lat="41.148100" lon="-3.631383">
        <ele>1880.0</ele>
        <time>2017-10-01T13:14:58Z</time>
      </trkpt>
      <trkpt lat="41.148133" lon="-3.631433">
        <ele>1880.0</ele>
        <time>2017-10-01T13:14:59Z</time>
      </trkpt>
      <trkpt lat="41.148150" lon="-3.631500">
        <ele>1881.0</ele>
        <time>2017-10-01T13:15:00Z</time>
      </trkpt>
      <trkpt lat="41.148183" lon="-3.631567">
        <ele>1883.0</ele>
        <time>2017-10-01T13:15:01Z</time>
      </trkpt>
      <trkpt lat="41.148200" lon="-3.631633">
        <ele>1885.0</ele>
        <time>2017-10-01T13:15:02Z</time>
      </trkpt>
      <trkpt lat="41.148217" lon="-3.631700">
        <ele>1887.0</ele>
        <time>2017-10-01T13:15:03Z</time>
      </trkpt>
      <trkpt lat="41.148250" lon="-3.631750">
        <ele>1889.0</ele>
        <time>2017-10-01T13:15:04Z</time>
      </trkpt>
      <trkpt lat="41.148283" lon="-3.631800">
        <ele>1890.0</ele>
        <time>2017-10-01T13:15:05Z</time>
      </trkpt>
      <trkpt lat="41.148333" lon="-3.631833">
        <ele>1890.0</ele>
        <time>2017-10-01T13:15:06Z</time>
      </trkpt>
      <trkpt lat="41.148383" lon="-3.631883">
        <ele>1890.0</ele>
        <time>2017-10-01T13:15:07Z</time>
      </trkpt>
      <trkpt lat="41.148433" lon="-3.631933">
        <ele>1891.0</ele>
        <time>2017-10-01T13:15:08Z</time>
      </trkpt>
      <trkpt lat="41.148483" lon="-3.631983">
        <ele>1891.0</ele>
        <time>2017-10-01T13:15:09Z</time>
      </trkpt>
      <trkpt lat="41.148533" lon="-3.632033">
        <ele>1891.0</ele>
        <time>2017-10-01T13:15:10Z</time>
      </trkpt>
      <trkpt lat="41.148583" lon="-3.632067">
        <ele>1891.0</ele>
        <time>2017-10-01T13:15:11Z</time>
      </trkpt>
      <trkpt lat="41.148650" lon="-3.632083">
        <ele>1892.0</ele>
        <time>2017-10-01T13:15:12Z</time>
      </trkpt>
      <trkpt lat="41.148717" lon="-3.632100">
        <ele>1893.0</ele>
        <time>2017-10-01T13:15:13Z</time>
      </trkpt>
      <trkpt lat="41.148783" lon="-3.632083">
        <ele>1894.0</ele>
        <time>2017-10-01T13:15:14Z</time>
      </trkpt>
      <trkpt lat="41.148833" lon="-3.632017">
        <ele>1895.0</ele>
        <time>2017-10-01T13:15:15Z</time>
      </trkpt>
      <trkpt lat="41.148883" lon="-3.631933">
        <ele>1896.0</ele>
        <time>2017-10-01T13:15:16Z</time>
      </trkpt>
      <trkpt lat="41.148917" lon="-3.631817">
        <ele>1897.0</ele>
        <time>2017-10-01T13:15:17Z</time>
      </trkpt>
      <trkpt lat="41.148933" lon="-3.631700">
        <ele>1898.0</ele>
        <time>2017-10-01T13:15:18Z</time>
      </trkpt>
      <trkpt lat="41.148933" lon="-3.631567">
        <ele>1900.0</ele>
        <time>2017-10-01T13:15:19Z</time>
      </trkpt>
      <trkpt lat="41.148900" lon="-3.631433">
        <ele>1901.0</ele>
        <time>2017-10-01T13:15:20Z</time>
      </trkpt>
      <trkpt lat="41.148850" lon="-3.631283">
        <ele>1901.0</ele>
        <time>2017-10-01T13:15:21Z</time>
      </trkpt>
      <trkpt lat="41.148783" lon="-3.631150">
        <ele>1902.0</ele>
        <time>2017-10-01T13:15:22Z</time>
      </trkpt>
      <trkpt lat="41.148683" lon="-3.631033">
        <ele>1902.0</ele>
        <time>2017-10-01T13:15:23Z</time>
      </trkpt>
      <trkpt lat="41.148600" lon="-3.630933">
        <ele>1903.0</ele>
        <time>2017-10-01T13:15:24Z</time>
      </trkpt>
      <trkpt lat="41.148483" lon="-3.630867">
        <ele>1904.0</ele>
        <time>2017-10-01T13:15:25Z</time>
      </trkpt>
      <trkpt lat="41.148367" lon="-3.630833">
        <ele>1905.0</ele>
        <time>2017-10-01T13:15:26Z</time>
      </trkpt>
      <trkpt lat="41.148250" lon="-3.630817">
        <ele>1906.0</ele>
        <time>2017-10-01T13:15:27Z</time>
      </trkpt>
      <trkpt lat="41.148150" lon="-3.630817">
        <ele>1908.0</ele>
        <time>2017-10-01T13:15:28Z</time>
      </trkpt>
      <trkpt lat="41.148067" lon="-3.630850">
        <ele>1910.0</ele>
        <time>2017-10-01T13:15:29Z</time>
      </trkpt>
      <trkpt lat="41.147983" lon="-3.630900">
        <ele>1911.0</ele>
        <time>2017-10-01T13:15:30Z</time>
      </trkpt>
      <trkpt lat="41.147917" lon="-3.630967">
        <ele>1911.0</ele>
        <time>2017-10-01T13:15:31Z</time>
      </trkpt>
      <trkpt lat="41.147867" lon="-3.631067">
        <ele>1912.0</ele>
        <time>2017-10-01T13:15:32Z</time>
      </trkpt>
      <trkpt lat="41.147817" lon="-3.631150">
        <ele>1914.0</ele>
        <time>2017-10-01T13:15:33Z</time>
      </trkpt>
      <trkpt lat="41.147800" lon="-3.631233">
        <ele>1916.0</ele>
        <time>2017-10-01T13:15:34Z</time>
      </trkpt>
      <trkpt lat="41.147783" lon="-3.631300">
        <ele>1917.0</ele>
        <time>2017-10-01T13:15:35Z</time>
      </trkpt>
      <trkpt lat="41.147783" lon="-3.631367">
        <ele>1917.0</ele>
        <time>2017-10-01T13:15:36Z</time>
      </trkpt>
      <trkpt lat="41.147800" lon="-3.631433">
        <ele>1916.0</ele>
        <time>2017-10-01T13:15:37Z</time>
      </trkpt>
      <trkpt lat="41.147817" lon="-3.631517">
        <ele>1915.0</ele>
        <time>2017-10-01T13:15:38Z</time>
      </trkpt>
      <trkpt lat="41.147850" lon="-3.631600">
        <ele>1914.0</ele>
        <time>2017-10-01T13:15:39Z</time>
      </trkpt>
      <trkpt lat="41.147867" lon="-3.631683">
        <ele>1915.0</ele>
        <time>2017-10-01T13:15:40Z</time>
      </trkpt>
      <trkpt lat="41.147883" lon="-3.631750">
        <ele>1917.0</ele>
        <time>2017-10-01T13:15:41Z</time>
      </trkpt>
      <trkpt lat="41.147883" lon="-3.631817">
        <ele>1917.0</ele>
        <time>2017-10-01T13:15:42Z</time>
      </trkpt>
      <trkpt lat="41.147867" lon="-3.631883">
        <ele>1917.0</ele>
        <time>2017-10-01T13:15:43Z</time>
      </trkpt>
      <trkpt lat="41.147850" lon="-3.631967">
        <ele>1916.0</ele>
        <time>2017-10-01T13:15:44Z</time>
      </trkpt>
      <trkpt lat="41.147817" lon="-3.632050">
        <ele>1915.0</ele>
        <time>2017-10-01T13:15:45Z</time>
      </trkpt>
      <trkpt lat="41.147800" lon="-3.632150">
        <ele>1915.0</ele>
        <time>2017-10-01T13:15:46Z</time>
      </trkpt>
      <trkpt lat="41.147767" lon="-3.632233">
        <ele>1915.0</ele>
        <time>2017-10-01T13:15:47Z</time>
      </trkpt>
      <trkpt lat="41.147733" lon="-3.632300">
        <ele>1915.0</ele>
        <time>2017-10-01T13:15:48Z</time>
      </trkpt>
      <trkpt lat="41.147700" lon="-3.632383">
        <ele>1914.0</ele>
        <time>2017-10-01T13:15:49Z</time>
      </trkpt>
      <trkpt lat="41.147667" lon="-3.632467">
        <ele>1913.0</ele>
        <time>2017-10-01T13:15:50Z</time>
      </trkpt>
      <trkpt lat="41.147633" lon="-3.632567">
        <ele>1911.0</ele>
        <time>2017-10-01T13:15:51Z</time>
      </trkpt>
      <trkpt lat="41.147600" lon="-3.632667">
        <ele>1910.0</ele>
        <time>2017-10-01T13:15:52Z</time>
      </trkpt>
      <trkpt lat="41.147550" lon="-3.632767">
        <ele>1910.0</ele>
        <time>2017-10-01T13:15:53Z</time>
      </trkpt>
      <trkpt lat="41.147517" lon="-3.632850">
        <ele>1910.0</ele>
        <time>2017-10-01T13:15:54Z</time>
      </trkpt>
      <trkpt lat="41.147483" lon="-3.632933">
        <ele>1909.0</ele>
        <time>2017-10-01T13:15:55Z</time>
      </trkpt>
      <trkpt lat="41.147450" lon="-3.633000">
        <ele>1909.0</ele>
        <time>2017-10-01T13:15:56Z</time>
      </trkpt>
      <trkpt lat="41.147400" lon="-3.633083">
        <ele>1907.0</ele>
        <time>2017-10-01T13:15:57Z</time>
      </trkpt>
      <trkpt lat="41.147367" lon="-3.633167">
        <ele>1906.0</ele>
        <time>2017-10-01T13:15:58Z</time>
      </trkpt>
      <trkpt lat="41.147317" lon="-3.633250">
        <ele>1904.0</ele>
        <time>2017-10-01T13:15:59Z</time>
      </trkpt>
      <trkpt lat="41.147267" lon="-3.633333">
        <ele>1903.0</ele>
        <time>2017-10-01T13:16:00Z</time>
      </trkpt>
      <trkpt lat="41.147217" lon="-3.633417">
        <ele>1902.0</ele>
        <time>2017-10-01T13:16:01Z</time>
      </trkpt>
      <trkpt lat="41.147183" lon="-3.633500">
        <ele>1902.0</ele>
        <time>2017-10-01T13:16:02Z</time>
      </trkpt>
      <trkpt lat="41.147133" lon="-3.633583">
        <ele>1900.0</ele>
        <time>2017-10-01T13:16:03Z</time>
      </trkpt>
      <trkpt lat="41.147083" lon="-3.633650">
        <ele>1899.0</ele>
        <time>2017-10-01T13:16:04Z</time>
      </trkpt>
      <trkpt lat="41.147033" lon="-3.633750">
        <ele>1898.0</ele>
        <time>2017-10-01T13:16:05Z</time>
      </trkpt>
      <trkpt lat="41.147000" lon="-3.633833">
        <ele>1897.0</ele>
        <time>2017-10-01T13:16:06Z</time>
      </trkpt>
      <trkpt lat="41.146967" lon="-3.633917">
        <ele>1895.0</ele>
        <time>2017-10-01T13:16:07Z</time>
      </trkpt>
      <trkpt lat="41.146933" lon="-3.634000">
        <ele>1894.0</ele>
        <time>2017-10-01T13:16:08Z</time>
      </trkpt>
      <trkpt lat="41.146900" lon="-3.634083">
        <ele>1892.0</ele>
        <time>2017-10-01T13:16:09Z</time>
      </trkpt>
      <trkpt lat="41.146867" lon="-3.634167">
        <ele>1891.0</ele>
        <time>2017-10-01T13:16:10Z</time>
      </trkpt>
      <trkpt lat="41.146817" lon="-3.634233">
        <ele>1889.0</ele>
        <time>2017-10-01T13:16:11Z</time>
      </trkpt>
      <trkpt lat="41.146767" lon="-3.634317">
        <ele>1888.0</ele>
        <time>2017-10-01T13:16:12Z</time>
      </trkpt>
      <trkpt lat="41.146733" lon="-3.634400">
        <ele>1888.0</ele>
        <time>2017-10-01T13:16:13Z</time>
      </trkpt>
      <trkpt lat="41.146683" lon="-3.634467">
        <ele>1886.0</ele>
        <time>2017-10-01T13:16:14Z</time>
      </trkpt>
      <trkpt lat="41.146650" lon="-3.634533">
        <ele>1885.0</ele>
        <time>2017-10-01T13:16:15Z</time>
      </trkpt>
      <trkpt lat="41.146600" lon="-3.634600">
        <ele>1884.0</ele>
        <time>2017-10-01T13:16:16Z</time>
      </trkpt>
      <trkpt lat="41.146533" lon="-3.634683">
        <ele>1882.0</ele>
        <time>2017-10-01T13:16:17Z</time>
      </trkpt>
      <trkpt lat="41.146483" lon="-3.634750">
        <ele>1881.0</ele>
        <time>2017-10-01T13:16:18Z</time>
      </trkpt>
      <trkpt lat="41.146417" lon="-3.634817">
        <ele>1880.0</ele>
        <time>2017-10-01T13:16:19Z</time>
      </trkpt>
      <trkpt lat="41.146367" lon="-3.634883">
        <ele>1879.0</ele>
        <time>2017-10-01T13:16:20Z</time>
      </trkpt>
      <trkpt lat="41.146300" lon="-3.634950">
        <ele>1878.0</ele>
        <time>2017-10-01T13:16:21Z</time>
      </trkpt>
      <trkpt lat="41.146250" lon="-3.635000">
        <ele>1876.0</ele>
        <time>2017-10-01T13:16:22Z</time>
      </trkpt>
      <trkpt lat="41.146183" lon="-3.635067">
        <ele>1875.0</ele>
        <time>2017-10-01T13:16:23Z</time>
      </trkpt>
      <trkpt lat="41.146117" lon="-3.635133">
        <ele>1873.0</ele>
        <time>2017-10-01T13:16:24Z</time>
      </trkpt>
      <trkpt lat="41.146050" lon="-3.635200">
        <ele>1871.0</ele>
        <time>2017-10-01T13:16:25Z</time>
      </trkpt>
      <trkpt lat="41.145983" lon="-3.635267">
        <ele>1870.0</ele>
        <time>2017-10-01T13:16:26Z</time>
      </trkpt>
      <trkpt lat="41.145933" lon="-3.635350">
        <ele>1868.0</ele>
        <time>2017-10-01T13:16:27Z</time>
      </trkpt>
      <trkpt lat="41.145867" lon="-3.635417">
        <ele>1866.0</ele>
        <time>2017-10-01T13:16:28Z</time>
      </trkpt>
      <trkpt lat="41.145817" lon="-3.635483">
        <ele>1864.0</ele>
        <time>2017-10-01T13:16:29Z</time>
      </trkpt>
      <trkpt lat="41.145767" lon="-3.635550">
        <ele>1862.0</ele>
        <time>2017-10-01T13:16:30Z</time>
      </trkpt>
      <trkpt lat="41.145717" lon="-3.635617">
        <ele>1860.0</ele>
        <time>2017-10-01T13:16:31Z</time>
      </trkpt>
      <trkpt lat="41.145650" lon="-3.635700">
        <ele>1858.0</ele>
        <time>2017-10-01T13:16:32Z</time>
      </trkpt>
      <trkpt lat="41.145583" lon="-3.635767">
        <ele>1856.0</ele>
        <time>2017-10-01T13:16:33Z</time>
      </trkpt>
      <trkpt lat="41.145533" lon="-3.635833">
        <ele>1854.0</ele>
        <time>2017-10-01T13:16:34Z</time>
      </trkpt>
      <trkpt lat="41.145467" lon="-3.635900">
        <ele>1852.0</ele>
        <time>2017-10-01T13:16:35Z</time>
      </trkpt>
      <trkpt lat="41.145417" lon="-3.635983">
        <ele>1850.0</ele>
        <time>2017-10-01T13:16:36Z</time>
      </trkpt>
      <trkpt lat="41.145350" lon="-3.636050">
        <ele>1848.0</ele>
        <time>2017-10-01T13:16:37Z</time>
      </trkpt>
      <trkpt lat="41.145283" lon="-3.636133">
        <ele>1846.0</ele>
        <time>2017-10-01T13:16:38Z</time>
      </trkpt>
      <trkpt lat="41.145217" lon="-3.636200">
        <ele>1845.0</ele>
        <time>2017-10-01T13:16:39Z</time>
      </trkpt>
      <trkpt lat="41.145150" lon="-3.636267">
        <ele>1844.0</ele>
        <time>2017-10-01T13:16:40Z</time>
      </trkpt>
      <trkpt lat="41.145067" lon="-3.636333">
        <ele>1842.0</ele>
        <time>2017-10-01T13:16:41Z</time>
      </trkpt>
      <trkpt lat="41.145000" lon="-3.636417">
        <ele>1842.0</ele>
        <time>2017-10-01T13:16:42Z</time>
      </trkpt>
      <trkpt lat="41.144950" lon="-3.636483">
        <ele>1843.0</ele>
        <time>2017-10-01T13:16:43Z</time>
      </trkpt>
      <trkpt lat="41.144900" lon="-3.636567">
        <ele>1843.0</ele>
        <time>2017-10-01T13:16:44Z</time>
      </trkpt>
      <trkpt lat="41.144867" lon="-3.636650">
        <ele>1842.0</ele>
        <time>2017-10-01T13:16:45Z</time>
      </trkpt>
      <trkpt lat="41.144833" lon="-3.636750">
        <ele>1841.0</ele>
        <time>2017-10-01T13:16:46Z</time>
      </trkpt>
      <trkpt lat="41.144800" lon="-3.636850">
        <ele>1841.0</ele>
        <time>2017-10-01T13:16:47Z</time>
      </trkpt>
      <trkpt lat="41.144783" lon="-3.636950">
        <ele>1842.0</ele>
        <time>2017-10-01T13:16:48Z</time>
      </trkpt>
      <trkpt lat="41.144783" lon="-3.637033">
        <ele>1843.0</ele>
        <time>2017-10-01T13:16:49Z</time>
      </trkpt>
      <trkpt lat="41.144800" lon="-3.637117">
        <ele>1843.0</ele>
        <time>2017-10-01T13:16:50Z</time>
      </trkpt>
      <trkpt lat="41.144817" lon="-3.637200">
        <ele>1843.0</ele>
        <time>2017-10-01T13:16:51Z</time>
      </trkpt>
      <trkpt lat="41.144850" lon="-3.637283">
        <ele>1842.0</ele>
        <time>2017-10-01T13:16:52Z</time>
      </trkpt>
      <trkpt lat="41.144900" lon="-3.637350">
        <ele>1842.0</ele>
        <time>2017-10-01T13:16:53Z</time>
      </trkpt>
      <trkpt lat="41.144950" lon="-3.637417">
        <ele>1843.0</ele>
        <time>2017-10-01T13:16:54Z</time>
      </trkpt>
      <trkpt lat="41.145017" lon="-3.637450">
        <ele>1843.0</ele>
        <time>2017-10-01T13:16:55Z</time>
      </trkpt>
      <trkpt lat="41.145083" lon="-3.637483">
        <ele>1843.0</ele>
        <time>2017-10-01T13:16:56Z</time>
      </trkpt>
      <trkpt lat="41.145150" lon="-3.637483">
        <ele>1843.0</ele>
        <time>2017-10-01T13:16:57Z</time>
      </trkpt>
      <trkpt lat="41.145217" lon="-3.637467">
        <ele>1842.0</ele>
        <time>2017-10-01T13:16:58Z</time>
      </trkpt>
      <trkpt lat="41.145300" lon="-3.637433">
        <ele>1842.0</ele>
        <time>2017-10-01T13:16:59Z</time>
      </trkpt>
      <trkpt lat="41.145367" lon="-3.637367">
        <ele>1841.0</ele>
        <time>2017-10-01T13:17:00Z</time>
      </trkpt>
      <trkpt lat="41.145417" lon="-3.637283">
        <ele>1841.0</ele>
        <time>2017-10-01T13:17:01Z</time>
      </trkpt>
      <trkpt lat="41.145483" lon="-3.637200">
        <ele>1840.0</ele>
        <time>2017-10-01T13:17:02Z</time>
      </trkpt>
      <trkpt lat="41.145517" lon="-3.637100">
        <ele>1839.0</ele>
        <time>2017-10-01T13:17:03Z</time>
      </trkpt>
      <trkpt lat="41.145533" lon="-3.636983">
        <ele>1838.0</ele>
        <time>2017-10-01T13:17:04Z</time>
      </trkpt>
      <trkpt lat="41.145533" lon="-3.636867">
        <ele>1837.0</ele>
        <time>2017-10-01T13:17:05Z</time>
      </trkpt>
      <trkpt lat="41.145517" lon="-3.636733">
        <ele>1834.0</ele>
        <time>2017-10-01T13:17:06Z</time>
      </trkpt>
      <trkpt lat="41.145450" lon="-3.636617">
        <ele>1832.0</ele>
        <time>2017-10-01T13:17:07Z</time>
      </trkpt>
      <trkpt lat="41.145383" lon="-3.636517">
        <ele>1829.0</ele>
        <time>2017-10-01T13:17:08Z</time>
      </trkpt>
      <trkpt lat="41.145300" lon="-3.636433">
        <ele>1827.0</ele>
        <time>2017-10-01T13:17:09Z</time>
      </trkpt>
      <trkpt lat="41.145200" lon="-3.636367">
        <ele>1825.0</ele>
        <time>2017-10-01T13:17:10Z</time>
      </trkpt>
      <trkpt lat="41.145083" lon="-3.636350">
        <ele>1823.0</ele>
        <time>2017-10-01T13:17:11Z</time>
      </trkpt>
      <trkpt lat="41.145000" lon="-3.636350">
        <ele>1821.0</ele>
        <time>2017-10-01T13:17:12Z</time>
      </trkpt>
      <trkpt lat="41.144900" lon="-3.636383">
        <ele>1820.0</ele>
        <time>2017-10-01T13:17:13Z</time>
      </trkpt>
      <trkpt lat="41.144800" lon="-3.636417">
        <ele>1819.0</ele>
        <time>2017-10-01T13:17:14Z</time>
      </trkpt>
      <trkpt lat="41.144717" lon="-3.636467">
        <ele>1818.0</ele>
        <time>2017-10-01T13:17:15Z</time>
      </trkpt>
      <trkpt lat="41.144633" lon="-3.636517">
        <ele>1818.0</ele>
        <time>2017-10-01T13:17:16Z</time>
      </trkpt>
      <trkpt lat="41.144550" lon="-3.636583">
        <ele>1818.0</ele>
        <time>2017-10-01T13:17:17Z</time>
      </trkpt>
      <trkpt lat="41.144467" lon="-3.636617">
        <ele>1819.0</ele>
        <time>2017-10-01T13:17:18Z</time>
      </trkpt>
      <trkpt lat="41.144400" lon="-3.636650">
        <ele>1820.0</ele>
        <time>2017-10-01T13:17:19Z</time>
      </trkpt>
      <trkpt lat="41.144317" lon="-3.636683">
        <ele>1819.0</ele>
        <time>2017-10-01T13:17:20Z</time>
      </trkpt>
      <trkpt lat="41.144233" lon="-3.636717">
        <ele>1819.0</ele>
        <time>2017-10-01T13:17:21Z</time>
      </trkpt>
      <trkpt lat="41.144133" lon="-3.636767">
        <ele>1818.0</ele>
        <time>2017-10-01T13:17:22Z</time>
      </trkpt>
      <trkpt lat="41.144050" lon="-3.636817">
        <ele>1817.0</ele>
        <time>2017-10-01T13:17:23Z</time>
      </trkpt>
      <trkpt lat="41.143967" lon="-3.636900">
        <ele>1816.0</ele>
        <time>2017-10-01T13:17:24Z</time>
      </trkpt>
      <trkpt lat="41.143900" lon="-3.636967">
        <ele>1816.0</ele>
        <time>2017-10-01T13:17:25Z</time>
      </trkpt>
      <trkpt lat="41.143817" lon="-3.637033">
        <ele>1817.0</ele>
        <time>2017-10-01T13:17:26Z</time>
      </trkpt>
      <trkpt lat="41.143750" lon="-3.637083">
        <ele>1818.0</ele>
        <time>2017-10-01T13:17:27Z</time>
      </trkpt>
      <trkpt lat="41.143667" lon="-3.637133">
        <ele>1817.0</ele>
        <time>2017-10-01T13:17:28Z</time>
      </trkpt>
      <trkpt lat="41.143583" lon="-3.637167">
        <ele>1816.0</ele>
        <time>2017-10-01T13:17:29Z</time>
      </trkpt>
      <trkpt lat="41.143500" lon="-3.637217">
        <ele>1814.0</ele>
        <time>2017-10-01T13:17:30Z</time>
      </trkpt>
      <trkpt lat="41.143417" lon="-3.637283">
        <ele>1813.0</ele>
        <time>2017-10-01T13:17:31Z</time>
      </trkpt>
      <trkpt lat="41.143333" lon="-3.637350">
        <ele>1812.0</ele>
        <time>2017-10-01T13:17:32Z</time>
      </trkpt>
      <trkpt lat="41.143250" lon="-3.637417">
        <ele>1812.0</ele>
        <time>2017-10-01T13:17:33Z</time>
      </trkpt>
      <trkpt lat="41.143183" lon="-3.637483">
        <ele>1812.0</ele>
        <time>2017-10-01T13:17:34Z</time>
      </trkpt>
      <trkpt lat="41.143117" lon="-3.637517">
        <ele>1811.0</ele>
        <time>2017-10-01T13:17:35Z</time>
      </trkpt>
      <trkpt lat="41.143050" lon="-3.637567">
        <ele>1809.0</ele>
        <time>2017-10-01T13:17:36Z</time>
      </trkpt>
      <trkpt lat="41.142983" lon="-3.637617">
        <ele>1807.0</ele>
        <time>2017-10-01T13:17:37Z</time>
      </trkpt>
      <trkpt lat="41.142900" lon="-3.637683">
        <ele>1805.0</ele>
        <time>2017-10-01T13:17:38Z</time>
      </trkpt>
      <trkpt lat="41.142833" lon="-3.637733">
        <ele>1804.0</ele>
        <time>2017-10-01T13:17:39Z</time>
      </trkpt>
      <trkpt lat="41.142750" lon="-3.637783">
        <ele>1803.0</ele>
        <time>2017-10-01T13:17:40Z</time>
      </trkpt>
      <trkpt lat="41.142683" lon="-3.637817">
        <ele>1802.0</ele>
        <time>2017-10-01T13:17:41Z</time>
      </trkpt>
      <trkpt lat="41.142617" lon="-3.637850">
        <ele>1800.0</ele>
        <time>2017-10-01T13:17:42Z</time>
      </trkpt>
      <trkpt lat="41.142533" lon="-3.637900">
        <ele>1799.0</ele>
        <time>2017-10-01T13:17:43Z</time>
      </trkpt>
      <trkpt lat="41.142450" lon="-3.637933">
        <ele>1798.0</ele>
        <time>2017-10-01T13:17:44Z</time>
      </trkpt>
      <trkpt lat="41.142367" lon="-3.637983">
        <ele>1797.0</ele>
        <time>2017-10-01T13:17:45Z</time>
      </trkpt>
      <trkpt lat="41.142283" lon="-3.638017">
        <ele>1796.0</ele>
        <time>2017-10-01T13:17:46Z</time>
      </trkpt>
      <trkpt lat="41.142200" lon="-3.638050">
        <ele>1796.0</ele>
        <time>2017-10-01T13:17:47Z</time>
      </trkpt>
      <trkpt lat="41.142117" lon="-3.638067">
        <ele>1796.0</ele>
        <time>2017-10-01T13:17:48Z</time>
      </trkpt>
      <trkpt lat="41.142033" lon="-3.638117">
        <ele>1795.0</ele>
        <time>2017-10-01T13:17:49Z</time>
      </trkpt>
      <trkpt lat="41.141933" lon="-3.638150">
        <ele>1794.0</ele>
        <time>2017-10-01T13:17:50Z</time>
      </trkpt>
      <trkpt lat="41.141850" lon="-3.638200">
        <ele>1793.0</ele>
        <time>2017-10-01T13:17:51Z</time>
      </trkpt>
      <trkpt lat="41.141767" lon="-3.638233">
        <ele>1792.0</ele>
        <time>2017-10-01T13:17:52Z</time>
      </trkpt>
      <trkpt lat="41.141683" lon="-3.638283">
        <ele>1791.0</ele>
        <time>2017-10-01T13:17:53Z</time>
      </trkpt>
      <trkpt lat="41.141583" lon="-3.638317">
        <ele>1790.0</ele>
        <time>2017-10-01T13:17:54Z</time>
      </trkpt>
      <trkpt lat="41.141500" lon="-3.638367">
        <ele>1789.0</ele>
        <time>2017-10-01T13:17:55Z</time>
      </trkpt>
      <trkpt lat="41.141400" lon="-3.638400">
        <ele>1788.0</ele>
        <time>2017-10-01T13:17:56Z</time>
      </trkpt>
      <trkpt lat="41.141317" lon="-3.638433">
        <ele>1788.0</ele>
        <time>2017-10-01T13:17:57Z</time>
      </trkpt>
      <trkpt lat="41.141217" lon="-3.638467">
        <ele>1787.0</ele>
        <time>2017-10-01T13:17:58Z</time>
      </trkpt>
      <trkpt lat="41.141133" lon="-3.638500">
        <ele>1787.0</ele>
        <time>2017-10-01T13:17:59Z</time>
      </trkpt>
      <trkpt lat="41.141050" lon="-3.638533">
        <ele>1787.0</ele>
        <time>2017-10-01T13:18:00Z</time>
      </trkpt>
      <trkpt lat="41.140967" lon="-3.638567">
        <ele>1787.0</ele>
        <time>2017-10-01T13:18:01Z</time>
      </trkpt>
      <trkpt lat="41.140900" lon="-3.638633">
        <ele>1787.0</ele>
        <time>2017-10-01T13:18:02Z</time>
      </trkpt>
      <trkpt lat="41.140833" lon="-3.638683">
        <ele>1787.0</ele>
        <time>2017-10-01T13:18:03Z</time>
      </trkpt>
      <trkpt lat="41.140783" lon="-3.638750">
        <ele>1787.0</ele>
        <time>2017-10-01T13:18:04Z</time>
      </trkpt>
      <trkpt lat="41.140733" lon="-3.638817">
        <ele>1787.0</ele>
        <time>2017-10-01T13:18:05Z</time>
      </trkpt>
      <trkpt lat="41.140667" lon="-3.638867">
        <ele>1787.0</ele>
        <time>2017-10-01T13:18:06Z</time>
      </trkpt>
      <trkpt lat="41.140600" lon="-3.638917">
        <ele>1787.0</ele>
        <time>2017-10-01T13:18:07Z</time>
      </trkpt>
      <trkpt lat="41.140533" lon="-3.638967">
        <ele>1786.0</ele>
        <time>2017-10-01T13:18:08Z</time>
      </trkpt>
      <trkpt lat="41.140467" lon="-3.639000">
        <ele>1784.0</ele>
        <time>2017-10-01T13:18:09Z</time>
      </trkpt>
      <trkpt lat="41.140400" lon="-3.639050">
        <ele>1782.0</ele>
        <time>2017-10-01T13:18:10Z</time>
      </trkpt>
      <trkpt lat="41.140317" lon="-3.639100">
        <ele>1780.0</ele>
        <time>2017-10-01T13:18:11Z</time>
      </trkpt>
      <trkpt lat="41.140217" lon="-3.639150">
        <ele>1778.0</ele>
        <time>2017-10-01T13:18:12Z</time>
      </trkpt>
      <trkpt lat="41.140133" lon="-3.639183">
        <ele>1777.0</ele>
        <time>2017-10-01T13:18:13Z</time>
      </trkpt>
      <trkpt lat="41.140033" lon="-3.639233">
        <ele>1777.0</ele>
        <time>2017-10-01T13:18:14Z</time>
      </trkpt>
      <trkpt lat="41.139950" lon="-3.639267">
        <ele>1776.0</ele>
        <time>2017-10-01T13:18:15Z</time>
      </trkpt>
      <trkpt lat="41.139867" lon="-3.639283">
        <ele>1774.0</ele>
        <time>2017-10-01T13:18:16Z</time>
      </trkpt>
      <trkpt lat="41.139783" lon="-3.639333">
        <ele>1772.0</ele>
        <time>2017-10-01T13:18:17Z</time>
      </trkpt>
      <trkpt lat="41.139700" lon="-3.639383">
        <ele>1769.0</ele>
        <time>2017-10-01T13:18:18Z</time>
      </trkpt>
      <trkpt lat="41.139600" lon="-3.639433">
        <ele>1767.0</ele>
        <time>2017-10-01T13:18:19Z</time>
      </trkpt>
      <trkpt lat="41.139500" lon="-3.639467">
        <ele>1766.0</ele>
        <time>2017-10-01T13:18:20Z</time>
      </trkpt>
      <trkpt lat="41.139417" lon="-3.639500">
        <ele>1765.0</ele>
        <time>2017-10-01T13:18:21Z</time>
      </trkpt>
      <trkpt lat="41.139317" lon="-3.639517">
        <ele>1764.0</ele>
        <time>2017-10-01T13:18:22Z</time>
      </trkpt>
      <trkpt lat="41.139233" lon="-3.639533">
        <ele>1761.0</ele>
        <time>2017-10-01T13:18:23Z</time>
      </trkpt>
      <trkpt lat="41.139150" lon="-3.639567">
        <ele>1759.0</ele>
        <time>2017-10-01T13:18:24Z</time>
      </trkpt>
      <trkpt lat="41.139050" lon="-3.639600">
        <ele>1757.0</ele>
        <time>2017-10-01T13:18:25Z</time>
      </trkpt>
      <trkpt lat="41.138950" lon="-3.639633">
        <ele>1757.0</ele>
        <time>2017-10-01T13:18:26Z</time>
      </trkpt>
      <trkpt lat="41.138850" lon="-3.639667">
        <ele>1757.0</ele>
        <time>2017-10-01T13:18:27Z</time>
      </trkpt>
      <trkpt lat="41.138767" lon="-3.639700">
        <ele>1757.0</ele>
        <time>2017-10-01T13:18:28Z</time>
      </trkpt>
      <trkpt lat="41.138683" lon="-3.639717">
        <ele>1756.0</ele>
        <time>2017-10-01T13:18:29Z</time>
      </trkpt>
      <trkpt lat="41.138600" lon="-3.639750">
        <ele>1755.0</ele>
        <time>2017-10-01T13:18:30Z</time>
      </trkpt>
      <trkpt lat="41.138500" lon="-3.639800">
        <ele>1753.0</ele>
        <time>2017-10-01T13:18:31Z</time>
      </trkpt>
      <trkpt lat="41.138417" lon="-3.639850">
        <ele>1752.0</ele>
        <time>2017-10-01T13:18:32Z</time>
      </trkpt>
      <trkpt lat="41.138333" lon="-3.639900">
        <ele>1751.0</ele>
        <time>2017-10-01T13:18:33Z</time>
      </trkpt>
      <trkpt lat="41.138250" lon="-3.639950">
        <ele>1751.0</ele>
        <time>2017-10-01T13:18:34Z</time>
      </trkpt>
      <trkpt lat="41.138183" lon="-3.640000">
        <ele>1750.0</ele>
        <time>2017-10-01T13:18:35Z</time>
      </trkpt>
      <trkpt lat="41.138117" lon="-3.640033">
        <ele>1749.0</ele>
        <time>2017-10-01T13:18:36Z</time>
      </trkpt>
      <trkpt lat="41.138033" lon="-3.640083">
        <ele>1747.0</ele>
        <time>2017-10-01T13:18:37Z</time>
      </trkpt>
      <trkpt lat="41.137967" lon="-3.640150">
        <ele>1745.0</ele>
        <time>2017-10-01T13:18:38Z</time>
      </trkpt>
      <trkpt lat="41.137883" lon="-3.640217">
        <ele>1744.0</ele>
        <time>2017-10-01T13:18:39Z</time>
      </trkpt>
      <trkpt lat="41.137817" lon="-3.640267">
        <ele>1743.0</ele>
        <time>2017-10-01T13:18:40Z</time>
      </trkpt>
      <trkpt lat="41.137750" lon="-3.640317">
        <ele>1742.0</ele>
        <time>2017-10-01T13:18:41Z</time>
      </trkpt>
      <trkpt lat="41.137683" lon="-3.640350">
        <ele>1741.0</ele>
        <time>2017-10-01T13:18:42Z</time>
      </trkpt>
      <trkpt lat="41.137633" lon="-3.640400">
        <ele>1740.0</ele>
        <time>2017-10-01T13:18:43Z</time>
      </trkpt>
      <trkpt lat="41.137567" lon="-3.640467">
        <ele>1740.0</ele>
        <time>2017-10-01T13:18:44Z</time>
      </trkpt>
      <trkpt lat="41.137500" lon="-3.640533">
        <ele>1739.0</ele>
        <time>2017-10-01T13:18:45Z</time>
      </trkpt>
      <trkpt lat="41.137450" lon="-3.640600">
        <ele>1740.0</ele>
        <time>2017-10-01T13:18:46Z</time>
      </trkpt>
      <trkpt lat="41.137383" lon="-3.640667">
        <ele>1739.0</ele>
        <time>2017-10-01T13:18:47Z</time>
      </trkpt>
      <trkpt lat="41.137333" lon="-3.640733">
        <ele>1738.0</ele>
        <time>2017-10-01T13:18:48Z</time>
      </trkpt>
      <trkpt lat="41.137283" lon="-3.640817">
        <ele>1736.0</ele>
        <time>2017-10-01T13:18:49Z</time>
      </trkpt>
      <trkpt lat="41.137217" lon="-3.640883">
        <ele>1734.0</ele>
        <time>2017-10-01T13:18:50Z</time>
      </trkpt>
      <trkpt lat="41.137167" lon="-3.640967">
        <ele>1732.0</ele>
        <time>2017-10-01T13:18:51Z</time>
      </trkpt>
      <trkpt lat="41.137100" lon="-3.641050">
        <ele>1731.0</ele>
        <time>2017-10-01T13:18:52Z</time>
      </trkpt>
      <trkpt lat="41.137033" lon="-3.641117">
        <ele>1730.0</ele>
        <time>2017-10-01T13:18:53Z</time>
      </trkpt>
      <trkpt lat="41.136967" lon="-3.641183">
        <ele>1730.0</ele>
        <time>2017-10-01T13:18:54Z</time>
      </trkpt>
      <trkpt lat="41.136900" lon="-3.641250">
        <ele>1729.0</ele>
        <time>2017-10-01T13:18:55Z</time>
      </trkpt>
      <trkpt lat="41.136833" lon="-3.641317">
        <ele>1728.0</ele>
        <time>2017-10-01T13:18:56Z</time>
      </trkpt>
      <trkpt lat="41.136767" lon="-3.641383">
        <ele>1727.0</ele>
        <time>2017-10-01T13:18:57Z</time>
      </trkpt>
      <trkpt lat="41.136683" lon="-3.641467">
        <ele>1727.0</ele>
        <time>2017-10-01T13:18:58Z</time>
      </trkpt>
      <trkpt lat="41.136617" lon="-3.641533">
        <ele>1727.0</ele>
        <time>2017-10-01T13:18:59Z</time>
      </trkpt>
      <trkpt lat="41.136533" lon="-3.641583">
        <ele>1727.0</ele>
        <time>2017-10-01T13:19:00Z</time>
      </trkpt>
      <trkpt lat="41.136467" lon="-3.641650">
        <ele>1726.0</ele>
        <time>2017-10-01T13:19:01Z</time>
      </trkpt>
      <trkpt lat="41.136400" lon="-3.641700">
        <ele>1725.0</ele>
        <time>2017-10-01T13:19:02Z</time>
      </trkpt>
      <trkpt lat="41.136317" lon="-3.641767">
        <ele>1723.0</ele>
        <time>2017-10-01T13:19:03Z</time>
      </trkpt>
      <trkpt lat="41.136250" lon="-3.641850">
        <ele>1722.0</ele>
        <time>2017-10-01T13:19:04Z</time>
      </trkpt>
      <trkpt lat="41.136167" lon="-3.641917">
        <ele>1721.0</ele>
        <time>2017-10-01T13:19:05Z</time>
      </trkpt>
      <trkpt lat="41.136100" lon="-3.642000">
        <ele>1722.0</ele>
        <time>2017-10-01T13:19:06Z</time>
      </trkpt>
      <trkpt lat="41.136033" lon="-3.642067">
        <ele>1722.0</ele>
        <time>2017-10-01T13:19:07Z</time>
      </trkpt>
      <trkpt lat="41.135983" lon="-3.642133">
        <ele>1723.0</ele>
        <time>2017-10-01T13:19:08Z</time>
      </trkpt>
      <trkpt lat="41.135933" lon="-3.642217">
        <ele>1722.0</ele>
        <time>2017-10-01T13:19:09Z</time>
      </trkpt>
      <trkpt lat="41.135900" lon="-3.642300">
        <ele>1722.0</ele>
        <time>2017-10-01T13:19:10Z</time>
      </trkpt>
      <trkpt lat="41.135867" lon="-3.642400">
        <ele>1720.0</ele>
        <time>2017-10-01T13:19:11Z</time>
      </trkpt>
      <trkpt lat="41.135850" lon="-3.642500">
        <ele>1720.0</ele>
        <time>2017-10-01T13:19:12Z</time>
      </trkpt>
      <trkpt lat="41.135800" lon="-3.642600">
        <ele>1719.0</ele>
        <time>2017-10-01T13:19:13Z</time>
      </trkpt>
      <trkpt lat="41.135750" lon="-3.642683">
        <ele>1719.0</ele>
        <time>2017-10-01T13:19:14Z</time>
      </trkpt>
      <trkpt lat="41.135683" lon="-3.642767">
        <ele>1718.0</ele>
        <time>2017-10-01T13:19:15Z</time>
      </trkpt>
      <trkpt lat="41.135617" lon="-3.642850">
        <ele>1718.0</ele>
        <time>2017-10-01T13:19:16Z</time>
      </trkpt>
      <trkpt lat="41.135550" lon="-3.642933">
        <ele>1718.0</ele>
        <time>2017-10-01T13:19:17Z</time>
      </trkpt>
      <trkpt lat="41.135500" lon="-3.643000">
        <ele>1718.0</ele>
        <time>2017-10-01T13:19:18Z</time>
      </trkpt>
      <trkpt lat="41.135433" lon="-3.643067">
        <ele>1719.0</ele>
        <time>2017-10-01T13:19:19Z</time>
      </trkpt>
      <trkpt lat="41.135383" lon="-3.643133">
        <ele>1719.0</ele>
        <time>2017-10-01T13:19:20Z</time>
      </trkpt>
      <trkpt lat="41.135317" lon="-3.643217">
        <ele>1719.0</ele>
        <time>2017-10-01T13:19:21Z</time>
      </trkpt>
      <trkpt lat="41.135250" lon="-3.643283">
        <ele>1718.0</ele>
        <time>2017-10-01T13:19:22Z</time>
      </trkpt>
      <trkpt lat="41.135183" lon="-3.643350">
        <ele>1718.0</ele>
        <time>2017-10-01T13:19:23Z</time>
      </trkpt>
      <trkpt lat="41.135100" lon="-3.643417">
        <ele>1719.0</ele>
        <time>2017-10-01T13:19:24Z</time>
      </trkpt>
      <trkpt lat="41.135033" lon="-3.643467">
        <ele>1720.0</ele>
        <time>2017-10-01T13:19:25Z</time>
      </trkpt>
      <trkpt lat="41.134950" lon="-3.643533">
        <ele>1720.0</ele>
        <time>2017-10-01T13:19:26Z</time>
      </trkpt>
      <trkpt lat="41.134883" lon="-3.643583">
        <ele>1719.0</ele>
        <time>2017-10-01T13:19:27Z</time>
      </trkpt>
      <trkpt lat="41.134833" lon="-3.643650">
        <ele>1717.0</ele>
        <time>2017-10-01T13:19:28Z</time>
      </trkpt>
      <trkpt lat="41.134767" lon="-3.643717">
        <ele>1715.0</ele>
        <time>2017-10-01T13:19:29Z</time>
      </trkpt>
      <trkpt lat="41.134700" lon="-3.643800">
        <ele>1713.0</ele>
        <time>2017-10-01T13:19:30Z</time>
      </trkpt>
      <trkpt lat="41.134633" lon="-3.643867">
        <ele>1711.0</ele>
        <time>2017-10-01T13:19:31Z</time>
      </trkpt>
      <trkpt lat="41.134567" lon="-3.643950">
        <ele>1710.0</ele>
        <time>2017-10-01T13:19:32Z</time>
      </trkpt>
      <trkpt lat="41.134500" lon="-3.644017">
        <ele>1710.0</ele>
        <time>2017-10-01T13:19:33Z</time>
      </trkpt>
      <trkpt lat="41.134433" lon="-3.644083">
        <ele>1710.0</ele>
        <time>2017-10-01T13:19:34Z</time>
      </trkpt>
      <trkpt lat="41.134383" lon="-3.644150">
        <ele>1710.0</ele>
        <time>2017-10-01T13:19:35Z</time>
      </trkpt>
      <trkpt lat="41.134367" lon="-3.644217">
        <ele>1709.0</ele>
        <time>2017-10-01T13:19:36Z</time>
      </trkpt>
      <trkpt lat="41.134350" lon="-3.644283">
        <ele>1708.0</ele>
        <time>2017-10-01T13:19:37Z</time>
      </trkpt>
      <trkpt lat="41.134333" lon="-3.644367">
        <ele>1707.0</ele>
        <time>2017-10-01T13:19:38Z</time>
      </trkpt>
      <trkpt lat="41.134283" lon="-3.644450">
        <ele>1706.0</ele>
        <time>2017-10-01T13:19:39Z</time>
      </trkpt>
      <trkpt lat="41.134250" lon="-3.644517">
        <ele>1706.0</ele>
        <time>2017-10-01T13:19:40Z</time>
      </trkpt>
      <trkpt lat="41.134200" lon="-3.644600">
        <ele>1707.0</ele>
        <time>2017-10-01T13:19:41Z</time>
      </trkpt>
      <trkpt lat="41.134167" lon="-3.644650">
        <ele>1708.0</ele>
        <time>2017-10-01T13:19:42Z</time>
      </trkpt>
      <trkpt lat="41.134150" lon="-3.644717">
        <ele>1706.0</ele>
        <time>2017-10-01T13:19:43Z</time>
      </trkpt>
      <trkpt lat="41.134133" lon="-3.644783">
        <ele>1705.0</ele>
        <time>2017-10-01T13:19:44Z</time>
      </trkpt>
      <trkpt lat="41.134100" lon="-3.644850">
        <ele>1703.0</ele>
        <time>2017-10-01T13:19:45Z</time>
      </trkpt>
      <trkpt lat="41.134067" lon="-3.644933">
        <ele>1702.0</ele>
        <time>2017-10-01T13:19:46Z</time>
      </trkpt>
      <trkpt lat="41.134000" lon="-3.645000">
        <ele>1701.0</ele>
        <time>2017-10-01T13:19:47Z</time>
      </trkpt>
      <trkpt lat="41.133933" lon="-3.645067">
        <ele>1701.0</ele>
        <time>2017-10-01T13:19:48Z</time>
      </trkpt>
      <trkpt lat="41.133850" lon="-3.645133">
        <ele>1701.0</ele>
        <time>2017-10-01T13:19:49Z</time>
      </trkpt>
      <trkpt lat="41.133800" lon="-3.645183">
        <ele>1700.0</ele>
        <time>2017-10-01T13:19:50Z</time>
      </trkpt>
      <trkpt lat="41.133717" lon="-3.645250">
        <ele>1699.0</ele>
        <time>2017-10-01T13:19:51Z</time>
      </trkpt>
      <trkpt lat="41.133650" lon="-3.645317">
        <ele>1698.0</ele>
        <time>2017-10-01T13:19:52Z</time>
      </trkpt>
      <trkpt lat="41.133567" lon="-3.645383">
        <ele>1696.0</ele>
        <time>2017-10-01T13:19:53Z</time>
      </trkpt>
      <trkpt lat="41.133483" lon="-3.645450">
        <ele>1696.0</ele>
        <time>2017-10-01T13:19:54Z</time>
      </trkpt>
      <trkpt lat="41.133383" lon="-3.645500">
        <ele>1696.0</ele>
        <time>2017-10-01T13:19:55Z</time>
      </trkpt>
      <trkpt lat="41.133300" lon="-3.645567">
        <ele>1696.0</ele>
        <time>2017-10-01T13:19:56Z</time>
      </trkpt>
      <trkpt lat="41.133217" lon="-3.645617">
        <ele>1697.0</ele>
        <time>2017-10-01T13:19:57Z</time>
      </trkpt>
      <trkpt lat="41.133133" lon="-3.645667">
        <ele>1697.0</ele>
        <time>2017-10-01T13:19:58Z</time>
      </trkpt>
      <trkpt lat="41.133067" lon="-3.645717">
        <ele>1697.0</ele>
        <time>2017-10-01T13:19:59Z</time>
      </trkpt>
      <trkpt lat="41.133017" lon="-3.645783">
        <ele>1696.0</ele>
        <time>2017-10-01T13:20:00Z</time>
      </trkpt>
      <trkpt lat="41.132967" lon="-3.645850">
        <ele>1695.0</ele>
        <time>2017-10-01T13:20:01Z</time>
      </trkpt>
      <trkpt lat="41.132917" lon="-3.645933">
        <ele>1694.0</ele>
        <time>2017-10-01T13:20:02Z</time>
      </trkpt>
      <trkpt lat="41.132883" lon="-3.646033">
        <ele>1693.0</ele>
        <time>2017-10-01T13:20:03Z</time>
      </trkpt>
      <trkpt lat="41.132817" lon="-3.646133">
        <ele>1693.0</ele>
        <time>2017-10-01T13:20:04Z</time>
      </trkpt>
      <trkpt lat="41.132750" lon="-3.646217">
        <ele>1693.0</ele>
        <time>2017-10-01T13:20:05Z</time>
      </trkpt>
      <trkpt lat="41.132683" lon="-3.646300">
        <ele>1694.0</ele>
        <time>2017-10-01T13:20:06Z</time>
      </trkpt>
      <trkpt lat="41.132600" lon="-3.646367">
        <ele>1696.0</ele>
        <time>2017-10-01T13:20:07Z</time>
      </trkpt>
      <trkpt lat="41.132533" lon="-3.646433">
        <ele>1697.0</ele>
        <time>2017-10-01T13:20:08Z</time>
      </trkpt>
      <trkpt lat="41.132483" lon="-3.646500">
        <ele>1699.0</ele>
        <time>2017-10-01T13:20:09Z</time>
      </trkpt>
      <trkpt lat="41.132450" lon="-3.646600">
        <ele>1699.0</ele>
        <time>2017-10-01T13:20:10Z</time>
      </trkpt>
      <trkpt lat="41.132467" lon="-3.646667">
        <ele>1699.0</ele>
        <time>2017-10-01T13:20:11Z</time>
      </trkpt>
      <trkpt lat="41.132500" lon="-3.646733">
        <ele>1700.0</ele>
        <time>2017-10-01T13:20:12Z</time>
      </trkpt>
      <trkpt lat="41.132550" lon="-3.646750">
        <ele>1701.0</ele>
        <time>2017-10-01T13:20:13Z</time>
      </trkpt>
      <trkpt lat="41.132600" lon="-3.646750">
        <ele>1703.0</ele>
        <time>2017-10-01T13:20:14Z</time>
      </trkpt>
      <trkpt lat="41.132650" lon="-3.646700">
        <ele>1704.0</ele>
        <time>2017-10-01T13:20:15Z</time>
      </trkpt>
      <trkpt lat="41.132700" lon="-3.646617">
        <ele>1705.0</ele>
        <time>2017-10-01T13:20:16Z</time>
      </trkpt>
      <trkpt lat="41.132733" lon="-3.646517">
        <ele>1706.0</ele>
        <time>2017-10-01T13:20:17Z</time>
      </trkpt>
      <trkpt lat="41.132733" lon="-3.646383">
        <ele>1707.0</ele>
        <time>2017-10-01T13:20:18Z</time>
      </trkpt>
      <trkpt lat="41.132700" lon="-3.646233">
        <ele>1707.0</ele>
        <time>2017-10-01T13:20:19Z</time>
      </trkpt>
      <trkpt lat="41.132650" lon="-3.646100">
        <ele>1708.0</ele>
        <time>2017-10-01T13:20:20Z</time>
      </trkpt>
      <trkpt lat="41.132583" lon="-3.645967">
        <ele>1709.0</ele>
        <time>2017-10-01T13:20:21Z</time>
      </trkpt>
      <trkpt lat="41.132483" lon="-3.645867">
        <ele>1710.0</ele>
        <time>2017-10-01T13:20:22Z</time>
      </trkpt>
      <trkpt lat="41.132383" lon="-3.645800">
        <ele>1711.0</ele>
        <time>2017-10-01T13:20:23Z</time>
      </trkpt>
      <trkpt lat="41.132283" lon="-3.645733">
        <ele>1711.0</ele>
        <time>2017-10-01T13:20:24Z</time>
      </trkpt>
      <trkpt lat="41.132167" lon="-3.645717">
        <ele>1711.0</ele>
        <time>2017-10-01T13:20:25Z</time>
      </trkpt>
      <trkpt lat="41.132033" lon="-3.645700">
        <ele>1711.0</ele>
        <time>2017-10-01T13:20:26Z</time>
      </trkpt>
      <trkpt lat="41.131917" lon="-3.645733">
        <ele>1712.0</ele>
        <time>2017-10-01T13:20:27Z</time>
      </trkpt>
      <trkpt lat="41.131817" lon="-3.645783">
        <ele>1713.0</ele>
        <time>2017-10-01T13:20:28Z</time>
      </trkpt>
      <trkpt lat="41.131717" lon="-3.645833">
        <ele>1714.0</ele>
        <time>2017-10-01T13:20:29Z</time>
      </trkpt>
      <trkpt lat="41.131650" lon="-3.645900">
        <ele>1716.0</ele>
        <time>2017-10-01T13:20:30Z</time>
      </trkpt>
      <trkpt lat="41.131583" lon="-3.645967">
        <ele>1718.0</ele>
        <time>2017-10-01T13:20:31Z</time>
      </trkpt>
      <trkpt lat="41.131533" lon="-3.646033">
        <ele>1720.0</ele>
        <time>2017-10-01T13:20:32Z</time>
      </trkpt>
      <trkpt lat="41.131500" lon="-3.646100">
        <ele>1720.0</ele>
        <time>2017-10-01T13:20:33Z</time>
      </trkpt>
      <trkpt lat="41.131483" lon="-3.646167">
        <ele>1720.0</ele>
        <time>2017-10-01T13:20:34Z</time>
      </trkpt>
      <trkpt lat="41.131500" lon="-3.646233">
        <ele>1720.0</ele>
        <time>2017-10-01T13:20:35Z</time>
      </trkpt>
      <trkpt lat="41.131517" lon="-3.646267">
        <ele>1719.0</ele>
        <time>2017-10-01T13:20:36Z</time>
      </trkpt>
      <trkpt lat="41.131567" lon="-3.646283">
        <ele>1719.0</ele>
        <time>2017-10-01T13:20:37Z</time>
      </trkpt>
      <trkpt lat="41.131617" lon="-3.646300">
        <ele>1719.0</ele>
        <time>2017-10-01T13:20:38Z</time>
      </trkpt>
      <trkpt lat="41.131667" lon="-3.646267">
        <ele>1719.0</ele>
        <time>2017-10-01T13:20:39Z</time>
      </trkpt>
      <trkpt lat="41.131717" lon="-3.646217">
        <ele>1720.0</ele>
        <time>2017-10-01T13:20:40Z</time>
      </trkpt>
      <trkpt lat="41.131767" lon="-3.646117">
        <ele>1720.0</ele>
        <time>2017-10-01T13:20:41Z</time>
      </trkpt>
      <trkpt lat="41.131783" lon="-3.646017">
        <ele>1721.0</ele>
        <time>2017-10-01T13:20:42Z</time>
      </trkpt>
      <trkpt lat="41.131800" lon="-3.645917">
        <ele>1723.0</ele>
        <time>2017-10-01T13:20:43Z</time>
      </trkpt>
      <trkpt lat="41.131800" lon="-3.645783">
        <ele>1724.0</ele>
        <time>2017-10-01T13:20:44Z</time>
      </trkpt>
      <trkpt lat="41.131783" lon="-3.645667">
        <ele>1725.0</ele>
        <time>2017-10-01T13:20:45Z</time>
      </trkpt>
      <trkpt lat="41.131733" lon="-3.645517">
        <ele>1725.0</ele>
        <time>2017-10-01T13:20:46Z</time>
      </trkpt>
      <trkpt lat="41.131650" lon="-3.645400">
        <ele>1726.0</ele>
        <time>2017-10-01T13:20:47Z</time>
      </trkpt>
      <trkpt lat="41.131550" lon="-3.645300">
        <ele>1726.0</ele>
        <time>2017-10-01T13:20:48Z</time>
      </trkpt>
      <trkpt lat="41.131433" lon="-3.645233">
        <ele>1727.0</ele>
        <time>2017-10-01T13:20:49Z</time>
      </trkpt>
      <trkpt lat="41.131317" lon="-3.645217">
        <ele>1728.0</ele>
        <time>2017-10-01T13:20:50Z</time>
      </trkpt>
      <trkpt lat="41.131200" lon="-3.645217">
        <ele>1728.0</ele>
        <time>2017-10-01T13:20:51Z</time>
      </trkpt>
      <trkpt lat="41.131083" lon="-3.645250">
        <ele>1729.0</ele>
        <time>2017-10-01T13:20:52Z</time>
      </trkpt>
      <trkpt lat="41.130967" lon="-3.645300">
        <ele>1730.0</ele>
        <time>2017-10-01T13:20:53Z</time>
      </trkpt>
      <trkpt lat="41.130883" lon="-3.645367">
        <ele>1732.0</ele>
        <time>2017-10-01T13:20:54Z</time>
      </trkpt>
      <trkpt lat="41.130817" lon="-3.645433">
        <ele>1733.0</ele>
        <time>2017-10-01T13:20:55Z</time>
      </trkpt>
      <trkpt lat="41.130783" lon="-3.645500">
        <ele>1733.0</ele>
        <time>2017-10-01T13:20:56Z</time>
      </trkpt>
      <trkpt lat="41.130767" lon="-3.645550">
        <ele>1734.0</ele>
        <time>2017-10-01T13:20:57Z</time>
      </trkpt>
      <trkpt lat="41.130750" lon="-3.645617">
        <ele>1733.0</ele>
        <time>2017-10-01T13:20:58Z</time>
      </trkpt>
      <trkpt lat="41.130750" lon="-3.645683">
        <ele>1733.0</ele>
        <time>2017-10-01T13:20:59Z</time>
      </trkpt>
      <trkpt lat="41.130750" lon="-3.645750">
        <ele>1733.0</ele>
        <time>2017-10-01T13:21:00Z</time>
      </trkpt>
      <trkpt lat="41.130783" lon="-3.645800">
        <ele>1732.0</ele>
        <time>2017-10-01T13:21:01Z</time>
      </trkpt>
      <trkpt lat="41.130817" lon="-3.645817">
        <ele>1732.0</ele>
        <time>2017-10-01T13:21:02Z</time>
      </trkpt>
      <trkpt lat="41.130850" lon="-3.645833">
        <ele>1732.0</ele>
        <time>2017-10-01T13:21:03Z</time>
      </trkpt>
      <trkpt lat="41.130900" lon="-3.645817">
        <ele>1732.0</ele>
        <time>2017-10-01T13:21:04Z</time>
      </trkpt>
      <trkpt lat="41.130950" lon="-3.645783">
        <ele>1731.0</ele>
        <time>2017-10-01T13:21:05Z</time>
      </trkpt>
      <trkpt lat="41.131000" lon="-3.645733">
        <ele>1731.0</ele>
        <time>2017-10-01T13:21:06Z</time>
      </trkpt>
      <trkpt lat="41.131050" lon="-3.645650">
        <ele>1731.0</ele>
        <time>2017-10-01T13:21:07Z</time>
      </trkpt>
      <trkpt lat="41.131100" lon="-3.645533">
        <ele>1731.0</ele>
        <time>2017-10-01T13:21:08Z</time>
      </trkpt>
      <trkpt lat="41.131117" lon="-3.645400">
        <ele>1733.0</ele>
        <time>2017-10-01T13:21:09Z</time>
      </trkpt>
      <trkpt lat="41.131117" lon="-3.645267">
        <ele>1734.0</ele>
        <time>2017-10-01T13:21:10Z</time>
      </trkpt>
      <trkpt lat="41.131100" lon="-3.645150">
        <ele>1736.0</ele>
        <time>2017-10-01T13:21:11Z</time>
      </trkpt>
      <trkpt lat="41.131083" lon="-3.645017">
        <ele>1737.0</ele>
        <time>2017-10-01T13:21:12Z</time>
      </trkpt>
      <trkpt lat="41.131033" lon="-3.644883">
        <ele>1738.0</ele>
        <time>2017-10-01T13:21:13Z</time>
      </trkpt>
      <trkpt lat="41.130967" lon="-3.644750">
        <ele>1738.0</ele>
        <time>2017-10-01T13:21:14Z</time>
      </trkpt>
      <trkpt lat="41.130867" lon="-3.644633">
        <ele>1738.0</ele>
        <time>2017-10-01T13:21:15Z</time>
      </trkpt>
      <trkpt lat="41.130767" lon="-3.644567">
        <ele>1738.0</ele>
        <time>2017-10-01T13:21:16Z</time>
      </trkpt>
      <trkpt lat="41.130650" lon="-3.644517">
        <ele>1739.0</ele>
        <time>2017-10-01T13:21:17Z</time>
      </trkpt>
      <trkpt lat="41.130533" lon="-3.644500">
        <ele>1741.0</ele>
        <time>2017-10-01T13:21:18Z</time>
      </trkpt>
      <trkpt lat="41.130433" lon="-3.644500">
        <ele>1742.0</ele>
        <time>2017-10-01T13:21:19Z</time>
      </trkpt>
      <trkpt lat="41.130350" lon="-3.644533">
        <ele>1742.0</ele>
        <time>2017-10-01T13:21:20Z</time>
      </trkpt>
      <trkpt lat="41.130267" lon="-3.644583">
        <ele>1743.0</ele>
        <time>2017-10-01T13:21:21Z</time>
      </trkpt>
      <trkpt lat="41.130217" lon="-3.644650">
        <ele>1743.0</ele>
        <time>2017-10-01T13:21:22Z</time>
      </trkpt>
      <trkpt lat="41.130183" lon="-3.644717">
        <ele>1743.0</ele>
        <time>2017-10-01T13:21:23Z</time>
      </trkpt>
      <trkpt lat="41.130183" lon="-3.644800">
        <ele>1743.0</ele>
        <time>2017-10-01T13:21:24Z</time>
      </trkpt>
      <trkpt lat="41.130200" lon="-3.644850">
        <ele>1744.0</ele>
        <time>2017-10-01T13:21:25Z</time>
      </trkpt>
      <trkpt lat="41.130217" lon="-3.644900">
        <ele>1744.0</ele>
        <time>2017-10-01T13:21:26Z</time>
      </trkpt>
      <trkpt lat="41.130250" lon="-3.644933">
        <ele>1745.0</ele>
        <time>2017-10-01T13:21:27Z</time>
      </trkpt>
      <trkpt lat="41.130283" lon="-3.644950">
        <ele>1745.0</ele>
        <time>2017-10-01T13:21:28Z</time>
      </trkpt>
      <trkpt lat="41.130333" lon="-3.644950">
        <ele>1746.0</ele>
        <time>2017-10-01T13:21:29Z</time>
      </trkpt>
      <trkpt lat="41.130383" lon="-3.644933">
        <ele>1746.0</ele>
        <time>2017-10-01T13:21:30Z</time>
      </trkpt>
      <trkpt lat="41.130433" lon="-3.644883">
        <ele>1746.0</ele>
        <time>2017-10-01T13:21:31Z</time>
      </trkpt>
      <trkpt lat="41.130483" lon="-3.644800">
        <ele>1748.0</ele>
        <time>2017-10-01T13:21:32Z</time>
      </trkpt>
      <trkpt lat="41.130533" lon="-3.644733">
        <ele>1749.0</ele>
        <time>2017-10-01T13:21:33Z</time>
      </trkpt>
      <trkpt lat="41.130567" lon="-3.644633">
        <ele>1749.0</ele>
        <time>2017-10-01T13:21:34Z</time>
      </trkpt>
      <trkpt lat="41.130600" lon="-3.644533">
        <ele>1750.0</ele>
        <time>2017-10-01T13:21:35Z</time>
      </trkpt>
      <trkpt lat="41.130617" lon="-3.644417">
        <ele>1750.0</ele>
        <time>2017-10-01T13:21:36Z</time>
      </trkpt>
      <trkpt lat="41.130600" lon="-3.644267">
        <ele>1751.0</ele>
        <time>2017-10-01T13:21:37Z</time>
      </trkpt>
      <trkpt lat="41.130550" lon="-3.644133">
        <ele>1751.0</ele>
        <time>2017-10-01T13:21:38Z</time>
      </trkpt>
      <trkpt lat="41.130483" lon="-3.644000">
        <ele>1751.0</ele>
        <time>2017-10-01T13:21:39Z</time>
      </trkpt>
      <trkpt lat="41.130417" lon="-3.643883">
        <ele>1752.0</ele>
        <time>2017-10-01T13:21:40Z</time>
      </trkpt>
      <trkpt lat="41.130317" lon="-3.643767">
        <ele>1753.0</ele>
        <time>2017-10-01T13:21:41Z</time>
      </trkpt>
      <trkpt lat="41.130217" lon="-3.643683">
        <ele>1754.0</ele>
        <time>2017-10-01T13:21:42Z</time>
      </trkpt>
      <trkpt lat="41.130117" lon="-3.643617">
        <ele>1754.0</ele>
        <time>2017-10-01T13:21:43Z</time>
      </trkpt>
      <trkpt lat="41.130000" lon="-3.643583">
        <ele>1754.0</ele>
        <time>2017-10-01T13:21:44Z</time>
      </trkpt>
      <trkpt lat="41.129867" lon="-3.643550">
        <ele>1755.0</ele>
        <time>2017-10-01T13:21:45Z</time>
      </trkpt>
      <trkpt lat="41.129750" lon="-3.643533">
        <ele>1756.0</ele>
        <time>2017-10-01T13:21:46Z</time>
      </trkpt>
      <trkpt lat="41.129650" lon="-3.643550">
        <ele>1757.0</ele>
        <time>2017-10-01T13:21:47Z</time>
      </trkpt>
      <trkpt lat="41.129567" lon="-3.643583">
        <ele>1758.0</ele>
        <time>2017-10-01T13:21:48Z</time>
      </trkpt>
      <trkpt lat="41.129483" lon="-3.643650">
        <ele>1759.0</ele>
        <time>2017-10-01T13:21:49Z</time>
      </trkpt>
      <trkpt lat="41.129400" lon="-3.643717">
        <ele>1760.0</ele>
        <time>2017-10-01T13:21:50Z</time>
      </trkpt>
      <trkpt lat="41.129350" lon="-3.643783">
        <ele>1760.0</ele>
        <time>2017-10-01T13:21:51Z</time>
      </trkpt>
      <trkpt lat="41.129333" lon="-3.643850">
        <ele>1761.0</ele>
        <time>2017-10-01T13:21:52Z</time>
      </trkpt>
      <trkpt lat="41.129317" lon="-3.643917">
        <ele>1761.0</ele>
        <time>2017-10-01T13:21:53Z</time>
      </trkpt>
      <trkpt lat="41.129333" lon="-3.643967">
        <ele>1761.0</ele>
        <time>2017-10-01T13:21:54Z</time>
      </trkpt>
      <trkpt lat="41.129367" lon="-3.644000">
        <ele>1762.0</ele>
        <time>2017-10-01T13:21:55Z</time>
      </trkpt>
      <trkpt lat="41.129400" lon="-3.644033">
        <ele>1763.0</ele>
        <time>2017-10-01T13:21:56Z</time>
      </trkpt>
      <trkpt lat="41.129450" lon="-3.644017">
        <ele>1765.0</ele>
        <time>2017-10-01T13:21:57Z</time>
      </trkpt>
      <trkpt lat="41.129483" lon="-3.644000">
        <ele>1766.0</ele>
        <time>2017-10-01T13:21:58Z</time>
      </trkpt>
      <trkpt lat="41.129533" lon="-3.643950">
        <ele>1766.0</ele>
        <time>2017-10-01T13:21:59Z</time>
      </trkpt>
      <trkpt lat="41.129583" lon="-3.643883">
        <ele>1766.0</ele>
        <time>2017-10-01T13:22:00Z</time>
      </trkpt>
      <trkpt lat="41.129617" lon="-3.643800">
        <ele>1767.0</ele>
        <time>2017-10-01T13:22:01Z</time>
      </trkpt>
      <trkpt lat="41.129650" lon="-3.643700">
        <ele>1767.0</ele>
        <time>2017-10-01T13:22:02Z</time>
      </trkpt>
      <trkpt lat="41.129650" lon="-3.643567">
        <ele>1767.0</ele>
        <time>2017-10-01T13:22:03Z</time>
      </trkpt>
      <trkpt lat="41.129650" lon="-3.643433">
        <ele>1767.0</ele>
        <time>2017-10-01T13:22:04Z</time>
      </trkpt>
      <trkpt lat="41.129617" lon="-3.643283">
        <ele>1768.0</ele>
        <time>2017-10-01T13:22:05Z</time>
      </trkpt>
      <trkpt lat="41.129583" lon="-3.643150">
        <ele>1768.0</ele>
        <time>2017-10-01T13:22:06Z</time>
      </trkpt>
      <trkpt lat="41.129517" lon="-3.643033">
        <ele>1769.0</ele>
        <time>2017-10-01T13:22:07Z</time>
      </trkpt>
      <trkpt lat="41.129450" lon="-3.642917">
        <ele>1769.0</ele>
        <time>2017-10-01T13:22:08Z</time>
      </trkpt>
      <trkpt lat="41.129367" lon="-3.642817">
        <ele>1769.0</ele>
        <time>2017-10-01T13:22:09Z</time>
      </trkpt>
      <trkpt lat="41.129250" lon="-3.642717">
        <ele>1769.0</ele>
        <time>2017-10-01T13:22:10Z</time>
      </trkpt>
      <trkpt lat="41.129133" lon="-3.642667">
        <ele>1770.0</ele>
        <time>2017-10-01T13:22:11Z</time>
      </trkpt>
      <trkpt lat="41.129017" lon="-3.642633">
        <ele>1770.0</ele>
        <time>2017-10-01T13:22:12Z</time>
      </trkpt>
      <trkpt lat="41.128900" lon="-3.642617">
        <ele>1772.0</ele>
        <time>2017-10-01T13:22:13Z</time>
      </trkpt>
      <trkpt lat="41.128800" lon="-3.642600">
        <ele>1774.0</ele>
        <time>2017-10-01T13:22:14Z</time>
      </trkpt>
      <trkpt lat="41.128700" lon="-3.642600">
        <ele>1775.0</ele>
        <time>2017-10-01T13:22:15Z</time>
      </trkpt>
      <trkpt lat="41.128617" lon="-3.642617">
        <ele>1776.0</ele>
        <time>2017-10-01T13:22:16Z</time>
      </trkpt>
      <trkpt lat="41.128533" lon="-3.642650">
        <ele>1776.0</ele>
        <time>2017-10-01T13:22:17Z</time>
      </trkpt>
      <trkpt lat="41.128450" lon="-3.642700">
        <ele>1776.0</ele>
        <time>2017-10-01T13:22:18Z</time>
      </trkpt>
      <trkpt lat="41.128367" lon="-3.642750">
        <ele>1776.0</ele>
        <time>2017-10-01T13:22:19Z</time>
      </trkpt>
      <trkpt lat="41.128317" lon="-3.642817">
        <ele>1777.0</ele>
        <time>2017-10-01T13:22:20Z</time>
      </trkpt>
      <trkpt lat="41.128267" lon="-3.642883">
        <ele>1778.0</ele>
        <time>2017-10-01T13:22:21Z</time>
      </trkpt>
      <trkpt lat="41.128250" lon="-3.642933">
        <ele>1778.0</ele>
        <time>2017-10-01T13:22:22Z</time>
      </trkpt>
      <trkpt lat="41.128233" lon="-3.643000">
        <ele>1778.0</ele>
        <time>2017-10-01T13:22:23Z</time>
      </trkpt>
      <trkpt lat="41.128233" lon="-3.643050">
        <ele>1777.0</ele>
        <time>2017-10-01T13:22:24Z</time>
      </trkpt>
      <trkpt lat="41.128250" lon="-3.643100">
        <ele>1777.0</ele>
        <time>2017-10-01T13:22:25Z</time>
      </trkpt>
      <trkpt lat="41.128283" lon="-3.643133">
        <ele>1778.0</ele>
        <time>2017-10-01T13:22:26Z</time>
      </trkpt>
      <trkpt lat="41.128333" lon="-3.643133">
        <ele>1779.0</ele>
        <time>2017-10-01T13:22:27Z</time>
      </trkpt>
      <trkpt lat="41.128367" lon="-3.643117">
        <ele>1781.0</ele>
        <time>2017-10-01T13:22:28Z</time>
      </trkpt>
      <trkpt lat="41.128400" lon="-3.643083">
        <ele>1783.0</ele>
        <time>2017-10-01T13:22:29Z</time>
      </trkpt>
      <trkpt lat="41.128433" lon="-3.643050">
        <ele>1785.0</ele>
        <time>2017-10-01T13:22:30Z</time>
      </trkpt>
      <trkpt lat="41.128450" lon="-3.643017">
        <ele>1785.0</ele>
        <time>2017-10-01T13:22:31Z</time>
      </trkpt>
      <trkpt lat="41.128483" lon="-3.642950">
        <ele>1785.0</ele>
        <time>2017-10-01T13:22:32Z</time>
      </trkpt>
      <trkpt lat="41.128517" lon="-3.642850">
        <ele>1785.0</ele>
        <time>2017-10-01T13:22:33Z</time>
      </trkpt>
      <trkpt lat="41.128550" lon="-3.642733">
        <ele>1785.0</ele>
        <time>2017-10-01T13:22:34Z</time>
      </trkpt>
      <trkpt lat="41.128567" lon="-3.642600">
        <ele>1786.0</ele>
        <time>2017-10-01T13:22:35Z</time>
      </trkpt>
      <trkpt lat="41.128567" lon="-3.642467">
        <ele>1786.0</ele>
        <time>2017-10-01T13:22:36Z</time>
      </trkpt>
      <trkpt lat="41.128550" lon="-3.642317">
        <ele>1787.0</ele>
        <time>2017-10-01T13:22:37Z</time>
      </trkpt>
      <trkpt lat="41.128517" lon="-3.642150">
        <ele>1787.0</ele>
        <time>2017-10-01T13:22:38Z</time>
      </trkpt>
      <trkpt lat="41.128467" lon="-3.642000">
        <ele>1787.0</ele>
        <time>2017-10-01T13:22:39Z</time>
      </trkpt>
      <trkpt lat="41.128383" lon="-3.641867">
        <ele>1788.0</ele>
        <time>2017-10-01T13:22:40Z</time>
      </trkpt>
      <trkpt lat="41.128300" lon="-3.641733">
        <ele>1789.0</ele>
        <time>2017-10-01T13:22:41Z</time>
      </trkpt>
      <trkpt lat="41.128200" lon="-3.641650">
        <ele>1789.0</ele>
        <time>2017-10-01T13:22:42Z</time>
      </trkpt>
      <trkpt lat="41.128100" lon="-3.641567">
        <ele>1790.0</ele>
        <time>2017-10-01T13:22:43Z</time>
      </trkpt>
      <trkpt lat="41.127983" lon="-3.641517">
        <ele>1790.0</ele>
        <time>2017-10-01T13:22:44Z</time>
      </trkpt>
      <trkpt lat="41.127867" lon="-3.641467">
        <ele>1790.0</ele>
        <time>2017-10-01T13:22:45Z</time>
      </trkpt>
      <trkpt lat="41.127767" lon="-3.641467">
        <ele>1791.0</ele>
        <time>2017-10-01T13:22:46Z</time>
      </trkpt>
      <trkpt lat="41.127667" lon="-3.641467">
        <ele>1792.0</ele>
        <time>2017-10-01T13:22:47Z</time>
      </trkpt>
      <trkpt lat="41.127567" lon="-3.641483">
        <ele>1793.0</ele>
        <time>2017-10-01T13:22:48Z</time>
      </trkpt>
      <trkpt lat="41.127483" lon="-3.641517">
        <ele>1793.0</ele>
        <time>2017-10-01T13:22:49Z</time>
      </trkpt>
      <trkpt lat="41.127400" lon="-3.641550">
        <ele>1794.0</ele>
        <time>2017-10-01T13:22:50Z</time>
      </trkpt>
      <trkpt lat="41.127333" lon="-3.641600">
        <ele>1795.0</ele>
        <time>2017-10-01T13:22:51Z</time>
      </trkpt>
      <trkpt lat="41.127283" lon="-3.641650">
        <ele>1795.0</ele>
        <time>2017-10-01T13:22:52Z</time>
      </trkpt>
      <trkpt lat="41.127233" lon="-3.641717">
        <ele>1796.0</ele>
        <time>2017-10-01T13:22:53Z</time>
      </trkpt>
      <trkpt lat="41.127200" lon="-3.641767">
        <ele>1797.0</ele>
        <time>2017-10-01T13:22:54Z</time>
      </trkpt>
      <trkpt lat="41.127150" lon="-3.641833">
        <ele>1798.0</ele>
        <time>2017-10-01T13:22:55Z</time>
      </trkpt>
      <trkpt lat="41.127117" lon="-3.641900">
        <ele>1799.0</ele>
        <time>2017-10-01T13:22:56Z</time>
      </trkpt>
      <trkpt lat="41.127083" lon="-3.641950">
        <ele>1800.0</ele>
        <time>2017-10-01T13:22:57Z</time>
      </trkpt>
      <trkpt lat="41.127033" lon="-3.642017">
        <ele>1801.0</ele>
        <time>2017-10-01T13:22:58Z</time>
      </trkpt>
      <trkpt lat="41.127017" lon="-3.642083">
        <ele>1802.0</ele>
        <time>2017-10-01T13:22:59Z</time>
      </trkpt>
      <trkpt lat="41.126983" lon="-3.642150">
        <ele>1804.0</ele>
        <time>2017-10-01T13:23:00Z</time>
      </trkpt>
      <trkpt lat="41.126950" lon="-3.642183">
        <ele>1806.0</ele>
        <time>2017-10-01T13:23:01Z</time>
      </trkpt>
      <trkpt lat="41.126900" lon="-3.642233">
        <ele>1808.0</ele>
        <time>2017-10-01T13:23:02Z</time>
      </trkpt>
      <trkpt lat="41.126867" lon="-3.642283">
        <ele>1809.0</ele>
        <time>2017-10-01T13:23:03Z</time>
      </trkpt>
      <trkpt lat="41.126833" lon="-3.642333">
        <ele>1809.0</ele>
        <time>2017-10-01T13:23:04Z</time>
      </trkpt>
      <trkpt lat="41.126783" lon="-3.642383">
        <ele>1808.0</ele>
        <time>2017-10-01T13:23:05Z</time>
      </trkpt>
      <trkpt lat="41.126733" lon="-3.642450">
        <ele>1809.0</ele>
        <time>2017-10-01T13:23:06Z</time>
      </trkpt>
      <trkpt lat="41.126683" lon="-3.642483">
        <ele>1810.0</ele>
        <time>2017-10-01T13:23:07Z</time>
      </trkpt>
      <trkpt lat="41.126633" lon="-3.642517">
        <ele>1811.0</ele>
        <time>2017-10-01T13:23:08Z</time>
      </trkpt>
      <trkpt lat="41.126600" lon="-3.642567">
        <ele>1811.0</ele>
        <time>2017-10-01T13:23:09Z</time>
      </trkpt>
      <trkpt lat="41.126583" lon="-3.642600">
        <ele>1810.0</ele>
        <time>2017-10-01T13:23:10Z</time>
      </trkpt>
      <trkpt lat="41.126550" lon="-3.642667">
        <ele>1810.0</ele>
        <time>2017-10-01T13:23:11Z</time>
      </trkpt>
      <trkpt lat="41.126533" lon="-3.642717">
        <ele>1811.0</ele>
        <time>2017-10-01T13:23:12Z</time>
      </trkpt>
      <trkpt lat="41.126517" lon="-3.642767">
        <ele>1812.0</ele>
        <time>2017-10-01T13:23:13Z</time>
      </trkpt>
      <trkpt lat="41.126500" lon="-3.642817">
        <ele>1813.0</ele>
        <time>2017-10-01T13:23:14Z</time>
      </trkpt>
      <trkpt lat="41.126483" lon="-3.642867">
        <ele>1814.0</ele>
        <time>2017-10-01T13:23:15Z</time>
      </trkpt>
      <trkpt lat="41.126467" lon="-3.642900">
        <ele>1814.0</ele>
        <time>2017-10-01T13:23:16Z</time>
      </trkpt>
      <trkpt lat="41.126450" lon="-3.642950">
        <ele>1814.0</ele>
        <time>2017-10-01T13:23:17Z</time>
      </trkpt>
      <trkpt lat="41.126433" lon="-3.643000">
        <ele>1813.0</ele>
        <time>2017-10-01T13:23:18Z</time>
      </trkpt>
      <trkpt lat="41.126417" lon="-3.643067">
        <ele>1813.0</ele>
        <time>2017-10-01T13:23:19Z</time>
      </trkpt>
      <trkpt lat="41.126417" lon="-3.643117">
        <ele>1814.0</ele>
        <time>2017-10-01T13:23:20Z</time>
      </trkpt>
      <trkpt lat="41.126400" lon="-3.643167">
        <ele>1815.0</ele>
        <time>2017-10-01T13:23:21Z</time>
      </trkpt>
      <trkpt lat="41.126383" lon="-3.643200">
        <ele>1815.0</ele>
        <time>2017-10-01T13:23:22Z</time>
      </trkpt>
      <trkpt lat="41.126383" lon="-3.643250">
        <ele>1814.0</ele>
        <time>2017-10-01T13:23:23Z</time>
      </trkpt>
      <trkpt lat="41.126367" lon="-3.643300">
        <ele>1814.0</ele>
        <time>2017-10-01T13:23:24Z</time>
      </trkpt>
      <trkpt lat="41.126333" lon="-3.643350">
        <ele>1813.0</ele>
        <time>2017-10-01T13:23:25Z</time>
      </trkpt>
      <trkpt lat="41.126317" lon="-3.643417">
        <ele>1813.0</ele>
        <time>2017-10-01T13:23:26Z</time>
      </trkpt>
      <trkpt lat="41.126300" lon="-3.643483">
        <ele>1812.0</ele>
        <time>2017-10-01T13:23:27Z</time>
      </trkpt>
      <trkpt lat="41.126267" lon="-3.643533">
        <ele>1812.0</ele>
        <time>2017-10-01T13:23:28Z</time>
      </trkpt>
      <trkpt lat="41.126250" lon="-3.643583">
        <ele>1812.0</ele>
        <time>2017-10-01T13:23:29Z</time>
      </trkpt>
      <trkpt lat="41.126233" lon="-3.643633">
        <ele>1812.0</ele>
        <time>2017-10-01T13:23:30Z</time>
      </trkpt>
      <trkpt lat="41.126217" lon="-3.643683">
        <ele>1812.0</ele>
        <time>2017-10-01T13:23:31Z</time>
      </trkpt>
      <trkpt lat="41.126200" lon="-3.643733">
        <ele>1811.0</ele>
        <time>2017-10-01T13:23:32Z</time>
      </trkpt>
      <trkpt lat="41.126183" lon="-3.643800">
        <ele>1810.0</ele>
        <time>2017-10-01T13:23:33Z</time>
      </trkpt>
      <trkpt lat="41.126183" lon="-3.643867">
        <ele>1810.0</ele>
        <time>2017-10-01T13:23:34Z</time>
      </trkpt>
      <trkpt lat="41.126167" lon="-3.643917">
        <ele>1811.0</ele>
        <time>2017-10-01T13:23:35Z</time>
      </trkpt>
      <trkpt lat="41.126133" lon="-3.643983">
        <ele>1813.0</ele>
        <time>2017-10-01T13:23:36Z</time>
      </trkpt>
      <trkpt lat="41.126117" lon="-3.644033">
        <ele>1814.0</ele>
        <time>2017-10-01T13:23:37Z</time>
      </trkpt>
      <trkpt lat="41.126083" lon="-3.644067">
        <ele>1815.0</ele>
        <time>2017-10-01T13:23:38Z</time>
      </trkpt>
      <trkpt lat="41.126067" lon="-3.644117">
        <ele>1816.0</ele>
        <time>2017-10-01T13:23:39Z</time>
      </trkpt>
      <trkpt lat="41.126033" lon="-3.644167">
        <ele>1817.0</ele>
        <time>2017-10-01T13:23:40Z</time>
      </trkpt>
      <trkpt lat="41.126033" lon="-3.644233">
        <ele>1818.0</ele>
        <time>2017-10-01T13:23:41Z</time>
      </trkpt>
      <trkpt lat="41.126017" lon="-3.644283">
        <ele>1820.0</ele>
        <time>2017-10-01T13:23:42Z</time>
      </trkpt>
      <trkpt lat="41.126017" lon="-3.644333">
        <ele>1822.0</ele>
        <time>2017-10-01T13:23:43Z</time>
      </trkpt>
      <trkpt lat="41.126017" lon="-3.644367">
        <ele>1824.0</ele>
        <time>2017-10-01T13:23:44Z</time>
      </trkpt>
      <trkpt lat="41.126000" lon="-3.644417">
        <ele>1826.0</ele>
        <time>2017-10-01T13:23:45Z</time>
      </trkpt>
      <trkpt lat="41.126000" lon="-3.644450">
        <ele>1827.0</ele>
        <time>2017-10-01T13:23:46Z</time>
      </trkpt>
      <trkpt lat="41.126000" lon="-3.644500">
        <ele>1829.0</ele>
        <time>2017-10-01T13:23:47Z</time>
      </trkpt>
      <trkpt lat="41.125983" lon="-3.644550">
        <ele>1829.0</ele>
        <time>2017-10-01T13:23:48Z</time>
      </trkpt>
      <trkpt lat="41.125950" lon="-3.644617">
        <ele>1830.0</ele>
        <time>2017-10-01T13:23:49Z</time>
      </trkpt>
      <trkpt lat="41.125933" lon="-3.644667">
        <ele>1831.0</ele>
        <time>2017-10-01T13:23:50Z</time>
      </trkpt>
      <trkpt lat="41.125917" lon="-3.644733">
        <ele>1831.0</ele>
        <time>2017-10-01T13:23:51Z</time>
      </trkpt>
      <trkpt lat="41.125917" lon="-3.644783">
        <ele>1831.0</ele>
        <time>2017-10-01T13:23:52Z</time>
      </trkpt>
      <trkpt lat="41.125917" lon="-3.644817">
        <ele>1831.0</ele>
        <time>2017-10-01T13:23:53Z</time>
      </trkpt>
      <trkpt lat="41.125917" lon="-3.644883">
        <ele>1830.0</ele>
        <time>2017-10-01T13:23:54Z</time>
      </trkpt>
      <trkpt lat="41.125900" lon="-3.644950">
        <ele>1830.0</ele>
        <time>2017-10-01T13:23:55Z</time>
      </trkpt>
      <trkpt lat="41.125900" lon="-3.645017">
        <ele>1830.0</ele>
        <time>2017-10-01T13:23:56Z</time>
      </trkpt>
      <trkpt lat="41.125883" lon="-3.645083">
        <ele>1830.0</ele>
        <time>2017-10-01T13:23:57Z</time>
      </trkpt>
      <trkpt lat="41.125867" lon="-3.645150">
        <ele>1830.0</ele>
        <time>2017-10-01T13:23:58Z</time>
      </trkpt>
      <trkpt lat="41.125867" lon="-3.645217">
        <ele>1830.0</ele>
        <time>2017-10-01T13:23:59Z</time>
      </trkpt>
      <trkpt lat="41.125850" lon="-3.645283">
        <ele>1830.0</ele>
        <time>2017-10-01T13:24:00Z</time>
      </trkpt>
      <trkpt lat="41.125833" lon="-3.645333">
        <ele>1830.0</ele>
        <time>2017-10-01T13:24:01Z</time>
      </trkpt>
      <trkpt lat="41.125817" lon="-3.645400">
        <ele>1829.0</ele>
        <time>2017-10-01T13:24:02Z</time>
      </trkpt>
      <trkpt lat="41.125800" lon="-3.645467">
        <ele>1829.0</ele>
        <time>2017-10-01T13:24:03Z</time>
      </trkpt>
      <trkpt lat="41.125783" lon="-3.645533">
        <ele>1828.0</ele>
        <time>2017-10-01T13:24:04Z</time>
      </trkpt>
      <trkpt lat="41.125767" lon="-3.645600">
        <ele>1828.0</ele>
        <time>2017-10-01T13:24:05Z</time>
      </trkpt>
      <trkpt lat="41.125750" lon="-3.645667">
        <ele>1827.0</ele>
        <time>2017-10-01T13:24:06Z</time>
      </trkpt>
      <trkpt lat="41.125733" lon="-3.645750">
        <ele>1827.0</ele>
        <time>2017-10-01T13:24:07Z</time>
      </trkpt>
      <trkpt lat="41.125717" lon="-3.645817">
        <ele>1827.0</ele>
        <time>2017-10-01T13:24:08Z</time>
      </trkpt>
      <trkpt lat="41.125717" lon="-3.645900">
        <ele>1827.0</ele>
        <time>2017-10-01T13:24:09Z</time>
      </trkpt>
      <trkpt lat="41.125700" lon="-3.645967">
        <ele>1829.0</ele>
        <time>2017-10-01T13:24:10Z</time>
      </trkpt>
      <trkpt lat="41.125683" lon="-3.646017">
        <ele>1831.0</ele>
        <time>2017-10-01T13:24:11Z</time>
      </trkpt>
      <trkpt lat="41.125667" lon="-3.646067">
        <ele>1832.0</ele>
        <time>2017-10-01T13:24:12Z</time>
      </trkpt>
      <trkpt lat="41.125650" lon="-3.646117">
        <ele>1833.0</ele>
        <time>2017-10-01T13:24:13Z</time>
      </trkpt>
      <trkpt lat="41.125650" lon="-3.646167">
        <ele>1832.0</ele>
        <time>2017-10-01T13:24:14Z</time>
      </trkpt>
      <trkpt lat="41.125650" lon="-3.646217">
        <ele>1832.0</ele>
        <time>2017-10-01T13:24:15Z</time>
      </trkpt>
      <trkpt lat="41.125667" lon="-3.646283">
        <ele>1832.0</ele>
        <time>2017-10-01T13:24:16Z</time>
      </trkpt>
      <trkpt lat="41.125667" lon="-3.646333">
        <ele>1832.0</ele>
        <time>2017-10-01T13:24:17Z</time>
      </trkpt>
      <trkpt lat="41.125667" lon="-3.646367">
        <ele>1834.0</ele>
        <time>2017-10-01T13:24:18Z</time>
      </trkpt>
      <trkpt lat="41.125667" lon="-3.646417">
        <ele>1834.0</ele>
        <time>2017-10-01T13:24:19Z</time>
      </trkpt>
      <trkpt lat="41.125683" lon="-3.646450">
        <ele>1835.0</ele>
        <time>2017-10-01T13:24:20Z</time>
      </trkpt>
      <trkpt lat="41.125683" lon="-3.646500">
        <ele>1835.0</ele>
        <time>2017-10-01T13:24:21Z</time>
      </trkpt>
      <trkpt lat="41.125700" lon="-3.646533">
        <ele>1835.0</ele>
        <time>2017-10-01T13:24:22Z</time>
      </trkpt>
      <trkpt lat="41.125717" lon="-3.646583">
        <ele>1835.0</ele>
        <time>2017-10-01T13:24:23Z</time>
      </trkpt>
      <trkpt lat="41.125733" lon="-3.646633">
        <ele>1836.0</ele>
        <time>2017-10-01T13:24:24Z</time>
      </trkpt>
      <trkpt lat="41.125733" lon="-3.646683">
        <ele>1835.0</ele>
        <time>2017-10-01T13:24:25Z</time>
      </trkpt>
      <trkpt lat="41.125733" lon="-3.646717">
        <ele>1835.0</ele>
        <time>2017-10-01T13:24:26Z</time>
      </trkpt>
      <trkpt lat="41.125750" lon="-3.646767">
        <ele>1833.0</ele>
        <time>2017-10-01T13:24:27Z</time>
      </trkpt>
      <trkpt lat="41.125767" lon="-3.646817">
        <ele>1832.0</ele>
        <time>2017-10-01T13:24:28Z</time>
      </trkpt>
      <trkpt lat="41.125767" lon="-3.646867">
        <ele>1831.0</ele>
        <time>2017-10-01T13:24:29Z</time>
      </trkpt>
      <trkpt lat="41.125767" lon="-3.646917">
        <ele>1830.0</ele>
        <time>2017-10-01T13:24:30Z</time>
      </trkpt>
      <trkpt lat="41.125767" lon="-3.646967">
        <ele>1829.0</ele>
        <time>2017-10-01T13:24:31Z</time>
      </trkpt>
      <trkpt lat="41.125750" lon="-3.647017">
        <ele>1828.0</ele>
        <time>2017-10-01T13:24:32Z</time>
      </trkpt>
      <trkpt lat="41.125750" lon="-3.647067">
        <ele>1827.0</ele>
        <time>2017-10-01T13:24:33Z</time>
      </trkpt>
      <trkpt lat="41.125733" lon="-3.647133">
        <ele>1825.0</ele>
        <time>2017-10-01T13:24:34Z</time>
      </trkpt>
      <trkpt lat="41.125717" lon="-3.647217">
        <ele>1824.0</ele>
        <time>2017-10-01T13:24:35Z</time>
      </trkpt>
      <trkpt lat="41.125683" lon="-3.647300">
        <ele>1825.0</ele>
        <time>2017-10-01T13:24:36Z</time>
      </trkpt>
      <trkpt lat="41.125667" lon="-3.647350">
        <ele>1826.0</ele>
        <time>2017-10-01T13:24:37Z</time>
      </trkpt>
      <trkpt lat="41.125633" lon="-3.647417">
        <ele>1827.0</ele>
        <time>2017-10-01T13:24:38Z</time>
      </trkpt>
      <trkpt lat="41.125600" lon="-3.647467">
        <ele>1827.0</ele>
        <time>2017-10-01T13:24:39Z</time>
      </trkpt>
      <trkpt lat="41.125600" lon="-3.647550">
        <ele>1827.0</ele>
        <time>2017-10-01T13:24:40Z</time>
      </trkpt>
      <trkpt lat="41.125600" lon="-3.647617">
        <ele>1828.0</ele>
        <time>2017-10-01T13:24:41Z</time>
      </trkpt>
      <trkpt lat="41.125600" lon="-3.647667">
        <ele>1830.0</ele>
        <time>2017-10-01T13:24:42Z</time>
      </trkpt>
      <trkpt lat="41.125617" lon="-3.647683">
        <ele>1832.0</ele>
        <time>2017-10-01T13:24:43Z</time>
      </trkpt>
      <trkpt lat="41.125650" lon="-3.647683">
        <ele>1833.0</ele>
        <time>2017-10-01T13:24:44Z</time>
      </trkpt>
      <trkpt lat="41.125683" lon="-3.647683">
        <ele>1833.0</ele>
        <time>2017-10-01T13:24:45Z</time>
      </trkpt>
      <trkpt lat="41.125717" lon="-3.647650">
        <ele>1833.0</ele>
        <time>2017-10-01T13:24:46Z</time>
      </trkpt>
      <trkpt lat="41.125767" lon="-3.647583">
        <ele>1832.0</ele>
        <time>2017-10-01T13:24:47Z</time>
      </trkpt>
      <trkpt lat="41.125817" lon="-3.647483">
        <ele>1833.0</ele>
        <time>2017-10-01T13:24:48Z</time>
      </trkpt>
      <trkpt lat="41.125833" lon="-3.647350">
        <ele>1833.0</ele>
        <time>2017-10-01T13:24:49Z</time>
      </trkpt>
      <trkpt lat="41.125833" lon="-3.647200">
        <ele>1834.0</ele>
        <time>2017-10-01T13:24:50Z</time>
      </trkpt>
      <trkpt lat="41.125783" lon="-3.647033">
        <ele>1834.0</ele>
        <time>2017-10-01T13:24:51Z</time>
      </trkpt>
      <trkpt lat="41.125717" lon="-3.646883">
        <ele>1835.0</ele>
        <time>2017-10-01T13:24:52Z</time>
      </trkpt>
      <trkpt lat="41.125617" lon="-3.646750">
        <ele>1836.0</ele>
        <time>2017-10-01T13:24:53Z</time>
      </trkpt>
      <trkpt lat="41.125500" lon="-3.646650">
        <ele>1837.0</ele>
        <time>2017-10-01T13:24:54Z</time>
      </trkpt>
      <trkpt lat="41.125367" lon="-3.646600">
        <ele>1838.0</ele>
        <time>2017-10-01T13:24:55Z</time>
      </trkpt>
      <trkpt lat="41.125250" lon="-3.646600">
        <ele>1839.0</ele>
        <time>2017-10-01T13:24:56Z</time>
      </trkpt>
      <trkpt lat="41.125133" lon="-3.646617">
        <ele>1839.0</ele>
        <time>2017-10-01T13:24:57Z</time>
      </trkpt>
      <trkpt lat="41.125033" lon="-3.646667">
        <ele>1840.0</ele>
        <time>2017-10-01T13:24:58Z</time>
      </trkpt>
      <trkpt lat="41.124933" lon="-3.646717">
        <ele>1842.0</ele>
        <time>2017-10-01T13:24:59Z</time>
      </trkpt>
      <trkpt lat="41.124850" lon="-3.646750">
        <ele>1844.0</ele>
        <time>2017-10-01T13:25:00Z</time>
      </trkpt>
      <trkpt lat="41.124800" lon="-3.646800">
        <ele>1845.0</ele>
        <time>2017-10-01T13:25:01Z</time>
      </trkpt>
      <trkpt lat="41.124733" lon="-3.646850">
        <ele>1846.0</ele>
        <time>2017-10-01T13:25:02Z</time>
      </trkpt>
      <trkpt lat="41.124700" lon="-3.646900">
        <ele>1845.0</ele>
        <time>2017-10-01T13:25:03Z</time>
      </trkpt>
      <trkpt lat="41.124667" lon="-3.646983">
        <ele>1845.0</ele>
        <time>2017-10-01T13:25:04Z</time>
      </trkpt>
      <trkpt lat="41.124633" lon="-3.647050">
        <ele>1845.0</ele>
        <time>2017-10-01T13:25:05Z</time>
      </trkpt>
      <trkpt lat="41.124617" lon="-3.647117">
        <ele>1845.0</ele>
        <time>2017-10-01T13:25:06Z</time>
      </trkpt>
      <trkpt lat="41.124583" lon="-3.647183">
        <ele>1846.0</ele>
        <time>2017-10-01T13:25:07Z</time>
      </trkpt>
      <trkpt lat="41.124550" lon="-3.647250">
        <ele>1847.0</ele>
        <time>2017-10-01T13:25:08Z</time>
      </trkpt>
      <trkpt lat="41.124517" lon="-3.647317">
        <ele>1847.0</ele>
        <time>2017-10-01T13:25:09Z</time>
      </trkpt>
      <trkpt lat="41.124467" lon="-3.647383">
        <ele>1847.0</ele>
        <time>2017-10-01T13:25:10Z</time>
      </trkpt>
      <trkpt lat="41.124433" lon="-3.647450">
        <ele>1846.0</ele>
        <time>2017-10-01T13:25:11Z</time>
      </trkpt>
      <trkpt lat="41.124400" lon="-3.647517">
        <ele>1847.0</ele>
        <time>2017-10-01T13:25:12Z</time>
      </trkpt>
      <trkpt lat="41.124367" lon="-3.647583">
        <ele>1847.0</ele>
        <time>2017-10-01T13:25:13Z</time>
      </trkpt>
      <trkpt lat="41.124333" lon="-3.647650">
        <ele>1847.0</ele>
        <time>2017-10-01T13:25:14Z</time>
      </trkpt>
      <trkpt lat="41.124283" lon="-3.647717">
        <ele>1847.0</ele>
        <time>2017-10-01T13:25:15Z</time>
      </trkpt>
      <trkpt lat="41.124250" lon="-3.647783">
        <ele>1847.0</ele>
        <time>2017-10-01T13:25:16Z</time>
      </trkpt>
      <trkpt lat="41.124217" lon="-3.647850">
        <ele>1847.0</ele>
        <time>2017-10-01T13:25:17Z</time>
      </trkpt>
      <trkpt lat="41.124200" lon="-3.647917">
        <ele>1847.0</ele>
        <time>2017-10-01T13:25:18Z</time>
      </trkpt>
      <trkpt lat="41.124167" lon="-3.647967">
        <ele>1846.0</ele>
        <time>2017-10-01T13:25:19Z</time>
      </trkpt>
      <trkpt lat="41.124133" lon="-3.648017">
        <ele>1846.0</ele>
        <time>2017-10-01T13:25:20Z</time>
      </trkpt>
      <trkpt lat="41.124100" lon="-3.648083">
        <ele>1846.0</ele>
        <time>2017-10-01T13:25:21Z</time>
      </trkpt>
      <trkpt lat="41.124067" lon="-3.648150">
        <ele>1845.0</ele>
        <time>2017-10-01T13:25:22Z</time>
      </trkpt>
      <trkpt lat="41.124033" lon="-3.648217">
        <ele>1844.0</ele>
        <time>2017-10-01T13:25:23Z</time>
      </trkpt>
      <trkpt lat="41.124017" lon="-3.648267">
        <ele>1844.0</ele>
        <time>2017-10-01T13:25:24Z</time>
      </trkpt>
      <trkpt lat="41.123983" lon="-3.648317">
        <ele>1844.0</ele>
        <time>2017-10-01T13:25:25Z</time>
      </trkpt>
      <trkpt lat="41.123967" lon="-3.648367">
        <ele>1844.0</ele>
        <time>2017-10-01T13:25:26Z</time>
      </trkpt>
      <trkpt lat="41.123933" lon="-3.648417">
        <ele>1843.0</ele>
        <time>2017-10-01T13:25:27Z</time>
      </trkpt>
      <trkpt lat="41.123917" lon="-3.648483">
        <ele>1843.0</ele>
        <time>2017-10-01T13:25:28Z</time>
      </trkpt>
      <trkpt lat="41.123883" lon="-3.648533">
        <ele>1842.0</ele>
        <time>2017-10-01T13:25:29Z</time>
      </trkpt>
      <trkpt lat="41.123867" lon="-3.648600">
        <ele>1842.0</ele>
        <time>2017-10-01T13:25:30Z</time>
      </trkpt>
      <trkpt lat="41.123833" lon="-3.648650">
        <ele>1843.0</ele>
        <time>2017-10-01T13:25:31Z</time>
      </trkpt>
      <trkpt lat="41.123817" lon="-3.648700">
        <ele>1844.0</ele>
        <time>2017-10-01T13:25:32Z</time>
      </trkpt>
      <trkpt lat="41.123817" lon="-3.648767">
        <ele>1844.0</ele>
        <time>2017-10-01T13:25:33Z</time>
      </trkpt>
      <trkpt lat="41.123800" lon="-3.648817">
        <ele>1845.0</ele>
        <time>2017-10-01T13:25:34Z</time>
      </trkpt>
      <trkpt lat="41.123783" lon="-3.648867">
        <ele>1846.0</ele>
        <time>2017-10-01T13:25:35Z</time>
      </trkpt>
      <trkpt lat="41.123767" lon="-3.648917">
        <ele>1847.0</ele>
        <time>2017-10-01T13:25:36Z</time>
      </trkpt>
      <trkpt lat="41.123733" lon="-3.648967">
        <ele>1848.0</ele>
        <time>2017-10-01T13:25:37Z</time>
      </trkpt>
      <trkpt lat="41.123717" lon="-3.649017">
        <ele>1848.0</ele>
        <time>2017-10-01T13:25:38Z</time>
      </trkpt>
      <trkpt lat="41.123700" lon="-3.649067">
        <ele>1849.0</ele>
        <time>2017-10-01T13:25:39Z</time>
      </trkpt>
      <trkpt lat="41.123683" lon="-3.649133">
        <ele>1849.0</ele>
        <time>2017-10-01T13:25:40Z</time>
      </trkpt>
      <trkpt lat="41.123667" lon="-3.649200">
        <ele>1851.0</ele>
        <time>2017-10-01T13:25:41Z</time>
      </trkpt>
      <trkpt lat="41.123650" lon="-3.649250">
        <ele>1852.0</ele>
        <time>2017-10-01T13:25:42Z</time>
      </trkpt>
      <trkpt lat="41.123633" lon="-3.649300">
        <ele>1854.0</ele>
        <time>2017-10-01T13:25:43Z</time>
      </trkpt>
      <trkpt lat="41.123633" lon="-3.649350">
        <ele>1855.0</ele>
        <time>2017-10-01T13:25:44Z</time>
      </trkpt>
      <trkpt lat="41.123617" lon="-3.649400">
        <ele>1856.0</ele>
        <time>2017-10-01T13:25:45Z</time>
      </trkpt>
      <trkpt lat="41.123617" lon="-3.649450">
        <ele>1857.0</ele>
        <time>2017-10-01T13:25:46Z</time>
      </trkpt>
      <trkpt lat="41.123583" lon="-3.649500">
        <ele>1857.0</ele>
        <time>2017-10-01T13:25:47Z</time>
      </trkpt>
      <trkpt lat="41.123567" lon="-3.649567">
        <ele>1856.0</ele>
        <time>2017-10-01T13:25:48Z</time>
      </trkpt>
      <trkpt lat="41.123533" lon="-3.649617">
        <ele>1856.0</ele>
        <time>2017-10-01T13:25:49Z</time>
      </trkpt>
      <trkpt lat="41.123517" lon="-3.649683">
        <ele>1855.0</ele>
        <time>2017-10-01T13:25:50Z</time>
      </trkpt>
      <trkpt lat="41.123483" lon="-3.649733">
        <ele>1855.0</ele>
        <time>2017-10-01T13:25:51Z</time>
      </trkpt>
      <trkpt lat="41.123450" lon="-3.649800">
        <ele>1855.0</ele>
        <time>2017-10-01T13:25:52Z</time>
      </trkpt>
      <trkpt lat="41.123417" lon="-3.649867">
        <ele>1854.0</ele>
        <time>2017-10-01T13:25:53Z</time>
      </trkpt>
      <trkpt lat="41.123400" lon="-3.649917">
        <ele>1854.0</ele>
        <time>2017-10-01T13:25:54Z</time>
      </trkpt>
      <trkpt lat="41.123367" lon="-3.649983">
        <ele>1854.0</ele>
        <time>2017-10-01T13:25:55Z</time>
      </trkpt>
      <trkpt lat="41.123333" lon="-3.650050">
        <ele>1853.0</ele>
        <time>2017-10-01T13:25:56Z</time>
      </trkpt>
      <trkpt lat="41.123283" lon="-3.650117">
        <ele>1852.0</ele>
        <time>2017-10-01T13:25:57Z</time>
      </trkpt>
      <trkpt lat="41.123250" lon="-3.650200">
        <ele>1852.0</ele>
        <time>2017-10-01T13:25:58Z</time>
      </trkpt>
      <trkpt lat="41.123217" lon="-3.650283">
        <ele>1853.0</ele>
        <time>2017-10-01T13:25:59Z</time>
      </trkpt>
      <trkpt lat="41.123200" lon="-3.650367">
        <ele>1854.0</ele>
        <time>2017-10-01T13:26:00Z</time>
      </trkpt>
      <trkpt lat="41.123167" lon="-3.650433">
        <ele>1856.0</ele>
        <time>2017-10-01T13:26:01Z</time>
      </trkpt>
      <trkpt lat="41.123117" lon="-3.650517">
        <ele>1858.0</ele>
        <time>2017-10-01T13:26:02Z</time>
      </trkpt>
      <trkpt lat="41.123083" lon="-3.650567">
        <ele>1860.0</ele>
        <time>2017-10-01T13:26:03Z</time>
      </trkpt>
      <trkpt lat="41.123050" lon="-3.650633">
        <ele>1861.0</ele>
        <time>2017-10-01T13:26:04Z</time>
      </trkpt>
      <trkpt lat="41.123017" lon="-3.650717">
        <ele>1862.0</ele>
        <time>2017-10-01T13:26:05Z</time>
      </trkpt>
      <trkpt lat="41.123000" lon="-3.650783">
        <ele>1862.0</ele>
        <time>2017-10-01T13:26:06Z</time>
      </trkpt>
      <trkpt lat="41.122967" lon="-3.650850">
        <ele>1863.0</ele>
        <time>2017-10-01T13:26:07Z</time>
      </trkpt>
      <trkpt lat="41.122933" lon="-3.650917">
        <ele>1863.0</ele>
        <time>2017-10-01T13:26:08Z</time>
      </trkpt>
      <trkpt lat="41.122900" lon="-3.651000">
        <ele>1863.0</ele>
        <time>2017-10-01T13:26:09Z</time>
      </trkpt>
      <trkpt lat="41.122850" lon="-3.651067">
        <ele>1863.0</ele>
        <time>2017-10-01T13:26:10Z</time>
      </trkpt>
      <trkpt lat="41.122817" lon="-3.651133">
        <ele>1863.0</ele>
        <time>2017-10-01T13:26:11Z</time>
      </trkpt>
      <trkpt lat="41.122767" lon="-3.651217">
        <ele>1863.0</ele>
        <time>2017-10-01T13:26:12Z</time>
      </trkpt>
      <trkpt lat="41.122717" lon="-3.651283">
        <ele>1864.0</ele>
        <time>2017-10-01T13:26:13Z</time>
      </trkpt>
      <trkpt lat="41.122667" lon="-3.651333">
        <ele>1864.0</ele>
        <time>2017-10-01T13:26:14Z</time>
      </trkpt>
      <trkpt lat="41.122617" lon="-3.651400">
        <ele>1864.0</ele>
        <time>2017-10-01T13:26:15Z</time>
      </trkpt>
      <trkpt lat="41.122550" lon="-3.651467">
        <ele>1864.0</ele>
        <time>2017-10-01T13:26:16Z</time>
      </trkpt>
      <trkpt lat="41.122500" lon="-3.651533">
        <ele>1864.0</ele>
        <time>2017-10-01T13:26:17Z</time>
      </trkpt>
      <trkpt lat="41.122433" lon="-3.651617">
        <ele>1864.0</ele>
        <time>2017-10-01T13:26:18Z</time>
      </trkpt>
      <trkpt lat="41.122383" lon="-3.651683">
        <ele>1865.0</ele>
        <time>2017-10-01T13:26:19Z</time>
      </trkpt>
      <trkpt lat="41.122333" lon="-3.651767">
        <ele>1865.0</ele>
        <time>2017-10-01T13:26:20Z</time>
      </trkpt>
      <trkpt lat="41.122283" lon="-3.651833">
        <ele>1866.0</ele>
        <time>2017-10-01T13:26:21Z</time>
      </trkpt>
      <trkpt lat="41.122233" lon="-3.651900">
        <ele>1867.0</ele>
        <time>2017-10-01T13:26:22Z</time>
      </trkpt>
      <trkpt lat="41.122183" lon="-3.651967">
        <ele>1868.0</ele>
        <time>2017-10-01T13:26:23Z</time>
      </trkpt>
      <trkpt lat="41.122150" lon="-3.652033">
        <ele>1868.0</ele>
        <time>2017-10-01T13:26:24Z</time>
      </trkpt>
      <trkpt lat="41.122100" lon="-3.652100">
        <ele>1868.0</ele>
        <time>2017-10-01T13:26:25Z</time>
      </trkpt>
      <trkpt lat="41.122067" lon="-3.652183">
        <ele>1868.0</ele>
        <time>2017-10-01T13:26:26Z</time>
      </trkpt>
      <trkpt lat="41.122033" lon="-3.652250">
        <ele>1868.0</ele>
        <time>2017-10-01T13:26:27Z</time>
      </trkpt>
      <trkpt lat="41.121983" lon="-3.652317">
        <ele>1868.0</ele>
        <time>2017-10-01T13:26:28Z</time>
      </trkpt>
      <trkpt lat="41.121950" lon="-3.652383">
        <ele>1868.0</ele>
        <time>2017-10-01T13:26:29Z</time>
      </trkpt>
      <trkpt lat="41.121900" lon="-3.652450">
        <ele>1869.0</ele>
        <time>2017-10-01T13:26:30Z</time>
      </trkpt>
      <trkpt lat="41.121883" lon="-3.652500">
        <ele>1869.0</ele>
        <time>2017-10-01T13:26:31Z</time>
      </trkpt>
      <trkpt lat="41.121850" lon="-3.652550">
        <ele>1869.0</ele>
        <time>2017-10-01T13:26:32Z</time>
      </trkpt>
      <trkpt lat="41.121800" lon="-3.652617">
        <ele>1869.0</ele>
        <time>2017-10-01T13:26:33Z</time>
      </trkpt>
      <trkpt lat="41.121767" lon="-3.652667">
        <ele>1868.0</ele>
        <time>2017-10-01T13:26:34Z</time>
      </trkpt>
      <trkpt lat="41.121717" lon="-3.652733">
        <ele>1868.0</ele>
        <time>2017-10-01T13:26:35Z</time>
      </trkpt>
      <trkpt lat="41.121683" lon="-3.652800">
        <ele>1868.0</ele>
        <time>2017-10-01T13:26:36Z</time>
      </trkpt>
      <trkpt lat="41.121633" lon="-3.652850">
        <ele>1869.0</ele>
        <time>2017-10-01T13:26:37Z</time>
      </trkpt>
      <trkpt lat="41.121583" lon="-3.652900">
        <ele>1869.0</ele>
        <time>2017-10-01T13:26:38Z</time>
      </trkpt>
      <trkpt lat="41.121533" lon="-3.652950">
        <ele>1868.0</ele>
        <time>2017-10-01T13:26:39Z</time>
      </trkpt>
      <trkpt lat="41.121500" lon="-3.653000">
        <ele>1867.0</ele>
        <time>2017-10-01T13:26:40Z</time>
      </trkpt>
      <trkpt lat="41.121450" lon="-3.653067">
        <ele>1866.0</ele>
        <time>2017-10-01T13:26:41Z</time>
      </trkpt>
      <trkpt lat="41.121417" lon="-3.653133">
        <ele>1866.0</ele>
        <time>2017-10-01T13:26:42Z</time>
      </trkpt>
      <trkpt lat="41.121367" lon="-3.653200">
        <ele>1866.0</ele>
        <time>2017-10-01T13:26:43Z</time>
      </trkpt>
      <trkpt lat="41.121300" lon="-3.653250">
        <ele>1866.0</ele>
        <time>2017-10-01T13:26:44Z</time>
      </trkpt>
      <trkpt lat="41.121250" lon="-3.653300">
        <ele>1866.0</ele>
        <time>2017-10-01T13:26:45Z</time>
      </trkpt>
      <trkpt lat="41.121183" lon="-3.653350">
        <ele>1865.0</ele>
        <time>2017-10-01T13:26:46Z</time>
      </trkpt>
      <trkpt lat="41.121100" lon="-3.653400">
        <ele>1864.0</ele>
        <time>2017-10-01T13:26:47Z</time>
      </trkpt>
      <trkpt lat="41.121033" lon="-3.653467">
        <ele>1863.0</ele>
        <time>2017-10-01T13:26:48Z</time>
      </trkpt>
      <trkpt lat="41.120967" lon="-3.653517">
        <ele>1863.0</ele>
        <time>2017-10-01T13:26:49Z</time>
      </trkpt>
      <trkpt lat="41.120883" lon="-3.653583">
        <ele>1862.0</ele>
        <time>2017-10-01T13:26:50Z</time>
      </trkpt>
      <trkpt lat="41.120817" lon="-3.653633">
        <ele>1861.0</ele>
        <time>2017-10-01T13:26:51Z</time>
      </trkpt>
      <trkpt lat="41.120750" lon="-3.653700">
        <ele>1860.0</ele>
        <time>2017-10-01T13:26:52Z</time>
      </trkpt>
      <trkpt lat="41.120683" lon="-3.653767">
        <ele>1859.0</ele>
        <time>2017-10-01T13:26:53Z</time>
      </trkpt>
      <trkpt lat="41.120617" lon="-3.653833">
        <ele>1858.0</ele>
        <time>2017-10-01T13:26:54Z</time>
      </trkpt>
      <trkpt lat="41.120550" lon="-3.653900">
        <ele>1858.0</ele>
        <time>2017-10-01T13:26:55Z</time>
      </trkpt>
      <trkpt lat="41.120483" lon="-3.653967">
        <ele>1858.0</ele>
        <time>2017-10-01T13:26:56Z</time>
      </trkpt>
      <trkpt lat="41.120433" lon="-3.654033">
        <ele>1858.0</ele>
        <time>2017-10-01T13:26:57Z</time>
      </trkpt>
      <trkpt lat="41.120383" lon="-3.654100">
        <ele>1858.0</ele>
        <time>2017-10-01T13:26:58Z</time>
      </trkpt>
      <trkpt lat="41.120333" lon="-3.654183">
        <ele>1858.0</ele>
        <time>2017-10-01T13:26:59Z</time>
      </trkpt>
      <trkpt lat="41.120300" lon="-3.654250">
        <ele>1858.0</ele>
        <time>2017-10-01T13:27:00Z</time>
      </trkpt>
      <trkpt lat="41.120283" lon="-3.654317">
        <ele>1859.0</ele>
        <time>2017-10-01T13:27:01Z</time>
      </trkpt>
      <trkpt lat="41.120283" lon="-3.654367">
        <ele>1859.0</ele>
        <time>2017-10-01T13:27:02Z</time>
      </trkpt>
      <trkpt lat="41.120267" lon="-3.654417">
        <ele>1860.0</ele>
        <time>2017-10-01T13:27:03Z</time>
      </trkpt>
      <trkpt lat="41.120250" lon="-3.654467">
        <ele>1859.0</ele>
        <time>2017-10-01T13:27:04Z</time>
      </trkpt>
      <trkpt lat="41.120250" lon="-3.654500">
        <ele>1857.0</ele>
        <time>2017-10-01T13:27:05Z</time>
      </trkpt>
      <trkpt lat="41.120250" lon="-3.654567">
        <ele>1855.0</ele>
        <time>2017-10-01T13:27:06Z</time>
      </trkpt>
      <trkpt lat="41.120233" lon="-3.654633">
        <ele>1854.0</ele>
        <time>2017-10-01T13:27:07Z</time>
      </trkpt>
      <trkpt lat="41.120200" lon="-3.654717">
        <ele>1853.0</ele>
        <time>2017-10-01T13:27:08Z</time>
      </trkpt>
      <trkpt lat="41.120150" lon="-3.654800">
        <ele>1853.0</ele>
        <time>2017-10-01T13:27:09Z</time>
      </trkpt>
      <trkpt lat="41.120083" lon="-3.654867">
        <ele>1852.0</ele>
        <time>2017-10-01T13:27:10Z</time>
      </trkpt>
      <trkpt lat="41.120017" lon="-3.654933">
        <ele>1852.0</ele>
        <time>2017-10-01T13:27:11Z</time>
      </trkpt>
      <trkpt lat="41.119950" lon="-3.655000">
        <ele>1851.0</ele>
        <time>2017-10-01T13:27:12Z</time>
      </trkpt>
      <trkpt lat="41.119883" lon="-3.655067">
        <ele>1850.0</ele>
        <time>2017-10-01T13:27:13Z</time>
      </trkpt>
      <trkpt lat="41.119817" lon="-3.655150">
        <ele>1849.0</ele>
        <time>2017-10-01T13:27:14Z</time>
      </trkpt>
      <trkpt lat="41.119750" lon="-3.655233">
        <ele>1847.0</ele>
        <time>2017-10-01T13:27:15Z</time>
      </trkpt>
      <trkpt lat="41.119683" lon="-3.655300">
        <ele>1846.0</ele>
        <time>2017-10-01T13:27:16Z</time>
      </trkpt>
      <trkpt lat="41.119600" lon="-3.655383">
        <ele>1845.0</ele>
        <time>2017-10-01T13:27:17Z</time>
      </trkpt>
      <trkpt lat="41.119533" lon="-3.655450">
        <ele>1844.0</ele>
        <time>2017-10-01T13:27:18Z</time>
      </trkpt>
      <trkpt lat="41.119467" lon="-3.655533">
        <ele>1843.0</ele>
        <time>2017-10-01T13:27:19Z</time>
      </trkpt>
      <trkpt lat="41.119400" lon="-3.655600">
        <ele>1841.0</ele>
        <time>2017-10-01T13:27:20Z</time>
      </trkpt>
      <trkpt lat="41.119333" lon="-3.655683">
        <ele>1839.0</ele>
        <time>2017-10-01T13:27:21Z</time>
      </trkpt>
      <trkpt lat="41.119250" lon="-3.655767">
        <ele>1838.0</ele>
        <time>2017-10-01T13:27:22Z</time>
      </trkpt>
      <trkpt lat="41.119167" lon="-3.655833">
        <ele>1837.0</ele>
        <time>2017-10-01T13:27:23Z</time>
      </trkpt>
      <trkpt lat="41.119100" lon="-3.655900">
        <ele>1837.0</ele>
        <time>2017-10-01T13:27:24Z</time>
      </trkpt>
      <trkpt lat="41.119017" lon="-3.655967">
        <ele>1836.0</ele>
        <time>2017-10-01T13:27:25Z</time>
      </trkpt>
      <trkpt lat="41.118950" lon="-3.656017">
        <ele>1835.0</ele>
        <time>2017-10-01T13:27:26Z</time>
      </trkpt>
      <trkpt lat="41.118867" lon="-3.656083">
        <ele>1833.0</ele>
        <time>2017-10-01T13:27:27Z</time>
      </trkpt>
      <trkpt lat="41.118800" lon="-3.656150">
        <ele>1831.0</ele>
        <time>2017-10-01T13:27:28Z</time>
      </trkpt>
      <trkpt lat="41.118717" lon="-3.656200">
        <ele>1829.0</ele>
        <time>2017-10-01T13:27:29Z</time>
      </trkpt>
      <trkpt lat="41.118617" lon="-3.656283">
        <ele>1827.0</ele>
        <time>2017-10-01T13:27:30Z</time>
      </trkpt>
      <trkpt lat="41.118550" lon="-3.656367">
        <ele>1826.0</ele>
        <time>2017-10-01T13:27:31Z</time>
      </trkpt>
      <trkpt lat="41.118467" lon="-3.656433">
        <ele>1825.0</ele>
        <time>2017-10-01T13:27:32Z</time>
      </trkpt>
      <trkpt lat="41.118383" lon="-3.656500">
        <ele>1825.0</ele>
        <time>2017-10-01T13:27:33Z</time>
      </trkpt>
      <trkpt lat="41.118300" lon="-3.656567">
        <ele>1824.0</ele>
        <time>2017-10-01T13:27:34Z</time>
      </trkpt>
      <trkpt lat="41.118217" lon="-3.656633">
        <ele>1823.0</ele>
        <time>2017-10-01T13:27:35Z</time>
      </trkpt>
      <trkpt lat="41.118133" lon="-3.656700">
        <ele>1821.0</ele>
        <time>2017-10-01T13:27:36Z</time>
      </trkpt>
      <trkpt lat="41.118050" lon="-3.656783">
        <ele>1820.0</ele>
        <time>2017-10-01T13:27:37Z</time>
      </trkpt>
      <trkpt lat="41.117967" lon="-3.656850">
        <ele>1819.0</ele>
        <time>2017-10-01T13:27:38Z</time>
      </trkpt>
      <trkpt lat="41.117883" lon="-3.656900">
        <ele>1818.0</ele>
        <time>2017-10-01T13:27:39Z</time>
      </trkpt>
      <trkpt lat="41.117800" lon="-3.656950">
        <ele>1817.0</ele>
        <time>2017-10-01T13:27:40Z</time>
      </trkpt>
      <trkpt lat="41.117700" lon="-3.657000">
        <ele>1815.0</ele>
        <time>2017-10-01T13:27:41Z</time>
      </trkpt>
      <trkpt lat="41.117617" lon="-3.657067">
        <ele>1814.0</ele>
        <time>2017-10-01T13:27:42Z</time>
      </trkpt>
      <trkpt lat="41.117533" lon="-3.657133">
        <ele>1812.0</ele>
        <time>2017-10-01T13:27:43Z</time>
      </trkpt>
      <trkpt lat="41.117450" lon="-3.657200">
        <ele>1811.0</ele>
        <time>2017-10-01T13:27:44Z</time>
      </trkpt>
      <trkpt lat="41.117383" lon="-3.657283">
        <ele>1809.0</ele>
        <time>2017-10-01T13:27:45Z</time>
      </trkpt>
      <trkpt lat="41.117317" lon="-3.657350">
        <ele>1808.0</ele>
        <time>2017-10-01T13:27:46Z</time>
      </trkpt>
      <trkpt lat="41.117250" lon="-3.657417">
        <ele>1807.0</ele>
        <time>2017-10-01T13:27:47Z</time>
      </trkpt>
      <trkpt lat="41.117167" lon="-3.657467">
        <ele>1806.0</ele>
        <time>2017-10-01T13:27:48Z</time>
      </trkpt>
      <trkpt lat="41.117100" lon="-3.657533">
        <ele>1803.0</ele>
        <time>2017-10-01T13:27:49Z</time>
      </trkpt>
      <trkpt lat="41.117017" lon="-3.657617">
        <ele>1801.0</ele>
        <time>2017-10-01T13:27:50Z</time>
      </trkpt>
      <trkpt lat="41.116950" lon="-3.657683">
        <ele>1799.0</ele>
        <time>2017-10-01T13:27:51Z</time>
      </trkpt>
      <trkpt lat="41.116850" lon="-3.657750">
        <ele>1797.0</ele>
        <time>2017-10-01T13:27:52Z</time>
      </trkpt>
      <trkpt lat="41.116767" lon="-3.657817">
        <ele>1796.0</ele>
        <time>2017-10-01T13:27:53Z</time>
      </trkpt>
      <trkpt lat="41.116667" lon="-3.657867">
        <ele>1794.0</ele>
        <time>2017-10-01T13:27:54Z</time>
      </trkpt>
      <trkpt lat="41.116550" lon="-3.657917">
        <ele>1792.0</ele>
        <time>2017-10-01T13:27:55Z</time>
      </trkpt>
      <trkpt lat="41.116450" lon="-3.657967">
        <ele>1790.0</ele>
        <time>2017-10-01T13:27:56Z</time>
      </trkpt>
      <trkpt lat="41.116333" lon="-3.658017">
        <ele>1789.0</ele>
        <time>2017-10-01T13:27:57Z</time>
      </trkpt>
      <trkpt lat="41.116233" lon="-3.658083">
        <ele>1787.0</ele>
        <time>2017-10-01T13:27:58Z</time>
      </trkpt>
      <trkpt lat="41.116133" lon="-3.658133">
        <ele>1786.0</ele>
        <time>2017-10-01T13:27:59Z</time>
      </trkpt>
      <trkpt lat="41.116033" lon="-3.658183">
        <ele>1785.0</ele>
        <time>2017-10-01T13:28:00Z</time>
      </trkpt>
      <trkpt lat="41.115933" lon="-3.658233">
        <ele>1784.0</ele>
        <time>2017-10-01T13:28:01Z</time>
      </trkpt>
      <trkpt lat="41.115850" lon="-3.658267">
        <ele>1782.0</ele>
        <time>2017-10-01T13:28:02Z</time>
      </trkpt>
      <trkpt lat="41.115750" lon="-3.658317">
        <ele>1780.0</ele>
        <time>2017-10-01T13:28:03Z</time>
      </trkpt>
      <trkpt lat="41.115650" lon="-3.658367">
        <ele>1778.0</ele>
        <time>2017-10-01T13:28:04Z</time>
      </trkpt>
      <trkpt lat="41.115550" lon="-3.658433">
        <ele>1777.0</ele>
        <time>2017-10-01T13:28:05Z</time>
      </trkpt>
      <trkpt lat="41.115467" lon="-3.658500">
        <ele>1776.0</ele>
        <time>2017-10-01T13:28:06Z</time>
      </trkpt>
      <trkpt lat="41.115367" lon="-3.658567">
        <ele>1775.0</ele>
        <time>2017-10-01T13:28:07Z</time>
      </trkpt>
      <trkpt lat="41.115283" lon="-3.658617">
        <ele>1775.0</ele>
        <time>2017-10-01T13:28:08Z</time>
      </trkpt>
      <trkpt lat="41.115200" lon="-3.658683">
        <ele>1775.0</ele>
        <time>2017-10-01T13:28:09Z</time>
      </trkpt>
      <trkpt lat="41.115117" lon="-3.658733">
        <ele>1774.0</ele>
        <time>2017-10-01T13:28:10Z</time>
      </trkpt>
      <trkpt lat="41.115050" lon="-3.658783">
        <ele>1774.0</ele>
        <time>2017-10-01T13:28:11Z</time>
      </trkpt>
      <trkpt lat="41.114967" lon="-3.658850">
        <ele>1772.0</ele>
        <time>2017-10-01T13:28:12Z</time>
      </trkpt>
      <trkpt lat="41.114900" lon="-3.658900">
        <ele>1771.0</ele>
        <time>2017-10-01T13:28:13Z</time>
      </trkpt>
      <trkpt lat="41.114817" lon="-3.658967">
        <ele>1769.0</ele>
        <time>2017-10-01T13:28:14Z</time>
      </trkpt>
      <trkpt lat="41.114733" lon="-3.659017">
        <ele>1767.0</ele>
        <time>2017-10-01T13:28:15Z</time>
      </trkpt>
      <trkpt lat="41.114667" lon="-3.659083">
        <ele>1765.0</ele>
        <time>2017-10-01T13:28:16Z</time>
      </trkpt>
      <trkpt lat="41.114583" lon="-3.659133">
        <ele>1763.0</ele>
        <time>2017-10-01T13:28:17Z</time>
      </trkpt>
      <trkpt lat="41.114483" lon="-3.659183">
        <ele>1761.0</ele>
        <time>2017-10-01T13:28:18Z</time>
      </trkpt>
      <trkpt lat="41.114383" lon="-3.659217">
        <ele>1758.0</ele>
        <time>2017-10-01T13:28:19Z</time>
      </trkpt>
      <trkpt lat="41.114267" lon="-3.659250">
        <ele>1755.0</ele>
        <time>2017-10-01T13:28:20Z</time>
      </trkpt>
      <trkpt lat="41.114133" lon="-3.659267">
        <ele>1752.0</ele>
        <time>2017-10-01T13:28:21Z</time>
      </trkpt>
      <trkpt lat="41.114017" lon="-3.659267">
        <ele>1750.0</ele>
        <time>2017-10-01T13:28:22Z</time>
      </trkpt>
      <trkpt lat="41.113883" lon="-3.659283">
        <ele>1747.0</ele>
        <time>2017-10-01T13:28:23Z</time>
      </trkpt>
      <trkpt lat="41.113733" lon="-3.659283">
        <ele>1745.0</ele>
        <time>2017-10-01T13:28:24Z</time>
      </trkpt>
      <trkpt lat="41.113600" lon="-3.659283">
        <ele>1743.0</ele>
        <time>2017-10-01T13:28:25Z</time>
      </trkpt>
      <trkpt lat="41.113450" lon="-3.659283">
        <ele>1741.0</ele>
        <time>2017-10-01T13:28:26Z</time>
      </trkpt>
      <trkpt lat="41.113317" lon="-3.659283">
        <ele>1740.0</ele>
        <time>2017-10-01T13:28:27Z</time>
      </trkpt>
      <trkpt lat="41.113183" lon="-3.659300">
        <ele>1740.0</ele>
        <time>2017-10-01T13:28:28Z</time>
      </trkpt>
      <trkpt lat="41.113067" lon="-3.659300">
        <ele>1739.0</ele>
        <time>2017-10-01T13:28:29Z</time>
      </trkpt>
      <trkpt lat="41.112933" lon="-3.659300">
        <ele>1737.0</ele>
        <time>2017-10-01T13:28:30Z</time>
      </trkpt>
      <trkpt lat="41.112800" lon="-3.659300">
        <ele>1735.0</ele>
        <time>2017-10-01T13:28:31Z</time>
      </trkpt>
      <trkpt lat="41.112667" lon="-3.659283">
        <ele>1734.0</ele>
        <time>2017-10-01T13:28:32Z</time>
      </trkpt>
      <trkpt lat="41.112533" lon="-3.659267">
        <ele>1732.0</ele>
        <time>2017-10-01T13:28:33Z</time>
      </trkpt>
      <trkpt lat="41.112400" lon="-3.659250">
        <ele>1731.0</ele>
        <time>2017-10-01T13:28:34Z</time>
      </trkpt>
      <trkpt lat="41.112250" lon="-3.659233">
        <ele>1729.0</ele>
        <time>2017-10-01T13:28:35Z</time>
      </trkpt>
      <trkpt lat="41.112100" lon="-3.659200">
        <ele>1728.0</ele>
        <time>2017-10-01T13:28:36Z</time>
      </trkpt>
      <trkpt lat="41.111950" lon="-3.659150">
        <ele>1727.0</ele>
        <time>2017-10-01T13:28:37Z</time>
      </trkpt>
      <trkpt lat="41.111800" lon="-3.659100">
        <ele>1727.0</ele>
        <time>2017-10-01T13:28:38Z</time>
      </trkpt>
      <trkpt lat="41.111667" lon="-3.659067">
        <ele>1728.0</ele>
        <time>2017-10-01T13:28:39Z</time>
      </trkpt>
      <trkpt lat="41.111517" lon="-3.659033">
        <ele>1728.0</ele>
        <time>2017-10-01T13:28:40Z</time>
      </trkpt>
      <trkpt lat="41.111383" lon="-3.659033">
        <ele>1728.0</ele>
        <time>2017-10-01T13:28:41Z</time>
      </trkpt>
      <trkpt lat="41.111233" lon="-3.659050">
        <ele>1729.0</ele>
        <time>2017-10-01T13:28:42Z</time>
      </trkpt>
      <trkpt lat="41.111100" lon="-3.659083">
        <ele>1729.0</ele>
        <time>2017-10-01T13:28:43Z</time>
      </trkpt>
      <trkpt lat="41.110967" lon="-3.659133">
        <ele>1730.0</ele>
        <time>2017-10-01T13:28:44Z</time>
      </trkpt>
      <trkpt lat="41.110850" lon="-3.659183">
        <ele>1732.0</ele>
        <time>2017-10-01T13:28:45Z</time>
      </trkpt>
      <trkpt lat="41.110733" lon="-3.659233">
        <ele>1733.0</ele>
        <time>2017-10-01T13:28:46Z</time>
      </trkpt>
      <trkpt lat="41.110633" lon="-3.659317">
        <ele>1733.0</ele>
        <time>2017-10-01T13:28:47Z</time>
      </trkpt>
      <trkpt lat="41.110567" lon="-3.659417">
        <ele>1731.0</ele>
        <time>2017-10-01T13:28:48Z</time>
      </trkpt>
      <trkpt lat="41.110517" lon="-3.659500">
        <ele>1731.0</ele>
        <time>2017-10-01T13:28:49Z</time>
      </trkpt>
      <trkpt lat="41.110483" lon="-3.659600">
        <ele>1732.0</ele>
        <time>2017-10-01T13:28:50Z</time>
      </trkpt>
      <trkpt lat="41.110467" lon="-3.659667">
        <ele>1734.0</ele>
        <time>2017-10-01T13:28:51Z</time>
      </trkpt>
      <trkpt lat="41.110450" lon="-3.659717">
        <ele>1734.0</ele>
        <time>2017-10-01T13:28:52Z</time>
      </trkpt>
      <trkpt lat="41.110467" lon="-3.659767">
        <ele>1733.0</ele>
        <time>2017-10-01T13:28:53Z</time>
      </trkpt>
      <trkpt lat="41.110483" lon="-3.659800">
        <ele>1733.0</ele>
        <time>2017-10-01T13:28:54Z</time>
      </trkpt>
      <trkpt lat="41.110533" lon="-3.659800">
        <ele>1733.0</ele>
        <time>2017-10-01T13:28:55Z</time>
      </trkpt>
      <trkpt lat="41.110567" lon="-3.659767">
        <ele>1734.0</ele>
        <time>2017-10-01T13:28:56Z</time>
      </trkpt>
      <trkpt lat="41.110600" lon="-3.659683">
        <ele>1735.0</ele>
        <time>2017-10-01T13:28:57Z</time>
      </trkpt>
      <trkpt lat="41.110617" lon="-3.659583">
        <ele>1737.0</ele>
        <time>2017-10-01T13:28:58Z</time>
      </trkpt>
      <trkpt lat="41.110617" lon="-3.659467">
        <ele>1740.0</ele>
        <time>2017-10-01T13:28:59Z</time>
      </trkpt>
      <trkpt lat="41.110600" lon="-3.659350">
        <ele>1742.0</ele>
        <time>2017-10-01T13:29:00Z</time>
      </trkpt>
      <trkpt lat="41.110550" lon="-3.659217">
        <ele>1744.0</ele>
        <time>2017-10-01T13:29:01Z</time>
      </trkpt>
      <trkpt lat="41.110483" lon="-3.659083">
        <ele>1745.0</ele>
        <time>2017-10-01T13:29:02Z</time>
      </trkpt>
      <trkpt lat="41.110383" lon="-3.658950">
        <ele>1746.0</ele>
        <time>2017-10-01T13:29:03Z</time>
      </trkpt>
      <trkpt lat="41.110267" lon="-3.658833">
        <ele>1748.0</ele>
        <time>2017-10-01T13:29:04Z</time>
      </trkpt>
      <trkpt lat="41.110133" lon="-3.658750">
        <ele>1749.0</ele>
        <time>2017-10-01T13:29:05Z</time>
      </trkpt>
      <trkpt lat="41.110000" lon="-3.658683">
        <ele>1750.0</ele>
        <time>2017-10-01T13:29:06Z</time>
      </trkpt>
      <trkpt lat="41.109867" lon="-3.658650">
        <ele>1750.0</ele>
        <time>2017-10-01T13:29:07Z</time>
      </trkpt>
      <trkpt lat="41.109717" lon="-3.658650">
        <ele>1749.0</ele>
        <time>2017-10-01T13:29:08Z</time>
      </trkpt>
      <trkpt lat="41.109567" lon="-3.658667">
        <ele>1748.0</ele>
        <time>2017-10-01T13:29:09Z</time>
      </trkpt>
      <trkpt lat="41.109417" lon="-3.658717">
        <ele>1747.0</ele>
        <time>2017-10-01T13:29:10Z</time>
      </trkpt>
      <trkpt lat="41.109283" lon="-3.658750">
        <ele>1748.0</ele>
        <time>2017-10-01T13:29:11Z</time>
      </trkpt>
      <trkpt lat="41.109167" lon="-3.658800">
        <ele>1750.0</ele>
        <time>2017-10-01T13:29:12Z</time>
      </trkpt>
      <trkpt lat="41.109050" lon="-3.658850">
        <ele>1750.0</ele>
        <time>2017-10-01T13:29:13Z</time>
      </trkpt>
      <trkpt lat="41.108950" lon="-3.658933">
        <ele>1749.0</ele>
        <time>2017-10-01T13:29:14Z</time>
      </trkpt>
      <trkpt lat="41.108867" lon="-3.659017">
        <ele>1749.0</ele>
        <time>2017-10-01T13:29:15Z</time>
      </trkpt>
      <trkpt lat="41.108800" lon="-3.659117">
        <ele>1749.0</ele>
        <time>2017-10-01T13:29:16Z</time>
      </trkpt>
      <trkpt lat="41.108733" lon="-3.659217">
        <ele>1750.0</ele>
        <time>2017-10-01T13:29:17Z</time>
      </trkpt>
      <trkpt lat="41.108667" lon="-3.659317">
        <ele>1751.0</ele>
        <time>2017-10-01T13:29:18Z</time>
      </trkpt>
      <trkpt lat="41.108617" lon="-3.659400">
        <ele>1751.0</ele>
        <time>2017-10-01T13:29:19Z</time>
      </trkpt>
      <trkpt lat="41.108583" lon="-3.659483">
        <ele>1751.0</ele>
        <time>2017-10-01T13:29:20Z</time>
      </trkpt>
      <trkpt lat="41.108583" lon="-3.659567">
        <ele>1750.0</ele>
        <time>2017-10-01T13:29:21Z</time>
      </trkpt>
      <trkpt lat="41.108583" lon="-3.659617">
        <ele>1750.0</ele>
        <time>2017-10-01T13:29:22Z</time>
      </trkpt>
      <trkpt lat="41.108617" lon="-3.659650">
        <ele>1751.0</ele>
        <time>2017-10-01T13:29:23Z</time>
      </trkpt>
      <trkpt lat="41.108633" lon="-3.659650">
        <ele>1752.0</ele>
        <time>2017-10-01T13:29:24Z</time>
      </trkpt>
      <trkpt lat="41.108667" lon="-3.659617">
        <ele>1752.0</ele>
        <time>2017-10-01T13:29:25Z</time>
      </trkpt>
      <trkpt lat="41.108683" lon="-3.659550">
        <ele>1751.0</ele>
        <time>2017-10-01T13:29:26Z</time>
      </trkpt>
      <trkpt lat="41.108717" lon="-3.659483">
        <ele>1750.0</ele>
        <time>2017-10-01T13:29:27Z</time>
      </trkpt>
      <trkpt lat="41.108750" lon="-3.659383">
        <ele>1750.0</ele>
        <time>2017-10-01T13:29:28Z</time>
      </trkpt>
      <trkpt lat="41.108783" lon="-3.659283">
        <ele>1750.0</ele>
        <time>2017-10-01T13:29:29Z</time>
      </trkpt>
      <trkpt lat="41.108800" lon="-3.659167">
        <ele>1751.0</ele>
        <time>2017-10-01T13:29:30Z</time>
      </trkpt>
      <trkpt lat="41.108800" lon="-3.659067">
        <ele>1753.0</ele>
        <time>2017-10-01T13:29:31Z</time>
      </trkpt>
      <trkpt lat="41.108800" lon="-3.658967">
        <ele>1754.0</ele>
        <time>2017-10-01T13:29:32Z</time>
      </trkpt>
      <trkpt lat="41.108817" lon="-3.658867">
        <ele>1754.0</ele>
        <time>2017-10-01T13:29:33Z</time>
      </trkpt>
      <trkpt lat="41.108817" lon="-3.658750">
        <ele>1755.0</ele>
        <time>2017-10-01T13:29:34Z</time>
      </trkpt>
      <trkpt lat="41.108833" lon="-3.658633">
        <ele>1756.0</ele>
        <time>2017-10-01T13:29:35Z</time>
      </trkpt>
      <trkpt lat="41.108850" lon="-3.658533">
        <ele>1758.0</ele>
        <time>2017-10-01T13:29:36Z</time>
      </trkpt>
      <trkpt lat="41.108850" lon="-3.658450">
        <ele>1760.0</ele>
        <time>2017-10-01T13:29:37Z</time>
      </trkpt>
      <trkpt lat="41.108867" lon="-3.658383">
        <ele>1763.0</ele>
        <time>2017-10-01T13:29:38Z</time>
      </trkpt>
      <trkpt lat="41.108883" lon="-3.658333">
        <ele>1764.0</ele>
        <time>2017-10-01T13:29:39Z</time>
      </trkpt>
      <trkpt lat="41.108900" lon="-3.658300">
        <ele>1765.0</ele>
        <time>2017-10-01T13:29:40Z</time>
      </trkpt>
      <trkpt lat="41.108933" lon="-3.658317">
        <ele>1767.0</ele>
        <time>2017-10-01T13:29:41Z</time>
      </trkpt>
      <trkpt lat="41.108950" lon="-3.658350">
        <ele>1768.0</ele>
        <time>2017-10-01T13:29:42Z</time>
      </trkpt>
      <trkpt lat="41.108950" lon="-3.658417">
        <ele>1770.0</ele>
        <time>2017-10-01T13:29:43Z</time>
      </trkpt>
      <trkpt lat="41.108933" lon="-3.658483">
        <ele>1772.0</ele>
        <time>2017-10-01T13:29:44Z</time>
      </trkpt>
      <trkpt lat="41.108900" lon="-3.658583">
        <ele>1774.0</ele>
        <time>2017-10-01T13:29:45Z</time>
      </trkpt>
      <trkpt lat="41.108850" lon="-3.658683">
        <ele>1777.0</ele>
        <time>2017-10-01T13:29:46Z</time>
      </trkpt>
      <trkpt lat="41.108783" lon="-3.658767">
        <ele>1780.0</ele>
        <time>2017-10-01T13:29:47Z</time>
      </trkpt>
      <trkpt lat="41.108717" lon="-3.658850">
        <ele>1783.0</ele>
        <time>2017-10-01T13:29:48Z</time>
      </trkpt>
      <trkpt lat="41.108633" lon="-3.658917">
        <ele>1786.0</ele>
        <time>2017-10-01T13:29:49Z</time>
      </trkpt>
      <trkpt lat="41.108567" lon="-3.658967">
        <ele>1788.0</ele>
        <time>2017-10-01T13:29:50Z</time>
      </trkpt>
      <trkpt lat="41.108500" lon="-3.659033">
        <ele>1789.0</ele>
        <time>2017-10-01T13:29:51Z</time>
      </trkpt>
      <trkpt lat="41.108417" lon="-3.659100">
        <ele>1790.0</ele>
        <time>2017-10-01T13:29:52Z</time>
      </trkpt>
      <trkpt lat="41.108333" lon="-3.659183">
        <ele>1791.0</ele>
        <time>2017-10-01T13:29:53Z</time>
      </trkpt>
      <trkpt lat="41.108250" lon="-3.659267">
        <ele>1793.0</ele>
        <time>2017-10-01T13:29:54Z</time>
      </trkpt>
      <trkpt lat="41.108167" lon="-3.659333">
        <ele>1795.0</ele>
        <time>2017-10-01T13:29:55Z</time>
      </trkpt>
      <trkpt lat="41.108100" lon="-3.659400">
        <ele>1798.0</ele>
        <time>2017-10-01T13:29:56Z</time>
      </trkpt>
      <trkpt lat="41.108033" lon="-3.659450">
        <ele>1799.0</ele>
        <time>2017-10-01T13:29:57Z</time>
      </trkpt>
      <trkpt lat="41.107983" lon="-3.659517">
        <ele>1798.0</ele>
        <time>2017-10-01T13:29:58Z</time>
      </trkpt>
      <trkpt lat="41.107933" lon="-3.659600">
        <ele>1797.0</ele>
        <time>2017-10-01T13:29:59Z</time>
      </trkpt>
      <trkpt lat="41.107883" lon="-3.659667">
        <ele>1797.0</ele>
        <time>2017-10-01T13:30:00Z</time>
      </trkpt>
      <trkpt lat="41.107850" lon="-3.659750">
        <ele>1796.0</ele>
        <time>2017-10-01T13:30:01Z</time>
      </trkpt>
      <trkpt lat="41.107800" lon="-3.659817">
        <ele>1796.0</ele>
        <time>2017-10-01T13:30:02Z</time>
      </trkpt>
      <trkpt lat="41.107767" lon="-3.659883">
        <ele>1796.0</ele>
        <time>2017-10-01T13:30:03Z</time>
      </trkpt>
      <trkpt lat="41.107733" lon="-3.659950">
        <ele>1796.0</ele>
        <time>2017-10-01T13:30:04Z</time>
      </trkpt>
      <trkpt lat="41.107700" lon="-3.660017">
        <ele>1796.0</ele>
        <time>2017-10-01T13:30:05Z</time>
      </trkpt>
      <trkpt lat="41.107667" lon="-3.660100">
        <ele>1795.0</ele>
        <time>2017-10-01T13:30:06Z</time>
      </trkpt>
      <trkpt lat="41.107617" lon="-3.660183">
        <ele>1795.0</ele>
        <time>2017-10-01T13:30:07Z</time>
      </trkpt>
      <trkpt lat="41.107583" lon="-3.660267">
        <ele>1795.0</ele>
        <time>2017-10-01T13:30:08Z</time>
      </trkpt>
      <trkpt lat="41.107550" lon="-3.660350">
        <ele>1795.0</ele>
        <time>2017-10-01T13:30:09Z</time>
      </trkpt>
      <trkpt lat="41.107533" lon="-3.660433">
        <ele>1795.0</ele>
        <time>2017-10-01T13:30:10Z</time>
      </trkpt>
      <trkpt lat="41.107517" lon="-3.660517">
        <ele>1796.0</ele>
        <time>2017-10-01T13:30:11Z</time>
      </trkpt>
      <trkpt lat="41.107500" lon="-3.660583">
        <ele>1795.0</ele>
        <time>2017-10-01T13:30:12Z</time>
      </trkpt>
      <trkpt lat="41.107483" lon="-3.660650">
        <ele>1795.0</ele>
        <time>2017-10-01T13:30:13Z</time>
      </trkpt>
      <trkpt lat="41.107483" lon="-3.660717">
        <ele>1795.0</ele>
        <time>2017-10-01T13:30:14Z</time>
      </trkpt>
      <trkpt lat="41.107483" lon="-3.660817">
        <ele>1796.0</ele>
        <time>2017-10-01T13:30:15Z</time>
      </trkpt>
      <trkpt lat="41.107483" lon="-3.660900">
        <ele>1798.0</ele>
        <time>2017-10-01T13:30:16Z</time>
      </trkpt>
      <trkpt lat="41.107500" lon="-3.660967">
        <ele>1801.0</ele>
        <time>2017-10-01T13:30:17Z</time>
      </trkpt>
      <trkpt lat="41.107517" lon="-3.661000">
        <ele>1803.0</ele>
        <time>2017-10-01T13:30:18Z</time>
      </trkpt>
      <trkpt lat="41.107550" lon="-3.661050">
        <ele>1803.0</ele>
        <time>2017-10-01T13:30:19Z</time>
      </trkpt>
      <trkpt lat="41.107583" lon="-3.661067">
        <ele>1802.0</ele>
        <time>2017-10-01T13:30:20Z</time>
      </trkpt>
      <trkpt lat="41.107633" lon="-3.661067">
        <ele>1802.0</ele>
        <time>2017-10-01T13:30:21Z</time>
      </trkpt>
      <trkpt lat="41.107683" lon="-3.661050">
        <ele>1803.0</ele>
        <time>2017-10-01T13:30:22Z</time>
      </trkpt>
      <trkpt lat="41.107733" lon="-3.661017">
        <ele>1805.0</ele>
        <time>2017-10-01T13:30:23Z</time>
      </trkpt>
      <trkpt lat="41.107767" lon="-3.660950">
        <ele>1805.0</ele>
        <time>2017-10-01T13:30:24Z</time>
      </trkpt>
      <trkpt lat="41.107783" lon="-3.660867">
        <ele>1805.0</ele>
        <time>2017-10-01T13:30:25Z</time>
      </trkpt>
      <trkpt lat="41.107783" lon="-3.660750">
        <ele>1804.0</ele>
        <time>2017-10-01T13:30:26Z</time>
      </trkpt>
      <trkpt lat="41.107783" lon="-3.660617">
        <ele>1804.0</ele>
        <time>2017-10-01T13:30:27Z</time>
      </trkpt>
      <trkpt lat="41.107750" lon="-3.660467">
        <ele>1804.0</ele>
        <time>2017-10-01T13:30:28Z</time>
      </trkpt>
      <trkpt lat="41.107683" lon="-3.660300">
        <ele>1805.0</ele>
        <time>2017-10-01T13:30:29Z</time>
      </trkpt>
      <trkpt lat="41.107583" lon="-3.660167">
        <ele>1805.0</ele>
        <time>2017-10-01T13:30:30Z</time>
      </trkpt>
      <trkpt lat="41.107483" lon="-3.660067">
        <ele>1807.0</ele>
        <time>2017-10-01T13:30:31Z</time>
      </trkpt>
      <trkpt lat="41.107367" lon="-3.659983">
        <ele>1808.0</ele>
        <time>2017-10-01T13:30:32Z</time>
      </trkpt>
      <trkpt lat="41.107233" lon="-3.659933">
        <ele>1810.0</ele>
        <time>2017-10-01T13:30:33Z</time>
      </trkpt>
      <trkpt lat="41.107100" lon="-3.659917">
        <ele>1811.0</ele>
        <time>2017-10-01T13:30:34Z</time>
      </trkpt>
      <trkpt lat="41.106967" lon="-3.659933">
        <ele>1812.0</ele>
        <time>2017-10-01T13:30:35Z</time>
      </trkpt>
      <trkpt lat="41.106850" lon="-3.659967">
        <ele>1813.0</ele>
        <time>2017-10-01T13:30:36Z</time>
      </trkpt>
      <trkpt lat="41.106733" lon="-3.660033">
        <ele>1813.0</ele>
        <time>2017-10-01T13:30:37Z</time>
      </trkpt>
      <trkpt lat="41.106650" lon="-3.660117">
        <ele>1814.0</ele>
        <time>2017-10-01T13:30:38Z</time>
      </trkpt>
      <trkpt lat="41.106567" lon="-3.660217">
        <ele>1815.0</ele>
        <time>2017-10-01T13:30:39Z</time>
      </trkpt>
      <trkpt lat="41.106500" lon="-3.660300">
        <ele>1817.0</ele>
        <time>2017-10-01T13:30:40Z</time>
      </trkpt>
      <trkpt lat="41.106433" lon="-3.660350">
        <ele>1820.0</ele>
        <time>2017-10-01T13:30:41Z</time>
      </trkpt>
      <trkpt lat="41.106367" lon="-3.660400">
        <ele>1822.0</ele>
        <time>2017-10-01T13:30:42Z</time>
      </trkpt>
      <trkpt lat="41.106283" lon="-3.660450">
        <ele>1823.0</ele>
        <time>2017-10-01T13:30:43Z</time>
      </trkpt>
      <trkpt lat="41.106200" lon="-3.660500">
        <ele>1822.0</ele>
        <time>2017-10-01T13:30:44Z</time>
      </trkpt>
      <trkpt lat="41.106133" lon="-3.660567">
        <ele>1821.0</ele>
        <time>2017-10-01T13:30:45Z</time>
      </trkpt>
      <trkpt lat="41.106050" lon="-3.660650">
        <ele>1821.0</ele>
        <time>2017-10-01T13:30:46Z</time>
      </trkpt>
      <trkpt lat="41.105983" lon="-3.660733">
        <ele>1822.0</ele>
        <time>2017-10-01T13:30:47Z</time>
      </trkpt>
      <trkpt lat="41.105917" lon="-3.660800">
        <ele>1824.0</ele>
        <time>2017-10-01T13:30:48Z</time>
      </trkpt>
      <trkpt lat="41.105867" lon="-3.660850">
        <ele>1826.0</ele>
        <time>2017-10-01T13:30:49Z</time>
      </trkpt>
      <trkpt lat="41.105817" lon="-3.660883">
        <ele>1828.0</ele>
        <time>2017-10-01T13:30:50Z</time>
      </trkpt>
      <trkpt lat="41.105750" lon="-3.660933">
        <ele>1828.0</ele>
        <time>2017-10-01T13:30:51Z</time>
      </trkpt>
      <trkpt lat="41.105700" lon="-3.660983">
        <ele>1827.0</ele>
        <time>2017-10-01T13:30:52Z</time>
      </trkpt>
      <trkpt lat="41.105650" lon="-3.661033">
        <ele>1826.0</ele>
        <time>2017-10-01T13:30:53Z</time>
      </trkpt>
      <trkpt lat="41.105600" lon="-3.661083">
        <ele>1826.0</ele>
        <time>2017-10-01T13:30:54Z</time>
      </trkpt>
      <trkpt lat="41.105550" lon="-3.661133">
        <ele>1825.0</ele>
        <time>2017-10-01T13:30:55Z</time>
      </trkpt>
      <trkpt lat="41.105517" lon="-3.661200">
        <ele>1825.0</ele>
        <time>2017-10-01T13:30:56Z</time>
      </trkpt>
      <trkpt lat="41.105467" lon="-3.661250">
        <ele>1824.0</ele>
        <time>2017-10-01T13:30:57Z</time>
      </trkpt>
      <trkpt lat="41.105417" lon="-3.661300">
        <ele>1822.0</ele>
        <time>2017-10-01T13:30:58Z</time>
      </trkpt>
      <trkpt lat="41.105383" lon="-3.661350">
        <ele>1820.0</ele>
        <time>2017-10-01T13:30:59Z</time>
      </trkpt>
      <trkpt lat="41.105333" lon="-3.661417">
        <ele>1818.0</ele>
        <time>2017-10-01T13:31:00Z</time>
      </trkpt>
      <trkpt lat="41.105300" lon="-3.661483">
        <ele>1816.0</ele>
        <time>2017-10-01T13:31:01Z</time>
      </trkpt>
      <trkpt lat="41.105250" lon="-3.661533">
        <ele>1815.0</ele>
        <time>2017-10-01T13:31:02Z</time>
      </trkpt>
      <trkpt lat="41.105183" lon="-3.661600">
        <ele>1814.0</ele>
        <time>2017-10-01T13:31:03Z</time>
      </trkpt>
      <trkpt lat="41.105117" lon="-3.661650">
        <ele>1813.0</ele>
        <time>2017-10-01T13:31:04Z</time>
      </trkpt>
      <trkpt lat="41.105033" lon="-3.661700">
        <ele>1811.0</ele>
        <time>2017-10-01T13:31:05Z</time>
      </trkpt>
      <trkpt lat="41.104967" lon="-3.661767">
        <ele>1810.0</ele>
        <time>2017-10-01T13:31:06Z</time>
      </trkpt>
      <trkpt lat="41.104900" lon="-3.661817">
        <ele>1809.0</ele>
        <time>2017-10-01T13:31:07Z</time>
      </trkpt>
      <trkpt lat="41.104833" lon="-3.661867">
        <ele>1808.0</ele>
        <time>2017-10-01T13:31:08Z</time>
      </trkpt>
      <trkpt lat="41.104767" lon="-3.661917">
        <ele>1807.0</ele>
        <time>2017-10-01T13:31:09Z</time>
      </trkpt>
      <trkpt lat="41.104683" lon="-3.661983">
        <ele>1805.0</ele>
        <time>2017-10-01T13:31:10Z</time>
      </trkpt>
      <trkpt lat="41.104617" lon="-3.662033">
        <ele>1804.0</ele>
        <time>2017-10-01T13:31:11Z</time>
      </trkpt>
      <trkpt lat="41.104533" lon="-3.662083">
        <ele>1802.0</ele>
        <time>2017-10-01T13:31:12Z</time>
      </trkpt>
      <trkpt lat="41.104433" lon="-3.662150">
        <ele>1802.0</ele>
        <time>2017-10-01T13:31:13Z</time>
      </trkpt>
      <trkpt lat="41.104367" lon="-3.662200">
        <ele>1801.0</ele>
        <time>2017-10-01T13:31:14Z</time>
      </trkpt>
      <trkpt lat="41.104283" lon="-3.662250">
        <ele>1802.0</ele>
        <time>2017-10-01T13:31:15Z</time>
      </trkpt>
      <trkpt lat="41.104217" lon="-3.662283">
        <ele>1801.0</ele>
        <time>2017-10-01T13:31:16Z</time>
      </trkpt>
      <trkpt lat="41.104167" lon="-3.662333">
        <ele>1801.0</ele>
        <time>2017-10-01T13:31:17Z</time>
      </trkpt>
      <trkpt lat="41.104100" lon="-3.662383">
        <ele>1800.0</ele>
        <time>2017-10-01T13:31:18Z</time>
      </trkpt>
      <trkpt lat="41.104050" lon="-3.662433">
        <ele>1799.0</ele>
        <time>2017-10-01T13:31:19Z</time>
      </trkpt>
      <trkpt lat="41.104000" lon="-3.662500">
        <ele>1799.0</ele>
        <time>2017-10-01T13:31:20Z</time>
      </trkpt>
      <trkpt lat="41.103950" lon="-3.662567">
        <ele>1799.0</ele>
        <time>2017-10-01T13:31:21Z</time>
      </trkpt>
      <trkpt lat="41.103917" lon="-3.662617">
        <ele>1799.0</ele>
        <time>2017-10-01T13:31:22Z</time>
      </trkpt>
      <trkpt lat="41.103850" lon="-3.662667">
        <ele>1799.0</ele>
        <time>2017-10-01T13:31:23Z</time>
      </trkpt>
      <trkpt lat="41.103783" lon="-3.662700">
        <ele>1798.0</ele>
        <time>2017-10-01T13:31:24Z</time>
      </trkpt>
      <trkpt lat="41.103717" lon="-3.662750">
        <ele>1797.0</ele>
        <time>2017-10-01T13:31:25Z</time>
      </trkpt>
      <trkpt lat="41.103650" lon="-3.662817">
        <ele>1796.0</ele>
        <time>2017-10-01T13:31:26Z</time>
      </trkpt>
      <trkpt lat="41.103583" lon="-3.662867">
        <ele>1795.0</ele>
        <time>2017-10-01T13:31:27Z</time>
      </trkpt>
      <trkpt lat="41.103500" lon="-3.662917">
        <ele>1795.0</ele>
        <time>2017-10-01T13:31:28Z</time>
      </trkpt>
      <trkpt lat="41.103433" lon="-3.662967">
        <ele>1795.0</ele>
        <time>2017-10-01T13:31:29Z</time>
      </trkpt>
      <trkpt lat="41.103367" lon="-3.663017">
        <ele>1794.0</ele>
        <time>2017-10-01T13:31:30Z</time>
      </trkpt>
      <trkpt lat="41.103300" lon="-3.663067">
        <ele>1793.0</ele>
        <time>2017-10-01T13:31:31Z</time>
      </trkpt>
      <trkpt lat="41.103250" lon="-3.663117">
        <ele>1792.0</ele>
        <time>2017-10-01T13:31:32Z</time>
      </trkpt>
      <trkpt lat="41.103183" lon="-3.663167">
        <ele>1792.0</ele>
        <time>2017-10-01T13:31:33Z</time>
      </trkpt>
      <trkpt lat="41.103133" lon="-3.663233">
        <ele>1791.0</ele>
        <time>2017-10-01T13:31:34Z</time>
      </trkpt>
      <trkpt lat="41.103067" lon="-3.663267">
        <ele>1790.0</ele>
        <time>2017-10-01T13:31:35Z</time>
      </trkpt>
      <trkpt lat="41.103017" lon="-3.663317">
        <ele>1790.0</ele>
        <time>2017-10-01T13:31:36Z</time>
      </trkpt>
      <trkpt lat="41.102967" lon="-3.663350">
        <ele>1788.0</ele>
        <time>2017-10-01T13:31:37Z</time>
      </trkpt>
      <trkpt lat="41.102900" lon="-3.663400">
        <ele>1786.0</ele>
        <time>2017-10-01T13:31:38Z</time>
      </trkpt>
      <trkpt lat="41.102850" lon="-3.663467">
        <ele>1784.0</ele>
        <time>2017-10-01T13:31:39Z</time>
      </trkpt>
      <trkpt lat="41.102783" lon="-3.663517">
        <ele>1783.0</ele>
        <time>2017-10-01T13:31:40Z</time>
      </trkpt>
      <trkpt lat="41.102717" lon="-3.663583">
        <ele>1783.0</ele>
        <time>2017-10-01T13:31:41Z</time>
      </trkpt>
      <trkpt lat="41.102650" lon="-3.663617">
        <ele>1782.0</ele>
        <time>2017-10-01T13:31:42Z</time>
      </trkpt>
      <trkpt lat="41.102600" lon="-3.663667">
        <ele>1782.0</ele>
        <time>2017-10-01T13:31:43Z</time>
      </trkpt>
      <trkpt lat="41.102533" lon="-3.663717">
        <ele>1780.0</ele>
        <time>2017-10-01T13:31:44Z</time>
      </trkpt>
      <trkpt lat="41.102467" lon="-3.663767">
        <ele>1779.0</ele>
        <time>2017-10-01T13:31:45Z</time>
      </trkpt>
      <trkpt lat="41.102417" lon="-3.663817">
        <ele>1778.0</ele>
        <time>2017-10-01T13:31:46Z</time>
      </trkpt>
      <trkpt lat="41.102350" lon="-3.663883">
        <ele>1778.0</ele>
        <time>2017-10-01T13:31:47Z</time>
      </trkpt>
      <trkpt lat="41.102300" lon="-3.663933">
        <ele>1777.0</ele>
        <time>2017-10-01T13:31:48Z</time>
      </trkpt>
      <trkpt lat="41.102267" lon="-3.663983">
        <ele>1777.0</ele>
        <time>2017-10-01T13:31:49Z</time>
      </trkpt>
      <trkpt lat="41.102217" lon="-3.664033">
        <ele>1777.0</ele>
        <time>2017-10-01T13:31:50Z</time>
      </trkpt>
      <trkpt lat="41.102167" lon="-3.664100">
        <ele>1776.0</ele>
        <time>2017-10-01T13:31:51Z</time>
      </trkpt>
      <trkpt lat="41.102100" lon="-3.664150">
        <ele>1776.0</ele>
        <time>2017-10-01T13:31:52Z</time>
      </trkpt>
      <trkpt lat="41.102050" lon="-3.664200">
        <ele>1776.0</ele>
        <time>2017-10-01T13:31:53Z</time>
      </trkpt>
      <trkpt lat="41.102000" lon="-3.664250">
        <ele>1777.0</ele>
        <time>2017-10-01T13:31:54Z</time>
      </trkpt>
      <trkpt lat="41.101950" lon="-3.664283">
        <ele>1778.0</ele>
        <time>2017-10-01T13:31:55Z</time>
      </trkpt>
      <trkpt lat="41.101900" lon="-3.664333">
        <ele>1779.0</ele>
        <time>2017-10-01T13:31:56Z</time>
      </trkpt>
      <trkpt lat="41.101867" lon="-3.664383">
        <ele>1779.0</ele>
        <time>2017-10-01T13:31:57Z</time>
      </trkpt>
      <trkpt lat="41.101850" lon="-3.664417">
        <ele>1780.0</ele>
        <time>2017-10-01T13:31:58Z</time>
      </trkpt>
      <trkpt lat="41.101833" lon="-3.664467">
        <ele>1780.0</ele>
        <time>2017-10-01T13:31:59Z</time>
      </trkpt>
      <trkpt lat="41.101817" lon="-3.664500">
        <ele>1780.0</ele>
        <time>2017-10-01T13:32:00Z</time>
      </trkpt>
      <trkpt lat="41.101800" lon="-3.664517">
        <ele>1781.0</ele>
        <time>2017-10-01T13:32:01Z</time>
      </trkpt>
      <trkpt lat="41.101800" lon="-3.664550">
        <ele>1781.0</ele>
        <time>2017-10-01T13:32:02Z</time>
      </trkpt>
      <trkpt lat="41.101817" lon="-3.664550">
        <ele>1781.0</ele>
        <time>2017-10-01T13:32:03Z</time>
      </trkpt>
      <trkpt lat="41.101833" lon="-3.664533">
        <ele>1781.0</ele>
        <time>2017-10-01T13:32:04Z</time>
      </trkpt>
      <trkpt lat="41.101883" lon="-3.664483">
        <ele>1781.0</ele>
        <time>2017-10-01T13:32:05Z</time>
      </trkpt>
      <trkpt lat="41.101917" lon="-3.664400">
        <ele>1781.0</ele>
        <time>2017-10-01T13:32:06Z</time>
      </trkpt>
      <trkpt lat="41.101950" lon="-3.664267">
        <ele>1781.0</ele>
        <time>2017-10-01T13:32:07Z</time>
      </trkpt>
      <trkpt lat="41.101950" lon="-3.664100">
        <ele>1782.0</ele>
        <time>2017-10-01T13:32:08Z</time>
      </trkpt>
      <trkpt lat="41.101917" lon="-3.663917">
        <ele>1782.0</ele>
        <time>2017-10-01T13:32:09Z</time>
      </trkpt>
      <trkpt lat="41.101850" lon="-3.663733">
        <ele>1782.0</ele>
        <time>2017-10-01T13:32:10Z</time>
      </trkpt>
      <trkpt lat="41.101733" lon="-3.663583">
        <ele>1782.0</ele>
        <time>2017-10-01T13:32:11Z</time>
      </trkpt>
      <trkpt lat="41.101600" lon="-3.663467">
        <ele>1782.0</ele>
        <time>2017-10-01T13:32:12Z</time>
      </trkpt>
      <trkpt lat="41.101467" lon="-3.663400">
        <ele>1782.0</ele>
        <time>2017-10-01T13:32:13Z</time>
      </trkpt>
      <trkpt lat="41.101333" lon="-3.663383">
        <ele>1782.0</ele>
        <time>2017-10-01T13:32:14Z</time>
      </trkpt>
      <trkpt lat="41.101217" lon="-3.663383">
        <ele>1782.0</ele>
        <time>2017-10-01T13:32:15Z</time>
      </trkpt>
      <trkpt lat="41.101117" lon="-3.663417">
        <ele>1782.0</ele>
        <time>2017-10-01T13:32:16Z</time>
      </trkpt>
      <trkpt lat="41.101017" lon="-3.663467">
        <ele>1782.0</ele>
        <time>2017-10-01T13:32:17Z</time>
      </trkpt>
      <trkpt lat="41.100950" lon="-3.663517">
        <ele>1783.0</ele>
        <time>2017-10-01T13:32:18Z</time>
      </trkpt>
      <trkpt lat="41.100883" lon="-3.663550">
        <ele>1784.0</ele>
        <time>2017-10-01T13:32:19Z</time>
      </trkpt>
      <trkpt lat="41.100833" lon="-3.663600">
        <ele>1785.0</ele>
        <time>2017-10-01T13:32:20Z</time>
      </trkpt>
      <trkpt lat="41.100783" lon="-3.663650">
        <ele>1785.0</ele>
        <time>2017-10-01T13:32:21Z</time>
      </trkpt>
      <trkpt lat="41.100733" lon="-3.663700">
        <ele>1786.0</ele>
        <time>2017-10-01T13:32:22Z</time>
      </trkpt>
      <trkpt lat="41.100683" lon="-3.663750">
        <ele>1787.0</ele>
        <time>2017-10-01T13:32:23Z</time>
      </trkpt>
      <trkpt lat="41.100650" lon="-3.663783">
        <ele>1789.0</ele>
        <time>2017-10-01T13:32:24Z</time>
      </trkpt>
      <trkpt lat="41.100600" lon="-3.663817">
        <ele>1790.0</ele>
        <time>2017-10-01T13:32:25Z</time>
      </trkpt>
      <trkpt lat="41.100567" lon="-3.663850">
        <ele>1791.0</ele>
        <time>2017-10-01T13:32:26Z</time>
      </trkpt>
      <trkpt lat="41.100517" lon="-3.663883">
        <ele>1791.0</ele>
        <time>2017-10-01T13:32:27Z</time>
      </trkpt>
      <trkpt lat="41.100483" lon="-3.663917">
        <ele>1791.0</ele>
        <time>2017-10-01T13:32:28Z</time>
      </trkpt>
      <trkpt lat="41.100450" lon="-3.663967">
        <ele>1791.0</ele>
        <time>2017-10-01T13:32:29Z</time>
      </trkpt>
      <trkpt lat="41.100417" lon="-3.664017">
        <ele>1791.0</ele>
        <time>2017-10-01T13:32:30Z</time>
      </trkpt>
      <trkpt lat="41.100400" lon="-3.664050">
        <ele>1792.0</ele>
        <time>2017-10-01T13:32:31Z</time>
      </trkpt>
      <trkpt lat="41.100383" lon="-3.664083">
        <ele>1793.0</ele>
        <time>2017-10-01T13:32:32Z</time>
      </trkpt>
      <trkpt lat="41.100350" lon="-3.664100">
        <ele>1793.0</ele>
        <time>2017-10-01T13:32:33Z</time>
      </trkpt>
      <trkpt lat="41.100333" lon="-3.664133">
        <ele>1793.0</ele>
        <time>2017-10-01T13:32:34Z</time>
      </trkpt>
      <trkpt lat="41.100317" lon="-3.664167">
        <ele>1793.0</ele>
        <time>2017-10-01T13:32:35Z</time>
      </trkpt>
      <trkpt lat="41.100300" lon="-3.664200">
        <ele>1793.0</ele>
        <time>2017-10-01T13:32:36Z</time>
      </trkpt>
      <trkpt lat="41.100283" lon="-3.664233">
        <ele>1794.0</ele>
        <time>2017-10-01T13:32:37Z</time>
      </trkpt>
      <trkpt lat="41.100283" lon="-3.664267">
        <ele>1794.0</ele>
        <time>2017-10-01T13:32:38Z</time>
      </trkpt>
      <trkpt lat="41.100250" lon="-3.664300">
        <ele>1795.0</ele>
        <time>2017-10-01T13:32:39Z</time>
      </trkpt>
      <trkpt lat="41.100233" lon="-3.664317">
        <ele>1795.0</ele>
        <time>2017-10-01T13:32:40Z</time>
      </trkpt>
      <trkpt lat="41.100217" lon="-3.664350">
        <ele>1795.0</ele>
        <time>2017-10-01T13:32:41Z</time>
      </trkpt>
      <trkpt lat="41.100200" lon="-3.664383">
        <ele>1795.0</ele>
        <time>2017-10-01T13:32:42Z</time>
      </trkpt>
      <trkpt lat="41.100183" lon="-3.664417">
        <ele>1795.0</ele>
        <time>2017-10-01T13:32:43Z</time>
      </trkpt>
      <trkpt lat="41.100167" lon="-3.664433">
        <ele>1795.0</ele>
        <time>2017-10-01T13:32:44Z</time>
      </trkpt>
      <trkpt lat="41.100167" lon="-3.664450">
        <ele>1795.0</ele>
        <time>2017-10-01T13:32:45Z</time>
      </trkpt>
      <trkpt lat="41.100150" lon="-3.664467">
        <ele>1796.0</ele>
        <time>2017-10-01T13:32:46Z</time>
      </trkpt>
      <trkpt lat="41.100117" lon="-3.664500">
        <ele>1795.0</ele>
        <time>2017-10-01T13:32:47Z</time>
      </trkpt>
      <trkpt lat="41.100100" lon="-3.664517">
        <ele>1795.0</ele>
        <time>2017-10-01T13:32:48Z</time>
      </trkpt>
      <trkpt lat="41.100067" lon="-3.664550">
        <ele>1795.0</ele>
        <time>2017-10-01T13:32:49Z</time>
      </trkpt>
      <trkpt lat="41.100050" lon="-3.664583">
        <ele>1795.0</ele>
        <time>2017-10-01T13:32:50Z</time>
      </trkpt>
      <trkpt lat="41.100033" lon="-3.664617">
        <ele>1796.0</ele>
        <time>2017-10-01T13:32:51Z</time>
      </trkpt>
      <trkpt lat="41.100017" lon="-3.664633">
        <ele>1796.0</ele>
        <time>2017-10-01T13:32:52Z</time>
      </trkpt>
      <trkpt lat="41.100000" lon="-3.664650">
        <ele>1796.0</ele>
        <time>2017-10-01T13:32:53Z</time>
      </trkpt>
      <trkpt lat="41.099983" lon="-3.664667">
        <ele>1796.0</ele>
        <time>2017-10-01T13:32:54Z</time>
      </trkpt>
      <trkpt lat="41.099983" lon="-3.664700">
        <ele>1796.0</ele>
        <time>2017-10-01T13:32:55Z</time>
      </trkpt>
      <trkpt lat="41.099967" lon="-3.664733">
        <ele>1796.0</ele>
        <time>2017-10-01T13:32:56Z</time>
      </trkpt>
      <trkpt lat="41.099967" lon="-3.664767">
        <ele>1796.0</ele>
        <time>2017-10-01T13:32:57Z</time>
      </trkpt>
      <trkpt lat="41.099950" lon="-3.664783">
        <ele>1797.0</ele>
        <time>2017-10-01T13:32:58Z</time>
      </trkpt>
      <trkpt lat="41.099933" lon="-3.664817">
        <ele>1798.0</ele>
        <time>2017-10-01T13:32:59Z</time>
      </trkpt>
      <trkpt lat="41.099933" lon="-3.664833">
        <ele>1798.0</ele>
        <time>2017-10-01T13:33:00Z</time>
      </trkpt>
      <trkpt lat="41.099917" lon="-3.664850">
        <ele>1798.0</ele>
        <time>2017-10-01T13:33:01Z</time>
      </trkpt>
      <trkpt lat="41.099917" lon="-3.664883">
        <ele>1798.0</ele>
        <time>2017-10-01T13:33:02Z</time>
      </trkpt>
      <trkpt lat="41.099917" lon="-3.664900">
        <ele>1797.0</ele>
        <time>2017-10-01T13:33:03Z</time>
      </trkpt>
      <trkpt lat="41.099900" lon="-3.664933">
        <ele>1798.0</ele>
        <time>2017-10-01T13:33:04Z</time>
      </trkpt>
      <trkpt lat="41.099883" lon="-3.664967">
        <ele>1798.0</ele>
        <time>2017-10-01T13:33:05Z</time>
      </trkpt>
      <trkpt lat="41.099867" lon="-3.664983">
        <ele>1798.0</ele>
        <time>2017-10-01T13:33:06Z</time>
      </trkpt>
      <trkpt lat="41.099833" lon="-3.665017">
        <ele>1798.0</ele>
        <time>2017-10-01T13:33:07Z</time>
      </trkpt>
      <trkpt lat="41.099817" lon="-3.665050">
        <ele>1798.0</ele>
        <time>2017-10-01T13:33:08Z</time>
      </trkpt>
      <trkpt lat="41.099800" lon="-3.665083">
        <ele>1797.0</ele>
        <time>2017-10-01T13:33:09Z</time>
      </trkpt>
      <trkpt lat="41.099800" lon="-3.665117">
        <ele>1797.0</ele>
        <time>2017-10-01T13:33:10Z</time>
      </trkpt>
      <trkpt lat="41.099783" lon="-3.665150">
        <ele>1798.0</ele>
        <time>2017-10-01T13:33:11Z</time>
      </trkpt>
      <trkpt lat="41.099767" lon="-3.665167">
        <ele>1798.0</ele>
        <time>2017-10-01T13:33:12Z</time>
      </trkpt>
      <trkpt lat="41.099750" lon="-3.665200">
        <ele>1798.0</ele>
        <time>2017-10-01T13:33:13Z</time>
      </trkpt>
      <trkpt lat="41.099733" lon="-3.665233">
        <ele>1798.0</ele>
        <time>2017-10-01T13:33:14Z</time>
      </trkpt>
      <trkpt lat="41.099717" lon="-3.665250">
        <ele>1797.0</ele>
        <time>2017-10-01T13:33:15Z</time>
      </trkpt>
      <trkpt lat="41.099717" lon="-3.665283">
        <ele>1796.0</ele>
        <time>2017-10-01T13:33:16Z</time>
      </trkpt>
      <trkpt lat="41.099717" lon="-3.665317">
        <ele>1796.0</ele>
        <time>2017-10-01T13:33:17Z</time>
      </trkpt>
      <trkpt lat="41.099717" lon="-3.665333">
        <ele>1796.0</ele>
        <time>2017-10-01T13:33:18Z</time>
      </trkpt>
      <trkpt lat="41.099717" lon="-3.665367">
        <ele>1797.0</ele>
        <time>2017-10-01T13:33:19Z</time>
      </trkpt>
      <trkpt lat="41.099717" lon="-3.665383">
        <ele>1798.0</ele>
        <time>2017-10-01T13:33:20Z</time>
      </trkpt>
      <trkpt lat="41.099700" lon="-3.665400">
        <ele>1798.0</ele>
        <time>2017-10-01T13:33:21Z</time>
      </trkpt>
      <trkpt lat="41.099683" lon="-3.665433">
        <ele>1798.0</ele>
        <time>2017-10-01T13:33:22Z</time>
      </trkpt>
      <trkpt lat="41.099667" lon="-3.665467">
        <ele>1798.0</ele>
        <time>2017-10-01T13:33:23Z</time>
      </trkpt>
      <trkpt lat="41.099650" lon="-3.665500">
        <ele>1798.0</ele>
        <time>2017-10-01T13:33:24Z</time>
      </trkpt>
      <trkpt lat="41.099650" lon="-3.665533">
        <ele>1798.0</ele>
        <time>2017-10-01T13:33:25Z</time>
      </trkpt>
      <trkpt lat="41.099633" lon="-3.665567">
        <ele>1798.0</ele>
        <time>2017-10-01T13:33:26Z</time>
      </trkpt>
      <trkpt lat="41.099600" lon="-3.665600">
        <ele>1798.0</ele>
        <time>2017-10-01T13:33:27Z</time>
      </trkpt>
      <trkpt lat="41.099567" lon="-3.665650">
        <ele>1798.0</ele>
        <time>2017-10-01T13:33:28Z</time>
      </trkpt>
      <trkpt lat="41.099550" lon="-3.665683">
        <ele>1797.0</ele>
        <time>2017-10-01T13:33:29Z</time>
      </trkpt>
      <trkpt lat="41.099517" lon="-3.665717">
        <ele>1797.0</ele>
        <time>2017-10-01T13:33:30Z</time>
      </trkpt>
      <trkpt lat="41.099500" lon="-3.665767">
        <ele>1797.0</ele>
        <time>2017-10-01T13:33:31Z</time>
      </trkpt>
      <trkpt lat="41.099467" lon="-3.665800">
        <ele>1798.0</ele>
        <time>2017-10-01T13:33:32Z</time>
      </trkpt>
      <trkpt lat="41.099433" lon="-3.665850">
        <ele>1798.0</ele>
        <time>2017-10-01T13:33:33Z</time>
      </trkpt>
      <trkpt lat="41.099383" lon="-3.665900">
        <ele>1798.0</ele>
        <time>2017-10-01T13:33:34Z</time>
      </trkpt>
      <trkpt lat="41.099333" lon="-3.665950">
        <ele>1798.0</ele>
        <time>2017-10-01T13:33:35Z</time>
      </trkpt>
      <trkpt lat="41.099300" lon="-3.666000">
        <ele>1798.0</ele>
        <time>2017-10-01T13:33:36Z</time>
      </trkpt>
      <trkpt lat="41.099250" lon="-3.666050">
        <ele>1798.0</ele>
        <time>2017-10-01T13:33:37Z</time>
      </trkpt>
      <trkpt lat="41.099183" lon="-3.666100">
        <ele>1798.0</ele>
        <time>2017-10-01T13:33:38Z</time>
      </trkpt>
      <trkpt lat="41.099117" lon="-3.666150">
        <ele>1798.0</ele>
        <time>2017-10-01T13:33:39Z</time>
      </trkpt>
      <trkpt lat="41.099067" lon="-3.666183">
        <ele>1799.0</ele>
        <time>2017-10-01T13:33:40Z</time>
      </trkpt>
      <trkpt lat="41.099000" lon="-3.666233">
        <ele>1799.0</ele>
        <time>2017-10-01T13:33:41Z</time>
      </trkpt>
      <trkpt lat="41.098950" lon="-3.666283">
        <ele>1800.0</ele>
        <time>2017-10-01T13:33:42Z</time>
      </trkpt>
      <trkpt lat="41.098917" lon="-3.666333">
        <ele>1800.0</ele>
        <time>2017-10-01T13:33:43Z</time>
      </trkpt>
      <trkpt lat="41.098883" lon="-3.666383">
        <ele>1799.0</ele>
        <time>2017-10-01T13:33:44Z</time>
      </trkpt>
      <trkpt lat="41.098850" lon="-3.666433">
        <ele>1799.0</ele>
        <time>2017-10-01T13:33:45Z</time>
      </trkpt>
      <trkpt lat="41.098817" lon="-3.666467">
        <ele>1799.0</ele>
        <time>2017-10-01T13:33:46Z</time>
      </trkpt>
      <trkpt lat="41.098783" lon="-3.666517">
        <ele>1799.0</ele>
        <time>2017-10-01T13:33:47Z</time>
      </trkpt>
      <trkpt lat="41.098750" lon="-3.666567">
        <ele>1799.0</ele>
        <time>2017-10-01T13:33:48Z</time>
      </trkpt>
      <trkpt lat="41.098717" lon="-3.666600">
        <ele>1799.0</ele>
        <time>2017-10-01T13:33:49Z</time>
      </trkpt>
      <trkpt lat="41.098683" lon="-3.666633">
        <ele>1798.0</ele>
        <time>2017-10-01T13:33:50Z</time>
      </trkpt>
      <trkpt lat="41.098667" lon="-3.666650">
        <ele>1798.0</ele>
        <time>2017-10-01T13:33:51Z</time>
      </trkpt>
      <trkpt lat="41.098633" lon="-3.666683">
        <ele>1797.0</ele>
        <time>2017-10-01T13:33:52Z</time>
      </trkpt>
      <trkpt lat="41.098617" lon="-3.666717">
        <ele>1797.0</ele>
        <time>2017-10-01T13:33:53Z</time>
      </trkpt>
      <trkpt lat="41.098600" lon="-3.666750">
        <ele>1797.0</ele>
        <time>2017-10-01T13:33:54Z</time>
      </trkpt>
      <trkpt lat="41.098567" lon="-3.666783">
        <ele>1797.0</ele>
        <time>2017-10-01T13:33:55Z</time>
      </trkpt>
      <trkpt lat="41.098533" lon="-3.666817">
        <ele>1796.0</ele>
        <time>2017-10-01T13:33:56Z</time>
      </trkpt>
      <trkpt lat="41.098500" lon="-3.666850">
        <ele>1795.0</ele>
        <time>2017-10-01T13:33:57Z</time>
      </trkpt>
      <trkpt lat="41.098467" lon="-3.666900">
        <ele>1794.0</ele>
        <time>2017-10-01T13:33:58Z</time>
      </trkpt>
      <trkpt lat="41.098433" lon="-3.666950">
        <ele>1793.0</ele>
        <time>2017-10-01T13:33:59Z</time>
      </trkpt>
      <trkpt lat="41.098400" lon="-3.667000">
        <ele>1793.0</ele>
        <time>2017-10-01T13:34:00Z</time>
      </trkpt>
      <trkpt lat="41.098383" lon="-3.667033">
        <ele>1793.0</ele>
        <time>2017-10-01T13:34:01Z</time>
      </trkpt>
      <trkpt lat="41.098350" lon="-3.667083">
        <ele>1793.0</ele>
        <time>2017-10-01T13:34:02Z</time>
      </trkpt>
      <trkpt lat="41.098333" lon="-3.667117">
        <ele>1793.0</ele>
        <time>2017-10-01T13:34:03Z</time>
      </trkpt>
      <trkpt lat="41.098300" lon="-3.667167">
        <ele>1793.0</ele>
        <time>2017-10-01T13:34:04Z</time>
      </trkpt>
      <trkpt lat="41.098267" lon="-3.667217">
        <ele>1793.0</ele>
        <time>2017-10-01T13:34:05Z</time>
      </trkpt>
      <trkpt lat="41.098233" lon="-3.667267">
        <ele>1794.0</ele>
        <time>2017-10-01T13:34:06Z</time>
      </trkpt>
      <trkpt lat="41.098200" lon="-3.667317">
        <ele>1795.0</ele>
        <time>2017-10-01T13:34:07Z</time>
      </trkpt>
      <trkpt lat="41.098167" lon="-3.667350">
        <ele>1796.0</ele>
        <time>2017-10-01T13:34:08Z</time>
      </trkpt>
      <trkpt lat="41.098150" lon="-3.667383">
        <ele>1796.0</ele>
        <time>2017-10-01T13:34:09Z</time>
      </trkpt>
      <trkpt lat="41.098117" lon="-3.667417">
        <ele>1797.0</ele>
        <time>2017-10-01T13:34:10Z</time>
      </trkpt>
      <trkpt lat="41.098083" lon="-3.667450">
        <ele>1797.0</ele>
        <time>2017-10-01T13:34:11Z</time>
      </trkpt>
      <trkpt lat="41.098067" lon="-3.667483">
        <ele>1796.0</ele>
        <time>2017-10-01T13:34:12Z</time>
      </trkpt>
      <trkpt lat="41.098033" lon="-3.667517">
        <ele>1796.0</ele>
        <time>2017-10-01T13:34:13Z</time>
      </trkpt>
      <trkpt lat="41.098017" lon="-3.667550">
        <ele>1797.0</ele>
        <time>2017-10-01T13:34:14Z</time>
      </trkpt>
      <trkpt lat="41.097983" lon="-3.667583">
        <ele>1798.0</ele>
        <time>2017-10-01T13:34:15Z</time>
      </trkpt>
      <trkpt lat="41.097967" lon="-3.667617">
        <ele>1798.0</ele>
        <time>2017-10-01T13:34:16Z</time>
      </trkpt>
      <trkpt lat="41.097933" lon="-3.667633">
        <ele>1798.0</ele>
        <time>2017-10-01T13:34:17Z</time>
      </trkpt>
      <trkpt lat="41.097917" lon="-3.667667">
        <ele>1798.0</ele>
        <time>2017-10-01T13:34:18Z</time>
      </trkpt>
      <trkpt lat="41.097900" lon="-3.667700">
        <ele>1797.0</ele>
        <time>2017-10-01T13:34:19Z</time>
      </trkpt>
      <trkpt lat="41.097900" lon="-3.667750">
        <ele>1797.0</ele>
        <time>2017-10-01T13:34:20Z</time>
      </trkpt>
      <trkpt lat="41.097883" lon="-3.667800">
        <ele>1798.0</ele>
        <time>2017-10-01T13:34:20Z</time>
      </trkpt>
      <trkpt lat="41.097867" lon="-3.667833">
        <ele>1799.0</ele>
        <time>2017-10-01T13:34:21Z</time>
      </trkpt>
      <trkpt lat="41.097850" lon="-3.667850">
        <ele>1800.0</ele>
        <time>2017-10-01T13:34:22Z</time>
      </trkpt>
      <trkpt lat="41.097850" lon="-3.667867">
        <ele>1800.0</ele>
        <time>2017-10-01T13:34:23Z</time>
      </trkpt>
      <trkpt lat="41.097850" lon="-3.667900">
        <ele>1800.0</ele>
        <time>2017-10-01T13:34:24Z</time>
      </trkpt>
      <trkpt lat="41.097850" lon="-3.667917">
        <ele>1800.0</ele>
        <time>2017-10-01T13:34:25Z</time>
      </trkpt>
      <trkpt lat="41.097850" lon="-3.667950">
        <ele>1800.0</ele>
        <time>2017-10-01T13:34:26Z</time>
      </trkpt>
      <trkpt lat="41.097850" lon="-3.667983">
        <ele>1801.0</ele>
        <time>2017-10-01T13:34:27Z</time>
      </trkpt>
      <trkpt lat="41.097850" lon="-3.668017">
        <ele>1803.0</ele>
        <time>2017-10-01T13:34:28Z</time>
      </trkpt>
      <trkpt lat="41.097850" lon="-3.668050">
        <ele>1804.0</ele>
        <time>2017-10-01T13:34:29Z</time>
      </trkpt>
      <trkpt lat="41.097833" lon="-3.668067">
        <ele>1804.0</ele>
        <time>2017-10-01T13:34:30Z</time>
      </trkpt>
      <trkpt lat="41.097833" lon="-3.668100">
        <ele>1805.0</ele>
        <time>2017-10-01T13:34:31Z</time>
      </trkpt>
      <trkpt lat="41.097850" lon="-3.668117">
        <ele>1805.0</ele>
        <time>2017-10-01T13:34:32Z</time>
      </trkpt>
      <trkpt lat="41.097850" lon="-3.668150">
        <ele>1805.0</ele>
        <time>2017-10-01T13:34:33Z</time>
      </trkpt>
      <trkpt lat="41.097850" lon="-3.668167">
        <ele>1805.0</ele>
        <time>2017-10-01T13:34:34Z</time>
      </trkpt>
      <trkpt lat="41.097850" lon="-3.668200">
        <ele>1805.0</ele>
        <time>2017-10-01T13:34:35Z</time>
      </trkpt>
      <trkpt lat="41.097850" lon="-3.668233">
        <ele>1806.0</ele>
        <time>2017-10-01T13:34:36Z</time>
      </trkpt>
      <trkpt lat="41.097850" lon="-3.668250">
        <ele>1806.0</ele>
        <time>2017-10-01T13:34:37Z</time>
      </trkpt>
      <trkpt lat="41.097850" lon="-3.668267">
        <ele>1806.0</ele>
        <time>2017-10-01T13:34:38Z</time>
      </trkpt>
      <trkpt lat="41.097850" lon="-3.668283">
        <ele>1806.0</ele>
        <time>2017-10-01T13:34:39Z</time>
      </trkpt>
      <trkpt lat="41.097867" lon="-3.668300">
        <ele>1805.0</ele>
        <time>2017-10-01T13:34:40Z</time>
      </trkpt>
      <trkpt lat="41.097883" lon="-3.668317">
        <ele>1805.0</ele>
        <time>2017-10-01T13:34:41Z</time>
      </trkpt>
      <trkpt lat="41.097900" lon="-3.668317">
        <ele>1804.0</ele>
        <time>2017-10-01T13:34:42Z</time>
      </trkpt>
      <trkpt lat="41.097900" lon="-3.668333">
        <ele>1804.0</ele>
        <time>2017-10-01T13:34:43Z</time>
      </trkpt>
      <trkpt lat="41.097917" lon="-3.668350">
        <ele>1804.0</ele>
        <time>2017-10-01T13:34:44Z</time>
      </trkpt>
      <trkpt lat="41.097917" lon="-3.668367">
        <ele>1804.0</ele>
        <time>2017-10-01T13:34:45Z</time>
      </trkpt>
      <trkpt lat="41.097917" lon="-3.668400">
        <ele>1803.0</ele>
        <time>2017-10-01T13:34:46Z</time>
      </trkpt>
      <trkpt lat="41.097900" lon="-3.668433">
        <ele>1803.0</ele>
        <time>2017-10-01T13:34:47Z</time>
      </trkpt>
      <trkpt lat="41.097867" lon="-3.668483">
        <ele>1803.0</ele>
        <time>2017-10-01T13:34:48Z</time>
      </trkpt>
      <trkpt lat="41.097833" lon="-3.668550">
        <ele>1803.0</ele>
        <time>2017-10-01T13:34:49Z</time>
      </trkpt>
      <trkpt lat="41.097817" lon="-3.668600">
        <ele>1804.0</ele>
        <time>2017-10-01T13:34:50Z</time>
      </trkpt>
      <trkpt lat="41.097783" lon="-3.668633">
        <ele>1805.0</ele>
        <time>2017-10-01T13:34:51Z</time>
      </trkpt>
      <trkpt lat="41.097750" lon="-3.668667">
        <ele>1806.0</ele>
        <time>2017-10-01T13:34:52Z</time>
      </trkpt>
      <trkpt lat="41.097733" lon="-3.668717">
        <ele>1806.0</ele>
        <time>2017-10-01T13:34:53Z</time>
      </trkpt>
      <trkpt lat="41.097700" lon="-3.668750">
        <ele>1805.0</ele>
        <time>2017-10-01T13:34:54Z</time>
      </trkpt>
      <trkpt lat="41.097683" lon="-3.668800">
        <ele>1805.0</ele>
        <time>2017-10-01T13:34:55Z</time>
      </trkpt>
      <trkpt lat="41.097650" lon="-3.668867">
        <ele>1805.0</ele>
        <time>2017-10-01T13:34:56Z</time>
      </trkpt>
      <trkpt lat="41.097633" lon="-3.668917">
        <ele>1805.0</ele>
        <time>2017-10-01T13:34:57Z</time>
      </trkpt>
      <trkpt lat="41.097600" lon="-3.668983">
        <ele>1806.0</ele>
        <time>2017-10-01T13:34:58Z</time>
      </trkpt>
      <trkpt lat="41.097567" lon="-3.669033">
        <ele>1806.0</ele>
        <time>2017-10-01T13:34:59Z</time>
      </trkpt>
      <trkpt lat="41.097550" lon="-3.669083">
        <ele>1807.0</ele>
        <time>2017-10-01T13:35:00Z</time>
      </trkpt>
      <trkpt lat="41.097517" lon="-3.669133">
        <ele>1808.0</ele>
        <time>2017-10-01T13:35:01Z</time>
      </trkpt>
      <trkpt lat="41.097500" lon="-3.669183">
        <ele>1808.0</ele>
        <time>2017-10-01T13:35:02Z</time>
      </trkpt>
      <trkpt lat="41.097467" lon="-3.669233">
        <ele>1807.0</ele>
        <time>2017-10-01T13:35:03Z</time>
      </trkpt>
      <trkpt lat="41.097467" lon="-3.669283">
        <ele>1807.0</ele>
        <time>2017-10-01T13:35:04Z</time>
      </trkpt>
      <trkpt lat="41.097450" lon="-3.669333">
        <ele>1807.0</ele>
        <time>2017-10-01T13:35:05Z</time>
      </trkpt>
      <trkpt lat="41.097417" lon="-3.669383">
        <ele>1807.0</ele>
        <time>2017-10-01T13:35:06Z</time>
      </trkpt>
      <trkpt lat="41.097383" lon="-3.669433">
        <ele>1807.0</ele>
        <time>2017-10-01T13:35:07Z</time>
      </trkpt>
      <trkpt lat="41.097350" lon="-3.669500">
        <ele>1806.0</ele>
        <time>2017-10-01T13:35:08Z</time>
      </trkpt>
      <trkpt lat="41.097317" lon="-3.669550">
        <ele>1806.0</ele>
        <time>2017-10-01T13:35:09Z</time>
      </trkpt>
      <trkpt lat="41.097283" lon="-3.669617">
        <ele>1805.0</ele>
        <time>2017-10-01T13:35:10Z</time>
      </trkpt>
      <trkpt lat="41.097250" lon="-3.669667">
        <ele>1805.0</ele>
        <time>2017-10-01T13:35:11Z</time>
      </trkpt>
      <trkpt lat="41.097217" lon="-3.669733">
        <ele>1805.0</ele>
        <time>2017-10-01T13:35:12Z</time>
      </trkpt>
      <trkpt lat="41.097183" lon="-3.669800">
        <ele>1805.0</ele>
        <time>2017-10-01T13:35:13Z</time>
      </trkpt>
      <trkpt lat="41.097133" lon="-3.669850">
        <ele>1804.0</ele>
        <time>2017-10-01T13:35:14Z</time>
      </trkpt>
      <trkpt lat="41.097100" lon="-3.669917">
        <ele>1804.0</ele>
        <time>2017-10-01T13:35:15Z</time>
      </trkpt>
      <trkpt lat="41.097067" lon="-3.669983">
        <ele>1803.0</ele>
        <time>2017-10-01T13:35:16Z</time>
      </trkpt>
      <trkpt lat="41.097017" lon="-3.670067">
        <ele>1802.0</ele>
        <time>2017-10-01T13:35:17Z</time>
      </trkpt>
      <trkpt lat="41.096983" lon="-3.670133">
        <ele>1802.0</ele>
        <time>2017-10-01T13:35:18Z</time>
      </trkpt>
      <trkpt lat="41.096933" lon="-3.670217">
        <ele>1803.0</ele>
        <time>2017-10-01T13:35:19Z</time>
      </trkpt>
      <trkpt lat="41.096883" lon="-3.670300">
        <ele>1804.0</ele>
        <time>2017-10-01T13:35:20Z</time>
      </trkpt>
      <trkpt lat="41.096833" lon="-3.670383">
        <ele>1805.0</ele>
        <time>2017-10-01T13:35:21Z</time>
      </trkpt>
      <trkpt lat="41.096783" lon="-3.670450">
        <ele>1806.0</ele>
        <time>2017-10-01T13:35:22Z</time>
      </trkpt>
      <trkpt lat="41.096750" lon="-3.670533">
        <ele>1806.0</ele>
        <time>2017-10-01T13:35:23Z</time>
      </trkpt>
      <trkpt lat="41.096700" lon="-3.670600">
        <ele>1807.0</ele>
        <time>2017-10-01T13:35:24Z</time>
      </trkpt>
      <trkpt lat="41.096667" lon="-3.670683">
        <ele>1808.0</ele>
        <time>2017-10-01T13:35:25Z</time>
      </trkpt>
      <trkpt lat="41.096617" lon="-3.670750">
        <ele>1809.0</ele>
        <time>2017-10-01T13:35:26Z</time>
      </trkpt>
      <trkpt lat="41.096583" lon="-3.670833">
        <ele>1810.0</ele>
        <time>2017-10-01T13:35:27Z</time>
      </trkpt>
      <trkpt lat="41.096533" lon="-3.670900">
        <ele>1811.0</ele>
        <time>2017-10-01T13:35:28Z</time>
      </trkpt>
      <trkpt lat="41.096500" lon="-3.670967">
        <ele>1811.0</ele>
        <time>2017-10-01T13:35:29Z</time>
      </trkpt>
      <trkpt lat="41.096467" lon="-3.671033">
        <ele>1811.0</ele>
        <time>2017-10-01T13:35:30Z</time>
      </trkpt>
      <trkpt lat="41.096433" lon="-3.671100">
        <ele>1812.0</ele>
        <time>2017-10-01T13:35:31Z</time>
      </trkpt>
      <trkpt lat="41.096383" lon="-3.671167">
        <ele>1812.0</ele>
        <time>2017-10-01T13:35:32Z</time>
      </trkpt>
      <trkpt lat="41.096333" lon="-3.671233">
        <ele>1812.0</ele>
        <time>2017-10-01T13:35:33Z</time>
      </trkpt>
      <trkpt lat="41.096283" lon="-3.671317">
        <ele>1811.0</ele>
        <time>2017-10-01T13:35:34Z</time>
      </trkpt>
      <trkpt lat="41.096217" lon="-3.671383">
        <ele>1811.0</ele>
        <time>2017-10-01T13:35:35Z</time>
      </trkpt>
      <trkpt lat="41.096167" lon="-3.671467">
        <ele>1810.0</ele>
        <time>2017-10-01T13:35:36Z</time>
      </trkpt>
      <trkpt lat="41.096117" lon="-3.671550">
        <ele>1810.0</ele>
        <time>2017-10-01T13:35:37Z</time>
      </trkpt>
      <trkpt lat="41.096067" lon="-3.671617">
        <ele>1810.0</ele>
        <time>2017-10-01T13:35:38Z</time>
      </trkpt>
      <trkpt lat="41.096033" lon="-3.671683">
        <ele>1810.0</ele>
        <time>2017-10-01T13:35:39Z</time>
      </trkpt>
      <trkpt lat="41.096000" lon="-3.671767">
        <ele>1809.0</ele>
        <time>2017-10-01T13:35:40Z</time>
      </trkpt>
      <trkpt lat="41.095950" lon="-3.671833">
        <ele>1809.0</ele>
        <time>2017-10-01T13:35:41Z</time>
      </trkpt>
      <trkpt lat="41.095917" lon="-3.671900">
        <ele>1808.0</ele>
        <time>2017-10-01T13:35:42Z</time>
      </trkpt>
      <trkpt lat="41.095867" lon="-3.671983">
        <ele>1808.0</ele>
        <time>2017-10-01T13:35:43Z</time>
      </trkpt>
      <trkpt lat="41.095833" lon="-3.672050">
        <ele>1808.0</ele>
        <time>2017-10-01T13:35:44Z</time>
      </trkpt>
      <trkpt lat="41.095783" lon="-3.672133">
        <ele>1808.0</ele>
        <time>2017-10-01T13:35:45Z</time>
      </trkpt>
      <trkpt lat="41.095733" lon="-3.672200">
        <ele>1808.0</ele>
        <time>2017-10-01T13:35:46Z</time>
      </trkpt>
      <trkpt lat="41.095700" lon="-3.672283">
        <ele>1808.0</ele>
        <time>2017-10-01T13:35:47Z</time>
      </trkpt>
      <trkpt lat="41.095650" lon="-3.672367">
        <ele>1808.0</ele>
        <time>2017-10-01T13:35:48Z</time>
      </trkpt>
      <trkpt lat="41.095617" lon="-3.672450">
        <ele>1808.0</ele>
        <time>2017-10-01T13:35:49Z</time>
      </trkpt>
      <trkpt lat="41.095583" lon="-3.672533">
        <ele>1809.0</ele>
        <time>2017-10-01T13:35:50Z</time>
      </trkpt>
      <trkpt lat="41.095550" lon="-3.672617">
        <ele>1810.0</ele>
        <time>2017-10-01T13:35:51Z</time>
      </trkpt>
      <trkpt lat="41.095517" lon="-3.672683">
        <ele>1810.0</ele>
        <time>2017-10-01T13:35:52Z</time>
      </trkpt>
      <trkpt lat="41.095483" lon="-3.672750">
        <ele>1811.0</ele>
        <time>2017-10-01T13:35:53Z</time>
      </trkpt>
      <trkpt lat="41.095450" lon="-3.672833">
        <ele>1811.0</ele>
        <time>2017-10-01T13:35:54Z</time>
      </trkpt>
      <trkpt lat="41.095417" lon="-3.672917">
        <ele>1811.0</ele>
        <time>2017-10-01T13:35:55Z</time>
      </trkpt>
      <trkpt lat="41.095383" lon="-3.673000">
        <ele>1812.0</ele>
        <time>2017-10-01T13:35:56Z</time>
      </trkpt>
      <trkpt lat="41.095350" lon="-3.673083">
        <ele>1813.0</ele>
        <time>2017-10-01T13:35:57Z</time>
      </trkpt>
      <trkpt lat="41.095317" lon="-3.673150">
        <ele>1814.0</ele>
        <time>2017-10-01T13:35:58Z</time>
      </trkpt>
      <trkpt lat="41.095283" lon="-3.673217">
        <ele>1814.0</ele>
        <time>2017-10-01T13:35:59Z</time>
      </trkpt>
      <trkpt lat="41.095250" lon="-3.673300">
        <ele>1813.0</ele>
        <time>2017-10-01T13:36:00Z</time>
      </trkpt>
      <trkpt lat="41.095217" lon="-3.673383">
        <ele>1813.0</ele>
        <time>2017-10-01T13:36:01Z</time>
      </trkpt>
      <trkpt lat="41.095167" lon="-3.673450">
        <ele>1813.0</ele>
        <time>2017-10-01T13:36:02Z</time>
      </trkpt>
      <trkpt lat="41.095133" lon="-3.673533">
        <ele>1813.0</ele>
        <time>2017-10-01T13:36:03Z</time>
      </trkpt>
      <trkpt lat="41.095100" lon="-3.673617">
        <ele>1813.0</ele>
        <time>2017-10-01T13:36:04Z</time>
      </trkpt>
      <trkpt lat="41.095067" lon="-3.673700">
        <ele>1813.0</ele>
        <time>2017-10-01T13:36:05Z</time>
      </trkpt>
      <trkpt lat="41.095033" lon="-3.673767">
        <ele>1813.0</ele>
        <time>2017-10-01T13:36:06Z</time>
      </trkpt>
      <trkpt lat="41.094983" lon="-3.673850">
        <ele>1814.0</ele>
        <time>2017-10-01T13:36:07Z</time>
      </trkpt>
      <trkpt lat="41.094950" lon="-3.673917">
        <ele>1814.0</ele>
        <time>2017-10-01T13:36:08Z</time>
      </trkpt>
      <trkpt lat="41.094917" lon="-3.673983">
        <ele>1814.0</ele>
        <time>2017-10-01T13:36:09Z</time>
      </trkpt>
      <trkpt lat="41.094883" lon="-3.674050">
        <ele>1815.0</ele>
        <time>2017-10-01T13:36:10Z</time>
      </trkpt>
      <trkpt lat="41.094850" lon="-3.674067">
        <ele>1815.0</ele>
        <time>2017-10-01T13:36:11Z</time>
      </trkpt>
      <trkpt lat="41.094817" lon="-3.674133">
        <ele>1815.0</ele>
        <time>2017-10-01T13:36:12Z</time>
      </trkpt>
      <trkpt lat="41.094783" lon="-3.674217">
        <ele>1815.0</ele>
        <time>2017-10-01T13:36:13Z</time>
      </trkpt>
      <trkpt lat="41.094733" lon="-3.674300">
        <ele>1815.0</ele>
        <time>2017-10-01T13:36:14Z</time>
      </trkpt>
      <trkpt lat="41.094700" lon="-3.674367">
        <ele>1815.0</ele>
        <time>2017-10-01T13:36:15Z</time>
      </trkpt>
      <trkpt lat="41.094667" lon="-3.674450">
        <ele>1817.0</ele>
        <time>2017-10-01T13:36:16Z</time>
      </trkpt>
      <trkpt lat="41.094633" lon="-3.674517">
        <ele>1818.0</ele>
        <time>2017-10-01T13:36:17Z</time>
      </trkpt>
      <trkpt lat="41.094600" lon="-3.674583">
        <ele>1819.0</ele>
        <time>2017-10-01T13:36:18Z</time>
      </trkpt>
      <trkpt lat="41.094567" lon="-3.674650">
        <ele>1819.0</ele>
        <time>2017-10-01T13:36:19Z</time>
      </trkpt>
      <trkpt lat="41.094533" lon="-3.674733">
        <ele>1819.0</ele>
        <time>2017-10-01T13:36:20Z</time>
      </trkpt>
      <trkpt lat="41.094517" lon="-3.674800">
        <ele>1820.0</ele>
        <time>2017-10-01T13:36:21Z</time>
      </trkpt>
      <trkpt lat="41.094483" lon="-3.674867">
        <ele>1821.0</ele>
        <time>2017-10-01T13:36:22Z</time>
      </trkpt>
      <trkpt lat="41.094433" lon="-3.674933">
        <ele>1822.0</ele>
        <time>2017-10-01T13:36:23Z</time>
      </trkpt>
      <trkpt lat="41.094400" lon="-3.674983">
        <ele>1823.0</ele>
        <time>2017-10-01T13:36:24Z</time>
      </trkpt>
      <trkpt lat="41.094367" lon="-3.675050">
        <ele>1823.0</ele>
        <time>2017-10-01T13:36:25Z</time>
      </trkpt>
      <trkpt lat="41.094350" lon="-3.675100">
        <ele>1823.0</ele>
        <time>2017-10-01T13:36:26Z</time>
      </trkpt>
      <trkpt lat="41.094350" lon="-3.675167">
        <ele>1823.0</ele>
        <time>2017-10-01T13:36:27Z</time>
      </trkpt>
      <trkpt lat="41.094333" lon="-3.675217">
        <ele>1823.0</ele>
        <time>2017-10-01T13:36:28Z</time>
      </trkpt>
      <trkpt lat="41.094317" lon="-3.675283">
        <ele>1824.0</ele>
        <time>2017-10-01T13:36:29Z</time>
      </trkpt>
      <trkpt lat="41.094300" lon="-3.675333">
        <ele>1825.0</ele>
        <time>2017-10-01T13:36:30Z</time>
      </trkpt>
      <trkpt lat="41.094283" lon="-3.675383">
        <ele>1825.0</ele>
        <time>2017-10-01T13:36:31Z</time>
      </trkpt>
      <trkpt lat="41.094283" lon="-3.675433">
        <ele>1825.0</ele>
        <time>2017-10-01T13:36:32Z</time>
      </trkpt>
      <trkpt lat="41.094283" lon="-3.675483">
        <ele>1826.0</ele>
        <time>2017-10-01T13:36:33Z</time>
      </trkpt>
      <trkpt lat="41.094283" lon="-3.675533">
        <ele>1826.0</ele>
        <time>2017-10-01T13:36:34Z</time>
      </trkpt>
      <trkpt lat="41.094283" lon="-3.675583">
        <ele>1827.0</ele>
        <time>2017-10-01T13:36:35Z</time>
      </trkpt>
      <trkpt lat="41.094283" lon="-3.675633">
        <ele>1827.0</ele>
        <time>2017-10-01T13:36:36Z</time>
      </trkpt>
      <trkpt lat="41.094283" lon="-3.675667">
        <ele>1827.0</ele>
        <time>2017-10-01T13:36:37Z</time>
      </trkpt>
      <trkpt lat="41.094300" lon="-3.675717">
        <ele>1827.0</ele>
        <time>2017-10-01T13:36:38Z</time>
      </trkpt>
      <trkpt lat="41.094300" lon="-3.675767">
        <ele>1826.0</ele>
        <time>2017-10-01T13:36:39Z</time>
      </trkpt>
      <trkpt lat="41.094300" lon="-3.675817">
        <ele>1826.0</ele>
        <time>2017-10-01T13:36:40Z</time>
      </trkpt>
      <trkpt lat="41.094317" lon="-3.675883">
        <ele>1827.0</ele>
        <time>2017-10-01T13:36:41Z</time>
      </trkpt>
      <trkpt lat="41.094317" lon="-3.675933">
        <ele>1828.0</ele>
        <time>2017-10-01T13:36:42Z</time>
      </trkpt>
      <trkpt lat="41.094317" lon="-3.676000">
        <ele>1829.0</ele>
        <time>2017-10-01T13:36:43Z</time>
      </trkpt>
      <trkpt lat="41.094317" lon="-3.676050">
        <ele>1829.0</ele>
        <time>2017-10-01T13:36:44Z</time>
      </trkpt>
      <trkpt lat="41.094317" lon="-3.676100">
        <ele>1830.0</ele>
        <time>2017-10-01T13:36:45Z</time>
      </trkpt>
      <trkpt lat="41.094300" lon="-3.676167">
        <ele>1830.0</ele>
        <time>2017-10-01T13:36:46Z</time>
      </trkpt>
      <trkpt lat="41.094300" lon="-3.676250">
        <ele>1830.0</ele>
        <time>2017-10-01T13:36:47Z</time>
      </trkpt>
      <trkpt lat="41.094300" lon="-3.676317">
        <ele>1831.0</ele>
        <time>2017-10-01T13:36:48Z</time>
      </trkpt>
      <trkpt lat="41.094317" lon="-3.676383">
        <ele>1834.0</ele>
        <time>2017-10-01T13:36:49Z</time>
      </trkpt>
      <trkpt lat="41.094317" lon="-3.676433">
        <ele>1836.0</ele>
        <time>2017-10-01T13:36:50Z</time>
      </trkpt>
      <trkpt lat="41.094317" lon="-3.676483">
        <ele>1838.0</ele>
        <time>2017-10-01T13:36:51Z</time>
      </trkpt>
      <trkpt lat="41.094300" lon="-3.676533">
        <ele>1840.0</ele>
        <time>2017-10-01T13:36:52Z</time>
      </trkpt>
      <trkpt lat="41.094300" lon="-3.676583">
        <ele>1841.0</ele>
        <time>2017-10-01T13:36:53Z</time>
      </trkpt>
      <trkpt lat="41.094317" lon="-3.676633">
        <ele>1842.0</ele>
        <time>2017-10-01T13:36:54Z</time>
      </trkpt>
      <trkpt lat="41.094317" lon="-3.676683">
        <ele>1843.0</ele>
        <time>2017-10-01T13:36:55Z</time>
      </trkpt>
      <trkpt lat="41.094317" lon="-3.676733">
        <ele>1845.0</ele>
        <time>2017-10-01T13:36:56Z</time>
      </trkpt>
      <trkpt lat="41.094317" lon="-3.676783">
        <ele>1846.0</ele>
        <time>2017-10-01T13:36:57Z</time>
      </trkpt>
      <trkpt lat="41.094317" lon="-3.676833">
        <ele>1847.0</ele>
        <time>2017-10-01T13:36:58Z</time>
      </trkpt>
      <trkpt lat="41.094317" lon="-3.676867">
        <ele>1849.0</ele>
        <time>2017-10-01T13:36:59Z</time>
      </trkpt>
      <trkpt lat="41.094317" lon="-3.676900">
        <ele>1850.0</ele>
        <time>2017-10-01T13:37:00Z</time>
      </trkpt>
      <trkpt lat="41.094317" lon="-3.676933">
        <ele>1852.0</ele>
        <time>2017-10-01T13:37:01Z</time>
      </trkpt>
      <trkpt lat="41.094333" lon="-3.676967">
        <ele>1853.0</ele>
        <time>2017-10-01T13:37:02Z</time>
      </trkpt>
      <trkpt lat="41.094350" lon="-3.677000">
        <ele>1854.0</ele>
        <time>2017-10-01T13:37:03Z</time>
      </trkpt>
      <trkpt lat="41.094367" lon="-3.677033">
        <ele>1857.0</ele>
        <time>2017-10-01T13:37:04Z</time>
      </trkpt>
      <trkpt lat="41.094383" lon="-3.677083">
        <ele>1859.0</ele>
        <time>2017-10-01T13:37:05Z</time>
      </trkpt>
      <trkpt lat="41.094383" lon="-3.677117">
        <ele>1862.0</ele>
        <time>2017-10-01T13:37:06Z</time>
      </trkpt>
      <trkpt lat="41.094383" lon="-3.677183">
        <ele>1864.0</ele>
        <time>2017-10-01T13:37:08Z</time>
      </trkpt>
      <trkpt lat="41.094367" lon="-3.677217">
        <ele>1866.0</ele>
        <time>2017-10-01T13:37:09Z</time>
      </trkpt>
      <trkpt lat="41.094367" lon="-3.677267">
        <ele>1867.0</ele>
        <time>2017-10-01T13:37:10Z</time>
      </trkpt>
      <trkpt lat="41.094367" lon="-3.677333">
        <ele>1868.0</ele>
        <time>2017-10-01T13:37:11Z</time>
      </trkpt>
      <trkpt lat="41.094383" lon="-3.677383">
        <ele>1870.0</ele>
        <time>2017-10-01T13:37:12Z</time>
      </trkpt>
      <trkpt lat="41.094383" lon="-3.677433">
        <ele>1872.0</ele>
        <time>2017-10-01T13:37:13Z</time>
      </trkpt>
      <trkpt lat="41.094383" lon="-3.677500">
        <ele>1874.0</ele>
        <time>2017-10-01T13:37:14Z</time>
      </trkpt>
      <trkpt lat="41.094383" lon="-3.677550">
        <ele>1876.0</ele>
        <time>2017-10-01T13:37:15Z</time>
      </trkpt>
      <trkpt lat="41.094383" lon="-3.677600">
        <ele>1878.0</ele>
        <time>2017-10-01T13:37:16Z</time>
      </trkpt>
      <trkpt lat="41.094383" lon="-3.677633">
        <ele>1878.0</ele>
        <time>2017-10-01T13:37:17Z</time>
      </trkpt>
      <trkpt lat="41.094383" lon="-3.677683">
        <ele>1878.0</ele>
        <time>2017-10-01T13:37:18Z</time>
      </trkpt>
      <trkpt lat="41.094400" lon="-3.677733">
        <ele>1877.0</ele>
        <time>2017-10-01T13:37:19Z</time>
      </trkpt>
      <trkpt lat="41.094400" lon="-3.677783">
        <ele>1876.0</ele>
        <time>2017-10-01T13:37:20Z</time>
      </trkpt>
      <trkpt lat="41.094417" lon="-3.677833">
        <ele>1876.0</ele>
        <time>2017-10-01T13:37:21Z</time>
      </trkpt>
      <trkpt lat="41.094417" lon="-3.677883">
        <ele>1875.0</ele>
        <time>2017-10-01T13:37:22Z</time>
      </trkpt>
      <trkpt lat="41.094417" lon="-3.677933">
        <ele>1874.0</ele>
        <time>2017-10-01T13:37:23Z</time>
      </trkpt>
      <trkpt lat="41.094433" lon="-3.678000">
        <ele>1872.0</ele>
        <time>2017-10-01T13:37:24Z</time>
      </trkpt>
      <trkpt lat="41.094433" lon="-3.678067">
        <ele>1871.0</ele>
        <time>2017-10-01T13:37:25Z</time>
      </trkpt>
      <trkpt lat="41.094417" lon="-3.678133">
        <ele>1870.0</ele>
        <time>2017-10-01T13:37:26Z</time>
      </trkpt>
      <trkpt lat="41.094400" lon="-3.678217">
        <ele>1870.0</ele>
        <time>2017-10-01T13:37:27Z</time>
      </trkpt>
      <trkpt lat="41.094400" lon="-3.678283">
        <ele>1870.0</ele>
        <time>2017-10-01T13:37:28Z</time>
      </trkpt>
      <trkpt lat="41.094383" lon="-3.678367">
        <ele>1871.0</ele>
        <time>2017-10-01T13:37:29Z</time>
      </trkpt>
      <trkpt lat="41.094367" lon="-3.678417">
        <ele>1872.0</ele>
        <time>2017-10-01T13:37:30Z</time>
      </trkpt>
      <trkpt lat="41.094367" lon="-3.678483">
        <ele>1874.0</ele>
        <time>2017-10-01T13:37:31Z</time>
      </trkpt>
      <trkpt lat="41.094383" lon="-3.678533">
        <ele>1875.0</ele>
        <time>2017-10-01T13:37:32Z</time>
      </trkpt>
      <trkpt lat="41.094367" lon="-3.678583">
        <ele>1876.0</ele>
        <time>2017-10-01T13:37:33Z</time>
      </trkpt>
      <trkpt lat="41.094367" lon="-3.678650">
        <ele>1877.0</ele>
        <time>2017-10-01T13:37:34Z</time>
      </trkpt>
      <trkpt lat="41.094350" lon="-3.678733">
        <ele>1878.0</ele>
        <time>2017-10-01T13:37:35Z</time>
      </trkpt>
      <trkpt lat="41.094350" lon="-3.678817">
        <ele>1880.0</ele>
        <time>2017-10-01T13:37:36Z</time>
      </trkpt>
      <trkpt lat="41.094350" lon="-3.678883">
        <ele>1882.0</ele>
        <time>2017-10-01T13:37:37Z</time>
      </trkpt>
      <trkpt lat="41.094350" lon="-3.678967">
        <ele>1884.0</ele>
        <time>2017-10-01T13:37:38Z</time>
      </trkpt>
      <trkpt lat="41.094333" lon="-3.679033">
        <ele>1885.0</ele>
        <time>2017-10-01T13:37:39Z</time>
      </trkpt>
      <trkpt lat="41.094333" lon="-3.679100">
        <ele>1886.0</ele>
        <time>2017-10-01T13:37:40Z</time>
      </trkpt>
      <trkpt lat="41.094317" lon="-3.679167">
        <ele>1886.0</ele>
        <time>2017-10-01T13:37:41Z</time>
      </trkpt>
      <trkpt lat="41.094317" lon="-3.679250">
        <ele>1886.0</ele>
        <time>2017-10-01T13:37:42Z</time>
      </trkpt>
      <trkpt lat="41.094333" lon="-3.679317">
        <ele>1887.0</ele>
        <time>2017-10-01T13:37:43Z</time>
      </trkpt>
      <trkpt lat="41.094317" lon="-3.679400">
        <ele>1889.0</ele>
        <time>2017-10-01T13:37:44Z</time>
      </trkpt>
      <trkpt lat="41.094300" lon="-3.679467">
        <ele>1892.0</ele>
        <time>2017-10-01T13:37:45Z</time>
      </trkpt>
      <trkpt lat="41.094267" lon="-3.679533">
        <ele>1892.0</ele>
        <time>2017-10-01T13:37:46Z</time>
      </trkpt>
      <trkpt lat="41.094250" lon="-3.679600">
        <ele>1892.0</ele>
        <time>2017-10-01T13:37:47Z</time>
      </trkpt>
      <trkpt lat="41.094233" lon="-3.679667">
        <ele>1891.0</ele>
        <time>2017-10-01T13:37:48Z</time>
      </trkpt>
      <trkpt lat="41.094233" lon="-3.679717">
        <ele>1890.0</ele>
        <time>2017-10-01T13:37:49Z</time>
      </trkpt>
      <trkpt lat="41.094217" lon="-3.679783">
        <ele>1891.0</ele>
        <time>2017-10-01T13:37:50Z</time>
      </trkpt>
      <trkpt lat="41.094200" lon="-3.679833">
        <ele>1892.0</ele>
        <time>2017-10-01T13:37:51Z</time>
      </trkpt>
      <trkpt lat="41.094167" lon="-3.679883">
        <ele>1892.0</ele>
        <time>2017-10-01T13:37:52Z</time>
      </trkpt>
      <trkpt lat="41.094133" lon="-3.679933">
        <ele>1891.0</ele>
        <time>2017-10-01T13:37:53Z</time>
      </trkpt>
      <trkpt lat="41.094100" lon="-3.679983">
        <ele>1890.0</ele>
        <time>2017-10-01T13:37:54Z</time>
      </trkpt>
      <trkpt lat="41.094100" lon="-3.680033">
        <ele>1889.0</ele>
        <time>2017-10-01T13:37:55Z</time>
      </trkpt>
      <trkpt lat="41.094083" lon="-3.680100">
        <ele>1889.0</ele>
        <time>2017-10-01T13:37:56Z</time>
      </trkpt>
      <trkpt lat="41.094067" lon="-3.680150">
        <ele>1888.0</ele>
        <time>2017-10-01T13:37:57Z</time>
      </trkpt>
      <trkpt lat="41.094050" lon="-3.680200">
        <ele>1888.0</ele>
        <time>2017-10-01T13:37:58Z</time>
      </trkpt>
      <trkpt lat="41.094050" lon="-3.680267">
        <ele>1888.0</ele>
        <time>2017-10-01T13:37:59Z</time>
      </trkpt>
      <trkpt lat="41.094050" lon="-3.680333">
        <ele>1887.0</ele>
        <time>2017-10-01T13:38:00Z</time>
      </trkpt>
      <trkpt lat="41.094050" lon="-3.680383">
        <ele>1888.0</ele>
        <time>2017-10-01T13:38:01Z</time>
      </trkpt>
      <trkpt lat="41.094050" lon="-3.680450">
        <ele>1889.0</ele>
        <time>2017-10-01T13:38:02Z</time>
      </trkpt>
      <trkpt lat="41.094033" lon="-3.680500">
        <ele>1890.0</ele>
        <time>2017-10-01T13:38:03Z</time>
      </trkpt>
      <trkpt lat="41.094017" lon="-3.680550">
        <ele>1891.0</ele>
        <time>2017-10-01T13:38:04Z</time>
      </trkpt>
      <trkpt lat="41.094000" lon="-3.680617">
        <ele>1891.0</ele>
        <time>2017-10-01T13:38:05Z</time>
      </trkpt>
      <trkpt lat="41.094000" lon="-3.680667">
        <ele>1891.0</ele>
        <time>2017-10-01T13:38:06Z</time>
      </trkpt>
      <trkpt lat="41.094000" lon="-3.680733">
        <ele>1891.0</ele>
        <time>2017-10-01T13:38:07Z</time>
      </trkpt>
      <trkpt lat="41.094000" lon="-3.680783">
        <ele>1891.0</ele>
        <time>2017-10-01T13:38:08Z</time>
      </trkpt>
      <trkpt lat="41.094000" lon="-3.680850">
        <ele>1892.0</ele>
        <time>2017-10-01T13:38:09Z</time>
      </trkpt>
      <trkpt lat="41.094017" lon="-3.680900">
        <ele>1892.0</ele>
        <time>2017-10-01T13:38:10Z</time>
      </trkpt>
      <trkpt lat="41.094017" lon="-3.680950">
        <ele>1892.0</ele>
        <time>2017-10-01T13:38:11Z</time>
      </trkpt>
      <trkpt lat="41.094033" lon="-3.681000">
        <ele>1892.0</ele>
        <time>2017-10-01T13:38:12Z</time>
      </trkpt>
      <trkpt lat="41.094033" lon="-3.681033">
        <ele>1891.0</ele>
        <time>2017-10-01T13:38:13Z</time>
      </trkpt>
      <trkpt lat="41.094050" lon="-3.681083">
        <ele>1890.0</ele>
        <time>2017-10-01T13:38:14Z</time>
      </trkpt>
      <trkpt lat="41.094067" lon="-3.681133">
        <ele>1888.0</ele>
        <time>2017-10-01T13:38:15Z</time>
      </trkpt>
      <trkpt lat="41.094083" lon="-3.681167">
        <ele>1887.0</ele>
        <time>2017-10-01T13:38:16Z</time>
      </trkpt>
      <trkpt lat="41.094083" lon="-3.681217">
        <ele>1885.0</ele>
        <time>2017-10-01T13:38:17Z</time>
      </trkpt>
      <trkpt lat="41.094100" lon="-3.681267">
        <ele>1884.0</ele>
        <time>2017-10-01T13:38:18Z</time>
      </trkpt>
      <trkpt lat="41.094117" lon="-3.681317">
        <ele>1882.0</ele>
        <time>2017-10-01T13:38:19Z</time>
      </trkpt>
      <trkpt lat="41.094117" lon="-3.681367">
        <ele>1880.0</ele>
        <time>2017-10-01T13:38:20Z</time>
      </trkpt>
      <trkpt lat="41.094100" lon="-3.681433">
        <ele>1879.0</ele>
        <time>2017-10-01T13:38:21Z</time>
      </trkpt>
      <trkpt lat="41.094100" lon="-3.681500">
        <ele>1877.0</ele>
        <time>2017-10-01T13:38:22Z</time>
      </trkpt>
      <trkpt lat="41.094117" lon="-3.681567">
        <ele>1877.0</ele>
        <time>2017-10-01T13:38:23Z</time>
      </trkpt>
      <trkpt lat="41.094117" lon="-3.681633">
        <ele>1877.0</ele>
        <time>2017-10-01T13:38:24Z</time>
      </trkpt>
      <trkpt lat="41.094100" lon="-3.681683">
        <ele>1877.0</ele>
        <time>2017-10-01T13:38:25Z</time>
      </trkpt>
      <trkpt lat="41.094083" lon="-3.681733">
        <ele>1877.0</ele>
        <time>2017-10-01T13:38:26Z</time>
      </trkpt>
      <trkpt lat="41.094083" lon="-3.681783">
        <ele>1876.0</ele>
        <time>2017-10-01T13:38:27Z</time>
      </trkpt>
      <trkpt lat="41.094083" lon="-3.681850">
        <ele>1874.0</ele>
        <time>2017-10-01T13:38:28Z</time>
      </trkpt>
      <trkpt lat="41.094083" lon="-3.681917">
        <ele>1873.0</ele>
        <time>2017-10-01T13:38:29Z</time>
      </trkpt>
      <trkpt lat="41.094083" lon="-3.681967">
        <ele>1871.0</ele>
        <time>2017-10-01T13:38:30Z</time>
      </trkpt>
      <trkpt lat="41.094083" lon="-3.682033">
        <ele>1871.0</ele>
        <time>2017-10-01T13:38:31Z</time>
      </trkpt>
      <trkpt lat="41.094083" lon="-3.682100">
        <ele>1870.0</ele>
        <time>2017-10-01T13:38:32Z</time>
      </trkpt>
      <trkpt lat="41.094083" lon="-3.682150">
        <ele>1870.0</ele>
        <time>2017-10-01T13:38:33Z</time>
      </trkpt>
      <trkpt lat="41.094083" lon="-3.682217">
        <ele>1869.0</ele>
        <time>2017-10-01T13:38:34Z</time>
      </trkpt>
      <trkpt lat="41.094083" lon="-3.682283">
        <ele>1869.0</ele>
        <time>2017-10-01T13:38:35Z</time>
      </trkpt>
      <trkpt lat="41.094083" lon="-3.682333">
        <ele>1869.0</ele>
        <time>2017-10-01T13:38:36Z</time>
      </trkpt>
      <trkpt lat="41.094100" lon="-3.682400">
        <ele>1870.0</ele>
        <time>2017-10-01T13:38:37Z</time>
      </trkpt>
      <trkpt lat="41.094100" lon="-3.682433">
        <ele>1870.0</ele>
        <time>2017-10-01T13:38:38Z</time>
      </trkpt>
      <trkpt lat="41.094100" lon="-3.682483">
        <ele>1869.0</ele>
        <time>2017-10-01T13:38:39Z</time>
      </trkpt>
      <trkpt lat="41.094100" lon="-3.682533">
        <ele>1868.0</ele>
        <time>2017-10-01T13:38:40Z</time>
      </trkpt>
      <trkpt lat="41.094100" lon="-3.682600">
        <ele>1867.0</ele>
        <time>2017-10-01T13:38:41Z</time>
      </trkpt>
      <trkpt lat="41.094100" lon="-3.682667">
        <ele>1866.0</ele>
        <time>2017-10-01T13:38:42Z</time>
      </trkpt>
      <trkpt lat="41.094100" lon="-3.682717">
        <ele>1866.0</ele>
        <time>2017-10-01T13:38:43Z</time>
      </trkpt>
      <trkpt lat="41.094117" lon="-3.682783">
        <ele>1865.0</ele>
        <time>2017-10-01T13:38:44Z</time>
      </trkpt>
      <trkpt lat="41.094117" lon="-3.682833">
        <ele>1865.0</ele>
        <time>2017-10-01T13:38:45Z</time>
      </trkpt>
      <trkpt lat="41.094133" lon="-3.682900">
        <ele>1864.0</ele>
        <time>2017-10-01T13:38:46Z</time>
      </trkpt>
      <trkpt lat="41.094150" lon="-3.682967">
        <ele>1864.0</ele>
        <time>2017-10-01T13:38:47Z</time>
      </trkpt>
      <trkpt lat="41.094167" lon="-3.683033">
        <ele>1864.0</ele>
        <time>2017-10-01T13:38:48Z</time>
      </trkpt>
      <trkpt lat="41.094183" lon="-3.683100">
        <ele>1864.0</ele>
        <time>2017-10-01T13:38:49Z</time>
      </trkpt>
      <trkpt lat="41.094200" lon="-3.683150">
        <ele>1865.0</ele>
        <time>2017-10-01T13:38:50Z</time>
      </trkpt>
      <trkpt lat="41.094217" lon="-3.683217">
        <ele>1866.0</ele>
        <time>2017-10-01T13:38:51Z</time>
      </trkpt>
      <trkpt lat="41.094200" lon="-3.683283">
        <ele>1868.0</ele>
        <time>2017-10-01T13:38:52Z</time>
      </trkpt>
      <trkpt lat="41.094183" lon="-3.683333">
        <ele>1869.0</ele>
        <time>2017-10-01T13:38:53Z</time>
      </trkpt>
      <trkpt lat="41.094167" lon="-3.683400">
        <ele>1869.0</ele>
        <time>2017-10-01T13:38:54Z</time>
      </trkpt>
      <trkpt lat="41.094133" lon="-3.683467">
        <ele>1869.0</ele>
        <time>2017-10-01T13:38:55Z</time>
      </trkpt>
      <trkpt lat="41.094133" lon="-3.683550">
        <ele>1868.0</ele>
        <time>2017-10-01T13:38:56Z</time>
      </trkpt>
      <trkpt lat="41.094133" lon="-3.683633">
        <ele>1869.0</ele>
        <time>2017-10-01T13:38:57Z</time>
      </trkpt>
      <trkpt lat="41.094150" lon="-3.683717">
        <ele>1871.0</ele>
        <time>2017-10-01T13:38:58Z</time>
      </trkpt>
      <trkpt lat="41.094133" lon="-3.683783">
        <ele>1873.0</ele>
        <time>2017-10-01T13:38:59Z</time>
      </trkpt>
      <trkpt lat="41.094117" lon="-3.683850">
        <ele>1875.0</ele>
        <time>2017-10-01T13:39:00Z</time>
      </trkpt>
      <trkpt lat="41.094100" lon="-3.683917">
        <ele>1875.0</ele>
        <time>2017-10-01T13:39:01Z</time>
      </trkpt>
      <trkpt lat="41.094100" lon="-3.683967">
        <ele>1874.0</ele>
        <time>2017-10-01T13:39:02Z</time>
      </trkpt>
      <trkpt lat="41.094100" lon="-3.684033">
        <ele>1873.0</ele>
        <time>2017-10-01T13:39:03Z</time>
      </trkpt>
      <trkpt lat="41.094117" lon="-3.684100">
        <ele>1873.0</ele>
        <time>2017-10-01T13:39:04Z</time>
      </trkpt>
      <trkpt lat="41.094133" lon="-3.684167">
        <ele>1873.0</ele>
        <time>2017-10-01T13:39:05Z</time>
      </trkpt>
      <trkpt lat="41.094133" lon="-3.684217">
        <ele>1873.0</ele>
        <time>2017-10-01T13:39:06Z</time>
      </trkpt>
      <trkpt lat="41.094133" lon="-3.684283">
        <ele>1873.0</ele>
        <time>2017-10-01T13:39:07Z</time>
      </trkpt>
      <trkpt lat="41.094150" lon="-3.684333">
        <ele>1873.0</ele>
        <time>2017-10-01T13:39:08Z</time>
      </trkpt>
      <trkpt lat="41.094167" lon="-3.684383">
        <ele>1873.0</ele>
        <time>2017-10-01T13:39:09Z</time>
      </trkpt>
      <trkpt lat="41.094167" lon="-3.684433">
        <ele>1873.0</ele>
        <time>2017-10-01T13:39:10Z</time>
      </trkpt>
      <trkpt lat="41.094183" lon="-3.684467">
        <ele>1874.0</ele>
        <time>2017-10-01T13:39:11Z</time>
      </trkpt>
      <trkpt lat="41.094183" lon="-3.684517">
        <ele>1873.0</ele>
        <time>2017-10-01T13:39:12Z</time>
      </trkpt>
      <trkpt lat="41.094200" lon="-3.684567">
        <ele>1872.0</ele>
        <time>2017-10-01T13:39:13Z</time>
      </trkpt>
      <trkpt lat="41.094217" lon="-3.684617">
        <ele>1871.0</ele>
        <time>2017-10-01T13:39:14Z</time>
      </trkpt>
      <trkpt lat="41.094233" lon="-3.684683">
        <ele>1871.0</ele>
        <time>2017-10-01T13:39:15Z</time>
      </trkpt>
      <trkpt lat="41.094250" lon="-3.684750">
        <ele>1871.0</ele>
        <time>2017-10-01T13:39:16Z</time>
      </trkpt>
      <trkpt lat="41.094250" lon="-3.684800">
        <ele>1872.0</ele>
        <time>2017-10-01T13:39:17Z</time>
      </trkpt>
      <trkpt lat="41.094267" lon="-3.684850">
        <ele>1874.0</ele>
        <time>2017-10-01T13:39:18Z</time>
      </trkpt>
      <trkpt lat="41.094283" lon="-3.684917">
        <ele>1874.0</ele>
        <time>2017-10-01T13:39:19Z</time>
      </trkpt>
      <trkpt lat="41.094300" lon="-3.684967">
        <ele>1875.0</ele>
        <time>2017-10-01T13:39:20Z</time>
      </trkpt>
      <trkpt lat="41.094317" lon="-3.685033">
        <ele>1876.0</ele>
        <time>2017-10-01T13:39:21Z</time>
      </trkpt>
      <trkpt lat="41.094333" lon="-3.685083">
        <ele>1876.0</ele>
        <time>2017-10-01T13:39:22Z</time>
      </trkpt>
      <trkpt lat="41.094350" lon="-3.685150">
        <ele>1877.0</ele>
        <time>2017-10-01T13:39:23Z</time>
      </trkpt>
      <trkpt lat="41.094367" lon="-3.685217">
        <ele>1878.0</ele>
        <time>2017-10-01T13:39:24Z</time>
      </trkpt>
      <trkpt lat="41.094383" lon="-3.685267">
        <ele>1878.0</ele>
        <time>2017-10-01T13:39:25Z</time>
      </trkpt>
      <trkpt lat="41.094417" lon="-3.685333">
        <ele>1879.0</ele>
        <time>2017-10-01T13:39:26Z</time>
      </trkpt>
      <trkpt lat="41.094433" lon="-3.685400">
        <ele>1879.0</ele>
        <time>2017-10-01T13:39:27Z</time>
      </trkpt>
      <trkpt lat="41.094467" lon="-3.685467">
        <ele>1879.0</ele>
        <time>2017-10-01T13:39:28Z</time>
      </trkpt>
      <trkpt lat="41.094500" lon="-3.685533">
        <ele>1881.0</ele>
        <time>2017-10-01T13:39:29Z</time>
      </trkpt>
      <trkpt lat="41.094533" lon="-3.685600">
        <ele>1882.0</ele>
        <time>2017-10-01T13:39:30Z</time>
      </trkpt>
      <trkpt lat="41.094550" lon="-3.685650">
        <ele>1883.0</ele>
        <time>2017-10-01T13:39:31Z</time>
      </trkpt>
      <trkpt lat="41.094567" lon="-3.685700">
        <ele>1883.0</ele>
        <time>2017-10-01T13:39:32Z</time>
      </trkpt>
      <trkpt lat="41.094583" lon="-3.685750">
        <ele>1884.0</ele>
        <time>2017-10-01T13:39:33Z</time>
      </trkpt>
      <trkpt lat="41.094600" lon="-3.685800">
        <ele>1885.0</ele>
        <time>2017-10-01T13:39:34Z</time>
      </trkpt>
      <trkpt lat="41.094617" lon="-3.685850">
        <ele>1886.0</ele>
        <time>2017-10-01T13:39:35Z</time>
      </trkpt>
      <trkpt lat="41.094617" lon="-3.685900">
        <ele>1887.0</ele>
        <time>2017-10-01T13:39:36Z</time>
      </trkpt>
      <trkpt lat="41.094617" lon="-3.685933">
        <ele>1887.0</ele>
        <time>2017-10-01T13:39:37Z</time>
      </trkpt>
      <trkpt lat="41.094633" lon="-3.685983">
        <ele>1887.0</ele>
        <time>2017-10-01T13:39:38Z</time>
      </trkpt>
      <trkpt lat="41.094667" lon="-3.686033">
        <ele>1887.0</ele>
        <time>2017-10-01T13:39:39Z</time>
      </trkpt>
      <trkpt lat="41.094683" lon="-3.686083">
        <ele>1888.0</ele>
        <time>2017-10-01T13:39:40Z</time>
      </trkpt>
      <trkpt lat="41.094717" lon="-3.686133">
        <ele>1889.0</ele>
        <time>2017-10-01T13:39:41Z</time>
      </trkpt>
      <trkpt lat="41.094733" lon="-3.686183">
        <ele>1890.0</ele>
        <time>2017-10-01T13:39:42Z</time>
      </trkpt>
      <trkpt lat="41.094750" lon="-3.686233">
        <ele>1891.0</ele>
        <time>2017-10-01T13:39:43Z</time>
      </trkpt>
      <trkpt lat="41.094783" lon="-3.686267">
        <ele>1892.0</ele>
        <time>2017-10-01T13:39:44Z</time>
      </trkpt>
      <trkpt lat="41.094817" lon="-3.686300">
        <ele>1893.0</ele>
        <time>2017-10-01T13:39:45Z</time>
      </trkpt>
      <trkpt lat="41.094833" lon="-3.686333">
        <ele>1894.0</ele>
        <time>2017-10-01T13:39:46Z</time>
      </trkpt>
      <trkpt lat="41.094867" lon="-3.686383">
        <ele>1895.0</ele>
        <time>2017-10-01T13:39:47Z</time>
      </trkpt>
      <trkpt lat="41.094883" lon="-3.686417">
        <ele>1897.0</ele>
        <time>2017-10-01T13:39:48Z</time>
      </trkpt>
      <trkpt lat="41.094900" lon="-3.686467">
        <ele>1898.0</ele>
        <time>2017-10-01T13:39:49Z</time>
      </trkpt>
      <trkpt lat="41.094900" lon="-3.686517">
        <ele>1899.0</ele>
        <time>2017-10-01T13:39:50Z</time>
      </trkpt>
      <trkpt lat="41.094917" lon="-3.686567">
        <ele>1900.0</ele>
        <time>2017-10-01T13:39:51Z</time>
      </trkpt>
      <trkpt lat="41.094933" lon="-3.686633">
        <ele>1901.0</ele>
        <time>2017-10-01T13:39:52Z</time>
      </trkpt>
      <trkpt lat="41.094950" lon="-3.686683">
        <ele>1902.0</ele>
        <time>2017-10-01T13:39:53Z</time>
      </trkpt>
      <trkpt lat="41.094950" lon="-3.686733">
        <ele>1903.0</ele>
        <time>2017-10-01T13:39:54Z</time>
      </trkpt>
      <trkpt lat="41.094967" lon="-3.686783">
        <ele>1904.0</ele>
        <time>2017-10-01T13:39:55Z</time>
      </trkpt>
      <trkpt lat="41.094983" lon="-3.686833">
        <ele>1904.0</ele>
        <time>2017-10-01T13:39:56Z</time>
      </trkpt>
      <trkpt lat="41.095000" lon="-3.686883">
        <ele>1904.0</ele>
        <time>2017-10-01T13:39:57Z</time>
      </trkpt>
      <trkpt lat="41.095017" lon="-3.686933">
        <ele>1904.0</ele>
        <time>2017-10-01T13:39:58Z</time>
      </trkpt>
      <trkpt lat="41.095050" lon="-3.686983">
        <ele>1905.0</ele>
        <time>2017-10-01T13:39:59Z</time>
      </trkpt>
      <trkpt lat="41.095067" lon="-3.687050">
        <ele>1906.0</ele>
        <time>2017-10-01T13:40:00Z</time>
      </trkpt>
      <trkpt lat="41.095083" lon="-3.687100">
        <ele>1908.0</ele>
        <time>2017-10-01T13:40:01Z</time>
      </trkpt>
      <trkpt lat="41.095100" lon="-3.687133">
        <ele>1910.0</ele>
        <time>2017-10-01T13:40:02Z</time>
      </trkpt>
      <trkpt lat="41.095117" lon="-3.687167">
        <ele>1910.0</ele>
        <time>2017-10-01T13:40:03Z</time>
      </trkpt>
      <trkpt lat="41.095133" lon="-3.687200">
        <ele>1910.0</ele>
        <time>2017-10-01T13:40:04Z</time>
      </trkpt>
      <trkpt lat="41.095150" lon="-3.687250">
        <ele>1911.0</ele>
        <time>2017-10-01T13:40:05Z</time>
      </trkpt>
      <trkpt lat="41.095167" lon="-3.687300">
        <ele>1912.0</ele>
        <time>2017-10-01T13:40:06Z</time>
      </trkpt>
      <trkpt lat="41.095183" lon="-3.687333">
        <ele>1913.0</ele>
        <time>2017-10-01T13:40:07Z</time>
      </trkpt>
      <trkpt lat="41.095183" lon="-3.687350">
        <ele>1914.0</ele>
        <time>2017-10-01T13:40:08Z</time>
      </trkpt>
      <trkpt lat="41.095200" lon="-3.687383">
        <ele>1913.0</ele>
        <time>2017-10-01T13:40:09Z</time>
      </trkpt>
      <trkpt lat="41.095217" lon="-3.687433">
        <ele>1912.0</ele>
        <time>2017-10-01T13:40:10Z</time>
      </trkpt>
      <trkpt lat="41.095250" lon="-3.687467">
        <ele>1911.0</ele>
        <time>2017-10-01T13:40:11Z</time>
      </trkpt>
      <trkpt lat="41.095283" lon="-3.687517">
        <ele>1911.0</ele>
        <time>2017-10-01T13:40:12Z</time>
      </trkpt>
      <trkpt lat="41.095300" lon="-3.687550">
        <ele>1912.0</ele>
        <time>2017-10-01T13:40:13Z</time>
      </trkpt>
      <trkpt lat="41.095317" lon="-3.687583">
        <ele>1912.0</ele>
        <time>2017-10-01T13:40:14Z</time>
      </trkpt>
      <trkpt lat="41.095333" lon="-3.687617">
        <ele>1912.0</ele>
        <time>2017-10-01T13:40:15Z</time>
      </trkpt>
      <trkpt lat="41.095350" lon="-3.687650">
        <ele>1911.0</ele>
        <time>2017-10-01T13:40:16Z</time>
      </trkpt>
      <trkpt lat="41.095383" lon="-3.687700">
        <ele>1910.0</ele>
        <time>2017-10-01T13:40:17Z</time>
      </trkpt>
      <trkpt lat="41.095417" lon="-3.687733">
        <ele>1910.0</ele>
        <time>2017-10-01T13:40:18Z</time>
      </trkpt>
      <trkpt lat="41.095450" lon="-3.687783">
        <ele>1910.0</ele>
        <time>2017-10-01T13:40:19Z</time>
      </trkpt>
      <trkpt lat="41.095467" lon="-3.687817">
        <ele>1911.0</ele>
        <time>2017-10-01T13:40:20Z</time>
      </trkpt>
      <trkpt lat="41.095500" lon="-3.687867">
        <ele>1912.0</ele>
        <time>2017-10-01T13:40:21Z</time>
      </trkpt>
      <trkpt lat="41.095517" lon="-3.687883">
        <ele>1913.0</ele>
        <time>2017-10-01T13:40:22Z</time>
      </trkpt>
      <trkpt lat="41.095550" lon="-3.687917">
        <ele>1914.0</ele>
        <time>2017-10-01T13:40:23Z</time>
      </trkpt>
      <trkpt lat="41.095567" lon="-3.687967">
        <ele>1914.0</ele>
        <time>2017-10-01T13:40:24Z</time>
      </trkpt>
      <trkpt lat="41.095583" lon="-3.688000">
        <ele>1915.0</ele>
        <time>2017-10-01T13:40:25Z</time>
      </trkpt>
      <trkpt lat="41.095600" lon="-3.688050">
        <ele>1917.0</ele>
        <time>2017-10-01T13:40:26Z</time>
      </trkpt>
      <trkpt lat="41.095617" lon="-3.688100">
        <ele>1918.0</ele>
        <time>2017-10-01T13:40:27Z</time>
      </trkpt>
      <trkpt lat="41.095617" lon="-3.688150">
        <ele>1919.0</ele>
        <time>2017-10-01T13:40:28Z</time>
      </trkpt>
      <trkpt lat="41.095617" lon="-3.688200">
        <ele>1920.0</ele>
        <time>2017-10-01T13:40:29Z</time>
      </trkpt>
      <trkpt lat="41.095633" lon="-3.688233">
        <ele>1921.0</ele>
        <time>2017-10-01T13:40:30Z</time>
      </trkpt>
      <trkpt lat="41.095650" lon="-3.688283">
        <ele>1921.0</ele>
        <time>2017-10-01T13:40:31Z</time>
      </trkpt>
      <trkpt lat="41.095667" lon="-3.688333">
        <ele>1921.0</ele>
        <time>2017-10-01T13:40:32Z</time>
      </trkpt>
      <trkpt lat="41.095683" lon="-3.688367">
        <ele>1920.0</ele>
        <time>2017-10-01T13:40:33Z</time>
      </trkpt>
      <trkpt lat="41.095717" lon="-3.688400">
        <ele>1920.0</ele>
        <time>2017-10-01T13:40:34Z</time>
      </trkpt>
      <trkpt lat="41.095733" lon="-3.688417">
        <ele>1920.0</ele>
        <time>2017-10-01T13:40:35Z</time>
      </trkpt>
      <trkpt lat="41.095750" lon="-3.688417">
        <ele>1919.0</ele>
        <time>2017-10-01T13:40:36Z</time>
      </trkpt>
      <trkpt lat="41.095767" lon="-3.688450">
        <ele>1917.0</ele>
        <time>2017-10-01T13:40:37Z</time>
      </trkpt>
      <trkpt lat="41.095767" lon="-3.688467">
        <ele>1914.0</ele>
        <time>2017-10-01T13:40:38Z</time>
      </trkpt>
      <trkpt lat="41.095783" lon="-3.688500">
        <ele>1912.0</ele>
        <time>2017-10-01T13:40:39Z</time>
      </trkpt>
      <trkpt lat="41.095800" lon="-3.688533">
        <ele>1911.0</ele>
        <time>2017-10-01T13:40:40Z</time>
      </trkpt>
      <trkpt lat="41.095817" lon="-3.688583">
        <ele>1910.0</ele>
        <time>2017-10-01T13:40:41Z</time>
      </trkpt>
      <trkpt lat="41.095850" lon="-3.688617">
        <ele>1909.0</ele>
        <time>2017-10-01T13:40:42Z</time>
      </trkpt>
      <trkpt lat="41.095867" lon="-3.688650">
        <ele>1908.0</ele>
        <time>2017-10-01T13:40:43Z</time>
      </trkpt>
      <trkpt lat="41.095883" lon="-3.688700">
        <ele>1907.0</ele>
        <time>2017-10-01T13:40:44Z</time>
      </trkpt>
      <trkpt lat="41.095900" lon="-3.688750">
        <ele>1906.0</ele>
        <time>2017-10-01T13:40:45Z</time>
      </trkpt>
      <trkpt lat="41.095917" lon="-3.688800">
        <ele>1906.0</ele>
        <time>2017-10-01T13:40:46Z</time>
      </trkpt>
      <trkpt lat="41.095933" lon="-3.688817">
        <ele>1906.0</ele>
        <time>2017-10-01T13:40:47Z</time>
      </trkpt>
      <trkpt lat="41.095950" lon="-3.688850">
        <ele>1906.0</ele>
        <time>2017-10-01T13:40:48Z</time>
      </trkpt>
      <trkpt lat="41.095950" lon="-3.688867">
        <ele>1905.0</ele>
        <time>2017-10-01T13:40:49Z</time>
      </trkpt>
      <trkpt lat="41.095950" lon="-3.688917">
        <ele>1903.0</ele>
        <time>2017-10-01T13:40:50Z</time>
      </trkpt>
      <trkpt lat="41.095967" lon="-3.688967">
        <ele>1900.0</ele>
        <time>2017-10-01T13:40:51Z</time>
      </trkpt>
      <trkpt lat="41.096000" lon="-3.689017">
        <ele>1897.0</ele>
        <time>2017-10-01T13:40:52Z</time>
      </trkpt>
      <trkpt lat="41.096017" lon="-3.689067">
        <ele>1896.0</ele>
        <time>2017-10-01T13:40:53Z</time>
      </trkpt>
      <trkpt lat="41.096033" lon="-3.689117">
        <ele>1894.0</ele>
        <time>2017-10-01T13:40:54Z</time>
      </trkpt>
      <trkpt lat="41.096050" lon="-3.689167">
        <ele>1891.0</ele>
        <time>2017-10-01T13:40:55Z</time>
      </trkpt>
      <trkpt lat="41.096083" lon="-3.689200">
        <ele>1889.0</ele>
        <time>2017-10-01T13:40:56Z</time>
      </trkpt>
      <trkpt lat="41.096117" lon="-3.689233">
        <ele>1887.0</ele>
        <time>2017-10-01T13:40:57Z</time>
      </trkpt>
      <trkpt lat="41.096167" lon="-3.689267">
        <ele>1886.0</ele>
        <time>2017-10-01T13:40:58Z</time>
      </trkpt>
      <trkpt lat="41.096200" lon="-3.689283">
        <ele>1885.0</ele>
        <time>2017-10-01T13:40:59Z</time>
      </trkpt>
      <trkpt lat="41.096233" lon="-3.689317">
        <ele>1883.0</ele>
        <time>2017-10-01T13:41:00Z</time>
      </trkpt>
      <trkpt lat="41.096283" lon="-3.689367">
        <ele>1881.0</ele>
        <time>2017-10-01T13:41:01Z</time>
      </trkpt>
      <trkpt lat="41.096317" lon="-3.689417">
        <ele>1880.0</ele>
        <time>2017-10-01T13:41:02Z</time>
      </trkpt>
      <trkpt lat="41.096350" lon="-3.689483">
        <ele>1881.0</ele>
        <time>2017-10-01T13:41:03Z</time>
      </trkpt>
      <trkpt lat="41.096383" lon="-3.689533">
        <ele>1882.0</ele>
        <time>2017-10-01T13:41:04Z</time>
      </trkpt>
      <trkpt lat="41.096400" lon="-3.689550">
        <ele>1881.0</ele>
        <time>2017-10-01T13:41:05Z</time>
      </trkpt>
      <trkpt lat="41.096417" lon="-3.689583">
        <ele>1880.0</ele>
        <time>2017-10-01T13:41:06Z</time>
      </trkpt>
      <trkpt lat="41.096450" lon="-3.689617">
        <ele>1877.0</ele>
        <time>2017-10-01T13:41:07Z</time>
      </trkpt>
      <trkpt lat="41.096500" lon="-3.689667">
        <ele>1874.0</ele>
        <time>2017-10-01T13:41:08Z</time>
      </trkpt>
      <trkpt lat="41.096533" lon="-3.689733">
        <ele>1872.0</ele>
        <time>2017-10-01T13:41:09Z</time>
      </trkpt>
      <trkpt lat="41.096567" lon="-3.689783">
        <ele>1871.0</ele>
        <time>2017-10-01T13:41:10Z</time>
      </trkpt>
      <trkpt lat="41.096600" lon="-3.689833">
        <ele>1872.0</ele>
        <time>2017-10-01T13:41:11Z</time>
      </trkpt>
      <trkpt lat="41.096617" lon="-3.689867">
        <ele>1873.0</ele>
        <time>2017-10-01T13:41:12Z</time>
      </trkpt>
      <trkpt lat="41.096633" lon="-3.689917">
        <ele>1873.0</ele>
        <time>2017-10-01T13:41:13Z</time>
      </trkpt>
      <trkpt lat="41.096650" lon="-3.689983">
        <ele>1873.0</ele>
        <time>2017-10-01T13:41:14Z</time>
      </trkpt>
      <trkpt lat="41.096683" lon="-3.690033">
        <ele>1872.0</ele>
        <time>2017-10-01T13:41:15Z</time>
      </trkpt>
      <trkpt lat="41.096717" lon="-3.690100">
        <ele>1871.0</ele>
        <time>2017-10-01T13:41:16Z</time>
      </trkpt>
      <trkpt lat="41.096750" lon="-3.690183">
        <ele>1871.0</ele>
        <time>2017-10-01T13:41:17Z</time>
      </trkpt>
      <trkpt lat="41.096767" lon="-3.690250">
        <ele>1870.0</ele>
        <time>2017-10-01T13:41:18Z</time>
      </trkpt>
      <trkpt lat="41.096800" lon="-3.690317">
        <ele>1871.0</ele>
        <time>2017-10-01T13:41:19Z</time>
      </trkpt>
      <trkpt lat="41.096817" lon="-3.690383">
        <ele>1871.0</ele>
        <time>2017-10-01T13:41:20Z</time>
      </trkpt>
      <trkpt lat="41.096833" lon="-3.690450">
        <ele>1872.0</ele>
        <time>2017-10-01T13:41:21Z</time>
      </trkpt>
      <trkpt lat="41.096833" lon="-3.690500">
        <ele>1871.0</ele>
        <time>2017-10-01T13:41:22Z</time>
      </trkpt>
      <trkpt lat="41.096833" lon="-3.690550">
        <ele>1870.0</ele>
        <time>2017-10-01T13:41:23Z</time>
      </trkpt>
      <trkpt lat="41.096850" lon="-3.690617">
        <ele>1867.0</ele>
        <time>2017-10-01T13:41:24Z</time>
      </trkpt>
      <trkpt lat="41.096867" lon="-3.690683">
        <ele>1865.0</ele>
        <time>2017-10-01T13:41:25Z</time>
      </trkpt>
      <trkpt lat="41.096883" lon="-3.690767">
        <ele>1864.0</ele>
        <time>2017-10-01T13:41:26Z</time>
      </trkpt>
      <trkpt lat="41.096917" lon="-3.690833">
        <ele>1865.0</ele>
        <time>2017-10-01T13:41:27Z</time>
      </trkpt>
      <trkpt lat="41.096933" lon="-3.690900">
        <ele>1868.0</ele>
        <time>2017-10-01T13:41:28Z</time>
      </trkpt>
      <trkpt lat="41.096933" lon="-3.690950">
        <ele>1869.0</ele>
        <time>2017-10-01T13:41:29Z</time>
      </trkpt>
      <trkpt lat="41.096933" lon="-3.691000">
        <ele>1869.0</ele>
        <time>2017-10-01T13:41:30Z</time>
      </trkpt>
      <trkpt lat="41.096933" lon="-3.691050">
        <ele>1868.0</ele>
        <time>2017-10-01T13:41:31Z</time>
      </trkpt>
      <trkpt lat="41.096933" lon="-3.691133">
        <ele>1867.0</ele>
        <time>2017-10-01T13:41:32Z</time>
      </trkpt>
      <trkpt lat="41.096950" lon="-3.691200">
        <ele>1865.0</ele>
        <time>2017-10-01T13:41:33Z</time>
      </trkpt>
      <trkpt lat="41.096967" lon="-3.691267">
        <ele>1866.0</ele>
        <time>2017-10-01T13:41:34Z</time>
      </trkpt>
      <trkpt lat="41.096983" lon="-3.691317">
        <ele>1866.0</ele>
        <time>2017-10-01T13:41:35Z</time>
      </trkpt>
      <trkpt lat="41.097017" lon="-3.691367">
        <ele>1867.0</ele>
        <time>2017-10-01T13:41:36Z</time>
      </trkpt>
      <trkpt lat="41.097033" lon="-3.691433">
        <ele>1867.0</ele>
        <time>2017-10-01T13:41:37Z</time>
      </trkpt>
      <trkpt lat="41.097067" lon="-3.691500">
        <ele>1869.0</ele>
        <time>2017-10-01T13:41:38Z</time>
      </trkpt>
      <trkpt lat="41.097100" lon="-3.691550">
        <ele>1871.0</ele>
        <time>2017-10-01T13:41:39Z</time>
      </trkpt>
      <trkpt lat="41.097100" lon="-3.691600">
        <ele>1873.0</ele>
        <time>2017-10-01T13:41:40Z</time>
      </trkpt>
      <trkpt lat="41.097117" lon="-3.691650">
        <ele>1875.0</ele>
        <time>2017-10-01T13:41:41Z</time>
      </trkpt>
      <trkpt lat="41.097117" lon="-3.691683">
        <ele>1876.0</ele>
        <time>2017-10-01T13:41:42Z</time>
      </trkpt>
      <trkpt lat="41.097133" lon="-3.691733">
        <ele>1876.0</ele>
        <time>2017-10-01T13:41:43Z</time>
      </trkpt>
      <trkpt lat="41.097150" lon="-3.691800">
        <ele>1875.0</ele>
        <time>2017-10-01T13:41:44Z</time>
      </trkpt>
      <trkpt lat="41.097183" lon="-3.691867">
        <ele>1875.0</ele>
        <time>2017-10-01T13:41:45Z</time>
      </trkpt>
      <trkpt lat="41.097200" lon="-3.691917">
        <ele>1877.0</ele>
        <time>2017-10-01T13:41:46Z</time>
      </trkpt>
      <trkpt lat="41.097217" lon="-3.691983">
        <ele>1879.0</ele>
        <time>2017-10-01T13:41:47Z</time>
      </trkpt>
      <trkpt lat="41.097233" lon="-3.692050">
        <ele>1880.0</ele>
        <time>2017-10-01T13:41:48Z</time>
      </trkpt>
      <trkpt lat="41.097233" lon="-3.692100">
        <ele>1881.0</ele>
        <time>2017-10-01T13:41:49Z</time>
      </trkpt>
      <trkpt lat="41.097250" lon="-3.692167">
        <ele>1882.0</ele>
        <time>2017-10-01T13:41:50Z</time>
      </trkpt>
      <trkpt lat="41.097283" lon="-3.692233">
        <ele>1882.0</ele>
        <time>2017-10-01T13:41:51Z</time>
      </trkpt>
      <trkpt lat="41.097300" lon="-3.692283">
        <ele>1883.0</ele>
        <time>2017-10-01T13:41:52Z</time>
      </trkpt>
      <trkpt lat="41.097317" lon="-3.692333">
        <ele>1883.0</ele>
        <time>2017-10-01T13:41:53Z</time>
      </trkpt>
      <trkpt lat="41.097333" lon="-3.692383">
        <ele>1884.0</ele>
        <time>2017-10-01T13:41:54Z</time>
      </trkpt>
      <trkpt lat="41.097350" lon="-3.692433">
        <ele>1883.0</ele>
        <time>2017-10-01T13:41:55Z</time>
      </trkpt>
      <trkpt lat="41.097367" lon="-3.692467">
        <ele>1883.0</ele>
        <time>2017-10-01T13:41:56Z</time>
      </trkpt>
      <trkpt lat="41.097400" lon="-3.692517">
        <ele>1882.0</ele>
        <time>2017-10-01T13:41:57Z</time>
      </trkpt>
      <trkpt lat="41.097417" lon="-3.692567">
        <ele>1881.0</ele>
        <time>2017-10-01T13:41:58Z</time>
      </trkpt>
      <trkpt lat="41.097450" lon="-3.692617">
        <ele>1880.0</ele>
        <time>2017-10-01T13:41:59Z</time>
      </trkpt>
      <trkpt lat="41.097483" lon="-3.692650">
        <ele>1880.0</ele>
        <time>2017-10-01T13:42:00Z</time>
      </trkpt>
      <trkpt lat="41.097517" lon="-3.692683">
        <ele>1879.0</ele>
        <time>2017-10-01T13:42:01Z</time>
      </trkpt>
      <trkpt lat="41.097533" lon="-3.692733">
        <ele>1878.0</ele>
        <time>2017-10-01T13:42:02Z</time>
      </trkpt>
      <trkpt lat="41.097583" lon="-3.692767">
        <ele>1877.0</ele>
        <time>2017-10-01T13:42:03Z</time>
      </trkpt>
      <trkpt lat="41.097617" lon="-3.692800">
        <ele>1876.0</ele>
        <time>2017-10-01T13:42:04Z</time>
      </trkpt>
      <trkpt lat="41.097650" lon="-3.692867">
        <ele>1875.0</ele>
        <time>2017-10-01T13:42:05Z</time>
      </trkpt>
      <trkpt lat="41.097667" lon="-3.692917">
        <ele>1874.0</ele>
        <time>2017-10-01T13:42:06Z</time>
      </trkpt>
      <trkpt lat="41.097683" lon="-3.692967">
        <ele>1874.0</ele>
        <time>2017-10-01T13:42:07Z</time>
      </trkpt>
      <trkpt lat="41.097717" lon="-3.693033">
        <ele>1873.0</ele>
        <time>2017-10-01T13:42:08Z</time>
      </trkpt>
      <trkpt lat="41.097733" lon="-3.693083">
        <ele>1872.0</ele>
        <time>2017-10-01T13:42:09Z</time>
      </trkpt>
      <trkpt lat="41.097767" lon="-3.693133">
        <ele>1871.0</ele>
        <time>2017-10-01T13:42:10Z</time>
      </trkpt>
      <trkpt lat="41.097783" lon="-3.693200">
        <ele>1870.0</ele>
        <time>2017-10-01T13:42:11Z</time>
      </trkpt>
      <trkpt lat="41.097817" lon="-3.693267">
        <ele>1869.0</ele>
        <time>2017-10-01T13:42:12Z</time>
      </trkpt>
      <trkpt lat="41.097833" lon="-3.693317">
        <ele>1868.0</ele>
        <time>2017-10-01T13:42:13Z</time>
      </trkpt>
      <trkpt lat="41.097867" lon="-3.693383">
        <ele>1868.0</ele>
        <time>2017-10-01T13:42:14Z</time>
      </trkpt>
      <trkpt lat="41.097900" lon="-3.693433">
        <ele>1867.0</ele>
        <time>2017-10-01T13:42:15Z</time>
      </trkpt>
      <trkpt lat="41.097933" lon="-3.693500">
        <ele>1866.0</ele>
        <time>2017-10-01T13:42:16Z</time>
      </trkpt>
      <trkpt lat="41.097950" lon="-3.693550">
        <ele>1866.0</ele>
        <time>2017-10-01T13:42:17Z</time>
      </trkpt>
      <trkpt lat="41.097983" lon="-3.693583">
        <ele>1865.0</ele>
        <time>2017-10-01T13:42:18Z</time>
      </trkpt>
      <trkpt lat="41.098017" lon="-3.693633">
        <ele>1864.0</ele>
        <time>2017-10-01T13:42:19Z</time>
      </trkpt>
      <trkpt lat="41.098033" lon="-3.693683">
        <ele>1862.0</ele>
        <time>2017-10-01T13:42:20Z</time>
      </trkpt>
      <trkpt lat="41.098050" lon="-3.693750">
        <ele>1861.0</ele>
        <time>2017-10-01T13:42:21Z</time>
      </trkpt>
      <trkpt lat="41.098083" lon="-3.693817">
        <ele>1861.0</ele>
        <time>2017-10-01T13:42:22Z</time>
      </trkpt>
      <trkpt lat="41.098100" lon="-3.693867">
        <ele>1860.0</ele>
        <time>2017-10-01T13:42:23Z</time>
      </trkpt>
      <trkpt lat="41.098117" lon="-3.693933">
        <ele>1860.0</ele>
        <time>2017-10-01T13:42:24Z</time>
      </trkpt>
      <trkpt lat="41.098150" lon="-3.693983">
        <ele>1859.0</ele>
        <time>2017-10-01T13:42:25Z</time>
      </trkpt>
      <trkpt lat="41.098167" lon="-3.694033">
        <ele>1859.0</ele>
        <time>2017-10-01T13:42:26Z</time>
      </trkpt>
      <trkpt lat="41.098183" lon="-3.694100">
        <ele>1860.0</ele>
        <time>2017-10-01T13:42:27Z</time>
      </trkpt>
      <trkpt lat="41.098200" lon="-3.694150">
        <ele>1860.0</ele>
        <time>2017-10-01T13:42:28Z</time>
      </trkpt>
      <trkpt lat="41.098200" lon="-3.694200">
        <ele>1861.0</ele>
        <time>2017-10-01T13:42:29Z</time>
      </trkpt>
      <trkpt lat="41.098217" lon="-3.694233">
        <ele>1861.0</ele>
        <time>2017-10-01T13:42:30Z</time>
      </trkpt>
      <trkpt lat="41.098233" lon="-3.694267">
        <ele>1861.0</ele>
        <time>2017-10-01T13:42:31Z</time>
      </trkpt>
      <trkpt lat="41.098233" lon="-3.694317">
        <ele>1861.0</ele>
        <time>2017-10-01T13:42:32Z</time>
      </trkpt>
      <trkpt lat="41.098233" lon="-3.694350">
        <ele>1861.0</ele>
        <time>2017-10-01T13:42:33Z</time>
      </trkpt>
      <trkpt lat="41.098233" lon="-3.694400">
        <ele>1860.0</ele>
        <time>2017-10-01T13:42:34Z</time>
      </trkpt>
      <trkpt lat="41.098250" lon="-3.694433">
        <ele>1860.0</ele>
        <time>2017-10-01T13:42:35Z</time>
      </trkpt>
      <trkpt lat="41.098267" lon="-3.694467">
        <ele>1859.0</ele>
        <time>2017-10-01T13:42:36Z</time>
      </trkpt>
      <trkpt lat="41.098283" lon="-3.694500">
        <ele>1859.0</ele>
        <time>2017-10-01T13:42:37Z</time>
      </trkpt>
      <trkpt lat="41.098283" lon="-3.694533">
        <ele>1859.0</ele>
        <time>2017-10-01T13:42:38Z</time>
      </trkpt>
      <trkpt lat="41.098300" lon="-3.694567">
        <ele>1859.0</ele>
        <time>2017-10-01T13:42:39Z</time>
      </trkpt>
      <trkpt lat="41.098300" lon="-3.694600">
        <ele>1859.0</ele>
        <time>2017-10-01T13:42:40Z</time>
      </trkpt>
      <trkpt lat="41.098300" lon="-3.694650">
        <ele>1859.0</ele>
        <time>2017-10-01T13:42:41Z</time>
      </trkpt>
      <trkpt lat="41.098317" lon="-3.694683">
        <ele>1858.0</ele>
        <time>2017-10-01T13:42:42Z</time>
      </trkpt>
      <trkpt lat="41.098317" lon="-3.694717">
        <ele>1857.0</ele>
        <time>2017-10-01T13:42:43Z</time>
      </trkpt>
      <trkpt lat="41.098333" lon="-3.694750">
        <ele>1856.0</ele>
        <time>2017-10-01T13:42:44Z</time>
      </trkpt>
      <trkpt lat="41.098333" lon="-3.694767">
        <ele>1856.0</ele>
        <time>2017-10-01T13:42:45Z</time>
      </trkpt>
      <trkpt lat="41.098350" lon="-3.694800">
        <ele>1856.0</ele>
        <time>2017-10-01T13:42:46Z</time>
      </trkpt>
      <trkpt lat="41.098350" lon="-3.694833">
        <ele>1855.0</ele>
        <time>2017-10-01T13:42:47Z</time>
      </trkpt>
      <trkpt lat="41.098350" lon="-3.694850">
        <ele>1854.0</ele>
        <time>2017-10-01T13:42:48Z</time>
      </trkpt>
      <trkpt lat="41.098367" lon="-3.694883">
        <ele>1853.0</ele>
        <time>2017-10-01T13:42:49Z</time>
      </trkpt>
      <trkpt lat="41.098383" lon="-3.694900">
        <ele>1852.0</ele>
        <time>2017-10-01T13:42:50Z</time>
      </trkpt>
      <trkpt lat="41.098400" lon="-3.694933">
        <ele>1852.0</ele>
        <time>2017-10-01T13:42:51Z</time>
      </trkpt>
      <trkpt lat="41.098417" lon="-3.694950">
        <ele>1851.0</ele>
        <time>2017-10-01T13:42:52Z</time>
      </trkpt>
      <trkpt lat="41.098417" lon="-3.694967">
        <ele>1851.0</ele>
        <time>2017-10-01T13:42:53Z</time>
      </trkpt>
      <trkpt lat="41.098417" lon="-3.694983">
        <ele>1849.0</ele>
        <time>2017-10-01T13:42:54Z</time>
      </trkpt>
      <trkpt lat="41.098433" lon="-3.695017">
        <ele>1847.0</ele>
        <time>2017-10-01T13:42:55Z</time>
      </trkpt>
      <trkpt lat="41.098450" lon="-3.695067">
        <ele>1846.0</ele>
        <time>2017-10-01T13:42:56Z</time>
      </trkpt>
      <trkpt lat="41.098467" lon="-3.695100">
        <ele>1845.0</ele>
        <time>2017-10-01T13:42:57Z</time>
      </trkpt>
      <trkpt lat="41.098483" lon="-3.695133">
        <ele>1844.0</ele>
        <time>2017-10-01T13:42:58Z</time>
      </trkpt>
      <trkpt lat="41.098500" lon="-3.695167">
        <ele>1843.0</ele>
        <time>2017-10-01T13:42:59Z</time>
      </trkpt>
      <trkpt lat="41.098517" lon="-3.695200">
        <ele>1842.0</ele>
        <time>2017-10-01T13:43:00Z</time>
      </trkpt>
      <trkpt lat="41.098550" lon="-3.695233">
        <ele>1840.0</ele>
        <time>2017-10-01T13:43:01Z</time>
      </trkpt>
      <trkpt lat="41.098583" lon="-3.695267">
        <ele>1840.0</ele>
        <time>2017-10-01T13:43:02Z</time>
      </trkpt>
      <trkpt lat="41.098600" lon="-3.695300">
        <ele>1839.0</ele>
        <time>2017-10-01T13:43:03Z</time>
      </trkpt>
      <trkpt lat="41.098617" lon="-3.695350">
        <ele>1839.0</ele>
        <time>2017-10-01T13:43:04Z</time>
      </trkpt>
      <trkpt lat="41.098617" lon="-3.695383">
        <ele>1839.0</ele>
        <time>2017-10-01T13:43:05Z</time>
      </trkpt>
      <trkpt lat="41.098633" lon="-3.695417">
        <ele>1838.0</ele>
        <time>2017-10-01T13:43:06Z</time>
      </trkpt>
      <trkpt lat="41.098633" lon="-3.695467">
        <ele>1837.0</ele>
        <time>2017-10-01T13:43:07Z</time>
      </trkpt>
      <trkpt lat="41.098633" lon="-3.695517">
        <ele>1836.0</ele>
        <time>2017-10-01T13:43:08Z</time>
      </trkpt>
      <trkpt lat="41.098633" lon="-3.695550">
        <ele>1834.0</ele>
        <time>2017-10-01T13:43:09Z</time>
      </trkpt>
      <trkpt lat="41.098650" lon="-3.695567">
        <ele>1832.0</ele>
        <time>2017-10-01T13:43:10Z</time>
      </trkpt>
      <trkpt lat="41.098683" lon="-3.695583">
        <ele>1830.0</ele>
        <time>2017-10-01T13:43:11Z</time>
      </trkpt>
      <trkpt lat="41.098717" lon="-3.695583">
        <ele>1827.0</ele>
        <time>2017-10-01T13:43:12Z</time>
      </trkpt>
      <trkpt lat="41.098733" lon="-3.695567">
        <ele>1825.0</ele>
        <time>2017-10-01T13:43:13Z</time>
      </trkpt>
      <trkpt lat="41.098767" lon="-3.695583">
        <ele>1822.0</ele>
        <time>2017-10-01T13:43:14Z</time>
      </trkpt>
      <trkpt lat="41.098800" lon="-3.695617">
        <ele>1819.0</ele>
        <time>2017-10-01T13:43:15Z</time>
      </trkpt>
      <trkpt lat="41.098817" lon="-3.695650">
        <ele>1817.0</ele>
        <time>2017-10-01T13:43:16Z</time>
      </trkpt>
      <trkpt lat="41.098833" lon="-3.695683">
        <ele>1816.0</ele>
        <time>2017-10-01T13:43:17Z</time>
      </trkpt>
      <trkpt lat="41.098850" lon="-3.695700">
        <ele>1814.0</ele>
        <time>2017-10-01T13:43:18Z</time>
      </trkpt>
      <trkpt lat="41.098867" lon="-3.695717">
        <ele>1812.0</ele>
        <time>2017-10-01T13:43:19Z</time>
      </trkpt>
      <trkpt lat="41.098883" lon="-3.695733">
        <ele>1809.0</ele>
        <time>2017-10-01T13:43:20Z</time>
      </trkpt>
      <trkpt lat="41.098900" lon="-3.695783">
        <ele>1806.0</ele>
        <time>2017-10-01T13:43:21Z</time>
      </trkpt>
      <trkpt lat="41.098900" lon="-3.695833">
        <ele>1802.0</ele>
        <time>2017-10-01T13:43:22Z</time>
      </trkpt>
      <trkpt lat="41.098933" lon="-3.695867">
        <ele>1800.0</ele>
        <time>2017-10-01T13:43:23Z</time>
      </trkpt>
      <trkpt lat="41.098967" lon="-3.695900">
        <ele>1798.0</ele>
        <time>2017-10-01T13:43:24Z</time>
      </trkpt>
      <trkpt lat="41.099000" lon="-3.695917">
        <ele>1796.0</ele>
        <time>2017-10-01T13:43:25Z</time>
      </trkpt>
      <trkpt lat="41.099033" lon="-3.695950">
        <ele>1795.0</ele>
        <time>2017-10-01T13:43:26Z</time>
      </trkpt>
      <trkpt lat="41.099050" lon="-3.695983">
        <ele>1794.0</ele>
        <time>2017-10-01T13:43:27Z</time>
      </trkpt>
      <trkpt lat="41.099067" lon="-3.696017">
        <ele>1792.0</ele>
        <time>2017-10-01T13:43:28Z</time>
      </trkpt>
      <trkpt lat="41.099100" lon="-3.696050">
        <ele>1789.0</ele>
        <time>2017-10-01T13:43:29Z</time>
      </trkpt>
      <trkpt lat="41.099117" lon="-3.696100">
        <ele>1787.0</ele>
        <time>2017-10-01T13:43:30Z</time>
      </trkpt>
      <trkpt lat="41.099150" lon="-3.696150">
        <ele>1786.0</ele>
        <time>2017-10-01T13:43:31Z</time>
      </trkpt>
      <trkpt lat="41.099167" lon="-3.696200">
        <ele>1784.0</ele>
        <time>2017-10-01T13:43:32Z</time>
      </trkpt>
      <trkpt lat="41.099183" lon="-3.696233">
        <ele>1783.0</ele>
        <time>2017-10-01T13:43:33Z</time>
      </trkpt>
      <trkpt lat="41.099200" lon="-3.696267">
        <ele>1781.0</ele>
        <time>2017-10-01T13:43:34Z</time>
      </trkpt>
      <trkpt lat="41.099233" lon="-3.696317">
        <ele>1778.0</ele>
        <time>2017-10-01T13:43:35Z</time>
      </trkpt>
      <trkpt lat="41.099267" lon="-3.696350">
        <ele>1776.0</ele>
        <time>2017-10-01T13:43:36Z</time>
      </trkpt>
      <trkpt lat="41.099300" lon="-3.696383">
        <ele>1774.0</ele>
        <time>2017-10-01T13:43:37Z</time>
      </trkpt>
      <trkpt lat="41.099333" lon="-3.696400">
        <ele>1773.0</ele>
        <time>2017-10-01T13:43:38Z</time>
      </trkpt>
      <trkpt lat="41.099367" lon="-3.696433">
        <ele>1772.0</ele>
        <time>2017-10-01T13:43:39Z</time>
      </trkpt>
      <trkpt lat="41.099383" lon="-3.696467">
        <ele>1770.0</ele>
        <time>2017-10-01T13:43:40Z</time>
      </trkpt>
      <trkpt lat="41.099417" lon="-3.696500">
        <ele>1768.0</ele>
        <time>2017-10-01T13:43:41Z</time>
      </trkpt>
      <trkpt lat="41.099433" lon="-3.696550">
        <ele>1766.0</ele>
        <time>2017-10-01T13:43:42Z</time>
      </trkpt>
      <trkpt lat="41.099450" lon="-3.696600">
        <ele>1764.0</ele>
        <time>2017-10-01T13:43:43Z</time>
      </trkpt>
      <trkpt lat="41.099483" lon="-3.696650">
        <ele>1763.0</ele>
        <time>2017-10-01T13:43:44Z</time>
      </trkpt>
      <trkpt lat="41.099483" lon="-3.696700">
        <ele>1763.0</ele>
        <time>2017-10-01T13:43:45Z</time>
      </trkpt>
      <trkpt lat="41.099500" lon="-3.696733">
        <ele>1763.0</ele>
        <time>2017-10-01T13:43:46Z</time>
      </trkpt>
      <trkpt lat="41.099500" lon="-3.696767">
        <ele>1762.0</ele>
        <time>2017-10-01T13:43:47Z</time>
      </trkpt>
      <trkpt lat="41.099517" lon="-3.696817">
        <ele>1761.0</ele>
        <time>2017-10-01T13:43:48Z</time>
      </trkpt>
      <trkpt lat="41.099533" lon="-3.696850">
        <ele>1759.0</ele>
        <time>2017-10-01T13:43:49Z</time>
      </trkpt>
      <trkpt lat="41.099550" lon="-3.696917">
        <ele>1757.0</ele>
        <time>2017-10-01T13:43:50Z</time>
      </trkpt>
      <trkpt lat="41.099550" lon="-3.696967">
        <ele>1757.0</ele>
        <time>2017-10-01T13:43:51Z</time>
      </trkpt>
      <trkpt lat="41.099567" lon="-3.697017">
        <ele>1757.0</ele>
        <time>2017-10-01T13:43:52Z</time>
      </trkpt>
      <trkpt lat="41.099583" lon="-3.697050">
        <ele>1756.0</ele>
        <time>2017-10-01T13:43:53Z</time>
      </trkpt>
      <trkpt lat="41.099583" lon="-3.697083">
        <ele>1756.0</ele>
        <time>2017-10-01T13:43:54Z</time>
      </trkpt>
      <trkpt lat="41.099617" lon="-3.697133">
        <ele>1755.0</ele>
        <time>2017-10-01T13:43:55Z</time>
      </trkpt>
      <trkpt lat="41.099633" lon="-3.697167">
        <ele>1754.0</ele>
        <time>2017-10-01T13:43:56Z</time>
      </trkpt>
      <trkpt lat="41.099650" lon="-3.697200">
        <ele>1754.0</ele>
        <time>2017-10-01T13:43:57Z</time>
      </trkpt>
      <trkpt lat="41.099667" lon="-3.697250">
        <ele>1753.0</ele>
        <time>2017-10-01T13:43:58Z</time>
      </trkpt>
      <trkpt lat="41.099683" lon="-3.697300">
        <ele>1753.0</ele>
        <time>2017-10-01T13:43:59Z</time>
      </trkpt>
      <trkpt lat="41.099700" lon="-3.697350">
        <ele>1752.0</ele>
        <time>2017-10-01T13:44:00Z</time>
      </trkpt>
      <trkpt lat="41.099700" lon="-3.697400">
        <ele>1750.0</ele>
        <time>2017-10-01T13:44:01Z</time>
      </trkpt>
      <trkpt lat="41.099717" lon="-3.697450">
        <ele>1748.0</ele>
        <time>2017-10-01T13:44:02Z</time>
      </trkpt>
      <trkpt lat="41.099750" lon="-3.697500">
        <ele>1746.0</ele>
        <time>2017-10-01T13:44:03Z</time>
      </trkpt>
      <trkpt lat="41.099783" lon="-3.697550">
        <ele>1745.0</ele>
        <time>2017-10-01T13:44:04Z</time>
      </trkpt>
      <trkpt lat="41.099817" lon="-3.697583">
        <ele>1744.0</ele>
        <time>2017-10-01T13:44:05Z</time>
      </trkpt>
      <trkpt lat="41.099833" lon="-3.697633">
        <ele>1745.0</ele>
        <time>2017-10-01T13:44:06Z</time>
      </trkpt>
      <trkpt lat="41.099850" lon="-3.697667">
        <ele>1745.0</ele>
        <time>2017-10-01T13:44:07Z</time>
      </trkpt>
      <trkpt lat="41.099867" lon="-3.697700">
        <ele>1744.0</ele>
        <time>2017-10-01T13:44:08Z</time>
      </trkpt>
      <trkpt lat="41.099883" lon="-3.697750">
        <ele>1743.0</ele>
        <time>2017-10-01T13:44:09Z</time>
      </trkpt>
      <trkpt lat="41.099900" lon="-3.697800">
        <ele>1741.0</ele>
        <time>2017-10-01T13:44:10Z</time>
      </trkpt>
      <trkpt lat="41.099933" lon="-3.697850">
        <ele>1741.0</ele>
        <time>2017-10-01T13:44:11Z</time>
      </trkpt>
      <trkpt lat="41.099967" lon="-3.697917">
        <ele>1741.0</ele>
        <time>2017-10-01T13:44:12Z</time>
      </trkpt>
      <trkpt lat="41.099983" lon="-3.697950">
        <ele>1740.0</ele>
        <time>2017-10-01T13:44:13Z</time>
      </trkpt>
      <trkpt lat="41.100000" lon="-3.698000">
        <ele>1739.0</ele>
        <time>2017-10-01T13:44:14Z</time>
      </trkpt>
      <trkpt lat="41.100017" lon="-3.698050">
        <ele>1738.0</ele>
        <time>2017-10-01T13:44:15Z</time>
      </trkpt>
      <trkpt lat="41.100033" lon="-3.698117">
        <ele>1736.0</ele>
        <time>2017-10-01T13:44:16Z</time>
      </trkpt>
      <trkpt lat="41.100050" lon="-3.698183">
        <ele>1735.0</ele>
        <time>2017-10-01T13:44:17Z</time>
      </trkpt>
      <trkpt lat="41.100067" lon="-3.698233">
        <ele>1735.0</ele>
        <time>2017-10-01T13:44:18Z</time>
      </trkpt>
      <trkpt lat="41.100100" lon="-3.698283">
        <ele>1734.0</ele>
        <time>2017-10-01T13:44:19Z</time>
      </trkpt>
      <trkpt lat="41.100117" lon="-3.698317">
        <ele>1733.0</ele>
        <time>2017-10-01T13:44:20Z</time>
      </trkpt>
      <trkpt lat="41.100133" lon="-3.698367">
        <ele>1731.0</ele>
        <time>2017-10-01T13:44:21Z</time>
      </trkpt>
      <trkpt lat="41.100167" lon="-3.698417">
        <ele>1730.0</ele>
        <time>2017-10-01T13:44:22Z</time>
      </trkpt>
      <trkpt lat="41.100183" lon="-3.698450">
        <ele>1728.0</ele>
        <time>2017-10-01T13:44:23Z</time>
      </trkpt>
      <trkpt lat="41.100217" lon="-3.698500">
        <ele>1727.0</ele>
        <time>2017-10-01T13:44:24Z</time>
      </trkpt>
      <trkpt lat="41.100250" lon="-3.698533">
        <ele>1726.0</ele>
        <time>2017-10-01T13:44:25Z</time>
      </trkpt>
      <trkpt lat="41.100283" lon="-3.698567">
        <ele>1724.0</ele>
        <time>2017-10-01T13:44:26Z</time>
      </trkpt>
      <trkpt lat="41.100317" lon="-3.698617">
        <ele>1723.0</ele>
        <time>2017-10-01T13:44:27Z</time>
      </trkpt>
      <trkpt lat="41.100367" lon="-3.698667">
        <ele>1721.0</ele>
        <time>2017-10-01T13:44:28Z</time>
      </trkpt>
      <trkpt lat="41.100400" lon="-3.698717">
        <ele>1721.0</ele>
        <time>2017-10-01T13:44:29Z</time>
      </trkpt>
      <trkpt lat="41.100433" lon="-3.698750">
        <ele>1721.0</ele>
        <time>2017-10-01T13:44:30Z</time>
      </trkpt>
      <trkpt lat="41.100450" lon="-3.698800">
        <ele>1720.0</ele>
        <time>2017-10-01T13:44:31Z</time>
      </trkpt>
      <trkpt lat="41.100467" lon="-3.698850">
        <ele>1718.0</ele>
        <time>2017-10-01T13:44:32Z</time>
      </trkpt>
      <trkpt lat="41.100500" lon="-3.698900">
        <ele>1716.0</ele>
        <time>2017-10-01T13:44:33Z</time>
      </trkpt>
      <trkpt lat="41.100533" lon="-3.698950">
        <ele>1713.0</ele>
        <time>2017-10-01T13:44:34Z</time>
      </trkpt>
      <trkpt lat="41.100567" lon="-3.699017">
        <ele>1710.0</ele>
        <time>2017-10-01T13:44:35Z</time>
      </trkpt>
      <trkpt lat="41.100600" lon="-3.699067">
        <ele>1709.0</ele>
        <time>2017-10-01T13:44:36Z</time>
      </trkpt>
      <trkpt lat="41.100617" lon="-3.699117">
        <ele>1708.0</ele>
        <time>2017-10-01T13:44:37Z</time>
      </trkpt>
      <trkpt lat="41.100633" lon="-3.699167">
        <ele>1706.0</ele>
        <time>2017-10-01T13:44:38Z</time>
      </trkpt>
      <trkpt lat="41.100650" lon="-3.699217">
        <ele>1704.0</ele>
        <time>2017-10-01T13:44:39Z</time>
      </trkpt>
      <trkpt lat="41.100683" lon="-3.699267">
        <ele>1702.0</ele>
        <time>2017-10-01T13:44:40Z</time>
      </trkpt>
      <trkpt lat="41.100717" lon="-3.699317">
        <ele>1699.0</ele>
        <time>2017-10-01T13:44:41Z</time>
      </trkpt>
      <trkpt lat="41.100750" lon="-3.699350">
        <ele>1698.0</ele>
        <time>2017-10-01T13:44:42Z</time>
      </trkpt>
      <trkpt lat="41.100783" lon="-3.699400">
        <ele>1697.0</ele>
        <time>2017-10-01T13:44:43Z</time>
      </trkpt>
      <trkpt lat="41.100800" lon="-3.699433">
        <ele>1695.0</ele>
        <time>2017-10-01T13:44:44Z</time>
      </trkpt>
      <trkpt lat="41.100817" lon="-3.699483">
        <ele>1693.0</ele>
        <time>2017-10-01T13:44:45Z</time>
      </trkpt>
      <trkpt lat="41.100833" lon="-3.699533">
        <ele>1691.0</ele>
        <time>2017-10-01T13:44:46Z</time>
      </trkpt>
      <trkpt lat="41.100867" lon="-3.699583">
        <ele>1689.0</ele>
        <time>2017-10-01T13:44:47Z</time>
      </trkpt>
      <trkpt lat="41.100900" lon="-3.699617">
        <ele>1687.0</ele>
        <time>2017-10-01T13:44:48Z</time>
      </trkpt>
      <trkpt lat="41.100917" lon="-3.699667">
        <ele>1686.0</ele>
        <time>2017-10-01T13:44:49Z</time>
      </trkpt>
      <trkpt lat="41.100950" lon="-3.699700">
        <ele>1685.0</ele>
        <time>2017-10-01T13:44:50Z</time>
      </trkpt>
      <trkpt lat="41.100967" lon="-3.699733">
        <ele>1683.0</ele>
        <time>2017-10-01T13:44:51Z</time>
      </trkpt>
      <trkpt lat="41.100983" lon="-3.699783">
        <ele>1682.0</ele>
        <time>2017-10-01T13:44:52Z</time>
      </trkpt>
      <trkpt lat="41.101000" lon="-3.699833">
        <ele>1681.0</ele>
        <time>2017-10-01T13:44:53Z</time>
      </trkpt>
      <trkpt lat="41.101033" lon="-3.699883">
        <ele>1680.0</ele>
        <time>2017-10-01T13:44:54Z</time>
      </trkpt>
      <trkpt lat="41.101050" lon="-3.699917">
        <ele>1680.0</ele>
        <time>2017-10-01T13:44:55Z</time>
      </trkpt>
      <trkpt lat="41.101050" lon="-3.699967">
        <ele>1679.0</ele>
        <time>2017-10-01T13:44:56Z</time>
      </trkpt>
      <trkpt lat="41.101067" lon="-3.700017">
        <ele>1679.0</ele>
        <time>2017-10-01T13:44:57Z</time>
      </trkpt>
      <trkpt lat="41.101083" lon="-3.700067">
        <ele>1678.0</ele>
        <time>2017-10-01T13:44:58Z</time>
      </trkpt>
      <trkpt lat="41.101100" lon="-3.700117">
        <ele>1677.0</ele>
        <time>2017-10-01T13:44:59Z</time>
      </trkpt>
      <trkpt lat="41.101117" lon="-3.700167">
        <ele>1676.0</ele>
        <time>2017-10-01T13:45:00Z</time>
      </trkpt>
      <trkpt lat="41.101133" lon="-3.700200">
        <ele>1676.0</ele>
        <time>2017-10-01T13:45:01Z</time>
      </trkpt>
      <trkpt lat="41.101133" lon="-3.700250">
        <ele>1675.0</ele>
        <time>2017-10-01T13:45:02Z</time>
      </trkpt>
      <trkpt lat="41.101150" lon="-3.700283">
        <ele>1674.0</ele>
        <time>2017-10-01T13:45:03Z</time>
      </trkpt>
      <trkpt lat="41.101167" lon="-3.700317">
        <ele>1673.0</ele>
        <time>2017-10-01T13:45:04Z</time>
      </trkpt>
      <trkpt lat="41.101167" lon="-3.700367">
        <ele>1671.0</ele>
        <time>2017-10-01T13:45:05Z</time>
      </trkpt>
      <trkpt lat="41.101200" lon="-3.700400">
        <ele>1669.0</ele>
        <time>2017-10-01T13:45:06Z</time>
      </trkpt>
      <trkpt lat="41.101217" lon="-3.700450">
        <ele>1668.0</ele>
        <time>2017-10-01T13:45:07Z</time>
      </trkpt>
      <trkpt lat="41.101233" lon="-3.700500">
        <ele>1667.0</ele>
        <time>2017-10-01T13:45:08Z</time>
      </trkpt>
      <trkpt lat="41.101250" lon="-3.700550">
        <ele>1666.0</ele>
        <time>2017-10-01T13:45:09Z</time>
      </trkpt>
      <trkpt lat="41.101267" lon="-3.700583">
        <ele>1665.0</ele>
        <time>2017-10-01T13:45:10Z</time>
      </trkpt>
      <trkpt lat="41.101283" lon="-3.700617">
        <ele>1664.0</ele>
        <time>2017-10-01T13:45:11Z</time>
      </trkpt>
      <trkpt lat="41.101300" lon="-3.700650">
        <ele>1662.0</ele>
        <time>2017-10-01T13:45:12Z</time>
      </trkpt>
      <trkpt lat="41.101333" lon="-3.700700">
        <ele>1660.0</ele>
        <time>2017-10-01T13:45:13Z</time>
      </trkpt>
      <trkpt lat="41.101367" lon="-3.700733">
        <ele>1659.0</ele>
        <time>2017-10-01T13:45:14Z</time>
      </trkpt>
      <trkpt lat="41.101400" lon="-3.700767">
        <ele>1658.0</ele>
        <time>2017-10-01T13:45:15Z</time>
      </trkpt>
      <trkpt lat="41.101433" lon="-3.700817">
        <ele>1657.0</ele>
        <time>2017-10-01T13:45:16Z</time>
      </trkpt>
      <trkpt lat="41.101450" lon="-3.700850">
        <ele>1657.0</ele>
        <time>2017-10-01T13:45:17Z</time>
      </trkpt>
      <trkpt lat="41.101483" lon="-3.700883">
        <ele>1656.0</ele>
        <time>2017-10-01T13:45:18Z</time>
      </trkpt>
      <trkpt lat="41.101517" lon="-3.700917">
        <ele>1656.0</ele>
        <time>2017-10-01T13:45:19Z</time>
      </trkpt>
      <trkpt lat="41.101533" lon="-3.700950">
        <ele>1655.0</ele>
        <time>2017-10-01T13:45:20Z</time>
      </trkpt>
      <trkpt lat="41.101567" lon="-3.700983">
        <ele>1653.0</ele>
        <time>2017-10-01T13:45:21Z</time>
      </trkpt>
      <trkpt lat="41.101583" lon="-3.701033">
        <ele>1652.0</ele>
        <time>2017-10-01T13:45:22Z</time>
      </trkpt>
      <trkpt lat="41.101600" lon="-3.701083">
        <ele>1651.0</ele>
        <time>2017-10-01T13:45:23Z</time>
      </trkpt>
      <trkpt lat="41.101617" lon="-3.701150">
        <ele>1651.0</ele>
        <time>2017-10-01T13:45:24Z</time>
      </trkpt>
      <trkpt lat="41.101633" lon="-3.701200">
        <ele>1650.0</ele>
        <time>2017-10-01T13:45:25Z</time>
      </trkpt>
      <trkpt lat="41.101650" lon="-3.701233">
        <ele>1649.0</ele>
        <time>2017-10-01T13:45:26Z</time>
      </trkpt>
      <trkpt lat="41.101667" lon="-3.701283">
        <ele>1648.0</ele>
        <time>2017-10-01T13:45:27Z</time>
      </trkpt>
      <trkpt lat="41.101700" lon="-3.701317">
        <ele>1647.0</ele>
        <time>2017-10-01T13:45:28Z</time>
      </trkpt>
      <trkpt lat="41.101717" lon="-3.701350">
        <ele>1646.0</ele>
        <time>2017-10-01T13:45:29Z</time>
      </trkpt>
      <trkpt lat="41.101750" lon="-3.701400">
        <ele>1645.0</ele>
        <time>2017-10-01T13:45:30Z</time>
      </trkpt>
      <trkpt lat="41.101767" lon="-3.701450">
        <ele>1644.0</ele>
        <time>2017-10-01T13:45:31Z</time>
      </trkpt>
      <trkpt lat="41.101800" lon="-3.701517">
        <ele>1644.0</ele>
        <time>2017-10-01T13:45:32Z</time>
      </trkpt>
      <trkpt lat="41.101817" lon="-3.701550">
        <ele>1643.0</ele>
        <time>2017-10-01T13:45:33Z</time>
      </trkpt>
      <trkpt lat="41.101833" lon="-3.701600">
        <ele>1643.0</ele>
        <time>2017-10-01T13:45:34Z</time>
      </trkpt>
      <trkpt lat="41.101850" lon="-3.701633">
        <ele>1643.0</ele>
        <time>2017-10-01T13:45:35Z</time>
      </trkpt>
      <trkpt lat="41.101867" lon="-3.701667">
        <ele>1642.0</ele>
        <time>2017-10-01T13:45:36Z</time>
      </trkpt>
      <trkpt lat="41.101883" lon="-3.701683">
        <ele>1641.0</ele>
        <time>2017-10-01T13:45:37Z</time>
      </trkpt>
      <trkpt lat="41.101900" lon="-3.701717">
        <ele>1640.0</ele>
        <time>2017-10-01T13:45:38Z</time>
      </trkpt>
      <trkpt lat="41.101917" lon="-3.701767">
        <ele>1639.0</ele>
        <time>2017-10-01T13:45:39Z</time>
      </trkpt>
      <trkpt lat="41.101933" lon="-3.701800">
        <ele>1638.0</ele>
        <time>2017-10-01T13:45:40Z</time>
      </trkpt>
      <trkpt lat="41.101950" lon="-3.701833">
        <ele>1637.0</ele>
        <time>2017-10-01T13:45:41Z</time>
      </trkpt>
      <trkpt lat="41.101983" lon="-3.701867">
        <ele>1636.0</ele>
        <time>2017-10-01T13:45:42Z</time>
      </trkpt>
      <trkpt lat="41.102000" lon="-3.701900">
        <ele>1633.0</ele>
        <time>2017-10-01T13:45:43Z</time>
      </trkpt>
      <trkpt lat="41.102050" lon="-3.701950">
        <ele>1631.0</ele>
        <time>2017-10-01T13:45:44Z</time>
      </trkpt>
      <trkpt lat="41.102083" lon="-3.701983">
        <ele>1630.0</ele>
        <time>2017-10-01T13:45:45Z</time>
      </trkpt>
      <trkpt lat="41.102117" lon="-3.702033">
        <ele>1630.0</ele>
        <time>2017-10-01T13:45:46Z</time>
      </trkpt>
      <trkpt lat="41.102133" lon="-3.702067">
        <ele>1630.0</ele>
        <time>2017-10-01T13:45:47Z</time>
      </trkpt>
      <trkpt lat="41.102150" lon="-3.702100">
        <ele>1630.0</ele>
        <time>2017-10-01T13:45:48Z</time>
      </trkpt>
      <trkpt lat="41.102183" lon="-3.702150">
        <ele>1628.0</ele>
        <time>2017-10-01T13:45:49Z</time>
      </trkpt>
      <trkpt lat="41.102217" lon="-3.702200">
        <ele>1627.0</ele>
        <time>2017-10-01T13:45:50Z</time>
      </trkpt>
      <trkpt lat="41.102250" lon="-3.702250">
        <ele>1626.0</ele>
        <time>2017-10-01T13:45:51Z</time>
      </trkpt>
      <trkpt lat="41.102283" lon="-3.702300">
        <ele>1626.0</ele>
        <time>2017-10-01T13:45:52Z</time>
      </trkpt>
      <trkpt lat="41.102300" lon="-3.702350">
        <ele>1625.0</ele>
        <time>2017-10-01T13:45:53Z</time>
      </trkpt>
      <trkpt lat="41.102333" lon="-3.702400">
        <ele>1624.0</ele>
        <time>2017-10-01T13:45:54Z</time>
      </trkpt>
      <trkpt lat="41.102350" lon="-3.702450">
        <ele>1622.0</ele>
        <time>2017-10-01T13:45:55Z</time>
      </trkpt>
      <trkpt lat="41.102383" lon="-3.702533">
        <ele>1621.0</ele>
        <time>2017-10-01T13:45:56Z</time>
      </trkpt>
      <trkpt lat="41.102400" lon="-3.702600">
        <ele>1620.0</ele>
        <time>2017-10-01T13:45:57Z</time>
      </trkpt>
      <trkpt lat="41.102417" lon="-3.702650">
        <ele>1620.0</ele>
        <time>2017-10-01T13:45:58Z</time>
      </trkpt>
      <trkpt lat="41.102433" lon="-3.702700">
        <ele>1619.0</ele>
        <time>2017-10-01T13:45:59Z</time>
      </trkpt>
      <trkpt lat="41.102450" lon="-3.702767">
        <ele>1619.0</ele>
        <time>2017-10-01T13:46:00Z</time>
      </trkpt>
      <trkpt lat="41.102467" lon="-3.702833">
        <ele>1618.0</ele>
        <time>2017-10-01T13:46:01Z</time>
      </trkpt>
      <trkpt lat="41.102500" lon="-3.702900">
        <ele>1617.0</ele>
        <time>2017-10-01T13:46:02Z</time>
      </trkpt>
      <trkpt lat="41.102517" lon="-3.702950">
        <ele>1616.0</ele>
        <time>2017-10-01T13:46:03Z</time>
      </trkpt>
      <trkpt lat="41.102550" lon="-3.703017">
        <ele>1616.0</ele>
        <time>2017-10-01T13:46:04Z</time>
      </trkpt>
      <trkpt lat="41.102600" lon="-3.703067">
        <ele>1616.0</ele>
        <time>2017-10-01T13:46:05Z</time>
      </trkpt>
      <trkpt lat="41.102633" lon="-3.703100">
        <ele>1617.0</ele>
        <time>2017-10-01T13:46:06Z</time>
      </trkpt>
      <trkpt lat="41.102667" lon="-3.703150">
        <ele>1618.0</ele>
        <time>2017-10-01T13:46:07Z</time>
      </trkpt>
      <trkpt lat="41.102700" lon="-3.703183">
        <ele>1618.0</ele>
        <time>2017-10-01T13:46:08Z</time>
      </trkpt>
      <trkpt lat="41.102733" lon="-3.703233">
        <ele>1617.0</ele>
        <time>2017-10-01T13:46:09Z</time>
      </trkpt>
      <trkpt lat="41.102750" lon="-3.703300">
        <ele>1615.0</ele>
        <time>2017-10-01T13:46:10Z</time>
      </trkpt>
      <trkpt lat="41.102767" lon="-3.703367">
        <ele>1613.0</ele>
        <time>2017-10-01T13:46:11Z</time>
      </trkpt>
      <trkpt lat="41.102767" lon="-3.703467">
        <ele>1611.0</ele>
        <time>2017-10-01T13:46:12Z</time>
      </trkpt>
      <trkpt lat="41.102767" lon="-3.703550">
        <ele>1610.0</ele>
        <time>2017-10-01T13:46:13Z</time>
      </trkpt>
      <trkpt lat="41.102750" lon="-3.703633">
        <ele>1610.0</ele>
        <time>2017-10-01T13:46:14Z</time>
      </trkpt>
      <trkpt lat="41.102767" lon="-3.703700">
        <ele>1609.0</ele>
        <time>2017-10-01T13:46:15Z</time>
      </trkpt>
      <trkpt lat="41.102783" lon="-3.703767">
        <ele>1607.0</ele>
        <time>2017-10-01T13:46:16Z</time>
      </trkpt>
      <trkpt lat="41.102817" lon="-3.703850">
        <ele>1605.0</ele>
        <time>2017-10-01T13:46:17Z</time>
      </trkpt>
      <trkpt lat="41.102833" lon="-3.703917">
        <ele>1604.0</ele>
        <time>2017-10-01T13:46:18Z</time>
      </trkpt>
      <trkpt lat="41.102867" lon="-3.704000">
        <ele>1603.0</ele>
        <time>2017-10-01T13:46:19Z</time>
      </trkpt>
      <trkpt lat="41.102867" lon="-3.704067">
        <ele>1604.0</ele>
        <time>2017-10-01T13:46:20Z</time>
      </trkpt>
      <trkpt lat="41.102883" lon="-3.704133">
        <ele>1604.0</ele>
        <time>2017-10-01T13:46:21Z</time>
      </trkpt>
      <trkpt lat="41.102900" lon="-3.704183">
        <ele>1604.0</ele>
        <time>2017-10-01T13:46:22Z</time>
      </trkpt>
      <trkpt lat="41.102933" lon="-3.704233">
        <ele>1603.0</ele>
        <time>2017-10-01T13:46:23Z</time>
      </trkpt>
      <trkpt lat="41.102950" lon="-3.704283">
        <ele>1603.0</ele>
        <time>2017-10-01T13:46:24Z</time>
      </trkpt>
      <trkpt lat="41.102983" lon="-3.704317">
        <ele>1602.0</ele>
        <time>2017-10-01T13:46:25Z</time>
      </trkpt>
      <trkpt lat="41.103000" lon="-3.704350">
        <ele>1602.0</ele>
        <time>2017-10-01T13:46:26Z</time>
      </trkpt>
      <trkpt lat="41.103033" lon="-3.704383">
        <ele>1601.0</ele>
        <time>2017-10-01T13:46:27Z</time>
      </trkpt>
      <trkpt lat="41.103067" lon="-3.704417">
        <ele>1600.0</ele>
        <time>2017-10-01T13:46:28Z</time>
      </trkpt>
      <trkpt lat="41.103083" lon="-3.704433">
        <ele>1599.0</ele>
        <time>2017-10-01T13:46:29Z</time>
      </trkpt>
      <trkpt lat="41.103117" lon="-3.704467">
        <ele>1599.0</ele>
        <time>2017-10-01T13:46:30Z</time>
      </trkpt>
      <trkpt lat="41.103150" lon="-3.704500">
        <ele>1598.0</ele>
        <time>2017-10-01T13:46:31Z</time>
      </trkpt>
      <trkpt lat="41.103200" lon="-3.704533">
        <ele>1597.0</ele>
        <time>2017-10-01T13:46:32Z</time>
      </trkpt>
      <trkpt lat="41.103233" lon="-3.704567">
        <ele>1596.0</ele>
        <time>2017-10-01T13:46:33Z</time>
      </trkpt>
      <trkpt lat="41.103267" lon="-3.704600">
        <ele>1595.0</ele>
        <time>2017-10-01T13:46:34Z</time>
      </trkpt>
      <trkpt lat="41.103283" lon="-3.704667">
        <ele>1594.0</ele>
        <time>2017-10-01T13:46:35Z</time>
      </trkpt>
      <trkpt lat="41.103300" lon="-3.704733">
        <ele>1593.0</ele>
        <time>2017-10-01T13:46:36Z</time>
      </trkpt>
      <trkpt lat="41.103317" lon="-3.704783">
        <ele>1592.0</ele>
        <time>2017-10-01T13:46:37Z</time>
      </trkpt>
      <trkpt lat="41.103317" lon="-3.704850">
        <ele>1591.0</ele>
        <time>2017-10-01T13:46:38Z</time>
      </trkpt>
      <trkpt lat="41.103333" lon="-3.704900">
        <ele>1590.0</ele>
        <time>2017-10-01T13:46:39Z</time>
      </trkpt>
      <trkpt lat="41.103350" lon="-3.704950">
        <ele>1589.0</ele>
        <time>2017-10-01T13:46:40Z</time>
      </trkpt>
      <trkpt lat="41.103367" lon="-3.705000">
        <ele>1587.0</ele>
        <time>2017-10-01T13:46:41Z</time>
      </trkpt>
      <trkpt lat="41.103400" lon="-3.705050">
        <ele>1585.0</ele>
        <time>2017-10-01T13:46:42Z</time>
      </trkpt>
      <trkpt lat="41.103450" lon="-3.705083">
        <ele>1583.0</ele>
        <time>2017-10-01T13:46:43Z</time>
      </trkpt>
      <trkpt lat="41.103500" lon="-3.705133">
        <ele>1581.0</ele>
        <time>2017-10-01T13:46:44Z</time>
      </trkpt>
      <trkpt lat="41.103533" lon="-3.705200">
        <ele>1580.0</ele>
        <time>2017-10-01T13:46:45Z</time>
      </trkpt>
      <trkpt lat="41.103550" lon="-3.705267">
        <ele>1579.0</ele>
        <time>2017-10-01T13:46:46Z</time>
      </trkpt>
      <trkpt lat="41.103583" lon="-3.705333">
        <ele>1579.0</ele>
        <time>2017-10-01T13:46:47Z</time>
      </trkpt>
      <trkpt lat="41.103600" lon="-3.705400">
        <ele>1578.0</ele>
        <time>2017-10-01T13:46:48Z</time>
      </trkpt>
      <trkpt lat="41.103617" lon="-3.705450">
        <ele>1578.0</ele>
        <time>2017-10-01T13:46:49Z</time>
      </trkpt>
      <trkpt lat="41.103633" lon="-3.705517">
        <ele>1577.0</ele>
        <time>2017-10-01T13:46:50Z</time>
      </trkpt>
      <trkpt lat="41.103667" lon="-3.705583">
        <ele>1576.0</ele>
        <time>2017-10-01T13:46:51Z</time>
      </trkpt>
      <trkpt lat="41.103683" lon="-3.705633">
        <ele>1575.0</ele>
        <time>2017-10-01T13:46:52Z</time>
      </trkpt>
      <trkpt lat="41.103717" lon="-3.705700">
        <ele>1575.0</ele>
        <time>2017-10-01T13:46:53Z</time>
      </trkpt>
      <trkpt lat="41.103733" lon="-3.705767">
        <ele>1574.0</ele>
        <time>2017-10-01T13:46:54Z</time>
      </trkpt>
      <trkpt lat="41.103750" lon="-3.705817">
        <ele>1574.0</ele>
        <time>2017-10-01T13:46:55Z</time>
      </trkpt>
      <trkpt lat="41.103767" lon="-3.705883">
        <ele>1573.0</ele>
        <time>2017-10-01T13:46:56Z</time>
      </trkpt>
      <trkpt lat="41.103783" lon="-3.705933">
        <ele>1573.0</ele>
        <time>2017-10-01T13:46:57Z</time>
      </trkpt>
      <trkpt lat="41.103800" lon="-3.706000">
        <ele>1573.0</ele>
        <time>2017-10-01T13:46:58Z</time>
      </trkpt>
      <trkpt lat="41.103833" lon="-3.706050">
        <ele>1572.0</ele>
        <time>2017-10-01T13:46:59Z</time>
      </trkpt>
      <trkpt lat="41.103867" lon="-3.706083">
        <ele>1570.0</ele>
        <time>2017-10-01T13:47:00Z</time>
      </trkpt>
      <trkpt lat="41.103900" lon="-3.706133">
        <ele>1568.0</ele>
        <time>2017-10-01T13:47:01Z</time>
      </trkpt>
      <trkpt lat="41.103950" lon="-3.706183">
        <ele>1566.0</ele>
        <time>2017-10-01T13:47:02Z</time>
      </trkpt>
      <trkpt lat="41.103983" lon="-3.706250">
        <ele>1565.0</ele>
        <time>2017-10-01T13:47:03Z</time>
      </trkpt>
      <trkpt lat="41.104000" lon="-3.706333">
        <ele>1564.0</ele>
        <time>2017-10-01T13:47:04Z</time>
      </trkpt>
      <trkpt lat="41.104033" lon="-3.706417">
        <ele>1563.0</ele>
        <time>2017-10-01T13:47:05Z</time>
      </trkpt>
      <trkpt lat="41.104050" lon="-3.706500">
        <ele>1562.0</ele>
        <time>2017-10-01T13:47:06Z</time>
      </trkpt>
      <trkpt lat="41.104067" lon="-3.706583">
        <ele>1563.0</ele>
        <time>2017-10-01T13:47:07Z</time>
      </trkpt>
      <trkpt lat="41.104083" lon="-3.706650">
        <ele>1563.0</ele>
        <time>2017-10-01T13:47:08Z</time>
      </trkpt>
      <trkpt lat="41.104083" lon="-3.706700">
        <ele>1564.0</ele>
        <time>2017-10-01T13:47:09Z</time>
      </trkpt>
      <trkpt lat="41.104100" lon="-3.706750">
        <ele>1563.0</ele>
        <time>2017-10-01T13:47:10Z</time>
      </trkpt>
      <trkpt lat="41.104100" lon="-3.706817">
        <ele>1561.0</ele>
        <time>2017-10-01T13:47:11Z</time>
      </trkpt>
      <trkpt lat="41.104117" lon="-3.706883">
        <ele>1559.0</ele>
        <time>2017-10-01T13:47:12Z</time>
      </trkpt>
      <trkpt lat="41.104150" lon="-3.706967">
        <ele>1558.0</ele>
        <time>2017-10-01T13:47:13Z</time>
      </trkpt>
      <trkpt lat="41.104167" lon="-3.707017">
        <ele>1558.0</ele>
        <time>2017-10-01T13:47:14Z</time>
      </trkpt>
      <trkpt lat="41.104200" lon="-3.707067">
        <ele>1558.0</ele>
        <time>2017-10-01T13:47:15Z</time>
      </trkpt>
      <trkpt lat="41.104217" lon="-3.707100">
        <ele>1557.0</ele>
        <time>2017-10-01T13:47:16Z</time>
      </trkpt>
      <trkpt lat="41.104250" lon="-3.707150">
        <ele>1555.0</ele>
        <time>2017-10-01T13:47:17Z</time>
      </trkpt>
      <trkpt lat="41.104283" lon="-3.707217">
        <ele>1552.0</ele>
        <time>2017-10-01T13:47:18Z</time>
      </trkpt>
      <trkpt lat="41.104300" lon="-3.707267">
        <ele>1551.0</ele>
        <time>2017-10-01T13:47:19Z</time>
      </trkpt>
      <trkpt lat="41.104333" lon="-3.707317">
        <ele>1550.0</ele>
        <time>2017-10-01T13:47:20Z</time>
      </trkpt>
      <trkpt lat="41.104367" lon="-3.707367">
        <ele>1549.0</ele>
        <time>2017-10-01T13:47:21Z</time>
      </trkpt>
      <trkpt lat="41.104417" lon="-3.707400">
        <ele>1547.0</ele>
        <time>2017-10-01T13:47:22Z</time>
      </trkpt>
      <trkpt lat="41.104467" lon="-3.707433">
        <ele>1546.0</ele>
        <time>2017-10-01T13:47:23Z</time>
      </trkpt>
      <trkpt lat="41.104500" lon="-3.707483">
        <ele>1544.0</ele>
        <time>2017-10-01T13:47:24Z</time>
      </trkpt>
      <trkpt lat="41.104550" lon="-3.707533">
        <ele>1542.0</ele>
        <time>2017-10-01T13:47:25Z</time>
      </trkpt>
      <trkpt lat="41.104583" lon="-3.707567">
        <ele>1541.0</ele>
        <time>2017-10-01T13:47:26Z</time>
      </trkpt>
      <trkpt lat="41.104600" lon="-3.707617">
        <ele>1540.0</ele>
        <time>2017-10-01T13:47:27Z</time>
      </trkpt>
      <trkpt lat="41.104633" lon="-3.707650">
        <ele>1539.0</ele>
        <time>2017-10-01T13:47:28Z</time>
      </trkpt>
      <trkpt lat="41.104650" lon="-3.707700">
        <ele>1538.0</ele>
        <time>2017-10-01T13:47:29Z</time>
      </trkpt>
      <trkpt lat="41.104683" lon="-3.707733">
        <ele>1536.0</ele>
        <time>2017-10-01T13:47:30Z</time>
      </trkpt>
      <trkpt lat="41.104717" lon="-3.707767">
        <ele>1534.0</ele>
        <time>2017-10-01T13:47:31Z</time>
      </trkpt>
      <trkpt lat="41.104750" lon="-3.707800">
        <ele>1532.0</ele>
        <time>2017-10-01T13:47:32Z</time>
      </trkpt>
      <trkpt lat="41.104783" lon="-3.707850">
        <ele>1530.0</ele>
        <time>2017-10-01T13:47:33Z</time>
      </trkpt>
      <trkpt lat="41.104817" lon="-3.707900">
        <ele>1528.0</ele>
        <time>2017-10-01T13:47:34Z</time>
      </trkpt>
      <trkpt lat="41.104867" lon="-3.707933">
        <ele>1527.0</ele>
        <time>2017-10-01T13:47:35Z</time>
      </trkpt>
      <trkpt lat="41.104883" lon="-3.707967">
        <ele>1526.0</ele>
        <time>2017-10-01T13:47:36Z</time>
      </trkpt>
      <trkpt lat="41.104917" lon="-3.708000">
        <ele>1524.0</ele>
        <time>2017-10-01T13:47:37Z</time>
      </trkpt>
      <trkpt lat="41.104933" lon="-3.708033">
        <ele>1522.0</ele>
        <time>2017-10-01T13:47:38Z</time>
      </trkpt>
      <trkpt lat="41.104983" lon="-3.708083">
        <ele>1519.0</ele>
        <time>2017-10-01T13:47:39Z</time>
      </trkpt>
      <trkpt lat="41.105033" lon="-3.708150">
        <ele>1516.0</ele>
        <time>2017-10-01T13:47:40Z</time>
      </trkpt>
      <trkpt lat="41.105083" lon="-3.708217">
        <ele>1515.0</ele>
        <time>2017-10-01T13:47:41Z</time>
      </trkpt>
      <trkpt lat="41.105117" lon="-3.708283">
        <ele>1515.0</ele>
        <time>2017-10-01T13:47:42Z</time>
      </trkpt>
      <trkpt lat="41.105150" lon="-3.708333">
        <ele>1516.0</ele>
        <time>2017-10-01T13:47:43Z</time>
      </trkpt>
      <trkpt lat="41.105167" lon="-3.708367">
        <ele>1516.0</ele>
        <time>2017-10-01T13:47:44Z</time>
      </trkpt>
      <trkpt lat="41.105183" lon="-3.708417">
        <ele>1515.0</ele>
        <time>2017-10-01T13:47:45Z</time>
      </trkpt>
      <trkpt lat="41.105217" lon="-3.708483">
        <ele>1514.0</ele>
        <time>2017-10-01T13:47:46Z</time>
      </trkpt>
      <trkpt lat="41.105233" lon="-3.708550">
        <ele>1512.0</ele>
        <time>2017-10-01T13:47:47Z</time>
      </trkpt>
      <trkpt lat="41.105267" lon="-3.708633">
        <ele>1512.0</ele>
        <time>2017-10-01T13:47:48Z</time>
      </trkpt>
      <trkpt lat="41.105283" lon="-3.708700">
        <ele>1513.0</ele>
        <time>2017-10-01T13:47:49Z</time>
      </trkpt>
      <trkpt lat="41.105283" lon="-3.708750">
        <ele>1513.0</ele>
        <time>2017-10-01T13:47:50Z</time>
      </trkpt>
      <trkpt lat="41.105300" lon="-3.708800">
        <ele>1513.0</ele>
        <time>2017-10-01T13:47:51Z</time>
      </trkpt>
      <trkpt lat="41.105317" lon="-3.708850">
        <ele>1512.0</ele>
        <time>2017-10-01T13:47:52Z</time>
      </trkpt>
      <trkpt lat="41.105350" lon="-3.708917">
        <ele>1510.0</ele>
        <time>2017-10-01T13:47:53Z</time>
      </trkpt>
      <trkpt lat="41.105367" lon="-3.708983">
        <ele>1509.0</ele>
        <time>2017-10-01T13:47:54Z</time>
      </trkpt>
      <trkpt lat="41.105400" lon="-3.709050">
        <ele>1509.0</ele>
        <time>2017-10-01T13:47:55Z</time>
      </trkpt>
      <trkpt lat="41.105417" lon="-3.709100">
        <ele>1509.0</ele>
        <time>2017-10-01T13:47:56Z</time>
      </trkpt>
      <trkpt lat="41.105450" lon="-3.709150">
        <ele>1509.0</ele>
        <time>2017-10-01T13:47:57Z</time>
      </trkpt>
      <trkpt lat="41.105483" lon="-3.709183">
        <ele>1510.0</ele>
        <time>2017-10-01T13:47:58Z</time>
      </trkpt>
      <trkpt lat="41.105500" lon="-3.709233">
        <ele>1509.0</ele>
        <time>2017-10-01T13:47:59Z</time>
      </trkpt>
      <trkpt lat="41.105517" lon="-3.709283">
        <ele>1508.0</ele>
        <time>2017-10-01T13:48:00Z</time>
      </trkpt>
      <trkpt lat="41.105533" lon="-3.709350">
        <ele>1508.0</ele>
        <time>2017-10-01T13:48:01Z</time>
      </trkpt>
      <trkpt lat="41.105550" lon="-3.709400">
        <ele>1507.0</ele>
        <time>2017-10-01T13:48:02Z</time>
      </trkpt>
      <trkpt lat="41.105567" lon="-3.709467">
        <ele>1507.0</ele>
        <time>2017-10-01T13:48:03Z</time>
      </trkpt>
      <trkpt lat="41.105583" lon="-3.709517">
        <ele>1506.0</ele>
        <time>2017-10-01T13:48:04Z</time>
      </trkpt>
      <trkpt lat="41.105600" lon="-3.709567">
        <ele>1505.0</ele>
        <time>2017-10-01T13:48:05Z</time>
      </trkpt>
      <trkpt lat="41.105633" lon="-3.709617">
        <ele>1503.0</ele>
        <time>2017-10-01T13:48:06Z</time>
      </trkpt>
      <trkpt lat="41.105667" lon="-3.709667">
        <ele>1502.0</ele>
        <time>2017-10-01T13:48:07Z</time>
      </trkpt>
      <trkpt lat="41.105700" lon="-3.709717">
        <ele>1500.0</ele>
        <time>2017-10-01T13:48:08Z</time>
      </trkpt>
      <trkpt lat="41.105733" lon="-3.709767">
        <ele>1499.0</ele>
        <time>2017-10-01T13:48:09Z</time>
      </trkpt>
      <trkpt lat="41.105767" lon="-3.709817">
        <ele>1498.0</ele>
        <time>2017-10-01T13:48:10Z</time>
      </trkpt>
      <trkpt lat="41.105800" lon="-3.709867">
        <ele>1497.0</ele>
        <time>2017-10-01T13:48:11Z</time>
      </trkpt>
      <trkpt lat="41.105833" lon="-3.709900">
        <ele>1495.0</ele>
        <time>2017-10-01T13:48:12Z</time>
      </trkpt>
      <trkpt lat="41.105867" lon="-3.709950">
        <ele>1493.0</ele>
        <time>2017-10-01T13:48:13Z</time>
      </trkpt>
      <trkpt lat="41.105900" lon="-3.710017">
        <ele>1491.0</ele>
        <time>2017-10-01T13:48:14Z</time>
      </trkpt>
      <trkpt lat="41.105917" lon="-3.710083">
        <ele>1490.0</ele>
        <time>2017-10-01T13:48:15Z</time>
      </trkpt>
      <trkpt lat="41.105950" lon="-3.710133">
        <ele>1489.0</ele>
        <time>2017-10-01T13:48:16Z</time>
      </trkpt>
      <trkpt lat="41.105967" lon="-3.710183">
        <ele>1488.0</ele>
        <time>2017-10-01T13:48:17Z</time>
      </trkpt>
      <trkpt lat="41.106000" lon="-3.710233">
        <ele>1486.0</ele>
        <time>2017-10-01T13:48:18Z</time>
      </trkpt>
      <trkpt lat="41.106017" lon="-3.710283">
        <ele>1485.0</ele>
        <time>2017-10-01T13:48:19Z</time>
      </trkpt>
      <trkpt lat="41.106050" lon="-3.710333">
        <ele>1483.0</ele>
        <time>2017-10-01T13:48:20Z</time>
      </trkpt>
      <trkpt lat="41.106083" lon="-3.710383">
        <ele>1481.0</ele>
        <time>2017-10-01T13:48:21Z</time>
      </trkpt>
      <trkpt lat="41.106117" lon="-3.710433">
        <ele>1480.0</ele>
        <time>2017-10-01T13:48:22Z</time>
      </trkpt>
      <trkpt lat="41.106133" lon="-3.710483">
        <ele>1478.0</ele>
        <time>2017-10-01T13:48:23Z</time>
      </trkpt>
      <trkpt lat="41.106150" lon="-3.710533">
        <ele>1476.0</ele>
        <time>2017-10-01T13:48:24Z</time>
      </trkpt>
      <trkpt lat="41.106183" lon="-3.710583">
        <ele>1475.0</ele>
        <time>2017-10-01T13:48:25Z</time>
      </trkpt>
      <trkpt lat="41.106217" lon="-3.710633">
        <ele>1474.0</ele>
        <time>2017-10-01T13:48:26Z</time>
      </trkpt>
      <trkpt lat="41.106250" lon="-3.710683">
        <ele>1473.0</ele>
        <time>2017-10-01T13:48:27Z</time>
      </trkpt>
      <trkpt lat="41.106267" lon="-3.710733">
        <ele>1473.0</ele>
        <time>2017-10-01T13:48:28Z</time>
      </trkpt>
      <trkpt lat="41.106300" lon="-3.710783">
        <ele>1473.0</ele>
        <time>2017-10-01T13:48:29Z</time>
      </trkpt>
      <trkpt lat="41.106317" lon="-3.710833">
        <ele>1472.0</ele>
        <time>2017-10-01T13:48:30Z</time>
      </trkpt>
      <trkpt lat="41.106350" lon="-3.710883">
        <ele>1472.0</ele>
        <time>2017-10-01T13:48:31Z</time>
      </trkpt>
      <trkpt lat="41.106367" lon="-3.710933">
        <ele>1472.0</ele>
        <time>2017-10-01T13:48:32Z</time>
      </trkpt>
      <trkpt lat="41.106400" lon="-3.710983">
        <ele>1472.0</ele>
        <time>2017-10-01T13:48:33Z</time>
      </trkpt>
      <trkpt lat="41.106417" lon="-3.711050">
        <ele>1472.0</ele>
        <time>2017-10-01T13:48:34Z</time>
      </trkpt>
      <trkpt lat="41.106433" lon="-3.711100">
        <ele>1472.0</ele>
        <time>2017-10-01T13:48:35Z</time>
      </trkpt>
      <trkpt lat="41.106450" lon="-3.711167">
        <ele>1473.0</ele>
        <time>2017-10-01T13:48:36Z</time>
      </trkpt>
      <trkpt lat="41.106467" lon="-3.711217">
        <ele>1473.0</ele>
        <time>2017-10-01T13:48:37Z</time>
      </trkpt>
      <trkpt lat="41.106500" lon="-3.711267">
        <ele>1472.0</ele>
        <time>2017-10-01T13:48:38Z</time>
      </trkpt>
      <trkpt lat="41.106517" lon="-3.711317">
        <ele>1472.0</ele>
        <time>2017-10-01T13:48:39Z</time>
      </trkpt>
      <trkpt lat="41.106533" lon="-3.711367">
        <ele>1471.0</ele>
        <time>2017-10-01T13:48:40Z</time>
      </trkpt>
      <trkpt lat="41.106550" lon="-3.711400">
        <ele>1471.0</ele>
        <time>2017-10-01T13:48:41Z</time>
      </trkpt>
      <trkpt lat="41.106583" lon="-3.711450">
        <ele>1470.0</ele>
        <time>2017-10-01T13:48:42Z</time>
      </trkpt>
      <trkpt lat="41.106600" lon="-3.711500">
        <ele>1468.0</ele>
        <time>2017-10-01T13:48:43Z</time>
      </trkpt>
      <trkpt lat="41.106617" lon="-3.711567">
        <ele>1466.0</ele>
        <time>2017-10-01T13:48:44Z</time>
      </trkpt>
      <trkpt lat="41.106633" lon="-3.711633">
        <ele>1464.0</ele>
        <time>2017-10-01T13:48:45Z</time>
      </trkpt>
      <trkpt lat="41.106667" lon="-3.711700">
        <ele>1464.0</ele>
        <time>2017-10-01T13:48:46Z</time>
      </trkpt>
      <trkpt lat="41.106683" lon="-3.711750">
        <ele>1464.0</ele>
        <time>2017-10-01T13:48:47Z</time>
      </trkpt>
      <trkpt lat="41.106700" lon="-3.711800">
        <ele>1464.0</ele>
        <time>2017-10-01T13:48:48Z</time>
      </trkpt>
      <trkpt lat="41.106717" lon="-3.711833">
        <ele>1463.0</ele>
        <time>2017-10-01T13:48:49Z</time>
      </trkpt>
      <trkpt lat="41.106733" lon="-3.711883">
        <ele>1461.0</ele>
        <time>2017-10-01T13:48:50Z</time>
      </trkpt>
      <trkpt lat="41.106767" lon="-3.711950">
        <ele>1459.0</ele>
        <time>2017-10-01T13:48:51Z</time>
      </trkpt>
      <trkpt lat="41.106800" lon="-3.712017">
        <ele>1459.0</ele>
        <time>2017-10-01T13:48:52Z</time>
      </trkpt>
      <trkpt lat="41.106817" lon="-3.712083">
        <ele>1460.0</ele>
        <time>2017-10-01T13:48:53Z</time>
      </trkpt>
      <trkpt lat="41.106833" lon="-3.712133">
        <ele>1462.0</ele>
        <time>2017-10-01T13:48:54Z</time>
      </trkpt>
      <trkpt lat="41.106833" lon="-3.712167">
        <ele>1463.0</ele>
        <time>2017-10-01T13:48:55Z</time>
      </trkpt>
      <trkpt lat="41.106833" lon="-3.712217">
        <ele>1463.0</ele>
        <time>2017-10-01T13:48:56Z</time>
      </trkpt>
      <trkpt lat="41.106850" lon="-3.712250">
        <ele>1463.0</ele>
        <time>2017-10-01T13:48:57Z</time>
      </trkpt>
      <trkpt lat="41.106883" lon="-3.712300">
        <ele>1463.0</ele>
        <time>2017-10-01T13:48:58Z</time>
      </trkpt>
      <trkpt lat="41.106900" lon="-3.712350">
        <ele>1464.0</ele>
        <time>2017-10-01T13:48:59Z</time>
      </trkpt>
      <trkpt lat="41.106950" lon="-3.712400">
        <ele>1464.0</ele>
        <time>2017-10-01T13:49:00Z</time>
      </trkpt>
      <trkpt lat="41.106983" lon="-3.712433">
        <ele>1466.0</ele>
        <time>2017-10-01T13:49:01Z</time>
      </trkpt>
      <trkpt lat="41.107017" lon="-3.712467">
        <ele>1467.0</ele>
        <time>2017-10-01T13:49:02Z</time>
      </trkpt>
      <trkpt lat="41.107050" lon="-3.712500">
        <ele>1467.0</ele>
        <time>2017-10-01T13:49:03Z</time>
      </trkpt>
      <trkpt lat="41.107067" lon="-3.712550">
        <ele>1468.0</ele>
        <time>2017-10-01T13:49:04Z</time>
      </trkpt>
      <trkpt lat="41.107067" lon="-3.712617">
        <ele>1468.0</ele>
        <time>2017-10-01T13:49:05Z</time>
      </trkpt>
      <trkpt lat="41.107083" lon="-3.712667">
        <ele>1469.0</ele>
        <time>2017-10-01T13:49:06Z</time>
      </trkpt>
      <trkpt lat="41.107083" lon="-3.712733">
        <ele>1469.0</ele>
        <time>2017-10-01T13:49:07Z</time>
      </trkpt>
      <trkpt lat="41.107100" lon="-3.712800">
        <ele>1470.0</ele>
        <time>2017-10-01T13:49:08Z</time>
      </trkpt>
      <trkpt lat="41.107117" lon="-3.712867">
        <ele>1470.0</ele>
        <time>2017-10-01T13:49:09Z</time>
      </trkpt>
      <trkpt lat="41.107133" lon="-3.712933">
        <ele>1470.0</ele>
        <time>2017-10-01T13:49:10Z</time>
      </trkpt>
      <trkpt lat="41.107167" lon="-3.713000">
        <ele>1470.0</ele>
        <time>2017-10-01T13:49:11Z</time>
      </trkpt>
      <trkpt lat="41.107200" lon="-3.713067">
        <ele>1470.0</ele>
        <time>2017-10-01T13:49:12Z</time>
      </trkpt>
      <trkpt lat="41.107233" lon="-3.713150">
        <ele>1470.0</ele>
        <time>2017-10-01T13:49:13Z</time>
      </trkpt>
      <trkpt lat="41.107267" lon="-3.713217">
        <ele>1471.0</ele>
        <time>2017-10-01T13:49:14Z</time>
      </trkpt>
      <trkpt lat="41.107283" lon="-3.713300">
        <ele>1472.0</ele>
        <time>2017-10-01T13:49:15Z</time>
      </trkpt>
      <trkpt lat="41.107283" lon="-3.713383">
        <ele>1473.0</ele>
        <time>2017-10-01T13:49:16Z</time>
      </trkpt>
      <trkpt lat="41.107267" lon="-3.713450">
        <ele>1474.0</ele>
        <time>2017-10-01T13:49:17Z</time>
      </trkpt>
      <trkpt lat="41.107233" lon="-3.713517">
        <ele>1476.0</ele>
        <time>2017-10-01T13:49:18Z</time>
      </trkpt>
      <trkpt lat="41.107183" lon="-3.713583">
        <ele>1476.0</ele>
        <time>2017-10-01T13:49:19Z</time>
      </trkpt>
      <trkpt lat="41.107167" lon="-3.713667">
        <ele>1476.0</ele>
        <time>2017-10-01T13:49:20Z</time>
      </trkpt>
      <trkpt lat="41.107150" lon="-3.713733">
        <ele>1475.0</ele>
        <time>2017-10-01T13:49:21Z</time>
      </trkpt>
      <trkpt lat="41.107133" lon="-3.713817">
        <ele>1474.0</ele>
        <time>2017-10-01T13:49:22Z</time>
      </trkpt>
      <trkpt lat="41.107133" lon="-3.713900">
        <ele>1473.0</ele>
        <time>2017-10-01T13:49:23Z</time>
      </trkpt>
      <trkpt lat="41.107133" lon="-3.713967">
        <ele>1473.0</ele>
        <time>2017-10-01T13:49:24Z</time>
      </trkpt>
      <trkpt lat="41.107150" lon="-3.714033">
        <ele>1472.0</ele>
        <time>2017-10-01T13:49:25Z</time>
      </trkpt>
      <trkpt lat="41.107167" lon="-3.714100">
        <ele>1473.0</ele>
        <time>2017-10-01T13:49:26Z</time>
      </trkpt>
      <trkpt lat="41.107183" lon="-3.714150">
        <ele>1474.0</ele>
        <time>2017-10-01T13:49:27Z</time>
      </trkpt>
      <trkpt lat="41.107183" lon="-3.714200">
        <ele>1475.0</ele>
        <time>2017-10-01T13:49:28Z</time>
      </trkpt>
      <trkpt lat="41.107167" lon="-3.714250">
        <ele>1475.0</ele>
        <time>2017-10-01T13:49:29Z</time>
      </trkpt>
      <trkpt lat="41.107150" lon="-3.714300">
        <ele>1473.0</ele>
        <time>2017-10-01T13:49:30Z</time>
      </trkpt>
      <trkpt lat="41.107150" lon="-3.714350">
        <ele>1470.0</ele>
        <time>2017-10-01T13:49:31Z</time>
      </trkpt>
      <trkpt lat="41.107167" lon="-3.714417">
        <ele>1467.0</ele>
        <time>2017-10-01T13:49:32Z</time>
      </trkpt>
      <trkpt lat="41.107183" lon="-3.714483">
        <ele>1466.0</ele>
        <time>2017-10-01T13:49:33Z</time>
      </trkpt>
      <trkpt lat="41.107200" lon="-3.714533">
        <ele>1465.0</ele>
        <time>2017-10-01T13:49:34Z</time>
      </trkpt>
      <trkpt lat="41.107200" lon="-3.714583">
        <ele>1465.0</ele>
        <time>2017-10-01T13:49:35Z</time>
      </trkpt>
      <trkpt lat="41.107217" lon="-3.714617">
        <ele>1463.0</ele>
        <time>2017-10-01T13:49:36Z</time>
      </trkpt>
      <trkpt lat="41.107233" lon="-3.714633">
        <ele>1461.0</ele>
        <time>2017-10-01T13:49:37Z</time>
      </trkpt>
      <trkpt lat="41.107250" lon="-3.714667">
        <ele>1458.0</ele>
        <time>2017-10-01T13:49:38Z</time>
      </trkpt>
      <trkpt lat="41.107283" lon="-3.714717">
        <ele>1455.0</ele>
        <time>2017-10-01T13:49:39Z</time>
      </trkpt>
      <trkpt lat="41.107300" lon="-3.714767">
        <ele>1452.0</ele>
        <time>2017-10-01T13:49:40Z</time>
      </trkpt>
      <trkpt lat="41.107317" lon="-3.714817">
        <ele>1451.0</ele>
        <time>2017-10-01T13:49:41Z</time>
      </trkpt>
      <trkpt lat="41.107333" lon="-3.714850">
        <ele>1450.0</ele>
        <time>2017-10-01T13:49:42Z</time>
      </trkpt>
      <trkpt lat="41.107350" lon="-3.714883">
        <ele>1448.0</ele>
        <time>2017-10-01T13:49:43Z</time>
      </trkpt>
      <trkpt lat="41.107367" lon="-3.714917">
        <ele>1445.0</ele>
        <time>2017-10-01T13:49:44Z</time>
      </trkpt>
      <trkpt lat="41.107383" lon="-3.714950">
        <ele>1443.0</ele>
        <time>2017-10-01T13:49:45Z</time>
      </trkpt>
      <trkpt lat="41.107417" lon="-3.715000">
        <ele>1440.0</ele>
        <time>2017-10-01T13:49:46Z</time>
      </trkpt>
      <trkpt lat="41.107433" lon="-3.715050">
        <ele>1438.0</ele>
        <time>2017-10-01T13:49:47Z</time>
      </trkpt>
      <trkpt lat="41.107450" lon="-3.715100">
        <ele>1436.0</ele>
        <time>2017-10-01T13:49:48Z</time>
      </trkpt>
      <trkpt lat="41.107467" lon="-3.715167">
        <ele>1433.0</ele>
        <time>2017-10-01T13:49:49Z</time>
      </trkpt>
      <trkpt lat="41.107483" lon="-3.715233">
        <ele>1431.0</ele>
        <time>2017-10-01T13:49:50Z</time>
      </trkpt>
      <trkpt lat="41.107500" lon="-3.715300">
        <ele>1429.0</ele>
        <time>2017-10-01T13:49:51Z</time>
      </trkpt>
      <trkpt lat="41.107517" lon="-3.715350">
        <ele>1428.0</ele>
        <time>2017-10-01T13:49:52Z</time>
      </trkpt>
      <trkpt lat="41.107533" lon="-3.715383">
        <ele>1425.0</ele>
        <time>2017-10-01T13:49:53Z</time>
      </trkpt>
      <trkpt lat="41.107550" lon="-3.715433">
        <ele>1423.0</ele>
        <time>2017-10-01T13:49:54Z</time>
      </trkpt>
      <trkpt lat="41.107583" lon="-3.715483">
        <ele>1420.0</ele>
        <time>2017-10-01T13:49:55Z</time>
      </trkpt>
      <trkpt lat="41.107617" lon="-3.715533">
        <ele>1418.0</ele>
        <time>2017-10-01T13:49:56Z</time>
      </trkpt>
      <trkpt lat="41.107650" lon="-3.715583">
        <ele>1416.0</ele>
        <time>2017-10-01T13:49:57Z</time>
      </trkpt>
      <trkpt lat="41.107683" lon="-3.715633">
        <ele>1414.0</ele>
        <time>2017-10-01T13:49:58Z</time>
      </trkpt>
      <trkpt lat="41.107700" lon="-3.715683">
        <ele>1412.0</ele>
        <time>2017-10-01T13:49:59Z</time>
      </trkpt>
      <trkpt lat="41.107733" lon="-3.715733">
        <ele>1410.0</ele>
        <time>2017-10-01T13:50:00Z</time>
      </trkpt>
      <trkpt lat="41.107750" lon="-3.715783">
        <ele>1407.0</ele>
        <time>2017-10-01T13:50:01Z</time>
      </trkpt>
      <trkpt lat="41.107783" lon="-3.715833">
        <ele>1405.0</ele>
        <time>2017-10-01T13:50:02Z</time>
      </trkpt>
      <trkpt lat="41.107817" lon="-3.715883">
        <ele>1403.0</ele>
        <time>2017-10-01T13:50:03Z</time>
      </trkpt>
      <trkpt lat="41.107850" lon="-3.715933">
        <ele>1401.0</ele>
        <time>2017-10-01T13:50:04Z</time>
      </trkpt>
      <trkpt lat="41.107883" lon="-3.715983">
        <ele>1400.0</ele>
        <time>2017-10-01T13:50:05Z</time>
      </trkpt>
      <trkpt lat="41.107917" lon="-3.716017">
        <ele>1398.0</ele>
        <time>2017-10-01T13:50:06Z</time>
      </trkpt>
      <trkpt lat="41.107933" lon="-3.716050">
        <ele>1396.0</ele>
        <time>2017-10-01T13:50:07Z</time>
      </trkpt>
      <trkpt lat="41.107967" lon="-3.716100">
        <ele>1393.0</ele>
        <time>2017-10-01T13:50:08Z</time>
      </trkpt>
      <trkpt lat="41.108000" lon="-3.716133">
        <ele>1391.0</ele>
        <time>2017-10-01T13:50:09Z</time>
      </trkpt>
      <trkpt lat="41.108033" lon="-3.716200">
        <ele>1388.0</ele>
        <time>2017-10-01T13:50:10Z</time>
      </trkpt>
      <trkpt lat="41.108050" lon="-3.716250">
        <ele>1387.0</ele>
        <time>2017-10-01T13:50:11Z</time>
      </trkpt>
      <trkpt lat="41.108033" lon="-3.716300">
        <ele>1385.0</ele>
        <time>2017-10-01T13:50:12Z</time>
      </trkpt>
      <trkpt lat="41.107983" lon="-3.716367">
        <ele>1382.0</ele>
        <time>2017-10-01T13:50:13Z</time>
      </trkpt>
      <trkpt lat="41.107917" lon="-3.716433">
        <ele>1378.0</ele>
        <time>2017-10-01T13:50:14Z</time>
      </trkpt>
      <trkpt lat="41.107867" lon="-3.716517">
        <ele>1375.0</ele>
        <time>2017-10-01T13:50:15Z</time>
      </trkpt>
      <trkpt lat="41.107883" lon="-3.716583">
        <ele>1372.0</ele>
        <time>2017-10-01T13:50:16Z</time>
      </trkpt>
      <trkpt lat="41.107950" lon="-3.716617">
        <ele>1367.0</ele>
        <time>2017-10-01T13:50:17Z</time>
      </trkpt>
      <trkpt lat="41.108033" lon="-3.716600">
        <ele>1363.0</ele>
        <time>2017-10-01T13:50:18Z</time>
      </trkpt>
      <trkpt lat="41.108100" lon="-3.716600">
        <ele>1364.0</ele>
        <time>2017-10-01T13:50:19Z</time>
      </trkpt>
      <trkpt lat="41.108133" lon="-3.716650">
        <ele>1363.0</ele>
        <time>2017-10-01T13:50:20Z</time>
      </trkpt>
      <trkpt lat="41.108083" lon="-3.716750">
        <ele>1358.0</ele>
        <time>2017-10-01T13:50:21Z</time>
      </trkpt>
      <trkpt lat="41.108033" lon="-3.716850">
        <ele>1355.0</ele>
        <time>2017-10-01T13:50:22Z</time>
      </trkpt>
      <trkpt lat="41.108017" lon="-3.716933">
        <ele>1355.0</ele>
        <time>2017-10-01T13:50:23Z</time>
      </trkpt>
      <trkpt lat="41.108083" lon="-3.716950">
        <ele>1350.0</ele>
        <time>2017-10-01T13:50:24Z</time>
      </trkpt>
      <trkpt lat="41.108150" lon="-3.716850">
        <ele>1341.0</ele>
        <time>2017-10-01T13:50:25Z</time>
      </trkpt>
      <trkpt lat="41.108133" lon="-3.716633">
        <ele>1331.0</ele>
        <time>2017-10-01T13:50:26Z</time>
      </trkpt>
      <trkpt lat="41.107983" lon="-3.716500">
        <ele>1323.0</ele>
        <time>2017-10-01T13:50:27Z</time>
      </trkpt>
      <trkpt lat="41.107817" lon="-3.716567">
        <ele>1312.0</ele>
        <time>2017-10-01T13:50:28Z</time>
      </trkpt>
      <trkpt lat="41.107833" lon="-3.716733">
        <ele>1300.0</ele>
        <time>2017-10-01T13:50:29Z</time>
      </trkpt>
      <trkpt lat="41.107967" lon="-3.716650">
        <ele>1287.0</ele>
        <time>2017-10-01T13:50:30Z</time>
      </trkpt>
      <trkpt lat="41.107950" lon="-3.716417">
        <ele>1275.0</ele>
        <time>2017-10-01T13:50:31Z</time>
      </trkpt>
      <trkpt lat="41.107767" lon="-3.716283">
        <ele>1263.0</ele>
        <time>2017-10-01T13:50:32Z</time>
      </trkpt>
      <trkpt lat="41.107617" lon="-3.716367">
        <ele>1257.0</ele>
        <time>2017-10-01T13:50:33Z</time>
      </trkpt>
      <trkpt lat="41.107583" lon="-3.716517">
        <ele>1259.0</ele>
        <time>2017-10-01T13:50:34Z</time>
      </trkpt>
      <trkpt lat="41.107650" lon="-3.716600">
        <ele>1260.0</ele>
        <time>2017-10-01T13:50:35Z</time>
      </trkpt>
      <trkpt lat="41.107733" lon="-3.716567">
        <ele>1259.0</ele>
        <time>2017-10-01T13:50:36Z</time>
      </trkpt>
      <trkpt lat="41.107800" lon="-3.716467">
        <ele>1260.0</ele>
        <time>2017-10-01T13:50:37Z</time>
      </trkpt>
      <trkpt lat="41.107833" lon="-3.716383">
        <ele>1261.0</ele>
        <time>2017-10-01T13:50:38Z</time>
      </trkpt>
      <trkpt lat="41.107867" lon="-3.716317">
        <ele>1261.0</ele>
        <time>2017-10-01T13:50:39Z</time>
      </trkpt>
      <trkpt lat="41.107900" lon="-3.716267">
        <ele>1259.0</ele>
        <time>2017-10-01T13:50:40Z</time>
      </trkpt>
      <trkpt lat="41.107950" lon="-3.716217">
        <ele>1256.0</ele>
        <time>2017-10-01T13:50:41Z</time>
      </trkpt>
      <trkpt lat="41.108017" lon="-3.716133">
        <ele>1252.0</ele>
        <time>2017-10-01T13:50:42Z</time>
      </trkpt>
      <trkpt lat="41.108083" lon="-3.716033">
        <ele>1251.0</ele>
        <time>2017-10-01T13:50:43Z</time>
      </trkpt>
      <trkpt lat="41.108133" lon="-3.715950">
        <ele>1252.0</ele>
        <time>2017-10-01T13:50:44Z</time>
      </trkpt>
      <trkpt lat="41.108167" lon="-3.715867">
        <ele>1252.0</ele>
        <time>2017-10-01T13:50:45Z</time>
      </trkpt>
      <trkpt lat="41.108183" lon="-3.715800">
        <ele>1251.0</ele>
        <time>2017-10-01T13:50:46Z</time>
      </trkpt>
      <trkpt lat="41.108233" lon="-3.715717">
        <ele>1248.0</ele>
        <time>2017-10-01T13:50:47Z</time>
      </trkpt>
      <trkpt lat="41.108283" lon="-3.715633">
        <ele>1244.0</ele>
        <time>2017-10-01T13:50:48Z</time>
      </trkpt>
      <trkpt lat="41.108350" lon="-3.715533">
        <ele>1242.0</ele>
        <time>2017-10-01T13:50:49Z</time>
      </trkpt>
      <trkpt lat="41.108400" lon="-3.715433">
        <ele>1241.0</ele>
        <time>2017-10-01T13:50:50Z</time>
      </trkpt>
      <trkpt lat="41.108417" lon="-3.715317">
        <ele>1242.0</ele>
        <time>2017-10-01T13:50:51Z</time>
      </trkpt>
      <trkpt lat="41.108433" lon="-3.715200">
        <ele>1241.0</ele>
        <time>2017-10-01T13:50:52Z</time>
      </trkpt>
      <trkpt lat="41.108450" lon="-3.715083">
        <ele>1239.0</ele>
        <time>2017-10-01T13:50:53Z</time>
      </trkpt>
      <trkpt lat="41.108500" lon="-3.714983">
        <ele>1236.0</ele>
        <time>2017-10-01T13:50:54Z</time>
      </trkpt>
      <trkpt lat="41.108567" lon="-3.714917">
        <ele>1232.0</ele>
        <time>2017-10-01T13:50:55Z</time>
      </trkpt>
      <trkpt lat="41.108650" lon="-3.714917">
        <ele>1231.0</ele>
        <time>2017-10-01T13:50:56Z</time>
      </trkpt>
      <trkpt lat="41.108700" lon="-3.714933">
        <ele>1230.0</ele>
        <time>2017-10-01T13:50:57Z</time>
      </trkpt>
      <trkpt lat="41.108733" lon="-3.714967">
        <ele>1231.0</ele>
        <time>2017-10-01T13:50:58Z</time>
      </trkpt>
      <trkpt lat="41.108733" lon="-3.715017">
        <ele>1230.0</ele>
        <time>2017-10-01T13:50:59Z</time>
      </trkpt>
      <trkpt lat="41.108733" lon="-3.715067">
        <ele>1227.0</ele>
        <time>2017-10-01T13:51:00Z</time>
      </trkpt>
      <trkpt lat="41.108733" lon="-3.715133">
        <ele>1225.0</ele>
        <time>2017-10-01T13:51:01Z</time>
      </trkpt>
      <trkpt lat="41.108733" lon="-3.715217">
        <ele>1222.0</ele>
        <time>2017-10-01T13:51:02Z</time>
      </trkpt>
      <trkpt lat="41.108717" lon="-3.715300">
        <ele>1221.0</ele>
        <time>2017-10-01T13:51:03Z</time>
      </trkpt>
      <trkpt lat="41.108700" lon="-3.715367">
        <ele>1221.0</ele>
        <time>2017-10-01T13:51:04Z</time>
      </trkpt>
      <trkpt lat="41.108700" lon="-3.715433">
        <ele>1220.0</ele>
        <time>2017-10-01T13:51:05Z</time>
      </trkpt>
      <trkpt lat="41.108700" lon="-3.715483">
        <ele>1220.0</ele>
        <time>2017-10-01T13:51:06Z</time>
      </trkpt>
      <trkpt lat="41.108683" lon="-3.715533">
        <ele>1218.0</ele>
        <time>2017-10-01T13:51:07Z</time>
      </trkpt>
      <trkpt lat="41.108683" lon="-3.715617">
        <ele>1216.0</ele>
        <time>2017-10-01T13:51:08Z</time>
      </trkpt>
      <trkpt lat="41.108667" lon="-3.715700">
        <ele>1214.0</ele>
        <time>2017-10-01T13:51:09Z</time>
      </trkpt>
      <trkpt lat="41.108650" lon="-3.715783">
        <ele>1213.0</ele>
        <time>2017-10-01T13:51:10Z</time>
      </trkpt>
      <trkpt lat="41.108633" lon="-3.715850">
        <ele>1213.0</ele>
        <time>2017-10-01T13:51:11Z</time>
      </trkpt>
      <trkpt lat="41.108600" lon="-3.715917">
        <ele>1213.0</ele>
        <time>2017-10-01T13:51:12Z</time>
      </trkpt>
      <trkpt lat="41.108567" lon="-3.715983">
        <ele>1212.0</ele>
        <time>2017-10-01T13:51:13Z</time>
      </trkpt>
      <trkpt lat="41.108517" lon="-3.716050">
        <ele>1210.0</ele>
        <time>2017-10-01T13:51:14Z</time>
      </trkpt>
      <trkpt lat="41.108467" lon="-3.716117">
        <ele>1208.0</ele>
        <time>2017-10-01T13:51:15Z</time>
      </trkpt>
      <trkpt lat="41.108417" lon="-3.716217">
        <ele>1206.0</ele>
        <time>2017-10-01T13:51:16Z</time>
      </trkpt>
      <trkpt lat="41.108367" lon="-3.716300">
        <ele>1205.0</ele>
        <time>2017-10-01T13:51:17Z</time>
      </trkpt>
      <trkpt lat="41.108333" lon="-3.716367">
        <ele>1205.0</ele>
        <time>2017-10-01T13:51:18Z</time>
      </trkpt>
      <trkpt lat="41.108283" lon="-3.716417">
        <ele>1204.0</ele>
        <time>2017-10-01T13:51:19Z</time>
      </trkpt>
      <trkpt lat="41.108250" lon="-3.716467">
        <ele>1203.0</ele>
        <time>2017-10-01T13:51:20Z</time>
      </trkpt>
      <trkpt lat="41.108233" lon="-3.716533">
        <ele>1200.0</ele>
        <time>2017-10-01T13:51:21Z</time>
      </trkpt>
      <trkpt lat="41.108250" lon="-3.716600">
        <ele>1198.0</ele>
        <time>2017-10-01T13:51:22Z</time>
      </trkpt>
      <trkpt lat="41.108283" lon="-3.716650">
        <ele>1196.0</ele>
        <time>2017-10-01T13:51:23Z</time>
      </trkpt>
      <trkpt lat="41.108333" lon="-3.716667">
        <ele>1195.0</ele>
        <time>2017-10-01T13:51:24Z</time>
      </trkpt>
      <trkpt lat="41.108383" lon="-3.716650">
        <ele>1195.0</ele>
        <time>2017-10-01T13:51:25Z</time>
      </trkpt>
      <trkpt lat="41.108417" lon="-3.716633">
        <ele>1194.0</ele>
        <time>2017-10-01T13:51:26Z</time>
      </trkpt>
      <trkpt lat="41.108467" lon="-3.716600">
        <ele>1193.0</ele>
        <time>2017-10-01T13:51:27Z</time>
      </trkpt>
      <trkpt lat="41.108500" lon="-3.716600">
        <ele>1192.0</ele>
        <time>2017-10-01T13:51:28Z</time>
      </trkpt>
      <trkpt lat="41.108533" lon="-3.716617">
        <ele>1190.0</ele>
        <time>2017-10-01T13:51:29Z</time>
      </trkpt>
      <trkpt lat="41.108550" lon="-3.716650">
        <ele>1188.0</ele>
        <time>2017-10-01T13:51:30Z</time>
      </trkpt>
      <trkpt lat="41.108583" lon="-3.716700">
        <ele>1186.0</ele>
        <time>2017-10-01T13:51:31Z</time>
      </trkpt>
      <trkpt lat="41.108600" lon="-3.716750">
        <ele>1184.0</ele>
        <time>2017-10-01T13:51:32Z</time>
      </trkpt>
      <trkpt lat="41.108633" lon="-3.716800">
        <ele>1182.0</ele>
        <time>2017-10-01T13:51:33Z</time>
      </trkpt>
      <trkpt lat="41.108667" lon="-3.716867">
        <ele>1180.0</ele>
        <time>2017-10-01T13:51:34Z</time>
      </trkpt>
      <trkpt lat="41.108700" lon="-3.716917">
        <ele>1180.0</ele>
        <time>2017-10-01T13:51:35Z</time>
      </trkpt>
      <trkpt lat="41.108733" lon="-3.716967">
        <ele>1179.0</ele>
        <time>2017-10-01T13:51:36Z</time>
      </trkpt>
      <trkpt lat="41.108750" lon="-3.717017">
        <ele>1178.0</ele>
        <time>2017-10-01T13:51:37Z</time>
      </trkpt>
      <trkpt lat="41.108767" lon="-3.717067">
        <ele>1177.0</ele>
        <time>2017-10-01T13:51:38Z</time>
      </trkpt>
      <trkpt lat="41.108800" lon="-3.717117">
        <ele>1176.0</ele>
        <time>2017-10-01T13:51:39Z</time>
      </trkpt>
      <trkpt lat="41.108817" lon="-3.717167">
        <ele>1175.0</ele>
        <time>2017-10-01T13:51:40Z</time>
      </trkpt>
      <trkpt lat="41.108833" lon="-3.717200">
        <ele>1175.0</ele>
        <time>2017-10-01T13:51:41Z</time>
      </trkpt>
      <trkpt lat="41.108833" lon="-3.717217">
        <ele>1175.0</ele>
        <time>2017-10-01T13:51:42Z</time>
      </trkpt>
      <trkpt lat="41.108833" lon="-3.717233">
        <ele>1175.0</ele>
        <time>2017-10-01T13:51:43Z</time>
      </trkpt>
      <trkpt lat="41.108833" lon="-3.717233">
        <ele>1175.0</ele>
        <time>2017-10-01T13:51:44Z</time>
      </trkpt>
      <trkpt lat="41.108833" lon="-3.717233">
        <ele>1175.0</ele>
        <time>2017-10-01T13:51:45Z</time>
      </trkpt>
      <trkpt lat="41.108833" lon="-3.717233">
        <ele>1175.0</ele>
        <time>2017-10-01T13:51:46Z</time>
      </trkpt>
      <trkpt lat="41.108833" lon="-3.717233">
        <ele>1175.0</ele>
        <time>2017-10-01T13:51:47Z</time>
      </trkpt>
      <trkpt lat="41.108833" lon="-3.717233">
        <ele>1175.0</ele>
        <time>2017-10-01T13:51:48Z</time>
      </trkpt>
      <trkpt lat="41.108833" lon="-3.717233">
        <ele>1175.0</ele>
        <time>2017-10-01T13:51:49Z</time>
      </trkpt>
      <trkpt lat="41.108833" lon="-3.717233">
        <ele>1175.0</ele>
        <time>2017-10-01T13:51:50Z</time>
      </trkpt>
      <trkpt lat="41.108833" lon="-3.717233">
        <ele>1175.0</ele>
        <time>2017-10-01T13:51:51Z</time>
      </trkpt>
      <trkpt lat="41.108833" lon="-3.717233">
        <ele>1175.0</ele>
        <time>2017-10-01T13:51:52Z</time>
      </trkpt>
      <trkpt lat="41.108833" lon="-3.717233">
        <ele>1175.0</ele>
        <time>2017-10-01T13:51:53Z</time>
      </trkpt>
      <trkpt lat="41.108833" lon="-3.717233">
        <ele>1175.0</ele>
        <time>2017-10-01T13:51:54Z</time>
      </trkpt>
      <trkpt lat="41.108833" lon="-3.717233">
        <ele>1175.0</ele>
        <time>2017-10-01T13:51:55Z</time>
      </trkpt>
      <trkpt lat="41.108833" lon="-3.717233">
        <ele>1175.0</ele>
        <time>2017-10-01T13:51:56Z</time>
      </trkpt>
      <trkpt lat="41.108833" lon="-3.717233">
        <ele>1175.0</ele>
        <time>2017-10-01T13:51:57Z</time>
      </trkpt>
      <trkpt lat="41.108833" lon="-3.717217">
        <ele>1175.0</ele>
        <time>2017-10-01T13:51:58Z</time>
      </trkpt>
      <trkpt lat="41.108833" lon="-3.717233">
        <ele>1175.0</ele>
        <time>2017-10-01T13:51:59Z</time>
      </trkpt>
    </trkseg>
  </trk>
</gpx>
